<?xml version="1.0" encoding="UTF-8" standalone="no" ?>
<gpx xmlns="http://www.topografix.com/GPX/1/1" xmlns:xsi="http://www.w3.org/2001/XMLSchema-instance" xsi:schemaLocation="http://www.topografix.com/GPX/1/1 http://www.topografix.com/GPX/1/1/gpx.xsd" version="1.1" creator="VisuGPX - https://www.visugpx.com">
  <metadata>
    <name>Mandeure et la montée de la grande solitude</name>
    <desc><![CDATA[Mandeure et la montée de la grande solitude]]></desc>
  </metadata>
  <trk>
    <name><![CDATA[02/11/2014 9:14]]></name>
    <desc><![CDATA[]]></desc>
    <trkseg>
      <trkpt lat="47.5182" lon="6.77413">
        <ele>387.6</ele>
        <time>2014-11-02T08:15:30.000Z</time>
      </trkpt>
      <trkpt lat="47.51816" lon="6.77424">
        <ele>388.5</ele>
        <time>2014-11-02T08:15:31.000Z</time>
      </trkpt>
      <trkpt lat="47.51814" lon="6.77438">
        <ele>389.9</ele>
        <time>2014-11-02T08:15:32.000Z</time>
      </trkpt>
      <trkpt lat="47.51816" lon="6.77438">
        <ele>389.9</ele>
        <time>2014-11-02T08:15:33.000Z</time>
      </trkpt>
      <trkpt lat="47.51815" lon="6.77477">
        <ele>392.7</ele>
        <time>2014-11-02T08:15:34.000Z</time>
      </trkpt>
      <trkpt lat="47.51812" lon="6.77487">
        <ele>392.6</ele>
        <time>2014-11-02T08:15:35.000Z</time>
      </trkpt>
      <trkpt lat="47.5181" lon="6.77488">
        <ele>390.1</ele>
        <time>2014-11-02T08:15:40.000Z</time>
      </trkpt>
      <trkpt lat="47.51807" lon="6.77485">
        <ele>383</ele>
        <time>2014-11-02T08:15:41.000Z</time>
      </trkpt>
      <trkpt lat="47.51808" lon="6.77484">
        <ele>381.5</ele>
        <time>2014-11-02T08:15:46.000Z</time>
      </trkpt>
      <trkpt lat="47.51812" lon="6.77488">
        <ele>402.9</ele>
        <time>2014-11-02T08:15:47.000Z</time>
      </trkpt>
      <trkpt lat="47.51814" lon="6.77482">
        <ele>404.7</ele>
        <time>2014-11-02T08:15:50.000Z</time>
      </trkpt>
      <trkpt lat="47.51814" lon="6.77481">
        <ele>404</ele>
        <time>2014-11-02T08:15:51.000Z</time>
      </trkpt>
      <trkpt lat="47.51814" lon="6.77475">
        <ele>384.6</ele>
        <time>2014-11-02T08:16:49.000Z</time>
      </trkpt>
      <trkpt lat="47.51814" lon="6.77474">
        <ele>384.9</ele>
        <time>2014-11-02T08:16:50.000Z</time>
      </trkpt>
      <trkpt lat="47.51817" lon="6.77475">
        <ele>379.9</ele>
        <time>2014-11-02T08:17:10.000Z</time>
      </trkpt>
      <trkpt lat="47.51818" lon="6.77476">
        <ele>379.2</ele>
        <time>2014-11-02T08:17:11.000Z</time>
      </trkpt>
      <trkpt lat="47.51821" lon="6.77479">
        <ele>379.8</ele>
        <time>2014-11-02T08:17:13.060Z</time>
      </trkpt>
      <trkpt lat="47.51821" lon="6.77483">
        <ele>384.8</ele>
        <time>2014-11-02T08:17:14.000Z</time>
      </trkpt>
      <trkpt lat="47.5182" lon="6.77486">
        <ele>386.6</ele>
        <time>2014-11-02T08:17:15.000Z</time>
      </trkpt>
      <trkpt lat="47.51817" lon="6.77489">
        <ele>387.2</ele>
        <time>2014-11-02T08:17:16.000Z</time>
      </trkpt>
      <trkpt lat="47.51814" lon="6.77491">
        <ele>388.4</ele>
        <time>2014-11-02T08:17:17.000Z</time>
      </trkpt>
      <trkpt lat="47.51812" lon="6.77492">
        <ele>389.2</ele>
        <time>2014-11-02T08:17:17.999Z</time>
      </trkpt>
      <trkpt lat="47.51809" lon="6.77492">
        <ele>387.8</ele>
        <time>2014-11-02T08:17:18.982Z</time>
      </trkpt>
      <trkpt lat="47.51804" lon="6.77493">
        <ele>387.9</ele>
        <time>2014-11-02T08:17:20.000Z</time>
      </trkpt>
      <trkpt lat="47.51801" lon="6.77493">
        <ele>390.1</ele>
        <time>2014-11-02T08:17:21.000Z</time>
      </trkpt>
      <trkpt lat="47.51799" lon="6.77492">
        <ele>390.8</ele>
        <time>2014-11-02T08:17:21.999Z</time>
      </trkpt>
      <trkpt lat="47.51795" lon="6.77492">
        <ele>392.3</ele>
        <time>2014-11-02T08:17:22.986Z</time>
      </trkpt>
      <trkpt lat="47.51791" lon="6.77492">
        <ele>392.6</ele>
        <time>2014-11-02T08:17:24.000Z</time>
      </trkpt>
      <trkpt lat="47.51788" lon="6.77491">
        <ele>391.4</ele>
        <time>2014-11-02T08:17:25.000Z</time>
      </trkpt>
      <trkpt lat="47.51784" lon="6.7749">
        <ele>390.6</ele>
        <time>2014-11-02T08:17:26.000Z</time>
      </trkpt>
      <trkpt lat="47.51781" lon="6.77489">
        <ele>391</ele>
        <time>2014-11-02T08:17:27.000Z</time>
      </trkpt>
      <trkpt lat="47.51777" lon="6.77489">
        <ele>391.2</ele>
        <time>2014-11-02T08:17:28.000Z</time>
      </trkpt>
      <trkpt lat="47.51774" lon="6.77489">
        <ele>392</ele>
        <time>2014-11-02T08:17:29.000Z</time>
      </trkpt>
      <trkpt lat="47.5177" lon="6.77489">
        <ele>392.7</ele>
        <time>2014-11-02T08:17:30.000Z</time>
      </trkpt>
      <trkpt lat="47.51766" lon="6.77488">
        <ele>393</ele>
        <time>2014-11-02T08:17:31.000Z</time>
      </trkpt>
      <trkpt lat="47.51763" lon="6.77488">
        <ele>393.5</ele>
        <time>2014-11-02T08:17:32.000Z</time>
      </trkpt>
      <trkpt lat="47.5176" lon="6.77487">
        <ele>394</ele>
        <time>2014-11-02T08:17:33.000Z</time>
      </trkpt>
      <trkpt lat="47.51757" lon="6.77487">
        <ele>394</ele>
        <time>2014-11-02T08:17:34.000Z</time>
      </trkpt>
      <trkpt lat="47.51752" lon="6.77484">
        <ele>395.1</ele>
        <time>2014-11-02T08:17:35.000Z</time>
      </trkpt>
      <trkpt lat="47.51748" lon="6.77483">
        <ele>394.2</ele>
        <time>2014-11-02T08:17:36.000Z</time>
      </trkpt>
      <trkpt lat="47.51745" lon="6.77482">
        <ele>393.9</ele>
        <time>2014-11-02T08:17:37.000Z</time>
      </trkpt>
      <trkpt lat="47.51742" lon="6.77483">
        <ele>393.9</ele>
        <time>2014-11-02T08:17:38.000Z</time>
      </trkpt>
      <trkpt lat="47.51738" lon="6.77485">
        <ele>393.5</ele>
        <time>2014-11-02T08:17:39.000Z</time>
      </trkpt>
      <trkpt lat="47.51736" lon="6.77491">
        <ele>394.2</ele>
        <time>2014-11-02T08:17:40.000Z</time>
      </trkpt>
      <trkpt lat="47.51735" lon="6.77497">
        <ele>394.3</ele>
        <time>2014-11-02T08:17:41.000Z</time>
      </trkpt>
      <trkpt lat="47.51734" lon="6.77502">
        <ele>393.9</ele>
        <time>2014-11-02T08:17:42.000Z</time>
      </trkpt>
      <trkpt lat="47.51733" lon="6.77507">
        <ele>393.6</ele>
        <time>2014-11-02T08:17:43.000Z</time>
      </trkpt>
      <trkpt lat="47.51732" lon="6.77513">
        <ele>393.5</ele>
        <time>2014-11-02T08:17:44.001Z</time>
      </trkpt>
      <trkpt lat="47.51731" lon="6.77519">
        <ele>393.6</ele>
        <time>2014-11-02T08:17:45.000Z</time>
      </trkpt>
      <trkpt lat="47.5173" lon="6.77525">
        <ele>393.6</ele>
        <time>2014-11-02T08:17:46.000Z</time>
      </trkpt>
      <trkpt lat="47.51728" lon="6.77531">
        <ele>393.2</ele>
        <time>2014-11-02T08:17:47.000Z</time>
      </trkpt>
      <trkpt lat="47.51727" lon="6.77536">
        <ele>393</ele>
        <time>2014-11-02T08:17:48.000Z</time>
      </trkpt>
      <trkpt lat="47.51725" lon="6.77541">
        <ele>393</ele>
        <time>2014-11-02T08:17:49.000Z</time>
      </trkpt>
      <trkpt lat="47.51723" lon="6.77546">
        <ele>393</ele>
        <time>2014-11-02T08:17:50.000Z</time>
      </trkpt>
      <trkpt lat="47.51721" lon="6.77551">
        <ele>394.8</ele>
        <time>2014-11-02T08:17:51.000Z</time>
      </trkpt>
      <trkpt lat="47.51719" lon="6.77555">
        <ele>396.4</ele>
        <time>2014-11-02T08:17:52.000Z</time>
      </trkpt>
      <trkpt lat="47.51716" lon="6.77558">
        <ele>397.4</ele>
        <time>2014-11-02T08:17:53.000Z</time>
      </trkpt>
      <trkpt lat="47.51713" lon="6.7756">
        <ele>397.9</ele>
        <time>2014-11-02T08:17:54.000Z</time>
      </trkpt>
      <trkpt lat="47.5171" lon="6.77561">
        <ele>398.8</ele>
        <time>2014-11-02T08:17:55.000Z</time>
      </trkpt>
      <trkpt lat="47.51707" lon="6.77559">
        <ele>397.5</ele>
        <time>2014-11-02T08:17:56.000Z</time>
      </trkpt>
      <trkpt lat="47.51703" lon="6.77555">
        <ele>397.4</ele>
        <time>2014-11-02T08:17:57.000Z</time>
      </trkpt>
      <trkpt lat="47.51698" lon="6.7754">
        <ele>397.6</ele>
        <time>2014-11-02T08:17:58.000Z</time>
      </trkpt>
      <trkpt lat="47.51694" lon="6.77535">
        <ele>396.8</ele>
        <time>2014-11-02T08:17:59.000Z</time>
      </trkpt>
      <trkpt lat="47.51689" lon="6.7753">
        <ele>396.2</ele>
        <time>2014-11-02T08:18:00.000Z</time>
      </trkpt>
      <trkpt lat="47.51684" lon="6.77525">
        <ele>395.4</ele>
        <time>2014-11-02T08:18:01.000Z</time>
      </trkpt>
      <trkpt lat="47.5168" lon="6.7752">
        <ele>394.3</ele>
        <time>2014-11-02T08:18:02.000Z</time>
      </trkpt>
      <trkpt lat="47.51661" lon="6.77498">
        <ele>392.5</ele>
        <time>2014-11-02T08:18:06.000Z</time>
      </trkpt>
      <trkpt lat="47.51656" lon="6.77491">
        <ele>392.4</ele>
        <time>2014-11-02T08:18:07.000Z</time>
      </trkpt>
      <trkpt lat="47.51651" lon="6.77485">
        <ele>392</ele>
        <time>2014-11-02T08:18:08.000Z</time>
      </trkpt>
      <trkpt lat="47.51646" lon="6.77479">
        <ele>391.3</ele>
        <time>2014-11-02T08:18:09.000Z</time>
      </trkpt>
      <trkpt lat="47.51641" lon="6.77473">
        <ele>391.1</ele>
        <time>2014-11-02T08:18:10.000Z</time>
      </trkpt>
      <trkpt lat="47.51636" lon="6.77468">
        <ele>390.7</ele>
        <time>2014-11-02T08:18:11.000Z</time>
      </trkpt>
      <trkpt lat="47.51631" lon="6.77461">
        <ele>390.2</ele>
        <time>2014-11-02T08:18:12.000Z</time>
      </trkpt>
      <trkpt lat="47.51626" lon="6.77455">
        <ele>389.8</ele>
        <time>2014-11-02T08:18:13.000Z</time>
      </trkpt>
      <trkpt lat="47.51621" lon="6.77448">
        <ele>389.5</ele>
        <time>2014-11-02T08:18:14.000Z</time>
      </trkpt>
      <trkpt lat="47.51615" lon="6.7744">
        <ele>389.1</ele>
        <time>2014-11-02T08:18:15.000Z</time>
      </trkpt>
      <trkpt lat="47.51609" lon="6.77433">
        <ele>387.7</ele>
        <time>2014-11-02T08:18:16.000Z</time>
      </trkpt>
      <trkpt lat="47.51603" lon="6.77426">
        <ele>387.1</ele>
        <time>2014-11-02T08:18:17.000Z</time>
      </trkpt>
      <trkpt lat="47.51596" lon="6.7742">
        <ele>386.6</ele>
        <time>2014-11-02T08:18:18.000Z</time>
      </trkpt>
      <trkpt lat="47.51589" lon="6.77412">
        <ele>386.6</ele>
        <time>2014-11-02T08:18:19.000Z</time>
      </trkpt>
      <trkpt lat="47.51583" lon="6.77403">
        <ele>385.9</ele>
        <time>2014-11-02T08:18:20.000Z</time>
      </trkpt>
      <trkpt lat="47.51576" lon="6.77395">
        <ele>385.6</ele>
        <time>2014-11-02T08:18:21.000Z</time>
      </trkpt>
      <trkpt lat="47.5157" lon="6.77387">
        <ele>385</ele>
        <time>2014-11-02T08:18:22.000Z</time>
      </trkpt>
      <trkpt lat="47.51563" lon="6.77379">
        <ele>384.3</ele>
        <time>2014-11-02T08:18:23.000Z</time>
      </trkpt>
      <trkpt lat="47.51556" lon="6.7737">
        <ele>383.7</ele>
        <time>2014-11-02T08:18:24.000Z</time>
      </trkpt>
      <trkpt lat="47.51549" lon="6.77362">
        <ele>382.9</ele>
        <time>2014-11-02T08:18:25.000Z</time>
      </trkpt>
      <trkpt lat="47.51542" lon="6.77354">
        <ele>381.8</ele>
        <time>2014-11-02T08:18:26.000Z</time>
      </trkpt>
      <trkpt lat="47.51534" lon="6.77346">
        <ele>381.2</ele>
        <time>2014-11-02T08:18:27.000Z</time>
      </trkpt>
      <trkpt lat="47.51526" lon="6.77338">
        <ele>380.5</ele>
        <time>2014-11-02T08:18:28.000Z</time>
      </trkpt>
      <trkpt lat="47.51518" lon="6.77328">
        <ele>379.6</ele>
        <time>2014-11-02T08:18:29.000Z</time>
      </trkpt>
      <trkpt lat="47.5151" lon="6.77319">
        <ele>378.6</ele>
        <time>2014-11-02T08:18:30.000Z</time>
      </trkpt>
      <trkpt lat="47.51504" lon="6.77308">
        <ele>377.7</ele>
        <time>2014-11-02T08:18:31.000Z</time>
      </trkpt>
      <trkpt lat="47.51499" lon="6.77296">
        <ele>377.4</ele>
        <time>2014-11-02T08:18:32.000Z</time>
      </trkpt>
      <trkpt lat="47.51496" lon="6.77283">
        <ele>377.4</ele>
        <time>2014-11-02T08:18:33.000Z</time>
      </trkpt>
      <trkpt lat="47.51494" lon="6.77271">
        <ele>377.1</ele>
        <time>2014-11-02T08:18:34.000Z</time>
      </trkpt>
      <trkpt lat="47.51494" lon="6.77258">
        <ele>377.3</ele>
        <time>2014-11-02T08:18:35.000Z</time>
      </trkpt>
      <trkpt lat="47.51493" lon="6.77246">
        <ele>377.5</ele>
        <time>2014-11-02T08:18:36.000Z</time>
      </trkpt>
      <trkpt lat="47.51492" lon="6.77233">
        <ele>377.8</ele>
        <time>2014-11-02T08:18:37.000Z</time>
      </trkpt>
      <trkpt lat="47.51491" lon="6.77222">
        <ele>377.7</ele>
        <time>2014-11-02T08:18:38.000Z</time>
      </trkpt>
      <trkpt lat="47.5149" lon="6.77213">
        <ele>377.9</ele>
        <time>2014-11-02T08:18:39.000Z</time>
      </trkpt>
      <trkpt lat="47.51487" lon="6.77204">
        <ele>378.2</ele>
        <time>2014-11-02T08:18:40.000Z</time>
      </trkpt>
      <trkpt lat="47.51481" lon="6.77199">
        <ele>378.4</ele>
        <time>2014-11-02T08:18:41.000Z</time>
      </trkpt>
      <trkpt lat="47.51474" lon="6.772">
        <ele>377.6</ele>
        <time>2014-11-02T08:18:42.000Z</time>
      </trkpt>
      <trkpt lat="47.51466" lon="6.77203">
        <ele>377.2</ele>
        <time>2014-11-02T08:18:43.000Z</time>
      </trkpt>
      <trkpt lat="47.51458" lon="6.77207">
        <ele>376.8</ele>
        <time>2014-11-02T08:18:44.000Z</time>
      </trkpt>
      <trkpt lat="47.51451" lon="6.7721">
        <ele>376.6</ele>
        <time>2014-11-02T08:18:45.000Z</time>
      </trkpt>
      <trkpt lat="47.51443" lon="6.77214">
        <ele>376.7</ele>
        <time>2014-11-02T08:18:46.000Z</time>
      </trkpt>
      <trkpt lat="47.51435" lon="6.77218">
        <ele>376.8</ele>
        <time>2014-11-02T08:18:47.000Z</time>
      </trkpt>
      <trkpt lat="47.51428" lon="6.77221">
        <ele>376.6</ele>
        <time>2014-11-02T08:18:48.000Z</time>
      </trkpt>
      <trkpt lat="47.51421" lon="6.77224">
        <ele>376.8</ele>
        <time>2014-11-02T08:18:49.000Z</time>
      </trkpt>
      <trkpt lat="47.51414" lon="6.77228">
        <ele>377.1</ele>
        <time>2014-11-02T08:18:50.000Z</time>
      </trkpt>
      <trkpt lat="47.51408" lon="6.77231">
        <ele>377.4</ele>
        <time>2014-11-02T08:18:51.000Z</time>
      </trkpt>
      <trkpt lat="47.51402" lon="6.77234">
        <ele>378.2</ele>
        <time>2014-11-02T08:18:52.000Z</time>
      </trkpt>
      <trkpt lat="47.51396" lon="6.77238">
        <ele>378.6</ele>
        <time>2014-11-02T08:18:53.000Z</time>
      </trkpt>
      <trkpt lat="47.51391" lon="6.77241">
        <ele>378.9</ele>
        <time>2014-11-02T08:18:54.000Z</time>
      </trkpt>
      <trkpt lat="47.51386" lon="6.77244">
        <ele>379.2</ele>
        <time>2014-11-02T08:18:55.000Z</time>
      </trkpt>
      <trkpt lat="47.51382" lon="6.77247">
        <ele>379.4</ele>
        <time>2014-11-02T08:18:56.000Z</time>
      </trkpt>
      <trkpt lat="47.51377" lon="6.7725">
        <ele>379.9</ele>
        <time>2014-11-02T08:18:57.000Z</time>
      </trkpt>
      <trkpt lat="47.51373" lon="6.77252">
        <ele>380</ele>
        <time>2014-11-02T08:18:58.000Z</time>
      </trkpt>
      <trkpt lat="47.51369" lon="6.77255">
        <ele>380.7</ele>
        <time>2014-11-02T08:18:59.000Z</time>
      </trkpt>
      <trkpt lat="47.51365" lon="6.77257">
        <ele>381</ele>
        <time>2014-11-02T08:19:00.000Z</time>
      </trkpt>
      <trkpt lat="47.51362" lon="6.77261">
        <ele>380.9</ele>
        <time>2014-11-02T08:19:01.000Z</time>
      </trkpt>
      <trkpt lat="47.51359" lon="6.77265">
        <ele>381.3</ele>
        <time>2014-11-02T08:19:02.000Z</time>
      </trkpt>
      <trkpt lat="47.51336" lon="6.77287">
        <ele>384.9</ele>
        <time>2014-11-02T08:19:10.000Z</time>
      </trkpt>
      <trkpt lat="47.51333" lon="6.77286">
        <ele>385.7</ele>
        <time>2014-11-02T08:19:11.000Z</time>
      </trkpt>
      <trkpt lat="47.5133" lon="6.77285">
        <ele>386.2</ele>
        <time>2014-11-02T08:19:12.000Z</time>
      </trkpt>
      <trkpt lat="47.51325" lon="6.77284">
        <ele>387.8</ele>
        <time>2014-11-02T08:19:13.000Z</time>
      </trkpt>
      <trkpt lat="47.51321" lon="6.77281">
        <ele>389</ele>
        <time>2014-11-02T08:19:14.000Z</time>
      </trkpt>
      <trkpt lat="47.51317" lon="6.7728">
        <ele>389.6</ele>
        <time>2014-11-02T08:19:15.000Z</time>
      </trkpt>
      <trkpt lat="47.51314" lon="6.77278">
        <ele>390.6</ele>
        <time>2014-11-02T08:19:16.000Z</time>
      </trkpt>
      <trkpt lat="47.51311" lon="6.77276">
        <ele>391.6</ele>
        <time>2014-11-02T08:19:17.000Z</time>
      </trkpt>
      <trkpt lat="47.51307" lon="6.77275">
        <ele>391.9</ele>
        <time>2014-11-02T08:19:18.000Z</time>
      </trkpt>
      <trkpt lat="47.51304" lon="6.77274">
        <ele>392.1</ele>
        <time>2014-11-02T08:19:19.000Z</time>
      </trkpt>
      <trkpt lat="47.51301" lon="6.77272">
        <ele>392.9</ele>
        <time>2014-11-02T08:19:20.000Z</time>
      </trkpt>
      <trkpt lat="47.51297" lon="6.7727">
        <ele>393.4</ele>
        <time>2014-11-02T08:19:21.000Z</time>
      </trkpt>
      <trkpt lat="47.51294" lon="6.77268">
        <ele>394</ele>
        <time>2014-11-02T08:19:22.000Z</time>
      </trkpt>
      <trkpt lat="47.51291" lon="6.77266">
        <ele>394.1</ele>
        <time>2014-11-02T08:19:22.999Z</time>
      </trkpt>
      <trkpt lat="47.51288" lon="6.77264">
        <ele>396.3</ele>
        <time>2014-11-02T08:19:24.000Z</time>
      </trkpt>
      <trkpt lat="47.51284" lon="6.77262">
        <ele>396.3</ele>
        <time>2014-11-02T08:19:25.000Z</time>
      </trkpt>
      <trkpt lat="47.51281" lon="6.77261">
        <ele>396.8</ele>
        <time>2014-11-02T08:19:26.000Z</time>
      </trkpt>
      <trkpt lat="47.51277" lon="6.77259">
        <ele>397</ele>
        <time>2014-11-02T08:19:27.000Z</time>
      </trkpt>
      <trkpt lat="47.51274" lon="6.77256">
        <ele>397.7</ele>
        <time>2014-11-02T08:19:28.000Z</time>
      </trkpt>
      <trkpt lat="47.5127" lon="6.77254">
        <ele>398</ele>
        <time>2014-11-02T08:19:29.000Z</time>
      </trkpt>
      <trkpt lat="47.51267" lon="6.77251">
        <ele>397.7</ele>
        <time>2014-11-02T08:19:30.000Z</time>
      </trkpt>
      <trkpt lat="47.51263" lon="6.77248">
        <ele>397.5</ele>
        <time>2014-11-02T08:19:31.000Z</time>
      </trkpt>
      <trkpt lat="47.5126" lon="6.77244">
        <ele>397.3</ele>
        <time>2014-11-02T08:19:32.000Z</time>
      </trkpt>
      <trkpt lat="47.51254" lon="6.7724">
        <ele>397.5</ele>
        <time>2014-11-02T08:19:33.000Z</time>
      </trkpt>
      <trkpt lat="47.51251" lon="6.77235">
        <ele>397.3</ele>
        <time>2014-11-02T08:19:34.000Z</time>
      </trkpt>
      <trkpt lat="47.51248" lon="6.7723">
        <ele>396.8</ele>
        <time>2014-11-02T08:19:35.000Z</time>
      </trkpt>
      <trkpt lat="47.51243" lon="6.77225">
        <ele>396.3</ele>
        <time>2014-11-02T08:19:36.000Z</time>
      </trkpt>
      <trkpt lat="47.5124" lon="6.7722">
        <ele>396.1</ele>
        <time>2014-11-02T08:19:37.000Z</time>
      </trkpt>
      <trkpt lat="47.51237" lon="6.77214">
        <ele>395.2</ele>
        <time>2014-11-02T08:19:38.000Z</time>
      </trkpt>
      <trkpt lat="47.51234" lon="6.77207">
        <ele>395.2</ele>
        <time>2014-11-02T08:19:39.000Z</time>
      </trkpt>
      <trkpt lat="47.51232" lon="6.77202">
        <ele>394.8</ele>
        <time>2014-11-02T08:19:40.000Z</time>
      </trkpt>
      <trkpt lat="47.51229" lon="6.77197">
        <ele>395.4</ele>
        <time>2014-11-02T08:19:41.000Z</time>
      </trkpt>
      <trkpt lat="47.51226" lon="6.77191">
        <ele>395.4</ele>
        <time>2014-11-02T08:19:42.000Z</time>
      </trkpt>
      <trkpt lat="47.51223" lon="6.77185">
        <ele>394.9</ele>
        <time>2014-11-02T08:19:43.000Z</time>
      </trkpt>
      <trkpt lat="47.51221" lon="6.77179">
        <ele>395</ele>
        <time>2014-11-02T08:19:44.000Z</time>
      </trkpt>
      <trkpt lat="47.51218" lon="6.77173">
        <ele>394.4</ele>
        <time>2014-11-02T08:19:45.000Z</time>
      </trkpt>
      <trkpt lat="47.51215" lon="6.77167">
        <ele>395.1</ele>
        <time>2014-11-02T08:19:46.000Z</time>
      </trkpt>
      <trkpt lat="47.51212" lon="6.77161">
        <ele>395.2</ele>
        <time>2014-11-02T08:19:47.000Z</time>
      </trkpt>
      <trkpt lat="47.51208" lon="6.77155">
        <ele>394.6</ele>
        <time>2014-11-02T08:19:48.000Z</time>
      </trkpt>
      <trkpt lat="47.51206" lon="6.77149">
        <ele>394.8</ele>
        <time>2014-11-02T08:19:49.000Z</time>
      </trkpt>
      <trkpt lat="47.51202" lon="6.77141">
        <ele>394.5</ele>
        <time>2014-11-02T08:19:50.000Z</time>
      </trkpt>
      <trkpt lat="47.51198" lon="6.77134">
        <ele>394.1</ele>
        <time>2014-11-02T08:19:51.000Z</time>
      </trkpt>
      <trkpt lat="47.51194" lon="6.77127">
        <ele>394</ele>
        <time>2014-11-02T08:19:52.000Z</time>
      </trkpt>
      <trkpt lat="47.5119" lon="6.7712">
        <ele>393.6</ele>
        <time>2014-11-02T08:19:53.000Z</time>
      </trkpt>
      <trkpt lat="47.51186" lon="6.77112">
        <ele>393.2</ele>
        <time>2014-11-02T08:19:54.000Z</time>
      </trkpt>
      <trkpt lat="47.51182" lon="6.77104">
        <ele>392.2</ele>
        <time>2014-11-02T08:19:55.000Z</time>
      </trkpt>
      <trkpt lat="47.51178" lon="6.77096">
        <ele>392</ele>
        <time>2014-11-02T08:19:56.000Z</time>
      </trkpt>
      <trkpt lat="47.51174" lon="6.77089">
        <ele>392.1</ele>
        <time>2014-11-02T08:19:57.000Z</time>
      </trkpt>
      <trkpt lat="47.51169" lon="6.77081">
        <ele>391.7</ele>
        <time>2014-11-02T08:19:58.000Z</time>
      </trkpt>
      <trkpt lat="47.51165" lon="6.77075">
        <ele>391.9</ele>
        <time>2014-11-02T08:19:59.000Z</time>
      </trkpt>
      <trkpt lat="47.5116" lon="6.77069">
        <ele>391.9</ele>
        <time>2014-11-02T08:20:00.000Z</time>
      </trkpt>
      <trkpt lat="47.51155" lon="6.77064">
        <ele>391.6</ele>
        <time>2014-11-02T08:20:01.000Z</time>
      </trkpt>
      <trkpt lat="47.51149" lon="6.77059">
        <ele>391.5</ele>
        <time>2014-11-02T08:20:02.000Z</time>
      </trkpt>
      <trkpt lat="47.51136" lon="6.77046">
        <ele>390.7</ele>
        <time>2014-11-02T08:20:05.000Z</time>
      </trkpt>
      <trkpt lat="47.51131" lon="6.77041">
        <ele>391</ele>
        <time>2014-11-02T08:20:06.000Z</time>
      </trkpt>
      <trkpt lat="47.51125" lon="6.77035">
        <ele>390.9</ele>
        <time>2014-11-02T08:20:07.000Z</time>
      </trkpt>
      <trkpt lat="47.51119" lon="6.7703">
        <ele>390.8</ele>
        <time>2014-11-02T08:20:08.000Z</time>
      </trkpt>
      <trkpt lat="47.51113" lon="6.77025">
        <ele>390.9</ele>
        <time>2014-11-02T08:20:09.000Z</time>
      </trkpt>
      <trkpt lat="47.51106" lon="6.77019">
        <ele>386.8</ele>
        <time>2014-11-02T08:20:10.000Z</time>
      </trkpt>
      <trkpt lat="47.511" lon="6.77015">
        <ele>387.2</ele>
        <time>2014-11-02T08:20:11.000Z</time>
      </trkpt>
      <trkpt lat="47.51094" lon="6.77009">
        <ele>387.8</ele>
        <time>2014-11-02T08:20:12.000Z</time>
      </trkpt>
      <trkpt lat="47.51089" lon="6.77003">
        <ele>388.3</ele>
        <time>2014-11-02T08:20:13.000Z</time>
      </trkpt>
      <trkpt lat="47.51083" lon="6.76999">
        <ele>389</ele>
        <time>2014-11-02T08:20:14.000Z</time>
      </trkpt>
      <trkpt lat="47.51077" lon="6.76994">
        <ele>388.8</ele>
        <time>2014-11-02T08:20:15.000Z</time>
      </trkpt>
      <trkpt lat="47.51072" lon="6.76989">
        <ele>388.7</ele>
        <time>2014-11-02T08:20:16.000Z</time>
      </trkpt>
      <trkpt lat="47.51066" lon="6.76984">
        <ele>389.7</ele>
        <time>2014-11-02T08:20:17.000Z</time>
      </trkpt>
      <trkpt lat="47.51061" lon="6.76979">
        <ele>390.1</ele>
        <time>2014-11-02T08:20:18.000Z</time>
      </trkpt>
      <trkpt lat="47.51056" lon="6.76974">
        <ele>390.6</ele>
        <time>2014-11-02T08:20:19.000Z</time>
      </trkpt>
      <trkpt lat="47.51051" lon="6.7697">
        <ele>390.6</ele>
        <time>2014-11-02T08:20:20.000Z</time>
      </trkpt>
      <trkpt lat="47.51045" lon="6.76965">
        <ele>390.1</ele>
        <time>2014-11-02T08:20:21.000Z</time>
      </trkpt>
      <trkpt lat="47.51039" lon="6.7696">
        <ele>389.8</ele>
        <time>2014-11-02T08:20:22.000Z</time>
      </trkpt>
      <trkpt lat="47.51035" lon="6.76956">
        <ele>390.4</ele>
        <time>2014-11-02T08:20:23.000Z</time>
      </trkpt>
      <trkpt lat="47.51031" lon="6.76951">
        <ele>391.2</ele>
        <time>2014-11-02T08:20:24.000Z</time>
      </trkpt>
      <trkpt lat="47.51027" lon="6.76947">
        <ele>391.5</ele>
        <time>2014-11-02T08:20:25.000Z</time>
      </trkpt>
      <trkpt lat="47.51022" lon="6.76944">
        <ele>392.5</ele>
        <time>2014-11-02T08:20:26.000Z</time>
      </trkpt>
      <trkpt lat="47.51018" lon="6.76941">
        <ele>392.8</ele>
        <time>2014-11-02T08:20:27.000Z</time>
      </trkpt>
      <trkpt lat="47.51014" lon="6.76937">
        <ele>392.6</ele>
        <time>2014-11-02T08:20:28.000Z</time>
      </trkpt>
      <trkpt lat="47.51009" lon="6.76934">
        <ele>391.7</ele>
        <time>2014-11-02T08:20:29.000Z</time>
      </trkpt>
      <trkpt lat="47.51005" lon="6.76931">
        <ele>392.6</ele>
        <time>2014-11-02T08:20:30.000Z</time>
      </trkpt>
      <trkpt lat="47.51002" lon="6.76927">
        <ele>393.3</ele>
        <time>2014-11-02T08:20:31.000Z</time>
      </trkpt>
      <trkpt lat="47.50997" lon="6.76924">
        <ele>393.5</ele>
        <time>2014-11-02T08:20:32.000Z</time>
      </trkpt>
      <trkpt lat="47.50994" lon="6.76919">
        <ele>393.9</ele>
        <time>2014-11-02T08:20:33.000Z</time>
      </trkpt>
      <trkpt lat="47.50992" lon="6.76913">
        <ele>394.5</ele>
        <time>2014-11-02T08:20:34.000Z</time>
      </trkpt>
      <trkpt lat="47.50991" lon="6.76907">
        <ele>394.7</ele>
        <time>2014-11-02T08:20:35.000Z</time>
      </trkpt>
      <trkpt lat="47.50987" lon="6.76901">
        <ele>394.6</ele>
        <time>2014-11-02T08:20:36.000Z</time>
      </trkpt>
      <trkpt lat="47.50983" lon="6.76898">
        <ele>394.3</ele>
        <time>2014-11-02T08:20:37.000Z</time>
      </trkpt>
      <trkpt lat="47.50978" lon="6.76897">
        <ele>393.6</ele>
        <time>2014-11-02T08:20:38.000Z</time>
      </trkpt>
      <trkpt lat="47.50975" lon="6.76897">
        <ele>394.8</ele>
        <time>2014-11-02T08:20:39.000Z</time>
      </trkpt>
      <trkpt lat="47.50971" lon="6.76898">
        <ele>394.6</ele>
        <time>2014-11-02T08:20:40.000Z</time>
      </trkpt>
      <trkpt lat="47.50967" lon="6.76897">
        <ele>394.8</ele>
        <time>2014-11-02T08:20:41.000Z</time>
      </trkpt>
      <trkpt lat="47.50964" lon="6.76894">
        <ele>394.4</ele>
        <time>2014-11-02T08:20:42.000Z</time>
      </trkpt>
      <trkpt lat="47.5096" lon="6.76891">
        <ele>393.8</ele>
        <time>2014-11-02T08:20:43.000Z</time>
      </trkpt>
      <trkpt lat="47.50956" lon="6.76887">
        <ele>394.1</ele>
        <time>2014-11-02T08:20:44.000Z</time>
      </trkpt>
      <trkpt lat="47.50952" lon="6.76883">
        <ele>394.8</ele>
        <time>2014-11-02T08:20:45.000Z</time>
      </trkpt>
      <trkpt lat="47.50949" lon="6.7688">
        <ele>395</ele>
        <time>2014-11-02T08:20:46.000Z</time>
      </trkpt>
      <trkpt lat="47.50945" lon="6.76877">
        <ele>395.2</ele>
        <time>2014-11-02T08:20:47.000Z</time>
      </trkpt>
      <trkpt lat="47.50941" lon="6.76873">
        <ele>395.6</ele>
        <time>2014-11-02T08:20:48.000Z</time>
      </trkpt>
      <trkpt lat="47.50938" lon="6.76869">
        <ele>395.9</ele>
        <time>2014-11-02T08:20:49.000Z</time>
      </trkpt>
      <trkpt lat="47.50934" lon="6.76865">
        <ele>396</ele>
        <time>2014-11-02T08:20:49.998Z</time>
      </trkpt>
      <trkpt lat="47.50931" lon="6.76862">
        <ele>395.6</ele>
        <time>2014-11-02T08:20:51.000Z</time>
      </trkpt>
      <trkpt lat="47.50928" lon="6.76857">
        <ele>396.2</ele>
        <time>2014-11-02T08:20:52.000Z</time>
      </trkpt>
      <trkpt lat="47.50925" lon="6.76853">
        <ele>396.3</ele>
        <time>2014-11-02T08:20:53.000Z</time>
      </trkpt>
      <trkpt lat="47.50922" lon="6.76849">
        <ele>396.3</ele>
        <time>2014-11-02T08:20:54.000Z</time>
      </trkpt>
      <trkpt lat="47.5092" lon="6.76844">
        <ele>396.3</ele>
        <time>2014-11-02T08:20:55.000Z</time>
      </trkpt>
      <trkpt lat="47.50918" lon="6.7684">
        <ele>396.4</ele>
        <time>2014-11-02T08:20:56.000Z</time>
      </trkpt>
      <trkpt lat="47.50916" lon="6.76836">
        <ele>396.7</ele>
        <time>2014-11-02T08:20:57.000Z</time>
      </trkpt>
      <trkpt lat="47.50914" lon="6.76831">
        <ele>396.9</ele>
        <time>2014-11-02T08:20:58.000Z</time>
      </trkpt>
      <trkpt lat="47.50912" lon="6.76826">
        <ele>397.5</ele>
        <time>2014-11-02T08:20:59.000Z</time>
      </trkpt>
      <trkpt lat="47.5091" lon="6.76821">
        <ele>397.5</ele>
        <time>2014-11-02T08:21:00.000Z</time>
      </trkpt>
      <trkpt lat="47.50908" lon="6.76815">
        <ele>397.8</ele>
        <time>2014-11-02T08:21:01.000Z</time>
      </trkpt>
      <trkpt lat="47.50906" lon="6.7681">
        <ele>397.9</ele>
        <time>2014-11-02T08:21:02.000Z</time>
      </trkpt>
      <trkpt lat="47.50888" lon="6.76773">
        <ele>400</ele>
        <time>2014-11-02T08:21:10.000Z</time>
      </trkpt>
      <trkpt lat="47.50887" lon="6.76769">
        <ele>400.9</ele>
        <time>2014-11-02T08:21:11.000Z</time>
      </trkpt>
      <trkpt lat="47.50886" lon="6.76764">
        <ele>400.1</ele>
        <time>2014-11-02T08:21:12.000Z</time>
      </trkpt>
      <trkpt lat="47.50884" lon="6.76759">
        <ele>400.1</ele>
        <time>2014-11-02T08:21:13.000Z</time>
      </trkpt>
      <trkpt lat="47.50882" lon="6.76753">
        <ele>399.5</ele>
        <time>2014-11-02T08:21:14.000Z</time>
      </trkpt>
      <trkpt lat="47.50881" lon="6.76748">
        <ele>399.5</ele>
        <time>2014-11-02T08:21:15.000Z</time>
      </trkpt>
      <trkpt lat="47.50879" lon="6.76742">
        <ele>399.1</ele>
        <time>2014-11-02T08:21:16.000Z</time>
      </trkpt>
      <trkpt lat="47.50877" lon="6.76736">
        <ele>398.6</ele>
        <time>2014-11-02T08:21:17.000Z</time>
      </trkpt>
      <trkpt lat="47.50875" lon="6.7673">
        <ele>398.7</ele>
        <time>2014-11-02T08:21:18.000Z</time>
      </trkpt>
      <trkpt lat="47.50874" lon="6.76725">
        <ele>397.9</ele>
        <time>2014-11-02T08:21:19.000Z</time>
      </trkpt>
      <trkpt lat="47.50873" lon="6.76719">
        <ele>397.9</ele>
        <time>2014-11-02T08:21:20.000Z</time>
      </trkpt>
      <trkpt lat="47.50871" lon="6.76713">
        <ele>397.6</ele>
        <time>2014-11-02T08:21:21.000Z</time>
      </trkpt>
      <trkpt lat="47.5087" lon="6.76708">
        <ele>397.4</ele>
        <time>2014-11-02T08:21:22.000Z</time>
      </trkpt>
      <trkpt lat="47.50868" lon="6.76702">
        <ele>397.4</ele>
        <time>2014-11-02T08:21:23.000Z</time>
      </trkpt>
      <trkpt lat="47.50867" lon="6.76697">
        <ele>397.5</ele>
        <time>2014-11-02T08:21:24.000Z</time>
      </trkpt>
      <trkpt lat="47.50865" lon="6.76692">
        <ele>397.8</ele>
        <time>2014-11-02T08:21:25.000Z</time>
      </trkpt>
      <trkpt lat="47.50863" lon="6.76688">
        <ele>397.9</ele>
        <time>2014-11-02T08:21:26.000Z</time>
      </trkpt>
      <trkpt lat="47.50862" lon="6.76683">
        <ele>398.4</ele>
        <time>2014-11-02T08:21:27.000Z</time>
      </trkpt>
      <trkpt lat="47.5086" lon="6.76679">
        <ele>398.8</ele>
        <time>2014-11-02T08:21:28.000Z</time>
      </trkpt>
      <trkpt lat="47.50858" lon="6.76674">
        <ele>399</ele>
        <time>2014-11-02T08:21:29.000Z</time>
      </trkpt>
      <trkpt lat="47.50857" lon="6.76669">
        <ele>399.2</ele>
        <time>2014-11-02T08:21:30.000Z</time>
      </trkpt>
      <trkpt lat="47.50855" lon="6.76664">
        <ele>400</ele>
        <time>2014-11-02T08:21:31.000Z</time>
      </trkpt>
      <trkpt lat="47.50853" lon="6.7666">
        <ele>400.3</ele>
        <time>2014-11-02T08:21:32.000Z</time>
      </trkpt>
      <trkpt lat="47.50852" lon="6.76656">
        <ele>400.4</ele>
        <time>2014-11-02T08:21:33.000Z</time>
      </trkpt>
      <trkpt lat="47.5085" lon="6.76652">
        <ele>400.6</ele>
        <time>2014-11-02T08:21:34.000Z</time>
      </trkpt>
      <trkpt lat="47.50849" lon="6.76648">
        <ele>400.9</ele>
        <time>2014-11-02T08:21:35.000Z</time>
      </trkpt>
      <trkpt lat="47.50847" lon="6.76644">
        <ele>400.3</ele>
        <time>2014-11-02T08:21:36.000Z</time>
      </trkpt>
      <trkpt lat="47.50845" lon="6.7664">
        <ele>400.3</ele>
        <time>2014-11-02T08:21:37.000Z</time>
      </trkpt>
      <trkpt lat="47.50843" lon="6.76637">
        <ele>400.1</ele>
        <time>2014-11-02T08:21:38.000Z</time>
      </trkpt>
      <trkpt lat="47.50842" lon="6.76633">
        <ele>400.1</ele>
        <time>2014-11-02T08:21:39.000Z</time>
      </trkpt>
      <trkpt lat="47.5084" lon="6.76629">
        <ele>400.1</ele>
        <time>2014-11-02T08:21:40.000Z</time>
      </trkpt>
      <trkpt lat="47.50839" lon="6.76625">
        <ele>399.5</ele>
        <time>2014-11-02T08:21:41.000Z</time>
      </trkpt>
      <trkpt lat="47.50837" lon="6.76621">
        <ele>400.1</ele>
        <time>2014-11-02T08:21:42.000Z</time>
      </trkpt>
      <trkpt lat="47.50836" lon="6.76618">
        <ele>400.4</ele>
        <time>2014-11-02T08:21:43.000Z</time>
      </trkpt>
      <trkpt lat="47.50834" lon="6.76614">
        <ele>400.6</ele>
        <time>2014-11-02T08:21:44.000Z</time>
      </trkpt>
      <trkpt lat="47.50833" lon="6.7661">
        <ele>398.9</ele>
        <time>2014-11-02T08:21:45.000Z</time>
      </trkpt>
      <trkpt lat="47.50831" lon="6.76606">
        <ele>399.8</ele>
        <time>2014-11-02T08:21:46.000Z</time>
      </trkpt>
      <trkpt lat="47.5083" lon="6.76602">
        <ele>400.4</ele>
        <time>2014-11-02T08:21:47.000Z</time>
      </trkpt>
      <trkpt lat="47.50829" lon="6.76598">
        <ele>400.8</ele>
        <time>2014-11-02T08:21:48.000Z</time>
      </trkpt>
      <trkpt lat="47.50825" lon="6.76594">
        <ele>402.2</ele>
        <time>2014-11-02T08:21:50.000Z</time>
      </trkpt>
      <trkpt lat="47.50823" lon="6.76594">
        <ele>402.1</ele>
        <time>2014-11-02T08:21:51.000Z</time>
      </trkpt>
      <trkpt lat="47.50821" lon="6.76596">
        <ele>401.8</ele>
        <time>2014-11-02T08:21:52.000Z</time>
      </trkpt>
      <trkpt lat="47.50818" lon="6.76596">
        <ele>402.2</ele>
        <time>2014-11-02T08:21:53.000Z</time>
      </trkpt>
      <trkpt lat="47.50816" lon="6.76595">
        <ele>402.7</ele>
        <time>2014-11-02T08:21:54.000Z</time>
      </trkpt>
      <trkpt lat="47.50814" lon="6.76592">
        <ele>403.2</ele>
        <time>2014-11-02T08:21:55.000Z</time>
      </trkpt>
      <trkpt lat="47.50813" lon="6.76588">
        <ele>403.2</ele>
        <time>2014-11-02T08:21:56.000Z</time>
      </trkpt>
      <trkpt lat="47.50811" lon="6.76585">
        <ele>403.1</ele>
        <time>2014-11-02T08:21:57.000Z</time>
      </trkpt>
      <trkpt lat="47.50808" lon="6.76583">
        <ele>403.2</ele>
        <time>2014-11-02T08:21:58.000Z</time>
      </trkpt>
      <trkpt lat="47.50805" lon="6.76583">
        <ele>403.3</ele>
        <time>2014-11-02T08:21:59.000Z</time>
      </trkpt>
      <trkpt lat="47.50801" lon="6.76584">
        <ele>403.1</ele>
        <time>2014-11-02T08:22:00.000Z</time>
      </trkpt>
      <trkpt lat="47.50798" lon="6.76586">
        <ele>403.7</ele>
        <time>2014-11-02T08:22:01.000Z</time>
      </trkpt>
      <trkpt lat="47.50795" lon="6.76587">
        <ele>404</ele>
        <time>2014-11-02T08:22:02.000Z</time>
      </trkpt>
      <trkpt lat="47.50793" lon="6.76588">
        <ele>403.7</ele>
        <time>2014-11-02T08:22:03.000Z</time>
      </trkpt>
      <trkpt lat="47.5077" lon="6.76591">
        <ele>404.4</ele>
        <time>2014-11-02T08:22:11.000Z</time>
      </trkpt>
      <trkpt lat="47.50767" lon="6.76591">
        <ele>404.2</ele>
        <time>2014-11-02T08:22:12.000Z</time>
      </trkpt>
      <trkpt lat="47.50764" lon="6.76591">
        <ele>404.9</ele>
        <time>2014-11-02T08:22:13.000Z</time>
      </trkpt>
      <trkpt lat="47.50761" lon="6.76591">
        <ele>405.1</ele>
        <time>2014-11-02T08:22:14.000Z</time>
      </trkpt>
      <trkpt lat="47.50757" lon="6.76591">
        <ele>405.9</ele>
        <time>2014-11-02T08:22:15.000Z</time>
      </trkpt>
      <trkpt lat="47.50754" lon="6.76591">
        <ele>406.4</ele>
        <time>2014-11-02T08:22:16.000Z</time>
      </trkpt>
      <trkpt lat="47.50751" lon="6.76591">
        <ele>406.7</ele>
        <time>2014-11-02T08:22:17.000Z</time>
      </trkpt>
      <trkpt lat="47.50748" lon="6.76591">
        <ele>406.7</ele>
        <time>2014-11-02T08:22:18.000Z</time>
      </trkpt>
      <trkpt lat="47.50744" lon="6.7659">
        <ele>406.7</ele>
        <time>2014-11-02T08:22:19.000Z</time>
      </trkpt>
      <trkpt lat="47.50741" lon="6.7659">
        <ele>407</ele>
        <time>2014-11-02T08:22:20.000Z</time>
      </trkpt>
      <trkpt lat="47.50737" lon="6.7659">
        <ele>407.1</ele>
        <time>2014-11-02T08:22:21.000Z</time>
      </trkpt>
      <trkpt lat="47.50734" lon="6.76589">
        <ele>407</ele>
        <time>2014-11-02T08:22:22.000Z</time>
      </trkpt>
      <trkpt lat="47.5073" lon="6.76589">
        <ele>406.4</ele>
        <time>2014-11-02T08:22:23.000Z</time>
      </trkpt>
      <trkpt lat="47.50726" lon="6.76588">
        <ele>406.4</ele>
        <time>2014-11-02T08:22:24.000Z</time>
      </trkpt>
      <trkpt lat="47.50723" lon="6.76587">
        <ele>406.2</ele>
        <time>2014-11-02T08:22:25.000Z</time>
      </trkpt>
      <trkpt lat="47.50719" lon="6.76587">
        <ele>406.2</ele>
        <time>2014-11-02T08:22:26.000Z</time>
      </trkpt>
      <trkpt lat="47.50715" lon="6.76587">
        <ele>406.5</ele>
        <time>2014-11-02T08:22:27.000Z</time>
      </trkpt>
      <trkpt lat="47.50711" lon="6.76587">
        <ele>406.5</ele>
        <time>2014-11-02T08:22:28.000Z</time>
      </trkpt>
      <trkpt lat="47.50707" lon="6.76587">
        <ele>406.1</ele>
        <time>2014-11-02T08:22:29.000Z</time>
      </trkpt>
      <trkpt lat="47.50704" lon="6.76587">
        <ele>405.8</ele>
        <time>2014-11-02T08:22:30.000Z</time>
      </trkpt>
      <trkpt lat="47.507" lon="6.76587">
        <ele>406.3</ele>
        <time>2014-11-02T08:22:31.000Z</time>
      </trkpt>
      <trkpt lat="47.50697" lon="6.76586">
        <ele>406.4</ele>
        <time>2014-11-02T08:22:32.000Z</time>
      </trkpt>
      <trkpt lat="47.50694" lon="6.76586">
        <ele>406.3</ele>
        <time>2014-11-02T08:22:33.000Z</time>
      </trkpt>
      <trkpt lat="47.50691" lon="6.76585">
        <ele>406.4</ele>
        <time>2014-11-02T08:22:34.000Z</time>
      </trkpt>
      <trkpt lat="47.50688" lon="6.76586">
        <ele>406.6</ele>
        <time>2014-11-02T08:22:35.000Z</time>
      </trkpt>
      <trkpt lat="47.50684" lon="6.76586">
        <ele>406.9</ele>
        <time>2014-11-02T08:22:36.000Z</time>
      </trkpt>
      <trkpt lat="47.50681" lon="6.76587">
        <ele>406.4</ele>
        <time>2014-11-02T08:22:37.000Z</time>
      </trkpt>
      <trkpt lat="47.50677" lon="6.76587">
        <ele>406.9</ele>
        <time>2014-11-02T08:22:38.000Z</time>
      </trkpt>
      <trkpt lat="47.50674" lon="6.76588">
        <ele>406.5</ele>
        <time>2014-11-02T08:22:39.000Z</time>
      </trkpt>
      <trkpt lat="47.50671" lon="6.76589">
        <ele>406.1</ele>
        <time>2014-11-02T08:22:40.000Z</time>
      </trkpt>
      <trkpt lat="47.50668" lon="6.7659">
        <ele>406.4</ele>
        <time>2014-11-02T08:22:41.000Z</time>
      </trkpt>
      <trkpt lat="47.50664" lon="6.76591">
        <ele>406.4</ele>
        <time>2014-11-02T08:22:42.000Z</time>
      </trkpt>
      <trkpt lat="47.50661" lon="6.76592">
        <ele>406.4</ele>
        <time>2014-11-02T08:22:43.000Z</time>
      </trkpt>
      <trkpt lat="47.50658" lon="6.76594">
        <ele>406.2</ele>
        <time>2014-11-02T08:22:44.000Z</time>
      </trkpt>
      <trkpt lat="47.50655" lon="6.76595">
        <ele>405.9</ele>
        <time>2014-11-02T08:22:45.000Z</time>
      </trkpt>
      <trkpt lat="47.50652" lon="6.76597">
        <ele>405.9</ele>
        <time>2014-11-02T08:22:46.000Z</time>
      </trkpt>
      <trkpt lat="47.50648" lon="6.76598">
        <ele>405.9</ele>
        <time>2014-11-02T08:22:47.000Z</time>
      </trkpt>
      <trkpt lat="47.50645" lon="6.766">
        <ele>406</ele>
        <time>2014-11-02T08:22:48.000Z</time>
      </trkpt>
      <trkpt lat="47.50641" lon="6.76602">
        <ele>406.3</ele>
        <time>2014-11-02T08:22:49.000Z</time>
      </trkpt>
      <trkpt lat="47.50638" lon="6.76604">
        <ele>406</ele>
        <time>2014-11-02T08:22:50.000Z</time>
      </trkpt>
      <trkpt lat="47.50635" lon="6.76606">
        <ele>405.9</ele>
        <time>2014-11-02T08:22:51.000Z</time>
      </trkpt>
      <trkpt lat="47.50632" lon="6.76609">
        <ele>406</ele>
        <time>2014-11-02T08:22:52.000Z</time>
      </trkpt>
      <trkpt lat="47.50629" lon="6.76611">
        <ele>406.1</ele>
        <time>2014-11-02T08:22:53.000Z</time>
      </trkpt>
      <trkpt lat="47.50626" lon="6.76613">
        <ele>406.2</ele>
        <time>2014-11-02T08:22:54.000Z</time>
      </trkpt>
      <trkpt lat="47.50623" lon="6.76615">
        <ele>406.1</ele>
        <time>2014-11-02T08:22:55.000Z</time>
      </trkpt>
      <trkpt lat="47.5062" lon="6.76617">
        <ele>406.2</ele>
        <time>2014-11-02T08:22:56.000Z</time>
      </trkpt>
      <trkpt lat="47.50617" lon="6.76619">
        <ele>406</ele>
        <time>2014-11-02T08:22:57.000Z</time>
      </trkpt>
      <trkpt lat="47.50614" lon="6.7662">
        <ele>406.3</ele>
        <time>2014-11-02T08:22:58.000Z</time>
      </trkpt>
      <trkpt lat="47.5061" lon="6.76622">
        <ele>406.5</ele>
        <time>2014-11-02T08:22:59.000Z</time>
      </trkpt>
      <trkpt lat="47.50607" lon="6.76623">
        <ele>406.9</ele>
        <time>2014-11-02T08:23:00.000Z</time>
      </trkpt>
      <trkpt lat="47.50604" lon="6.76624">
        <ele>407</ele>
        <time>2014-11-02T08:23:01.000Z</time>
      </trkpt>
      <trkpt lat="47.50601" lon="6.76625">
        <ele>406.4</ele>
        <time>2014-11-02T08:23:02.000Z</time>
      </trkpt>
      <trkpt lat="47.50593" lon="6.76628">
        <ele>406.3</ele>
        <time>2014-11-02T08:23:05.000Z</time>
      </trkpt>
      <trkpt lat="47.5059" lon="6.76629">
        <ele>406.7</ele>
        <time>2014-11-02T08:23:06.000Z</time>
      </trkpt>
      <trkpt lat="47.50586" lon="6.7663">
        <ele>407.1</ele>
        <time>2014-11-02T08:23:07.000Z</time>
      </trkpt>
      <trkpt lat="47.50583" lon="6.76631">
        <ele>406.6</ele>
        <time>2014-11-02T08:23:08.000Z</time>
      </trkpt>
      <trkpt lat="47.5058" lon="6.76632">
        <ele>406.7</ele>
        <time>2014-11-02T08:23:09.000Z</time>
      </trkpt>
      <trkpt lat="47.50577" lon="6.76633">
        <ele>407.1</ele>
        <time>2014-11-02T08:23:10.000Z</time>
      </trkpt>
      <trkpt lat="47.50574" lon="6.76634">
        <ele>407.2</ele>
        <time>2014-11-02T08:23:11.000Z</time>
      </trkpt>
      <trkpt lat="47.5057" lon="6.76636">
        <ele>407.4</ele>
        <time>2014-11-02T08:23:12.000Z</time>
      </trkpt>
      <trkpt lat="47.50567" lon="6.76637">
        <ele>407.4</ele>
        <time>2014-11-02T08:23:13.000Z</time>
      </trkpt>
      <trkpt lat="47.50564" lon="6.76639">
        <ele>407.7</ele>
        <time>2014-11-02T08:23:14.000Z</time>
      </trkpt>
      <trkpt lat="47.5056" lon="6.7664">
        <ele>408</ele>
        <time>2014-11-02T08:23:15.000Z</time>
      </trkpt>
      <trkpt lat="47.50557" lon="6.76641">
        <ele>408</ele>
        <time>2014-11-02T08:23:16.000Z</time>
      </trkpt>
      <trkpt lat="47.50554" lon="6.76641">
        <ele>407.9</ele>
        <time>2014-11-02T08:23:17.000Z</time>
      </trkpt>
      <trkpt lat="47.50551" lon="6.76641">
        <ele>408.9</ele>
        <time>2014-11-02T08:23:18.000Z</time>
      </trkpt>
      <trkpt lat="47.50548" lon="6.76641">
        <ele>409.2</ele>
        <time>2014-11-02T08:23:19.000Z</time>
      </trkpt>
      <trkpt lat="47.50545" lon="6.76641">
        <ele>409.2</ele>
        <time>2014-11-02T08:23:20.000Z</time>
      </trkpt>
      <trkpt lat="47.50542" lon="6.76641">
        <ele>408.9</ele>
        <time>2014-11-02T08:23:21.000Z</time>
      </trkpt>
      <trkpt lat="47.50539" lon="6.76642">
        <ele>408.9</ele>
        <time>2014-11-02T08:23:22.000Z</time>
      </trkpt>
      <trkpt lat="47.50535" lon="6.76643">
        <ele>408.7</ele>
        <time>2014-11-02T08:23:23.000Z</time>
      </trkpt>
      <trkpt lat="47.50532" lon="6.76644">
        <ele>408.5</ele>
        <time>2014-11-02T08:23:24.000Z</time>
      </trkpt>
      <trkpt lat="47.50528" lon="6.76644">
        <ele>408.6</ele>
        <time>2014-11-02T08:23:25.000Z</time>
      </trkpt>
      <trkpt lat="47.50524" lon="6.76645">
        <ele>408.4</ele>
        <time>2014-11-02T08:23:26.000Z</time>
      </trkpt>
      <trkpt lat="47.5052" lon="6.76646">
        <ele>408.7</ele>
        <time>2014-11-02T08:23:27.000Z</time>
      </trkpt>
      <trkpt lat="47.50516" lon="6.76648">
        <ele>408.6</ele>
        <time>2014-11-02T08:23:28.000Z</time>
      </trkpt>
      <trkpt lat="47.50512" lon="6.76649">
        <ele>408</ele>
        <time>2014-11-02T08:23:29.000Z</time>
      </trkpt>
      <trkpt lat="47.50507" lon="6.7665">
        <ele>407.9</ele>
        <time>2014-11-02T08:23:30.000Z</time>
      </trkpt>
      <trkpt lat="47.50503" lon="6.76651">
        <ele>408.2</ele>
        <time>2014-11-02T08:23:31.000Z</time>
      </trkpt>
      <trkpt lat="47.50499" lon="6.76653">
        <ele>408.1</ele>
        <time>2014-11-02T08:23:32.000Z</time>
      </trkpt>
      <trkpt lat="47.50494" lon="6.76657">
        <ele>406.7</ele>
        <time>2014-11-02T08:23:33.000Z</time>
      </trkpt>
      <trkpt lat="47.5049" lon="6.7666">
        <ele>405.9</ele>
        <time>2014-11-02T08:23:34.000Z</time>
      </trkpt>
      <trkpt lat="47.50486" lon="6.76661">
        <ele>406.6</ele>
        <time>2014-11-02T08:23:35.000Z</time>
      </trkpt>
      <trkpt lat="47.50482" lon="6.76662">
        <ele>406.6</ele>
        <time>2014-11-02T08:23:36.000Z</time>
      </trkpt>
      <trkpt lat="47.50478" lon="6.76664">
        <ele>406.6</ele>
        <time>2014-11-02T08:23:37.000Z</time>
      </trkpt>
      <trkpt lat="47.50474" lon="6.76665">
        <ele>406.7</ele>
        <time>2014-11-02T08:23:38.000Z</time>
      </trkpt>
      <trkpt lat="47.5047" lon="6.76667">
        <ele>406.6</ele>
        <time>2014-11-02T08:23:39.000Z</time>
      </trkpt>
      <trkpt lat="47.50465" lon="6.76669">
        <ele>406.6</ele>
        <time>2014-11-02T08:23:40.000Z</time>
      </trkpt>
      <trkpt lat="47.50461" lon="6.76671">
        <ele>406.7</ele>
        <time>2014-11-02T08:23:41.000Z</time>
      </trkpt>
      <trkpt lat="47.50456" lon="6.76674">
        <ele>406.5</ele>
        <time>2014-11-02T08:23:42.000Z</time>
      </trkpt>
      <trkpt lat="47.50452" lon="6.76676">
        <ele>406.6</ele>
        <time>2014-11-02T08:23:43.000Z</time>
      </trkpt>
      <trkpt lat="47.50448" lon="6.76678">
        <ele>407.8</ele>
        <time>2014-11-02T08:23:44.000Z</time>
      </trkpt>
      <trkpt lat="47.50444" lon="6.76679">
        <ele>408</ele>
        <time>2014-11-02T08:23:45.000Z</time>
      </trkpt>
      <trkpt lat="47.5044" lon="6.76681">
        <ele>408.2</ele>
        <time>2014-11-02T08:23:46.000Z</time>
      </trkpt>
      <trkpt lat="47.50436" lon="6.76683">
        <ele>409.5</ele>
        <time>2014-11-02T08:23:47.000Z</time>
      </trkpt>
      <trkpt lat="47.50432" lon="6.76684">
        <ele>409.9</ele>
        <time>2014-11-02T08:23:48.000Z</time>
      </trkpt>
      <trkpt lat="47.50428" lon="6.76685">
        <ele>410.3</ele>
        <time>2014-11-02T08:23:49.000Z</time>
      </trkpt>
      <trkpt lat="47.50424" lon="6.76687">
        <ele>410</ele>
        <time>2014-11-02T08:23:50.000Z</time>
      </trkpt>
      <trkpt lat="47.5042" lon="6.76689">
        <ele>409.5</ele>
        <time>2014-11-02T08:23:51.000Z</time>
      </trkpt>
      <trkpt lat="47.50416" lon="6.7669">
        <ele>409.8</ele>
        <time>2014-11-02T08:23:52.000Z</time>
      </trkpt>
      <trkpt lat="47.50412" lon="6.76692">
        <ele>410.1</ele>
        <time>2014-11-02T08:23:53.000Z</time>
      </trkpt>
      <trkpt lat="47.50408" lon="6.76693">
        <ele>409.8</ele>
        <time>2014-11-02T08:23:54.000Z</time>
      </trkpt>
      <trkpt lat="47.50404" lon="6.76694">
        <ele>410</ele>
        <time>2014-11-02T08:23:55.000Z</time>
      </trkpt>
      <trkpt lat="47.504" lon="6.76696">
        <ele>410.1</ele>
        <time>2014-11-02T08:23:56.000Z</time>
      </trkpt>
      <trkpt lat="47.50396" lon="6.76697">
        <ele>410.2</ele>
        <time>2014-11-02T08:23:57.000Z</time>
      </trkpt>
      <trkpt lat="47.50392" lon="6.76698">
        <ele>410.2</ele>
        <time>2014-11-02T08:23:58.000Z</time>
      </trkpt>
      <trkpt lat="47.50388" lon="6.767">
        <ele>410.1</ele>
        <time>2014-11-02T08:23:59.000Z</time>
      </trkpt>
      <trkpt lat="47.50385" lon="6.76701">
        <ele>410</ele>
        <time>2014-11-02T08:23:59.998Z</time>
      </trkpt>
      <trkpt lat="47.50381" lon="6.76702">
        <ele>409.3</ele>
        <time>2014-11-02T08:24:01.000Z</time>
      </trkpt>
      <trkpt lat="47.50377" lon="6.76704">
        <ele>409.5</ele>
        <time>2014-11-02T08:24:02.000Z</time>
      </trkpt>
      <trkpt lat="47.50346" lon="6.76716">
        <ele>410.9</ele>
        <time>2014-11-02T08:24:10.000Z</time>
      </trkpt>
      <trkpt lat="47.50342" lon="6.76717">
        <ele>410.3</ele>
        <time>2014-11-02T08:24:11.000Z</time>
      </trkpt>
      <trkpt lat="47.50339" lon="6.76718">
        <ele>411</ele>
        <time>2014-11-02T08:24:12.000Z</time>
      </trkpt>
      <trkpt lat="47.50335" lon="6.76719">
        <ele>411.1</ele>
        <time>2014-11-02T08:24:13.000Z</time>
      </trkpt>
      <trkpt lat="47.50331" lon="6.76721">
        <ele>412.3</ele>
        <time>2014-11-02T08:24:14.000Z</time>
      </trkpt>
      <trkpt lat="47.50327" lon="6.76722">
        <ele>412.5</ele>
        <time>2014-11-02T08:24:15.000Z</time>
      </trkpt>
      <trkpt lat="47.50324" lon="6.76723">
        <ele>412.2</ele>
        <time>2014-11-02T08:24:16.000Z</time>
      </trkpt>
      <trkpt lat="47.5032" lon="6.76725">
        <ele>411.6</ele>
        <time>2014-11-02T08:24:17.000Z</time>
      </trkpt>
      <trkpt lat="47.50316" lon="6.76726">
        <ele>411.8</ele>
        <time>2014-11-02T08:24:18.000Z</time>
      </trkpt>
      <trkpt lat="47.50312" lon="6.76728">
        <ele>411.6</ele>
        <time>2014-11-02T08:24:19.000Z</time>
      </trkpt>
      <trkpt lat="47.50309" lon="6.76729">
        <ele>411.4</ele>
        <time>2014-11-02T08:24:20.000Z</time>
      </trkpt>
      <trkpt lat="47.50305" lon="6.76731">
        <ele>411.3</ele>
        <time>2014-11-02T08:24:21.000Z</time>
      </trkpt>
      <trkpt lat="47.50302" lon="6.76731">
        <ele>411.3</ele>
        <time>2014-11-02T08:24:22.000Z</time>
      </trkpt>
      <trkpt lat="47.50298" lon="6.76732">
        <ele>411.4</ele>
        <time>2014-11-02T08:24:23.000Z</time>
      </trkpt>
      <trkpt lat="47.50295" lon="6.76732">
        <ele>411.1</ele>
        <time>2014-11-02T08:24:24.000Z</time>
      </trkpt>
      <trkpt lat="47.50292" lon="6.76732">
        <ele>411.3</ele>
        <time>2014-11-02T08:24:25.000Z</time>
      </trkpt>
      <trkpt lat="47.50289" lon="6.76734">
        <ele>411.3</ele>
        <time>2014-11-02T08:24:26.000Z</time>
      </trkpt>
      <trkpt lat="47.50285" lon="6.76735">
        <ele>412</ele>
        <time>2014-11-02T08:24:27.000Z</time>
      </trkpt>
      <trkpt lat="47.50281" lon="6.76736">
        <ele>411.6</ele>
        <time>2014-11-02T08:24:28.000Z</time>
      </trkpt>
      <trkpt lat="47.50277" lon="6.76737">
        <ele>412.1</ele>
        <time>2014-11-02T08:24:29.000Z</time>
      </trkpt>
      <trkpt lat="47.50273" lon="6.76739">
        <ele>412.4</ele>
        <time>2014-11-02T08:24:30.000Z</time>
      </trkpt>
      <trkpt lat="47.50269" lon="6.7674">
        <ele>412.3</ele>
        <time>2014-11-02T08:24:31.000Z</time>
      </trkpt>
      <trkpt lat="47.50266" lon="6.76741">
        <ele>413.8</ele>
        <time>2014-11-02T08:24:32.000Z</time>
      </trkpt>
      <trkpt lat="47.50262" lon="6.76741">
        <ele>413.6</ele>
        <time>2014-11-02T08:24:33.000Z</time>
      </trkpt>
      <trkpt lat="47.50259" lon="6.76742">
        <ele>413.5</ele>
        <time>2014-11-02T08:24:34.000Z</time>
      </trkpt>
      <trkpt lat="47.50255" lon="6.76743">
        <ele>412.7</ele>
        <time>2014-11-02T08:24:35.000Z</time>
      </trkpt>
      <trkpt lat="47.50252" lon="6.76743">
        <ele>413.1</ele>
        <time>2014-11-02T08:24:36.000Z</time>
      </trkpt>
      <trkpt lat="47.50248" lon="6.76742">
        <ele>413.2</ele>
        <time>2014-11-02T08:24:37.000Z</time>
      </trkpt>
      <trkpt lat="47.50246" lon="6.7674">
        <ele>412.9</ele>
        <time>2014-11-02T08:24:38.000Z</time>
      </trkpt>
      <trkpt lat="47.50243" lon="6.76738">
        <ele>412.6</ele>
        <time>2014-11-02T08:24:39.000Z</time>
      </trkpt>
      <trkpt lat="47.50241" lon="6.76734">
        <ele>412.5</ele>
        <time>2014-11-02T08:24:40.000Z</time>
      </trkpt>
      <trkpt lat="47.50239" lon="6.76731">
        <ele>412.2</ele>
        <time>2014-11-02T08:24:41.000Z</time>
      </trkpt>
      <trkpt lat="47.50237" lon="6.76728">
        <ele>412.3</ele>
        <time>2014-11-02T08:24:42.000Z</time>
      </trkpt>
      <trkpt lat="47.50235" lon="6.76724">
        <ele>411.6</ele>
        <time>2014-11-02T08:24:43.000Z</time>
      </trkpt>
      <trkpt lat="47.50233" lon="6.7672">
        <ele>411.5</ele>
        <time>2014-11-02T08:24:44.000Z</time>
      </trkpt>
      <trkpt lat="47.50231" lon="6.76717">
        <ele>411.7</ele>
        <time>2014-11-02T08:24:45.000Z</time>
      </trkpt>
      <trkpt lat="47.50229" lon="6.76713">
        <ele>411.1</ele>
        <time>2014-11-02T08:24:46.000Z</time>
      </trkpt>
      <trkpt lat="47.50228" lon="6.76709">
        <ele>411.4</ele>
        <time>2014-11-02T08:24:47.000Z</time>
      </trkpt>
      <trkpt lat="47.50226" lon="6.76705">
        <ele>411.9</ele>
        <time>2014-11-02T08:24:48.000Z</time>
      </trkpt>
      <trkpt lat="47.50225" lon="6.76701">
        <ele>411.6</ele>
        <time>2014-11-02T08:24:49.000Z</time>
      </trkpt>
      <trkpt lat="47.50223" lon="6.76697">
        <ele>411.2</ele>
        <time>2014-11-02T08:24:50.000Z</time>
      </trkpt>
      <trkpt lat="47.50222" lon="6.76693">
        <ele>411.2</ele>
        <time>2014-11-02T08:24:51.000Z</time>
      </trkpt>
      <trkpt lat="47.5022" lon="6.76688">
        <ele>410.4</ele>
        <time>2014-11-02T08:24:52.000Z</time>
      </trkpt>
      <trkpt lat="47.50218" lon="6.76683">
        <ele>410.3</ele>
        <time>2014-11-02T08:24:53.000Z</time>
      </trkpt>
      <trkpt lat="47.50216" lon="6.76679">
        <ele>409.7</ele>
        <time>2014-11-02T08:24:54.000Z</time>
      </trkpt>
      <trkpt lat="47.50215" lon="6.76674">
        <ele>409.5</ele>
        <time>2014-11-02T08:24:55.000Z</time>
      </trkpt>
      <trkpt lat="47.50213" lon="6.76669">
        <ele>409.3</ele>
        <time>2014-11-02T08:24:56.000Z</time>
      </trkpt>
      <trkpt lat="47.50212" lon="6.76664">
        <ele>409.8</ele>
        <time>2014-11-02T08:24:57.000Z</time>
      </trkpt>
      <trkpt lat="47.5021" lon="6.76659">
        <ele>409.5</ele>
        <time>2014-11-02T08:24:58.000Z</time>
      </trkpt>
      <trkpt lat="47.50209" lon="6.76653">
        <ele>409.3</ele>
        <time>2014-11-02T08:24:59.000Z</time>
      </trkpt>
      <trkpt lat="47.50207" lon="6.76648">
        <ele>409</ele>
        <time>2014-11-02T08:25:00.000Z</time>
      </trkpt>
      <trkpt lat="47.50206" lon="6.76643">
        <ele>409.1</ele>
        <time>2014-11-02T08:25:01.000Z</time>
      </trkpt>
      <trkpt lat="47.50204" lon="6.76638">
        <ele>408.9</ele>
        <time>2014-11-02T08:25:02.000Z</time>
      </trkpt>
      <trkpt lat="47.50199" lon="6.76623">
        <ele>409.8</ele>
        <time>2014-11-02T08:25:05.000Z</time>
      </trkpt>
      <trkpt lat="47.50198" lon="6.76618">
        <ele>410.3</ele>
        <time>2014-11-02T08:25:06.000Z</time>
      </trkpt>
      <trkpt lat="47.50197" lon="6.76612">
        <ele>410.5</ele>
        <time>2014-11-02T08:25:07.000Z</time>
      </trkpt>
      <trkpt lat="47.50197" lon="6.76606">
        <ele>410.5</ele>
        <time>2014-11-02T08:25:08.000Z</time>
      </trkpt>
      <trkpt lat="47.50197" lon="6.766">
        <ele>411.2</ele>
        <time>2014-11-02T08:25:09.000Z</time>
      </trkpt>
      <trkpt lat="47.50197" lon="6.76594">
        <ele>411.3</ele>
        <time>2014-11-02T08:25:10.000Z</time>
      </trkpt>
      <trkpt lat="47.50197" lon="6.7659">
        <ele>410.9</ele>
        <time>2014-11-02T08:25:11.000Z</time>
      </trkpt>
      <trkpt lat="47.50197" lon="6.76586">
        <ele>410.6</ele>
        <time>2014-11-02T08:25:12.000Z</time>
      </trkpt>
      <trkpt lat="47.50197" lon="6.76583">
        <ele>410</ele>
        <time>2014-11-02T08:25:13.000Z</time>
      </trkpt>
      <trkpt lat="47.50197" lon="6.76578">
        <ele>409.9</ele>
        <time>2014-11-02T08:25:15.000Z</time>
      </trkpt>
      <trkpt lat="47.50198" lon="6.76576">
        <ele>410.1</ele>
        <time>2014-11-02T08:25:16.000Z</time>
      </trkpt>
      <trkpt lat="47.50202" lon="6.76575">
        <ele>410.1</ele>
        <time>2014-11-02T08:25:18.000Z</time>
      </trkpt>
      <trkpt lat="47.50205" lon="6.76575">
        <ele>409.7</ele>
        <time>2014-11-02T08:25:19.000Z</time>
      </trkpt>
      <trkpt lat="47.50208" lon="6.76576">
        <ele>409.6</ele>
        <time>2014-11-02T08:25:20.000Z</time>
      </trkpt>
      <trkpt lat="47.50212" lon="6.76576">
        <ele>409.3</ele>
        <time>2014-11-02T08:25:21.000Z</time>
      </trkpt>
      <trkpt lat="47.50216" lon="6.76575">
        <ele>409.5</ele>
        <time>2014-11-02T08:25:22.000Z</time>
      </trkpt>
      <trkpt lat="47.50219" lon="6.76572">
        <ele>409.4</ele>
        <time>2014-11-02T08:25:23.000Z</time>
      </trkpt>
      <trkpt lat="47.50214" lon="6.76552">
        <ele>407.3</ele>
        <time>2014-11-02T08:25:24.000Z</time>
      </trkpt>
      <trkpt lat="47.50214" lon="6.76544">
        <ele>407.5</ele>
        <time>2014-11-02T08:25:25.000Z</time>
      </trkpt>
      <trkpt lat="47.50214" lon="6.76536">
        <ele>407.6</ele>
        <time>2014-11-02T08:25:26.000Z</time>
      </trkpt>
      <trkpt lat="47.50214" lon="6.76528">
        <ele>407.7</ele>
        <time>2014-11-02T08:25:27.000Z</time>
      </trkpt>
      <trkpt lat="47.50211" lon="6.76519">
        <ele>407.8</ele>
        <time>2014-11-02T08:25:28.000Z</time>
      </trkpt>
      <trkpt lat="47.50208" lon="6.76509">
        <ele>407.8</ele>
        <time>2014-11-02T08:25:29.000Z</time>
      </trkpt>
      <trkpt lat="47.50206" lon="6.76498">
        <ele>408.5</ele>
        <time>2014-11-02T08:25:30.000Z</time>
      </trkpt>
      <trkpt lat="47.50204" lon="6.76489">
        <ele>408.7</ele>
        <time>2014-11-02T08:25:31.000Z</time>
      </trkpt>
      <trkpt lat="47.50203" lon="6.76479">
        <ele>408.3</ele>
        <time>2014-11-02T08:25:32.000Z</time>
      </trkpt>
      <trkpt lat="47.50201" lon="6.76471">
        <ele>408.5</ele>
        <time>2014-11-02T08:25:33.000Z</time>
      </trkpt>
      <trkpt lat="47.50199" lon="6.76459">
        <ele>408.5</ele>
        <time>2014-11-02T08:25:34.000Z</time>
      </trkpt>
      <trkpt lat="47.50197" lon="6.7645">
        <ele>408.8</ele>
        <time>2014-11-02T08:25:35.000Z</time>
      </trkpt>
      <trkpt lat="47.50194" lon="6.76441">
        <ele>409</ele>
        <time>2014-11-02T08:25:36.000Z</time>
      </trkpt>
      <trkpt lat="47.50192" lon="6.76431">
        <ele>408.8</ele>
        <time>2014-11-02T08:25:37.000Z</time>
      </trkpt>
      <trkpt lat="47.50189" lon="6.76422">
        <ele>409</ele>
        <time>2014-11-02T08:25:38.000Z</time>
      </trkpt>
      <trkpt lat="47.50188" lon="6.76411">
        <ele>409.2</ele>
        <time>2014-11-02T08:25:39.000Z</time>
      </trkpt>
      <trkpt lat="47.50185" lon="6.76403">
        <ele>409.2</ele>
        <time>2014-11-02T08:25:40.000Z</time>
      </trkpt>
      <trkpt lat="47.50182" lon="6.76393">
        <ele>409</ele>
        <time>2014-11-02T08:25:41.000Z</time>
      </trkpt>
      <trkpt lat="47.50179" lon="6.76384">
        <ele>408.7</ele>
        <time>2014-11-02T08:25:42.000Z</time>
      </trkpt>
      <trkpt lat="47.50178" lon="6.76373">
        <ele>410.8</ele>
        <time>2014-11-02T08:25:43.000Z</time>
      </trkpt>
      <trkpt lat="47.50176" lon="6.76364">
        <ele>411.4</ele>
        <time>2014-11-02T08:25:44.000Z</time>
      </trkpt>
      <trkpt lat="47.50172" lon="6.76355">
        <ele>412.2</ele>
        <time>2014-11-02T08:25:45.000Z</time>
      </trkpt>
      <trkpt lat="47.50168" lon="6.76345">
        <ele>412.4</ele>
        <time>2014-11-02T08:25:46.000Z</time>
      </trkpt>
      <trkpt lat="47.50165" lon="6.76334">
        <ele>412.6</ele>
        <time>2014-11-02T08:25:47.000Z</time>
      </trkpt>
      <trkpt lat="47.50161" lon="6.76322">
        <ele>412.2</ele>
        <time>2014-11-02T08:25:48.000Z</time>
      </trkpt>
      <trkpt lat="47.5016" lon="6.7631">
        <ele>412.7</ele>
        <time>2014-11-02T08:25:49.000Z</time>
      </trkpt>
      <trkpt lat="47.50157" lon="6.76299">
        <ele>414.1</ele>
        <time>2014-11-02T08:25:50.000Z</time>
      </trkpt>
      <trkpt lat="47.50155" lon="6.76288">
        <ele>413.7</ele>
        <time>2014-11-02T08:25:51.000Z</time>
      </trkpt>
      <trkpt lat="47.50154" lon="6.76277">
        <ele>412.8</ele>
        <time>2014-11-02T08:25:52.000Z</time>
      </trkpt>
      <trkpt lat="47.50154" lon="6.76266">
        <ele>412.8</ele>
        <time>2014-11-02T08:25:53.000Z</time>
      </trkpt>
      <trkpt lat="47.50153" lon="6.76258">
        <ele>412.5</ele>
        <time>2014-11-02T08:25:54.000Z</time>
      </trkpt>
      <trkpt lat="47.50153" lon="6.76249">
        <ele>412</ele>
        <time>2014-11-02T08:25:55.000Z</time>
      </trkpt>
      <trkpt lat="47.50152" lon="6.76241">
        <ele>411.9</ele>
        <time>2014-11-02T08:25:56.000Z</time>
      </trkpt>
      <trkpt lat="47.50149" lon="6.76232">
        <ele>411.8</ele>
        <time>2014-11-02T08:25:57.000Z</time>
      </trkpt>
      <trkpt lat="47.50146" lon="6.76219">
        <ele>411</ele>
        <time>2014-11-02T08:25:58.000Z</time>
      </trkpt>
      <trkpt lat="47.50143" lon="6.76207">
        <ele>410.8</ele>
        <time>2014-11-02T08:25:59.000Z</time>
      </trkpt>
      <trkpt lat="47.50142" lon="6.76198">
        <ele>410.3</ele>
        <time>2014-11-02T08:26:00.000Z</time>
      </trkpt>
      <trkpt lat="47.50139" lon="6.76186">
        <ele>410.1</ele>
        <time>2014-11-02T08:26:01.000Z</time>
      </trkpt>
      <trkpt lat="47.50137" lon="6.76174">
        <ele>409.2</ele>
        <time>2014-11-02T08:26:02.000Z</time>
      </trkpt>
      <trkpt lat="47.50133" lon="6.7615">
        <ele>409.5</ele>
        <time>2014-11-02T08:26:05.000Z</time>
      </trkpt>
      <trkpt lat="47.5013" lon="6.76132">
        <ele>409.4</ele>
        <time>2014-11-02T08:26:07.000Z</time>
      </trkpt>
      <trkpt lat="47.50128" lon="6.76127">
        <ele>409.4</ele>
        <time>2014-11-02T08:26:08.000Z</time>
      </trkpt>
      <trkpt lat="47.50128" lon="6.76117">
        <ele>409.2</ele>
        <time>2014-11-02T08:26:09.000Z</time>
      </trkpt>
      <trkpt lat="47.50128" lon="6.76105">
        <ele>408.7</ele>
        <time>2014-11-02T08:26:10.000Z</time>
      </trkpt>
      <trkpt lat="47.50128" lon="6.7608">
        <ele>408.3</ele>
        <time>2014-11-02T08:26:11.000Z</time>
      </trkpt>
      <trkpt lat="47.50128" lon="6.76061">
        <ele>408.7</ele>
        <time>2014-11-02T08:26:12.000Z</time>
      </trkpt>
      <trkpt lat="47.50123" lon="6.76046">
        <ele>407.9</ele>
        <time>2014-11-02T08:26:13.000Z</time>
      </trkpt>
      <trkpt lat="47.50117" lon="6.76029">
        <ele>407.4</ele>
        <time>2014-11-02T08:26:14.000Z</time>
      </trkpt>
      <trkpt lat="47.50112" lon="6.76009">
        <ele>407.1</ele>
        <time>2014-11-02T08:26:15.000Z</time>
      </trkpt>
      <trkpt lat="47.50111" lon="6.75999">
        <ele>405.8</ele>
        <time>2014-11-02T08:26:16.000Z</time>
      </trkpt>
      <trkpt lat="47.50106" lon="6.75991">
        <ele>405.8</ele>
        <time>2014-11-02T08:26:17.000Z</time>
      </trkpt>
      <trkpt lat="47.50102" lon="6.75982">
        <ele>405.8</ele>
        <time>2014-11-02T08:26:18.000Z</time>
      </trkpt>
      <trkpt lat="47.50098" lon="6.75974">
        <ele>405.1</ele>
        <time>2014-11-02T08:26:19.000Z</time>
      </trkpt>
      <trkpt lat="47.50091" lon="6.75964">
        <ele>406.2</ele>
        <time>2014-11-02T08:26:20.000Z</time>
      </trkpt>
      <trkpt lat="47.50088" lon="6.75955">
        <ele>406.5</ele>
        <time>2014-11-02T08:26:21.000Z</time>
      </trkpt>
      <trkpt lat="47.50084" lon="6.75946">
        <ele>406.8</ele>
        <time>2014-11-02T08:26:22.000Z</time>
      </trkpt>
      <trkpt lat="47.50079" lon="6.75938">
        <ele>406.1</ele>
        <time>2014-11-02T08:26:23.000Z</time>
      </trkpt>
      <trkpt lat="47.50074" lon="6.75931">
        <ele>403.4</ele>
        <time>2014-11-02T08:26:24.000Z</time>
      </trkpt>
      <trkpt lat="47.50069" lon="6.75924">
        <ele>402.1</ele>
        <time>2014-11-02T08:26:25.000Z</time>
      </trkpt>
      <trkpt lat="47.50065" lon="6.75915">
        <ele>402.7</ele>
        <time>2014-11-02T08:26:26.000Z</time>
      </trkpt>
      <trkpt lat="47.50062" lon="6.75908">
        <ele>403</ele>
        <time>2014-11-02T08:26:27.000Z</time>
      </trkpt>
      <trkpt lat="47.50058" lon="6.75901">
        <ele>402.2</ele>
        <time>2014-11-02T08:26:28.000Z</time>
      </trkpt>
      <trkpt lat="47.50051" lon="6.75892">
        <ele>402</ele>
        <time>2014-11-02T08:26:29.000Z</time>
      </trkpt>
      <trkpt lat="47.50047" lon="6.75885">
        <ele>402.3</ele>
        <time>2014-11-02T08:26:30.000Z</time>
      </trkpt>
      <trkpt lat="47.50042" lon="6.75877">
        <ele>402.3</ele>
        <time>2014-11-02T08:26:31.000Z</time>
      </trkpt>
      <trkpt lat="47.50036" lon="6.75869">
        <ele>402.6</ele>
        <time>2014-11-02T08:26:32.000Z</time>
      </trkpt>
      <trkpt lat="47.50031" lon="6.75859">
        <ele>402</ele>
        <time>2014-11-02T08:26:33.000Z</time>
      </trkpt>
      <trkpt lat="47.50025" lon="6.75851">
        <ele>400.6</ele>
        <time>2014-11-02T08:26:34.000Z</time>
      </trkpt>
      <trkpt lat="47.50019" lon="6.75837">
        <ele>399.8</ele>
        <time>2014-11-02T08:26:35.000Z</time>
      </trkpt>
      <trkpt lat="47.50015" lon="6.75829">
        <ele>398.9</ele>
        <time>2014-11-02T08:26:36.000Z</time>
      </trkpt>
      <trkpt lat="47.50011" lon="6.7582">
        <ele>397</ele>
        <time>2014-11-02T08:26:37.000Z</time>
      </trkpt>
      <trkpt lat="47.50007" lon="6.75811">
        <ele>396.6</ele>
        <time>2014-11-02T08:26:38.000Z</time>
      </trkpt>
      <trkpt lat="47.50003" lon="6.75804">
        <ele>396.7</ele>
        <time>2014-11-02T08:26:39.000Z</time>
      </trkpt>
      <trkpt lat="47.49998" lon="6.75794">
        <ele>396</ele>
        <time>2014-11-02T08:26:40.000Z</time>
      </trkpt>
      <trkpt lat="47.49993" lon="6.75784">
        <ele>396</ele>
        <time>2014-11-02T08:26:41.000Z</time>
      </trkpt>
      <trkpt lat="47.49986" lon="6.75776">
        <ele>394.8</ele>
        <time>2014-11-02T08:26:42.000Z</time>
      </trkpt>
      <trkpt lat="47.49981" lon="6.75767">
        <ele>393</ele>
        <time>2014-11-02T08:26:43.000Z</time>
      </trkpt>
      <trkpt lat="47.49977" lon="6.75757">
        <ele>392.9</ele>
        <time>2014-11-02T08:26:44.000Z</time>
      </trkpt>
      <trkpt lat="47.49973" lon="6.75748">
        <ele>394</ele>
        <time>2014-11-02T08:26:45.000Z</time>
      </trkpt>
      <trkpt lat="47.49966" lon="6.75738">
        <ele>391.3</ele>
        <time>2014-11-02T08:26:46.000Z</time>
      </trkpt>
      <trkpt lat="47.49962" lon="6.7573">
        <ele>391.2</ele>
        <time>2014-11-02T08:26:47.000Z</time>
      </trkpt>
      <trkpt lat="47.49957" lon="6.75724">
        <ele>390.9</ele>
        <time>2014-11-02T08:26:48.000Z</time>
      </trkpt>
      <trkpt lat="47.4995" lon="6.75718">
        <ele>391.1</ele>
        <time>2014-11-02T08:26:49.000Z</time>
      </trkpt>
      <trkpt lat="47.4994" lon="6.75714">
        <ele>391</ele>
        <time>2014-11-02T08:26:50.000Z</time>
      </trkpt>
      <trkpt lat="47.4993" lon="6.75709">
        <ele>389.8</ele>
        <time>2014-11-02T08:26:51.000Z</time>
      </trkpt>
      <trkpt lat="47.49921" lon="6.75708">
        <ele>389.2</ele>
        <time>2014-11-02T08:26:52.000Z</time>
      </trkpt>
      <trkpt lat="47.49912" lon="6.75707">
        <ele>388.4</ele>
        <time>2014-11-02T08:26:53.000Z</time>
      </trkpt>
      <trkpt lat="47.49902" lon="6.75709">
        <ele>386.6</ele>
        <time>2014-11-02T08:26:54.000Z</time>
      </trkpt>
      <trkpt lat="47.49892" lon="6.75709">
        <ele>386</ele>
        <time>2014-11-02T08:26:55.000Z</time>
      </trkpt>
      <trkpt lat="47.49877" lon="6.75708">
        <ele>384.8</ele>
        <time>2014-11-02T08:26:56.000Z</time>
      </trkpt>
      <trkpt lat="47.49866" lon="6.75712">
        <ele>381.8</ele>
        <time>2014-11-02T08:26:57.000Z</time>
      </trkpt>
      <trkpt lat="47.49856" lon="6.75711">
        <ele>381.4</ele>
        <time>2014-11-02T08:26:58.000Z</time>
      </trkpt>
      <trkpt lat="47.49846" lon="6.75712">
        <ele>379.9</ele>
        <time>2014-11-02T08:26:59.000Z</time>
      </trkpt>
      <trkpt lat="47.49838" lon="6.75715">
        <ele>379.1</ele>
        <time>2014-11-02T08:27:00.000Z</time>
      </trkpt>
      <trkpt lat="47.49828" lon="6.75717">
        <ele>378.8</ele>
        <time>2014-11-02T08:27:01.000Z</time>
      </trkpt>
      <trkpt lat="47.49818" lon="6.75718">
        <ele>378.3</ele>
        <time>2014-11-02T08:27:02.000Z</time>
      </trkpt>
      <trkpt lat="47.49687" lon="6.75784">
        <ele>377</ele>
        <time>2014-11-02T08:27:18.000Z</time>
      </trkpt>
      <trkpt lat="47.49674" lon="6.75778">
        <ele>376.3</ele>
        <time>2014-11-02T08:27:19.000Z</time>
      </trkpt>
      <trkpt lat="47.49666" lon="6.75775">
        <ele>376.1</ele>
        <time>2014-11-02T08:27:20.000Z</time>
      </trkpt>
      <trkpt lat="47.49656" lon="6.75773">
        <ele>376</ele>
        <time>2014-11-02T08:27:21.000Z</time>
      </trkpt>
      <trkpt lat="47.49649" lon="6.75771">
        <ele>374</ele>
        <time>2014-11-02T08:27:22.000Z</time>
      </trkpt>
      <trkpt lat="47.49641" lon="6.75767">
        <ele>371.9</ele>
        <time>2014-11-02T08:27:23.000Z</time>
      </trkpt>
      <trkpt lat="47.49635" lon="6.75766">
        <ele>371.2</ele>
        <time>2014-11-02T08:27:24.000Z</time>
      </trkpt>
      <trkpt lat="47.49628" lon="6.75763">
        <ele>370.7</ele>
        <time>2014-11-02T08:27:25.000Z</time>
      </trkpt>
      <trkpt lat="47.49621" lon="6.75761">
        <ele>371</ele>
        <time>2014-11-02T08:27:26.000Z</time>
      </trkpt>
      <trkpt lat="47.4961" lon="6.7576">
        <ele>370.2</ele>
        <time>2014-11-02T08:27:27.000Z</time>
      </trkpt>
      <trkpt lat="47.49604" lon="6.75759">
        <ele>369.4</ele>
        <time>2014-11-02T08:27:28.000Z</time>
      </trkpt>
      <trkpt lat="47.49596" lon="6.75755">
        <ele>369.8</ele>
        <time>2014-11-02T08:27:29.000Z</time>
      </trkpt>
      <trkpt lat="47.49588" lon="6.75752">
        <ele>368.6</ele>
        <time>2014-11-02T08:27:30.000Z</time>
      </trkpt>
      <trkpt lat="47.4958" lon="6.75749">
        <ele>365.8</ele>
        <time>2014-11-02T08:27:31.000Z</time>
      </trkpt>
      <trkpt lat="47.49573" lon="6.75746">
        <ele>363.4</ele>
        <time>2014-11-02T08:27:32.000Z</time>
      </trkpt>
      <trkpt lat="47.49568" lon="6.75743">
        <ele>363</ele>
        <time>2014-11-02T08:27:33.000Z</time>
      </trkpt>
      <trkpt lat="47.49565" lon="6.75737">
        <ele>359.9</ele>
        <time>2014-11-02T08:27:34.000Z</time>
      </trkpt>
      <trkpt lat="47.49563" lon="6.75732">
        <ele>358.7</ele>
        <time>2014-11-02T08:27:35.000Z</time>
      </trkpt>
      <trkpt lat="47.4956" lon="6.75733">
        <ele>356.8</ele>
        <time>2014-11-02T08:27:36.000Z</time>
      </trkpt>
      <trkpt lat="47.49556" lon="6.75736">
        <ele>353.6</ele>
        <time>2014-11-02T08:27:37.000Z</time>
      </trkpt>
      <trkpt lat="47.49552" lon="6.75737">
        <ele>355</ele>
        <time>2014-11-02T08:27:38.000Z</time>
      </trkpt>
      <trkpt lat="47.49553" lon="6.75735">
        <ele>354.8</ele>
        <time>2014-11-02T08:27:40.000Z</time>
      </trkpt>
      <trkpt lat="47.49555" lon="6.75732">
        <ele>354.9</ele>
        <time>2014-11-02T08:27:41.000Z</time>
      </trkpt>
      <trkpt lat="47.49558" lon="6.75729">
        <ele>354.7</ele>
        <time>2014-11-02T08:27:42.000Z</time>
      </trkpt>
      <trkpt lat="47.49561" lon="6.75727">
        <ele>354.4</ele>
        <time>2014-11-02T08:27:43.000Z</time>
      </trkpt>
      <trkpt lat="47.49564" lon="6.75724">
        <ele>355.2</ele>
        <time>2014-11-02T08:27:44.000Z</time>
      </trkpt>
      <trkpt lat="47.49567" lon="6.75721">
        <ele>355.2</ele>
        <time>2014-11-02T08:27:45.000Z</time>
      </trkpt>
      <trkpt lat="47.49572" lon="6.75718">
        <ele>348.5</ele>
        <time>2014-11-02T08:27:46.000Z</time>
      </trkpt>
      <trkpt lat="47.49582" lon="6.75717">
        <ele>345.5</ele>
        <time>2014-11-02T08:27:47.000Z</time>
      </trkpt>
      <trkpt lat="47.49586" lon="6.75712">
        <ele>344</ele>
        <time>2014-11-02T08:27:48.000Z</time>
      </trkpt>
      <trkpt lat="47.49591" lon="6.75707">
        <ele>343.2</ele>
        <time>2014-11-02T08:27:49.000Z</time>
      </trkpt>
      <trkpt lat="47.49592" lon="6.75698">
        <ele>341.7</ele>
        <time>2014-11-02T08:27:50.000Z</time>
      </trkpt>
      <trkpt lat="47.49592" lon="6.75693">
        <ele>339.5</ele>
        <time>2014-11-02T08:27:51.000Z</time>
      </trkpt>
      <trkpt lat="47.4959" lon="6.75689">
        <ele>337.3</ele>
        <time>2014-11-02T08:27:52.000Z</time>
      </trkpt>
      <trkpt lat="47.49586" lon="6.75683">
        <ele>337.4</ele>
        <time>2014-11-02T08:27:53.000Z</time>
      </trkpt>
      <trkpt lat="47.49583" lon="6.75676">
        <ele>337.2</ele>
        <time>2014-11-02T08:27:54.000Z</time>
      </trkpt>
      <trkpt lat="47.49578" lon="6.75669">
        <ele>337.1</ele>
        <time>2014-11-02T08:27:55.000Z</time>
      </trkpt>
      <trkpt lat="47.49573" lon="6.75668">
        <ele>336.7</ele>
        <time>2014-11-02T08:27:56.000Z</time>
      </trkpt>
      <trkpt lat="47.49565" lon="6.75671">
        <ele>335.7</ele>
        <time>2014-11-02T08:27:57.000Z</time>
      </trkpt>
      <trkpt lat="47.49561" lon="6.75676">
        <ele>335.7</ele>
        <time>2014-11-02T08:27:58.000Z</time>
      </trkpt>
      <trkpt lat="47.49556" lon="6.75681">
        <ele>335.8</ele>
        <time>2014-11-02T08:27:59.000Z</time>
      </trkpt>
      <trkpt lat="47.49552" lon="6.75687">
        <ele>335.4</ele>
        <time>2014-11-02T08:28:00.000Z</time>
      </trkpt>
      <trkpt lat="47.49548" lon="6.75693">
        <ele>335.1</ele>
        <time>2014-11-02T08:28:01.000Z</time>
      </trkpt>
      <trkpt lat="47.49544" lon="6.75699">
        <ele>335.2</ele>
        <time>2014-11-02T08:28:02.000Z</time>
      </trkpt>
      <trkpt lat="47.49534" lon="6.75712">
        <ele>335.3</ele>
        <time>2014-11-02T08:28:05.000Z</time>
      </trkpt>
      <trkpt lat="47.49528" lon="6.75717">
        <ele>335.1</ele>
        <time>2014-11-02T08:28:06.000Z</time>
      </trkpt>
      <trkpt lat="47.49523" lon="6.75721">
        <ele>334.5</ele>
        <time>2014-11-02T08:28:07.000Z</time>
      </trkpt>
      <trkpt lat="47.49517" lon="6.75725">
        <ele>333.8</ele>
        <time>2014-11-02T08:28:08.000Z</time>
      </trkpt>
      <trkpt lat="47.49512" lon="6.75727">
        <ele>333.1</ele>
        <time>2014-11-02T08:28:09.000Z</time>
      </trkpt>
      <trkpt lat="47.49506" lon="6.75729">
        <ele>332.6</ele>
        <time>2014-11-02T08:28:10.000Z</time>
      </trkpt>
      <trkpt lat="47.49501" lon="6.75732">
        <ele>332</ele>
        <time>2014-11-02T08:28:11.000Z</time>
      </trkpt>
      <trkpt lat="47.49495" lon="6.75735">
        <ele>331.9</ele>
        <time>2014-11-02T08:28:12.000Z</time>
      </trkpt>
      <trkpt lat="47.49489" lon="6.75736">
        <ele>331.8</ele>
        <time>2014-11-02T08:28:13.000Z</time>
      </trkpt>
      <trkpt lat="47.49484" lon="6.75734">
        <ele>331.3</ele>
        <time>2014-11-02T08:28:14.000Z</time>
      </trkpt>
      <trkpt lat="47.49479" lon="6.75729">
        <ele>331.8</ele>
        <time>2014-11-02T08:28:15.000Z</time>
      </trkpt>
      <trkpt lat="47.49477" lon="6.75722">
        <ele>331.9</ele>
        <time>2014-11-02T08:28:16.000Z</time>
      </trkpt>
      <trkpt lat="47.49475" lon="6.75714">
        <ele>332</ele>
        <time>2014-11-02T08:28:17.000Z</time>
      </trkpt>
      <trkpt lat="47.49472" lon="6.75707">
        <ele>332.3</ele>
        <time>2014-11-02T08:28:18.000Z</time>
      </trkpt>
      <trkpt lat="47.4947" lon="6.75702">
        <ele>331.9</ele>
        <time>2014-11-02T08:28:19.000Z</time>
      </trkpt>
      <trkpt lat="47.49467" lon="6.75696">
        <ele>331.9</ele>
        <time>2014-11-02T08:28:20.000Z</time>
      </trkpt>
      <trkpt lat="47.49463" lon="6.75693">
        <ele>332.8</ele>
        <time>2014-11-02T08:28:21.000Z</time>
      </trkpt>
      <trkpt lat="47.49459" lon="6.75691">
        <ele>332.7</ele>
        <time>2014-11-02T08:28:22.000Z</time>
      </trkpt>
      <trkpt lat="47.49454" lon="6.75694">
        <ele>332.9</ele>
        <time>2014-11-02T08:28:23.000Z</time>
      </trkpt>
      <trkpt lat="47.49449" lon="6.75697">
        <ele>332.8</ele>
        <time>2014-11-02T08:28:24.000Z</time>
      </trkpt>
      <trkpt lat="47.49445" lon="6.75694">
        <ele>332.4</ele>
        <time>2014-11-02T08:28:25.000Z</time>
      </trkpt>
      <trkpt lat="47.49443" lon="6.75689">
        <ele>333.3</ele>
        <time>2014-11-02T08:28:26.000Z</time>
      </trkpt>
      <trkpt lat="47.49441" lon="6.75684">
        <ele>333.5</ele>
        <time>2014-11-02T08:28:27.000Z</time>
      </trkpt>
      <trkpt lat="47.49439" lon="6.75677">
        <ele>333.1</ele>
        <time>2014-11-02T08:28:28.000Z</time>
      </trkpt>
      <trkpt lat="47.49436" lon="6.75671">
        <ele>332.6</ele>
        <time>2014-11-02T08:28:29.000Z</time>
      </trkpt>
      <trkpt lat="47.49433" lon="6.75668">
        <ele>335.1</ele>
        <time>2014-11-02T08:28:30.000Z</time>
      </trkpt>
      <trkpt lat="47.49431" lon="6.75668">
        <ele>336.9</ele>
        <time>2014-11-02T08:28:31.000Z</time>
      </trkpt>
      <trkpt lat="47.49427" lon="6.75669">
        <ele>337</ele>
        <time>2014-11-02T08:28:32.000Z</time>
      </trkpt>
      <trkpt lat="47.49422" lon="6.75671">
        <ele>336.9</ele>
        <time>2014-11-02T08:28:33.000Z</time>
      </trkpt>
      <trkpt lat="47.49418" lon="6.75674">
        <ele>337</ele>
        <time>2014-11-02T08:28:34.000Z</time>
      </trkpt>
      <trkpt lat="47.49414" lon="6.75677">
        <ele>338</ele>
        <time>2014-11-02T08:28:35.000Z</time>
      </trkpt>
      <trkpt lat="47.49409" lon="6.75682">
        <ele>338.2</ele>
        <time>2014-11-02T08:28:36.000Z</time>
      </trkpt>
      <trkpt lat="47.49403" lon="6.75685">
        <ele>337.6</ele>
        <time>2014-11-02T08:28:37.000Z</time>
      </trkpt>
      <trkpt lat="47.49397" lon="6.75689">
        <ele>336.7</ele>
        <time>2014-11-02T08:28:38.000Z</time>
      </trkpt>
      <trkpt lat="47.49392" lon="6.75693">
        <ele>336.7</ele>
        <time>2014-11-02T08:28:39.000Z</time>
      </trkpt>
      <trkpt lat="47.49387" lon="6.75697">
        <ele>336.7</ele>
        <time>2014-11-02T08:28:40.000Z</time>
      </trkpt>
      <trkpt lat="47.49382" lon="6.757">
        <ele>337</ele>
        <time>2014-11-02T08:28:41.000Z</time>
      </trkpt>
      <trkpt lat="47.49378" lon="6.75702">
        <ele>336.7</ele>
        <time>2014-11-02T08:28:42.000Z</time>
      </trkpt>
      <trkpt lat="47.49376" lon="6.75706">
        <ele>339.2</ele>
        <time>2014-11-02T08:28:43.000Z</time>
      </trkpt>
      <trkpt lat="47.49371" lon="6.75709">
        <ele>338.6</ele>
        <time>2014-11-02T08:28:44.000Z</time>
      </trkpt>
      <trkpt lat="47.49369" lon="6.75713">
        <ele>340.9</ele>
        <time>2014-11-02T08:28:46.000Z</time>
      </trkpt>
      <trkpt lat="47.49367" lon="6.75715">
        <ele>341.2</ele>
        <time>2014-11-02T08:28:47.000Z</time>
      </trkpt>
      <trkpt lat="47.49364" lon="6.75715">
        <ele>340.7</ele>
        <time>2014-11-02T08:28:48.000Z</time>
      </trkpt>
      <trkpt lat="47.4936" lon="6.75717">
        <ele>340</ele>
        <time>2014-11-02T08:28:49.000Z</time>
      </trkpt>
      <trkpt lat="47.49356" lon="6.75719">
        <ele>339</ele>
        <time>2014-11-02T08:28:50.000Z</time>
      </trkpt>
      <trkpt lat="47.49352" lon="6.75721">
        <ele>338.9</ele>
        <time>2014-11-02T08:28:51.000Z</time>
      </trkpt>
      <trkpt lat="47.49348" lon="6.75723">
        <ele>338.9</ele>
        <time>2014-11-02T08:28:52.000Z</time>
      </trkpt>
      <trkpt lat="47.49342" lon="6.7573">
        <ele>338.6</ele>
        <time>2014-11-02T08:28:53.000Z</time>
      </trkpt>
      <trkpt lat="47.49336" lon="6.75734">
        <ele>338.3</ele>
        <time>2014-11-02T08:28:54.000Z</time>
      </trkpt>
      <trkpt lat="47.49332" lon="6.75739">
        <ele>338.4</ele>
        <time>2014-11-02T08:28:55.000Z</time>
      </trkpt>
      <trkpt lat="47.49323" lon="6.75745">
        <ele>337.4</ele>
        <time>2014-11-02T08:28:56.000Z</time>
      </trkpt>
      <trkpt lat="47.49317" lon="6.75751">
        <ele>336.2</ele>
        <time>2014-11-02T08:28:57.000Z</time>
      </trkpt>
      <trkpt lat="47.49311" lon="6.75758">
        <ele>336</ele>
        <time>2014-11-02T08:28:58.000Z</time>
      </trkpt>
      <trkpt lat="47.49306" lon="6.75764">
        <ele>335.1</ele>
        <time>2014-11-02T08:28:59.000Z</time>
      </trkpt>
      <trkpt lat="47.49302" lon="6.75772">
        <ele>334.5</ele>
        <time>2014-11-02T08:29:00.000Z</time>
      </trkpt>
      <trkpt lat="47.49296" lon="6.75779">
        <ele>333.6</ele>
        <time>2014-11-02T08:29:01.000Z</time>
      </trkpt>
      <trkpt lat="47.49292" lon="6.75785">
        <ele>332.2</ele>
        <time>2014-11-02T08:29:02.000Z</time>
      </trkpt>
      <trkpt lat="47.49283" lon="6.758">
        <ele>332</ele>
        <time>2014-11-02T08:29:05.000Z</time>
      </trkpt>
      <trkpt lat="47.49275" lon="6.75809">
        <ele>330.9</ele>
        <time>2014-11-02T08:29:06.000Z</time>
      </trkpt>
      <trkpt lat="47.49269" lon="6.75817">
        <ele>330.9</ele>
        <time>2014-11-02T08:29:07.000Z</time>
      </trkpt>
      <trkpt lat="47.49266" lon="6.75822">
        <ele>330.2</ele>
        <time>2014-11-02T08:29:08.000Z</time>
      </trkpt>
      <trkpt lat="47.49261" lon="6.7583">
        <ele>330.3</ele>
        <time>2014-11-02T08:29:09.000Z</time>
      </trkpt>
      <trkpt lat="47.49256" lon="6.75838">
        <ele>328.1</ele>
        <time>2014-11-02T08:29:10.000Z</time>
      </trkpt>
      <trkpt lat="47.49251" lon="6.75845">
        <ele>327.2</ele>
        <time>2014-11-02T08:29:11.000Z</time>
      </trkpt>
      <trkpt lat="47.49246" lon="6.75851">
        <ele>327.1</ele>
        <time>2014-11-02T08:29:12.000Z</time>
      </trkpt>
      <trkpt lat="47.49242" lon="6.75858">
        <ele>327.1</ele>
        <time>2014-11-02T08:29:13.000Z</time>
      </trkpt>
      <trkpt lat="47.49238" lon="6.75866">
        <ele>328.3</ele>
        <time>2014-11-02T08:29:14.000Z</time>
      </trkpt>
      <trkpt lat="47.49234" lon="6.75874">
        <ele>329.3</ele>
        <time>2014-11-02T08:29:15.000Z</time>
      </trkpt>
      <trkpt lat="47.49231" lon="6.75883">
        <ele>327.2</ele>
        <time>2014-11-02T08:29:16.000Z</time>
      </trkpt>
      <trkpt lat="47.49228" lon="6.7589">
        <ele>326.7</ele>
        <time>2014-11-02T08:29:17.000Z</time>
      </trkpt>
      <trkpt lat="47.49225" lon="6.75896">
        <ele>326.9</ele>
        <time>2014-11-02T08:29:18.000Z</time>
      </trkpt>
      <trkpt lat="47.49222" lon="6.75902">
        <ele>327.3</ele>
        <time>2014-11-02T08:29:19.000Z</time>
      </trkpt>
      <trkpt lat="47.49219" lon="6.75907">
        <ele>326.8</ele>
        <time>2014-11-02T08:29:20.000Z</time>
      </trkpt>
      <trkpt lat="47.49217" lon="6.75913">
        <ele>326.8</ele>
        <time>2014-11-02T08:29:21.000Z</time>
      </trkpt>
      <trkpt lat="47.49213" lon="6.75918">
        <ele>326.9</ele>
        <time>2014-11-02T08:29:22.000Z</time>
      </trkpt>
      <trkpt lat="47.4921" lon="6.75923">
        <ele>326.9</ele>
        <time>2014-11-02T08:29:23.000Z</time>
      </trkpt>
      <trkpt lat="47.49206" lon="6.75929">
        <ele>326.5</ele>
        <time>2014-11-02T08:29:24.000Z</time>
      </trkpt>
      <trkpt lat="47.49204" lon="6.75935">
        <ele>326.2</ele>
        <time>2014-11-02T08:29:25.000Z</time>
      </trkpt>
      <trkpt lat="47.49198" lon="6.75943">
        <ele>326.5</ele>
        <time>2014-11-02T08:29:26.000Z</time>
      </trkpt>
      <trkpt lat="47.49194" lon="6.75949">
        <ele>326.5</ele>
        <time>2014-11-02T08:29:27.000Z</time>
      </trkpt>
      <trkpt lat="47.49192" lon="6.75956">
        <ele>326.3</ele>
        <time>2014-11-02T08:29:28.000Z</time>
      </trkpt>
      <trkpt lat="47.4919" lon="6.75966">
        <ele>326.3</ele>
        <time>2014-11-02T08:29:29.000Z</time>
      </trkpt>
      <trkpt lat="47.49186" lon="6.75973">
        <ele>326.1</ele>
        <time>2014-11-02T08:29:30.000Z</time>
      </trkpt>
      <trkpt lat="47.49182" lon="6.75981">
        <ele>325.9</ele>
        <time>2014-11-02T08:29:31.000Z</time>
      </trkpt>
      <trkpt lat="47.49177" lon="6.75989">
        <ele>325.5</ele>
        <time>2014-11-02T08:29:32.000Z</time>
      </trkpt>
      <trkpt lat="47.49172" lon="6.75996">
        <ele>325.3</ele>
        <time>2014-11-02T08:29:33.000Z</time>
      </trkpt>
      <trkpt lat="47.49169" lon="6.76003">
        <ele>324.2</ele>
        <time>2014-11-02T08:29:34.000Z</time>
      </trkpt>
      <trkpt lat="47.49169" lon="6.76013">
        <ele>324.8</ele>
        <time>2014-11-02T08:29:35.000Z</time>
      </trkpt>
      <trkpt lat="47.49165" lon="6.76021">
        <ele>325.1</ele>
        <time>2014-11-02T08:29:36.000Z</time>
      </trkpt>
      <trkpt lat="47.49162" lon="6.76029">
        <ele>324.7</ele>
        <time>2014-11-02T08:29:37.000Z</time>
      </trkpt>
      <trkpt lat="47.49158" lon="6.76036">
        <ele>324.4</ele>
        <time>2014-11-02T08:29:38.000Z</time>
      </trkpt>
      <trkpt lat="47.49154" lon="6.76044">
        <ele>324</ele>
        <time>2014-11-02T08:29:39.000Z</time>
      </trkpt>
      <trkpt lat="47.4915" lon="6.76053">
        <ele>323.7</ele>
        <time>2014-11-02T08:29:40.000Z</time>
      </trkpt>
      <trkpt lat="47.49147" lon="6.7606">
        <ele>323.7</ele>
        <time>2014-11-02T08:29:41.000Z</time>
      </trkpt>
      <trkpt lat="47.49145" lon="6.76069">
        <ele>323.5</ele>
        <time>2014-11-02T08:29:42.000Z</time>
      </trkpt>
      <trkpt lat="47.49144" lon="6.76077">
        <ele>322.9</ele>
        <time>2014-11-02T08:29:43.000Z</time>
      </trkpt>
      <trkpt lat="47.4914" lon="6.76087">
        <ele>324.3</ele>
        <time>2014-11-02T08:29:44.000Z</time>
      </trkpt>
      <trkpt lat="47.49137" lon="6.76098">
        <ele>323.7</ele>
        <time>2014-11-02T08:29:45.000Z</time>
      </trkpt>
      <trkpt lat="47.49134" lon="6.76106">
        <ele>323.2</ele>
        <time>2014-11-02T08:29:46.000Z</time>
      </trkpt>
      <trkpt lat="47.49131" lon="6.76115">
        <ele>321.4</ele>
        <time>2014-11-02T08:29:47.000Z</time>
      </trkpt>
      <trkpt lat="47.49129" lon="6.76123">
        <ele>320.4</ele>
        <time>2014-11-02T08:29:48.000Z</time>
      </trkpt>
      <trkpt lat="47.49127" lon="6.76132">
        <ele>320</ele>
        <time>2014-11-02T08:29:49.000Z</time>
      </trkpt>
      <trkpt lat="47.49126" lon="6.76141">
        <ele>319.9</ele>
        <time>2014-11-02T08:29:50.000Z</time>
      </trkpt>
      <trkpt lat="47.49126" lon="6.76149">
        <ele>319.7</ele>
        <time>2014-11-02T08:29:51.000Z</time>
      </trkpt>
      <trkpt lat="47.49125" lon="6.76157">
        <ele>319.7</ele>
        <time>2014-11-02T08:29:52.000Z</time>
      </trkpt>
      <trkpt lat="47.49123" lon="6.76167">
        <ele>319.5</ele>
        <time>2014-11-02T08:29:53.000Z</time>
      </trkpt>
      <trkpt lat="47.49123" lon="6.76175">
        <ele>316.2</ele>
        <time>2014-11-02T08:29:54.000Z</time>
      </trkpt>
      <trkpt lat="47.49123" lon="6.76183">
        <ele>316.7</ele>
        <time>2014-11-02T08:29:55.000Z</time>
      </trkpt>
      <trkpt lat="47.49123" lon="6.76193">
        <ele>316.8</ele>
        <time>2014-11-02T08:29:56.000Z</time>
      </trkpt>
      <trkpt lat="47.49121" lon="6.76202">
        <ele>316.5</ele>
        <time>2014-11-02T08:29:57.000Z</time>
      </trkpt>
      <trkpt lat="47.49119" lon="6.7621">
        <ele>316.8</ele>
        <time>2014-11-02T08:29:58.000Z</time>
      </trkpt>
      <trkpt lat="47.49117" lon="6.76218">
        <ele>317.5</ele>
        <time>2014-11-02T08:29:59.000Z</time>
      </trkpt>
      <trkpt lat="47.49116" lon="6.76225">
        <ele>317.6</ele>
        <time>2014-11-02T08:30:00.000Z</time>
      </trkpt>
      <trkpt lat="47.49115" lon="6.76234">
        <ele>318.2</ele>
        <time>2014-11-02T08:30:01.000Z</time>
      </trkpt>
      <trkpt lat="47.49114" lon="6.76243">
        <ele>317.8</ele>
        <time>2014-11-02T08:30:02.000Z</time>
      </trkpt>
      <trkpt lat="47.49113" lon="6.76264">
        <ele>317.9</ele>
        <time>2014-11-02T08:30:05.000Z</time>
      </trkpt>
      <trkpt lat="47.49111" lon="6.76271">
        <ele>317.2</ele>
        <time>2014-11-02T08:30:06.000Z</time>
      </trkpt>
      <trkpt lat="47.49112" lon="6.7628">
        <ele>316.8</ele>
        <time>2014-11-02T08:30:07.000Z</time>
      </trkpt>
      <trkpt lat="47.49112" lon="6.76287">
        <ele>316.6</ele>
        <time>2014-11-02T08:30:08.046Z</time>
      </trkpt>
      <trkpt lat="47.49113" lon="6.76301">
        <ele>318.3</ele>
        <time>2014-11-02T08:30:09.000Z</time>
      </trkpt>
      <trkpt lat="47.49113" lon="6.76309">
        <ele>318.3</ele>
        <time>2014-11-02T08:30:09.998Z</time>
      </trkpt>
      <trkpt lat="47.49108" lon="6.76318">
        <ele>321.4</ele>
        <time>2014-11-02T08:30:11.000Z</time>
      </trkpt>
      <trkpt lat="47.49107" lon="6.76329">
        <ele>321.5</ele>
        <time>2014-11-02T08:30:12.000Z</time>
      </trkpt>
      <trkpt lat="47.49105" lon="6.76337">
        <ele>321.7</ele>
        <time>2014-11-02T08:30:13.000Z</time>
      </trkpt>
      <trkpt lat="47.49103" lon="6.76345">
        <ele>322</ele>
        <time>2014-11-02T08:30:14.000Z</time>
      </trkpt>
      <trkpt lat="47.49102" lon="6.76352">
        <ele>322.1</ele>
        <time>2014-11-02T08:30:15.046Z</time>
      </trkpt>
      <trkpt lat="47.49103" lon="6.76364">
        <ele>322.3</ele>
        <time>2014-11-02T08:30:16.000Z</time>
      </trkpt>
      <trkpt lat="47.49106" lon="6.76375">
        <ele>322.2</ele>
        <time>2014-11-02T08:30:17.000Z</time>
      </trkpt>
      <trkpt lat="47.49109" lon="6.76386">
        <ele>323.8</ele>
        <time>2014-11-02T08:30:18.000Z</time>
      </trkpt>
      <trkpt lat="47.49109" lon="6.76395">
        <ele>322.3</ele>
        <time>2014-11-02T08:30:19.000Z</time>
      </trkpt>
      <trkpt lat="47.49109" lon="6.76405">
        <ele>323.7</ele>
        <time>2014-11-02T08:30:20.000Z</time>
      </trkpt>
      <trkpt lat="47.4911" lon="6.76414">
        <ele>322.7</ele>
        <time>2014-11-02T08:30:21.000Z</time>
      </trkpt>
      <trkpt lat="47.4911" lon="6.76425">
        <ele>320.1</ele>
        <time>2014-11-02T08:30:22.000Z</time>
      </trkpt>
      <trkpt lat="47.4911" lon="6.76432">
        <ele>319.1</ele>
        <time>2014-11-02T08:30:22.998Z</time>
      </trkpt>
      <trkpt lat="47.49109" lon="6.76443">
        <ele>318.6</ele>
        <time>2014-11-02T08:30:23.958Z</time>
      </trkpt>
      <trkpt lat="47.49109" lon="6.76455">
        <ele>319.4</ele>
        <time>2014-11-02T08:30:25.000Z</time>
      </trkpt>
      <trkpt lat="47.4911" lon="6.76465">
        <ele>319</ele>
        <time>2014-11-02T08:30:26.000Z</time>
      </trkpt>
      <trkpt lat="47.4911" lon="6.76475">
        <ele>319.3</ele>
        <time>2014-11-02T08:30:27.000Z</time>
      </trkpt>
      <trkpt lat="47.49111" lon="6.76484">
        <ele>319.4</ele>
        <time>2014-11-02T08:30:28.000Z</time>
      </trkpt>
      <trkpt lat="47.49111" lon="6.76492">
        <ele>318.8</ele>
        <time>2014-11-02T08:30:29.000Z</time>
      </trkpt>
      <trkpt lat="47.4911" lon="6.765">
        <ele>318</ele>
        <time>2014-11-02T08:30:30.000Z</time>
      </trkpt>
      <trkpt lat="47.4911" lon="6.76508">
        <ele>317.9</ele>
        <time>2014-11-02T08:30:31.000Z</time>
      </trkpt>
      <trkpt lat="47.49112" lon="6.76517">
        <ele>318.6</ele>
        <time>2014-11-02T08:30:32.000Z</time>
      </trkpt>
      <trkpt lat="47.49115" lon="6.76523">
        <ele>318.9</ele>
        <time>2014-11-02T08:30:33.000Z</time>
      </trkpt>
      <trkpt lat="47.49121" lon="6.76528">
        <ele>318.1</ele>
        <time>2014-11-02T08:30:34.000Z</time>
      </trkpt>
      <trkpt lat="47.49129" lon="6.76526">
        <ele>317.7</ele>
        <time>2014-11-02T08:30:35.000Z</time>
      </trkpt>
      <trkpt lat="47.49135" lon="6.76525">
        <ele>318.3</ele>
        <time>2014-11-02T08:30:36.000Z</time>
      </trkpt>
      <trkpt lat="47.49141" lon="6.76524">
        <ele>317.7</ele>
        <time>2014-11-02T08:30:37.000Z</time>
      </trkpt>
      <trkpt lat="47.49148" lon="6.76523">
        <ele>316.9</ele>
        <time>2014-11-02T08:30:38.037Z</time>
      </trkpt>
      <trkpt lat="47.49153" lon="6.76516">
        <ele>320</ele>
        <time>2014-11-02T08:30:39.000Z</time>
      </trkpt>
      <trkpt lat="47.49159" lon="6.76514">
        <ele>321.6</ele>
        <time>2014-11-02T08:30:40.000Z</time>
      </trkpt>
      <trkpt lat="47.49163" lon="6.7651">
        <ele>321.7</ele>
        <time>2014-11-02T08:30:41.000Z</time>
      </trkpt>
      <trkpt lat="47.49167" lon="6.76507">
        <ele>321.6</ele>
        <time>2014-11-02T08:30:42.000Z</time>
      </trkpt>
      <trkpt lat="47.49171" lon="6.76502">
        <ele>321.6</ele>
        <time>2014-11-02T08:30:43.000Z</time>
      </trkpt>
      <trkpt lat="47.49175" lon="6.76498">
        <ele>320.3</ele>
        <time>2014-11-02T08:30:44.000Z</time>
      </trkpt>
      <trkpt lat="47.49177" lon="6.76494">
        <ele>319.9</ele>
        <time>2014-11-02T08:30:45.000Z</time>
      </trkpt>
      <trkpt lat="47.4918" lon="6.76489">
        <ele>319.7</ele>
        <time>2014-11-02T08:30:46.000Z</time>
      </trkpt>
      <trkpt lat="47.49181" lon="6.76487">
        <ele>319.8</ele>
        <time>2014-11-02T08:30:47.000Z</time>
      </trkpt>
      <trkpt lat="47.49186" lon="6.76486">
        <ele>318.1</ele>
        <time>2014-11-02T08:31:00.000Z</time>
      </trkpt>
      <trkpt lat="47.49186" lon="6.76486">
        <ele>318</ele>
        <time>2014-11-02T08:31:01.000Z</time>
      </trkpt>
      <trkpt lat="47.49186" lon="6.76491">
        <ele>320.9</ele>
        <time>2014-11-02T08:36:43.000Z</time>
      </trkpt>
      <trkpt lat="47.49185" lon="6.76493">
        <ele>320.6</ele>
        <time>2014-11-02T08:36:44.000Z</time>
      </trkpt>
      <trkpt lat="47.49183" lon="6.76497">
        <ele>320.8</ele>
        <time>2014-11-02T08:36:46.000Z</time>
      </trkpt>
      <trkpt lat="47.49182" lon="6.76499">
        <ele>320.8</ele>
        <time>2014-11-02T08:36:47.000Z</time>
      </trkpt>
      <trkpt lat="47.49178" lon="6.76502">
        <ele>321.3</ele>
        <time>2014-11-02T08:36:49.000Z</time>
      </trkpt>
      <trkpt lat="47.49176" lon="6.76504">
        <ele>320.9</ele>
        <time>2014-11-02T08:36:50.000Z</time>
      </trkpt>
      <trkpt lat="47.49174" lon="6.76505">
        <ele>320.5</ele>
        <time>2014-11-02T08:36:51.000Z</time>
      </trkpt>
      <trkpt lat="47.49172" lon="6.76507">
        <ele>321.9</ele>
        <time>2014-11-02T08:36:52.000Z</time>
      </trkpt>
      <trkpt lat="47.49169" lon="6.76509">
        <ele>321.9</ele>
        <time>2014-11-02T08:36:53.000Z</time>
      </trkpt>
      <trkpt lat="47.49165" lon="6.7651">
        <ele>320.8</ele>
        <time>2014-11-02T08:36:54.000Z</time>
      </trkpt>
      <trkpt lat="47.49161" lon="6.76513">
        <ele>320.2</ele>
        <time>2014-11-02T08:36:55.000Z</time>
      </trkpt>
      <trkpt lat="47.49154" lon="6.76516">
        <ele>319.9</ele>
        <time>2014-11-02T08:36:56.000Z</time>
      </trkpt>
      <trkpt lat="47.49149" lon="6.76517">
        <ele>319.9</ele>
        <time>2014-11-02T08:36:57.000Z</time>
      </trkpt>
      <trkpt lat="47.49144" lon="6.76519">
        <ele>319.8</ele>
        <time>2014-11-02T08:36:58.000Z</time>
      </trkpt>
      <trkpt lat="47.49139" lon="6.7652">
        <ele>319.6</ele>
        <time>2014-11-02T08:36:59.000Z</time>
      </trkpt>
      <trkpt lat="47.49134" lon="6.7652">
        <ele>319.9</ele>
        <time>2014-11-02T08:37:00.000Z</time>
      </trkpt>
      <trkpt lat="47.49128" lon="6.76519">
        <ele>320.3</ele>
        <time>2014-11-02T08:37:01.000Z</time>
      </trkpt>
      <trkpt lat="47.49124" lon="6.76523">
        <ele>320.1</ele>
        <time>2014-11-02T08:37:02.000Z</time>
      </trkpt>
      <trkpt lat="47.49117" lon="6.76538">
        <ele>320.9</ele>
        <time>2014-11-02T08:37:05.000Z</time>
      </trkpt>
      <trkpt lat="47.49121" lon="6.76548">
        <ele>320.7</ele>
        <time>2014-11-02T08:37:06.000Z</time>
      </trkpt>
      <trkpt lat="47.4912" lon="6.76556">
        <ele>321.4</ele>
        <time>2014-11-02T08:37:07.000Z</time>
      </trkpt>
      <trkpt lat="47.4912" lon="6.76562">
        <ele>322.8</ele>
        <time>2014-11-02T08:37:08.000Z</time>
      </trkpt>
      <trkpt lat="47.4912" lon="6.76568">
        <ele>323.7</ele>
        <time>2014-11-02T08:37:09.000Z</time>
      </trkpt>
      <trkpt lat="47.4912" lon="6.76574">
        <ele>323.1</ele>
        <time>2014-11-02T08:37:10.000Z</time>
      </trkpt>
      <trkpt lat="47.49121" lon="6.7658">
        <ele>323.2</ele>
        <time>2014-11-02T08:37:11.000Z</time>
      </trkpt>
      <trkpt lat="47.49122" lon="6.76586">
        <ele>323.3</ele>
        <time>2014-11-02T08:37:12.000Z</time>
      </trkpt>
      <trkpt lat="47.49123" lon="6.76591">
        <ele>323.8</ele>
        <time>2014-11-02T08:37:12.999Z</time>
      </trkpt>
      <trkpt lat="47.49124" lon="6.76598">
        <ele>322.2</ele>
        <time>2014-11-02T08:37:14.000Z</time>
      </trkpt>
      <trkpt lat="47.49125" lon="6.76605">
        <ele>322.3</ele>
        <time>2014-11-02T08:37:15.000Z</time>
      </trkpt>
      <trkpt lat="47.49126" lon="6.76612">
        <ele>322.7</ele>
        <time>2014-11-02T08:37:15.999Z</time>
      </trkpt>
      <trkpt lat="47.49127" lon="6.76618">
        <ele>323</ele>
        <time>2014-11-02T08:37:17.000Z</time>
      </trkpt>
      <trkpt lat="47.49127" lon="6.76624">
        <ele>323.3</ele>
        <time>2014-11-02T08:37:18.001Z</time>
      </trkpt>
      <trkpt lat="47.49128" lon="6.76631">
        <ele>322.7</ele>
        <time>2014-11-02T08:37:19.000Z</time>
      </trkpt>
      <trkpt lat="47.49129" lon="6.76638">
        <ele>322.6</ele>
        <time>2014-11-02T08:37:20.000Z</time>
      </trkpt>
      <trkpt lat="47.4913" lon="6.76645">
        <ele>323.4</ele>
        <time>2014-11-02T08:37:21.000Z</time>
      </trkpt>
      <trkpt lat="47.4913" lon="6.76652">
        <ele>322.5</ele>
        <time>2014-11-02T08:37:22.000Z</time>
      </trkpt>
      <trkpt lat="47.49132" lon="6.76658">
        <ele>321.9</ele>
        <time>2014-11-02T08:37:23.000Z</time>
      </trkpt>
      <trkpt lat="47.49133" lon="6.76664">
        <ele>321.9</ele>
        <time>2014-11-02T08:37:24.000Z</time>
      </trkpt>
      <trkpt lat="47.49135" lon="6.76672">
        <ele>321.1</ele>
        <time>2014-11-02T08:37:25.000Z</time>
      </trkpt>
      <trkpt lat="47.49136" lon="6.76678">
        <ele>320.9</ele>
        <time>2014-11-02T08:37:26.000Z</time>
      </trkpt>
      <trkpt lat="47.49137" lon="6.76685">
        <ele>320.4</ele>
        <time>2014-11-02T08:37:27.000Z</time>
      </trkpt>
      <trkpt lat="47.49137" lon="6.76691">
        <ele>320.2</ele>
        <time>2014-11-02T08:37:28.000Z</time>
      </trkpt>
      <trkpt lat="47.49138" lon="6.76697">
        <ele>320.3</ele>
        <time>2014-11-02T08:37:29.000Z</time>
      </trkpt>
      <trkpt lat="47.4914" lon="6.76704">
        <ele>319.8</ele>
        <time>2014-11-02T08:37:30.000Z</time>
      </trkpt>
      <trkpt lat="47.4914" lon="6.76711">
        <ele>320.4</ele>
        <time>2014-11-02T08:37:31.000Z</time>
      </trkpt>
      <trkpt lat="47.49141" lon="6.76717">
        <ele>320</ele>
        <time>2014-11-02T08:37:32.000Z</time>
      </trkpt>
      <trkpt lat="47.49142" lon="6.76725">
        <ele>320</ele>
        <time>2014-11-02T08:37:33.000Z</time>
      </trkpt>
      <trkpt lat="47.49142" lon="6.76731">
        <ele>319.9</ele>
        <time>2014-11-02T08:37:34.000Z</time>
      </trkpt>
      <trkpt lat="47.49143" lon="6.76738">
        <ele>319.4</ele>
        <time>2014-11-02T08:37:35.000Z</time>
      </trkpt>
      <trkpt lat="47.49144" lon="6.76744">
        <ele>321.2</ele>
        <time>2014-11-02T08:37:36.000Z</time>
      </trkpt>
      <trkpt lat="47.49145" lon="6.76751">
        <ele>319.1</ele>
        <time>2014-11-02T08:37:37.000Z</time>
      </trkpt>
      <trkpt lat="47.49146" lon="6.76758">
        <ele>319.6</ele>
        <time>2014-11-02T08:37:38.000Z</time>
      </trkpt>
      <trkpt lat="47.49145" lon="6.76764">
        <ele>320.2</ele>
        <time>2014-11-02T08:37:39.000Z</time>
      </trkpt>
      <trkpt lat="47.49146" lon="6.76771">
        <ele>319.6</ele>
        <time>2014-11-02T08:37:40.000Z</time>
      </trkpt>
      <trkpt lat="47.49146" lon="6.76778">
        <ele>319.1</ele>
        <time>2014-11-02T08:37:41.000Z</time>
      </trkpt>
      <trkpt lat="47.49147" lon="6.76784">
        <ele>318.8</ele>
        <time>2014-11-02T08:37:42.000Z</time>
      </trkpt>
      <trkpt lat="47.49147" lon="6.76791">
        <ele>318.4</ele>
        <time>2014-11-02T08:37:43.000Z</time>
      </trkpt>
      <trkpt lat="47.49146" lon="6.76797">
        <ele>318.8</ele>
        <time>2014-11-02T08:37:44.000Z</time>
      </trkpt>
      <trkpt lat="47.49146" lon="6.76803">
        <ele>318.3</ele>
        <time>2014-11-02T08:37:45.000Z</time>
      </trkpt>
      <trkpt lat="47.49146" lon="6.7681">
        <ele>317.8</ele>
        <time>2014-11-02T08:37:46.000Z</time>
      </trkpt>
      <trkpt lat="47.49145" lon="6.76817">
        <ele>317.1</ele>
        <time>2014-11-02T08:37:47.000Z</time>
      </trkpt>
      <trkpt lat="47.49145" lon="6.76824">
        <ele>317.5</ele>
        <time>2014-11-02T08:37:48.000Z</time>
      </trkpt>
      <trkpt lat="47.49146" lon="6.7683">
        <ele>317.2</ele>
        <time>2014-11-02T08:37:49.000Z</time>
      </trkpt>
      <trkpt lat="47.49147" lon="6.76837">
        <ele>316.7</ele>
        <time>2014-11-02T08:37:50.000Z</time>
      </trkpt>
      <trkpt lat="47.49146" lon="6.76845">
        <ele>316.8</ele>
        <time>2014-11-02T08:37:51.000Z</time>
      </trkpt>
      <trkpt lat="47.49145" lon="6.76853">
        <ele>316.9</ele>
        <time>2014-11-02T08:37:52.000Z</time>
      </trkpt>
      <trkpt lat="47.49145" lon="6.76861">
        <ele>316.8</ele>
        <time>2014-11-02T08:37:53.000Z</time>
      </trkpt>
      <trkpt lat="47.49145" lon="6.76868">
        <ele>316.8</ele>
        <time>2014-11-02T08:37:54.000Z</time>
      </trkpt>
      <trkpt lat="47.49145" lon="6.76875">
        <ele>316.9</ele>
        <time>2014-11-02T08:37:55.000Z</time>
      </trkpt>
      <trkpt lat="47.49145" lon="6.76882">
        <ele>316.2</ele>
        <time>2014-11-02T08:37:56.000Z</time>
      </trkpt>
      <trkpt lat="47.49145" lon="6.7689">
        <ele>315.9</ele>
        <time>2014-11-02T08:37:57.000Z</time>
      </trkpt>
      <trkpt lat="47.49145" lon="6.76898">
        <ele>315.7</ele>
        <time>2014-11-02T08:37:58.000Z</time>
      </trkpt>
      <trkpt lat="47.49145" lon="6.76905">
        <ele>315.7</ele>
        <time>2014-11-02T08:37:59.000Z</time>
      </trkpt>
      <trkpt lat="47.49145" lon="6.76912">
        <ele>315.9</ele>
        <time>2014-11-02T08:38:00.000Z</time>
      </trkpt>
      <trkpt lat="47.49145" lon="6.7692">
        <ele>315.1</ele>
        <time>2014-11-02T08:38:01.000Z</time>
      </trkpt>
      <trkpt lat="47.49145" lon="6.76927">
        <ele>315.4</ele>
        <time>2014-11-02T08:38:02.000Z</time>
      </trkpt>
      <trkpt lat="47.49143" lon="6.76977">
        <ele>314.8</ele>
        <time>2014-11-02T08:38:09.777Z</time>
      </trkpt>
      <trkpt lat="47.49147" lon="6.76985">
        <ele>315.1</ele>
        <time>2014-11-02T08:38:11.000Z</time>
      </trkpt>
      <trkpt lat="47.49155" lon="6.76992">
        <ele>315.2</ele>
        <time>2014-11-02T08:38:12.000Z</time>
      </trkpt>
      <trkpt lat="47.49161" lon="6.77001">
        <ele>314.1</ele>
        <time>2014-11-02T08:38:13.000Z</time>
      </trkpt>
      <trkpt lat="47.49164" lon="6.77008">
        <ele>315.1</ele>
        <time>2014-11-02T08:38:14.000Z</time>
      </trkpt>
      <trkpt lat="47.49165" lon="6.77017">
        <ele>316.3</ele>
        <time>2014-11-02T08:38:15.000Z</time>
      </trkpt>
      <trkpt lat="47.49167" lon="6.77025">
        <ele>314.6</ele>
        <time>2014-11-02T08:38:16.000Z</time>
      </trkpt>
      <trkpt lat="47.49168" lon="6.77033">
        <ele>313.7</ele>
        <time>2014-11-02T08:38:17.000Z</time>
      </trkpt>
      <trkpt lat="47.49168" lon="6.77041">
        <ele>313.7</ele>
        <time>2014-11-02T08:38:18.000Z</time>
      </trkpt>
      <trkpt lat="47.4917" lon="6.7705">
        <ele>313.6</ele>
        <time>2014-11-02T08:38:19.000Z</time>
      </trkpt>
      <trkpt lat="47.4917" lon="6.77058">
        <ele>314.1</ele>
        <time>2014-11-02T08:38:20.000Z</time>
      </trkpt>
      <trkpt lat="47.49171" lon="6.77066">
        <ele>314.4</ele>
        <time>2014-11-02T08:38:21.000Z</time>
      </trkpt>
      <trkpt lat="47.49172" lon="6.77073">
        <ele>315.2</ele>
        <time>2014-11-02T08:38:22.000Z</time>
      </trkpt>
      <trkpt lat="47.49173" lon="6.77081">
        <ele>315.1</ele>
        <time>2014-11-02T08:38:23.000Z</time>
      </trkpt>
      <trkpt lat="47.49174" lon="6.77088">
        <ele>315.1</ele>
        <time>2014-11-02T08:38:24.000Z</time>
      </trkpt>
      <trkpt lat="47.49175" lon="6.77094">
        <ele>314.6</ele>
        <time>2014-11-02T08:38:25.000Z</time>
      </trkpt>
      <trkpt lat="47.49176" lon="6.77101">
        <ele>315.2</ele>
        <time>2014-11-02T08:38:26.000Z</time>
      </trkpt>
      <trkpt lat="47.49177" lon="6.77106">
        <ele>315.4</ele>
        <time>2014-11-02T08:38:27.000Z</time>
      </trkpt>
      <trkpt lat="47.49178" lon="6.77112">
        <ele>315.3</ele>
        <time>2014-11-02T08:38:28.000Z</time>
      </trkpt>
      <trkpt lat="47.49181" lon="6.77119">
        <ele>312.8</ele>
        <time>2014-11-02T08:38:29.000Z</time>
      </trkpt>
      <trkpt lat="47.49181" lon="6.77122">
        <ele>312.2</ele>
        <time>2014-11-02T08:38:30.000Z</time>
      </trkpt>
      <trkpt lat="47.49181" lon="6.77126">
        <ele>313.1</ele>
        <time>2014-11-02T08:38:31.000Z</time>
      </trkpt>
      <trkpt lat="47.49181" lon="6.7713">
        <ele>314.3</ele>
        <time>2014-11-02T08:38:36.000Z</time>
      </trkpt>
      <trkpt lat="47.49183" lon="6.77134">
        <ele>313.9</ele>
        <time>2014-11-02T08:38:37.000Z</time>
      </trkpt>
      <trkpt lat="47.49183" lon="6.77138">
        <ele>313.3</ele>
        <time>2014-11-02T08:38:38.000Z</time>
      </trkpt>
      <trkpt lat="47.49183" lon="6.77141">
        <ele>313.9</ele>
        <time>2014-11-02T08:38:39.000Z</time>
      </trkpt>
      <trkpt lat="47.49184" lon="6.77145">
        <ele>313.7</ele>
        <time>2014-11-02T08:38:40.000Z</time>
      </trkpt>
      <trkpt lat="47.49184" lon="6.77151">
        <ele>314.6</ele>
        <time>2014-11-02T08:38:41.000Z</time>
      </trkpt>
      <trkpt lat="47.49185" lon="6.77157">
        <ele>315.4</ele>
        <time>2014-11-02T08:38:42.000Z</time>
      </trkpt>
      <trkpt lat="47.49185" lon="6.77163">
        <ele>315.3</ele>
        <time>2014-11-02T08:38:43.000Z</time>
      </trkpt>
      <trkpt lat="47.49185" lon="6.7717">
        <ele>314.4</ele>
        <time>2014-11-02T08:38:44.000Z</time>
      </trkpt>
      <trkpt lat="47.49185" lon="6.77177">
        <ele>314.6</ele>
        <time>2014-11-02T08:38:45.000Z</time>
      </trkpt>
      <trkpt lat="47.49184" lon="6.77186">
        <ele>314.9</ele>
        <time>2014-11-02T08:38:46.000Z</time>
      </trkpt>
      <trkpt lat="47.49183" lon="6.77192">
        <ele>314.8</ele>
        <time>2014-11-02T08:38:47.000Z</time>
      </trkpt>
      <trkpt lat="47.49183" lon="6.77199">
        <ele>314.4</ele>
        <time>2014-11-02T08:38:48.000Z</time>
      </trkpt>
      <trkpt lat="47.49183" lon="6.77205">
        <ele>315</ele>
        <time>2014-11-02T08:38:49.000Z</time>
      </trkpt>
      <trkpt lat="47.49182" lon="6.77211">
        <ele>315.1</ele>
        <time>2014-11-02T08:38:50.000Z</time>
      </trkpt>
      <trkpt lat="47.49181" lon="6.77218">
        <ele>314.5</ele>
        <time>2014-11-02T08:38:51.000Z</time>
      </trkpt>
      <trkpt lat="47.4918" lon="6.77223">
        <ele>314.7</ele>
        <time>2014-11-02T08:38:52.000Z</time>
      </trkpt>
      <trkpt lat="47.49181" lon="6.7723">
        <ele>315.6</ele>
        <time>2014-11-02T08:38:53.000Z</time>
      </trkpt>
      <trkpt lat="47.49184" lon="6.77236">
        <ele>314.7</ele>
        <time>2014-11-02T08:38:54.000Z</time>
      </trkpt>
      <trkpt lat="47.49185" lon="6.77243">
        <ele>314.6</ele>
        <time>2014-11-02T08:38:55.000Z</time>
      </trkpt>
      <trkpt lat="47.49186" lon="6.77249">
        <ele>314.4</ele>
        <time>2014-11-02T08:38:56.000Z</time>
      </trkpt>
      <trkpt lat="47.49184" lon="6.77257">
        <ele>313.9</ele>
        <time>2014-11-02T08:38:57.000Z</time>
      </trkpt>
      <trkpt lat="47.49184" lon="6.77265">
        <ele>313.3</ele>
        <time>2014-11-02T08:38:58.000Z</time>
      </trkpt>
      <trkpt lat="47.49183" lon="6.77273">
        <ele>313.3</ele>
        <time>2014-11-02T08:38:59.000Z</time>
      </trkpt>
      <trkpt lat="47.49182" lon="6.77281">
        <ele>313.2</ele>
        <time>2014-11-02T08:39:00.000Z</time>
      </trkpt>
      <trkpt lat="47.49182" lon="6.77289">
        <ele>313.1</ele>
        <time>2014-11-02T08:39:01.000Z</time>
      </trkpt>
      <trkpt lat="47.49182" lon="6.77297">
        <ele>312.8</ele>
        <time>2014-11-02T08:39:02.000Z</time>
      </trkpt>
      <trkpt lat="47.49179" lon="6.77318">
        <ele>313.9</ele>
        <time>2014-11-02T08:39:05.000Z</time>
      </trkpt>
      <trkpt lat="47.49176" lon="6.77325">
        <ele>314</ele>
        <time>2014-11-02T08:39:06.000Z</time>
      </trkpt>
      <trkpt lat="47.49173" lon="6.77327">
        <ele>314.5</ele>
        <time>2014-11-02T08:39:07.000Z</time>
      </trkpt>
      <trkpt lat="47.49171" lon="6.77331">
        <ele>314.1</ele>
        <time>2014-11-02T08:39:08.000Z</time>
      </trkpt>
      <trkpt lat="47.49168" lon="6.7733">
        <ele>314.1</ele>
        <time>2014-11-02T08:39:09.000Z</time>
      </trkpt>
      <trkpt lat="47.49165" lon="6.77331">
        <ele>313.7</ele>
        <time>2014-11-02T08:39:10.000Z</time>
      </trkpt>
      <trkpt lat="47.49162" lon="6.77333">
        <ele>313.5</ele>
        <time>2014-11-02T08:39:11.000Z</time>
      </trkpt>
      <trkpt lat="47.4916" lon="6.77339">
        <ele>311</ele>
        <time>2014-11-02T08:39:11.999Z</time>
      </trkpt>
      <trkpt lat="47.49158" lon="6.77343">
        <ele>310.6</ele>
        <time>2014-11-02T08:39:13.000Z</time>
      </trkpt>
      <trkpt lat="47.49155" lon="6.77351">
        <ele>311.4</ele>
        <time>2014-11-02T08:39:14.000Z</time>
      </trkpt>
      <trkpt lat="47.49152" lon="6.77356">
        <ele>311.8</ele>
        <time>2014-11-02T08:39:15.000Z</time>
      </trkpt>
      <trkpt lat="47.49148" lon="6.77361">
        <ele>311.6</ele>
        <time>2014-11-02T08:39:16.000Z</time>
      </trkpt>
      <trkpt lat="47.49144" lon="6.77366">
        <ele>312.2</ele>
        <time>2014-11-02T08:39:17.000Z</time>
      </trkpt>
      <trkpt lat="47.4914" lon="6.77371">
        <ele>311.8</ele>
        <time>2014-11-02T08:39:18.000Z</time>
      </trkpt>
      <trkpt lat="47.49136" lon="6.77377">
        <ele>311.8</ele>
        <time>2014-11-02T08:39:19.000Z</time>
      </trkpt>
      <trkpt lat="47.49132" lon="6.77381">
        <ele>312.9</ele>
        <time>2014-11-02T08:39:20.000Z</time>
      </trkpt>
      <trkpt lat="47.49127" lon="6.77385">
        <ele>312.7</ele>
        <time>2014-11-02T08:39:21.000Z</time>
      </trkpt>
      <trkpt lat="47.49123" lon="6.77389">
        <ele>312.1</ele>
        <time>2014-11-02T08:39:22.000Z</time>
      </trkpt>
      <trkpt lat="47.49118" lon="6.77391">
        <ele>313.2</ele>
        <time>2014-11-02T08:39:23.000Z</time>
      </trkpt>
      <trkpt lat="47.49114" lon="6.77394">
        <ele>312.9</ele>
        <time>2014-11-02T08:39:24.000Z</time>
      </trkpt>
      <trkpt lat="47.49109" lon="6.77399">
        <ele>312.8</ele>
        <time>2014-11-02T08:39:25.000Z</time>
      </trkpt>
      <trkpt lat="47.49104" lon="6.77403">
        <ele>311.8</ele>
        <time>2014-11-02T08:39:26.000Z</time>
      </trkpt>
      <trkpt lat="47.491" lon="6.77409">
        <ele>312.3</ele>
        <time>2014-11-02T08:39:27.000Z</time>
      </trkpt>
      <trkpt lat="47.49096" lon="6.77411">
        <ele>312.6</ele>
        <time>2014-11-02T08:39:28.000Z</time>
      </trkpt>
      <trkpt lat="47.49094" lon="6.77409">
        <ele>314.7</ele>
        <time>2014-11-02T08:39:29.000Z</time>
      </trkpt>
      <trkpt lat="47.49088" lon="6.77413">
        <ele>315.8</ele>
        <time>2014-11-02T08:39:30.000Z</time>
      </trkpt>
      <trkpt lat="47.49084" lon="6.77415">
        <ele>315.9</ele>
        <time>2014-11-02T08:39:31.000Z</time>
      </trkpt>
      <trkpt lat="47.49079" lon="6.77417">
        <ele>316.4</ele>
        <time>2014-11-02T08:39:32.000Z</time>
      </trkpt>
      <trkpt lat="47.49074" lon="6.77418">
        <ele>316.4</ele>
        <time>2014-11-02T08:39:33.000Z</time>
      </trkpt>
      <trkpt lat="47.4907" lon="6.77419">
        <ele>316.7</ele>
        <time>2014-11-02T08:39:34.000Z</time>
      </trkpt>
      <trkpt lat="47.49066" lon="6.77421">
        <ele>316.6</ele>
        <time>2014-11-02T08:39:35.000Z</time>
      </trkpt>
      <trkpt lat="47.49062" lon="6.77423">
        <ele>316.6</ele>
        <time>2014-11-02T08:39:36.000Z</time>
      </trkpt>
      <trkpt lat="47.49058" lon="6.77424">
        <ele>317.8</ele>
        <time>2014-11-02T08:39:37.000Z</time>
      </trkpt>
      <trkpt lat="47.49054" lon="6.77426">
        <ele>318.1</ele>
        <time>2014-11-02T08:39:38.000Z</time>
      </trkpt>
      <trkpt lat="47.49049" lon="6.77429">
        <ele>317.8</ele>
        <time>2014-11-02T08:39:39.000Z</time>
      </trkpt>
      <trkpt lat="47.49045" lon="6.77432">
        <ele>318.1</ele>
        <time>2014-11-02T08:39:40.000Z</time>
      </trkpt>
      <trkpt lat="47.4904" lon="6.77435">
        <ele>317.8</ele>
        <time>2014-11-02T08:39:41.000Z</time>
      </trkpt>
      <trkpt lat="47.49036" lon="6.77438">
        <ele>317.5</ele>
        <time>2014-11-02T08:39:42.000Z</time>
      </trkpt>
      <trkpt lat="47.49031" lon="6.7744">
        <ele>316.9</ele>
        <time>2014-11-02T08:39:43.000Z</time>
      </trkpt>
      <trkpt lat="47.49027" lon="6.77442">
        <ele>317.1</ele>
        <time>2014-11-02T08:39:44.000Z</time>
      </trkpt>
      <trkpt lat="47.49024" lon="6.77446">
        <ele>318.8</ele>
        <time>2014-11-02T08:39:45.000Z</time>
      </trkpt>
      <trkpt lat="47.4902" lon="6.7745">
        <ele>316.7</ele>
        <time>2014-11-02T08:39:46.000Z</time>
      </trkpt>
      <trkpt lat="47.49017" lon="6.77456">
        <ele>314.3</ele>
        <time>2014-11-02T08:39:47.000Z</time>
      </trkpt>
      <trkpt lat="47.49014" lon="6.77462">
        <ele>313.8</ele>
        <time>2014-11-02T08:39:48.000Z</time>
      </trkpt>
      <trkpt lat="47.49011" lon="6.77468">
        <ele>313.4</ele>
        <time>2014-11-02T08:39:49.000Z</time>
      </trkpt>
      <trkpt lat="47.4901" lon="6.77475">
        <ele>313.7</ele>
        <time>2014-11-02T08:39:50.000Z</time>
      </trkpt>
      <trkpt lat="47.49009" lon="6.77482">
        <ele>311.9</ele>
        <time>2014-11-02T08:39:51.000Z</time>
      </trkpt>
      <trkpt lat="47.49008" lon="6.7749">
        <ele>312.1</ele>
        <time>2014-11-02T08:39:52.000Z</time>
      </trkpt>
      <trkpt lat="47.49008" lon="6.77497">
        <ele>311.6</ele>
        <time>2014-11-02T08:39:53.000Z</time>
      </trkpt>
      <trkpt lat="47.49007" lon="6.77503">
        <ele>311.3</ele>
        <time>2014-11-02T08:39:54.000Z</time>
      </trkpt>
      <trkpt lat="47.49007" lon="6.77509">
        <ele>312</ele>
        <time>2014-11-02T08:39:55.000Z</time>
      </trkpt>
      <trkpt lat="47.49007" lon="6.77514">
        <ele>312.2</ele>
        <time>2014-11-02T08:39:56.000Z</time>
      </trkpt>
      <trkpt lat="47.49006" lon="6.7752">
        <ele>312.4</ele>
        <time>2014-11-02T08:39:57.000Z</time>
      </trkpt>
      <trkpt lat="47.49005" lon="6.77523">
        <ele>312.8</ele>
        <time>2014-11-02T08:39:58.000Z</time>
      </trkpt>
      <trkpt lat="47.49004" lon="6.77526">
        <ele>313.2</ele>
        <time>2014-11-02T08:39:59.000Z</time>
      </trkpt>
      <trkpt lat="47.49003" lon="6.77529">
        <ele>312.8</ele>
        <time>2014-11-02T08:40:00.000Z</time>
      </trkpt>
      <trkpt lat="47.49001" lon="6.77532">
        <ele>312.9</ele>
        <time>2014-11-02T08:40:01.000Z</time>
      </trkpt>
      <trkpt lat="47.49" lon="6.77533">
        <ele>316.1</ele>
        <time>2014-11-02T08:40:02.000Z</time>
      </trkpt>
      <trkpt lat="47.48994" lon="6.77541">
        <ele>318.1</ele>
        <time>2014-11-02T08:40:05.000Z</time>
      </trkpt>
      <trkpt lat="47.48992" lon="6.77544">
        <ele>318.5</ele>
        <time>2014-11-02T08:40:06.000Z</time>
      </trkpt>
      <trkpt lat="47.48989" lon="6.77546">
        <ele>319.3</ele>
        <time>2014-11-02T08:40:07.000Z</time>
      </trkpt>
      <trkpt lat="47.48987" lon="6.7755">
        <ele>319.7</ele>
        <time>2014-11-02T08:40:08.000Z</time>
      </trkpt>
      <trkpt lat="47.4898" lon="6.77556">
        <ele>317.4</ele>
        <time>2014-11-02T08:40:09.000Z</time>
      </trkpt>
      <trkpt lat="47.48977" lon="6.7756">
        <ele>317.1</ele>
        <time>2014-11-02T08:40:10.000Z</time>
      </trkpt>
      <trkpt lat="47.48973" lon="6.77566">
        <ele>316.3</ele>
        <time>2014-11-02T08:40:11.000Z</time>
      </trkpt>
      <trkpt lat="47.48965" lon="6.77568">
        <ele>317.3</ele>
        <time>2014-11-02T08:40:12.000Z</time>
      </trkpt>
      <trkpt lat="47.48962" lon="6.77572">
        <ele>316.5</ele>
        <time>2014-11-02T08:40:13.000Z</time>
      </trkpt>
      <trkpt lat="47.48958" lon="6.77576">
        <ele>316</ele>
        <time>2014-11-02T08:40:14.059Z</time>
      </trkpt>
      <trkpt lat="47.48955" lon="6.77579">
        <ele>314.4</ele>
        <time>2014-11-02T08:40:15.000Z</time>
      </trkpt>
      <trkpt lat="47.48951" lon="6.77583">
        <ele>313.6</ele>
        <time>2014-11-02T08:40:16.067Z</time>
      </trkpt>
      <trkpt lat="47.48947" lon="6.77591">
        <ele>315.4</ele>
        <time>2014-11-02T08:40:17.000Z</time>
      </trkpt>
      <trkpt lat="47.48942" lon="6.77592">
        <ele>314.3</ele>
        <time>2014-11-02T08:40:18.000Z</time>
      </trkpt>
      <trkpt lat="47.48939" lon="6.77593">
        <ele>313.8</ele>
        <time>2014-11-02T08:40:19.000Z</time>
      </trkpt>
      <trkpt lat="47.48936" lon="6.77592">
        <ele>314.3</ele>
        <time>2014-11-02T08:40:20.000Z</time>
      </trkpt>
      <trkpt lat="47.48932" lon="6.77592">
        <ele>317.4</ele>
        <time>2014-11-02T08:40:22.000Z</time>
      </trkpt>
      <trkpt lat="47.4893" lon="6.77593">
        <ele>318.7</ele>
        <time>2014-11-02T08:40:23.000Z</time>
      </trkpt>
      <trkpt lat="47.48927" lon="6.77596">
        <ele>318.4</ele>
        <time>2014-11-02T08:40:33.000Z</time>
      </trkpt>
      <trkpt lat="47.48926" lon="6.77597">
        <ele>317.2</ele>
        <time>2014-11-02T08:40:34.000Z</time>
      </trkpt>
      <trkpt lat="47.48923" lon="6.776">
        <ele>318.5</ele>
        <time>2014-11-02T08:40:37.000Z</time>
      </trkpt>
      <trkpt lat="47.48922" lon="6.77601">
        <ele>317.2</ele>
        <time>2014-11-02T08:40:38.000Z</time>
      </trkpt>
      <trkpt lat="47.48919" lon="6.77605">
        <ele>319.4</ele>
        <time>2014-11-02T08:40:42.000Z</time>
      </trkpt>
      <trkpt lat="47.48919" lon="6.77606">
        <ele>319.6</ele>
        <time>2014-11-02T08:40:43.000Z</time>
      </trkpt>
      <trkpt lat="47.48917" lon="6.7761">
        <ele>320.6</ele>
        <time>2014-11-02T08:40:46.000Z</time>
      </trkpt>
      <trkpt lat="47.48916" lon="6.77613">
        <ele>321.1</ele>
        <time>2014-11-02T08:40:47.000Z</time>
      </trkpt>
      <trkpt lat="47.48915" lon="6.77617">
        <ele>322.3</ele>
        <time>2014-11-02T08:40:49.000Z</time>
      </trkpt>
      <trkpt lat="47.48914" lon="6.77619">
        <ele>322.8</ele>
        <time>2014-11-02T08:40:50.000Z</time>
      </trkpt>
      <trkpt lat="47.48912" lon="6.77623">
        <ele>322.8</ele>
        <time>2014-11-02T08:40:52.000Z</time>
      </trkpt>
      <trkpt lat="47.48911" lon="6.77625">
        <ele>322.4</ele>
        <time>2014-11-02T08:40:53.000Z</time>
      </trkpt>
      <trkpt lat="47.48909" lon="6.77628">
        <ele>323.3</ele>
        <time>2014-11-02T08:40:55.000Z</time>
      </trkpt>
      <trkpt lat="47.48908" lon="6.7763">
        <ele>323.4</ele>
        <time>2014-11-02T08:40:56.000Z</time>
      </trkpt>
      <trkpt lat="47.48905" lon="6.77635">
        <ele>324.1</ele>
        <time>2014-11-02T08:40:59.000Z</time>
      </trkpt>
      <trkpt lat="47.48904" lon="6.77637">
        <ele>324.7</ele>
        <time>2014-11-02T08:41:00.000Z</time>
      </trkpt>
      <trkpt lat="47.48903" lon="6.77639">
        <ele>324.4</ele>
        <time>2014-11-02T08:41:02.000Z</time>
      </trkpt>
      <trkpt lat="47.48901" lon="6.77642">
        <ele>323.9</ele>
        <time>2014-11-02T08:41:05.000Z</time>
      </trkpt>
      <trkpt lat="47.489" lon="6.77645">
        <ele>323.9</ele>
        <time>2014-11-02T08:41:06.999Z</time>
      </trkpt>
      <trkpt lat="47.48898" lon="6.7765">
        <ele>322.5</ele>
        <time>2014-11-02T08:41:08.000Z</time>
      </trkpt>
      <trkpt lat="47.48896" lon="6.77656">
        <ele>321.9</ele>
        <time>2014-11-02T08:41:10.000Z</time>
      </trkpt>
      <trkpt lat="47.48896" lon="6.77658">
        <ele>321.6</ele>
        <time>2014-11-02T08:41:10.999Z</time>
      </trkpt>
      <trkpt lat="47.48898" lon="6.77659">
        <ele>321.5</ele>
        <time>2014-11-02T08:41:12.000Z</time>
      </trkpt>
      <trkpt lat="47.48901" lon="6.7766">
        <ele>321.5</ele>
        <time>2014-11-02T08:41:13.000Z</time>
      </trkpt>
      <trkpt lat="47.48904" lon="6.77661">
        <ele>320</ele>
        <time>2014-11-02T08:41:14.000Z</time>
      </trkpt>
      <trkpt lat="47.48907" lon="6.77661">
        <ele>319.5</ele>
        <time>2014-11-02T08:41:15.000Z</time>
      </trkpt>
      <trkpt lat="47.48909" lon="6.77661">
        <ele>319</ele>
        <time>2014-11-02T08:41:15.999Z</time>
      </trkpt>
      <trkpt lat="47.48912" lon="6.77657">
        <ele>318.1</ele>
        <time>2014-11-02T08:41:17.000Z</time>
      </trkpt>
      <trkpt lat="47.48912" lon="6.77651">
        <ele>318.7</ele>
        <time>2014-11-02T08:41:19.000Z</time>
      </trkpt>
      <trkpt lat="47.48912" lon="6.77648">
        <ele>319.3</ele>
        <time>2014-11-02T08:41:20.000Z</time>
      </trkpt>
      <trkpt lat="47.48908" lon="6.77645">
        <ele>317.5</ele>
        <time>2014-11-02T08:41:21.000Z</time>
      </trkpt>
      <trkpt lat="47.48905" lon="6.77642">
        <ele>317.8</ele>
        <time>2014-11-02T08:41:22.000Z</time>
      </trkpt>
      <trkpt lat="47.48903" lon="6.7764">
        <ele>317.7</ele>
        <time>2014-11-02T08:41:22.999Z</time>
      </trkpt>
      <trkpt lat="47.489" lon="6.77636">
        <ele>318.2</ele>
        <time>2014-11-02T08:41:24.000Z</time>
      </trkpt>
      <trkpt lat="47.48897" lon="6.77633">
        <ele>318.8</ele>
        <time>2014-11-02T08:41:24.999Z</time>
      </trkpt>
      <trkpt lat="47.48894" lon="6.77628">
        <ele>318.2</ele>
        <time>2014-11-02T08:41:26.000Z</time>
      </trkpt>
      <trkpt lat="47.48892" lon="6.77625">
        <ele>318.2</ele>
        <time>2014-11-02T08:41:26.999Z</time>
      </trkpt>
      <trkpt lat="47.48889" lon="6.77621">
        <ele>317.5</ele>
        <time>2014-11-02T08:41:28.000Z</time>
      </trkpt>
      <trkpt lat="47.48886" lon="6.77617">
        <ele>316.8</ele>
        <time>2014-11-02T08:41:29.000Z</time>
      </trkpt>
      <trkpt lat="47.48883" lon="6.77614">
        <ele>316.7</ele>
        <time>2014-11-02T08:41:30.012Z</time>
      </trkpt>
      <trkpt lat="47.48879" lon="6.7761">
        <ele>316.4</ele>
        <time>2014-11-02T08:41:31.000Z</time>
      </trkpt>
      <trkpt lat="47.48875" lon="6.77607">
        <ele>316.2</ele>
        <time>2014-11-02T08:41:31.999Z</time>
      </trkpt>
      <trkpt lat="47.48872" lon="6.77602">
        <ele>317.9</ele>
        <time>2014-11-02T08:41:33.000Z</time>
      </trkpt>
      <trkpt lat="47.48868" lon="6.77599">
        <ele>318.1</ele>
        <time>2014-11-02T08:41:34.000Z</time>
      </trkpt>
      <trkpt lat="47.48864" lon="6.77593">
        <ele>318</ele>
        <time>2014-11-02T08:41:35.000Z</time>
      </trkpt>
      <trkpt lat="47.4886" lon="6.77589">
        <ele>318.2</ele>
        <time>2014-11-02T08:41:35.999Z</time>
      </trkpt>
      <trkpt lat="47.48857" lon="6.77587">
        <ele>318.3</ele>
        <time>2014-11-02T08:41:37.000Z</time>
      </trkpt>
      <trkpt lat="47.48854" lon="6.77586">
        <ele>317.8</ele>
        <time>2014-11-02T08:41:38.000Z</time>
      </trkpt>
      <trkpt lat="47.48851" lon="6.77584">
        <ele>317.9</ele>
        <time>2014-11-02T08:41:38.999Z</time>
      </trkpt>
      <trkpt lat="47.48849" lon="6.77579">
        <ele>319.9</ele>
        <time>2014-11-02T08:41:40.999Z</time>
      </trkpt>
      <trkpt lat="47.4885" lon="6.77576">
        <ele>320.5</ele>
        <time>2014-11-02T08:41:42.000Z</time>
      </trkpt>
      <trkpt lat="47.48848" lon="6.77572">
        <ele>321.3</ele>
        <time>2014-11-02T08:41:43.943Z</time>
      </trkpt>
      <trkpt lat="47.48847" lon="6.77569">
        <ele>321.2</ele>
        <time>2014-11-02T08:41:45.000Z</time>
      </trkpt>
      <trkpt lat="47.48845" lon="6.77567">
        <ele>320.1</ele>
        <time>2014-11-02T08:41:46.017Z</time>
      </trkpt>
      <trkpt lat="47.48842" lon="6.77567">
        <ele>321.5</ele>
        <time>2014-11-02T08:41:47.000Z</time>
      </trkpt>
      <trkpt lat="47.4884" lon="6.77565">
        <ele>323.7</ele>
        <time>2014-11-02T08:41:48.000Z</time>
      </trkpt>
      <trkpt lat="47.48839" lon="6.77563">
        <ele>326.5</ele>
        <time>2014-11-02T08:41:49.000Z</time>
      </trkpt>
      <trkpt lat="47.48836" lon="6.77561">
        <ele>327.2</ele>
        <time>2014-11-02T08:41:50.000Z</time>
      </trkpt>
      <trkpt lat="47.48836" lon="6.77557">
        <ele>327.6</ele>
        <time>2014-11-02T08:41:51.000Z</time>
      </trkpt>
      <trkpt lat="47.48835" lon="6.77552">
        <ele>330.4</ele>
        <time>2014-11-02T08:41:53.000Z</time>
      </trkpt>
      <trkpt lat="47.48834" lon="6.7755">
        <ele>330.7</ele>
        <time>2014-11-02T08:41:54.000Z</time>
      </trkpt>
      <trkpt lat="47.48831" lon="6.77546">
        <ele>331.5</ele>
        <time>2014-11-02T08:41:56.000Z</time>
      </trkpt>
      <trkpt lat="47.4883" lon="6.77545">
        <ele>332</ele>
        <time>2014-11-02T08:41:57.000Z</time>
      </trkpt>
      <trkpt lat="47.48826" lon="6.77543">
        <ele>331.3</ele>
        <time>2014-11-02T08:41:58.999Z</time>
      </trkpt>
      <trkpt lat="47.48823" lon="6.77541">
        <ele>330.9</ele>
        <time>2014-11-02T08:42:00.000Z</time>
      </trkpt>
      <trkpt lat="47.48821" lon="6.77539">
        <ele>330.3</ele>
        <time>2014-11-02T08:42:01.000Z</time>
      </trkpt>
      <trkpt lat="47.48819" lon="6.77538">
        <ele>330</ele>
        <time>2014-11-02T08:42:02.016Z</time>
      </trkpt>
      <trkpt lat="47.48817" lon="6.77536">
        <ele>330.3</ele>
        <time>2014-11-02T08:42:03.000Z</time>
      </trkpt>
      <trkpt lat="47.48812" lon="6.77533">
        <ele>330.4</ele>
        <time>2014-11-02T08:42:06.000Z</time>
      </trkpt>
      <trkpt lat="47.48808" lon="6.77529">
        <ele>330.6</ele>
        <time>2014-11-02T08:42:09.000Z</time>
      </trkpt>
      <trkpt lat="47.48807" lon="6.77528">
        <ele>331.7</ele>
        <time>2014-11-02T08:42:10.000Z</time>
      </trkpt>
      <trkpt lat="47.48804" lon="6.77525">
        <ele>331.6</ele>
        <time>2014-11-02T08:42:13.000Z</time>
      </trkpt>
      <trkpt lat="47.48803" lon="6.77524">
        <ele>331.2</ele>
        <time>2014-11-02T08:42:14.000Z</time>
      </trkpt>
      <trkpt lat="47.488" lon="6.7752">
        <ele>333.2</ele>
        <time>2014-11-02T08:42:21.000Z</time>
      </trkpt>
      <trkpt lat="47.48799" lon="6.77519">
        <ele>333.4</ele>
        <time>2014-11-02T08:42:22.000Z</time>
      </trkpt>
      <trkpt lat="47.48796" lon="6.77517">
        <ele>332.5</ele>
        <time>2014-11-02T08:42:24.000Z</time>
      </trkpt>
      <trkpt lat="47.48794" lon="6.77517">
        <ele>332.6</ele>
        <time>2014-11-02T08:42:25.000Z</time>
      </trkpt>
      <trkpt lat="47.48791" lon="6.77513">
        <ele>335.3</ele>
        <time>2014-11-02T08:42:32.000Z</time>
      </trkpt>
      <trkpt lat="47.4879" lon="6.77512">
        <ele>336.7</ele>
        <time>2014-11-02T08:42:33.000Z</time>
      </trkpt>
      <trkpt lat="47.48788" lon="6.77508">
        <ele>337.7</ele>
        <time>2014-11-02T08:42:36.000Z</time>
      </trkpt>
      <trkpt lat="47.48786" lon="6.77507">
        <ele>338.5</ele>
        <time>2014-11-02T08:42:37.000Z</time>
      </trkpt>
      <trkpt lat="47.48783" lon="6.77503">
        <ele>341</ele>
        <time>2014-11-02T08:42:40.000Z</time>
      </trkpt>
      <trkpt lat="47.48781" lon="6.77501">
        <ele>341.6</ele>
        <time>2014-11-02T08:42:41.000Z</time>
      </trkpt>
      <trkpt lat="47.48779" lon="6.77499">
        <ele>341.2</ele>
        <time>2014-11-02T08:42:42.000Z</time>
      </trkpt>
      <trkpt lat="47.48777" lon="6.77497">
        <ele>341</ele>
        <time>2014-11-02T08:42:43.000Z</time>
      </trkpt>
      <trkpt lat="47.48775" lon="6.77494">
        <ele>340.9</ele>
        <time>2014-11-02T08:42:44.000Z</time>
      </trkpt>
      <trkpt lat="47.48773" lon="6.77492">
        <ele>339.9</ele>
        <time>2014-11-02T08:42:45.000Z</time>
      </trkpt>
      <trkpt lat="47.4877" lon="6.77489">
        <ele>339.2</ele>
        <time>2014-11-02T08:42:46.000Z</time>
      </trkpt>
      <trkpt lat="47.48768" lon="6.77487">
        <ele>339.3</ele>
        <time>2014-11-02T08:42:47.000Z</time>
      </trkpt>
      <trkpt lat="47.48766" lon="6.77485">
        <ele>340.1</ele>
        <time>2014-11-02T08:42:48.000Z</time>
      </trkpt>
      <trkpt lat="47.48764" lon="6.77482">
        <ele>340.6</ele>
        <time>2014-11-02T08:42:49.000Z</time>
      </trkpt>
      <trkpt lat="47.48761" lon="6.77479">
        <ele>341.2</ele>
        <time>2014-11-02T08:42:50.000Z</time>
      </trkpt>
      <trkpt lat="47.48759" lon="6.77476">
        <ele>341.4</ele>
        <time>2014-11-02T08:42:51.000Z</time>
      </trkpt>
      <trkpt lat="47.48757" lon="6.77473">
        <ele>341.4</ele>
        <time>2014-11-02T08:42:52.000Z</time>
      </trkpt>
      <trkpt lat="47.48755" lon="6.77471">
        <ele>340.6</ele>
        <time>2014-11-02T08:42:53.000Z</time>
      </trkpt>
      <trkpt lat="47.48753" lon="6.77467">
        <ele>339.6</ele>
        <time>2014-11-02T08:42:55.000Z</time>
      </trkpt>
      <trkpt lat="47.48751" lon="6.77465">
        <ele>341.6</ele>
        <time>2014-11-02T08:42:56.000Z</time>
      </trkpt>
      <trkpt lat="47.48748" lon="6.77463">
        <ele>340.9</ele>
        <time>2014-11-02T08:42:57.000Z</time>
      </trkpt>
      <trkpt lat="47.48746" lon="6.77461">
        <ele>339.8</ele>
        <time>2014-11-02T08:42:58.000Z</time>
      </trkpt>
      <trkpt lat="47.48743" lon="6.77458">
        <ele>339.9</ele>
        <time>2014-11-02T08:42:59.000Z</time>
      </trkpt>
      <trkpt lat="47.48741" lon="6.77457">
        <ele>339.7</ele>
        <time>2014-11-02T08:43:00.000Z</time>
      </trkpt>
      <trkpt lat="47.48738" lon="6.77455">
        <ele>338.9</ele>
        <time>2014-11-02T08:43:01.000Z</time>
      </trkpt>
      <trkpt lat="47.48736" lon="6.77453">
        <ele>338.5</ele>
        <time>2014-11-02T08:43:02.000Z</time>
      </trkpt>
      <trkpt lat="47.4873" lon="6.77449">
        <ele>338.9</ele>
        <time>2014-11-02T08:43:05.000Z</time>
      </trkpt>
      <trkpt lat="47.48727" lon="6.77446">
        <ele>339.8</ele>
        <time>2014-11-02T08:43:07.000Z</time>
      </trkpt>
      <trkpt lat="47.48725" lon="6.77445">
        <ele>340.2</ele>
        <time>2014-11-02T08:43:08.000Z</time>
      </trkpt>
      <trkpt lat="47.48722" lon="6.77443">
        <ele>341</ele>
        <time>2014-11-02T08:43:11.000Z</time>
      </trkpt>
      <trkpt lat="47.48721" lon="6.77442">
        <ele>340.6</ele>
        <time>2014-11-02T08:43:12.000Z</time>
      </trkpt>
      <trkpt lat="47.48717" lon="6.77439">
        <ele>342.1</ele>
        <time>2014-11-02T08:43:17.000Z</time>
      </trkpt>
      <trkpt lat="47.48716" lon="6.77439">
        <ele>341.7</ele>
        <time>2014-11-02T08:43:18.000Z</time>
      </trkpt>
      <trkpt lat="47.48712" lon="6.77439">
        <ele>342.6</ele>
        <time>2014-11-02T08:43:22.000Z</time>
      </trkpt>
      <trkpt lat="47.48711" lon="6.77438">
        <ele>342.1</ele>
        <time>2014-11-02T08:43:23.000Z</time>
      </trkpt>
      <trkpt lat="47.48709" lon="6.77434">
        <ele>341.8</ele>
        <time>2014-11-02T08:43:26.000Z</time>
      </trkpt>
      <trkpt lat="47.48708" lon="6.77432">
        <ele>342.7</ele>
        <time>2014-11-02T08:43:27.000Z</time>
      </trkpt>
      <trkpt lat="47.48706" lon="6.77428">
        <ele>343.4</ele>
        <time>2014-11-02T08:43:29.000Z</time>
      </trkpt>
      <trkpt lat="47.48704" lon="6.77426">
        <ele>342.2</ele>
        <time>2014-11-02T08:43:30.000Z</time>
      </trkpt>
      <trkpt lat="47.48701" lon="6.77422">
        <ele>342.5</ele>
        <time>2014-11-02T08:43:32.000Z</time>
      </trkpt>
      <trkpt lat="47.48699" lon="6.7742">
        <ele>343.1</ele>
        <time>2014-11-02T08:43:33.000Z</time>
      </trkpt>
      <trkpt lat="47.48698" lon="6.77418">
        <ele>342.8</ele>
        <time>2014-11-02T08:43:34.000Z</time>
      </trkpt>
      <trkpt lat="47.48696" lon="6.77416">
        <ele>342.9</ele>
        <time>2014-11-02T08:43:35.000Z</time>
      </trkpt>
      <trkpt lat="47.48694" lon="6.77414">
        <ele>342.9</ele>
        <time>2014-11-02T08:43:36.000Z</time>
      </trkpt>
      <trkpt lat="47.48691" lon="6.77411">
        <ele>343.3</ele>
        <time>2014-11-02T08:43:37.000Z</time>
      </trkpt>
      <trkpt lat="47.48689" lon="6.77409">
        <ele>343</ele>
        <time>2014-11-02T08:43:38.000Z</time>
      </trkpt>
      <trkpt lat="47.48687" lon="6.77408">
        <ele>342.3</ele>
        <time>2014-11-02T08:43:39.000Z</time>
      </trkpt>
      <trkpt lat="47.48683" lon="6.77406">
        <ele>342</ele>
        <time>2014-11-02T08:43:41.000Z</time>
      </trkpt>
      <trkpt lat="47.48682" lon="6.77405">
        <ele>341</ele>
        <time>2014-11-02T08:43:42.000Z</time>
      </trkpt>
      <trkpt lat="47.48678" lon="6.77405">
        <ele>339.2</ele>
        <time>2014-11-02T08:43:46.000Z</time>
      </trkpt>
      <trkpt lat="47.48677" lon="6.77405">
        <ele>339.5</ele>
        <time>2014-11-02T08:43:47.000Z</time>
      </trkpt>
      <trkpt lat="47.48673" lon="6.77405">
        <ele>340.3</ele>
        <time>2014-11-02T08:43:55.000Z</time>
      </trkpt>
      <trkpt lat="47.48672" lon="6.77404">
        <ele>340.1</ele>
        <time>2014-11-02T08:43:56.000Z</time>
      </trkpt>
      <trkpt lat="47.48668" lon="6.77402">
        <ele>340.4</ele>
        <time>2014-11-02T08:44:01.000Z</time>
      </trkpt>
      <trkpt lat="47.48667" lon="6.77401">
        <ele>342.2</ele>
        <time>2014-11-02T08:44:02.000Z</time>
      </trkpt>
      <trkpt lat="47.48663" lon="6.77397">
        <ele>342.6</ele>
        <time>2014-11-02T08:44:05.000Z</time>
      </trkpt>
      <trkpt lat="47.48662" lon="6.77396">
        <ele>342.2</ele>
        <time>2014-11-02T08:44:06.000Z</time>
      </trkpt>
      <trkpt lat="47.4866" lon="6.77395">
        <ele>341</ele>
        <time>2014-11-02T08:44:07.000Z</time>
      </trkpt>
      <trkpt lat="47.48658" lon="6.77393">
        <ele>340.3</ele>
        <time>2014-11-02T08:44:08.000Z</time>
      </trkpt>
      <trkpt lat="47.48655" lon="6.77392">
        <ele>340.6</ele>
        <time>2014-11-02T08:44:09.000Z</time>
      </trkpt>
      <trkpt lat="47.48653" lon="6.7739">
        <ele>340.7</ele>
        <time>2014-11-02T08:44:10.000Z</time>
      </trkpt>
      <trkpt lat="47.48652" lon="6.77388">
        <ele>339.6</ele>
        <time>2014-11-02T08:44:11.000Z</time>
      </trkpt>
      <trkpt lat="47.4865" lon="6.77385">
        <ele>339</ele>
        <time>2014-11-02T08:44:12.000Z</time>
      </trkpt>
      <trkpt lat="47.48647" lon="6.77383">
        <ele>338.9</ele>
        <time>2014-11-02T08:44:13.000Z</time>
      </trkpt>
      <trkpt lat="47.48646" lon="6.77381">
        <ele>338.5</ele>
        <time>2014-11-02T08:44:14.047Z</time>
      </trkpt>
      <trkpt lat="47.48642" lon="6.77379">
        <ele>339.9</ele>
        <time>2014-11-02T08:44:15.000Z</time>
      </trkpt>
      <trkpt lat="47.4864" lon="6.77377">
        <ele>340.4</ele>
        <time>2014-11-02T08:44:15.998Z</time>
      </trkpt>
      <trkpt lat="47.48634" lon="6.77377">
        <ele>339.5</ele>
        <time>2014-11-02T08:44:17.000Z</time>
      </trkpt>
      <trkpt lat="47.48631" lon="6.77377">
        <ele>339.7</ele>
        <time>2014-11-02T08:44:18.000Z</time>
      </trkpt>
      <trkpt lat="47.48628" lon="6.77377">
        <ele>339.5</ele>
        <time>2014-11-02T08:44:19.000Z</time>
      </trkpt>
      <trkpt lat="47.48625" lon="6.77379">
        <ele>339.3</ele>
        <time>2014-11-02T08:44:20.000Z</time>
      </trkpt>
      <trkpt lat="47.48623" lon="6.7738">
        <ele>340.5</ele>
        <time>2014-11-02T08:44:21.000Z</time>
      </trkpt>
      <trkpt lat="47.4862" lon="6.77382">
        <ele>340.6</ele>
        <time>2014-11-02T08:44:22.000Z</time>
      </trkpt>
      <trkpt lat="47.48618" lon="6.77384">
        <ele>340.9</ele>
        <time>2014-11-02T08:44:23.000Z</time>
      </trkpt>
      <trkpt lat="47.48615" lon="6.77388">
        <ele>339.4</ele>
        <time>2014-11-02T08:44:25.000Z</time>
      </trkpt>
      <trkpt lat="47.48613" lon="6.7739">
        <ele>338.9</ele>
        <time>2014-11-02T08:44:26.000Z</time>
      </trkpt>
      <trkpt lat="47.48612" lon="6.77393">
        <ele>338.1</ele>
        <time>2014-11-02T08:44:27.000Z</time>
      </trkpt>
      <trkpt lat="47.48611" lon="6.77396">
        <ele>339.4</ele>
        <time>2014-11-02T08:44:28.000Z</time>
      </trkpt>
      <trkpt lat="47.48609" lon="6.77401">
        <ele>339.2</ele>
        <time>2014-11-02T08:44:30.042Z</time>
      </trkpt>
      <trkpt lat="47.48605" lon="6.77404">
        <ele>338.3</ele>
        <time>2014-11-02T08:44:31.000Z</time>
      </trkpt>
      <trkpt lat="47.48604" lon="6.77405">
        <ele>338.3</ele>
        <time>2014-11-02T08:44:32.052Z</time>
      </trkpt>
      <trkpt lat="47.48601" lon="6.77407">
        <ele>337.3</ele>
        <time>2014-11-02T08:44:33.000Z</time>
      </trkpt>
      <trkpt lat="47.48598" lon="6.77411">
        <ele>338.9</ele>
        <time>2014-11-02T08:44:35.000Z</time>
      </trkpt>
      <trkpt lat="47.48596" lon="6.77414">
        <ele>338.6</ele>
        <time>2014-11-02T08:44:36.000Z</time>
      </trkpt>
      <trkpt lat="47.48595" lon="6.77416">
        <ele>338.1</ele>
        <time>2014-11-02T08:44:37.000Z</time>
      </trkpt>
      <trkpt lat="47.48593" lon="6.77418">
        <ele>337.9</ele>
        <time>2014-11-02T08:44:38.000Z</time>
      </trkpt>
      <trkpt lat="47.48591" lon="6.77421">
        <ele>339.8</ele>
        <time>2014-11-02T08:44:39.000Z</time>
      </trkpt>
      <trkpt lat="47.48589" lon="6.77423">
        <ele>340.7</ele>
        <time>2014-11-02T08:44:40.000Z</time>
      </trkpt>
      <trkpt lat="47.48587" lon="6.77425">
        <ele>341.1</ele>
        <time>2014-11-02T08:44:41.000Z</time>
      </trkpt>
      <trkpt lat="47.48585" lon="6.77428">
        <ele>341.5</ele>
        <time>2014-11-02T08:44:42.000Z</time>
      </trkpt>
      <trkpt lat="47.48584" lon="6.77431">
        <ele>341</ele>
        <time>2014-11-02T08:44:43.000Z</time>
      </trkpt>
      <trkpt lat="47.48582" lon="6.77433">
        <ele>341.2</ele>
        <time>2014-11-02T08:44:44.000Z</time>
      </trkpt>
      <trkpt lat="47.48579" lon="6.77433">
        <ele>340</ele>
        <time>2014-11-02T08:44:48.000Z</time>
      </trkpt>
      <trkpt lat="47.48578" lon="6.77431">
        <ele>340</ele>
        <time>2014-11-02T08:44:49.000Z</time>
      </trkpt>
      <trkpt lat="47.48575" lon="6.77429">
        <ele>339.4</ele>
        <time>2014-11-02T08:44:51.000Z</time>
      </trkpt>
      <trkpt lat="47.48573" lon="6.77428">
        <ele>338.9</ele>
        <time>2014-11-02T08:44:52.000Z</time>
      </trkpt>
      <trkpt lat="47.4857" lon="6.77426">
        <ele>338.9</ele>
        <time>2014-11-02T08:44:54.000Z</time>
      </trkpt>
      <trkpt lat="47.48568" lon="6.77424">
        <ele>339</ele>
        <time>2014-11-02T08:44:55.000Z</time>
      </trkpt>
      <trkpt lat="47.48566" lon="6.77423">
        <ele>338.6</ele>
        <time>2014-11-02T08:44:56.000Z</time>
      </trkpt>
      <trkpt lat="47.48563" lon="6.77421">
        <ele>338.9</ele>
        <time>2014-11-02T08:44:57.000Z</time>
      </trkpt>
      <trkpt lat="47.48561" lon="6.77419">
        <ele>338.6</ele>
        <time>2014-11-02T08:44:58.000Z</time>
      </trkpt>
      <trkpt lat="47.48559" lon="6.77417">
        <ele>338.2</ele>
        <time>2014-11-02T08:44:59.000Z</time>
      </trkpt>
      <trkpt lat="47.48557" lon="6.77415">
        <ele>338.5</ele>
        <time>2014-11-02T08:45:00.000Z</time>
      </trkpt>
      <trkpt lat="47.48555" lon="6.77413">
        <ele>340</ele>
        <time>2014-11-02T08:45:01.000Z</time>
      </trkpt>
      <trkpt lat="47.48553" lon="6.77411">
        <ele>340</ele>
        <time>2014-11-02T08:45:02.000Z</time>
      </trkpt>
      <trkpt lat="47.48547" lon="6.77407">
        <ele>339.6</ele>
        <time>2014-11-02T08:45:05.000Z</time>
      </trkpt>
      <trkpt lat="47.48544" lon="6.77404">
        <ele>340</ele>
        <time>2014-11-02T08:45:07.000Z</time>
      </trkpt>
      <trkpt lat="47.48542" lon="6.77402">
        <ele>339.9</ele>
        <time>2014-11-02T08:45:08.000Z</time>
      </trkpt>
      <trkpt lat="47.4854" lon="6.77399">
        <ele>340.1</ele>
        <time>2014-11-02T08:45:09.000Z</time>
      </trkpt>
      <trkpt lat="47.48539" lon="6.77397">
        <ele>339.9</ele>
        <time>2014-11-02T08:45:10.000Z</time>
      </trkpt>
      <trkpt lat="47.48537" lon="6.77395">
        <ele>339.4</ele>
        <time>2014-11-02T08:45:11.000Z</time>
      </trkpt>
      <trkpt lat="47.48534" lon="6.77392">
        <ele>338.8</ele>
        <time>2014-11-02T08:45:12.000Z</time>
      </trkpt>
      <trkpt lat="47.48532" lon="6.7739">
        <ele>338.3</ele>
        <time>2014-11-02T08:45:13.000Z</time>
      </trkpt>
      <trkpt lat="47.48529" lon="6.77387">
        <ele>338.9</ele>
        <time>2014-11-02T08:45:14.000Z</time>
      </trkpt>
      <trkpt lat="47.48527" lon="6.77385">
        <ele>338.8</ele>
        <time>2014-11-02T08:45:15.000Z</time>
      </trkpt>
      <trkpt lat="47.48525" lon="6.77382">
        <ele>338.8</ele>
        <time>2014-11-02T08:45:16.000Z</time>
      </trkpt>
      <trkpt lat="47.48523" lon="6.7738">
        <ele>338.7</ele>
        <time>2014-11-02T08:45:17.000Z</time>
      </trkpt>
      <trkpt lat="47.48521" lon="6.77377">
        <ele>339.6</ele>
        <time>2014-11-02T08:45:18.000Z</time>
      </trkpt>
      <trkpt lat="47.48518" lon="6.77374">
        <ele>339.2</ele>
        <time>2014-11-02T08:45:19.000Z</time>
      </trkpt>
      <trkpt lat="47.48514" lon="6.77371">
        <ele>339.2</ele>
        <time>2014-11-02T08:45:20.000Z</time>
      </trkpt>
      <trkpt lat="47.48511" lon="6.77367">
        <ele>338.9</ele>
        <time>2014-11-02T08:45:21.000Z</time>
      </trkpt>
      <trkpt lat="47.48507" lon="6.77363">
        <ele>338.7</ele>
        <time>2014-11-02T08:45:22.000Z</time>
      </trkpt>
      <trkpt lat="47.48503" lon="6.77359">
        <ele>338.9</ele>
        <time>2014-11-02T08:45:23.000Z</time>
      </trkpt>
      <trkpt lat="47.48499" lon="6.77355">
        <ele>339.5</ele>
        <time>2014-11-02T08:45:24.000Z</time>
      </trkpt>
      <trkpt lat="47.48494" lon="6.77351">
        <ele>340.2</ele>
        <time>2014-11-02T08:45:25.000Z</time>
      </trkpt>
      <trkpt lat="47.4849" lon="6.77347">
        <ele>346</ele>
        <time>2014-11-02T08:45:26.000Z</time>
      </trkpt>
      <trkpt lat="47.48486" lon="6.77344">
        <ele>345.3</ele>
        <time>2014-11-02T08:45:27.000Z</time>
      </trkpt>
      <trkpt lat="47.48483" lon="6.77341">
        <ele>345.9</ele>
        <time>2014-11-02T08:45:28.000Z</time>
      </trkpt>
      <trkpt lat="47.48479" lon="6.77337">
        <ele>345.8</ele>
        <time>2014-11-02T08:45:29.000Z</time>
      </trkpt>
      <trkpt lat="47.48475" lon="6.77334">
        <ele>346.1</ele>
        <time>2014-11-02T08:45:30.000Z</time>
      </trkpt>
      <trkpt lat="47.48471" lon="6.7733">
        <ele>345.4</ele>
        <time>2014-11-02T08:45:31.000Z</time>
      </trkpt>
      <trkpt lat="47.48468" lon="6.77326">
        <ele>345.8</ele>
        <time>2014-11-02T08:45:32.000Z</time>
      </trkpt>
      <trkpt lat="47.48465" lon="6.77322">
        <ele>345.4</ele>
        <time>2014-11-02T08:45:33.000Z</time>
      </trkpt>
      <trkpt lat="47.48462" lon="6.77319">
        <ele>345.2</ele>
        <time>2014-11-02T08:45:34.000Z</time>
      </trkpt>
      <trkpt lat="47.4846" lon="6.77316">
        <ele>344.9</ele>
        <time>2014-11-02T08:45:35.000Z</time>
      </trkpt>
      <trkpt lat="47.48458" lon="6.77313">
        <ele>345.9</ele>
        <time>2014-11-02T08:45:36.000Z</time>
      </trkpt>
      <trkpt lat="47.48455" lon="6.7731">
        <ele>345.7</ele>
        <time>2014-11-02T08:45:37.000Z</time>
      </trkpt>
      <trkpt lat="47.48453" lon="6.77307">
        <ele>346.9</ele>
        <time>2014-11-02T08:45:38.000Z</time>
      </trkpt>
      <trkpt lat="47.48451" lon="6.77304">
        <ele>347</ele>
        <time>2014-11-02T08:45:39.000Z</time>
      </trkpt>
      <trkpt lat="47.48448" lon="6.773">
        <ele>343.5</ele>
        <time>2014-11-02T08:45:40.000Z</time>
      </trkpt>
      <trkpt lat="47.48445" lon="6.77296">
        <ele>341.2</ele>
        <time>2014-11-02T08:45:41.000Z</time>
      </trkpt>
      <trkpt lat="47.48441" lon="6.77293">
        <ele>342.1</ele>
        <time>2014-11-02T08:45:42.000Z</time>
      </trkpt>
      <trkpt lat="47.48437" lon="6.77291">
        <ele>343.6</ele>
        <time>2014-11-02T08:45:43.000Z</time>
      </trkpt>
      <trkpt lat="47.48434" lon="6.7729">
        <ele>343.7</ele>
        <time>2014-11-02T08:45:44.000Z</time>
      </trkpt>
      <trkpt lat="47.48431" lon="6.77288">
        <ele>344.8</ele>
        <time>2014-11-02T08:45:45.000Z</time>
      </trkpt>
      <trkpt lat="47.48428" lon="6.77287">
        <ele>343.6</ele>
        <time>2014-11-02T08:45:46.000Z</time>
      </trkpt>
      <trkpt lat="47.48425" lon="6.77285">
        <ele>344</ele>
        <time>2014-11-02T08:45:47.000Z</time>
      </trkpt>
      <trkpt lat="47.48423" lon="6.77282">
        <ele>342.9</ele>
        <time>2014-11-02T08:45:48.000Z</time>
      </trkpt>
      <trkpt lat="47.48421" lon="6.7728">
        <ele>342.9</ele>
        <time>2014-11-02T08:45:49.000Z</time>
      </trkpt>
      <trkpt lat="47.48418" lon="6.77277">
        <ele>341.7</ele>
        <time>2014-11-02T08:45:50.000Z</time>
      </trkpt>
      <trkpt lat="47.48416" lon="6.77273">
        <ele>341</ele>
        <time>2014-11-02T08:45:51.000Z</time>
      </trkpt>
      <trkpt lat="47.48412" lon="6.77269">
        <ele>341.6</ele>
        <time>2014-11-02T08:45:52.000Z</time>
      </trkpt>
      <trkpt lat="47.48408" lon="6.77265">
        <ele>341.2</ele>
        <time>2014-11-02T08:45:53.000Z</time>
      </trkpt>
      <trkpt lat="47.48404" lon="6.77261">
        <ele>340.6</ele>
        <time>2014-11-02T08:45:54.000Z</time>
      </trkpt>
      <trkpt lat="47.48401" lon="6.77256">
        <ele>340.5</ele>
        <time>2014-11-02T08:45:55.000Z</time>
      </trkpt>
      <trkpt lat="47.48397" lon="6.77251">
        <ele>340.6</ele>
        <time>2014-11-02T08:45:56.000Z</time>
      </trkpt>
      <trkpt lat="47.48394" lon="6.77247">
        <ele>340.1</ele>
        <time>2014-11-02T08:45:57.000Z</time>
      </trkpt>
      <trkpt lat="47.4839" lon="6.77244">
        <ele>342.6</ele>
        <time>2014-11-02T08:45:58.000Z</time>
      </trkpt>
      <trkpt lat="47.48386" lon="6.77242">
        <ele>343.6</ele>
        <time>2014-11-02T08:45:59.000Z</time>
      </trkpt>
      <trkpt lat="47.48382" lon="6.7724">
        <ele>343.5</ele>
        <time>2014-11-02T08:46:00.000Z</time>
      </trkpt>
      <trkpt lat="47.48377" lon="6.77237">
        <ele>344.9</ele>
        <time>2014-11-02T08:46:01.000Z</time>
      </trkpt>
      <trkpt lat="47.48372" lon="6.77234">
        <ele>343.7</ele>
        <time>2014-11-02T08:46:02.000Z</time>
      </trkpt>
      <trkpt lat="47.48367" lon="6.7723">
        <ele>343</ele>
        <time>2014-11-02T08:46:03.000Z</time>
      </trkpt>
      <trkpt lat="47.48356" lon="6.77218">
        <ele>342.9</ele>
        <time>2014-11-02T08:46:06.000Z</time>
      </trkpt>
      <trkpt lat="47.48356" lon="6.77214">
        <ele>340.4</ele>
        <time>2014-11-02T08:46:17.000Z</time>
      </trkpt>
      <trkpt lat="47.48356" lon="6.77208">
        <ele>342.7</ele>
        <time>2014-11-02T08:46:18.000Z</time>
      </trkpt>
      <trkpt lat="47.48356" lon="6.77206">
        <ele>343.1</ele>
        <time>2014-11-02T08:46:19.000Z</time>
      </trkpt>
      <trkpt lat="47.48355" lon="6.77201">
        <ele>342.7</ele>
        <time>2014-11-02T08:46:20.000Z</time>
      </trkpt>
      <trkpt lat="47.48354" lon="6.77197">
        <ele>341.8</ele>
        <time>2014-11-02T08:46:21.000Z</time>
      </trkpt>
      <trkpt lat="47.48351" lon="6.77186">
        <ele>340.1</ele>
        <time>2014-11-02T08:46:22.000Z</time>
      </trkpt>
      <trkpt lat="47.48348" lon="6.77173">
        <ele>337.7</ele>
        <time>2014-11-02T08:46:23.000Z</time>
      </trkpt>
      <trkpt lat="47.48347" lon="6.77165">
        <ele>337.1</ele>
        <time>2014-11-02T08:46:24.000Z</time>
      </trkpt>
      <trkpt lat="47.48347" lon="6.77161">
        <ele>336.4</ele>
        <time>2014-11-02T08:46:25.000Z</time>
      </trkpt>
      <trkpt lat="47.48346" lon="6.77156">
        <ele>336.1</ele>
        <time>2014-11-02T08:46:26.000Z</time>
      </trkpt>
      <trkpt lat="47.48346" lon="6.77151">
        <ele>333.1</ele>
        <time>2014-11-02T08:46:29.000Z</time>
      </trkpt>
      <trkpt lat="47.48344" lon="6.77146">
        <ele>332.3</ele>
        <time>2014-11-02T08:46:30.000Z</time>
      </trkpt>
      <trkpt lat="47.48342" lon="6.7714">
        <ele>330.7</ele>
        <time>2014-11-02T08:46:31.000Z</time>
      </trkpt>
      <trkpt lat="47.48341" lon="6.77134">
        <ele>329.8</ele>
        <time>2014-11-02T08:46:32.000Z</time>
      </trkpt>
      <trkpt lat="47.48337" lon="6.77128">
        <ele>328.3</ele>
        <time>2014-11-02T08:46:33.000Z</time>
      </trkpt>
      <trkpt lat="47.48332" lon="6.77124">
        <ele>328.1</ele>
        <time>2014-11-02T08:46:34.000Z</time>
      </trkpt>
      <trkpt lat="47.48328" lon="6.7712">
        <ele>328.1</ele>
        <time>2014-11-02T08:46:35.000Z</time>
      </trkpt>
      <trkpt lat="47.48325" lon="6.77117">
        <ele>328.1</ele>
        <time>2014-11-02T08:46:36.000Z</time>
      </trkpt>
      <trkpt lat="47.48321" lon="6.77109">
        <ele>325.6</ele>
        <time>2014-11-02T08:46:37.000Z</time>
      </trkpt>
      <trkpt lat="47.48318" lon="6.77103">
        <ele>323.3</ele>
        <time>2014-11-02T08:46:38.000Z</time>
      </trkpt>
      <trkpt lat="47.48315" lon="6.77098">
        <ele>322.9</ele>
        <time>2014-11-02T08:46:39.000Z</time>
      </trkpt>
      <trkpt lat="47.48313" lon="6.77094">
        <ele>320.8</ele>
        <time>2014-11-02T08:46:40.000Z</time>
      </trkpt>
      <trkpt lat="47.48307" lon="6.77094">
        <ele>319.4</ele>
        <time>2014-11-02T08:46:41.000Z</time>
      </trkpt>
      <trkpt lat="47.48303" lon="6.77096">
        <ele>318.8</ele>
        <time>2014-11-02T08:46:42.000Z</time>
      </trkpt>
      <trkpt lat="47.48299" lon="6.77097">
        <ele>318.7</ele>
        <time>2014-11-02T08:46:43.000Z</time>
      </trkpt>
      <trkpt lat="47.48294" lon="6.771">
        <ele>317.9</ele>
        <time>2014-11-02T08:46:44.000Z</time>
      </trkpt>
      <trkpt lat="47.48289" lon="6.77102">
        <ele>317.2</ele>
        <time>2014-11-02T08:46:45.000Z</time>
      </trkpt>
      <trkpt lat="47.48287" lon="6.77106">
        <ele>317.9</ele>
        <time>2014-11-02T08:46:46.000Z</time>
      </trkpt>
      <trkpt lat="47.4828" lon="6.77111">
        <ele>316</ele>
        <time>2014-11-02T08:46:47.000Z</time>
      </trkpt>
      <trkpt lat="47.48271" lon="6.77114">
        <ele>313.3</ele>
        <time>2014-11-02T08:46:48.000Z</time>
      </trkpt>
      <trkpt lat="47.48267" lon="6.77114">
        <ele>313.4</ele>
        <time>2014-11-02T08:46:49.000Z</time>
      </trkpt>
      <trkpt lat="47.48265" lon="6.77114">
        <ele>313.4</ele>
        <time>2014-11-02T08:46:50.000Z</time>
      </trkpt>
      <trkpt lat="47.48266" lon="6.77109">
        <ele>310.4</ele>
        <time>2014-11-02T08:46:57.000Z</time>
      </trkpt>
      <trkpt lat="47.48267" lon="6.77106">
        <ele>310.1</ele>
        <time>2014-11-02T08:46:58.000Z</time>
      </trkpt>
      <trkpt lat="47.48268" lon="6.77102">
        <ele>309.9</ele>
        <time>2014-11-02T08:46:59.000Z</time>
      </trkpt>
      <trkpt lat="47.48269" lon="6.77098">
        <ele>309.5</ele>
        <time>2014-11-02T08:47:00.000Z</time>
      </trkpt>
      <trkpt lat="47.4827" lon="6.77092">
        <ele>310.8</ele>
        <time>2014-11-02T08:47:01.000Z</time>
      </trkpt>
      <trkpt lat="47.48272" lon="6.77086">
        <ele>312.1</ele>
        <time>2014-11-02T08:47:02.000Z</time>
      </trkpt>
      <trkpt lat="47.4828" lon="6.77032">
        <ele>310.8</ele>
        <time>2014-11-02T08:47:10.000Z</time>
      </trkpt>
      <trkpt lat="47.4828" lon="6.7703">
        <ele>310.3</ele>
        <time>2014-11-02T08:47:11.000Z</time>
      </trkpt>
      <trkpt lat="47.48281" lon="6.77026">
        <ele>310.3</ele>
        <time>2014-11-02T08:47:12.000Z</time>
      </trkpt>
      <trkpt lat="47.48281" lon="6.77022">
        <ele>310.6</ele>
        <time>2014-11-02T08:47:13.000Z</time>
      </trkpt>
      <trkpt lat="47.48281" lon="6.77018">
        <ele>311.6</ele>
        <time>2014-11-02T08:47:14.000Z</time>
      </trkpt>
      <trkpt lat="47.4828" lon="6.77014">
        <ele>311.7</ele>
        <time>2014-11-02T08:47:15.000Z</time>
      </trkpt>
      <trkpt lat="47.48279" lon="6.77011">
        <ele>312.5</ele>
        <time>2014-11-02T08:47:16.000Z</time>
      </trkpt>
      <trkpt lat="47.48277" lon="6.77006">
        <ele>311.8</ele>
        <time>2014-11-02T08:47:17.000Z</time>
      </trkpt>
      <trkpt lat="47.48273" lon="6.77005">
        <ele>311.2</ele>
        <time>2014-11-02T08:47:18.000Z</time>
      </trkpt>
      <trkpt lat="47.48271" lon="6.77002">
        <ele>311.5</ele>
        <time>2014-11-02T08:47:19.000Z</time>
      </trkpt>
      <trkpt lat="47.48268" lon="6.77">
        <ele>311.6</ele>
        <time>2014-11-02T08:47:20.000Z</time>
      </trkpt>
      <trkpt lat="47.48265" lon="6.76998">
        <ele>311.5</ele>
        <time>2014-11-02T08:47:21.000Z</time>
      </trkpt>
      <trkpt lat="47.48262" lon="6.76996">
        <ele>312</ele>
        <time>2014-11-02T08:47:22.000Z</time>
      </trkpt>
      <trkpt lat="47.4826" lon="6.76994">
        <ele>313.1</ele>
        <time>2014-11-02T08:47:23.000Z</time>
      </trkpt>
      <trkpt lat="47.48257" lon="6.76992">
        <ele>313.9</ele>
        <time>2014-11-02T08:47:24.000Z</time>
      </trkpt>
      <trkpt lat="47.48255" lon="6.7699">
        <ele>314.5</ele>
        <time>2014-11-02T08:47:25.000Z</time>
      </trkpt>
      <trkpt lat="47.48253" lon="6.76989">
        <ele>314.9</ele>
        <time>2014-11-02T08:47:26.000Z</time>
      </trkpt>
      <trkpt lat="47.4825" lon="6.76987">
        <ele>315.9</ele>
        <time>2014-11-02T08:47:28.000Z</time>
      </trkpt>
      <trkpt lat="47.48248" lon="6.76985">
        <ele>315.4</ele>
        <time>2014-11-02T08:47:29.000Z</time>
      </trkpt>
      <trkpt lat="47.48244" lon="6.76983">
        <ele>316.1</ele>
        <time>2014-11-02T08:47:31.000Z</time>
      </trkpt>
      <trkpt lat="47.48242" lon="6.76982">
        <ele>316</ele>
        <time>2014-11-02T08:47:32.000Z</time>
      </trkpt>
      <trkpt lat="47.48239" lon="6.76979">
        <ele>316.1</ele>
        <time>2014-11-02T08:47:34.000Z</time>
      </trkpt>
      <trkpt lat="47.48237" lon="6.76978">
        <ele>316.6</ele>
        <time>2014-11-02T08:47:35.000Z</time>
      </trkpt>
      <trkpt lat="47.48233" lon="6.76975">
        <ele>316.8</ele>
        <time>2014-11-02T08:47:37.000Z</time>
      </trkpt>
      <trkpt lat="47.48231" lon="6.76974">
        <ele>316.7</ele>
        <time>2014-11-02T08:47:38.000Z</time>
      </trkpt>
      <trkpt lat="47.48228" lon="6.76972">
        <ele>316.8</ele>
        <time>2014-11-02T08:47:40.000Z</time>
      </trkpt>
      <trkpt lat="47.48226" lon="6.76972">
        <ele>316.8</ele>
        <time>2014-11-02T08:47:41.000Z</time>
      </trkpt>
      <trkpt lat="47.48223" lon="6.76971">
        <ele>316.6</ele>
        <time>2014-11-02T08:47:43.000Z</time>
      </trkpt>
      <trkpt lat="47.48222" lon="6.7697">
        <ele>316.7</ele>
        <time>2014-11-02T08:47:44.000Z</time>
      </trkpt>
      <trkpt lat="47.48218" lon="6.76968">
        <ele>316.2</ele>
        <time>2014-11-02T08:47:47.000Z</time>
      </trkpt>
      <trkpt lat="47.48216" lon="6.76967">
        <ele>316.2</ele>
        <time>2014-11-02T08:47:48.000Z</time>
      </trkpt>
      <trkpt lat="47.48213" lon="6.76964">
        <ele>316.2</ele>
        <time>2014-11-02T08:47:51.000Z</time>
      </trkpt>
      <trkpt lat="47.48211" lon="6.76963">
        <ele>316.2</ele>
        <time>2014-11-02T08:47:52.000Z</time>
      </trkpt>
      <trkpt lat="47.48208" lon="6.7696">
        <ele>315.7</ele>
        <time>2014-11-02T08:47:55.000Z</time>
      </trkpt>
      <trkpt lat="47.48206" lon="6.76959">
        <ele>315.6</ele>
        <time>2014-11-02T08:47:56.000Z</time>
      </trkpt>
      <trkpt lat="47.48208" lon="6.76963">
        <ele>316.7</ele>
        <time>2014-11-02T08:48:12.000Z</time>
      </trkpt>
      <trkpt lat="47.48211" lon="6.76965">
        <ele>316.9</ele>
        <time>2014-11-02T08:48:13.000Z</time>
      </trkpt>
      <trkpt lat="47.48213" lon="6.76967">
        <ele>316.5</ele>
        <time>2014-11-02T08:48:14.000Z</time>
      </trkpt>
      <trkpt lat="47.48216" lon="6.7697">
        <ele>316.1</ele>
        <time>2014-11-02T08:48:15.000Z</time>
      </trkpt>
      <trkpt lat="47.48219" lon="6.76972">
        <ele>315.9</ele>
        <time>2014-11-02T08:48:16.000Z</time>
      </trkpt>
      <trkpt lat="47.48221" lon="6.76975">
        <ele>316</ele>
        <time>2014-11-02T08:48:17.000Z</time>
      </trkpt>
      <trkpt lat="47.48224" lon="6.76977">
        <ele>315.3</ele>
        <time>2014-11-02T08:48:18.000Z</time>
      </trkpt>
      <trkpt lat="47.48227" lon="6.76979">
        <ele>315.3</ele>
        <time>2014-11-02T08:48:19.000Z</time>
      </trkpt>
      <trkpt lat="47.48229" lon="6.76981">
        <ele>315.9</ele>
        <time>2014-11-02T08:48:20.000Z</time>
      </trkpt>
      <trkpt lat="47.48232" lon="6.76982">
        <ele>315.6</ele>
        <time>2014-11-02T08:48:21.000Z</time>
      </trkpt>
      <trkpt lat="47.48234" lon="6.76984">
        <ele>315.8</ele>
        <time>2014-11-02T08:48:22.000Z</time>
      </trkpt>
      <trkpt lat="47.48237" lon="6.76985">
        <ele>315.6</ele>
        <time>2014-11-02T08:48:23.000Z</time>
      </trkpt>
      <trkpt lat="47.48239" lon="6.76986">
        <ele>314.1</ele>
        <time>2014-11-02T08:48:24.000Z</time>
      </trkpt>
      <trkpt lat="47.48242" lon="6.76987">
        <ele>313.8</ele>
        <time>2014-11-02T08:48:25.000Z</time>
      </trkpt>
      <trkpt lat="47.48244" lon="6.76988">
        <ele>314.3</ele>
        <time>2014-11-02T08:48:26.000Z</time>
      </trkpt>
      <trkpt lat="47.48246" lon="6.7699">
        <ele>314.9</ele>
        <time>2014-11-02T08:48:27.000Z</time>
      </trkpt>
      <trkpt lat="47.4825" lon="6.76992">
        <ele>315.1</ele>
        <time>2014-11-02T08:48:29.000Z</time>
      </trkpt>
      <trkpt lat="47.48251" lon="6.76993">
        <ele>315.5</ele>
        <time>2014-11-02T08:48:30.000Z</time>
      </trkpt>
      <trkpt lat="47.48254" lon="6.76995">
        <ele>315.1</ele>
        <time>2014-11-02T08:48:32.000Z</time>
      </trkpt>
      <trkpt lat="47.48256" lon="6.76995">
        <ele>315.1</ele>
        <time>2014-11-02T08:48:33.000Z</time>
      </trkpt>
      <trkpt lat="47.48254" lon="6.76992">
        <ele>315.3</ele>
        <time>2014-11-02T08:48:42.000Z</time>
      </trkpt>
      <trkpt lat="47.48252" lon="6.76991">
        <ele>315.3</ele>
        <time>2014-11-02T08:48:43.000Z</time>
      </trkpt>
      <trkpt lat="47.48248" lon="6.76989">
        <ele>315</ele>
        <time>2014-11-02T08:48:45.000Z</time>
      </trkpt>
      <trkpt lat="47.48247" lon="6.76988">
        <ele>315.3</ele>
        <time>2014-11-02T08:48:46.000Z</time>
      </trkpt>
      <trkpt lat="47.48244" lon="6.76987">
        <ele>315.2</ele>
        <time>2014-11-02T08:48:48.000Z</time>
      </trkpt>
      <trkpt lat="47.48242" lon="6.76986">
        <ele>315.4</ele>
        <time>2014-11-02T08:48:49.000Z</time>
      </trkpt>
      <trkpt lat="47.4824" lon="6.76984">
        <ele>316.2</ele>
        <time>2014-11-02T08:48:51.000Z</time>
      </trkpt>
      <trkpt lat="47.48238" lon="6.76983">
        <ele>316.2</ele>
        <time>2014-11-02T08:48:52.000Z</time>
      </trkpt>
      <trkpt lat="47.48235" lon="6.76981">
        <ele>315.6</ele>
        <time>2014-11-02T08:48:54.000Z</time>
      </trkpt>
      <trkpt lat="47.48233" lon="6.76981">
        <ele>315.5</ele>
        <time>2014-11-02T08:48:55.000Z</time>
      </trkpt>
      <trkpt lat="47.48229" lon="6.76979">
        <ele>315.7</ele>
        <time>2014-11-02T08:48:57.000Z</time>
      </trkpt>
      <trkpt lat="47.48227" lon="6.76977">
        <ele>315.7</ele>
        <time>2014-11-02T08:48:58.000Z</time>
      </trkpt>
      <trkpt lat="47.48225" lon="6.76976">
        <ele>316</ele>
        <time>2014-11-02T08:48:59.000Z</time>
      </trkpt>
      <trkpt lat="47.48222" lon="6.76974">
        <ele>318.3</ele>
        <time>2014-11-02T08:49:00.000Z</time>
      </trkpt>
      <trkpt lat="47.4822" lon="6.76972">
        <ele>318.8</ele>
        <time>2014-11-02T08:49:01.000Z</time>
      </trkpt>
      <trkpt lat="47.48217" lon="6.7697">
        <ele>319.7</ele>
        <time>2014-11-02T08:49:02.000Z</time>
      </trkpt>
      <trkpt lat="47.48193" lon="6.76952">
        <ele>316.5</ele>
        <time>2014-11-02T08:49:11.000Z</time>
      </trkpt>
      <trkpt lat="47.4819" lon="6.7695">
        <ele>317</ele>
        <time>2014-11-02T08:49:12.000Z</time>
      </trkpt>
      <trkpt lat="47.48187" lon="6.76948">
        <ele>316.7</ele>
        <time>2014-11-02T08:49:13.000Z</time>
      </trkpt>
      <trkpt lat="47.48184" lon="6.76946">
        <ele>316.7</ele>
        <time>2014-11-02T08:49:14.000Z</time>
      </trkpt>
      <trkpt lat="47.4818" lon="6.76944">
        <ele>317</ele>
        <time>2014-11-02T08:49:15.000Z</time>
      </trkpt>
      <trkpt lat="47.48174" lon="6.7694">
        <ele>317.7</ele>
        <time>2014-11-02T08:49:16.000Z</time>
      </trkpt>
      <trkpt lat="47.48171" lon="6.76938">
        <ele>317.3</ele>
        <time>2014-11-02T08:49:17.000Z</time>
      </trkpt>
      <trkpt lat="47.48167" lon="6.76936">
        <ele>317.3</ele>
        <time>2014-11-02T08:49:18.000Z</time>
      </trkpt>
      <trkpt lat="47.48164" lon="6.76933">
        <ele>317.5</ele>
        <time>2014-11-02T08:49:19.000Z</time>
      </trkpt>
      <trkpt lat="47.4816" lon="6.76931">
        <ele>317.4</ele>
        <time>2014-11-02T08:49:20.000Z</time>
      </trkpt>
      <trkpt lat="47.48156" lon="6.76928">
        <ele>317.6</ele>
        <time>2014-11-02T08:49:21.000Z</time>
      </trkpt>
      <trkpt lat="47.48153" lon="6.76927">
        <ele>318.1</ele>
        <time>2014-11-02T08:49:22.000Z</time>
      </trkpt>
      <trkpt lat="47.48149" lon="6.76925">
        <ele>319.3</ele>
        <time>2014-11-02T08:49:23.000Z</time>
      </trkpt>
      <trkpt lat="47.48145" lon="6.76923">
        <ele>319.8</ele>
        <time>2014-11-02T08:49:24.000Z</time>
      </trkpt>
      <trkpt lat="47.48142" lon="6.7692">
        <ele>319.4</ele>
        <time>2014-11-02T08:49:25.000Z</time>
      </trkpt>
      <trkpt lat="47.48138" lon="6.76919">
        <ele>319.5</ele>
        <time>2014-11-02T08:49:26.000Z</time>
      </trkpt>
      <trkpt lat="47.48135" lon="6.76917">
        <ele>320.8</ele>
        <time>2014-11-02T08:49:27.000Z</time>
      </trkpt>
      <trkpt lat="47.48131" lon="6.76915">
        <ele>321.2</ele>
        <time>2014-11-02T08:49:28.000Z</time>
      </trkpt>
      <trkpt lat="47.48125" lon="6.76911">
        <ele>320.5</ele>
        <time>2014-11-02T08:49:29.000Z</time>
      </trkpt>
      <trkpt lat="47.48121" lon="6.76908">
        <ele>320.6</ele>
        <time>2014-11-02T08:49:30.000Z</time>
      </trkpt>
      <trkpt lat="47.48117" lon="6.76906">
        <ele>319.9</ele>
        <time>2014-11-02T08:49:31.000Z</time>
      </trkpt>
      <trkpt lat="47.48113" lon="6.76903">
        <ele>319.9</ele>
        <time>2014-11-02T08:49:32.000Z</time>
      </trkpt>
      <trkpt lat="47.48108" lon="6.76899">
        <ele>319.1</ele>
        <time>2014-11-02T08:49:33.000Z</time>
      </trkpt>
      <trkpt lat="47.48104" lon="6.76895">
        <ele>319.3</ele>
        <time>2014-11-02T08:49:34.000Z</time>
      </trkpt>
      <trkpt lat="47.481" lon="6.76892">
        <ele>318.7</ele>
        <time>2014-11-02T08:49:35.000Z</time>
      </trkpt>
      <trkpt lat="47.48096" lon="6.76888">
        <ele>318.7</ele>
        <time>2014-11-02T08:49:36.000Z</time>
      </trkpt>
      <trkpt lat="47.48091" lon="6.76884">
        <ele>318.8</ele>
        <time>2014-11-02T08:49:37.000Z</time>
      </trkpt>
      <trkpt lat="47.48087" lon="6.76881">
        <ele>319.5</ele>
        <time>2014-11-02T08:49:38.000Z</time>
      </trkpt>
      <trkpt lat="47.48083" lon="6.76877">
        <ele>320.1</ele>
        <time>2014-11-02T08:49:39.000Z</time>
      </trkpt>
      <trkpt lat="47.48079" lon="6.76873">
        <ele>320.6</ele>
        <time>2014-11-02T08:49:40.000Z</time>
      </trkpt>
      <trkpt lat="47.48075" lon="6.76869">
        <ele>320.7</ele>
        <time>2014-11-02T08:49:41.000Z</time>
      </trkpt>
      <trkpt lat="47.48071" lon="6.76865">
        <ele>320.7</ele>
        <time>2014-11-02T08:49:42.000Z</time>
      </trkpt>
      <trkpt lat="47.48067" lon="6.76861">
        <ele>320.4</ele>
        <time>2014-11-02T08:49:43.000Z</time>
      </trkpt>
      <trkpt lat="47.48064" lon="6.76858">
        <ele>320.6</ele>
        <time>2014-11-02T08:49:44.000Z</time>
      </trkpt>
      <trkpt lat="47.48061" lon="6.76853">
        <ele>320.4</ele>
        <time>2014-11-02T08:49:45.000Z</time>
      </trkpt>
      <trkpt lat="47.48057" lon="6.76849">
        <ele>320.2</ele>
        <time>2014-11-02T08:49:46.000Z</time>
      </trkpt>
      <trkpt lat="47.48053" lon="6.76845">
        <ele>320.5</ele>
        <time>2014-11-02T08:49:47.000Z</time>
      </trkpt>
      <trkpt lat="47.4805" lon="6.76841">
        <ele>320.4</ele>
        <time>2014-11-02T08:49:48.000Z</time>
      </trkpt>
      <trkpt lat="47.48046" lon="6.76837">
        <ele>320.3</ele>
        <time>2014-11-02T08:49:49.000Z</time>
      </trkpt>
      <trkpt lat="47.48043" lon="6.76832">
        <ele>320.6</ele>
        <time>2014-11-02T08:49:50.000Z</time>
      </trkpt>
      <trkpt lat="47.48039" lon="6.76828">
        <ele>320.1</ele>
        <time>2014-11-02T08:49:51.000Z</time>
      </trkpt>
      <trkpt lat="47.48037" lon="6.76823">
        <ele>320.7</ele>
        <time>2014-11-02T08:49:52.000Z</time>
      </trkpt>
      <trkpt lat="47.48034" lon="6.76818">
        <ele>319.6</ele>
        <time>2014-11-02T08:49:53.000Z</time>
      </trkpt>
      <trkpt lat="47.4803" lon="6.76813">
        <ele>319.5</ele>
        <time>2014-11-02T08:49:54.000Z</time>
      </trkpt>
      <trkpt lat="47.48027" lon="6.76808">
        <ele>319.3</ele>
        <time>2014-11-02T08:49:55.000Z</time>
      </trkpt>
      <trkpt lat="47.48023" lon="6.76803">
        <ele>319</ele>
        <time>2014-11-02T08:49:56.000Z</time>
      </trkpt>
      <trkpt lat="47.4802" lon="6.76798">
        <ele>318.7</ele>
        <time>2014-11-02T08:49:57.000Z</time>
      </trkpt>
      <trkpt lat="47.48017" lon="6.76793">
        <ele>318.3</ele>
        <time>2014-11-02T08:49:58.000Z</time>
      </trkpt>
      <trkpt lat="47.48014" lon="6.76788">
        <ele>318.4</ele>
        <time>2014-11-02T08:49:59.000Z</time>
      </trkpt>
      <trkpt lat="47.48011" lon="6.76782">
        <ele>318.2</ele>
        <time>2014-11-02T08:50:00.000Z</time>
      </trkpt>
      <trkpt lat="47.48008" lon="6.76777">
        <ele>317.7</ele>
        <time>2014-11-02T08:50:01.000Z</time>
      </trkpt>
      <trkpt lat="47.48005" lon="6.76772">
        <ele>317.7</ele>
        <time>2014-11-02T08:50:02.000Z</time>
      </trkpt>
      <trkpt lat="47.48003" lon="6.76766">
        <ele>317.4</ele>
        <time>2014-11-02T08:50:03.000Z</time>
      </trkpt>
      <trkpt lat="47.47986" lon="6.76719">
        <ele>316.1</ele>
        <time>2014-11-02T08:50:11.000Z</time>
      </trkpt>
      <trkpt lat="47.47987" lon="6.7671">
        <ele>315.5</ele>
        <time>2014-11-02T08:50:12.000Z</time>
      </trkpt>
      <trkpt lat="47.47986" lon="6.76704">
        <ele>315</ele>
        <time>2014-11-02T08:50:13.000Z</time>
      </trkpt>
      <trkpt lat="47.47985" lon="6.76698">
        <ele>314.9</ele>
        <time>2014-11-02T08:50:14.000Z</time>
      </trkpt>
      <trkpt lat="47.47984" lon="6.76692">
        <ele>314.7</ele>
        <time>2014-11-02T08:50:15.000Z</time>
      </trkpt>
      <trkpt lat="47.47983" lon="6.76685">
        <ele>314.6</ele>
        <time>2014-11-02T08:50:16.000Z</time>
      </trkpt>
      <trkpt lat="47.47982" lon="6.76679">
        <ele>314.6</ele>
        <time>2014-11-02T08:50:17.000Z</time>
      </trkpt>
      <trkpt lat="47.47981" lon="6.76673">
        <ele>314.5</ele>
        <time>2014-11-02T08:50:18.000Z</time>
      </trkpt>
      <trkpt lat="47.47979" lon="6.76668">
        <ele>314.2</ele>
        <time>2014-11-02T08:50:19.000Z</time>
      </trkpt>
      <trkpt lat="47.47977" lon="6.76662">
        <ele>314.1</ele>
        <time>2014-11-02T08:50:20.000Z</time>
      </trkpt>
      <trkpt lat="47.47977" lon="6.76657">
        <ele>314.2</ele>
        <time>2014-11-02T08:50:21.000Z</time>
      </trkpt>
      <trkpt lat="47.47976" lon="6.7665">
        <ele>315.4</ele>
        <time>2014-11-02T08:50:22.000Z</time>
      </trkpt>
      <trkpt lat="47.47974" lon="6.76646">
        <ele>315</ele>
        <time>2014-11-02T08:50:23.000Z</time>
      </trkpt>
      <trkpt lat="47.47972" lon="6.7664">
        <ele>315.9</ele>
        <time>2014-11-02T08:50:24.000Z</time>
      </trkpt>
      <trkpt lat="47.47971" lon="6.76634">
        <ele>315.5</ele>
        <time>2014-11-02T08:50:25.000Z</time>
      </trkpt>
      <trkpt lat="47.4797" lon="6.7663">
        <ele>314.6</ele>
        <time>2014-11-02T08:50:26.000Z</time>
      </trkpt>
      <trkpt lat="47.47969" lon="6.76626">
        <ele>314.7</ele>
        <time>2014-11-02T08:50:27.000Z</time>
      </trkpt>
      <trkpt lat="47.47968" lon="6.76622">
        <ele>315.2</ele>
        <time>2014-11-02T08:50:28.000Z</time>
      </trkpt>
      <trkpt lat="47.47967" lon="6.76619">
        <ele>315.3</ele>
        <time>2014-11-02T08:50:29.000Z</time>
      </trkpt>
      <trkpt lat="47.47964" lon="6.76618">
        <ele>313.9</ele>
        <time>2014-11-02T08:50:30.000Z</time>
      </trkpt>
      <trkpt lat="47.47961" lon="6.76619">
        <ele>313.9</ele>
        <time>2014-11-02T08:50:31.000Z</time>
      </trkpt>
      <trkpt lat="47.47957" lon="6.76621">
        <ele>313.8</ele>
        <time>2014-11-02T08:50:32.000Z</time>
      </trkpt>
      <trkpt lat="47.47953" lon="6.76624">
        <ele>313.4</ele>
        <time>2014-11-02T08:50:33.000Z</time>
      </trkpt>
      <trkpt lat="47.4795" lon="6.76627">
        <ele>313.3</ele>
        <time>2014-11-02T08:50:34.000Z</time>
      </trkpt>
      <trkpt lat="47.47945" lon="6.7663">
        <ele>313.3</ele>
        <time>2014-11-02T08:50:35.000Z</time>
      </trkpt>
      <trkpt lat="47.47941" lon="6.76633">
        <ele>312.3</ele>
        <time>2014-11-02T08:50:36.000Z</time>
      </trkpt>
      <trkpt lat="47.47937" lon="6.76636">
        <ele>311.8</ele>
        <time>2014-11-02T08:50:37.000Z</time>
      </trkpt>
      <trkpt lat="47.47932" lon="6.76639">
        <ele>311.4</ele>
        <time>2014-11-02T08:50:38.000Z</time>
      </trkpt>
      <trkpt lat="47.47928" lon="6.76642">
        <ele>311.6</ele>
        <time>2014-11-02T08:50:39.000Z</time>
      </trkpt>
      <trkpt lat="47.47925" lon="6.76644">
        <ele>311.4</ele>
        <time>2014-11-02T08:50:40.000Z</time>
      </trkpt>
      <trkpt lat="47.47921" lon="6.76647">
        <ele>311.2</ele>
        <time>2014-11-02T08:50:41.000Z</time>
      </trkpt>
      <trkpt lat="47.47918" lon="6.7665">
        <ele>310.9</ele>
        <time>2014-11-02T08:50:42.000Z</time>
      </trkpt>
      <trkpt lat="47.47914" lon="6.76657">
        <ele>310</ele>
        <time>2014-11-02T08:50:43.000Z</time>
      </trkpt>
      <trkpt lat="47.4791" lon="6.76661">
        <ele>309.9</ele>
        <time>2014-11-02T08:50:44.000Z</time>
      </trkpt>
      <trkpt lat="47.47906" lon="6.76665">
        <ele>310.6</ele>
        <time>2014-11-02T08:50:45.000Z</time>
      </trkpt>
      <trkpt lat="47.47901" lon="6.7667">
        <ele>311.1</ele>
        <time>2014-11-02T08:50:46.000Z</time>
      </trkpt>
      <trkpt lat="47.47898" lon="6.76676">
        <ele>310.7</ele>
        <time>2014-11-02T08:50:47.000Z</time>
      </trkpt>
      <trkpt lat="47.47893" lon="6.76681">
        <ele>312.4</ele>
        <time>2014-11-02T08:50:48.000Z</time>
      </trkpt>
      <trkpt lat="47.4789" lon="6.76687">
        <ele>313.2</ele>
        <time>2014-11-02T08:50:49.000Z</time>
      </trkpt>
      <trkpt lat="47.47887" lon="6.76694">
        <ele>313.2</ele>
        <time>2014-11-02T08:50:50.000Z</time>
      </trkpt>
      <trkpt lat="47.47884" lon="6.767">
        <ele>313.6</ele>
        <time>2014-11-02T08:50:51.000Z</time>
      </trkpt>
      <trkpt lat="47.47881" lon="6.76706">
        <ele>314.1</ele>
        <time>2014-11-02T08:50:52.000Z</time>
      </trkpt>
      <trkpt lat="47.47879" lon="6.76711">
        <ele>313.8</ele>
        <time>2014-11-02T08:50:53.000Z</time>
      </trkpt>
      <trkpt lat="47.47876" lon="6.76716">
        <ele>313.8</ele>
        <time>2014-11-02T08:50:54.000Z</time>
      </trkpt>
      <trkpt lat="47.47874" lon="6.76721">
        <ele>314.1</ele>
        <time>2014-11-02T08:50:55.000Z</time>
      </trkpt>
      <trkpt lat="47.47869" lon="6.76723">
        <ele>314.7</ele>
        <time>2014-11-02T08:50:56.000Z</time>
      </trkpt>
      <trkpt lat="47.47866" lon="6.76726">
        <ele>314.8</ele>
        <time>2014-11-02T08:50:57.000Z</time>
      </trkpt>
      <trkpt lat="47.47864" lon="6.76733">
        <ele>313.5</ele>
        <time>2014-11-02T08:50:58.000Z</time>
      </trkpt>
      <trkpt lat="47.47861" lon="6.7674">
        <ele>312.7</ele>
        <time>2014-11-02T08:50:59.000Z</time>
      </trkpt>
      <trkpt lat="47.47858" lon="6.76746">
        <ele>312.8</ele>
        <time>2014-11-02T08:51:00.000Z</time>
      </trkpt>
      <trkpt lat="47.47855" lon="6.76751">
        <ele>312.7</ele>
        <time>2014-11-02T08:51:01.000Z</time>
      </trkpt>
      <trkpt lat="47.47852" lon="6.76757">
        <ele>313.4</ele>
        <time>2014-11-02T08:51:02.000Z</time>
      </trkpt>
      <trkpt lat="47.47848" lon="6.76762">
        <ele>313.6</ele>
        <time>2014-11-02T08:51:03.000Z</time>
      </trkpt>
      <trkpt lat="47.47824" lon="6.76807">
        <ele>312.2</ele>
        <time>2014-11-02T08:51:11.000Z</time>
      </trkpt>
      <trkpt lat="47.47786" lon="6.76806">
        <ele>311.5</ele>
        <time>2014-11-02T08:51:22.000Z</time>
      </trkpt>
      <trkpt lat="47.4778" lon="6.76805">
        <ele>311.5</ele>
        <time>2014-11-02T08:51:23.000Z</time>
      </trkpt>
      <trkpt lat="47.47773" lon="6.76802">
        <ele>314</ele>
        <time>2014-11-02T08:51:24.000Z</time>
      </trkpt>
      <trkpt lat="47.47768" lon="6.768">
        <ele>315.7</ele>
        <time>2014-11-02T08:51:25.000Z</time>
      </trkpt>
      <trkpt lat="47.47763" lon="6.76798">
        <ele>316.1</ele>
        <time>2014-11-02T08:51:26.000Z</time>
      </trkpt>
      <trkpt lat="47.47758" lon="6.76797">
        <ele>315.9</ele>
        <time>2014-11-02T08:51:27.000Z</time>
      </trkpt>
      <trkpt lat="47.47754" lon="6.76796">
        <ele>315.7</ele>
        <time>2014-11-02T08:51:28.000Z</time>
      </trkpt>
      <trkpt lat="47.47749" lon="6.76795">
        <ele>315.2</ele>
        <time>2014-11-02T08:51:29.000Z</time>
      </trkpt>
      <trkpt lat="47.47745" lon="6.76794">
        <ele>315.3</ele>
        <time>2014-11-02T08:51:30.000Z</time>
      </trkpt>
      <trkpt lat="47.4774" lon="6.76794">
        <ele>315.2</ele>
        <time>2014-11-02T08:51:31.000Z</time>
      </trkpt>
      <trkpt lat="47.47735" lon="6.76793">
        <ele>315.1</ele>
        <time>2014-11-02T08:51:32.000Z</time>
      </trkpt>
      <trkpt lat="47.47731" lon="6.76794">
        <ele>315</ele>
        <time>2014-11-02T08:51:33.000Z</time>
      </trkpt>
      <trkpt lat="47.47726" lon="6.76803">
        <ele>314.6</ele>
        <time>2014-11-02T08:51:34.000Z</time>
      </trkpt>
      <trkpt lat="47.47723" lon="6.7681">
        <ele>313.5</ele>
        <time>2014-11-02T08:51:35.000Z</time>
      </trkpt>
      <trkpt lat="47.47721" lon="6.76818">
        <ele>314.2</ele>
        <time>2014-11-02T08:51:36.000Z</time>
      </trkpt>
      <trkpt lat="47.47717" lon="6.76826">
        <ele>313.3</ele>
        <time>2014-11-02T08:51:37.000Z</time>
      </trkpt>
      <trkpt lat="47.47715" lon="6.76832">
        <ele>313.5</ele>
        <time>2014-11-02T08:51:38.000Z</time>
      </trkpt>
      <trkpt lat="47.47712" lon="6.76838">
        <ele>313.1</ele>
        <time>2014-11-02T08:51:39.000Z</time>
      </trkpt>
      <trkpt lat="47.4771" lon="6.76844">
        <ele>314.1</ele>
        <time>2014-11-02T08:51:40.000Z</time>
      </trkpt>
      <trkpt lat="47.47709" lon="6.7685">
        <ele>313.9</ele>
        <time>2014-11-02T08:51:41.000Z</time>
      </trkpt>
      <trkpt lat="47.47706" lon="6.76855">
        <ele>313.8</ele>
        <time>2014-11-02T08:51:42.000Z</time>
      </trkpt>
      <trkpt lat="47.47704" lon="6.76861">
        <ele>313.9</ele>
        <time>2014-11-02T08:51:43.000Z</time>
      </trkpt>
      <trkpt lat="47.47703" lon="6.76866">
        <ele>312.9</ele>
        <time>2014-11-02T08:51:44.000Z</time>
      </trkpt>
      <trkpt lat="47.47701" lon="6.76872">
        <ele>314.4</ele>
        <time>2014-11-02T08:51:45.000Z</time>
      </trkpt>
      <trkpt lat="47.47699" lon="6.76877">
        <ele>312.8</ele>
        <time>2014-11-02T08:51:46.000Z</time>
      </trkpt>
      <trkpt lat="47.47697" lon="6.76883">
        <ele>312.7</ele>
        <time>2014-11-02T08:51:47.000Z</time>
      </trkpt>
      <trkpt lat="47.47697" lon="6.76891">
        <ele>311.8</ele>
        <time>2014-11-02T08:51:48.000Z</time>
      </trkpt>
      <trkpt lat="47.47694" lon="6.76897">
        <ele>311.8</ele>
        <time>2014-11-02T08:51:49.000Z</time>
      </trkpt>
      <trkpt lat="47.47691" lon="6.76903">
        <ele>312</ele>
        <time>2014-11-02T08:51:50.000Z</time>
      </trkpt>
      <trkpt lat="47.47688" lon="6.76909">
        <ele>311.8</ele>
        <time>2014-11-02T08:51:51.000Z</time>
      </trkpt>
      <trkpt lat="47.47685" lon="6.76916">
        <ele>311.8</ele>
        <time>2014-11-02T08:51:52.000Z</time>
      </trkpt>
      <trkpt lat="47.47682" lon="6.76921">
        <ele>311.8</ele>
        <time>2014-11-02T08:51:53.000Z</time>
      </trkpt>
      <trkpt lat="47.47679" lon="6.76928">
        <ele>311.8</ele>
        <time>2014-11-02T08:51:54.000Z</time>
      </trkpt>
      <trkpt lat="47.47677" lon="6.76933">
        <ele>312.4</ele>
        <time>2014-11-02T08:51:55.000Z</time>
      </trkpt>
      <trkpt lat="47.47675" lon="6.76939">
        <ele>310.7</ele>
        <time>2014-11-02T08:51:56.000Z</time>
      </trkpt>
      <trkpt lat="47.47673" lon="6.76945">
        <ele>310.2</ele>
        <time>2014-11-02T08:51:57.000Z</time>
      </trkpt>
      <trkpt lat="47.47671" lon="6.76952">
        <ele>311</ele>
        <time>2014-11-02T08:51:58.000Z</time>
      </trkpt>
      <trkpt lat="47.47668" lon="6.76958">
        <ele>311.6</ele>
        <time>2014-11-02T08:51:59.000Z</time>
      </trkpt>
      <trkpt lat="47.47666" lon="6.76964">
        <ele>311</ele>
        <time>2014-11-02T08:52:00.000Z</time>
      </trkpt>
      <trkpt lat="47.47663" lon="6.76969">
        <ele>311.2</ele>
        <time>2014-11-02T08:52:01.000Z</time>
      </trkpt>
      <trkpt lat="47.47661" lon="6.76974">
        <ele>311.5</ele>
        <time>2014-11-02T08:52:02.000Z</time>
      </trkpt>
      <trkpt lat="47.47656" lon="6.76986">
        <ele>310.7</ele>
        <time>2014-11-02T08:52:05.000Z</time>
      </trkpt>
      <trkpt lat="47.47655" lon="6.76988">
        <ele>310.8</ele>
        <time>2014-11-02T08:52:06.000Z</time>
      </trkpt>
      <trkpt lat="47.47653" lon="6.76991">
        <ele>313.7</ele>
        <time>2014-11-02T08:52:07.000Z</time>
      </trkpt>
      <trkpt lat="47.47652" lon="6.76995">
        <ele>313.1</ele>
        <time>2014-11-02T08:52:08.000Z</time>
      </trkpt>
      <trkpt lat="47.4765" lon="6.76999">
        <ele>313.2</ele>
        <time>2014-11-02T08:52:09.000Z</time>
      </trkpt>
      <trkpt lat="47.4765" lon="6.77002">
        <ele>312.1</ele>
        <time>2014-11-02T08:52:10.000Z</time>
      </trkpt>
      <trkpt lat="47.47649" lon="6.77006">
        <ele>312.5</ele>
        <time>2014-11-02T08:52:11.000Z</time>
      </trkpt>
      <trkpt lat="47.47649" lon="6.77011">
        <ele>312.7</ele>
        <time>2014-11-02T08:52:12.000Z</time>
      </trkpt>
      <trkpt lat="47.47649" lon="6.77014">
        <ele>313.7</ele>
        <time>2014-11-02T08:52:13.000Z</time>
      </trkpt>
      <trkpt lat="47.47648" lon="6.7702">
        <ele>313.3</ele>
        <time>2014-11-02T08:52:14.000Z</time>
      </trkpt>
      <trkpt lat="47.47647" lon="6.77025">
        <ele>313.7</ele>
        <time>2014-11-02T08:52:15.000Z</time>
      </trkpt>
      <trkpt lat="47.47647" lon="6.77032">
        <ele>314.5</ele>
        <time>2014-11-02T08:52:16.000Z</time>
      </trkpt>
      <trkpt lat="47.47646" lon="6.77037">
        <ele>315.1</ele>
        <time>2014-11-02T08:52:17.000Z</time>
      </trkpt>
      <trkpt lat="47.47646" lon="6.77043">
        <ele>315.3</ele>
        <time>2014-11-02T08:52:18.000Z</time>
      </trkpt>
      <trkpt lat="47.47645" lon="6.77047">
        <ele>316.5</ele>
        <time>2014-11-02T08:52:19.000Z</time>
      </trkpt>
      <trkpt lat="47.47645" lon="6.77052">
        <ele>316.5</ele>
        <time>2014-11-02T08:52:20.000Z</time>
      </trkpt>
      <trkpt lat="47.47644" lon="6.77057">
        <ele>317.4</ele>
        <time>2014-11-02T08:52:21.000Z</time>
      </trkpt>
      <trkpt lat="47.47644" lon="6.77062">
        <ele>317.6</ele>
        <time>2014-11-02T08:52:22.000Z</time>
      </trkpt>
      <trkpt lat="47.47643" lon="6.77066">
        <ele>317.4</ele>
        <time>2014-11-02T08:52:23.000Z</time>
      </trkpt>
      <trkpt lat="47.47642" lon="6.7707">
        <ele>317</ele>
        <time>2014-11-02T08:52:24.000Z</time>
      </trkpt>
      <trkpt lat="47.47641" lon="6.77074">
        <ele>316.8</ele>
        <time>2014-11-02T08:52:25.000Z</time>
      </trkpt>
      <trkpt lat="47.4764" lon="6.77079">
        <ele>316</ele>
        <time>2014-11-02T08:52:26.000Z</time>
      </trkpt>
      <trkpt lat="47.47639" lon="6.77084">
        <ele>316</ele>
        <time>2014-11-02T08:52:27.000Z</time>
      </trkpt>
      <trkpt lat="47.47638" lon="6.7709">
        <ele>316.1</ele>
        <time>2014-11-02T08:52:28.000Z</time>
      </trkpt>
      <trkpt lat="47.47637" lon="6.77096">
        <ele>316</ele>
        <time>2014-11-02T08:52:29.000Z</time>
      </trkpt>
      <trkpt lat="47.47636" lon="6.77104">
        <ele>315.5</ele>
        <time>2014-11-02T08:52:30.000Z</time>
      </trkpt>
      <trkpt lat="47.47635" lon="6.77112">
        <ele>315.2</ele>
        <time>2014-11-02T08:52:31.000Z</time>
      </trkpt>
      <trkpt lat="47.47633" lon="6.7712">
        <ele>315</ele>
        <time>2014-11-02T08:52:32.000Z</time>
      </trkpt>
      <trkpt lat="47.47632" lon="6.77128">
        <ele>314.6</ele>
        <time>2014-11-02T08:52:33.000Z</time>
      </trkpt>
      <trkpt lat="47.47629" lon="6.77136">
        <ele>314.8</ele>
        <time>2014-11-02T08:52:34.000Z</time>
      </trkpt>
      <trkpt lat="47.47624" lon="6.77144">
        <ele>313.3</ele>
        <time>2014-11-02T08:52:35.000Z</time>
      </trkpt>
      <trkpt lat="47.47621" lon="6.77153">
        <ele>312.9</ele>
        <time>2014-11-02T08:52:36.000Z</time>
      </trkpt>
      <trkpt lat="47.47618" lon="6.77162">
        <ele>312.2</ele>
        <time>2014-11-02T08:52:37.000Z</time>
      </trkpt>
      <trkpt lat="47.47615" lon="6.77172">
        <ele>311.6</ele>
        <time>2014-11-02T08:52:38.000Z</time>
      </trkpt>
      <trkpt lat="47.47611" lon="6.7718">
        <ele>311.8</ele>
        <time>2014-11-02T08:52:39.000Z</time>
      </trkpt>
      <trkpt lat="47.47607" lon="6.77185">
        <ele>311.5</ele>
        <time>2014-11-02T08:52:40.000Z</time>
      </trkpt>
      <trkpt lat="47.47601" lon="6.77183">
        <ele>311.8</ele>
        <time>2014-11-02T08:52:41.000Z</time>
      </trkpt>
      <trkpt lat="47.47594" lon="6.7718">
        <ele>312.2</ele>
        <time>2014-11-02T08:52:42.000Z</time>
      </trkpt>
      <trkpt lat="47.47588" lon="6.77175">
        <ele>312.6</ele>
        <time>2014-11-02T08:52:43.000Z</time>
      </trkpt>
      <trkpt lat="47.47582" lon="6.77171">
        <ele>312.8</ele>
        <time>2014-11-02T08:52:44.000Z</time>
      </trkpt>
      <trkpt lat="47.47576" lon="6.77166">
        <ele>313.3</ele>
        <time>2014-11-02T08:52:45.000Z</time>
      </trkpt>
      <trkpt lat="47.47571" lon="6.77162">
        <ele>313.4</ele>
        <time>2014-11-02T08:52:46.000Z</time>
      </trkpt>
      <trkpt lat="47.47566" lon="6.77159">
        <ele>313.2</ele>
        <time>2014-11-02T08:52:47.000Z</time>
      </trkpt>
      <trkpt lat="47.47561" lon="6.77155">
        <ele>312.6</ele>
        <time>2014-11-02T08:52:48.000Z</time>
      </trkpt>
      <trkpt lat="47.47556" lon="6.77152">
        <ele>312.5</ele>
        <time>2014-11-02T08:52:49.000Z</time>
      </trkpt>
      <trkpt lat="47.47551" lon="6.77148">
        <ele>312.8</ele>
        <time>2014-11-02T08:52:50.000Z</time>
      </trkpt>
      <trkpt lat="47.47547" lon="6.77144">
        <ele>312.8</ele>
        <time>2014-11-02T08:52:51.000Z</time>
      </trkpt>
      <trkpt lat="47.47542" lon="6.7714">
        <ele>312.8</ele>
        <time>2014-11-02T08:52:52.000Z</time>
      </trkpt>
      <trkpt lat="47.47536" lon="6.77135">
        <ele>313.3</ele>
        <time>2014-11-02T08:52:53.000Z</time>
      </trkpt>
      <trkpt lat="47.47533" lon="6.77132">
        <ele>313.9</ele>
        <time>2014-11-02T08:52:54.000Z</time>
      </trkpt>
      <trkpt lat="47.47528" lon="6.77128">
        <ele>314.1</ele>
        <time>2014-11-02T08:52:54.998Z</time>
      </trkpt>
      <trkpt lat="47.47526" lon="6.77144">
        <ele>313.2</ele>
        <time>2014-11-02T08:52:56.000Z</time>
      </trkpt>
      <trkpt lat="47.47523" lon="6.77149">
        <ele>313.1</ele>
        <time>2014-11-02T08:52:57.001Z</time>
      </trkpt>
      <trkpt lat="47.47519" lon="6.77158">
        <ele>313</ele>
        <time>2014-11-02T08:52:58.000Z</time>
      </trkpt>
      <trkpt lat="47.47516" lon="6.77166">
        <ele>313.1</ele>
        <time>2014-11-02T08:52:59.000Z</time>
      </trkpt>
      <trkpt lat="47.47516" lon="6.77176">
        <ele>313.6</ele>
        <time>2014-11-02T08:53:00.000Z</time>
      </trkpt>
      <trkpt lat="47.47516" lon="6.77184">
        <ele>313.1</ele>
        <time>2014-11-02T08:53:01.000Z</time>
      </trkpt>
      <trkpt lat="47.47515" lon="6.77191">
        <ele>312.9</ele>
        <time>2014-11-02T08:53:02.000Z</time>
      </trkpt>
      <trkpt lat="47.47514" lon="6.77197">
        <ele>312.4</ele>
        <time>2014-11-02T08:53:03.000Z</time>
      </trkpt>
      <trkpt lat="47.47491" lon="6.77233">
        <ele>313.9</ele>
        <time>2014-11-02T08:53:11.000Z</time>
      </trkpt>
      <trkpt lat="47.47488" lon="6.77238">
        <ele>314.4</ele>
        <time>2014-11-02T08:53:12.000Z</time>
      </trkpt>
      <trkpt lat="47.47486" lon="6.77242">
        <ele>314.3</ele>
        <time>2014-11-02T08:53:13.000Z</time>
      </trkpt>
      <trkpt lat="47.47484" lon="6.77247">
        <ele>313.9</ele>
        <time>2014-11-02T08:53:14.000Z</time>
      </trkpt>
      <trkpt lat="47.47482" lon="6.77252">
        <ele>313.7</ele>
        <time>2014-11-02T08:53:15.000Z</time>
      </trkpt>
      <trkpt lat="47.47478" lon="6.77256">
        <ele>314.4</ele>
        <time>2014-11-02T08:53:16.000Z</time>
      </trkpt>
      <trkpt lat="47.47477" lon="6.7726">
        <ele>315.4</ele>
        <time>2014-11-02T08:53:17.000Z</time>
      </trkpt>
      <trkpt lat="47.47475" lon="6.77264">
        <ele>315.5</ele>
        <time>2014-11-02T08:53:18.000Z</time>
      </trkpt>
      <trkpt lat="47.47473" lon="6.77266">
        <ele>316.4</ele>
        <time>2014-11-02T08:53:19.000Z</time>
      </trkpt>
      <trkpt lat="47.4747" lon="6.77271">
        <ele>316.9</ele>
        <time>2014-11-02T08:53:21.000Z</time>
      </trkpt>
      <trkpt lat="47.47469" lon="6.77274">
        <ele>317.5</ele>
        <time>2014-11-02T08:53:22.000Z</time>
      </trkpt>
      <trkpt lat="47.47469" lon="6.77278">
        <ele>317</ele>
        <time>2014-11-02T08:53:23.000Z</time>
      </trkpt>
      <trkpt lat="47.47469" lon="6.77281">
        <ele>315.1</ele>
        <time>2014-11-02T08:53:24.000Z</time>
      </trkpt>
      <trkpt lat="47.4747" lon="6.77286">
        <ele>315.5</ele>
        <time>2014-11-02T08:53:25.000Z</time>
      </trkpt>
      <trkpt lat="47.47472" lon="6.7729">
        <ele>315.7</ele>
        <time>2014-11-02T08:53:26.000Z</time>
      </trkpt>
      <trkpt lat="47.47475" lon="6.77295">
        <ele>315.9</ele>
        <time>2014-11-02T08:53:27.000Z</time>
      </trkpt>
      <trkpt lat="47.47478" lon="6.773">
        <ele>316.1</ele>
        <time>2014-11-02T08:53:28.000Z</time>
      </trkpt>
      <trkpt lat="47.47482" lon="6.77305">
        <ele>316</ele>
        <time>2014-11-02T08:53:29.000Z</time>
      </trkpt>
      <trkpt lat="47.47485" lon="6.77309">
        <ele>316.6</ele>
        <time>2014-11-02T08:53:30.000Z</time>
      </trkpt>
      <trkpt lat="47.47489" lon="6.77313">
        <ele>316.8</ele>
        <time>2014-11-02T08:53:31.000Z</time>
      </trkpt>
      <trkpt lat="47.47492" lon="6.77317">
        <ele>316.5</ele>
        <time>2014-11-02T08:53:32.000Z</time>
      </trkpt>
      <trkpt lat="47.47496" lon="6.77322">
        <ele>316.3</ele>
        <time>2014-11-02T08:53:33.000Z</time>
      </trkpt>
      <trkpt lat="47.47499" lon="6.77326">
        <ele>315.8</ele>
        <time>2014-11-02T08:53:34.000Z</time>
      </trkpt>
      <trkpt lat="47.47502" lon="6.77331">
        <ele>315.6</ele>
        <time>2014-11-02T08:53:35.000Z</time>
      </trkpt>
      <trkpt lat="47.47506" lon="6.77336">
        <ele>315.4</ele>
        <time>2014-11-02T08:53:36.000Z</time>
      </trkpt>
      <trkpt lat="47.47509" lon="6.77342">
        <ele>315.3</ele>
        <time>2014-11-02T08:53:37.000Z</time>
      </trkpt>
      <trkpt lat="47.47512" lon="6.77346">
        <ele>315.2</ele>
        <time>2014-11-02T08:53:38.000Z</time>
      </trkpt>
      <trkpt lat="47.47517" lon="6.7735">
        <ele>312.9</ele>
        <time>2014-11-02T08:53:39.000Z</time>
      </trkpt>
      <trkpt lat="47.4752" lon="6.77354">
        <ele>313.2</ele>
        <time>2014-11-02T08:53:40.000Z</time>
      </trkpt>
      <trkpt lat="47.47523" lon="6.7736">
        <ele>315.7</ele>
        <time>2014-11-02T08:53:41.000Z</time>
      </trkpt>
      <trkpt lat="47.47526" lon="6.77366">
        <ele>316</ele>
        <time>2014-11-02T08:53:42.000Z</time>
      </trkpt>
      <trkpt lat="47.47528" lon="6.77371">
        <ele>317.3</ele>
        <time>2014-11-02T08:53:43.000Z</time>
      </trkpt>
      <trkpt lat="47.47532" lon="6.77377">
        <ele>317.8</ele>
        <time>2014-11-02T08:53:44.000Z</time>
      </trkpt>
      <trkpt lat="47.47535" lon="6.77381">
        <ele>318</ele>
        <time>2014-11-02T08:53:45.000Z</time>
      </trkpt>
      <trkpt lat="47.47537" lon="6.77386">
        <ele>318.8</ele>
        <time>2014-11-02T08:53:46.000Z</time>
      </trkpt>
      <trkpt lat="47.4754" lon="6.77392">
        <ele>318.1</ele>
        <time>2014-11-02T08:53:47.000Z</time>
      </trkpt>
      <trkpt lat="47.47542" lon="6.77397">
        <ele>318.1</ele>
        <time>2014-11-02T08:53:48.000Z</time>
      </trkpt>
      <trkpt lat="47.47537" lon="6.774">
        <ele>319.5</ele>
        <time>2014-11-02T08:53:49.000Z</time>
      </trkpt>
      <trkpt lat="47.47534" lon="6.77402">
        <ele>320.6</ele>
        <time>2014-11-02T08:53:50.000Z</time>
      </trkpt>
      <trkpt lat="47.4753" lon="6.77405">
        <ele>319.4</ele>
        <time>2014-11-02T08:53:51.000Z</time>
      </trkpt>
      <trkpt lat="47.47526" lon="6.77409">
        <ele>319.4</ele>
        <time>2014-11-02T08:53:52.000Z</time>
      </trkpt>
      <trkpt lat="47.47522" lon="6.77412">
        <ele>319.3</ele>
        <time>2014-11-02T08:53:53.000Z</time>
      </trkpt>
      <trkpt lat="47.47519" lon="6.77416">
        <ele>319.6</ele>
        <time>2014-11-02T08:53:54.000Z</time>
      </trkpt>
      <trkpt lat="47.47517" lon="6.7742">
        <ele>320.3</ele>
        <time>2014-11-02T08:53:55.000Z</time>
      </trkpt>
      <trkpt lat="47.47514" lon="6.77425">
        <ele>320.2</ele>
        <time>2014-11-02T08:53:56.000Z</time>
      </trkpt>
      <trkpt lat="47.47512" lon="6.77429">
        <ele>320.4</ele>
        <time>2014-11-02T08:53:57.000Z</time>
      </trkpt>
      <trkpt lat="47.4751" lon="6.77434">
        <ele>320.2</ele>
        <time>2014-11-02T08:53:58.000Z</time>
      </trkpt>
      <trkpt lat="47.47508" lon="6.77438">
        <ele>321.7</ele>
        <time>2014-11-02T08:53:59.000Z</time>
      </trkpt>
      <trkpt lat="47.47507" lon="6.77443">
        <ele>322</ele>
        <time>2014-11-02T08:54:00.000Z</time>
      </trkpt>
      <trkpt lat="47.47505" lon="6.77447">
        <ele>322.4</ele>
        <time>2014-11-02T08:54:01.000Z</time>
      </trkpt>
      <trkpt lat="47.47502" lon="6.7745">
        <ele>322.5</ele>
        <time>2014-11-02T08:54:02.000Z</time>
      </trkpt>
      <trkpt lat="47.47481" lon="6.77483">
        <ele>323.2</ele>
        <time>2014-11-02T08:54:09.765Z</time>
      </trkpt>
      <trkpt lat="47.47478" lon="6.77489">
        <ele>323.4</ele>
        <time>2014-11-02T08:54:11.000Z</time>
      </trkpt>
      <trkpt lat="47.47476" lon="6.77494">
        <ele>323.3</ele>
        <time>2014-11-02T08:54:12.000Z</time>
      </trkpt>
      <trkpt lat="47.47473" lon="6.77499">
        <ele>324.3</ele>
        <time>2014-11-02T08:54:13.000Z</time>
      </trkpt>
      <trkpt lat="47.4747" lon="6.77504">
        <ele>324.5</ele>
        <time>2014-11-02T08:54:14.000Z</time>
      </trkpt>
      <trkpt lat="47.47468" lon="6.77509">
        <ele>325.3</ele>
        <time>2014-11-02T08:54:15.000Z</time>
      </trkpt>
      <trkpt lat="47.47465" lon="6.77514">
        <ele>325.9</ele>
        <time>2014-11-02T08:54:16.000Z</time>
      </trkpt>
      <trkpt lat="47.47463" lon="6.77519">
        <ele>325.8</ele>
        <time>2014-11-02T08:54:17.000Z</time>
      </trkpt>
      <trkpt lat="47.47461" lon="6.77523">
        <ele>325.9</ele>
        <time>2014-11-02T08:54:18.000Z</time>
      </trkpt>
      <trkpt lat="47.47458" lon="6.77526">
        <ele>325.3</ele>
        <time>2014-11-02T08:54:19.000Z</time>
      </trkpt>
      <trkpt lat="47.47455" lon="6.77529">
        <ele>324.2</ele>
        <time>2014-11-02T08:54:20.000Z</time>
      </trkpt>
      <trkpt lat="47.47451" lon="6.77531">
        <ele>324</ele>
        <time>2014-11-02T08:54:21.000Z</time>
      </trkpt>
      <trkpt lat="47.47448" lon="6.77532">
        <ele>323.2</ele>
        <time>2014-11-02T08:54:22.000Z</time>
      </trkpt>
      <trkpt lat="47.47445" lon="6.77533">
        <ele>323.4</ele>
        <time>2014-11-02T08:54:23.000Z</time>
      </trkpt>
      <trkpt lat="47.47443" lon="6.77533">
        <ele>322.9</ele>
        <time>2014-11-02T08:54:24.000Z</time>
      </trkpt>
      <trkpt lat="47.47441" lon="6.77533">
        <ele>323.4</ele>
        <time>2014-11-02T08:54:25.000Z</time>
      </trkpt>
      <trkpt lat="47.47437" lon="6.77534">
        <ele>323.4</ele>
        <time>2014-11-02T08:54:27.000Z</time>
      </trkpt>
      <trkpt lat="47.47435" lon="6.77534">
        <ele>323.9</ele>
        <time>2014-11-02T08:54:28.000Z</time>
      </trkpt>
      <trkpt lat="47.47432" lon="6.77537">
        <ele>323.5</ele>
        <time>2014-11-02T08:54:31.000Z</time>
      </trkpt>
      <trkpt lat="47.47431" lon="6.77538">
        <ele>324</ele>
        <time>2014-11-02T08:54:32.000Z</time>
      </trkpt>
      <trkpt lat="47.47427" lon="6.7754">
        <ele>324.1</ele>
        <time>2014-11-02T08:54:36.000Z</time>
      </trkpt>
      <trkpt lat="47.47425" lon="6.7754">
        <ele>324.3</ele>
        <time>2014-11-02T08:54:37.000Z</time>
      </trkpt>
      <trkpt lat="47.47422" lon="6.77542">
        <ele>324.3</ele>
        <time>2014-11-02T08:54:39.000Z</time>
      </trkpt>
      <trkpt lat="47.47421" lon="6.77543">
        <ele>324</ele>
        <time>2014-11-02T08:54:40.000Z</time>
      </trkpt>
      <trkpt lat="47.47417" lon="6.77546">
        <ele>323.3</ele>
        <time>2014-11-02T08:54:42.000Z</time>
      </trkpt>
      <trkpt lat="47.47415" lon="6.77547">
        <ele>323</ele>
        <time>2014-11-02T08:54:43.000Z</time>
      </trkpt>
      <trkpt lat="47.47413" lon="6.77548">
        <ele>322.6</ele>
        <time>2014-11-02T08:54:44.000Z</time>
      </trkpt>
      <trkpt lat="47.47411" lon="6.77549">
        <ele>322.8</ele>
        <time>2014-11-02T08:54:45.000Z</time>
      </trkpt>
      <trkpt lat="47.47407" lon="6.77551">
        <ele>322.6</ele>
        <time>2014-11-02T08:54:47.000Z</time>
      </trkpt>
      <trkpt lat="47.47405" lon="6.77552">
        <ele>322.7</ele>
        <time>2014-11-02T08:54:48.000Z</time>
      </trkpt>
      <trkpt lat="47.47401" lon="6.77552">
        <ele>323.7</ele>
        <time>2014-11-02T08:54:51.000Z</time>
      </trkpt>
      <trkpt lat="47.474" lon="6.77553">
        <ele>323.7</ele>
        <time>2014-11-02T08:54:52.000Z</time>
      </trkpt>
      <trkpt lat="47.47398" lon="6.77554">
        <ele>323.4</ele>
        <time>2014-11-02T08:54:53.000Z</time>
      </trkpt>
      <trkpt lat="47.47395" lon="6.77555">
        <ele>324.1</ele>
        <time>2014-11-02T08:54:54.000Z</time>
      </trkpt>
      <trkpt lat="47.47393" lon="6.77556">
        <ele>324.8</ele>
        <time>2014-11-02T08:54:55.000Z</time>
      </trkpt>
      <trkpt lat="47.4739" lon="6.77557">
        <ele>324.1</ele>
        <time>2014-11-02T08:54:56.000Z</time>
      </trkpt>
      <trkpt lat="47.47386" lon="6.77557">
        <ele>324</ele>
        <time>2014-11-02T08:54:57.000Z</time>
      </trkpt>
      <trkpt lat="47.47383" lon="6.77557">
        <ele>323.7</ele>
        <time>2014-11-02T08:54:58.000Z</time>
      </trkpt>
      <trkpt lat="47.47379" lon="6.77556">
        <ele>323.7</ele>
        <time>2014-11-02T08:55:00.000Z</time>
      </trkpt>
      <trkpt lat="47.47378" lon="6.77555">
        <ele>323.5</ele>
        <time>2014-11-02T08:55:01.000Z</time>
      </trkpt>
      <trkpt lat="47.47375" lon="6.77553">
        <ele>324.4</ele>
        <time>2014-11-02T08:55:03.000Z</time>
      </trkpt>
      <trkpt lat="47.47362" lon="6.77553">
        <ele>323.5</ele>
        <time>2014-11-02T08:55:11.000Z</time>
      </trkpt>
      <trkpt lat="47.47359" lon="6.77554">
        <ele>320.1</ele>
        <time>2014-11-02T08:55:13.000Z</time>
      </trkpt>
      <trkpt lat="47.47356" lon="6.77554">
        <ele>319.8</ele>
        <time>2014-11-02T08:55:14.000Z</time>
      </trkpt>
      <trkpt lat="47.47352" lon="6.77554">
        <ele>321.4</ele>
        <time>2014-11-02T08:55:16.000Z</time>
      </trkpt>
      <trkpt lat="47.4735" lon="6.77555">
        <ele>321.9</ele>
        <time>2014-11-02T08:55:17.000Z</time>
      </trkpt>
      <trkpt lat="47.47347" lon="6.77555">
        <ele>320.5</ele>
        <time>2014-11-02T08:55:18.000Z</time>
      </trkpt>
      <trkpt lat="47.47345" lon="6.77555">
        <ele>320.9</ele>
        <time>2014-11-02T08:55:19.000Z</time>
      </trkpt>
      <trkpt lat="47.47343" lon="6.77555">
        <ele>322.6</ele>
        <time>2014-11-02T08:55:20.000Z</time>
      </trkpt>
      <trkpt lat="47.4734" lon="6.77556">
        <ele>324.2</ele>
        <time>2014-11-02T08:55:21.000Z</time>
      </trkpt>
      <trkpt lat="47.47337" lon="6.77555">
        <ele>326.1</ele>
        <time>2014-11-02T08:55:22.000Z</time>
      </trkpt>
      <trkpt lat="47.47334" lon="6.77555">
        <ele>326.9</ele>
        <time>2014-11-02T08:55:23.000Z</time>
      </trkpt>
      <trkpt lat="47.47331" lon="6.77555">
        <ele>327.2</ele>
        <time>2014-11-02T08:55:24.000Z</time>
      </trkpt>
      <trkpt lat="47.47328" lon="6.77556">
        <ele>327.7</ele>
        <time>2014-11-02T08:55:25.000Z</time>
      </trkpt>
      <trkpt lat="47.47326" lon="6.77556">
        <ele>328.9</ele>
        <time>2014-11-02T08:55:26.000Z</time>
      </trkpt>
      <trkpt lat="47.47324" lon="6.77557">
        <ele>330</ele>
        <time>2014-11-02T08:55:27.000Z</time>
      </trkpt>
      <trkpt lat="47.47321" lon="6.77557">
        <ele>330.5</ele>
        <time>2014-11-02T08:55:28.000Z</time>
      </trkpt>
      <trkpt lat="47.47319" lon="6.77558">
        <ele>330.4</ele>
        <time>2014-11-02T08:55:29.000Z</time>
      </trkpt>
      <trkpt lat="47.47316" lon="6.77558">
        <ele>331.2</ele>
        <time>2014-11-02T08:55:30.000Z</time>
      </trkpt>
      <trkpt lat="47.47313" lon="6.77559">
        <ele>331.4</ele>
        <time>2014-11-02T08:55:31.000Z</time>
      </trkpt>
      <trkpt lat="47.47311" lon="6.77559">
        <ele>331.3</ele>
        <time>2014-11-02T08:55:32.000Z</time>
      </trkpt>
      <trkpt lat="47.47308" lon="6.77559">
        <ele>331.9</ele>
        <time>2014-11-02T08:55:33.000Z</time>
      </trkpt>
      <trkpt lat="47.47306" lon="6.77559">
        <ele>333</ele>
        <time>2014-11-02T08:55:34.000Z</time>
      </trkpt>
      <trkpt lat="47.47304" lon="6.7756">
        <ele>333.5</ele>
        <time>2014-11-02T08:55:35.000Z</time>
      </trkpt>
      <trkpt lat="47.47301" lon="6.77561">
        <ele>332.7</ele>
        <time>2014-11-02T08:55:36.000Z</time>
      </trkpt>
      <trkpt lat="47.47298" lon="6.77561">
        <ele>333.3</ele>
        <time>2014-11-02T08:55:37.000Z</time>
      </trkpt>
      <trkpt lat="47.47296" lon="6.77562">
        <ele>333.7</ele>
        <time>2014-11-02T08:55:38.000Z</time>
      </trkpt>
      <trkpt lat="47.47294" lon="6.77562">
        <ele>334.7</ele>
        <time>2014-11-02T08:55:39.000Z</time>
      </trkpt>
      <trkpt lat="47.47291" lon="6.77562">
        <ele>334.8</ele>
        <time>2014-11-02T08:55:40.000Z</time>
      </trkpt>
      <trkpt lat="47.47289" lon="6.77561">
        <ele>335.1</ele>
        <time>2014-11-02T08:55:41.000Z</time>
      </trkpt>
      <trkpt lat="47.47286" lon="6.77561">
        <ele>335</ele>
        <time>2014-11-02T08:55:42.000Z</time>
      </trkpt>
      <trkpt lat="47.47284" lon="6.77561">
        <ele>335.9</ele>
        <time>2014-11-02T08:55:43.000Z</time>
      </trkpt>
      <trkpt lat="47.4728" lon="6.7756">
        <ele>337.6</ele>
        <time>2014-11-02T08:55:44.998Z</time>
      </trkpt>
      <trkpt lat="47.47278" lon="6.7756">
        <ele>337.4</ele>
        <time>2014-11-02T08:55:46.000Z</time>
      </trkpt>
      <trkpt lat="47.47274" lon="6.7756">
        <ele>337.5</ele>
        <time>2014-11-02T08:55:48.000Z</time>
      </trkpt>
      <trkpt lat="47.47272" lon="6.7756">
        <ele>337.5</ele>
        <time>2014-11-02T08:55:49.000Z</time>
      </trkpt>
      <trkpt lat="47.47269" lon="6.77559">
        <ele>337.7</ele>
        <time>2014-11-02T08:55:51.000Z</time>
      </trkpt>
      <trkpt lat="47.47267" lon="6.77558">
        <ele>338.1</ele>
        <time>2014-11-02T08:55:52.000Z</time>
      </trkpt>
      <trkpt lat="47.47263" lon="6.77557">
        <ele>338.2</ele>
        <time>2014-11-02T08:55:54.000Z</time>
      </trkpt>
      <trkpt lat="47.47261" lon="6.77556">
        <ele>338.1</ele>
        <time>2014-11-02T08:55:55.000Z</time>
      </trkpt>
      <trkpt lat="47.47258" lon="6.77556">
        <ele>338.5</ele>
        <time>2014-11-02T08:55:57.000Z</time>
      </trkpt>
      <trkpt lat="47.47256" lon="6.77557">
        <ele>338.6</ele>
        <time>2014-11-02T08:55:58.000Z</time>
      </trkpt>
      <trkpt lat="47.47252" lon="6.77557">
        <ele>337.9</ele>
        <time>2014-11-02T08:56:00.000Z</time>
      </trkpt>
      <trkpt lat="47.47249" lon="6.77558">
        <ele>336.1</ele>
        <time>2014-11-02T08:56:01.000Z</time>
      </trkpt>
      <trkpt lat="47.47247" lon="6.77559">
        <ele>336.4</ele>
        <time>2014-11-02T08:56:02.000Z</time>
      </trkpt>
      <trkpt lat="47.4724" lon="6.77561">
        <ele>336.8</ele>
        <time>2014-11-02T08:56:05.000Z</time>
      </trkpt>
      <trkpt lat="47.47236" lon="6.7756">
        <ele>336.8</ele>
        <time>2014-11-02T08:56:07.000Z</time>
      </trkpt>
      <trkpt lat="47.47234" lon="6.7756">
        <ele>337.9</ele>
        <time>2014-11-02T08:56:08.000Z</time>
      </trkpt>
      <trkpt lat="47.47229" lon="6.77561">
        <ele>338.2</ele>
        <time>2014-11-02T08:56:10.000Z</time>
      </trkpt>
      <trkpt lat="47.47228" lon="6.77561">
        <ele>337.7</ele>
        <time>2014-11-02T08:56:11.000Z</time>
      </trkpt>
      <trkpt lat="47.47224" lon="6.77562">
        <ele>339.6</ele>
        <time>2014-11-02T08:56:13.000Z</time>
      </trkpt>
      <trkpt lat="47.47222" lon="6.77563">
        <ele>339.8</ele>
        <time>2014-11-02T08:56:14.000Z</time>
      </trkpt>
      <trkpt lat="47.47219" lon="6.77563">
        <ele>340.4</ele>
        <time>2014-11-02T08:56:16.000Z</time>
      </trkpt>
      <trkpt lat="47.47218" lon="6.77564">
        <ele>340.7</ele>
        <time>2014-11-02T08:56:17.000Z</time>
      </trkpt>
      <trkpt lat="47.47213" lon="6.77563">
        <ele>341.8</ele>
        <time>2014-11-02T08:56:20.000Z</time>
      </trkpt>
      <trkpt lat="47.47212" lon="6.77563">
        <ele>342.3</ele>
        <time>2014-11-02T08:56:21.000Z</time>
      </trkpt>
      <trkpt lat="47.47208" lon="6.77561">
        <ele>343.8</ele>
        <time>2014-11-02T08:56:22.000Z</time>
      </trkpt>
      <trkpt lat="47.47205" lon="6.7756">
        <ele>345.2</ele>
        <time>2014-11-02T08:56:23.000Z</time>
      </trkpt>
      <trkpt lat="47.472" lon="6.77558">
        <ele>344.9</ele>
        <time>2014-11-02T08:56:24.000Z</time>
      </trkpt>
      <trkpt lat="47.47197" lon="6.77556">
        <ele>344.1</ele>
        <time>2014-11-02T08:56:26.000Z</time>
      </trkpt>
      <trkpt lat="47.47196" lon="6.77556">
        <ele>343.3</ele>
        <time>2014-11-02T08:56:27.000Z</time>
      </trkpt>
      <trkpt lat="47.47192" lon="6.77556">
        <ele>344</ele>
        <time>2014-11-02T08:56:30.000Z</time>
      </trkpt>
      <trkpt lat="47.47191" lon="6.77555">
        <ele>344.9</ele>
        <time>2014-11-02T08:56:31.000Z</time>
      </trkpt>
      <trkpt lat="47.47187" lon="6.77555">
        <ele>345.9</ele>
        <time>2014-11-02T08:56:33.000Z</time>
      </trkpt>
      <trkpt lat="47.47185" lon="6.77554">
        <ele>345.7</ele>
        <time>2014-11-02T08:56:34.000Z</time>
      </trkpt>
      <trkpt lat="47.47183" lon="6.77554">
        <ele>346</ele>
        <time>2014-11-02T08:56:35.000Z</time>
      </trkpt>
      <trkpt lat="47.4718" lon="6.77555">
        <ele>345.5</ele>
        <time>2014-11-02T08:56:36.000Z</time>
      </trkpt>
      <trkpt lat="47.47178" lon="6.77555">
        <ele>346.4</ele>
        <time>2014-11-02T08:56:37.000Z</time>
      </trkpt>
      <trkpt lat="47.47176" lon="6.77555">
        <ele>346.4</ele>
        <time>2014-11-02T08:56:38.000Z</time>
      </trkpt>
      <trkpt lat="47.47173" lon="6.77556">
        <ele>346</ele>
        <time>2014-11-02T08:56:39.000Z</time>
      </trkpt>
      <trkpt lat="47.4717" lon="6.77557">
        <ele>345.6</ele>
        <time>2014-11-02T08:56:40.000Z</time>
      </trkpt>
      <trkpt lat="47.47167" lon="6.77559">
        <ele>345.3</ele>
        <time>2014-11-02T08:56:41.000Z</time>
      </trkpt>
      <trkpt lat="47.47165" lon="6.77561">
        <ele>344.7</ele>
        <time>2014-11-02T08:56:42.000Z</time>
      </trkpt>
      <trkpt lat="47.47162" lon="6.77564">
        <ele>344.7</ele>
        <time>2014-11-02T08:56:43.000Z</time>
      </trkpt>
      <trkpt lat="47.4716" lon="6.77568">
        <ele>344.5</ele>
        <time>2014-11-02T08:56:44.000Z</time>
      </trkpt>
      <trkpt lat="47.47158" lon="6.77571">
        <ele>343.5</ele>
        <time>2014-11-02T08:56:45.000Z</time>
      </trkpt>
      <trkpt lat="47.47157" lon="6.77575">
        <ele>343</ele>
        <time>2014-11-02T08:56:46.000Z</time>
      </trkpt>
      <trkpt lat="47.47156" lon="6.77579">
        <ele>343</ele>
        <time>2014-11-02T08:56:47.000Z</time>
      </trkpt>
      <trkpt lat="47.47154" lon="6.77583">
        <ele>343</ele>
        <time>2014-11-02T08:56:48.000Z</time>
      </trkpt>
      <trkpt lat="47.47153" lon="6.77586">
        <ele>342.6</ele>
        <time>2014-11-02T08:56:49.000Z</time>
      </trkpt>
      <trkpt lat="47.47152" lon="6.77589">
        <ele>342.2</ele>
        <time>2014-11-02T08:56:50.000Z</time>
      </trkpt>
      <trkpt lat="47.4715" lon="6.77592">
        <ele>341.9</ele>
        <time>2014-11-02T08:56:51.000Z</time>
      </trkpt>
      <trkpt lat="47.47148" lon="6.77595">
        <ele>341.9</ele>
        <time>2014-11-02T08:56:52.000Z</time>
      </trkpt>
      <trkpt lat="47.47147" lon="6.77598">
        <ele>341.8</ele>
        <time>2014-11-02T08:56:53.000Z</time>
      </trkpt>
      <trkpt lat="47.47145" lon="6.77601">
        <ele>341.5</ele>
        <time>2014-11-02T08:56:54.000Z</time>
      </trkpt>
      <trkpt lat="47.47144" lon="6.77604">
        <ele>343.1</ele>
        <time>2014-11-02T08:56:55.000Z</time>
      </trkpt>
      <trkpt lat="47.47142" lon="6.77607">
        <ele>343.9</ele>
        <time>2014-11-02T08:56:56.000Z</time>
      </trkpt>
      <trkpt lat="47.47141" lon="6.7761">
        <ele>344.1</ele>
        <time>2014-11-02T08:56:57.000Z</time>
      </trkpt>
      <trkpt lat="47.4714" lon="6.77614">
        <ele>342.7</ele>
        <time>2014-11-02T08:56:58.000Z</time>
      </trkpt>
      <trkpt lat="47.4714" lon="6.77619">
        <ele>343.5</ele>
        <time>2014-11-02T08:56:59.000Z</time>
      </trkpt>
      <trkpt lat="47.47139" lon="6.77623">
        <ele>344</ele>
        <time>2014-11-02T08:57:00.000Z</time>
      </trkpt>
      <trkpt lat="47.4714" lon="6.77627">
        <ele>343</ele>
        <time>2014-11-02T08:57:01.000Z</time>
      </trkpt>
      <trkpt lat="47.4714" lon="6.7763">
        <ele>342.8</ele>
        <time>2014-11-02T08:57:02.000Z</time>
      </trkpt>
      <trkpt lat="47.47143" lon="6.77639">
        <ele>342.3</ele>
        <time>2014-11-02T08:57:05.000Z</time>
      </trkpt>
      <trkpt lat="47.47143" lon="6.77642">
        <ele>342.2</ele>
        <time>2014-11-02T08:57:06.000Z</time>
      </trkpt>
      <trkpt lat="47.47143" lon="6.77646">
        <ele>342.1</ele>
        <time>2014-11-02T08:57:07.000Z</time>
      </trkpt>
      <trkpt lat="47.47143" lon="6.7765">
        <ele>342.1</ele>
        <time>2014-11-02T08:57:08.000Z</time>
      </trkpt>
      <trkpt lat="47.47142" lon="6.77655">
        <ele>342.1</ele>
        <time>2014-11-02T08:57:09.000Z</time>
      </trkpt>
      <trkpt lat="47.47141" lon="6.7766">
        <ele>342.1</ele>
        <time>2014-11-02T08:57:10.000Z</time>
      </trkpt>
      <trkpt lat="47.47139" lon="6.77665">
        <ele>341.9</ele>
        <time>2014-11-02T08:57:11.000Z</time>
      </trkpt>
      <trkpt lat="47.47137" lon="6.7767">
        <ele>342.3</ele>
        <time>2014-11-02T08:57:12.000Z</time>
      </trkpt>
      <trkpt lat="47.47133" lon="6.77674">
        <ele>342.1</ele>
        <time>2014-11-02T08:57:13.000Z</time>
      </trkpt>
      <trkpt lat="47.4713" lon="6.77677">
        <ele>342.1</ele>
        <time>2014-11-02T08:57:14.000Z</time>
      </trkpt>
      <trkpt lat="47.47128" lon="6.77678">
        <ele>342.7</ele>
        <time>2014-11-02T08:57:15.000Z</time>
      </trkpt>
      <trkpt lat="47.47124" lon="6.77676">
        <ele>341.6</ele>
        <time>2014-11-02T08:57:17.000Z</time>
      </trkpt>
      <trkpt lat="47.47122" lon="6.77675">
        <ele>341</ele>
        <time>2014-11-02T08:57:18.000Z</time>
      </trkpt>
      <trkpt lat="47.47119" lon="6.77674">
        <ele>341.1</ele>
        <time>2014-11-02T08:57:20.000Z</time>
      </trkpt>
      <trkpt lat="47.47118" lon="6.77674">
        <ele>341</ele>
        <time>2014-11-02T08:57:21.000Z</time>
      </trkpt>
      <trkpt lat="47.47113" lon="6.77673">
        <ele>341.5</ele>
        <time>2014-11-02T08:57:28.000Z</time>
      </trkpt>
      <trkpt lat="47.47113" lon="6.77672">
        <ele>341.3</ele>
        <time>2014-11-02T08:57:29.000Z</time>
      </trkpt>
      <trkpt lat="47.4711" lon="6.77669">
        <ele>341.5</ele>
        <time>2014-11-02T08:57:31.000Z</time>
      </trkpt>
      <trkpt lat="47.47107" lon="6.77667">
        <ele>341</ele>
        <time>2014-11-02T08:57:32.000Z</time>
      </trkpt>
      <trkpt lat="47.47105" lon="6.77664">
        <ele>342.2</ele>
        <time>2014-11-02T08:57:33.000Z</time>
      </trkpt>
      <trkpt lat="47.47102" lon="6.7766">
        <ele>342.5</ele>
        <time>2014-11-02T08:57:34.000Z</time>
      </trkpt>
      <trkpt lat="47.47098" lon="6.77656">
        <ele>341.8</ele>
        <time>2014-11-02T08:57:35.000Z</time>
      </trkpt>
      <trkpt lat="47.47095" lon="6.77652">
        <ele>341.6</ele>
        <time>2014-11-02T08:57:36.000Z</time>
      </trkpt>
      <trkpt lat="47.47092" lon="6.77648">
        <ele>341.7</ele>
        <time>2014-11-02T08:57:37.000Z</time>
      </trkpt>
      <trkpt lat="47.47089" lon="6.77644">
        <ele>341.2</ele>
        <time>2014-11-02T08:57:38.000Z</time>
      </trkpt>
      <trkpt lat="47.47086" lon="6.7764">
        <ele>341.2</ele>
        <time>2014-11-02T08:57:39.000Z</time>
      </trkpt>
      <trkpt lat="47.47083" lon="6.77636">
        <ele>340.9</ele>
        <time>2014-11-02T08:57:40.000Z</time>
      </trkpt>
      <trkpt lat="47.4708" lon="6.77633">
        <ele>340.5</ele>
        <time>2014-11-02T08:57:41.000Z</time>
      </trkpt>
      <trkpt lat="47.47077" lon="6.77628">
        <ele>340</ele>
        <time>2014-11-02T08:57:42.000Z</time>
      </trkpt>
      <trkpt lat="47.47074" lon="6.77624">
        <ele>338.5</ele>
        <time>2014-11-02T08:57:43.000Z</time>
      </trkpt>
      <trkpt lat="47.47071" lon="6.7762">
        <ele>338.3</ele>
        <time>2014-11-02T08:57:44.000Z</time>
      </trkpt>
      <trkpt lat="47.47068" lon="6.77616">
        <ele>338.2</ele>
        <time>2014-11-02T08:57:45.000Z</time>
      </trkpt>
      <trkpt lat="47.47065" lon="6.77611">
        <ele>338.6</ele>
        <time>2014-11-02T08:57:46.000Z</time>
      </trkpt>
      <trkpt lat="47.47061" lon="6.77607">
        <ele>338.4</ele>
        <time>2014-11-02T08:57:47.000Z</time>
      </trkpt>
      <trkpt lat="47.47059" lon="6.77603">
        <ele>338</ele>
        <time>2014-11-02T08:57:48.000Z</time>
      </trkpt>
      <trkpt lat="47.47056" lon="6.77599">
        <ele>338.5</ele>
        <time>2014-11-02T08:57:49.000Z</time>
      </trkpt>
      <trkpt lat="47.47053" lon="6.77595">
        <ele>338.9</ele>
        <time>2014-11-02T08:57:50.000Z</time>
      </trkpt>
      <trkpt lat="47.4705" lon="6.77591">
        <ele>339.2</ele>
        <time>2014-11-02T08:57:51.000Z</time>
      </trkpt>
      <trkpt lat="47.47048" lon="6.77587">
        <ele>339.8</ele>
        <time>2014-11-02T08:57:52.000Z</time>
      </trkpt>
      <trkpt lat="47.47045" lon="6.77584">
        <ele>340.6</ele>
        <time>2014-11-02T08:57:53.000Z</time>
      </trkpt>
      <trkpt lat="47.47043" lon="6.7758">
        <ele>340.6</ele>
        <time>2014-11-02T08:57:54.000Z</time>
      </trkpt>
      <trkpt lat="47.4704" lon="6.77577">
        <ele>340.1</ele>
        <time>2014-11-02T08:57:55.000Z</time>
      </trkpt>
      <trkpt lat="47.47038" lon="6.77573">
        <ele>338.7</ele>
        <time>2014-11-02T08:57:56.000Z</time>
      </trkpt>
      <trkpt lat="47.47036" lon="6.77569">
        <ele>338.7</ele>
        <time>2014-11-02T08:57:57.000Z</time>
      </trkpt>
      <trkpt lat="47.47033" lon="6.77565">
        <ele>338.8</ele>
        <time>2014-11-02T08:57:58.000Z</time>
      </trkpt>
      <trkpt lat="47.47031" lon="6.77562">
        <ele>339.6</ele>
        <time>2014-11-02T08:57:59.000Z</time>
      </trkpt>
      <trkpt lat="47.47028" lon="6.77558">
        <ele>340.7</ele>
        <time>2014-11-02T08:58:00.000Z</time>
      </trkpt>
      <trkpt lat="47.47026" lon="6.77555">
        <ele>340.9</ele>
        <time>2014-11-02T08:58:01.000Z</time>
      </trkpt>
      <trkpt lat="47.47024" lon="6.77552">
        <ele>341</ele>
        <time>2014-11-02T08:58:02.000Z</time>
      </trkpt>
      <trkpt lat="47.47018" lon="6.77542">
        <ele>341.1</ele>
        <time>2014-11-02T08:58:05.000Z</time>
      </trkpt>
      <trkpt lat="47.47016" lon="6.77539">
        <ele>341.8</ele>
        <time>2014-11-02T08:58:06.000Z</time>
      </trkpt>
      <trkpt lat="47.47014" lon="6.77537">
        <ele>343.7</ele>
        <time>2014-11-02T08:58:07.000Z</time>
      </trkpt>
      <trkpt lat="47.47011" lon="6.77534">
        <ele>344.1</ele>
        <time>2014-11-02T08:58:08.000Z</time>
      </trkpt>
      <trkpt lat="47.47009" lon="6.77531">
        <ele>345.5</ele>
        <time>2014-11-02T08:58:09.000Z</time>
      </trkpt>
      <trkpt lat="47.47007" lon="6.77528">
        <ele>344.7</ele>
        <time>2014-11-02T08:58:10.000Z</time>
      </trkpt>
      <trkpt lat="47.47004" lon="6.77525">
        <ele>345</ele>
        <time>2014-11-02T08:58:11.000Z</time>
      </trkpt>
      <trkpt lat="47.47002" lon="6.77521">
        <ele>344.7</ele>
        <time>2014-11-02T08:58:12.000Z</time>
      </trkpt>
      <trkpt lat="47.47" lon="6.77518">
        <ele>344.2</ele>
        <time>2014-11-02T08:58:13.001Z</time>
      </trkpt>
      <trkpt lat="47.46998" lon="6.77515">
        <ele>344.6</ele>
        <time>2014-11-02T08:58:14.000Z</time>
      </trkpt>
      <trkpt lat="47.46997" lon="6.77512">
        <ele>344.5</ele>
        <time>2014-11-02T08:58:15.000Z</time>
      </trkpt>
      <trkpt lat="47.46995" lon="6.77509">
        <ele>345.7</ele>
        <time>2014-11-02T08:58:16.000Z</time>
      </trkpt>
      <trkpt lat="47.46993" lon="6.77506">
        <ele>345.6</ele>
        <time>2014-11-02T08:58:17.000Z</time>
      </trkpt>
      <trkpt lat="47.46991" lon="6.77503">
        <ele>346.3</ele>
        <time>2014-11-02T08:58:18.000Z</time>
      </trkpt>
      <trkpt lat="47.46989" lon="6.77499">
        <ele>346.1</ele>
        <time>2014-11-02T08:58:19.000Z</time>
      </trkpt>
      <trkpt lat="47.46986" lon="6.77496">
        <ele>347.7</ele>
        <time>2014-11-02T08:58:20.000Z</time>
      </trkpt>
      <trkpt lat="47.46984" lon="6.77493">
        <ele>348.5</ele>
        <time>2014-11-02T08:58:21.000Z</time>
      </trkpt>
      <trkpt lat="47.46982" lon="6.7749">
        <ele>347.5</ele>
        <time>2014-11-02T08:58:22.000Z</time>
      </trkpt>
      <trkpt lat="47.4698" lon="6.77487">
        <ele>346.9</ele>
        <time>2014-11-02T08:58:23.000Z</time>
      </trkpt>
      <trkpt lat="47.46978" lon="6.77484">
        <ele>347.4</ele>
        <time>2014-11-02T08:58:24.000Z</time>
      </trkpt>
      <trkpt lat="47.46976" lon="6.77481">
        <ele>348.2</ele>
        <time>2014-11-02T08:58:25.000Z</time>
      </trkpt>
      <trkpt lat="47.46974" lon="6.77477">
        <ele>347.8</ele>
        <time>2014-11-02T08:58:26.000Z</time>
      </trkpt>
      <trkpt lat="47.46973" lon="6.77474">
        <ele>348.3</ele>
        <time>2014-11-02T08:58:27.000Z</time>
      </trkpt>
      <trkpt lat="47.46971" lon="6.7747">
        <ele>348.5</ele>
        <time>2014-11-02T08:58:28.000Z</time>
      </trkpt>
      <trkpt lat="47.46969" lon="6.77466">
        <ele>349</ele>
        <time>2014-11-02T08:58:29.000Z</time>
      </trkpt>
      <trkpt lat="47.46967" lon="6.77463">
        <ele>349.3</ele>
        <time>2014-11-02T08:58:30.000Z</time>
      </trkpt>
      <trkpt lat="47.46965" lon="6.7746">
        <ele>349.6</ele>
        <time>2014-11-02T08:58:31.000Z</time>
      </trkpt>
      <trkpt lat="47.46963" lon="6.77457">
        <ele>349.6</ele>
        <time>2014-11-02T08:58:32.000Z</time>
      </trkpt>
      <trkpt lat="47.46961" lon="6.77454">
        <ele>349.5</ele>
        <time>2014-11-02T08:58:33.000Z</time>
      </trkpt>
      <trkpt lat="47.46959" lon="6.77452">
        <ele>350.3</ele>
        <time>2014-11-02T08:58:34.000Z</time>
      </trkpt>
      <trkpt lat="47.46957" lon="6.77449">
        <ele>350.4</ele>
        <time>2014-11-02T08:58:35.000Z</time>
      </trkpt>
      <trkpt lat="47.46955" lon="6.77446">
        <ele>350.4</ele>
        <time>2014-11-02T08:58:36.000Z</time>
      </trkpt>
      <trkpt lat="47.46953" lon="6.77443">
        <ele>349.9</ele>
        <time>2014-11-02T08:58:37.000Z</time>
      </trkpt>
      <trkpt lat="47.46951" lon="6.7744">
        <ele>350.7</ele>
        <time>2014-11-02T08:58:38.000Z</time>
      </trkpt>
      <trkpt lat="47.46949" lon="6.77437">
        <ele>350.9</ele>
        <time>2014-11-02T08:58:39.000Z</time>
      </trkpt>
      <trkpt lat="47.46947" lon="6.77434">
        <ele>350.9</ele>
        <time>2014-11-02T08:58:40.000Z</time>
      </trkpt>
      <trkpt lat="47.46946" lon="6.77431">
        <ele>351.1</ele>
        <time>2014-11-02T08:58:41.000Z</time>
      </trkpt>
      <trkpt lat="47.46944" lon="6.77428">
        <ele>350.9</ele>
        <time>2014-11-02T08:58:42.000Z</time>
      </trkpt>
      <trkpt lat="47.46942" lon="6.77425">
        <ele>351</ele>
        <time>2014-11-02T08:58:43.000Z</time>
      </trkpt>
      <trkpt lat="47.46939" lon="6.7742">
        <ele>351</ele>
        <time>2014-11-02T08:58:45.000Z</time>
      </trkpt>
      <trkpt lat="47.46937" lon="6.77419">
        <ele>351.6</ele>
        <time>2014-11-02T08:58:46.000Z</time>
      </trkpt>
      <trkpt lat="47.46935" lon="6.77419">
        <ele>351</ele>
        <time>2014-11-02T08:58:47.000Z</time>
      </trkpt>
      <trkpt lat="47.46933" lon="6.77419">
        <ele>350.9</ele>
        <time>2014-11-02T08:58:48.000Z</time>
      </trkpt>
      <trkpt lat="47.4693" lon="6.77421">
        <ele>350.9</ele>
        <time>2014-11-02T08:58:49.000Z</time>
      </trkpt>
      <trkpt lat="47.46928" lon="6.77422">
        <ele>350.9</ele>
        <time>2014-11-02T08:58:50.000Z</time>
      </trkpt>
      <trkpt lat="47.46926" lon="6.77424">
        <ele>351.7</ele>
        <time>2014-11-02T08:58:51.000Z</time>
      </trkpt>
      <trkpt lat="47.46923" lon="6.77427">
        <ele>352</ele>
        <time>2014-11-02T08:58:52.000Z</time>
      </trkpt>
      <trkpt lat="47.46921" lon="6.77429">
        <ele>351.8</ele>
        <time>2014-11-02T08:58:53.000Z</time>
      </trkpt>
      <trkpt lat="47.46919" lon="6.7743">
        <ele>351.7</ele>
        <time>2014-11-02T08:58:54.000Z</time>
      </trkpt>
      <trkpt lat="47.46917" lon="6.77432">
        <ele>351.4</ele>
        <time>2014-11-02T08:58:55.000Z</time>
      </trkpt>
      <trkpt lat="47.46915" lon="6.77434">
        <ele>351.2</ele>
        <time>2014-11-02T08:58:56.000Z</time>
      </trkpt>
      <trkpt lat="47.46913" lon="6.77436">
        <ele>352</ele>
        <time>2014-11-02T08:58:57.000Z</time>
      </trkpt>
      <trkpt lat="47.46911" lon="6.77438">
        <ele>352.3</ele>
        <time>2014-11-02T08:58:58.000Z</time>
      </trkpt>
      <trkpt lat="47.46908" lon="6.7744">
        <ele>352</ele>
        <time>2014-11-02T08:58:59.000Z</time>
      </trkpt>
      <trkpt lat="47.46906" lon="6.77442">
        <ele>351.8</ele>
        <time>2014-11-02T08:59:00.000Z</time>
      </trkpt>
      <trkpt lat="47.46904" lon="6.77443">
        <ele>351.9</ele>
        <time>2014-11-02T08:59:01.000Z</time>
      </trkpt>
      <trkpt lat="47.46902" lon="6.77445">
        <ele>351.6</ele>
        <time>2014-11-02T08:59:02.000Z</time>
      </trkpt>
      <trkpt lat="47.46895" lon="6.77447">
        <ele>352.7</ele>
        <time>2014-11-02T08:59:05.000Z</time>
      </trkpt>
      <trkpt lat="47.46891" lon="6.77447">
        <ele>352.8</ele>
        <time>2014-11-02T08:59:07.000Z</time>
      </trkpt>
      <trkpt lat="47.46889" lon="6.77447">
        <ele>353.2</ele>
        <time>2014-11-02T08:59:08.000Z</time>
      </trkpt>
      <trkpt lat="47.46884" lon="6.77445">
        <ele>354</ele>
        <time>2014-11-02T08:59:10.000Z</time>
      </trkpt>
      <trkpt lat="47.46882" lon="6.77445">
        <ele>353.2</ele>
        <time>2014-11-02T08:59:11.000Z</time>
      </trkpt>
      <trkpt lat="47.46878" lon="6.77443">
        <ele>354.2</ele>
        <time>2014-11-02T08:59:13.000Z</time>
      </trkpt>
      <trkpt lat="47.46876" lon="6.77442">
        <ele>354.5</ele>
        <time>2014-11-02T08:59:14.000Z</time>
      </trkpt>
      <trkpt lat="47.46874" lon="6.77441">
        <ele>354.6</ele>
        <time>2014-11-02T08:59:15.000Z</time>
      </trkpt>
      <trkpt lat="47.46871" lon="6.7744">
        <ele>355.3</ele>
        <time>2014-11-02T08:59:16.000Z</time>
      </trkpt>
      <trkpt lat="47.46869" lon="6.7744">
        <ele>356.2</ele>
        <time>2014-11-02T08:59:17.000Z</time>
      </trkpt>
      <trkpt lat="47.46867" lon="6.77439">
        <ele>356.7</ele>
        <time>2014-11-02T08:59:18.000Z</time>
      </trkpt>
      <trkpt lat="47.46864" lon="6.77438">
        <ele>356.9</ele>
        <time>2014-11-02T08:59:19.000Z</time>
      </trkpt>
      <trkpt lat="47.46862" lon="6.77437">
        <ele>358.5</ele>
        <time>2014-11-02T08:59:20.000Z</time>
      </trkpt>
      <trkpt lat="47.46859" lon="6.77436">
        <ele>358.7</ele>
        <time>2014-11-02T08:59:21.000Z</time>
      </trkpt>
      <trkpt lat="47.46857" lon="6.77435">
        <ele>359.3</ele>
        <time>2014-11-02T08:59:22.000Z</time>
      </trkpt>
      <trkpt lat="47.46855" lon="6.77434">
        <ele>359.1</ele>
        <time>2014-11-02T08:59:23.000Z</time>
      </trkpt>
      <trkpt lat="47.46852" lon="6.77433">
        <ele>360.9</ele>
        <time>2014-11-02T08:59:24.000Z</time>
      </trkpt>
      <trkpt lat="47.4685" lon="6.77432">
        <ele>362</ele>
        <time>2014-11-02T08:59:25.000Z</time>
      </trkpt>
      <trkpt lat="47.46847" lon="6.77432">
        <ele>361.6</ele>
        <time>2014-11-02T08:59:26.000Z</time>
      </trkpt>
      <trkpt lat="47.46844" lon="6.77432">
        <ele>362.1</ele>
        <time>2014-11-02T08:59:27.000Z</time>
      </trkpt>
      <trkpt lat="47.46842" lon="6.77434">
        <ele>361.9</ele>
        <time>2014-11-02T08:59:28.000Z</time>
      </trkpt>
      <trkpt lat="47.4684" lon="6.77436">
        <ele>362</ele>
        <time>2014-11-02T08:59:29.000Z</time>
      </trkpt>
      <trkpt lat="47.46838" lon="6.77439">
        <ele>362.4</ele>
        <time>2014-11-02T08:59:30.000Z</time>
      </trkpt>
      <trkpt lat="47.46837" lon="6.77442">
        <ele>362.3</ele>
        <time>2014-11-02T08:59:31.000Z</time>
      </trkpt>
      <trkpt lat="47.46835" lon="6.77446">
        <ele>361.6</ele>
        <time>2014-11-02T08:59:32.000Z</time>
      </trkpt>
      <trkpt lat="47.46834" lon="6.77449">
        <ele>361.8</ele>
        <time>2014-11-02T08:59:33.000Z</time>
      </trkpt>
      <trkpt lat="47.46833" lon="6.77453">
        <ele>362.4</ele>
        <time>2014-11-02T08:59:34.000Z</time>
      </trkpt>
      <trkpt lat="47.46833" lon="6.77457">
        <ele>362.3</ele>
        <time>2014-11-02T08:59:35.000Z</time>
      </trkpt>
      <trkpt lat="47.46833" lon="6.7746">
        <ele>362.2</ele>
        <time>2014-11-02T08:59:36.000Z</time>
      </trkpt>
      <trkpt lat="47.46833" lon="6.77464">
        <ele>362.3</ele>
        <time>2014-11-02T08:59:37.000Z</time>
      </trkpt>
      <trkpt lat="47.46834" lon="6.77467">
        <ele>361.9</ele>
        <time>2014-11-02T08:59:38.000Z</time>
      </trkpt>
      <trkpt lat="47.46834" lon="6.77473">
        <ele>362.8</ele>
        <time>2014-11-02T08:59:40.000Z</time>
      </trkpt>
      <trkpt lat="47.46834" lon="6.77475">
        <ele>362.8</ele>
        <time>2014-11-02T08:59:41.000Z</time>
      </trkpt>
      <trkpt lat="47.46834" lon="6.7748">
        <ele>363.8</ele>
        <time>2014-11-02T08:59:43.000Z</time>
      </trkpt>
      <trkpt lat="47.46834" lon="6.77482">
        <ele>364.2</ele>
        <time>2014-11-02T08:59:44.000Z</time>
      </trkpt>
      <trkpt lat="47.46833" lon="6.77487">
        <ele>363.2</ele>
        <time>2014-11-02T08:59:46.000Z</time>
      </trkpt>
      <trkpt lat="47.46833" lon="6.7749">
        <ele>366.7</ele>
        <time>2014-11-02T08:59:47.000Z</time>
      </trkpt>
      <trkpt lat="47.46831" lon="6.77494">
        <ele>367.4</ele>
        <time>2014-11-02T08:59:51.000Z</time>
      </trkpt>
      <trkpt lat="47.4683" lon="6.77496">
        <ele>368.5</ele>
        <time>2014-11-02T08:59:52.000Z</time>
      </trkpt>
      <trkpt lat="47.46828" lon="6.77499">
        <ele>367.7</ele>
        <time>2014-11-02T08:59:54.000Z</time>
      </trkpt>
      <trkpt lat="47.46827" lon="6.77501">
        <ele>365.4</ele>
        <time>2014-11-02T08:59:55.000Z</time>
      </trkpt>
      <trkpt lat="47.46825" lon="6.77506">
        <ele>363.5</ele>
        <time>2014-11-02T08:59:57.000Z</time>
      </trkpt>
      <trkpt lat="47.46824" lon="6.77508">
        <ele>365.5</ele>
        <time>2014-11-02T08:59:58.000Z</time>
      </trkpt>
      <trkpt lat="47.46823" lon="6.77512">
        <ele>369.1</ele>
        <time>2014-11-02T09:00:00.000Z</time>
      </trkpt>
      <trkpt lat="47.46822" lon="6.77514">
        <ele>369.7</ele>
        <time>2014-11-02T09:00:01.000Z</time>
      </trkpt>
      <trkpt lat="47.46822" lon="6.77516">
        <ele>370.2</ele>
        <time>2014-11-02T09:00:02.000Z</time>
      </trkpt>
      <trkpt lat="47.46819" lon="6.77521">
        <ele>372</ele>
        <time>2014-11-02T09:00:05.000Z</time>
      </trkpt>
      <trkpt lat="47.46818" lon="6.77525">
        <ele>372.4</ele>
        <time>2014-11-02T09:00:07.000Z</time>
      </trkpt>
      <trkpt lat="47.46817" lon="6.77527">
        <ele>372.3</ele>
        <time>2014-11-02T09:00:08.000Z</time>
      </trkpt>
      <trkpt lat="47.46816" lon="6.77532">
        <ele>371.8</ele>
        <time>2014-11-02T09:00:10.000Z</time>
      </trkpt>
      <trkpt lat="47.46815" lon="6.77534">
        <ele>372.1</ele>
        <time>2014-11-02T09:00:11.000Z</time>
      </trkpt>
      <trkpt lat="47.46813" lon="6.77539">
        <ele>373.4</ele>
        <time>2014-11-02T09:00:13.000Z</time>
      </trkpt>
      <trkpt lat="47.46812" lon="6.77542">
        <ele>374.5</ele>
        <time>2014-11-02T09:00:14.000Z</time>
      </trkpt>
      <trkpt lat="47.46811" lon="6.77548">
        <ele>375.8</ele>
        <time>2014-11-02T09:00:17.000Z</time>
      </trkpt>
      <trkpt lat="47.46811" lon="6.7755">
        <ele>375.6</ele>
        <time>2014-11-02T09:00:18.000Z</time>
      </trkpt>
      <trkpt lat="47.4681" lon="6.77555">
        <ele>374.7</ele>
        <time>2014-11-02T09:00:21.000Z</time>
      </trkpt>
      <trkpt lat="47.46809" lon="6.77558">
        <ele>375</ele>
        <time>2014-11-02T09:00:22.000Z</time>
      </trkpt>
      <trkpt lat="47.46808" lon="6.77563">
        <ele>375.6</ele>
        <time>2014-11-02T09:00:24.000Z</time>
      </trkpt>
      <trkpt lat="47.46807" lon="6.77565">
        <ele>375.3</ele>
        <time>2014-11-02T09:00:25.000Z</time>
      </trkpt>
      <trkpt lat="47.46805" lon="6.77571">
        <ele>375.3</ele>
        <time>2014-11-02T09:00:27.000Z</time>
      </trkpt>
      <trkpt lat="47.46804" lon="6.77574">
        <ele>375.1</ele>
        <time>2014-11-02T09:00:28.000Z</time>
      </trkpt>
      <trkpt lat="47.46802" lon="6.77578">
        <ele>374.7</ele>
        <time>2014-11-02T09:00:30.000Z</time>
      </trkpt>
      <trkpt lat="47.46801" lon="6.7758">
        <ele>374.6</ele>
        <time>2014-11-02T09:00:31.000Z</time>
      </trkpt>
      <trkpt lat="47.46799" lon="6.77584">
        <ele>378.4</ele>
        <time>2014-11-02T09:00:33.000Z</time>
      </trkpt>
      <trkpt lat="47.46799" lon="6.77586">
        <ele>378.5</ele>
        <time>2014-11-02T09:00:34.000Z</time>
      </trkpt>
      <trkpt lat="47.46797" lon="6.7759">
        <ele>378.2</ele>
        <time>2014-11-02T09:00:36.000Z</time>
      </trkpt>
      <trkpt lat="47.46796" lon="6.77593">
        <ele>378.3</ele>
        <time>2014-11-02T09:00:37.000Z</time>
      </trkpt>
      <trkpt lat="47.46794" lon="6.77598">
        <ele>378</ele>
        <time>2014-11-02T09:00:39.000Z</time>
      </trkpt>
      <trkpt lat="47.46793" lon="6.776">
        <ele>378</ele>
        <time>2014-11-02T09:00:40.000Z</time>
      </trkpt>
      <trkpt lat="47.46792" lon="6.77603">
        <ele>377.9</ele>
        <time>2014-11-02T09:00:41.000Z</time>
      </trkpt>
      <trkpt lat="47.46791" lon="6.77607">
        <ele>377.4</ele>
        <time>2014-11-02T09:00:42.000Z</time>
      </trkpt>
      <trkpt lat="47.4679" lon="6.7761">
        <ele>377.2</ele>
        <time>2014-11-02T09:00:43.000Z</time>
      </trkpt>
      <trkpt lat="47.46789" lon="6.77614">
        <ele>377.4</ele>
        <time>2014-11-02T09:00:44.000Z</time>
      </trkpt>
      <trkpt lat="47.46788" lon="6.77618">
        <ele>377.6</ele>
        <time>2014-11-02T09:00:45.000Z</time>
      </trkpt>
      <trkpt lat="47.46787" lon="6.77622">
        <ele>377.6</ele>
        <time>2014-11-02T09:00:46.000Z</time>
      </trkpt>
      <trkpt lat="47.46787" lon="6.77628">
        <ele>376.6</ele>
        <time>2014-11-02T09:00:47.999Z</time>
      </trkpt>
      <trkpt lat="47.46786" lon="6.77634">
        <ele>375.5</ele>
        <time>2014-11-02T09:00:49.000Z</time>
      </trkpt>
      <trkpt lat="47.46786" lon="6.77637">
        <ele>375.3</ele>
        <time>2014-11-02T09:00:50.000Z</time>
      </trkpt>
      <trkpt lat="47.46786" lon="6.77641">
        <ele>374.1</ele>
        <time>2014-11-02T09:00:51.000Z</time>
      </trkpt>
      <trkpt lat="47.46785" lon="6.77645">
        <ele>374</ele>
        <time>2014-11-02T09:00:52.000Z</time>
      </trkpt>
      <trkpt lat="47.46785" lon="6.77648">
        <ele>374.1</ele>
        <time>2014-11-02T09:00:53.000Z</time>
      </trkpt>
      <trkpt lat="47.46783" lon="6.77654">
        <ele>373.7</ele>
        <time>2014-11-02T09:00:55.000Z</time>
      </trkpt>
      <trkpt lat="47.46783" lon="6.77657">
        <ele>373.7</ele>
        <time>2014-11-02T09:00:56.000Z</time>
      </trkpt>
      <trkpt lat="47.46783" lon="6.7766">
        <ele>373.3</ele>
        <time>2014-11-02T09:00:57.000Z</time>
      </trkpt>
      <trkpt lat="47.46782" lon="6.77664">
        <ele>374.6</ele>
        <time>2014-11-02T09:00:58.000Z</time>
      </trkpt>
      <trkpt lat="47.46782" lon="6.77668">
        <ele>374.4</ele>
        <time>2014-11-02T09:00:59.000Z</time>
      </trkpt>
      <trkpt lat="47.46781" lon="6.77673">
        <ele>375.6</ele>
        <time>2014-11-02T09:01:00.000Z</time>
      </trkpt>
      <trkpt lat="47.4678" lon="6.77677">
        <ele>376</ele>
        <time>2014-11-02T09:01:01.000Z</time>
      </trkpt>
      <trkpt lat="47.46779" lon="6.77682">
        <ele>376.4</ele>
        <time>2014-11-02T09:01:02.000Z</time>
      </trkpt>
      <trkpt lat="47.46777" lon="6.77691">
        <ele>376.6</ele>
        <time>2014-11-02T09:01:05.000Z</time>
      </trkpt>
      <trkpt lat="47.46776" lon="6.77694">
        <ele>375.5</ele>
        <time>2014-11-02T09:01:06.000Z</time>
      </trkpt>
      <trkpt lat="47.46775" lon="6.77697">
        <ele>375.4</ele>
        <time>2014-11-02T09:01:07.000Z</time>
      </trkpt>
      <trkpt lat="47.46775" lon="6.77701">
        <ele>374.9</ele>
        <time>2014-11-02T09:01:08.000Z</time>
      </trkpt>
      <trkpt lat="47.46775" lon="6.77705">
        <ele>375.7</ele>
        <time>2014-11-02T09:01:09.000Z</time>
      </trkpt>
      <trkpt lat="47.46774" lon="6.7771">
        <ele>374.9</ele>
        <time>2014-11-02T09:01:10.000Z</time>
      </trkpt>
      <trkpt lat="47.46774" lon="6.77717">
        <ele>374.7</ele>
        <time>2014-11-02T09:01:11.000Z</time>
      </trkpt>
      <trkpt lat="47.46774" lon="6.77723">
        <ele>374.7</ele>
        <time>2014-11-02T09:01:12.000Z</time>
      </trkpt>
      <trkpt lat="47.46773" lon="6.77731">
        <ele>373.6</ele>
        <time>2014-11-02T09:01:13.000Z</time>
      </trkpt>
      <trkpt lat="47.46773" lon="6.77739">
        <ele>373.6</ele>
        <time>2014-11-02T09:01:14.000Z</time>
      </trkpt>
      <trkpt lat="47.46773" lon="6.77748">
        <ele>373.5</ele>
        <time>2014-11-02T09:01:15.000Z</time>
      </trkpt>
      <trkpt lat="47.46771" lon="6.77757">
        <ele>373</ele>
        <time>2014-11-02T09:01:16.000Z</time>
      </trkpt>
      <trkpt lat="47.4677" lon="6.77767">
        <ele>371.1</ele>
        <time>2014-11-02T09:01:17.000Z</time>
      </trkpt>
      <trkpt lat="47.46769" lon="6.77776">
        <ele>371.5</ele>
        <time>2014-11-02T09:01:18.000Z</time>
      </trkpt>
      <trkpt lat="47.46768" lon="6.77785">
        <ele>371.3</ele>
        <time>2014-11-02T09:01:19.000Z</time>
      </trkpt>
      <trkpt lat="47.46766" lon="6.77794">
        <ele>369.6</ele>
        <time>2014-11-02T09:01:20.000Z</time>
      </trkpt>
      <trkpt lat="47.46765" lon="6.77802">
        <ele>368.8</ele>
        <time>2014-11-02T09:01:21.000Z</time>
      </trkpt>
      <trkpt lat="47.46762" lon="6.77809">
        <ele>368.2</ele>
        <time>2014-11-02T09:01:22.000Z</time>
      </trkpt>
      <trkpt lat="47.4676" lon="6.77816">
        <ele>366.8</ele>
        <time>2014-11-02T09:01:23.000Z</time>
      </trkpt>
      <trkpt lat="47.46757" lon="6.77822">
        <ele>367</ele>
        <time>2014-11-02T09:01:24.000Z</time>
      </trkpt>
      <trkpt lat="47.46754" lon="6.77827">
        <ele>366.8</ele>
        <time>2014-11-02T09:01:25.000Z</time>
      </trkpt>
      <trkpt lat="47.46752" lon="6.77832">
        <ele>366.6</ele>
        <time>2014-11-02T09:01:26.000Z</time>
      </trkpt>
      <trkpt lat="47.4675" lon="6.77837">
        <ele>367</ele>
        <time>2014-11-02T09:01:27.000Z</time>
      </trkpt>
      <trkpt lat="47.46748" lon="6.77842">
        <ele>367.3</ele>
        <time>2014-11-02T09:01:28.000Z</time>
      </trkpt>
      <trkpt lat="47.46745" lon="6.77846">
        <ele>368.3</ele>
        <time>2014-11-02T09:01:29.000Z</time>
      </trkpt>
      <trkpt lat="47.46742" lon="6.7785">
        <ele>368.2</ele>
        <time>2014-11-02T09:01:30.000Z</time>
      </trkpt>
      <trkpt lat="47.46738" lon="6.77854">
        <ele>367.7</ele>
        <time>2014-11-02T09:01:31.000Z</time>
      </trkpt>
      <trkpt lat="47.46735" lon="6.77859">
        <ele>368.4</ele>
        <time>2014-11-02T09:01:32.000Z</time>
      </trkpt>
      <trkpt lat="47.46733" lon="6.77863">
        <ele>368</ele>
        <time>2014-11-02T09:01:33.000Z</time>
      </trkpt>
      <trkpt lat="47.46732" lon="6.77868">
        <ele>368.5</ele>
        <time>2014-11-02T09:01:34.000Z</time>
      </trkpt>
      <trkpt lat="47.46729" lon="6.77872">
        <ele>368.6</ele>
        <time>2014-11-02T09:01:35.000Z</time>
      </trkpt>
      <trkpt lat="47.46727" lon="6.77876">
        <ele>367.9</ele>
        <time>2014-11-02T09:01:36.000Z</time>
      </trkpt>
      <trkpt lat="47.46725" lon="6.77879">
        <ele>368.5</ele>
        <time>2014-11-02T09:01:37.000Z</time>
      </trkpt>
      <trkpt lat="47.46722" lon="6.77883">
        <ele>368.6</ele>
        <time>2014-11-02T09:01:38.000Z</time>
      </trkpt>
      <trkpt lat="47.4672" lon="6.77886">
        <ele>367.7</ele>
        <time>2014-11-02T09:01:39.000Z</time>
      </trkpt>
      <trkpt lat="47.46719" lon="6.77889">
        <ele>366.9</ele>
        <time>2014-11-02T09:01:40.000Z</time>
      </trkpt>
      <trkpt lat="47.46718" lon="6.77892">
        <ele>365.7</ele>
        <time>2014-11-02T09:01:41.000Z</time>
      </trkpt>
      <trkpt lat="47.46716" lon="6.77897">
        <ele>364.9</ele>
        <time>2014-11-02T09:01:42.000Z</time>
      </trkpt>
      <trkpt lat="47.46715" lon="6.779">
        <ele>364.1</ele>
        <time>2014-11-02T09:01:43.000Z</time>
      </trkpt>
      <trkpt lat="47.46713" lon="6.77905">
        <ele>359.3</ele>
        <time>2014-11-02T09:01:44.000Z</time>
      </trkpt>
      <trkpt lat="47.46711" lon="6.7791">
        <ele>358.9</ele>
        <time>2014-11-02T09:01:45.000Z</time>
      </trkpt>
      <trkpt lat="47.46709" lon="6.77914">
        <ele>358.3</ele>
        <time>2014-11-02T09:01:46.000Z</time>
      </trkpt>
      <trkpt lat="47.46707" lon="6.77919">
        <ele>357.6</ele>
        <time>2014-11-02T09:01:47.000Z</time>
      </trkpt>
      <trkpt lat="47.46705" lon="6.77923">
        <ele>358</ele>
        <time>2014-11-02T09:01:48.000Z</time>
      </trkpt>
      <trkpt lat="47.46702" lon="6.77927">
        <ele>358.7</ele>
        <time>2014-11-02T09:01:49.000Z</time>
      </trkpt>
      <trkpt lat="47.467" lon="6.77932">
        <ele>358.8</ele>
        <time>2014-11-02T09:01:50.000Z</time>
      </trkpt>
      <trkpt lat="47.46699" lon="6.77937">
        <ele>360.5</ele>
        <time>2014-11-02T09:01:51.000Z</time>
      </trkpt>
      <trkpt lat="47.46697" lon="6.77944">
        <ele>361.2</ele>
        <time>2014-11-02T09:01:52.000Z</time>
      </trkpt>
      <trkpt lat="47.46696" lon="6.7795">
        <ele>361.4</ele>
        <time>2014-11-02T09:01:53.000Z</time>
      </trkpt>
      <trkpt lat="47.46696" lon="6.77958">
        <ele>359.2</ele>
        <time>2014-11-02T09:01:54.000Z</time>
      </trkpt>
      <trkpt lat="47.46696" lon="6.77966">
        <ele>358.3</ele>
        <time>2014-11-02T09:01:55.000Z</time>
      </trkpt>
      <trkpt lat="47.46697" lon="6.77974">
        <ele>358.2</ele>
        <time>2014-11-02T09:01:56.000Z</time>
      </trkpt>
      <trkpt lat="47.46699" lon="6.77983">
        <ele>358.1</ele>
        <time>2014-11-02T09:01:57.000Z</time>
      </trkpt>
      <trkpt lat="47.46703" lon="6.78005">
        <ele>357.5</ele>
        <time>2014-11-02T09:01:58.000Z</time>
      </trkpt>
      <trkpt lat="47.46702" lon="6.78012">
        <ele>357.5</ele>
        <time>2014-11-02T09:01:59.000Z</time>
      </trkpt>
      <trkpt lat="47.46701" lon="6.78017">
        <ele>358.1</ele>
        <time>2014-11-02T09:02:00.000Z</time>
      </trkpt>
      <trkpt lat="47.46699" lon="6.7802">
        <ele>358.3</ele>
        <time>2014-11-02T09:02:01.000Z</time>
      </trkpt>
      <trkpt lat="47.46699" lon="6.78025">
        <ele>358.5</ele>
        <time>2014-11-02T09:02:02.000Z</time>
      </trkpt>
      <trkpt lat="47.46696" lon="6.78036">
        <ele>360.2</ele>
        <time>2014-11-02T09:02:05.000Z</time>
      </trkpt>
      <trkpt lat="47.46694" lon="6.78039">
        <ele>359.8</ele>
        <time>2014-11-02T09:02:06.000Z</time>
      </trkpt>
      <trkpt lat="47.46692" lon="6.78041">
        <ele>359.9</ele>
        <time>2014-11-02T09:02:07.000Z</time>
      </trkpt>
      <trkpt lat="47.4669" lon="6.78048">
        <ele>359</ele>
        <time>2014-11-02T09:02:08.000Z</time>
      </trkpt>
      <trkpt lat="47.46688" lon="6.78056">
        <ele>357.5</ele>
        <time>2014-11-02T09:02:09.000Z</time>
      </trkpt>
      <trkpt lat="47.46686" lon="6.78062">
        <ele>356.9</ele>
        <time>2014-11-02T09:02:10.000Z</time>
      </trkpt>
      <trkpt lat="47.46683" lon="6.78069">
        <ele>356.4</ele>
        <time>2014-11-02T09:02:11.000Z</time>
      </trkpt>
      <trkpt lat="47.4668" lon="6.78076">
        <ele>357</ele>
        <time>2014-11-02T09:02:12.000Z</time>
      </trkpt>
      <trkpt lat="47.46678" lon="6.78082">
        <ele>356.9</ele>
        <time>2014-11-02T09:02:13.000Z</time>
      </trkpt>
      <trkpt lat="47.46676" lon="6.78089">
        <ele>357</ele>
        <time>2014-11-02T09:02:14.000Z</time>
      </trkpt>
      <trkpt lat="47.46674" lon="6.78094">
        <ele>356.4</ele>
        <time>2014-11-02T09:02:15.000Z</time>
      </trkpt>
      <trkpt lat="47.46669" lon="6.78099">
        <ele>356.9</ele>
        <time>2014-11-02T09:02:16.000Z</time>
      </trkpt>
      <trkpt lat="47.46666" lon="6.78102">
        <ele>357</ele>
        <time>2014-11-02T09:02:17.000Z</time>
      </trkpt>
      <trkpt lat="47.46664" lon="6.78108">
        <ele>358</ele>
        <time>2014-11-02T09:02:18.000Z</time>
      </trkpt>
      <trkpt lat="47.46663" lon="6.78113">
        <ele>357.6</ele>
        <time>2014-11-02T09:02:19.000Z</time>
      </trkpt>
      <trkpt lat="47.46662" lon="6.78116">
        <ele>357.3</ele>
        <time>2014-11-02T09:02:20.000Z</time>
      </trkpt>
      <trkpt lat="47.46659" lon="6.78119">
        <ele>358.3</ele>
        <time>2014-11-02T09:02:21.000Z</time>
      </trkpt>
      <trkpt lat="47.46658" lon="6.78123">
        <ele>358.8</ele>
        <time>2014-11-02T09:02:22.000Z</time>
      </trkpt>
      <trkpt lat="47.46656" lon="6.78126">
        <ele>360</ele>
        <time>2014-11-02T09:02:23.000Z</time>
      </trkpt>
      <trkpt lat="47.46654" lon="6.78128">
        <ele>359.6</ele>
        <time>2014-11-02T09:02:24.000Z</time>
      </trkpt>
      <trkpt lat="47.46652" lon="6.78133">
        <ele>359.8</ele>
        <time>2014-11-02T09:02:26.000Z</time>
      </trkpt>
      <trkpt lat="47.46651" lon="6.78135">
        <ele>360.2</ele>
        <time>2014-11-02T09:02:27.000Z</time>
      </trkpt>
      <trkpt lat="47.46648" lon="6.78139">
        <ele>360.4</ele>
        <time>2014-11-02T09:02:29.000Z</time>
      </trkpt>
      <trkpt lat="47.46647" lon="6.78141">
        <ele>360.5</ele>
        <time>2014-11-02T09:02:30.000Z</time>
      </trkpt>
      <trkpt lat="47.46644" lon="6.78145">
        <ele>361.8</ele>
        <time>2014-11-02T09:02:32.000Z</time>
      </trkpt>
      <trkpt lat="47.46644" lon="6.78147">
        <ele>362</ele>
        <time>2014-11-02T09:02:33.000Z</time>
      </trkpt>
      <trkpt lat="47.46642" lon="6.78152">
        <ele>362.8</ele>
        <time>2014-11-02T09:02:35.000Z</time>
      </trkpt>
      <trkpt lat="47.4664" lon="6.78154">
        <ele>363.3</ele>
        <time>2014-11-02T09:02:36.000Z</time>
      </trkpt>
      <trkpt lat="47.46639" lon="6.78157">
        <ele>364.2</ele>
        <time>2014-11-02T09:02:37.000Z</time>
      </trkpt>
      <trkpt lat="47.46637" lon="6.7816">
        <ele>363.1</ele>
        <time>2014-11-02T09:02:38.000Z</time>
      </trkpt>
      <trkpt lat="47.46636" lon="6.78164">
        <ele>362.6</ele>
        <time>2014-11-02T09:02:39.000Z</time>
      </trkpt>
      <trkpt lat="47.46635" lon="6.78168">
        <ele>362.9</ele>
        <time>2014-11-02T09:02:40.000Z</time>
      </trkpt>
      <trkpt lat="47.46635" lon="6.78172">
        <ele>362.3</ele>
        <time>2014-11-02T09:02:41.000Z</time>
      </trkpt>
      <trkpt lat="47.46634" lon="6.78176">
        <ele>363</ele>
        <time>2014-11-02T09:02:42.000Z</time>
      </trkpt>
      <trkpt lat="47.46633" lon="6.78179">
        <ele>363.5</ele>
        <time>2014-11-02T09:02:43.000Z</time>
      </trkpt>
      <trkpt lat="47.46632" lon="6.78183">
        <ele>364</ele>
        <time>2014-11-02T09:02:44.000Z</time>
      </trkpt>
      <trkpt lat="47.46631" lon="6.78186">
        <ele>364.1</ele>
        <time>2014-11-02T09:02:45.000Z</time>
      </trkpt>
      <trkpt lat="47.4663" lon="6.7819">
        <ele>364.4</ele>
        <time>2014-11-02T09:02:46.000Z</time>
      </trkpt>
      <trkpt lat="47.46629" lon="6.78193">
        <ele>365.1</ele>
        <time>2014-11-02T09:02:47.000Z</time>
      </trkpt>
      <trkpt lat="47.46628" lon="6.78196">
        <ele>365.3</ele>
        <time>2014-11-02T09:02:48.000Z</time>
      </trkpt>
      <trkpt lat="47.46627" lon="6.782">
        <ele>365.3</ele>
        <time>2014-11-02T09:02:49.000Z</time>
      </trkpt>
      <trkpt lat="47.46626" lon="6.78203">
        <ele>365.3</ele>
        <time>2014-11-02T09:02:50.000Z</time>
      </trkpt>
      <trkpt lat="47.46625" lon="6.78209">
        <ele>366.8</ele>
        <time>2014-11-02T09:02:52.000Z</time>
      </trkpt>
      <trkpt lat="47.46625" lon="6.78212">
        <ele>366.8</ele>
        <time>2014-11-02T09:02:53.000Z</time>
      </trkpt>
      <trkpt lat="47.46624" lon="6.78218">
        <ele>367.3</ele>
        <time>2014-11-02T09:02:55.000Z</time>
      </trkpt>
      <trkpt lat="47.46624" lon="6.78221">
        <ele>368.3</ele>
        <time>2014-11-02T09:02:56.000Z</time>
      </trkpt>
      <trkpt lat="47.46622" lon="6.78226">
        <ele>369.2</ele>
        <time>2014-11-02T09:02:58.000Z</time>
      </trkpt>
      <trkpt lat="47.46622" lon="6.78228">
        <ele>369.5</ele>
        <time>2014-11-02T09:02:59.000Z</time>
      </trkpt>
      <trkpt lat="47.4662" lon="6.78233">
        <ele>370</ele>
        <time>2014-11-02T09:03:01.000Z</time>
      </trkpt>
      <trkpt lat="47.46619" lon="6.78236">
        <ele>371</ele>
        <time>2014-11-02T09:03:02.000Z</time>
      </trkpt>
      <trkpt lat="47.46618" lon="6.78238">
        <ele>371.3</ele>
        <time>2014-11-02T09:03:03.000Z</time>
      </trkpt>
      <trkpt lat="47.46616" lon="6.78244">
        <ele>372</ele>
        <time>2014-11-02T09:03:06.000Z</time>
      </trkpt>
      <trkpt lat="47.46613" lon="6.78248">
        <ele>372.4</ele>
        <time>2014-11-02T09:03:08.000Z</time>
      </trkpt>
      <trkpt lat="47.46612" lon="6.7825">
        <ele>372.4</ele>
        <time>2014-11-02T09:03:09.000Z</time>
      </trkpt>
      <trkpt lat="47.46608" lon="6.78252">
        <ele>371.9</ele>
        <time>2014-11-02T09:03:11.000Z</time>
      </trkpt>
      <trkpt lat="47.46607" lon="6.78252">
        <ele>372.6</ele>
        <time>2014-11-02T09:03:12.000Z</time>
      </trkpt>
      <trkpt lat="47.46603" lon="6.78253">
        <ele>372.2</ele>
        <time>2014-11-02T09:03:13.999Z</time>
      </trkpt>
      <trkpt lat="47.46601" lon="6.78253">
        <ele>371.8</ele>
        <time>2014-11-02T09:03:15.000Z</time>
      </trkpt>
      <trkpt lat="47.46597" lon="6.78252">
        <ele>372</ele>
        <time>2014-11-02T09:03:17.000Z</time>
      </trkpt>
      <trkpt lat="47.46596" lon="6.78253">
        <ele>371.3</ele>
        <time>2014-11-02T09:03:18.000Z</time>
      </trkpt>
      <trkpt lat="47.46592" lon="6.78254">
        <ele>371.1</ele>
        <time>2014-11-02T09:03:22.000Z</time>
      </trkpt>
      <trkpt lat="47.46591" lon="6.78254">
        <ele>372.4</ele>
        <time>2014-11-02T09:03:23.000Z</time>
      </trkpt>
      <trkpt lat="47.46587" lon="6.78255">
        <ele>372.8</ele>
        <time>2014-11-02T09:03:26.000Z</time>
      </trkpt>
      <trkpt lat="47.46586" lon="6.78255">
        <ele>373.3</ele>
        <time>2014-11-02T09:03:27.000Z</time>
      </trkpt>
      <trkpt lat="47.46582" lon="6.78257">
        <ele>374.4</ele>
        <time>2014-11-02T09:03:30.000Z</time>
      </trkpt>
      <trkpt lat="47.46581" lon="6.78258">
        <ele>373.2</ele>
        <time>2014-11-02T09:03:31.000Z</time>
      </trkpt>
      <trkpt lat="47.46578" lon="6.78258">
        <ele>373.5</ele>
        <time>2014-11-02T09:03:33.000Z</time>
      </trkpt>
      <trkpt lat="47.46576" lon="6.78258">
        <ele>374.5</ele>
        <time>2014-11-02T09:03:34.000Z</time>
      </trkpt>
      <trkpt lat="47.46572" lon="6.78258">
        <ele>375.3</ele>
        <time>2014-11-02T09:03:37.000Z</time>
      </trkpt>
      <trkpt lat="47.46571" lon="6.78259">
        <ele>375.4</ele>
        <time>2014-11-02T09:03:38.000Z</time>
      </trkpt>
      <trkpt lat="47.46567" lon="6.7826">
        <ele>374.9</ele>
        <time>2014-11-02T09:03:41.000Z</time>
      </trkpt>
      <trkpt lat="47.46565" lon="6.7826">
        <ele>374.8</ele>
        <time>2014-11-02T09:03:42.000Z</time>
      </trkpt>
      <trkpt lat="47.46561" lon="6.7826">
        <ele>375.3</ele>
        <time>2014-11-02T09:03:44.000Z</time>
      </trkpt>
      <trkpt lat="47.46559" lon="6.7826">
        <ele>375.5</ele>
        <time>2014-11-02T09:03:45.000Z</time>
      </trkpt>
      <trkpt lat="47.46555" lon="6.7826">
        <ele>377.2</ele>
        <time>2014-11-02T09:03:47.000Z</time>
      </trkpt>
      <trkpt lat="47.46553" lon="6.7826">
        <ele>377.7</ele>
        <time>2014-11-02T09:03:48.000Z</time>
      </trkpt>
      <trkpt lat="47.46551" lon="6.7826">
        <ele>377.7</ele>
        <time>2014-11-02T09:03:49.000Z</time>
      </trkpt>
      <trkpt lat="47.46548" lon="6.7826">
        <ele>377.9</ele>
        <time>2014-11-02T09:03:50.000Z</time>
      </trkpt>
      <trkpt lat="47.46545" lon="6.7826">
        <ele>377.8</ele>
        <time>2014-11-02T09:03:51.000Z</time>
      </trkpt>
      <trkpt lat="47.46542" lon="6.7826">
        <ele>377.9</ele>
        <time>2014-11-02T09:03:52.000Z</time>
      </trkpt>
      <trkpt lat="47.46539" lon="6.7826">
        <ele>377.7</ele>
        <time>2014-11-02T09:03:53.000Z</time>
      </trkpt>
      <trkpt lat="47.46537" lon="6.7826">
        <ele>378.4</ele>
        <time>2014-11-02T09:03:54.000Z</time>
      </trkpt>
      <trkpt lat="47.46534" lon="6.7826">
        <ele>378.3</ele>
        <time>2014-11-02T09:03:55.000Z</time>
      </trkpt>
      <trkpt lat="47.46532" lon="6.7826">
        <ele>378.2</ele>
        <time>2014-11-02T09:03:56.000Z</time>
      </trkpt>
      <trkpt lat="47.46529" lon="6.7826">
        <ele>378.2</ele>
        <time>2014-11-02T09:03:57.000Z</time>
      </trkpt>
      <trkpt lat="47.46527" lon="6.7826">
        <ele>378.1</ele>
        <time>2014-11-02T09:03:58.000Z</time>
      </trkpt>
      <trkpt lat="47.46524" lon="6.7826">
        <ele>378.8</ele>
        <time>2014-11-02T09:03:59.000Z</time>
      </trkpt>
      <trkpt lat="47.46522" lon="6.7826">
        <ele>379.3</ele>
        <time>2014-11-02T09:04:00.000Z</time>
      </trkpt>
      <trkpt lat="47.46519" lon="6.78261">
        <ele>378.6</ele>
        <time>2014-11-02T09:04:01.000Z</time>
      </trkpt>
      <trkpt lat="47.46517" lon="6.78261">
        <ele>378.4</ele>
        <time>2014-11-02T09:04:02.000Z</time>
      </trkpt>
      <trkpt lat="47.46509" lon="6.7826">
        <ele>378.4</ele>
        <time>2014-11-02T09:04:05.000Z</time>
      </trkpt>
      <trkpt lat="47.46505" lon="6.7826">
        <ele>379</ele>
        <time>2014-11-02T09:04:06.999Z</time>
      </trkpt>
      <trkpt lat="47.46504" lon="6.7826">
        <ele>378.6</ele>
        <time>2014-11-02T09:04:08.000Z</time>
      </trkpt>
      <trkpt lat="47.465" lon="6.7826">
        <ele>379.4</ele>
        <time>2014-11-02T09:04:10.000Z</time>
      </trkpt>
      <trkpt lat="47.46498" lon="6.7826">
        <ele>380.3</ele>
        <time>2014-11-02T09:04:10.999Z</time>
      </trkpt>
      <trkpt lat="47.46495" lon="6.78258">
        <ele>379.6</ele>
        <time>2014-11-02T09:04:13.000Z</time>
      </trkpt>
      <trkpt lat="47.46493" lon="6.78257">
        <ele>379.8</ele>
        <time>2014-11-02T09:04:14.000Z</time>
      </trkpt>
      <trkpt lat="47.46489" lon="6.78257">
        <ele>378.6</ele>
        <time>2014-11-02T09:04:18.000Z</time>
      </trkpt>
      <trkpt lat="47.46488" lon="6.78256">
        <ele>378.4</ele>
        <time>2014-11-02T09:04:19.000Z</time>
      </trkpt>
      <trkpt lat="47.46485" lon="6.78254">
        <ele>377.3</ele>
        <time>2014-11-02T09:04:22.000Z</time>
      </trkpt>
      <trkpt lat="47.46484" lon="6.78254">
        <ele>378.7</ele>
        <time>2014-11-02T09:04:23.000Z</time>
      </trkpt>
      <trkpt lat="47.46483" lon="6.7826">
        <ele>377.6</ele>
        <time>2014-11-02T09:04:56.000Z</time>
      </trkpt>
      <trkpt lat="47.46483" lon="6.78262">
        <ele>377.4</ele>
        <time>2014-11-02T09:04:57.000Z</time>
      </trkpt>
      <trkpt lat="47.46484" lon="6.78268">
        <ele>376.8</ele>
        <time>2014-11-02T09:04:59.000Z</time>
      </trkpt>
      <trkpt lat="47.46485" lon="6.7827">
        <ele>376.6</ele>
        <time>2014-11-02T09:05:00.000Z</time>
      </trkpt>
      <trkpt lat="47.46485" lon="6.78275">
        <ele>377.6</ele>
        <time>2014-11-02T09:05:01.999Z</time>
      </trkpt>
      <trkpt lat="47.46481" lon="6.7828">
        <ele>378</ele>
        <time>2014-11-02T09:05:05.000Z</time>
      </trkpt>
      <trkpt lat="47.46471" lon="6.78279">
        <ele>373.9</ele>
        <time>2014-11-02T09:05:06.000Z</time>
      </trkpt>
      <trkpt lat="47.46467" lon="6.78282">
        <ele>373.9</ele>
        <time>2014-11-02T09:05:08.000Z</time>
      </trkpt>
      <trkpt lat="47.46464" lon="6.78281">
        <ele>374.3</ele>
        <time>2014-11-02T09:05:09.000Z</time>
      </trkpt>
      <trkpt lat="47.46462" lon="6.78281">
        <ele>374.2</ele>
        <time>2014-11-02T09:05:10.000Z</time>
      </trkpt>
      <trkpt lat="47.46459" lon="6.7828">
        <ele>374.2</ele>
        <time>2014-11-02T09:05:11.002Z</time>
      </trkpt>
      <trkpt lat="47.46455" lon="6.78279">
        <ele>373.1</ele>
        <time>2014-11-02T09:05:12.000Z</time>
      </trkpt>
      <trkpt lat="47.46453" lon="6.78278">
        <ele>373.6</ele>
        <time>2014-11-02T09:05:13.000Z</time>
      </trkpt>
      <trkpt lat="47.46451" lon="6.78278">
        <ele>375.1</ele>
        <time>2014-11-02T09:05:14.000Z</time>
      </trkpt>
      <trkpt lat="47.46448" lon="6.78277">
        <ele>375.1</ele>
        <time>2014-11-02T09:05:15.000Z</time>
      </trkpt>
      <trkpt lat="47.46446" lon="6.78276">
        <ele>376.2</ele>
        <time>2014-11-02T09:05:16.000Z</time>
      </trkpt>
      <trkpt lat="47.46444" lon="6.78275">
        <ele>377</ele>
        <time>2014-11-02T09:05:17.000Z</time>
      </trkpt>
      <trkpt lat="47.4644" lon="6.78274">
        <ele>375.4</ele>
        <time>2014-11-02T09:05:19.000Z</time>
      </trkpt>
      <trkpt lat="47.46438" lon="6.78273">
        <ele>375.5</ele>
        <time>2014-11-02T09:05:20.000Z</time>
      </trkpt>
      <trkpt lat="47.46434" lon="6.78271">
        <ele>377.1</ele>
        <time>2014-11-02T09:05:23.000Z</time>
      </trkpt>
      <trkpt lat="47.46432" lon="6.78271">
        <ele>377.5</ele>
        <time>2014-11-02T09:05:24.000Z</time>
      </trkpt>
      <trkpt lat="47.4643" lon="6.7827">
        <ele>378.1</ele>
        <time>2014-11-02T09:05:26.000Z</time>
      </trkpt>
      <trkpt lat="47.46428" lon="6.78269">
        <ele>378.3</ele>
        <time>2014-11-02T09:05:27.000Z</time>
      </trkpt>
      <trkpt lat="47.46424" lon="6.78269">
        <ele>381.2</ele>
        <time>2014-11-02T09:05:29.000Z</time>
      </trkpt>
      <trkpt lat="47.46422" lon="6.78268">
        <ele>381.2</ele>
        <time>2014-11-02T09:05:30.000Z</time>
      </trkpt>
      <trkpt lat="47.46418" lon="6.78268">
        <ele>380.9</ele>
        <time>2014-11-02T09:05:32.000Z</time>
      </trkpt>
      <trkpt lat="47.46416" lon="6.78268">
        <ele>381.5</ele>
        <time>2014-11-02T09:05:33.000Z</time>
      </trkpt>
      <trkpt lat="47.46413" lon="6.78267">
        <ele>384.5</ele>
        <time>2014-11-02T09:05:35.000Z</time>
      </trkpt>
      <trkpt lat="47.46411" lon="6.78266">
        <ele>384.8</ele>
        <time>2014-11-02T09:05:36.000Z</time>
      </trkpt>
      <trkpt lat="47.46408" lon="6.78265">
        <ele>385.9</ele>
        <time>2014-11-02T09:05:38.000Z</time>
      </trkpt>
      <trkpt lat="47.46405" lon="6.78264">
        <ele>386.7</ele>
        <time>2014-11-02T09:05:39.000Z</time>
      </trkpt>
      <trkpt lat="47.46402" lon="6.78263">
        <ele>387.3</ele>
        <time>2014-11-02T09:05:40.000Z</time>
      </trkpt>
      <trkpt lat="47.46399" lon="6.78263">
        <ele>387.2</ele>
        <time>2014-11-02T09:05:41.000Z</time>
      </trkpt>
      <trkpt lat="47.46396" lon="6.78263">
        <ele>389.2</ele>
        <time>2014-11-02T09:05:42.000Z</time>
      </trkpt>
      <trkpt lat="47.46392" lon="6.78263">
        <ele>389.6</ele>
        <time>2014-11-02T09:05:43.000Z</time>
      </trkpt>
      <trkpt lat="47.46388" lon="6.78264">
        <ele>387.8</ele>
        <time>2014-11-02T09:05:44.000Z</time>
      </trkpt>
      <trkpt lat="47.46384" lon="6.78265">
        <ele>386.5</ele>
        <time>2014-11-02T09:05:45.000Z</time>
      </trkpt>
      <trkpt lat="47.46381" lon="6.78266">
        <ele>386.2</ele>
        <time>2014-11-02T09:05:46.000Z</time>
      </trkpt>
      <trkpt lat="47.46378" lon="6.78266">
        <ele>385.9</ele>
        <time>2014-11-02T09:05:47.000Z</time>
      </trkpt>
      <trkpt lat="47.46375" lon="6.78267">
        <ele>386.7</ele>
        <time>2014-11-02T09:05:48.000Z</time>
      </trkpt>
      <trkpt lat="47.46372" lon="6.78267">
        <ele>387.7</ele>
        <time>2014-11-02T09:05:49.000Z</time>
      </trkpt>
      <trkpt lat="47.46369" lon="6.78268">
        <ele>388.6</ele>
        <time>2014-11-02T09:05:50.000Z</time>
      </trkpt>
      <trkpt lat="47.46366" lon="6.78268">
        <ele>388.9</ele>
        <time>2014-11-02T09:05:51.000Z</time>
      </trkpt>
      <trkpt lat="47.46364" lon="6.78269">
        <ele>386.8</ele>
        <time>2014-11-02T09:05:52.000Z</time>
      </trkpt>
      <trkpt lat="47.46361" lon="6.7827">
        <ele>385.9</ele>
        <time>2014-11-02T09:05:53.000Z</time>
      </trkpt>
      <trkpt lat="47.46358" lon="6.78271">
        <ele>385.7</ele>
        <time>2014-11-02T09:05:54.000Z</time>
      </trkpt>
      <trkpt lat="47.46355" lon="6.78272">
        <ele>387.3</ele>
        <time>2014-11-02T09:05:55.000Z</time>
      </trkpt>
      <trkpt lat="47.46352" lon="6.78273">
        <ele>387.5</ele>
        <time>2014-11-02T09:05:56.000Z</time>
      </trkpt>
      <trkpt lat="47.46348" lon="6.78273">
        <ele>387.2</ele>
        <time>2014-11-02T09:05:57.000Z</time>
      </trkpt>
      <trkpt lat="47.46345" lon="6.78274">
        <ele>387.6</ele>
        <time>2014-11-02T09:05:58.000Z</time>
      </trkpt>
      <trkpt lat="47.46342" lon="6.78275">
        <ele>387.1</ele>
        <time>2014-11-02T09:05:59.000Z</time>
      </trkpt>
      <trkpt lat="47.46338" lon="6.78275">
        <ele>386.8</ele>
        <time>2014-11-02T09:06:00.000Z</time>
      </trkpt>
      <trkpt lat="47.46336" lon="6.78276">
        <ele>386.5</ele>
        <time>2014-11-02T09:06:01.000Z</time>
      </trkpt>
      <trkpt lat="47.46332" lon="6.78277">
        <ele>386.6</ele>
        <time>2014-11-02T09:06:02.000Z</time>
      </trkpt>
      <trkpt lat="47.46324" lon="6.78277">
        <ele>386.2</ele>
        <time>2014-11-02T09:06:05.000Z</time>
      </trkpt>
      <trkpt lat="47.46321" lon="6.78277">
        <ele>386</ele>
        <time>2014-11-02T09:06:06.000Z</time>
      </trkpt>
      <trkpt lat="47.46317" lon="6.78277">
        <ele>385.7</ele>
        <time>2014-11-02T09:06:07.000Z</time>
      </trkpt>
      <trkpt lat="47.46314" lon="6.78277">
        <ele>385.1</ele>
        <time>2014-11-02T09:06:08.000Z</time>
      </trkpt>
      <trkpt lat="47.46311" lon="6.78278">
        <ele>385.2</ele>
        <time>2014-11-02T09:06:09.000Z</time>
      </trkpt>
      <trkpt lat="47.46308" lon="6.78278">
        <ele>386.8</ele>
        <time>2014-11-02T09:06:10.000Z</time>
      </trkpt>
      <trkpt lat="47.46304" lon="6.78277">
        <ele>386.2</ele>
        <time>2014-11-02T09:06:11.000Z</time>
      </trkpt>
      <trkpt lat="47.46301" lon="6.78277">
        <ele>385.1</ele>
        <time>2014-11-02T09:06:12.000Z</time>
      </trkpt>
      <trkpt lat="47.46298" lon="6.78277">
        <ele>384.7</ele>
        <time>2014-11-02T09:06:13.000Z</time>
      </trkpt>
      <trkpt lat="47.46295" lon="6.78278">
        <ele>385.2</ele>
        <time>2014-11-02T09:06:14.000Z</time>
      </trkpt>
      <trkpt lat="47.46293" lon="6.78278">
        <ele>384.7</ele>
        <time>2014-11-02T09:06:15.000Z</time>
      </trkpt>
      <trkpt lat="47.4629" lon="6.78279">
        <ele>384.5</ele>
        <time>2014-11-02T09:06:16.000Z</time>
      </trkpt>
      <trkpt lat="47.46288" lon="6.78279">
        <ele>383.9</ele>
        <time>2014-11-02T09:06:17.000Z</time>
      </trkpt>
      <trkpt lat="47.46285" lon="6.78279">
        <ele>387</ele>
        <time>2014-11-02T09:06:18.000Z</time>
      </trkpt>
      <trkpt lat="47.46283" lon="6.7828">
        <ele>386.2</ele>
        <time>2014-11-02T09:06:19.000Z</time>
      </trkpt>
      <trkpt lat="47.4628" lon="6.78281">
        <ele>386.6</ele>
        <time>2014-11-02T09:06:20.000Z</time>
      </trkpt>
      <trkpt lat="47.46277" lon="6.78281">
        <ele>386.9</ele>
        <time>2014-11-02T09:06:21.000Z</time>
      </trkpt>
      <trkpt lat="47.46274" lon="6.78282">
        <ele>387.2</ele>
        <time>2014-11-02T09:06:22.000Z</time>
      </trkpt>
      <trkpt lat="47.46271" lon="6.78283">
        <ele>387.4</ele>
        <time>2014-11-02T09:06:23.000Z</time>
      </trkpt>
      <trkpt lat="47.46269" lon="6.78283">
        <ele>388.7</ele>
        <time>2014-11-02T09:06:24.000Z</time>
      </trkpt>
      <trkpt lat="47.46266" lon="6.78283">
        <ele>390.2</ele>
        <time>2014-11-02T09:06:25.000Z</time>
      </trkpt>
      <trkpt lat="47.46262" lon="6.78283">
        <ele>392.6</ele>
        <time>2014-11-02T09:06:27.000Z</time>
      </trkpt>
      <trkpt lat="47.46259" lon="6.78283">
        <ele>393.2</ele>
        <time>2014-11-02T09:06:28.000Z</time>
      </trkpt>
      <trkpt lat="47.46256" lon="6.78284">
        <ele>398</ele>
        <time>2014-11-02T09:06:30.000Z</time>
      </trkpt>
      <trkpt lat="47.46254" lon="6.78284">
        <ele>398.7</ele>
        <time>2014-11-02T09:06:31.000Z</time>
      </trkpt>
      <trkpt lat="47.4625" lon="6.78285">
        <ele>396.2</ele>
        <time>2014-11-02T09:06:33.000Z</time>
      </trkpt>
      <trkpt lat="47.46248" lon="6.78284">
        <ele>395.5</ele>
        <time>2014-11-02T09:06:34.000Z</time>
      </trkpt>
      <trkpt lat="47.46245" lon="6.78284">
        <ele>395.6</ele>
        <time>2014-11-02T09:06:35.000Z</time>
      </trkpt>
      <trkpt lat="47.46243" lon="6.78284">
        <ele>395.3</ele>
        <time>2014-11-02T09:06:36.000Z</time>
      </trkpt>
      <trkpt lat="47.46239" lon="6.78284">
        <ele>394.5</ele>
        <time>2014-11-02T09:06:38.000Z</time>
      </trkpt>
      <trkpt lat="47.46237" lon="6.78285">
        <ele>395.2</ele>
        <time>2014-11-02T09:06:39.000Z</time>
      </trkpt>
      <trkpt lat="47.46234" lon="6.78285">
        <ele>394.8</ele>
        <time>2014-11-02T09:06:40.000Z</time>
      </trkpt>
      <trkpt lat="47.46232" lon="6.78286">
        <ele>396.3</ele>
        <time>2014-11-02T09:06:41.000Z</time>
      </trkpt>
      <trkpt lat="47.46229" lon="6.78287">
        <ele>396.9</ele>
        <time>2014-11-02T09:06:42.000Z</time>
      </trkpt>
      <trkpt lat="47.46226" lon="6.78287">
        <ele>398.8</ele>
        <time>2014-11-02T09:06:43.000Z</time>
      </trkpt>
      <trkpt lat="47.46222" lon="6.78286">
        <ele>400.8</ele>
        <time>2014-11-02T09:06:45.000Z</time>
      </trkpt>
      <trkpt lat="47.4622" lon="6.78286">
        <ele>403.1</ele>
        <time>2014-11-02T09:06:46.000Z</time>
      </trkpt>
      <trkpt lat="47.46216" lon="6.78287">
        <ele>404.8</ele>
        <time>2014-11-02T09:06:48.000Z</time>
      </trkpt>
      <trkpt lat="47.46213" lon="6.78287">
        <ele>404.7</ele>
        <time>2014-11-02T09:06:49.000Z</time>
      </trkpt>
      <trkpt lat="47.46211" lon="6.78288">
        <ele>404.5</ele>
        <time>2014-11-02T09:06:50.000Z</time>
      </trkpt>
      <trkpt lat="47.46208" lon="6.78289">
        <ele>404.3</ele>
        <time>2014-11-02T09:06:51.000Z</time>
      </trkpt>
      <trkpt lat="47.46206" lon="6.78289">
        <ele>403.3</ele>
        <time>2014-11-02T09:06:52.000Z</time>
      </trkpt>
      <trkpt lat="47.46203" lon="6.7829">
        <ele>402.6</ele>
        <time>2014-11-02T09:06:53.000Z</time>
      </trkpt>
      <trkpt lat="47.462" lon="6.78291">
        <ele>402.7</ele>
        <time>2014-11-02T09:06:54.000Z</time>
      </trkpt>
      <trkpt lat="47.46197" lon="6.78292">
        <ele>403.7</ele>
        <time>2014-11-02T09:06:55.000Z</time>
      </trkpt>
      <trkpt lat="47.46195" lon="6.78292">
        <ele>404.5</ele>
        <time>2014-11-02T09:06:55.999Z</time>
      </trkpt>
      <trkpt lat="47.46192" lon="6.78293">
        <ele>402.6</ele>
        <time>2014-11-02T09:06:57.000Z</time>
      </trkpt>
      <trkpt lat="47.46189" lon="6.78294">
        <ele>402.9</ele>
        <time>2014-11-02T09:06:58.000Z</time>
      </trkpt>
      <trkpt lat="47.46187" lon="6.78294">
        <ele>404.3</ele>
        <time>2014-11-02T09:06:59.000Z</time>
      </trkpt>
      <trkpt lat="47.46184" lon="6.78294">
        <ele>405.5</ele>
        <time>2014-11-02T09:07:00.000Z</time>
      </trkpt>
      <trkpt lat="47.46181" lon="6.78294">
        <ele>407.2</ele>
        <time>2014-11-02T09:07:01.000Z</time>
      </trkpt>
      <trkpt lat="47.46178" lon="6.78294">
        <ele>408.5</ele>
        <time>2014-11-02T09:07:02.000Z</time>
      </trkpt>
      <trkpt lat="47.46171" lon="6.78294">
        <ele>409.1</ele>
        <time>2014-11-02T09:07:05.000Z</time>
      </trkpt>
      <trkpt lat="47.46167" lon="6.78294">
        <ele>407.2</ele>
        <time>2014-11-02T09:07:07.000Z</time>
      </trkpt>
      <trkpt lat="47.46164" lon="6.78294">
        <ele>406.3</ele>
        <time>2014-11-02T09:07:08.000Z</time>
      </trkpt>
      <trkpt lat="47.46162" lon="6.78294">
        <ele>405.9</ele>
        <time>2014-11-02T09:07:09.000Z</time>
      </trkpt>
      <trkpt lat="47.46158" lon="6.78293">
        <ele>405.7</ele>
        <time>2014-11-02T09:07:10.000Z</time>
      </trkpt>
      <trkpt lat="47.46155" lon="6.78293">
        <ele>405.5</ele>
        <time>2014-11-02T09:07:11.000Z</time>
      </trkpt>
      <trkpt lat="47.46152" lon="6.78293">
        <ele>404.2</ele>
        <time>2014-11-02T09:07:12.000Z</time>
      </trkpt>
      <trkpt lat="47.46148" lon="6.78293">
        <ele>403.8</ele>
        <time>2014-11-02T09:07:13.000Z</time>
      </trkpt>
      <trkpt lat="47.46145" lon="6.78293">
        <ele>403</ele>
        <time>2014-11-02T09:07:14.000Z</time>
      </trkpt>
      <trkpt lat="47.46142" lon="6.78294">
        <ele>402.8</ele>
        <time>2014-11-02T09:07:15.000Z</time>
      </trkpt>
      <trkpt lat="47.4614" lon="6.78295">
        <ele>404.3</ele>
        <time>2014-11-02T09:07:16.000Z</time>
      </trkpt>
      <trkpt lat="47.46136" lon="6.78297">
        <ele>409.1</ele>
        <time>2014-11-02T09:07:18.000Z</time>
      </trkpt>
      <trkpt lat="47.46134" lon="6.78298">
        <ele>409.5</ele>
        <time>2014-11-02T09:07:19.000Z</time>
      </trkpt>
      <trkpt lat="47.46129" lon="6.78299">
        <ele>408.3</ele>
        <time>2014-11-02T09:07:21.000Z</time>
      </trkpt>
      <trkpt lat="47.46127" lon="6.783">
        <ele>407.6</ele>
        <time>2014-11-02T09:07:22.000Z</time>
      </trkpt>
      <trkpt lat="47.46124" lon="6.783">
        <ele>407.6</ele>
        <time>2014-11-02T09:07:23.000Z</time>
      </trkpt>
      <trkpt lat="47.46122" lon="6.783">
        <ele>406.9</ele>
        <time>2014-11-02T09:07:24.000Z</time>
      </trkpt>
      <trkpt lat="47.46117" lon="6.783">
        <ele>406.9</ele>
        <time>2014-11-02T09:07:26.000Z</time>
      </trkpt>
      <trkpt lat="47.46115" lon="6.783">
        <ele>407.4</ele>
        <time>2014-11-02T09:07:27.000Z</time>
      </trkpt>
      <trkpt lat="47.46112" lon="6.783">
        <ele>408</ele>
        <time>2014-11-02T09:07:28.000Z</time>
      </trkpt>
      <trkpt lat="47.4611" lon="6.78301">
        <ele>413.4</ele>
        <time>2014-11-02T09:07:29.000Z</time>
      </trkpt>
      <trkpt lat="47.46107" lon="6.78303">
        <ele>414</ele>
        <time>2014-11-02T09:07:30.000Z</time>
      </trkpt>
      <trkpt lat="47.46104" lon="6.78305">
        <ele>414</ele>
        <time>2014-11-02T09:07:31.000Z</time>
      </trkpt>
      <trkpt lat="47.461" lon="6.78307">
        <ele>414.1</ele>
        <time>2014-11-02T09:07:32.000Z</time>
      </trkpt>
      <trkpt lat="47.46097" lon="6.78309">
        <ele>413.9</ele>
        <time>2014-11-02T09:07:33.000Z</time>
      </trkpt>
      <trkpt lat="47.46093" lon="6.7831">
        <ele>413.1</ele>
        <time>2014-11-02T09:07:34.000Z</time>
      </trkpt>
      <trkpt lat="47.46088" lon="6.78312">
        <ele>412.6</ele>
        <time>2014-11-02T09:07:35.000Z</time>
      </trkpt>
      <trkpt lat="47.46084" lon="6.78314">
        <ele>409.9</ele>
        <time>2014-11-02T09:07:36.000Z</time>
      </trkpt>
      <trkpt lat="47.46079" lon="6.78316">
        <ele>412.7</ele>
        <time>2014-11-02T09:07:37.000Z</time>
      </trkpt>
      <trkpt lat="47.46074" lon="6.78317">
        <ele>413.2</ele>
        <time>2014-11-02T09:07:38.000Z</time>
      </trkpt>
      <trkpt lat="47.46069" lon="6.78319">
        <ele>413.2</ele>
        <time>2014-11-02T09:07:39.000Z</time>
      </trkpt>
      <trkpt lat="47.46063" lon="6.78319">
        <ele>412.9</ele>
        <time>2014-11-02T09:07:40.000Z</time>
      </trkpt>
      <trkpt lat="47.46059" lon="6.7832">
        <ele>415.2</ele>
        <time>2014-11-02T09:07:41.000Z</time>
      </trkpt>
      <trkpt lat="47.46054" lon="6.7832">
        <ele>415.7</ele>
        <time>2014-11-02T09:07:42.000Z</time>
      </trkpt>
      <trkpt lat="47.46049" lon="6.78321">
        <ele>413.8</ele>
        <time>2014-11-02T09:07:43.000Z</time>
      </trkpt>
      <trkpt lat="47.46045" lon="6.78323">
        <ele>412.2</ele>
        <time>2014-11-02T09:07:44.000Z</time>
      </trkpt>
      <trkpt lat="47.46041" lon="6.78327">
        <ele>415.5</ele>
        <time>2014-11-02T09:07:45.000Z</time>
      </trkpt>
      <trkpt lat="47.46038" lon="6.78332">
        <ele>415.2</ele>
        <time>2014-11-02T09:07:46.000Z</time>
      </trkpt>
      <trkpt lat="47.46034" lon="6.78336">
        <ele>413.8</ele>
        <time>2014-11-02T09:07:47.000Z</time>
      </trkpt>
      <trkpt lat="47.46031" lon="6.7834">
        <ele>412</ele>
        <time>2014-11-02T09:07:48.000Z</time>
      </trkpt>
      <trkpt lat="47.46023" lon="6.78346">
        <ele>409</ele>
        <time>2014-11-02T09:07:49.000Z</time>
      </trkpt>
      <trkpt lat="47.46019" lon="6.7835">
        <ele>408.3</ele>
        <time>2014-11-02T09:07:50.000Z</time>
      </trkpt>
      <trkpt lat="47.46016" lon="6.78354">
        <ele>408.1</ele>
        <time>2014-11-02T09:07:51.000Z</time>
      </trkpt>
      <trkpt lat="47.46012" lon="6.78356">
        <ele>407.3</ele>
        <time>2014-11-02T09:07:52.000Z</time>
      </trkpt>
      <trkpt lat="47.4601" lon="6.78359">
        <ele>406</ele>
        <time>2014-11-02T09:07:53.000Z</time>
      </trkpt>
      <trkpt lat="47.46006" lon="6.78361">
        <ele>405.7</ele>
        <time>2014-11-02T09:07:54.000Z</time>
      </trkpt>
      <trkpt lat="47.46003" lon="6.78363">
        <ele>405.5</ele>
        <time>2014-11-02T09:07:55.000Z</time>
      </trkpt>
      <trkpt lat="47.45998" lon="6.78366">
        <ele>403.6</ele>
        <time>2014-11-02T09:07:56.000Z</time>
      </trkpt>
      <trkpt lat="47.45993" lon="6.78371">
        <ele>403.3</ele>
        <time>2014-11-02T09:07:57.000Z</time>
      </trkpt>
      <trkpt lat="47.45988" lon="6.78376">
        <ele>402.3</ele>
        <time>2014-11-02T09:07:58.000Z</time>
      </trkpt>
      <trkpt lat="47.45983" lon="6.7838">
        <ele>401.8</ele>
        <time>2014-11-02T09:07:59.000Z</time>
      </trkpt>
      <trkpt lat="47.45977" lon="6.78384">
        <ele>402.1</ele>
        <time>2014-11-02T09:08:00.000Z</time>
      </trkpt>
      <trkpt lat="47.45975" lon="6.78393">
        <ele>403.7</ele>
        <time>2014-11-02T09:08:01.000Z</time>
      </trkpt>
      <trkpt lat="47.45972" lon="6.78399">
        <ele>404.2</ele>
        <time>2014-11-02T09:08:02.000Z</time>
      </trkpt>
      <trkpt lat="47.45958" lon="6.78412">
        <ele>404.2</ele>
        <time>2014-11-02T09:08:05.000Z</time>
      </trkpt>
      <trkpt lat="47.45951" lon="6.78422">
        <ele>407.4</ele>
        <time>2014-11-02T09:08:06.000Z</time>
      </trkpt>
      <trkpt lat="47.45943" lon="6.78432">
        <ele>406.2</ele>
        <time>2014-11-02T09:08:07.000Z</time>
      </trkpt>
      <trkpt lat="47.45936" lon="6.78449">
        <ele>400.8</ele>
        <time>2014-11-02T09:08:08.000Z</time>
      </trkpt>
      <trkpt lat="47.45935" lon="6.78461">
        <ele>399.6</ele>
        <time>2014-11-02T09:08:09.000Z</time>
      </trkpt>
      <trkpt lat="47.45936" lon="6.78474">
        <ele>395.9</ele>
        <time>2014-11-02T09:08:10.000Z</time>
      </trkpt>
      <trkpt lat="47.45937" lon="6.78487">
        <ele>394.3</ele>
        <time>2014-11-02T09:08:11.000Z</time>
      </trkpt>
      <trkpt lat="47.45938" lon="6.785">
        <ele>394</ele>
        <time>2014-11-02T09:08:12.000Z</time>
      </trkpt>
      <trkpt lat="47.45938" lon="6.78511">
        <ele>392.6</ele>
        <time>2014-11-02T09:08:13.000Z</time>
      </trkpt>
      <trkpt lat="47.45934" lon="6.78521">
        <ele>391</ele>
        <time>2014-11-02T09:08:14.000Z</time>
      </trkpt>
      <trkpt lat="47.45928" lon="6.78527">
        <ele>390.1</ele>
        <time>2014-11-02T09:08:15.000Z</time>
      </trkpt>
      <trkpt lat="47.45922" lon="6.78531">
        <ele>390.1</ele>
        <time>2014-11-02T09:08:16.000Z</time>
      </trkpt>
      <trkpt lat="47.45916" lon="6.78528">
        <ele>389.9</ele>
        <time>2014-11-02T09:08:17.000Z</time>
      </trkpt>
      <trkpt lat="47.4591" lon="6.78524">
        <ele>389.6</ele>
        <time>2014-11-02T09:08:18.000Z</time>
      </trkpt>
      <trkpt lat="47.45904" lon="6.78518">
        <ele>388.2</ele>
        <time>2014-11-02T09:08:19.000Z</time>
      </trkpt>
      <trkpt lat="47.45899" lon="6.78512">
        <ele>387.5</ele>
        <time>2014-11-02T09:08:20.000Z</time>
      </trkpt>
      <trkpt lat="47.45893" lon="6.78506">
        <ele>385.2</ele>
        <time>2014-11-02T09:08:21.000Z</time>
      </trkpt>
      <trkpt lat="47.45886" lon="6.78499">
        <ele>384.3</ele>
        <time>2014-11-02T09:08:22.000Z</time>
      </trkpt>
      <trkpt lat="47.4588" lon="6.78491">
        <ele>384.4</ele>
        <time>2014-11-02T09:08:23.000Z</time>
      </trkpt>
      <trkpt lat="47.45873" lon="6.78483">
        <ele>384.4</ele>
        <time>2014-11-02T09:08:24.000Z</time>
      </trkpt>
      <trkpt lat="47.45866" lon="6.78474">
        <ele>384.1</ele>
        <time>2014-11-02T09:08:25.000Z</time>
      </trkpt>
      <trkpt lat="47.45857" lon="6.78466">
        <ele>383.5</ele>
        <time>2014-11-02T09:08:26.000Z</time>
      </trkpt>
      <trkpt lat="47.45847" lon="6.78458">
        <ele>381.1</ele>
        <time>2014-11-02T09:08:27.000Z</time>
      </trkpt>
      <trkpt lat="47.45837" lon="6.78448">
        <ele>378.8</ele>
        <time>2014-11-02T09:08:28.000Z</time>
      </trkpt>
      <trkpt lat="47.45828" lon="6.7844">
        <ele>378.1</ele>
        <time>2014-11-02T09:08:29.000Z</time>
      </trkpt>
      <trkpt lat="47.4582" lon="6.78431">
        <ele>378.5</ele>
        <time>2014-11-02T09:08:30.000Z</time>
      </trkpt>
      <trkpt lat="47.45811" lon="6.78421">
        <ele>378.4</ele>
        <time>2014-11-02T09:08:31.000Z</time>
      </trkpt>
      <trkpt lat="47.45801" lon="6.78412">
        <ele>376.2</ele>
        <time>2014-11-02T09:08:32.000Z</time>
      </trkpt>
      <trkpt lat="47.45791" lon="6.78403">
        <ele>374.6</ele>
        <time>2014-11-02T09:08:33.000Z</time>
      </trkpt>
      <trkpt lat="47.45781" lon="6.78396">
        <ele>373.2</ele>
        <time>2014-11-02T09:08:34.000Z</time>
      </trkpt>
      <trkpt lat="47.4577" lon="6.7839">
        <ele>372.1</ele>
        <time>2014-11-02T09:08:35.000Z</time>
      </trkpt>
      <trkpt lat="47.45759" lon="6.78386">
        <ele>371.4</ele>
        <time>2014-11-02T09:08:36.000Z</time>
      </trkpt>
      <trkpt lat="47.45748" lon="6.78384">
        <ele>369.2</ele>
        <time>2014-11-02T09:08:37.000Z</time>
      </trkpt>
      <trkpt lat="47.45736" lon="6.78382">
        <ele>368.8</ele>
        <time>2014-11-02T09:08:38.000Z</time>
      </trkpt>
      <trkpt lat="47.45725" lon="6.78381">
        <ele>367.5</ele>
        <time>2014-11-02T09:08:39.000Z</time>
      </trkpt>
      <trkpt lat="47.45714" lon="6.7838">
        <ele>367</ele>
        <time>2014-11-02T09:08:40.000Z</time>
      </trkpt>
      <trkpt lat="47.45703" lon="6.7838">
        <ele>366.7</ele>
        <time>2014-11-02T09:08:41.000Z</time>
      </trkpt>
      <trkpt lat="47.45693" lon="6.7838">
        <ele>365.8</ele>
        <time>2014-11-02T09:08:42.000Z</time>
      </trkpt>
      <trkpt lat="47.45682" lon="6.78382">
        <ele>365</ele>
        <time>2014-11-02T09:08:43.000Z</time>
      </trkpt>
      <trkpt lat="47.45671" lon="6.78384">
        <ele>363.9</ele>
        <time>2014-11-02T09:08:44.000Z</time>
      </trkpt>
      <trkpt lat="47.45661" lon="6.78387">
        <ele>363.1</ele>
        <time>2014-11-02T09:08:45.000Z</time>
      </trkpt>
      <trkpt lat="47.45651" lon="6.78391">
        <ele>362.5</ele>
        <time>2014-11-02T09:08:46.000Z</time>
      </trkpt>
      <trkpt lat="47.45642" lon="6.78394">
        <ele>361.9</ele>
        <time>2014-11-02T09:08:47.000Z</time>
      </trkpt>
      <trkpt lat="47.45632" lon="6.78399">
        <ele>361</ele>
        <time>2014-11-02T09:08:48.000Z</time>
      </trkpt>
      <trkpt lat="47.45624" lon="6.78404">
        <ele>360.9</ele>
        <time>2014-11-02T09:08:49.000Z</time>
      </trkpt>
      <trkpt lat="47.45615" lon="6.78408">
        <ele>360.4</ele>
        <time>2014-11-02T09:08:50.000Z</time>
      </trkpt>
      <trkpt lat="47.45607" lon="6.78413">
        <ele>359.3</ele>
        <time>2014-11-02T09:08:51.000Z</time>
      </trkpt>
      <trkpt lat="47.45599" lon="6.78417">
        <ele>359.2</ele>
        <time>2014-11-02T09:08:52.000Z</time>
      </trkpt>
      <trkpt lat="47.4559" lon="6.78421">
        <ele>358.9</ele>
        <time>2014-11-02T09:08:53.000Z</time>
      </trkpt>
      <trkpt lat="47.45582" lon="6.78425">
        <ele>358.3</ele>
        <time>2014-11-02T09:08:54.000Z</time>
      </trkpt>
      <trkpt lat="47.45574" lon="6.7843">
        <ele>357.6</ele>
        <time>2014-11-02T09:08:55.000Z</time>
      </trkpt>
      <trkpt lat="47.45567" lon="6.78434">
        <ele>357</ele>
        <time>2014-11-02T09:08:56.000Z</time>
      </trkpt>
      <trkpt lat="47.4556" lon="6.78439">
        <ele>357.4</ele>
        <time>2014-11-02T09:08:57.000Z</time>
      </trkpt>
      <trkpt lat="47.45553" lon="6.78444">
        <ele>357.3</ele>
        <time>2014-11-02T09:08:58.000Z</time>
      </trkpt>
      <trkpt lat="47.45545" lon="6.78447">
        <ele>357.1</ele>
        <time>2014-11-02T09:08:59.000Z</time>
      </trkpt>
      <trkpt lat="47.45537" lon="6.78451">
        <ele>356.6</ele>
        <time>2014-11-02T09:09:00.000Z</time>
      </trkpt>
      <trkpt lat="47.4553" lon="6.78455">
        <ele>356.4</ele>
        <time>2014-11-02T09:09:01.000Z</time>
      </trkpt>
      <trkpt lat="47.45522" lon="6.78459">
        <ele>356.2</ele>
        <time>2014-11-02T09:09:02.000Z</time>
      </trkpt>
      <trkpt lat="47.45505" lon="6.78467">
        <ele>356.1</ele>
        <time>2014-11-02T09:09:05.000Z</time>
      </trkpt>
      <trkpt lat="47.45499" lon="6.78471">
        <ele>355.8</ele>
        <time>2014-11-02T09:09:06.000Z</time>
      </trkpt>
      <trkpt lat="47.45494" lon="6.78474">
        <ele>355.6</ele>
        <time>2014-11-02T09:09:07.000Z</time>
      </trkpt>
      <trkpt lat="47.45488" lon="6.78477">
        <ele>355.1</ele>
        <time>2014-11-02T09:09:08.000Z</time>
      </trkpt>
      <trkpt lat="47.45484" lon="6.78482">
        <ele>354.2</ele>
        <time>2014-11-02T09:09:09.000Z</time>
      </trkpt>
      <trkpt lat="47.4548" lon="6.78487">
        <ele>354</ele>
        <time>2014-11-02T09:09:10.000Z</time>
      </trkpt>
      <trkpt lat="47.45475" lon="6.78491">
        <ele>353.5</ele>
        <time>2014-11-02T09:09:11.000Z</time>
      </trkpt>
      <trkpt lat="47.4547" lon="6.78495">
        <ele>351</ele>
        <time>2014-11-02T09:09:11.999Z</time>
      </trkpt>
      <trkpt lat="47.45465" lon="6.78498">
        <ele>351.6</ele>
        <time>2014-11-02T09:09:13.000Z</time>
      </trkpt>
      <trkpt lat="47.4546" lon="6.78499">
        <ele>351</ele>
        <time>2014-11-02T09:09:14.000Z</time>
      </trkpt>
      <trkpt lat="47.45456" lon="6.78502">
        <ele>350.9</ele>
        <time>2014-11-02T09:09:15.000Z</time>
      </trkpt>
      <trkpt lat="47.45453" lon="6.78506">
        <ele>350.5</ele>
        <time>2014-11-02T09:09:16.000Z</time>
      </trkpt>
      <trkpt lat="47.45449" lon="6.7851">
        <ele>350.6</ele>
        <time>2014-11-02T09:09:17.000Z</time>
      </trkpt>
      <trkpt lat="47.45446" lon="6.78512">
        <ele>350.8</ele>
        <time>2014-11-02T09:09:18.000Z</time>
      </trkpt>
      <trkpt lat="47.45442" lon="6.78515">
        <ele>351.2</ele>
        <time>2014-11-02T09:09:19.000Z</time>
      </trkpt>
      <trkpt lat="47.45439" lon="6.78518">
        <ele>350.5</ele>
        <time>2014-11-02T09:09:20.000Z</time>
      </trkpt>
      <trkpt lat="47.45436" lon="6.7852">
        <ele>349.4</ele>
        <time>2014-11-02T09:09:21.000Z</time>
      </trkpt>
      <trkpt lat="47.45432" lon="6.78523">
        <ele>349.5</ele>
        <time>2014-11-02T09:09:22.000Z</time>
      </trkpt>
      <trkpt lat="47.45428" lon="6.78526">
        <ele>348.4</ele>
        <time>2014-11-02T09:09:23.000Z</time>
      </trkpt>
      <trkpt lat="47.45424" lon="6.78528">
        <ele>348</ele>
        <time>2014-11-02T09:09:24.000Z</time>
      </trkpt>
      <trkpt lat="47.4542" lon="6.78531">
        <ele>347.6</ele>
        <time>2014-11-02T09:09:25.000Z</time>
      </trkpt>
      <trkpt lat="47.45416" lon="6.78533">
        <ele>347.2</ele>
        <time>2014-11-02T09:09:26.000Z</time>
      </trkpt>
      <trkpt lat="47.45411" lon="6.78535">
        <ele>346.6</ele>
        <time>2014-11-02T09:09:27.000Z</time>
      </trkpt>
      <trkpt lat="47.45407" lon="6.78539">
        <ele>345.9</ele>
        <time>2014-11-02T09:09:28.000Z</time>
      </trkpt>
      <trkpt lat="47.45402" lon="6.78541">
        <ele>345.1</ele>
        <time>2014-11-02T09:09:29.000Z</time>
      </trkpt>
      <trkpt lat="47.45398" lon="6.78546">
        <ele>344.3</ele>
        <time>2014-11-02T09:09:30.000Z</time>
      </trkpt>
      <trkpt lat="47.45395" lon="6.78551">
        <ele>343.8</ele>
        <time>2014-11-02T09:09:31.000Z</time>
      </trkpt>
      <trkpt lat="47.45393" lon="6.78556">
        <ele>343.3</ele>
        <time>2014-11-02T09:09:32.000Z</time>
      </trkpt>
      <trkpt lat="47.45393" lon="6.78561">
        <ele>343</ele>
        <time>2014-11-02T09:09:33.000Z</time>
      </trkpt>
      <trkpt lat="47.45393" lon="6.78564">
        <ele>341.9</ele>
        <time>2014-11-02T09:09:34.000Z</time>
      </trkpt>
      <trkpt lat="47.45394" lon="6.7857">
        <ele>341.1</ele>
        <time>2014-11-02T09:09:36.000Z</time>
      </trkpt>
      <trkpt lat="47.45394" lon="6.78573">
        <ele>341.2</ele>
        <time>2014-11-02T09:09:37.000Z</time>
      </trkpt>
      <trkpt lat="47.45395" lon="6.78576">
        <ele>340.9</ele>
        <time>2014-11-02T09:09:38.000Z</time>
      </trkpt>
      <trkpt lat="47.45395" lon="6.78579">
        <ele>341</ele>
        <time>2014-11-02T09:09:39.000Z</time>
      </trkpt>
      <trkpt lat="47.45396" lon="6.78585">
        <ele>340.9</ele>
        <time>2014-11-02T09:09:41.000Z</time>
      </trkpt>
      <trkpt lat="47.45397" lon="6.78588">
        <ele>340.8</ele>
        <time>2014-11-02T09:09:42.000Z</time>
      </trkpt>
      <trkpt lat="47.45398" lon="6.78591">
        <ele>341</ele>
        <time>2014-11-02T09:09:43.000Z</time>
      </trkpt>
      <trkpt lat="47.454" lon="6.78593">
        <ele>340.9</ele>
        <time>2014-11-02T09:09:44.000Z</time>
      </trkpt>
      <trkpt lat="47.45402" lon="6.78596">
        <ele>341</ele>
        <time>2014-11-02T09:09:45.000Z</time>
      </trkpt>
      <trkpt lat="47.45403" lon="6.78599">
        <ele>340.9</ele>
        <time>2014-11-02T09:09:46.000Z</time>
      </trkpt>
      <trkpt lat="47.45404" lon="6.78601">
        <ele>340.6</ele>
        <time>2014-11-02T09:09:47.000Z</time>
      </trkpt>
      <trkpt lat="47.45406" lon="6.78604">
        <ele>340.7</ele>
        <time>2014-11-02T09:09:48.000Z</time>
      </trkpt>
      <trkpt lat="47.45407" lon="6.78607">
        <ele>340.6</ele>
        <time>2014-11-02T09:09:49.000Z</time>
      </trkpt>
      <trkpt lat="47.45409" lon="6.7861">
        <ele>340.5</ele>
        <time>2014-11-02T09:09:50.000Z</time>
      </trkpt>
      <trkpt lat="47.4541" lon="6.78613">
        <ele>340.5</ele>
        <time>2014-11-02T09:09:51.000Z</time>
      </trkpt>
      <trkpt lat="47.45412" lon="6.78616">
        <ele>340.5</ele>
        <time>2014-11-02T09:09:52.000Z</time>
      </trkpt>
      <trkpt lat="47.45413" lon="6.7862">
        <ele>340.2</ele>
        <time>2014-11-02T09:09:53.000Z</time>
      </trkpt>
      <trkpt lat="47.45415" lon="6.78623">
        <ele>340.3</ele>
        <time>2014-11-02T09:09:54.000Z</time>
      </trkpt>
      <trkpt lat="47.45417" lon="6.78626">
        <ele>340.1</ele>
        <time>2014-11-02T09:09:55.000Z</time>
      </trkpt>
      <trkpt lat="47.45419" lon="6.7863">
        <ele>339.9</ele>
        <time>2014-11-02T09:09:56.000Z</time>
      </trkpt>
      <trkpt lat="47.4542" lon="6.78633">
        <ele>339.9</ele>
        <time>2014-11-02T09:09:57.000Z</time>
      </trkpt>
      <trkpt lat="47.45422" lon="6.78637">
        <ele>339.8</ele>
        <time>2014-11-02T09:09:58.000Z</time>
      </trkpt>
      <trkpt lat="47.45424" lon="6.7864">
        <ele>339.7</ele>
        <time>2014-11-02T09:09:59.000Z</time>
      </trkpt>
      <trkpt lat="47.45426" lon="6.78644">
        <ele>339.7</ele>
        <time>2014-11-02T09:10:00.000Z</time>
      </trkpt>
      <trkpt lat="47.45427" lon="6.78647">
        <ele>339.6</ele>
        <time>2014-11-02T09:10:01.000Z</time>
      </trkpt>
      <trkpt lat="47.45429" lon="6.78649">
        <ele>339.4</ele>
        <time>2014-11-02T09:10:02.000Z</time>
      </trkpt>
      <trkpt lat="47.45432" lon="6.78657">
        <ele>339.5</ele>
        <time>2014-11-02T09:10:05.000Z</time>
      </trkpt>
      <trkpt lat="47.45434" lon="6.78659">
        <ele>339.2</ele>
        <time>2014-11-02T09:10:06.000Z</time>
      </trkpt>
      <trkpt lat="47.45435" lon="6.78663">
        <ele>340.3</ele>
        <time>2014-11-02T09:10:07.000Z</time>
      </trkpt>
      <trkpt lat="47.45436" lon="6.78666">
        <ele>339.9</ele>
        <time>2014-11-02T09:10:08.000Z</time>
      </trkpt>
      <trkpt lat="47.45438" lon="6.78668">
        <ele>340.6</ele>
        <time>2014-11-02T09:10:09.000Z</time>
      </trkpt>
      <trkpt lat="47.4544" lon="6.78673">
        <ele>341.2</ele>
        <time>2014-11-02T09:10:11.000Z</time>
      </trkpt>
      <trkpt lat="47.45442" lon="6.78676">
        <ele>341.3</ele>
        <time>2014-11-02T09:10:12.000Z</time>
      </trkpt>
      <trkpt lat="47.45444" lon="6.78681">
        <ele>341.3</ele>
        <time>2014-11-02T09:10:14.000Z</time>
      </trkpt>
      <trkpt lat="47.45445" lon="6.78683">
        <ele>341.8</ele>
        <time>2014-11-02T09:10:15.000Z</time>
      </trkpt>
      <trkpt lat="47.45447" lon="6.78687">
        <ele>342</ele>
        <time>2014-11-02T09:10:17.000Z</time>
      </trkpt>
      <trkpt lat="47.45448" lon="6.78689">
        <ele>341.7</ele>
        <time>2014-11-02T09:10:18.000Z</time>
      </trkpt>
      <trkpt lat="47.4545" lon="6.78692">
        <ele>342</ele>
        <time>2014-11-02T09:10:20.000Z</time>
      </trkpt>
      <trkpt lat="47.45451" lon="6.78694">
        <ele>342.4</ele>
        <time>2014-11-02T09:10:21.000Z</time>
      </trkpt>
      <trkpt lat="47.45454" lon="6.78699">
        <ele>342.2</ele>
        <time>2014-11-02T09:10:23.000Z</time>
      </trkpt>
      <trkpt lat="47.45455" lon="6.78702">
        <ele>341.9</ele>
        <time>2014-11-02T09:10:24.000Z</time>
      </trkpt>
      <trkpt lat="47.45457" lon="6.78705">
        <ele>341.7</ele>
        <time>2014-11-02T09:10:25.000Z</time>
      </trkpt>
      <trkpt lat="47.45458" lon="6.78708">
        <ele>341.4</ele>
        <time>2014-11-02T09:10:26.000Z</time>
      </trkpt>
      <trkpt lat="47.4546" lon="6.78713">
        <ele>340.6</ele>
        <time>2014-11-02T09:10:46.000Z</time>
      </trkpt>
      <trkpt lat="47.45461" lon="6.78714">
        <ele>340.3</ele>
        <time>2014-11-02T09:10:47.000Z</time>
      </trkpt>
      <trkpt lat="47.45463" lon="6.78719">
        <ele>339.9</ele>
        <time>2014-11-02T09:10:49.000Z</time>
      </trkpt>
      <trkpt lat="47.45465" lon="6.78722">
        <ele>340.4</ele>
        <time>2014-11-02T09:10:50.000Z</time>
      </trkpt>
      <trkpt lat="47.45467" lon="6.78726">
        <ele>340.3</ele>
        <time>2014-11-02T09:10:51.000Z</time>
      </trkpt>
      <trkpt lat="47.45469" lon="6.7873">
        <ele>340.8</ele>
        <time>2014-11-02T09:10:52.000Z</time>
      </trkpt>
      <trkpt lat="47.45472" lon="6.78735">
        <ele>340.4</ele>
        <time>2014-11-02T09:10:53.000Z</time>
      </trkpt>
      <trkpt lat="47.45475" lon="6.78741">
        <ele>340.2</ele>
        <time>2014-11-02T09:10:54.000Z</time>
      </trkpt>
      <trkpt lat="47.45481" lon="6.7875">
        <ele>340</ele>
        <time>2014-11-02T09:10:55.000Z</time>
      </trkpt>
      <trkpt lat="47.45482" lon="6.78756">
        <ele>339.5</ele>
        <time>2014-11-02T09:10:56.000Z</time>
      </trkpt>
      <trkpt lat="47.45483" lon="6.78763">
        <ele>339.5</ele>
        <time>2014-11-02T09:10:57.000Z</time>
      </trkpt>
      <trkpt lat="47.45477" lon="6.78766">
        <ele>339.6</ele>
        <time>2014-11-02T09:10:58.000Z</time>
      </trkpt>
      <trkpt lat="47.45473" lon="6.78771">
        <ele>339.2</ele>
        <time>2014-11-02T09:10:59.000Z</time>
      </trkpt>
      <trkpt lat="47.45468" lon="6.78775">
        <ele>339.2</ele>
        <time>2014-11-02T09:11:00.000Z</time>
      </trkpt>
      <trkpt lat="47.45463" lon="6.78781">
        <ele>338.4</ele>
        <time>2014-11-02T09:11:01.000Z</time>
      </trkpt>
      <trkpt lat="47.45458" lon="6.78787">
        <ele>338.1</ele>
        <time>2014-11-02T09:11:02.000Z</time>
      </trkpt>
      <trkpt lat="47.45445" lon="6.78802">
        <ele>338.3</ele>
        <time>2014-11-02T09:11:05.000Z</time>
      </trkpt>
      <trkpt lat="47.4544" lon="6.78809">
        <ele>337.7</ele>
        <time>2014-11-02T09:11:06.000Z</time>
      </trkpt>
      <trkpt lat="47.45435" lon="6.78815">
        <ele>337</ele>
        <time>2014-11-02T09:11:07.000Z</time>
      </trkpt>
      <trkpt lat="47.4543" lon="6.78822">
        <ele>337.1</ele>
        <time>2014-11-02T09:11:08.001Z</time>
      </trkpt>
      <trkpt lat="47.45427" lon="6.78827">
        <ele>336.5</ele>
        <time>2014-11-02T09:11:09.000Z</time>
      </trkpt>
      <trkpt lat="47.45423" lon="6.78833">
        <ele>336.2</ele>
        <time>2014-11-02T09:11:10.000Z</time>
      </trkpt>
      <trkpt lat="47.45418" lon="6.7884">
        <ele>336.1</ele>
        <time>2014-11-02T09:11:11.001Z</time>
      </trkpt>
      <trkpt lat="47.45411" lon="6.78847">
        <ele>335</ele>
        <time>2014-11-02T09:11:12.000Z</time>
      </trkpt>
      <trkpt lat="47.45406" lon="6.78852">
        <ele>334.7</ele>
        <time>2014-11-02T09:11:13.000Z</time>
      </trkpt>
      <trkpt lat="47.45402" lon="6.78858">
        <ele>334.6</ele>
        <time>2014-11-02T09:11:14.000Z</time>
      </trkpt>
      <trkpt lat="47.45398" lon="6.78864">
        <ele>334</ele>
        <time>2014-11-02T09:11:15.000Z</time>
      </trkpt>
      <trkpt lat="47.45393" lon="6.78869">
        <ele>333.5</ele>
        <time>2014-11-02T09:11:16.000Z</time>
      </trkpt>
      <trkpt lat="47.4539" lon="6.78873">
        <ele>334.1</ele>
        <time>2014-11-02T09:11:17.001Z</time>
      </trkpt>
      <trkpt lat="47.45386" lon="6.78875">
        <ele>334.4</ele>
        <time>2014-11-02T09:11:18.000Z</time>
      </trkpt>
      <trkpt lat="47.45383" lon="6.78878">
        <ele>334.7</ele>
        <time>2014-11-02T09:11:19.000Z</time>
      </trkpt>
      <trkpt lat="47.4538" lon="6.78879">
        <ele>334</ele>
        <time>2014-11-02T09:11:20.000Z</time>
      </trkpt>
      <trkpt lat="47.45377" lon="6.7888">
        <ele>334.5</ele>
        <time>2014-11-02T09:11:21.000Z</time>
      </trkpt>
      <trkpt lat="47.45375" lon="6.78882">
        <ele>334.7</ele>
        <time>2014-11-02T09:11:22.000Z</time>
      </trkpt>
      <trkpt lat="47.45371" lon="6.78885">
        <ele>334.6</ele>
        <time>2014-11-02T09:11:23.000Z</time>
      </trkpt>
      <trkpt lat="47.45368" lon="6.78888">
        <ele>334.9</ele>
        <time>2014-11-02T09:11:24.000Z</time>
      </trkpt>
      <trkpt lat="47.45364" lon="6.78892">
        <ele>335</ele>
        <time>2014-11-02T09:11:25.000Z</time>
      </trkpt>
      <trkpt lat="47.45361" lon="6.78895">
        <ele>335.2</ele>
        <time>2014-11-02T09:11:26.000Z</time>
      </trkpt>
      <trkpt lat="47.45358" lon="6.78899">
        <ele>335.1</ele>
        <time>2014-11-02T09:11:27.000Z</time>
      </trkpt>
      <trkpt lat="47.45355" lon="6.78904">
        <ele>334.6</ele>
        <time>2014-11-02T09:11:28.000Z</time>
      </trkpt>
      <trkpt lat="47.45352" lon="6.78908">
        <ele>334.4</ele>
        <time>2014-11-02T09:11:29.000Z</time>
      </trkpt>
      <trkpt lat="47.45349" lon="6.78913">
        <ele>334.7</ele>
        <time>2014-11-02T09:11:30.000Z</time>
      </trkpt>
      <trkpt lat="47.45347" lon="6.78917">
        <ele>334.9</ele>
        <time>2014-11-02T09:11:31.000Z</time>
      </trkpt>
      <trkpt lat="47.45345" lon="6.78921">
        <ele>334.9</ele>
        <time>2014-11-02T09:11:32.000Z</time>
      </trkpt>
      <trkpt lat="47.45343" lon="6.78925">
        <ele>334.8</ele>
        <time>2014-11-02T09:11:33.000Z</time>
      </trkpt>
      <trkpt lat="47.45341" lon="6.78929">
        <ele>334.8</ele>
        <time>2014-11-02T09:11:34.000Z</time>
      </trkpt>
      <trkpt lat="47.45339" lon="6.78933">
        <ele>335</ele>
        <time>2014-11-02T09:11:35.000Z</time>
      </trkpt>
      <trkpt lat="47.45337" lon="6.78937">
        <ele>335.2</ele>
        <time>2014-11-02T09:11:36.000Z</time>
      </trkpt>
      <trkpt lat="47.45335" lon="6.7894">
        <ele>334.7</ele>
        <time>2014-11-02T09:11:37.000Z</time>
      </trkpt>
      <trkpt lat="47.45333" lon="6.78944">
        <ele>335.1</ele>
        <time>2014-11-02T09:11:38.000Z</time>
      </trkpt>
      <trkpt lat="47.4533" lon="6.78947">
        <ele>335</ele>
        <time>2014-11-02T09:11:39.000Z</time>
      </trkpt>
      <trkpt lat="47.45327" lon="6.78949">
        <ele>335.1</ele>
        <time>2014-11-02T09:11:40.000Z</time>
      </trkpt>
      <trkpt lat="47.45324" lon="6.7895">
        <ele>335</ele>
        <time>2014-11-02T09:11:41.000Z</time>
      </trkpt>
      <trkpt lat="47.45321" lon="6.78952">
        <ele>335.3</ele>
        <time>2014-11-02T09:11:42.000Z</time>
      </trkpt>
      <trkpt lat="47.45319" lon="6.78954">
        <ele>335.1</ele>
        <time>2014-11-02T09:11:43.000Z</time>
      </trkpt>
      <trkpt lat="47.45317" lon="6.78957">
        <ele>335.1</ele>
        <time>2014-11-02T09:11:44.000Z</time>
      </trkpt>
      <trkpt lat="47.45315" lon="6.7896">
        <ele>335.4</ele>
        <time>2014-11-02T09:11:45.000Z</time>
      </trkpt>
      <trkpt lat="47.45313" lon="6.78964">
        <ele>335.1</ele>
        <time>2014-11-02T09:11:46.000Z</time>
      </trkpt>
      <trkpt lat="47.4531" lon="6.78967">
        <ele>335.1</ele>
        <time>2014-11-02T09:11:47.000Z</time>
      </trkpt>
      <trkpt lat="47.45308" lon="6.78971">
        <ele>335.3</ele>
        <time>2014-11-02T09:11:48.000Z</time>
      </trkpt>
      <trkpt lat="47.45306" lon="6.78974">
        <ele>335.6</ele>
        <time>2014-11-02T09:11:49.000Z</time>
      </trkpt>
      <trkpt lat="47.45303" lon="6.78978">
        <ele>335.5</ele>
        <time>2014-11-02T09:11:50.000Z</time>
      </trkpt>
      <trkpt lat="47.45301" lon="6.78981">
        <ele>335.7</ele>
        <time>2014-11-02T09:11:51.000Z</time>
      </trkpt>
      <trkpt lat="47.45299" lon="6.78985">
        <ele>336.4</ele>
        <time>2014-11-02T09:11:52.000Z</time>
      </trkpt>
      <trkpt lat="47.45297" lon="6.7899">
        <ele>335.8</ele>
        <time>2014-11-02T09:11:53.000Z</time>
      </trkpt>
      <trkpt lat="47.45295" lon="6.78994">
        <ele>335.7</ele>
        <time>2014-11-02T09:11:54.000Z</time>
      </trkpt>
      <trkpt lat="47.45293" lon="6.78999">
        <ele>335.4</ele>
        <time>2014-11-02T09:11:55.000Z</time>
      </trkpt>
      <trkpt lat="47.4529" lon="6.79004">
        <ele>335.2</ele>
        <time>2014-11-02T09:11:56.000Z</time>
      </trkpt>
      <trkpt lat="47.45288" lon="6.79009">
        <ele>334.7</ele>
        <time>2014-11-02T09:11:57.000Z</time>
      </trkpt>
      <trkpt lat="47.45285" lon="6.79013">
        <ele>334.3</ele>
        <time>2014-11-02T09:11:58.000Z</time>
      </trkpt>
      <trkpt lat="47.45282" lon="6.79018">
        <ele>334.8</ele>
        <time>2014-11-02T09:11:59.000Z</time>
      </trkpt>
      <trkpt lat="47.4528" lon="6.79021">
        <ele>335.1</ele>
        <time>2014-11-02T09:12:00.000Z</time>
      </trkpt>
      <trkpt lat="47.45277" lon="6.79025">
        <ele>335.1</ele>
        <time>2014-11-02T09:12:01.000Z</time>
      </trkpt>
      <trkpt lat="47.45274" lon="6.79029">
        <ele>335.1</ele>
        <time>2014-11-02T09:12:02.000Z</time>
      </trkpt>
      <trkpt lat="47.45268" lon="6.79038">
        <ele>335.8</ele>
        <time>2014-11-02T09:12:05.000Z</time>
      </trkpt>
      <trkpt lat="47.45267" lon="6.79045">
        <ele>336.1</ele>
        <time>2014-11-02T09:12:07.000Z</time>
      </trkpt>
      <trkpt lat="47.45267" lon="6.79048">
        <ele>335.6</ele>
        <time>2014-11-02T09:12:08.000Z</time>
      </trkpt>
      <trkpt lat="47.45267" lon="6.79053">
        <ele>335.6</ele>
        <time>2014-11-02T09:12:09.000Z</time>
      </trkpt>
      <trkpt lat="47.45266" lon="6.79058">
        <ele>336.4</ele>
        <time>2014-11-02T09:12:10.000Z</time>
      </trkpt>
      <trkpt lat="47.45265" lon="6.79063">
        <ele>335.8</ele>
        <time>2014-11-02T09:12:11.000Z</time>
      </trkpt>
      <trkpt lat="47.45264" lon="6.79068">
        <ele>336</ele>
        <time>2014-11-02T09:12:12.000Z</time>
      </trkpt>
      <trkpt lat="47.45262" lon="6.79072">
        <ele>336.1</ele>
        <time>2014-11-02T09:12:13.000Z</time>
      </trkpt>
      <trkpt lat="47.45259" lon="6.79077">
        <ele>336.6</ele>
        <time>2014-11-02T09:12:14.000Z</time>
      </trkpt>
      <trkpt lat="47.45257" lon="6.79082">
        <ele>336.8</ele>
        <time>2014-11-02T09:12:15.000Z</time>
      </trkpt>
      <trkpt lat="47.45255" lon="6.79088">
        <ele>336.5</ele>
        <time>2014-11-02T09:12:16.000Z</time>
      </trkpt>
      <trkpt lat="47.45253" lon="6.79093">
        <ele>336.7</ele>
        <time>2014-11-02T09:12:17.000Z</time>
      </trkpt>
      <trkpt lat="47.45252" lon="6.79098">
        <ele>337.2</ele>
        <time>2014-11-02T09:12:18.000Z</time>
      </trkpt>
      <trkpt lat="47.4525" lon="6.79103">
        <ele>337.2</ele>
        <time>2014-11-02T09:12:18.999Z</time>
      </trkpt>
      <trkpt lat="47.45248" lon="6.79107">
        <ele>336.6</ele>
        <time>2014-11-02T09:12:20.000Z</time>
      </trkpt>
      <trkpt lat="47.45246" lon="6.79112">
        <ele>336.1</ele>
        <time>2014-11-02T09:12:21.000Z</time>
      </trkpt>
      <trkpt lat="47.45244" lon="6.79117">
        <ele>336.7</ele>
        <time>2014-11-02T09:12:22.000Z</time>
      </trkpt>
      <trkpt lat="47.45242" lon="6.79121">
        <ele>336.6</ele>
        <time>2014-11-02T09:12:23.000Z</time>
      </trkpt>
      <trkpt lat="47.45237" lon="6.79123">
        <ele>336.8</ele>
        <time>2014-11-02T09:12:24.000Z</time>
      </trkpt>
      <trkpt lat="47.45233" lon="6.79125">
        <ele>336.8</ele>
        <time>2014-11-02T09:12:25.000Z</time>
      </trkpt>
      <trkpt lat="47.4523" lon="6.79127">
        <ele>335.9</ele>
        <time>2014-11-02T09:12:26.000Z</time>
      </trkpt>
      <trkpt lat="47.45226" lon="6.79127">
        <ele>337.4</ele>
        <time>2014-11-02T09:12:27.000Z</time>
      </trkpt>
      <trkpt lat="47.45223" lon="6.79128">
        <ele>337.7</ele>
        <time>2014-11-02T09:12:28.000Z</time>
      </trkpt>
      <trkpt lat="47.4522" lon="6.79129">
        <ele>338.8</ele>
        <time>2014-11-02T09:12:29.000Z</time>
      </trkpt>
      <trkpt lat="47.45218" lon="6.79132">
        <ele>339.2</ele>
        <time>2014-11-02T09:12:30.000Z</time>
      </trkpt>
      <trkpt lat="47.45217" lon="6.79137">
        <ele>339.1</ele>
        <time>2014-11-02T09:12:31.000Z</time>
      </trkpt>
      <trkpt lat="47.45215" lon="6.79141">
        <ele>339.2</ele>
        <time>2014-11-02T09:12:32.000Z</time>
      </trkpt>
      <trkpt lat="47.45213" lon="6.79146">
        <ele>338.9</ele>
        <time>2014-11-02T09:12:33.000Z</time>
      </trkpt>
      <trkpt lat="47.45212" lon="6.79151">
        <ele>339.3</ele>
        <time>2014-11-02T09:12:34.000Z</time>
      </trkpt>
      <trkpt lat="47.4521" lon="6.79156">
        <ele>338.5</ele>
        <time>2014-11-02T09:12:35.000Z</time>
      </trkpt>
      <trkpt lat="47.45208" lon="6.79161">
        <ele>337.6</ele>
        <time>2014-11-02T09:12:36.000Z</time>
      </trkpt>
      <trkpt lat="47.45207" lon="6.79166">
        <ele>338.8</ele>
        <time>2014-11-02T09:12:37.000Z</time>
      </trkpt>
      <trkpt lat="47.45205" lon="6.79172">
        <ele>338.2</ele>
        <time>2014-11-02T09:12:38.000Z</time>
      </trkpt>
      <trkpt lat="47.45204" lon="6.79177">
        <ele>337.5</ele>
        <time>2014-11-02T09:12:39.000Z</time>
      </trkpt>
      <trkpt lat="47.45203" lon="6.79183">
        <ele>336.8</ele>
        <time>2014-11-02T09:12:40.000Z</time>
      </trkpt>
      <trkpt lat="47.45201" lon="6.79189">
        <ele>336.3</ele>
        <time>2014-11-02T09:12:41.000Z</time>
      </trkpt>
      <trkpt lat="47.452" lon="6.79195">
        <ele>336.7</ele>
        <time>2014-11-02T09:12:42.000Z</time>
      </trkpt>
      <trkpt lat="47.452" lon="6.79202">
        <ele>337</ele>
        <time>2014-11-02T09:12:43.000Z</time>
      </trkpt>
      <trkpt lat="47.45199" lon="6.79208">
        <ele>337</ele>
        <time>2014-11-02T09:12:44.000Z</time>
      </trkpt>
      <trkpt lat="47.45197" lon="6.79214">
        <ele>336.5</ele>
        <time>2014-11-02T09:12:45.000Z</time>
      </trkpt>
      <trkpt lat="47.45195" lon="6.79221">
        <ele>336.5</ele>
        <time>2014-11-02T09:12:46.000Z</time>
      </trkpt>
      <trkpt lat="47.45192" lon="6.79227">
        <ele>336.6</ele>
        <time>2014-11-02T09:12:47.000Z</time>
      </trkpt>
      <trkpt lat="47.4519" lon="6.79233">
        <ele>336.3</ele>
        <time>2014-11-02T09:12:48.000Z</time>
      </trkpt>
      <trkpt lat="47.45187" lon="6.79239">
        <ele>336.1</ele>
        <time>2014-11-02T09:12:49.000Z</time>
      </trkpt>
      <trkpt lat="47.45185" lon="6.79245">
        <ele>335.6</ele>
        <time>2014-11-02T09:12:50.000Z</time>
      </trkpt>
      <trkpt lat="47.45183" lon="6.79252">
        <ele>335.4</ele>
        <time>2014-11-02T09:12:51.000Z</time>
      </trkpt>
      <trkpt lat="47.45181" lon="6.79261">
        <ele>335.1</ele>
        <time>2014-11-02T09:12:52.000Z</time>
      </trkpt>
      <trkpt lat="47.45179" lon="6.79268">
        <ele>334.8</ele>
        <time>2014-11-02T09:12:53.000Z</time>
      </trkpt>
      <trkpt lat="47.45178" lon="6.79277">
        <ele>333.6</ele>
        <time>2014-11-02T09:12:54.000Z</time>
      </trkpt>
      <trkpt lat="47.45176" lon="6.79284">
        <ele>332.9</ele>
        <time>2014-11-02T09:12:55.000Z</time>
      </trkpt>
      <trkpt lat="47.45174" lon="6.79293">
        <ele>333.2</ele>
        <time>2014-11-02T09:12:56.000Z</time>
      </trkpt>
      <trkpt lat="47.45171" lon="6.79301">
        <ele>334</ele>
        <time>2014-11-02T09:12:57.000Z</time>
      </trkpt>
      <trkpt lat="47.45169" lon="6.79308">
        <ele>334.7</ele>
        <time>2014-11-02T09:12:58.000Z</time>
      </trkpt>
      <trkpt lat="47.45167" lon="6.79316">
        <ele>334.4</ele>
        <time>2014-11-02T09:12:59.000Z</time>
      </trkpt>
      <trkpt lat="47.45164" lon="6.79323">
        <ele>335.2</ele>
        <time>2014-11-02T09:13:00.000Z</time>
      </trkpt>
      <trkpt lat="47.45163" lon="6.79332">
        <ele>335.4</ele>
        <time>2014-11-02T09:13:01.000Z</time>
      </trkpt>
      <trkpt lat="47.45161" lon="6.79338">
        <ele>335.1</ele>
        <time>2014-11-02T09:13:02.000Z</time>
      </trkpt>
      <trkpt lat="47.45155" lon="6.79357">
        <ele>336.1</ele>
        <time>2014-11-02T09:13:05.000Z</time>
      </trkpt>
      <trkpt lat="47.45153" lon="6.79365">
        <ele>335.9</ele>
        <time>2014-11-02T09:13:06.000Z</time>
      </trkpt>
      <trkpt lat="47.45152" lon="6.79375">
        <ele>335.9</ele>
        <time>2014-11-02T09:13:07.000Z</time>
      </trkpt>
      <trkpt lat="47.4515" lon="6.79381">
        <ele>335.7</ele>
        <time>2014-11-02T09:13:08.000Z</time>
      </trkpt>
      <trkpt lat="47.4515" lon="6.79389">
        <ele>336.1</ele>
        <time>2014-11-02T09:13:09.000Z</time>
      </trkpt>
      <trkpt lat="47.45148" lon="6.79396">
        <ele>336.3</ele>
        <time>2014-11-02T09:13:10.000Z</time>
      </trkpt>
      <trkpt lat="47.45146" lon="6.79403">
        <ele>336.2</ele>
        <time>2014-11-02T09:13:11.000Z</time>
      </trkpt>
      <trkpt lat="47.45145" lon="6.7941">
        <ele>336.2</ele>
        <time>2014-11-02T09:13:12.001Z</time>
      </trkpt>
      <trkpt lat="47.45143" lon="6.79415">
        <ele>336.2</ele>
        <time>2014-11-02T09:13:13.000Z</time>
      </trkpt>
      <trkpt lat="47.4514" lon="6.79419">
        <ele>336.4</ele>
        <time>2014-11-02T09:13:14.000Z</time>
      </trkpt>
      <trkpt lat="47.45137" lon="6.79426">
        <ele>336.8</ele>
        <time>2014-11-02T09:13:15.000Z</time>
      </trkpt>
      <trkpt lat="47.45137" lon="6.79433">
        <ele>336.8</ele>
        <time>2014-11-02T09:13:16.000Z</time>
      </trkpt>
      <trkpt lat="47.45136" lon="6.79439">
        <ele>337.1</ele>
        <time>2014-11-02T09:13:17.000Z</time>
      </trkpt>
      <trkpt lat="47.45135" lon="6.79445">
        <ele>337.2</ele>
        <time>2014-11-02T09:13:18.000Z</time>
      </trkpt>
      <trkpt lat="47.45133" lon="6.79453">
        <ele>335.3</ele>
        <time>2014-11-02T09:13:19.000Z</time>
      </trkpt>
      <trkpt lat="47.45131" lon="6.7946">
        <ele>335</ele>
        <time>2014-11-02T09:13:19.999Z</time>
      </trkpt>
      <trkpt lat="47.45131" lon="6.79467">
        <ele>334.4</ele>
        <time>2014-11-02T09:13:21.000Z</time>
      </trkpt>
      <trkpt lat="47.4513" lon="6.79473">
        <ele>335.2</ele>
        <time>2014-11-02T09:13:22.000Z</time>
      </trkpt>
      <trkpt lat="47.45128" lon="6.7948">
        <ele>335.5</ele>
        <time>2014-11-02T09:13:23.000Z</time>
      </trkpt>
      <trkpt lat="47.45126" lon="6.79486">
        <ele>335.4</ele>
        <time>2014-11-02T09:13:24.000Z</time>
      </trkpt>
      <trkpt lat="47.45125" lon="6.79494">
        <ele>336.1</ele>
        <time>2014-11-02T09:13:25.000Z</time>
      </trkpt>
      <trkpt lat="47.45124" lon="6.795">
        <ele>335.6</ele>
        <time>2014-11-02T09:13:26.000Z</time>
      </trkpt>
      <trkpt lat="47.45122" lon="6.79507">
        <ele>335.3</ele>
        <time>2014-11-02T09:13:27.000Z</time>
      </trkpt>
      <trkpt lat="47.45121" lon="6.79514">
        <ele>336.2</ele>
        <time>2014-11-02T09:13:28.000Z</time>
      </trkpt>
      <trkpt lat="47.4512" lon="6.79521">
        <ele>336.3</ele>
        <time>2014-11-02T09:13:29.000Z</time>
      </trkpt>
      <trkpt lat="47.45117" lon="6.79527">
        <ele>335.8</ele>
        <time>2014-11-02T09:13:30.000Z</time>
      </trkpt>
      <trkpt lat="47.45113" lon="6.79532">
        <ele>335.5</ele>
        <time>2014-11-02T09:13:31.000Z</time>
      </trkpt>
      <trkpt lat="47.45109" lon="6.79538">
        <ele>335.4</ele>
        <time>2014-11-02T09:13:32.000Z</time>
      </trkpt>
      <trkpt lat="47.45106" lon="6.79543">
        <ele>335.2</ele>
        <time>2014-11-02T09:13:33.000Z</time>
      </trkpt>
      <trkpt lat="47.45102" lon="6.79548">
        <ele>335.4</ele>
        <time>2014-11-02T09:13:34.000Z</time>
      </trkpt>
      <trkpt lat="47.45098" lon="6.79554">
        <ele>335.1</ele>
        <time>2014-11-02T09:13:35.000Z</time>
      </trkpt>
      <trkpt lat="47.45095" lon="6.7956">
        <ele>336</ele>
        <time>2014-11-02T09:13:36.000Z</time>
      </trkpt>
      <trkpt lat="47.45091" lon="6.79565">
        <ele>335.5</ele>
        <time>2014-11-02T09:13:37.000Z</time>
      </trkpt>
      <trkpt lat="47.45088" lon="6.7957">
        <ele>336.1</ele>
        <time>2014-11-02T09:13:38.000Z</time>
      </trkpt>
      <trkpt lat="47.45084" lon="6.79575">
        <ele>336</ele>
        <time>2014-11-02T09:13:39.000Z</time>
      </trkpt>
      <trkpt lat="47.45081" lon="6.7958">
        <ele>336</ele>
        <time>2014-11-02T09:13:40.000Z</time>
      </trkpt>
      <trkpt lat="47.45077" lon="6.79585">
        <ele>336.4</ele>
        <time>2014-11-02T09:13:41.000Z</time>
      </trkpt>
      <trkpt lat="47.45074" lon="6.7959">
        <ele>336.5</ele>
        <time>2014-11-02T09:13:42.000Z</time>
      </trkpt>
      <trkpt lat="47.45071" lon="6.79594">
        <ele>336.5</ele>
        <time>2014-11-02T09:13:43.000Z</time>
      </trkpt>
      <trkpt lat="47.45067" lon="6.79599">
        <ele>336.6</ele>
        <time>2014-11-02T09:13:44.000Z</time>
      </trkpt>
      <trkpt lat="47.45064" lon="6.79604">
        <ele>336.6</ele>
        <time>2014-11-02T09:13:45.000Z</time>
      </trkpt>
      <trkpt lat="47.45061" lon="6.79609">
        <ele>337</ele>
        <time>2014-11-02T09:13:46.000Z</time>
      </trkpt>
      <trkpt lat="47.45058" lon="6.79613">
        <ele>336.6</ele>
        <time>2014-11-02T09:13:47.000Z</time>
      </trkpt>
      <trkpt lat="47.45054" lon="6.79615">
        <ele>335.6</ele>
        <time>2014-11-02T09:13:48.000Z</time>
      </trkpt>
      <trkpt lat="47.45052" lon="6.79617">
        <ele>336.7</ele>
        <time>2014-11-02T09:13:49.000Z</time>
      </trkpt>
      <trkpt lat="47.4505" lon="6.7962">
        <ele>336.8</ele>
        <time>2014-11-02T09:13:50.000Z</time>
      </trkpt>
      <trkpt lat="47.45048" lon="6.79623">
        <ele>337.3</ele>
        <time>2014-11-02T09:13:51.000Z</time>
      </trkpt>
      <trkpt lat="47.45047" lon="6.79627">
        <ele>337.4</ele>
        <time>2014-11-02T09:13:52.000Z</time>
      </trkpt>
      <trkpt lat="47.45046" lon="6.79631">
        <ele>337.9</ele>
        <time>2014-11-02T09:13:53.000Z</time>
      </trkpt>
      <trkpt lat="47.45044" lon="6.79635">
        <ele>338.2</ele>
        <time>2014-11-02T09:13:54.000Z</time>
      </trkpt>
      <trkpt lat="47.45042" lon="6.79639">
        <ele>338</ele>
        <time>2014-11-02T09:13:55.000Z</time>
      </trkpt>
      <trkpt lat="47.45041" lon="6.79644">
        <ele>338.1</ele>
        <time>2014-11-02T09:13:56.000Z</time>
      </trkpt>
      <trkpt lat="47.45039" lon="6.79648">
        <ele>338.4</ele>
        <time>2014-11-02T09:13:57.000Z</time>
      </trkpt>
      <trkpt lat="47.45038" lon="6.79653">
        <ele>338.5</ele>
        <time>2014-11-02T09:13:58.000Z</time>
      </trkpt>
      <trkpt lat="47.45038" lon="6.79657">
        <ele>338.5</ele>
        <time>2014-11-02T09:13:59.000Z</time>
      </trkpt>
      <trkpt lat="47.45037" lon="6.79661">
        <ele>338.4</ele>
        <time>2014-11-02T09:14:00.000Z</time>
      </trkpt>
      <trkpt lat="47.45037" lon="6.79665">
        <ele>337.7</ele>
        <time>2014-11-02T09:14:01.000Z</time>
      </trkpt>
      <trkpt lat="47.45037" lon="6.79668">
        <ele>338</ele>
        <time>2014-11-02T09:14:02.000Z</time>
      </trkpt>
      <trkpt lat="47.45036" lon="6.79679">
        <ele>338.5</ele>
        <time>2014-11-02T09:14:05.000Z</time>
      </trkpt>
      <trkpt lat="47.45035" lon="6.79685">
        <ele>338.8</ele>
        <time>2014-11-02T09:14:07.000Z</time>
      </trkpt>
      <trkpt lat="47.45035" lon="6.79688">
        <ele>338.6</ele>
        <time>2014-11-02T09:14:08.000Z</time>
      </trkpt>
      <trkpt lat="47.45035" lon="6.79694">
        <ele>340.6</ele>
        <time>2014-11-02T09:14:10.000Z</time>
      </trkpt>
      <trkpt lat="47.45035" lon="6.79697">
        <ele>340.1</ele>
        <time>2014-11-02T09:14:11.000Z</time>
      </trkpt>
      <trkpt lat="47.45035" lon="6.79703">
        <ele>338.9</ele>
        <time>2014-11-02T09:14:13.000Z</time>
      </trkpt>
      <trkpt lat="47.45034" lon="6.79705">
        <ele>340</ele>
        <time>2014-11-02T09:14:14.000Z</time>
      </trkpt>
      <trkpt lat="47.45032" lon="6.7971">
        <ele>339.5</ele>
        <time>2014-11-02T09:14:18.000Z</time>
      </trkpt>
      <trkpt lat="47.45031" lon="6.79711">
        <ele>340.1</ele>
        <time>2014-11-02T09:14:19.000Z</time>
      </trkpt>
      <trkpt lat="47.45027" lon="6.79714">
        <ele>342.9</ele>
        <time>2014-11-02T09:14:23.000Z</time>
      </trkpt>
      <trkpt lat="47.45026" lon="6.79713">
        <ele>343.5</ele>
        <time>2014-11-02T09:14:24.000Z</time>
      </trkpt>
      <trkpt lat="47.45022" lon="6.7971">
        <ele>344.7</ele>
        <time>2014-11-02T09:14:28.000Z</time>
      </trkpt>
      <trkpt lat="47.45021" lon="6.7971">
        <ele>345</ele>
        <time>2014-11-02T09:14:29.000Z</time>
      </trkpt>
      <trkpt lat="47.45018" lon="6.79705">
        <ele>348</ele>
        <time>2014-11-02T09:14:34.000Z</time>
      </trkpt>
      <trkpt lat="47.45017" lon="6.79705">
        <ele>348.3</ele>
        <time>2014-11-02T09:14:35.000Z</time>
      </trkpt>
      <trkpt lat="47.45014" lon="6.79702">
        <ele>350.1</ele>
        <time>2014-11-02T09:14:39.000Z</time>
      </trkpt>
      <trkpt lat="47.45013" lon="6.79701">
        <ele>350.2</ele>
        <time>2014-11-02T09:14:40.000Z</time>
      </trkpt>
      <trkpt lat="47.45008" lon="6.797">
        <ele>350.3</ele>
        <time>2014-11-02T09:14:45.000Z</time>
      </trkpt>
      <trkpt lat="47.45007" lon="6.797">
        <ele>350.3</ele>
        <time>2014-11-02T09:14:46.000Z</time>
      </trkpt>
      <trkpt lat="47.45004" lon="6.79698">
        <ele>352.1</ele>
        <time>2014-11-02T09:14:50.000Z</time>
      </trkpt>
      <trkpt lat="47.45003" lon="6.79697">
        <ele>352.4</ele>
        <time>2014-11-02T09:14:51.000Z</time>
      </trkpt>
      <trkpt lat="47.44999" lon="6.79695">
        <ele>355.3</ele>
        <time>2014-11-02T09:14:55.000Z</time>
      </trkpt>
      <trkpt lat="47.44999" lon="6.79694">
        <ele>355.4</ele>
        <time>2014-11-02T09:14:56.000Z</time>
      </trkpt>
      <trkpt lat="47.44996" lon="6.79692">
        <ele>355.9</ele>
        <time>2014-11-02T09:14:59.000Z</time>
      </trkpt>
      <trkpt lat="47.44994" lon="6.79691">
        <ele>356.3</ele>
        <time>2014-11-02T09:15:00.000Z</time>
      </trkpt>
      <trkpt lat="47.44991" lon="6.7969">
        <ele>355.4</ele>
        <time>2014-11-02T09:15:02.000Z</time>
      </trkpt>
      <trkpt lat="47.44987" lon="6.79689">
        <ele>355.9</ele>
        <time>2014-11-02T09:15:05.000Z</time>
      </trkpt>
      <trkpt lat="47.44982" lon="6.79688">
        <ele>357.7</ele>
        <time>2014-11-02T09:15:08.000Z</time>
      </trkpt>
      <trkpt lat="47.44981" lon="6.79688">
        <ele>358</ele>
        <time>2014-11-02T09:15:09.000Z</time>
      </trkpt>
      <trkpt lat="47.44977" lon="6.79688">
        <ele>357.7</ele>
        <time>2014-11-02T09:15:11.000Z</time>
      </trkpt>
      <trkpt lat="47.44976" lon="6.79688">
        <ele>358</ele>
        <time>2014-11-02T09:15:12.000Z</time>
      </trkpt>
      <trkpt lat="47.44972" lon="6.7969">
        <ele>358</ele>
        <time>2014-11-02T09:15:14.000Z</time>
      </trkpt>
      <trkpt lat="47.4497" lon="6.79691">
        <ele>358.1</ele>
        <time>2014-11-02T09:15:15.000Z</time>
      </trkpt>
      <trkpt lat="47.44967" lon="6.79693">
        <ele>358.4</ele>
        <time>2014-11-02T09:15:16.000Z</time>
      </trkpt>
      <trkpt lat="47.44965" lon="6.79694">
        <ele>358</ele>
        <time>2014-11-02T09:15:17.000Z</time>
      </trkpt>
      <trkpt lat="47.44964" lon="6.79696">
        <ele>357.6</ele>
        <time>2014-11-02T09:15:18.000Z</time>
      </trkpt>
      <trkpt lat="47.44962" lon="6.79698">
        <ele>357.9</ele>
        <time>2014-11-02T09:15:19.000Z</time>
      </trkpt>
      <trkpt lat="47.44959" lon="6.79702">
        <ele>357.5</ele>
        <time>2014-11-02T09:15:21.000Z</time>
      </trkpt>
      <trkpt lat="47.44958" lon="6.79705">
        <ele>357.5</ele>
        <time>2014-11-02T09:15:22.000Z</time>
      </trkpt>
      <trkpt lat="47.44956" lon="6.7971">
        <ele>357.5</ele>
        <time>2014-11-02T09:15:24.000Z</time>
      </trkpt>
      <trkpt lat="47.44955" lon="6.79712">
        <ele>357.6</ele>
        <time>2014-11-02T09:15:25.000Z</time>
      </trkpt>
      <trkpt lat="47.44954" lon="6.79718">
        <ele>357.2</ele>
        <time>2014-11-02T09:15:27.000Z</time>
      </trkpt>
      <trkpt lat="47.44954" lon="6.7972">
        <ele>357.4</ele>
        <time>2014-11-02T09:15:28.000Z</time>
      </trkpt>
      <trkpt lat="47.44951" lon="6.79724">
        <ele>358.4</ele>
        <time>2014-11-02T09:15:30.000Z</time>
      </trkpt>
      <trkpt lat="47.44949" lon="6.79726">
        <ele>358.2</ele>
        <time>2014-11-02T09:15:31.000Z</time>
      </trkpt>
      <trkpt lat="47.44946" lon="6.79729">
        <ele>358.1</ele>
        <time>2014-11-02T09:15:33.000Z</time>
      </trkpt>
      <trkpt lat="47.44944" lon="6.79731">
        <ele>358.5</ele>
        <time>2014-11-02T09:15:34.000Z</time>
      </trkpt>
      <trkpt lat="47.44941" lon="6.79734">
        <ele>358</ele>
        <time>2014-11-02T09:15:36.000Z</time>
      </trkpt>
      <trkpt lat="47.44939" lon="6.79734">
        <ele>358</ele>
        <time>2014-11-02T09:15:37.000Z</time>
      </trkpt>
      <trkpt lat="47.44935" lon="6.79735">
        <ele>358.8</ele>
        <time>2014-11-02T09:15:39.000Z</time>
      </trkpt>
      <trkpt lat="47.44934" lon="6.79735">
        <ele>359.5</ele>
        <time>2014-11-02T09:15:40.000Z</time>
      </trkpt>
      <trkpt lat="47.4493" lon="6.79736">
        <ele>359.4</ele>
        <time>2014-11-02T09:15:42.000Z</time>
      </trkpt>
      <trkpt lat="47.44929" lon="6.79736">
        <ele>359.9</ele>
        <time>2014-11-02T09:15:43.000Z</time>
      </trkpt>
      <trkpt lat="47.44925" lon="6.79737">
        <ele>360.4</ele>
        <time>2014-11-02T09:15:46.000Z</time>
      </trkpt>
      <trkpt lat="47.44924" lon="6.79738">
        <ele>360.5</ele>
        <time>2014-11-02T09:15:47.000Z</time>
      </trkpt>
      <trkpt lat="47.4492" lon="6.79739">
        <ele>359.6</ele>
        <time>2014-11-02T09:15:49.000Z</time>
      </trkpt>
      <trkpt lat="47.44918" lon="6.7974">
        <ele>358.8</ele>
        <time>2014-11-02T09:15:50.000Z</time>
      </trkpt>
      <trkpt lat="47.44914" lon="6.79739">
        <ele>360.6</ele>
        <time>2014-11-02T09:15:52.000Z</time>
      </trkpt>
      <trkpt lat="47.44912" lon="6.79738">
        <ele>360.6</ele>
        <time>2014-11-02T09:15:53.000Z</time>
      </trkpt>
      <trkpt lat="47.44909" lon="6.79735">
        <ele>360.3</ele>
        <time>2014-11-02T09:15:56.000Z</time>
      </trkpt>
      <trkpt lat="47.44908" lon="6.79735">
        <ele>360.4</ele>
        <time>2014-11-02T09:15:57.000Z</time>
      </trkpt>
      <trkpt lat="47.44904" lon="6.79738">
        <ele>359.7</ele>
        <time>2014-11-02T09:15:59.000Z</time>
      </trkpt>
      <trkpt lat="47.44903" lon="6.79739">
        <ele>359.7</ele>
        <time>2014-11-02T09:16:00.000Z</time>
      </trkpt>
      <trkpt lat="47.449" lon="6.79742">
        <ele>359.6</ele>
        <time>2014-11-02T09:16:02.000Z</time>
      </trkpt>
      <trkpt lat="47.44895" lon="6.79742">
        <ele>359.3</ele>
        <time>2014-11-02T09:16:05.000Z</time>
      </trkpt>
      <trkpt lat="47.44893" lon="6.79738">
        <ele>359.6</ele>
        <time>2014-11-02T09:16:07.000Z</time>
      </trkpt>
      <trkpt lat="47.44892" lon="6.79736">
        <ele>359.6</ele>
        <time>2014-11-02T09:16:08.000Z</time>
      </trkpt>
      <trkpt lat="47.44889" lon="6.79732">
        <ele>359.3</ele>
        <time>2014-11-02T09:16:11.000Z</time>
      </trkpt>
      <trkpt lat="47.44888" lon="6.79731">
        <ele>359.6</ele>
        <time>2014-11-02T09:16:12.000Z</time>
      </trkpt>
      <trkpt lat="47.44885" lon="6.79729">
        <ele>359.3</ele>
        <time>2014-11-02T09:16:14.000Z</time>
      </trkpt>
      <trkpt lat="47.44883" lon="6.79728">
        <ele>359.4</ele>
        <time>2014-11-02T09:16:15.000Z</time>
      </trkpt>
      <trkpt lat="47.44879" lon="6.79726">
        <ele>359.2</ele>
        <time>2014-11-02T09:16:17.000Z</time>
      </trkpt>
      <trkpt lat="47.44877" lon="6.79726">
        <ele>359.1</ele>
        <time>2014-11-02T09:16:18.000Z</time>
      </trkpt>
      <trkpt lat="47.44873" lon="6.79724">
        <ele>360</ele>
        <time>2014-11-02T09:16:20.000Z</time>
      </trkpt>
      <trkpt lat="47.44871" lon="6.79724">
        <ele>359.5</ele>
        <time>2014-11-02T09:16:21.000Z</time>
      </trkpt>
      <trkpt lat="47.44869" lon="6.79723">
        <ele>359.9</ele>
        <time>2014-11-02T09:16:22.000Z</time>
      </trkpt>
      <trkpt lat="47.44866" lon="6.79722">
        <ele>359.9</ele>
        <time>2014-11-02T09:16:23.000Z</time>
      </trkpt>
      <trkpt lat="47.44864" lon="6.79721">
        <ele>360.4</ele>
        <time>2014-11-02T09:16:24.000Z</time>
      </trkpt>
      <trkpt lat="47.44862" lon="6.7972">
        <ele>360</ele>
        <time>2014-11-02T09:16:25.000Z</time>
      </trkpt>
      <trkpt lat="47.44859" lon="6.79719">
        <ele>359.8</ele>
        <time>2014-11-02T09:16:26.000Z</time>
      </trkpt>
      <trkpt lat="47.44856" lon="6.79719">
        <ele>359.8</ele>
        <time>2014-11-02T09:16:27.000Z</time>
      </trkpt>
      <trkpt lat="47.44853" lon="6.79718">
        <ele>359.7</ele>
        <time>2014-11-02T09:16:28.000Z</time>
      </trkpt>
      <trkpt lat="47.4485" lon="6.79717">
        <ele>359.9</ele>
        <time>2014-11-02T09:16:29.000Z</time>
      </trkpt>
      <trkpt lat="47.44846" lon="6.79717">
        <ele>359.6</ele>
        <time>2014-11-02T09:16:30.000Z</time>
      </trkpt>
      <trkpt lat="47.44843" lon="6.79718">
        <ele>359.6</ele>
        <time>2014-11-02T09:16:31.000Z</time>
      </trkpt>
      <trkpt lat="47.4484" lon="6.79718">
        <ele>359.4</ele>
        <time>2014-11-02T09:16:32.000Z</time>
      </trkpt>
      <trkpt lat="47.44836" lon="6.79719">
        <ele>358.9</ele>
        <time>2014-11-02T09:16:33.000Z</time>
      </trkpt>
      <trkpt lat="47.44833" lon="6.79721">
        <ele>358.9</ele>
        <time>2014-11-02T09:16:34.000Z</time>
      </trkpt>
      <trkpt lat="47.44829" lon="6.79722">
        <ele>358.6</ele>
        <time>2014-11-02T09:16:35.000Z</time>
      </trkpt>
      <trkpt lat="47.44826" lon="6.79724">
        <ele>359.2</ele>
        <time>2014-11-02T09:16:36.000Z</time>
      </trkpt>
      <trkpt lat="47.44823" lon="6.79726">
        <ele>358.2</ele>
        <time>2014-11-02T09:16:37.000Z</time>
      </trkpt>
      <trkpt lat="47.44821" lon="6.79728">
        <ele>358.3</ele>
        <time>2014-11-02T09:16:38.000Z</time>
      </trkpt>
      <trkpt lat="47.44819" lon="6.79731">
        <ele>358.4</ele>
        <time>2014-11-02T09:16:39.000Z</time>
      </trkpt>
      <trkpt lat="47.44817" lon="6.79735">
        <ele>358.4</ele>
        <time>2014-11-02T09:16:40.000Z</time>
      </trkpt>
      <trkpt lat="47.44817" lon="6.7974">
        <ele>358.7</ele>
        <time>2014-11-02T09:16:41.000Z</time>
      </trkpt>
      <trkpt lat="47.44816" lon="6.79744">
        <ele>358.8</ele>
        <time>2014-11-02T09:16:42.000Z</time>
      </trkpt>
      <trkpt lat="47.44815" lon="6.79748">
        <ele>358.5</ele>
        <time>2014-11-02T09:16:43.000Z</time>
      </trkpt>
      <trkpt lat="47.44814" lon="6.79753">
        <ele>357.5</ele>
        <time>2014-11-02T09:16:44.000Z</time>
      </trkpt>
      <trkpt lat="47.44813" lon="6.79758">
        <ele>357.1</ele>
        <time>2014-11-02T09:16:45.000Z</time>
      </trkpt>
      <trkpt lat="47.44812" lon="6.79764">
        <ele>357.1</ele>
        <time>2014-11-02T09:16:46.000Z</time>
      </trkpt>
      <trkpt lat="47.44812" lon="6.79769">
        <ele>356.7</ele>
        <time>2014-11-02T09:16:47.000Z</time>
      </trkpt>
      <trkpt lat="47.44811" lon="6.79775">
        <ele>356.5</ele>
        <time>2014-11-02T09:16:48.000Z</time>
      </trkpt>
      <trkpt lat="47.4481" lon="6.7978">
        <ele>356.4</ele>
        <time>2014-11-02T09:16:49.000Z</time>
      </trkpt>
      <trkpt lat="47.44809" lon="6.79785">
        <ele>357.3</ele>
        <time>2014-11-02T09:16:50.000Z</time>
      </trkpt>
      <trkpt lat="47.44808" lon="6.7979">
        <ele>357.2</ele>
        <time>2014-11-02T09:16:51.000Z</time>
      </trkpt>
      <trkpt lat="47.44807" lon="6.79795">
        <ele>357.1</ele>
        <time>2014-11-02T09:16:52.000Z</time>
      </trkpt>
      <trkpt lat="47.44806" lon="6.798">
        <ele>357</ele>
        <time>2014-11-02T09:16:53.000Z</time>
      </trkpt>
      <trkpt lat="47.44805" lon="6.79806">
        <ele>357</ele>
        <time>2014-11-02T09:16:54.000Z</time>
      </trkpt>
      <trkpt lat="47.44804" lon="6.79811">
        <ele>356.7</ele>
        <time>2014-11-02T09:16:55.000Z</time>
      </trkpt>
      <trkpt lat="47.44803" lon="6.79817">
        <ele>356.4</ele>
        <time>2014-11-02T09:16:56.000Z</time>
      </trkpt>
      <trkpt lat="47.44803" lon="6.79823">
        <ele>356.6</ele>
        <time>2014-11-02T09:16:57.000Z</time>
      </trkpt>
      <trkpt lat="47.44802" lon="6.79829">
        <ele>356.5</ele>
        <time>2014-11-02T09:16:58.000Z</time>
      </trkpt>
      <trkpt lat="47.44801" lon="6.79835">
        <ele>356.3</ele>
        <time>2014-11-02T09:16:59.000Z</time>
      </trkpt>
      <trkpt lat="47.448" lon="6.79841">
        <ele>357</ele>
        <time>2014-11-02T09:17:00.000Z</time>
      </trkpt>
      <trkpt lat="47.44799" lon="6.79847">
        <ele>357.2</ele>
        <time>2014-11-02T09:17:01.000Z</time>
      </trkpt>
      <trkpt lat="47.44799" lon="6.79853">
        <ele>357.3</ele>
        <time>2014-11-02T09:17:02.000Z</time>
      </trkpt>
      <trkpt lat="47.44797" lon="6.79867">
        <ele>357.1</ele>
        <time>2014-11-02T09:17:05.000Z</time>
      </trkpt>
      <trkpt lat="47.44796" lon="6.79871">
        <ele>357.5</ele>
        <time>2014-11-02T09:17:06.000Z</time>
      </trkpt>
      <trkpt lat="47.44795" lon="6.79876">
        <ele>358.2</ele>
        <time>2014-11-02T09:17:07.000Z</time>
      </trkpt>
      <trkpt lat="47.44794" lon="6.79881">
        <ele>358</ele>
        <time>2014-11-02T09:17:08.000Z</time>
      </trkpt>
      <trkpt lat="47.44793" lon="6.79886">
        <ele>358.5</ele>
        <time>2014-11-02T09:17:09.000Z</time>
      </trkpt>
      <trkpt lat="47.44792" lon="6.79891">
        <ele>358.8</ele>
        <time>2014-11-02T09:17:10.000Z</time>
      </trkpt>
      <trkpt lat="47.44791" lon="6.79896">
        <ele>359</ele>
        <time>2014-11-02T09:17:11.000Z</time>
      </trkpt>
      <trkpt lat="47.4479" lon="6.79901">
        <ele>358.8</ele>
        <time>2014-11-02T09:17:12.000Z</time>
      </trkpt>
      <trkpt lat="47.44789" lon="6.79906">
        <ele>358.4</ele>
        <time>2014-11-02T09:17:13.000Z</time>
      </trkpt>
      <trkpt lat="47.44788" lon="6.79911">
        <ele>359.3</ele>
        <time>2014-11-02T09:17:14.000Z</time>
      </trkpt>
      <trkpt lat="47.44787" lon="6.79915">
        <ele>360.2</ele>
        <time>2014-11-02T09:17:15.000Z</time>
      </trkpt>
      <trkpt lat="47.44786" lon="6.7992">
        <ele>360.6</ele>
        <time>2014-11-02T09:17:16.000Z</time>
      </trkpt>
      <trkpt lat="47.44785" lon="6.79925">
        <ele>359.5</ele>
        <time>2014-11-02T09:17:17.000Z</time>
      </trkpt>
      <trkpt lat="47.44785" lon="6.7993">
        <ele>359.1</ele>
        <time>2014-11-02T09:17:18.000Z</time>
      </trkpt>
      <trkpt lat="47.44784" lon="6.79934">
        <ele>358.7</ele>
        <time>2014-11-02T09:17:19.000Z</time>
      </trkpt>
      <trkpt lat="47.44783" lon="6.79939">
        <ele>358.6</ele>
        <time>2014-11-02T09:17:20.000Z</time>
      </trkpt>
      <trkpt lat="47.44782" lon="6.79944">
        <ele>358.5</ele>
        <time>2014-11-02T09:17:21.000Z</time>
      </trkpt>
      <trkpt lat="47.44782" lon="6.79949">
        <ele>359.3</ele>
        <time>2014-11-02T09:17:22.000Z</time>
      </trkpt>
      <trkpt lat="47.44781" lon="6.79953">
        <ele>359.1</ele>
        <time>2014-11-02T09:17:23.000Z</time>
      </trkpt>
      <trkpt lat="47.44781" lon="6.79958">
        <ele>359</ele>
        <time>2014-11-02T09:17:24.000Z</time>
      </trkpt>
      <trkpt lat="47.4478" lon="6.79963">
        <ele>359.3</ele>
        <time>2014-11-02T09:17:25.000Z</time>
      </trkpt>
      <trkpt lat="47.4478" lon="6.79967">
        <ele>358.8</ele>
        <time>2014-11-02T09:17:26.000Z</time>
      </trkpt>
      <trkpt lat="47.44779" lon="6.7997">
        <ele>358.7</ele>
        <time>2014-11-02T09:17:27.000Z</time>
      </trkpt>
      <trkpt lat="47.44776" lon="6.79974">
        <ele>359.1</ele>
        <time>2014-11-02T09:17:30.000Z</time>
      </trkpt>
      <trkpt lat="47.44774" lon="6.79973">
        <ele>358.9</ele>
        <time>2014-11-02T09:17:31.000Z</time>
      </trkpt>
      <trkpt lat="47.44772" lon="6.79972">
        <ele>359.4</ele>
        <time>2014-11-02T09:17:32.000Z</time>
      </trkpt>
      <trkpt lat="47.44769" lon="6.79971">
        <ele>359.7</ele>
        <time>2014-11-02T09:17:33.000Z</time>
      </trkpt>
      <trkpt lat="47.44766" lon="6.79971">
        <ele>359.8</ele>
        <time>2014-11-02T09:17:34.000Z</time>
      </trkpt>
      <trkpt lat="47.44763" lon="6.7997">
        <ele>360.3</ele>
        <time>2014-11-02T09:17:35.000Z</time>
      </trkpt>
      <trkpt lat="47.4476" lon="6.79969">
        <ele>360.4</ele>
        <time>2014-11-02T09:17:36.000Z</time>
      </trkpt>
      <trkpt lat="47.44756" lon="6.79969">
        <ele>360.5</ele>
        <time>2014-11-02T09:17:37.000Z</time>
      </trkpt>
      <trkpt lat="47.44753" lon="6.79969">
        <ele>360.6</ele>
        <time>2014-11-02T09:17:38.000Z</time>
      </trkpt>
      <trkpt lat="47.44751" lon="6.79969">
        <ele>360.9</ele>
        <time>2014-11-02T09:17:39.000Z</time>
      </trkpt>
      <trkpt lat="47.44748" lon="6.79969">
        <ele>360.9</ele>
        <time>2014-11-02T09:17:40.000Z</time>
      </trkpt>
      <trkpt lat="47.44745" lon="6.79969">
        <ele>361.2</ele>
        <time>2014-11-02T09:17:41.000Z</time>
      </trkpt>
      <trkpt lat="47.44743" lon="6.79968">
        <ele>361.3</ele>
        <time>2014-11-02T09:17:42.000Z</time>
      </trkpt>
      <trkpt lat="47.4474" lon="6.79968">
        <ele>361.5</ele>
        <time>2014-11-02T09:17:43.000Z</time>
      </trkpt>
      <trkpt lat="47.44737" lon="6.79967">
        <ele>361.7</ele>
        <time>2014-11-02T09:17:44.000Z</time>
      </trkpt>
      <trkpt lat="47.44734" lon="6.79967">
        <ele>361.5</ele>
        <time>2014-11-02T09:17:45.000Z</time>
      </trkpt>
      <trkpt lat="47.44732" lon="6.79966">
        <ele>361.4</ele>
        <time>2014-11-02T09:17:46.000Z</time>
      </trkpt>
      <trkpt lat="47.44729" lon="6.79966">
        <ele>362</ele>
        <time>2014-11-02T09:17:47.000Z</time>
      </trkpt>
      <trkpt lat="47.44726" lon="6.79965">
        <ele>361.9</ele>
        <time>2014-11-02T09:17:48.000Z</time>
      </trkpt>
      <trkpt lat="47.44723" lon="6.79964">
        <ele>362.2</ele>
        <time>2014-11-02T09:17:49.000Z</time>
      </trkpt>
      <trkpt lat="47.4472" lon="6.79964">
        <ele>362.3</ele>
        <time>2014-11-02T09:17:50.000Z</time>
      </trkpt>
      <trkpt lat="47.44718" lon="6.79963">
        <ele>362.9</ele>
        <time>2014-11-02T09:17:51.000Z</time>
      </trkpt>
      <trkpt lat="47.44715" lon="6.79963">
        <ele>363.3</ele>
        <time>2014-11-02T09:17:52.000Z</time>
      </trkpt>
      <trkpt lat="47.44712" lon="6.79963">
        <ele>363.8</ele>
        <time>2014-11-02T09:17:53.000Z</time>
      </trkpt>
      <trkpt lat="47.44709" lon="6.79963">
        <ele>364.4</ele>
        <time>2014-11-02T09:17:54.000Z</time>
      </trkpt>
      <trkpt lat="47.44706" lon="6.79962">
        <ele>365</ele>
        <time>2014-11-02T09:17:55.000Z</time>
      </trkpt>
      <trkpt lat="47.44704" lon="6.79962">
        <ele>365</ele>
        <time>2014-11-02T09:17:56.000Z</time>
      </trkpt>
      <trkpt lat="47.44701" lon="6.79961">
        <ele>364.9</ele>
        <time>2014-11-02T09:17:57.000Z</time>
      </trkpt>
      <trkpt lat="47.44698" lon="6.79961">
        <ele>365.2</ele>
        <time>2014-11-02T09:17:58.000Z</time>
      </trkpt>
      <trkpt lat="47.44695" lon="6.7996">
        <ele>365.3</ele>
        <time>2014-11-02T09:17:59.000Z</time>
      </trkpt>
      <trkpt lat="47.44692" lon="6.7996">
        <ele>365.6</ele>
        <time>2014-11-02T09:18:00.000Z</time>
      </trkpt>
      <trkpt lat="47.4469" lon="6.7996">
        <ele>365.7</ele>
        <time>2014-11-02T09:18:01.000Z</time>
      </trkpt>
      <trkpt lat="47.44687" lon="6.79959">
        <ele>365.5</ele>
        <time>2014-11-02T09:18:02.000Z</time>
      </trkpt>
      <trkpt lat="47.44684" lon="6.79959">
        <ele>365.7</ele>
        <time>2014-11-02T09:18:03.000Z</time>
      </trkpt>
      <trkpt lat="47.44676" lon="6.79958">
        <ele>367</ele>
        <time>2014-11-02T09:18:06.000Z</time>
      </trkpt>
      <trkpt lat="47.44674" lon="6.79957">
        <ele>367.2</ele>
        <time>2014-11-02T09:18:07.000Z</time>
      </trkpt>
      <trkpt lat="47.44671" lon="6.79957">
        <ele>367.2</ele>
        <time>2014-11-02T09:18:08.000Z</time>
      </trkpt>
      <trkpt lat="47.44668" lon="6.79956">
        <ele>367.7</ele>
        <time>2014-11-02T09:18:09.000Z</time>
      </trkpt>
      <trkpt lat="47.44666" lon="6.79956">
        <ele>367.8</ele>
        <time>2014-11-02T09:18:10.000Z</time>
      </trkpt>
      <trkpt lat="47.44663" lon="6.79955">
        <ele>367.3</ele>
        <time>2014-11-02T09:18:11.000Z</time>
      </trkpt>
      <trkpt lat="47.4466" lon="6.79954">
        <ele>367.4</ele>
        <time>2014-11-02T09:18:12.000Z</time>
      </trkpt>
      <trkpt lat="47.44657" lon="6.79953">
        <ele>367.5</ele>
        <time>2014-11-02T09:18:13.000Z</time>
      </trkpt>
      <trkpt lat="47.44654" lon="6.79952">
        <ele>367.5</ele>
        <time>2014-11-02T09:18:14.000Z</time>
      </trkpt>
      <trkpt lat="47.44651" lon="6.79952">
        <ele>368.6</ele>
        <time>2014-11-02T09:18:15.000Z</time>
      </trkpt>
      <trkpt lat="47.44649" lon="6.79951">
        <ele>368.8</ele>
        <time>2014-11-02T09:18:16.000Z</time>
      </trkpt>
      <trkpt lat="47.44646" lon="6.79951">
        <ele>368.9</ele>
        <time>2014-11-02T09:18:17.000Z</time>
      </trkpt>
      <trkpt lat="47.44644" lon="6.7995">
        <ele>369.7</ele>
        <time>2014-11-02T09:18:18.000Z</time>
      </trkpt>
      <trkpt lat="47.44641" lon="6.7995">
        <ele>369.6</ele>
        <time>2014-11-02T09:18:19.000Z</time>
      </trkpt>
      <trkpt lat="47.44639" lon="6.7995">
        <ele>370.2</ele>
        <time>2014-11-02T09:18:20.000Z</time>
      </trkpt>
      <trkpt lat="47.44636" lon="6.7995">
        <ele>370.5</ele>
        <time>2014-11-02T09:18:21.000Z</time>
      </trkpt>
      <trkpt lat="47.44634" lon="6.7995">
        <ele>370</ele>
        <time>2014-11-02T09:18:22.000Z</time>
      </trkpt>
      <trkpt lat="47.44631" lon="6.79949">
        <ele>370.2</ele>
        <time>2014-11-02T09:18:23.000Z</time>
      </trkpt>
      <trkpt lat="47.44629" lon="6.79948">
        <ele>370.1</ele>
        <time>2014-11-02T09:18:24.000Z</time>
      </trkpt>
      <trkpt lat="47.44626" lon="6.79947">
        <ele>369.3</ele>
        <time>2014-11-02T09:18:25.000Z</time>
      </trkpt>
      <trkpt lat="47.44624" lon="6.79946">
        <ele>369</ele>
        <time>2014-11-02T09:18:26.000Z</time>
      </trkpt>
      <trkpt lat="47.44621" lon="6.79945">
        <ele>368.6</ele>
        <time>2014-11-02T09:18:27.000Z</time>
      </trkpt>
      <trkpt lat="47.44619" lon="6.79944">
        <ele>368.4</ele>
        <time>2014-11-02T09:18:28.000Z</time>
      </trkpt>
      <trkpt lat="47.44617" lon="6.79943">
        <ele>370.2</ele>
        <time>2014-11-02T09:18:29.000Z</time>
      </trkpt>
      <trkpt lat="47.44614" lon="6.79942">
        <ele>370.7</ele>
        <time>2014-11-02T09:18:30.000Z</time>
      </trkpt>
      <trkpt lat="47.44611" lon="6.79941">
        <ele>370.9</ele>
        <time>2014-11-02T09:18:31.000Z</time>
      </trkpt>
      <trkpt lat="47.44609" lon="6.7994">
        <ele>370.4</ele>
        <time>2014-11-02T09:18:32.000Z</time>
      </trkpt>
      <trkpt lat="47.44606" lon="6.79939">
        <ele>370.6</ele>
        <time>2014-11-02T09:18:33.000Z</time>
      </trkpt>
      <trkpt lat="47.44603" lon="6.79939">
        <ele>370.7</ele>
        <time>2014-11-02T09:18:34.000Z</time>
      </trkpt>
      <trkpt lat="47.446" lon="6.79938">
        <ele>371.3</ele>
        <time>2014-11-02T09:18:35.000Z</time>
      </trkpt>
      <trkpt lat="47.44597" lon="6.79938">
        <ele>371.4</ele>
        <time>2014-11-02T09:18:36.000Z</time>
      </trkpt>
      <trkpt lat="47.44594" lon="6.79937">
        <ele>371.5</ele>
        <time>2014-11-02T09:18:37.000Z</time>
      </trkpt>
      <trkpt lat="47.44591" lon="6.79937">
        <ele>372.2</ele>
        <time>2014-11-02T09:18:38.000Z</time>
      </trkpt>
      <trkpt lat="47.44588" lon="6.79936">
        <ele>372.5</ele>
        <time>2014-11-02T09:18:39.000Z</time>
      </trkpt>
      <trkpt lat="47.44585" lon="6.79936">
        <ele>372.9</ele>
        <time>2014-11-02T09:18:40.000Z</time>
      </trkpt>
      <trkpt lat="47.44582" lon="6.79935">
        <ele>372.9</ele>
        <time>2014-11-02T09:18:41.000Z</time>
      </trkpt>
      <trkpt lat="47.44578" lon="6.79934">
        <ele>372.7</ele>
        <time>2014-11-02T09:18:42.000Z</time>
      </trkpt>
      <trkpt lat="47.44575" lon="6.79934">
        <ele>372.1</ele>
        <time>2014-11-02T09:18:43.000Z</time>
      </trkpt>
      <trkpt lat="47.44572" lon="6.79933">
        <ele>372</ele>
        <time>2014-11-02T09:18:44.000Z</time>
      </trkpt>
      <trkpt lat="47.44569" lon="6.79932">
        <ele>372.1</ele>
        <time>2014-11-02T09:18:45.000Z</time>
      </trkpt>
      <trkpt lat="47.44566" lon="6.79931">
        <ele>371.9</ele>
        <time>2014-11-02T09:18:46.000Z</time>
      </trkpt>
      <trkpt lat="47.44563" lon="6.7993">
        <ele>371.4</ele>
        <time>2014-11-02T09:18:47.000Z</time>
      </trkpt>
      <trkpt lat="47.4456" lon="6.79929">
        <ele>371.6</ele>
        <time>2014-11-02T09:18:48.000Z</time>
      </trkpt>
      <trkpt lat="47.44557" lon="6.79928">
        <ele>371.8</ele>
        <time>2014-11-02T09:18:49.000Z</time>
      </trkpt>
      <trkpt lat="47.44555" lon="6.79927">
        <ele>372.6</ele>
        <time>2014-11-02T09:18:50.000Z</time>
      </trkpt>
      <trkpt lat="47.44553" lon="6.79925">
        <ele>372.1</ele>
        <time>2014-11-02T09:18:51.000Z</time>
      </trkpt>
      <trkpt lat="47.4455" lon="6.79924">
        <ele>372.7</ele>
        <time>2014-11-02T09:18:52.000Z</time>
      </trkpt>
      <trkpt lat="47.44548" lon="6.79923">
        <ele>373</ele>
        <time>2014-11-02T09:18:53.000Z</time>
      </trkpt>
      <trkpt lat="47.44546" lon="6.79922">
        <ele>373.6</ele>
        <time>2014-11-02T09:18:54.000Z</time>
      </trkpt>
      <trkpt lat="47.44543" lon="6.79921">
        <ele>373.6</ele>
        <time>2014-11-02T09:18:55.000Z</time>
      </trkpt>
      <trkpt lat="47.4454" lon="6.7992">
        <ele>373.4</ele>
        <time>2014-11-02T09:18:56.000Z</time>
      </trkpt>
      <trkpt lat="47.44537" lon="6.79919">
        <ele>373.2</ele>
        <time>2014-11-02T09:18:57.000Z</time>
      </trkpt>
      <trkpt lat="47.44534" lon="6.79918">
        <ele>373</ele>
        <time>2014-11-02T09:18:58.000Z</time>
      </trkpt>
      <trkpt lat="47.44531" lon="6.79916">
        <ele>372.7</ele>
        <time>2014-11-02T09:18:59.000Z</time>
      </trkpt>
      <trkpt lat="47.44528" lon="6.79915">
        <ele>372.3</ele>
        <time>2014-11-02T09:19:00.000Z</time>
      </trkpt>
      <trkpt lat="47.44525" lon="6.79915">
        <ele>371.9</ele>
        <time>2014-11-02T09:19:01.000Z</time>
      </trkpt>
      <trkpt lat="47.44522" lon="6.79914">
        <ele>371.9</ele>
        <time>2014-11-02T09:19:02.000Z</time>
      </trkpt>
      <trkpt lat="47.44514" lon="6.79914">
        <ele>371.4</ele>
        <time>2014-11-02T09:19:05.000Z</time>
      </trkpt>
      <trkpt lat="47.4451" lon="6.79914">
        <ele>372.7</ele>
        <time>2014-11-02T09:19:07.000Z</time>
      </trkpt>
      <trkpt lat="47.44508" lon="6.79914">
        <ele>372.5</ele>
        <time>2014-11-02T09:19:08.000Z</time>
      </trkpt>
      <trkpt lat="47.44505" lon="6.79914">
        <ele>372.3</ele>
        <time>2014-11-02T09:19:09.000Z</time>
      </trkpt>
      <trkpt lat="47.44503" lon="6.79914">
        <ele>372.5</ele>
        <time>2014-11-02T09:19:10.000Z</time>
      </trkpt>
      <trkpt lat="47.44499" lon="6.79914">
        <ele>373.7</ele>
        <time>2014-11-02T09:19:12.000Z</time>
      </trkpt>
      <trkpt lat="47.44497" lon="6.79913">
        <ele>373.9</ele>
        <time>2014-11-02T09:19:13.000Z</time>
      </trkpt>
      <trkpt lat="47.44494" lon="6.79913">
        <ele>373.4</ele>
        <time>2014-11-02T09:19:14.000Z</time>
      </trkpt>
      <trkpt lat="47.44491" lon="6.79913">
        <ele>372.8</ele>
        <time>2014-11-02T09:19:15.000Z</time>
      </trkpt>
      <trkpt lat="47.44489" lon="6.79913">
        <ele>372.4</ele>
        <time>2014-11-02T09:19:16.000Z</time>
      </trkpt>
      <trkpt lat="47.44486" lon="6.79912">
        <ele>372.8</ele>
        <time>2014-11-02T09:19:17.000Z</time>
      </trkpt>
      <trkpt lat="47.44483" lon="6.79911">
        <ele>373.1</ele>
        <time>2014-11-02T09:19:18.000Z</time>
      </trkpt>
      <trkpt lat="47.44481" lon="6.7991">
        <ele>373.5</ele>
        <time>2014-11-02T09:19:19.000Z</time>
      </trkpt>
      <trkpt lat="47.44477" lon="6.79909">
        <ele>374</ele>
        <time>2014-11-02T09:19:21.000Z</time>
      </trkpt>
      <trkpt lat="47.44475" lon="6.79908">
        <ele>374.2</ele>
        <time>2014-11-02T09:19:22.000Z</time>
      </trkpt>
      <trkpt lat="47.44471" lon="6.79906">
        <ele>374.9</ele>
        <time>2014-11-02T09:19:24.000Z</time>
      </trkpt>
      <trkpt lat="47.44469" lon="6.79905">
        <ele>375.1</ele>
        <time>2014-11-02T09:19:25.000Z</time>
      </trkpt>
      <trkpt lat="47.44465" lon="6.79903">
        <ele>375.3</ele>
        <time>2014-11-02T09:19:27.000Z</time>
      </trkpt>
      <trkpt lat="47.44463" lon="6.79902">
        <ele>375.6</ele>
        <time>2014-11-02T09:19:28.000Z</time>
      </trkpt>
      <trkpt lat="47.44459" lon="6.799">
        <ele>376</ele>
        <time>2014-11-02T09:19:30.000Z</time>
      </trkpt>
      <trkpt lat="47.44457" lon="6.79899">
        <ele>376.1</ele>
        <time>2014-11-02T09:19:31.000Z</time>
      </trkpt>
      <trkpt lat="47.44453" lon="6.79898">
        <ele>376.3</ele>
        <time>2014-11-02T09:19:33.000Z</time>
      </trkpt>
      <trkpt lat="47.44451" lon="6.79897">
        <ele>376.3</ele>
        <time>2014-11-02T09:19:34.000Z</time>
      </trkpt>
      <trkpt lat="47.44447" lon="6.79896">
        <ele>377.4</ele>
        <time>2014-11-02T09:19:36.000Z</time>
      </trkpt>
      <trkpt lat="47.44445" lon="6.79895">
        <ele>378.2</ele>
        <time>2014-11-02T09:19:37.000Z</time>
      </trkpt>
      <trkpt lat="47.44441" lon="6.79893">
        <ele>380</ele>
        <time>2014-11-02T09:19:39.000Z</time>
      </trkpt>
      <trkpt lat="47.4444" lon="6.79892">
        <ele>380.2</ele>
        <time>2014-11-02T09:19:40.000Z</time>
      </trkpt>
      <trkpt lat="47.44436" lon="6.7989">
        <ele>380.5</ele>
        <time>2014-11-02T09:19:42.000Z</time>
      </trkpt>
      <trkpt lat="47.44434" lon="6.79888">
        <ele>380.2</ele>
        <time>2014-11-02T09:19:43.000Z</time>
      </trkpt>
      <trkpt lat="47.4443" lon="6.79886">
        <ele>380.6</ele>
        <time>2014-11-02T09:19:45.000Z</time>
      </trkpt>
      <trkpt lat="47.44428" lon="6.79885">
        <ele>380.5</ele>
        <time>2014-11-02T09:19:46.000Z</time>
      </trkpt>
      <trkpt lat="47.44424" lon="6.79884">
        <ele>380.5</ele>
        <time>2014-11-02T09:19:48.000Z</time>
      </trkpt>
      <trkpt lat="47.44422" lon="6.79883">
        <ele>380.6</ele>
        <time>2014-11-02T09:19:49.000Z</time>
      </trkpt>
      <trkpt lat="47.44418" lon="6.79882">
        <ele>381.2</ele>
        <time>2014-11-02T09:19:51.000Z</time>
      </trkpt>
      <trkpt lat="47.44416" lon="6.79881">
        <ele>381.2</ele>
        <time>2014-11-02T09:19:52.000Z</time>
      </trkpt>
      <trkpt lat="47.44412" lon="6.7988">
        <ele>381.1</ele>
        <time>2014-11-02T09:19:54.000Z</time>
      </trkpt>
      <trkpt lat="47.4441" lon="6.79879">
        <ele>381</ele>
        <time>2014-11-02T09:19:55.000Z</time>
      </trkpt>
      <trkpt lat="47.44406" lon="6.79878">
        <ele>381.7</ele>
        <time>2014-11-02T09:19:57.000Z</time>
      </trkpt>
      <trkpt lat="47.44404" lon="6.79878">
        <ele>381.5</ele>
        <time>2014-11-02T09:19:58.000Z</time>
      </trkpt>
      <trkpt lat="47.444" lon="6.79876">
        <ele>381.6</ele>
        <time>2014-11-02T09:20:00.000Z</time>
      </trkpt>
      <trkpt lat="47.44398" lon="6.79875">
        <ele>381.9</ele>
        <time>2014-11-02T09:20:01.000Z</time>
      </trkpt>
      <trkpt lat="47.44397" lon="6.79873">
        <ele>381.9</ele>
        <time>2014-11-02T09:20:02.000Z</time>
      </trkpt>
      <trkpt lat="47.44393" lon="6.79869">
        <ele>380.6</ele>
        <time>2014-11-02T09:20:05.000Z</time>
      </trkpt>
      <trkpt lat="47.4439" lon="6.79864">
        <ele>379.7</ele>
        <time>2014-11-02T09:20:09.000Z</time>
      </trkpt>
      <trkpt lat="47.4439" lon="6.79861">
        <ele>380.4</ele>
        <time>2014-11-02T09:20:10.000Z</time>
      </trkpt>
      <trkpt lat="47.44391" lon="6.79855">
        <ele>380.5</ele>
        <time>2014-11-02T09:20:12.000Z</time>
      </trkpt>
      <trkpt lat="47.44391" lon="6.79852">
        <ele>381.5</ele>
        <time>2014-11-02T09:20:13.000Z</time>
      </trkpt>
      <trkpt lat="47.44392" lon="6.79846">
        <ele>381.1</ele>
        <time>2014-11-02T09:20:16.000Z</time>
      </trkpt>
      <trkpt lat="47.44392" lon="6.79844">
        <ele>381</ele>
        <time>2014-11-02T09:20:17.000Z</time>
      </trkpt>
      <trkpt lat="47.44394" lon="6.79838">
        <ele>383.2</ele>
        <time>2014-11-02T09:20:20.000Z</time>
      </trkpt>
      <trkpt lat="47.44395" lon="6.79836">
        <ele>382.3</ele>
        <time>2014-11-02T09:20:21.000Z</time>
      </trkpt>
      <trkpt lat="47.44396" lon="6.79831">
        <ele>382.3</ele>
        <time>2014-11-02T09:20:25.000Z</time>
      </trkpt>
      <trkpt lat="47.44397" lon="6.79829">
        <ele>382.9</ele>
        <time>2014-11-02T09:20:26.000Z</time>
      </trkpt>
      <trkpt lat="47.44398" lon="6.79825">
        <ele>382.4</ele>
        <time>2014-11-02T09:20:28.000Z</time>
      </trkpt>
      <trkpt lat="47.44399" lon="6.79823">
        <ele>382.4</ele>
        <time>2014-11-02T09:20:29.000Z</time>
      </trkpt>
      <trkpt lat="47.444" lon="6.79819">
        <ele>384</ele>
        <time>2014-11-02T09:20:31.000Z</time>
      </trkpt>
      <trkpt lat="47.44401" lon="6.79817">
        <ele>384.3</ele>
        <time>2014-11-02T09:20:32.000Z</time>
      </trkpt>
      <trkpt lat="47.44401" lon="6.7981">
        <ele>383.8</ele>
        <time>2014-11-02T09:20:36.000Z</time>
      </trkpt>
      <trkpt lat="47.44402" lon="6.79808">
        <ele>384.4</ele>
        <time>2014-11-02T09:20:37.000Z</time>
      </trkpt>
      <trkpt lat="47.44404" lon="6.79804">
        <ele>385.8</ele>
        <time>2014-11-02T09:20:39.000Z</time>
      </trkpt>
      <trkpt lat="47.44404" lon="6.79801">
        <ele>388.7</ele>
        <time>2014-11-02T09:20:40.000Z</time>
      </trkpt>
      <trkpt lat="47.44405" lon="6.79796">
        <ele>390</ele>
        <time>2014-11-02T09:20:42.000Z</time>
      </trkpt>
      <trkpt lat="47.44404" lon="6.79793">
        <ele>390</ele>
        <time>2014-11-02T09:20:43.000Z</time>
      </trkpt>
      <trkpt lat="47.44403" lon="6.79788">
        <ele>393</ele>
        <time>2014-11-02T09:20:46.000Z</time>
      </trkpt>
      <trkpt lat="47.44402" lon="6.79787">
        <ele>393.4</ele>
        <time>2014-11-02T09:20:47.000Z</time>
      </trkpt>
      <trkpt lat="47.44399" lon="6.79784">
        <ele>394</ele>
        <time>2014-11-02T09:20:50.000Z</time>
      </trkpt>
      <trkpt lat="47.44397" lon="6.79784">
        <ele>393.6</ele>
        <time>2014-11-02T09:20:51.000Z</time>
      </trkpt>
      <trkpt lat="47.44393" lon="6.79784">
        <ele>394.6</ele>
        <time>2014-11-02T09:20:54.000Z</time>
      </trkpt>
      <trkpt lat="47.44392" lon="6.79783">
        <ele>394.9</ele>
        <time>2014-11-02T09:20:55.000Z</time>
      </trkpt>
      <trkpt lat="47.44388" lon="6.79782">
        <ele>394.7</ele>
        <time>2014-11-02T09:20:57.000Z</time>
      </trkpt>
      <trkpt lat="47.44386" lon="6.79781">
        <ele>394.8</ele>
        <time>2014-11-02T09:20:58.000Z</time>
      </trkpt>
      <trkpt lat="47.44382" lon="6.79781">
        <ele>393.7</ele>
        <time>2014-11-02T09:21:00.000Z</time>
      </trkpt>
      <trkpt lat="47.4438" lon="6.79781">
        <ele>393.1</ele>
        <time>2014-11-02T09:21:01.000Z</time>
      </trkpt>
      <trkpt lat="47.44379" lon="6.79782">
        <ele>394.6</ele>
        <time>2014-11-02T09:21:02.000Z</time>
      </trkpt>
      <trkpt lat="47.44375" lon="6.79784">
        <ele>397.1</ele>
        <time>2014-11-02T09:21:05.000Z</time>
      </trkpt>
      <trkpt lat="47.44372" lon="6.79787">
        <ele>397.7</ele>
        <time>2014-11-02T09:21:08.000Z</time>
      </trkpt>
      <trkpt lat="47.44371" lon="6.79789">
        <ele>398.5</ele>
        <time>2014-11-02T09:21:09.000Z</time>
      </trkpt>
      <trkpt lat="47.44367" lon="6.79791">
        <ele>399</ele>
        <time>2014-11-02T09:21:12.000Z</time>
      </trkpt>
      <trkpt lat="47.44366" lon="6.79792">
        <ele>398.2</ele>
        <time>2014-11-02T09:21:13.001Z</time>
      </trkpt>
      <trkpt lat="47.44363" lon="6.79792">
        <ele>398.5</ele>
        <time>2014-11-02T09:21:15.000Z</time>
      </trkpt>
      <trkpt lat="47.44361" lon="6.79792">
        <ele>398.5</ele>
        <time>2014-11-02T09:21:16.000Z</time>
      </trkpt>
      <trkpt lat="47.44358" lon="6.79794">
        <ele>399.5</ele>
        <time>2014-11-02T09:21:18.000Z</time>
      </trkpt>
      <trkpt lat="47.44357" lon="6.79795">
        <ele>400.1</ele>
        <time>2014-11-02T09:21:19.000Z</time>
      </trkpt>
      <trkpt lat="47.44353" lon="6.79795">
        <ele>401.6</ele>
        <time>2014-11-02T09:21:21.000Z</time>
      </trkpt>
      <trkpt lat="47.44351" lon="6.79795">
        <ele>401.5</ele>
        <time>2014-11-02T09:21:22.000Z</time>
      </trkpt>
      <trkpt lat="47.44347" lon="6.79797">
        <ele>404.9</ele>
        <time>2014-11-02T09:21:25.000Z</time>
      </trkpt>
      <trkpt lat="47.44346" lon="6.79798">
        <ele>406.2</ele>
        <time>2014-11-02T09:21:26.000Z</time>
      </trkpt>
      <trkpt lat="47.44343" lon="6.79801">
        <ele>406.1</ele>
        <time>2014-11-02T09:21:29.000Z</time>
      </trkpt>
      <trkpt lat="47.44342" lon="6.79801">
        <ele>405.8</ele>
        <time>2014-11-02T09:21:30.000Z</time>
      </trkpt>
      <trkpt lat="47.44338" lon="6.79804">
        <ele>406.1</ele>
        <time>2014-11-02T09:21:33.000Z</time>
      </trkpt>
      <trkpt lat="47.44337" lon="6.79805">
        <ele>406.5</ele>
        <time>2014-11-02T09:21:34.000Z</time>
      </trkpt>
      <trkpt lat="47.44333" lon="6.79807">
        <ele>407.1</ele>
        <time>2014-11-02T09:21:37.000Z</time>
      </trkpt>
      <trkpt lat="47.44332" lon="6.79808">
        <ele>409.4</ele>
        <time>2014-11-02T09:21:38.000Z</time>
      </trkpt>
      <trkpt lat="47.4433" lon="6.79813">
        <ele>411</ele>
        <time>2014-11-02T09:21:41.000Z</time>
      </trkpt>
      <trkpt lat="47.4433" lon="6.79814">
        <ele>410.6</ele>
        <time>2014-11-02T09:21:42.000Z</time>
      </trkpt>
      <trkpt lat="47.44327" lon="6.79818">
        <ele>411.8</ele>
        <time>2014-11-02T09:21:44.000Z</time>
      </trkpt>
      <trkpt lat="47.44326" lon="6.79819">
        <ele>411.3</ele>
        <time>2014-11-02T09:21:45.000Z</time>
      </trkpt>
      <trkpt lat="47.44323" lon="6.79823">
        <ele>411</ele>
        <time>2014-11-02T09:21:47.000Z</time>
      </trkpt>
      <trkpt lat="47.44322" lon="6.79825">
        <ele>411.3</ele>
        <time>2014-11-02T09:21:48.000Z</time>
      </trkpt>
      <trkpt lat="47.4432" lon="6.79828">
        <ele>412.1</ele>
        <time>2014-11-02T09:21:50.000Z</time>
      </trkpt>
      <trkpt lat="47.44319" lon="6.7983">
        <ele>412.5</ele>
        <time>2014-11-02T09:21:51.000Z</time>
      </trkpt>
      <trkpt lat="47.44317" lon="6.79832">
        <ele>413</ele>
        <time>2014-11-02T09:21:53.000Z</time>
      </trkpt>
      <trkpt lat="47.44315" lon="6.79833">
        <ele>413.3</ele>
        <time>2014-11-02T09:21:54.000Z</time>
      </trkpt>
      <trkpt lat="47.44312" lon="6.79836">
        <ele>413</ele>
        <time>2014-11-02T09:21:56.000Z</time>
      </trkpt>
      <trkpt lat="47.44311" lon="6.79838">
        <ele>412.6</ele>
        <time>2014-11-02T09:21:57.000Z</time>
      </trkpt>
      <trkpt lat="47.44309" lon="6.79842">
        <ele>411.8</ele>
        <time>2014-11-02T09:21:59.000Z</time>
      </trkpt>
      <trkpt lat="47.44308" lon="6.79844">
        <ele>411.9</ele>
        <time>2014-11-02T09:22:00.000Z</time>
      </trkpt>
      <trkpt lat="47.44307" lon="6.79847">
        <ele>413.2</ele>
        <time>2014-11-02T09:22:02.000Z</time>
      </trkpt>
      <trkpt lat="47.44304" lon="6.7985">
        <ele>412.6</ele>
        <time>2014-11-02T09:22:05.000Z</time>
      </trkpt>
      <trkpt lat="47.443" lon="6.79852">
        <ele>415.2</ele>
        <time>2014-11-02T09:22:08.000Z</time>
      </trkpt>
      <trkpt lat="47.44299" lon="6.79852">
        <ele>415</ele>
        <time>2014-11-02T09:22:09.000Z</time>
      </trkpt>
      <trkpt lat="47.44295" lon="6.79854">
        <ele>417.5</ele>
        <time>2014-11-02T09:22:13.000Z</time>
      </trkpt>
      <trkpt lat="47.44295" lon="6.79855">
        <ele>417.2</ele>
        <time>2014-11-02T09:22:14.000Z</time>
      </trkpt>
      <trkpt lat="47.44292" lon="6.79858">
        <ele>414.6</ele>
        <time>2014-11-02T09:22:17.000Z</time>
      </trkpt>
      <trkpt lat="47.44291" lon="6.79859">
        <ele>414.3</ele>
        <time>2014-11-02T09:22:18.000Z</time>
      </trkpt>
      <trkpt lat="47.44288" lon="6.79864">
        <ele>412</ele>
        <time>2014-11-02T09:22:23.000Z</time>
      </trkpt>
      <trkpt lat="47.44288" lon="6.79865">
        <ele>413.3</ele>
        <time>2014-11-02T09:22:24.000Z</time>
      </trkpt>
      <trkpt lat="47.44284" lon="6.79868">
        <ele>414.8</ele>
        <time>2014-11-02T09:22:28.000Z</time>
      </trkpt>
      <trkpt lat="47.44283" lon="6.79868">
        <ele>415.6</ele>
        <time>2014-11-02T09:22:29.000Z</time>
      </trkpt>
      <trkpt lat="47.44279" lon="6.7987">
        <ele>415.4</ele>
        <time>2014-11-02T09:22:33.000Z</time>
      </trkpt>
      <trkpt lat="47.44279" lon="6.79871">
        <ele>417</ele>
        <time>2014-11-02T09:22:34.000Z</time>
      </trkpt>
      <trkpt lat="47.44275" lon="6.79874">
        <ele>419.5</ele>
        <time>2014-11-02T09:22:41.000Z</time>
      </trkpt>
      <trkpt lat="47.44274" lon="6.79874">
        <ele>419.2</ele>
        <time>2014-11-02T09:22:42.000Z</time>
      </trkpt>
      <trkpt lat="47.4427" lon="6.79876">
        <ele>421.3</ele>
        <time>2014-11-02T09:22:46.000Z</time>
      </trkpt>
      <trkpt lat="47.44269" lon="6.79877">
        <ele>420.9</ele>
        <time>2014-11-02T09:22:47.000Z</time>
      </trkpt>
      <trkpt lat="47.44265" lon="6.79879">
        <ele>420.9</ele>
        <time>2014-11-02T09:22:50.000Z</time>
      </trkpt>
      <trkpt lat="47.44263" lon="6.79879">
        <ele>421.2</ele>
        <time>2014-11-02T09:22:51.000Z</time>
      </trkpt>
      <trkpt lat="47.44259" lon="6.79879">
        <ele>417.9</ele>
        <time>2014-11-02T09:22:54.000Z</time>
      </trkpt>
      <trkpt lat="47.44258" lon="6.7988">
        <ele>417.7</ele>
        <time>2014-11-02T09:22:55.000Z</time>
      </trkpt>
      <trkpt lat="47.44255" lon="6.79881">
        <ele>415.5</ele>
        <time>2014-11-02T09:22:57.000Z</time>
      </trkpt>
      <trkpt lat="47.44253" lon="6.79881">
        <ele>415.1</ele>
        <time>2014-11-02T09:22:58.000Z</time>
      </trkpt>
      <trkpt lat="47.44249" lon="6.7988">
        <ele>415.6</ele>
        <time>2014-11-02T09:23:00.000Z</time>
      </trkpt>
      <trkpt lat="47.44248" lon="6.79881">
        <ele>416</ele>
        <time>2014-11-02T09:23:01.000Z</time>
      </trkpt>
      <trkpt lat="47.44247" lon="6.79881">
        <ele>416.4</ele>
        <time>2014-11-02T09:23:02.000Z</time>
      </trkpt>
      <trkpt lat="47.44239" lon="6.79887">
        <ele>419</ele>
        <time>2014-11-02T09:23:11.000Z</time>
      </trkpt>
      <trkpt lat="47.44236" lon="6.7989">
        <ele>420.8</ele>
        <time>2014-11-02T09:23:16.000Z</time>
      </trkpt>
      <trkpt lat="47.44234" lon="6.79891">
        <ele>421.6</ele>
        <time>2014-11-02T09:23:17.000Z</time>
      </trkpt>
      <trkpt lat="47.44231" lon="6.79893">
        <ele>424.4</ele>
        <time>2014-11-02T09:23:20.000Z</time>
      </trkpt>
      <trkpt lat="47.44229" lon="6.79894">
        <ele>423.8</ele>
        <time>2014-11-02T09:23:21.000Z</time>
      </trkpt>
      <trkpt lat="47.44225" lon="6.79896">
        <ele>422.2</ele>
        <time>2014-11-02T09:23:24.000Z</time>
      </trkpt>
      <trkpt lat="47.44223" lon="6.79897">
        <ele>423.3</ele>
        <time>2014-11-02T09:23:25.000Z</time>
      </trkpt>
      <trkpt lat="47.4422" lon="6.79898">
        <ele>425</ele>
        <time>2014-11-02T09:23:29.000Z</time>
      </trkpt>
      <trkpt lat="47.44219" lon="6.79899">
        <ele>425.8</ele>
        <time>2014-11-02T09:23:30.000Z</time>
      </trkpt>
      <trkpt lat="47.44215" lon="6.79901">
        <ele>427.4</ele>
        <time>2014-11-02T09:23:33.000Z</time>
      </trkpt>
      <trkpt lat="47.44214" lon="6.79902">
        <ele>428.6</ele>
        <time>2014-11-02T09:23:34.000Z</time>
      </trkpt>
      <trkpt lat="47.4421" lon="6.79901">
        <ele>430.6</ele>
        <time>2014-11-02T09:23:37.000Z</time>
      </trkpt>
      <trkpt lat="47.44209" lon="6.79901">
        <ele>429.7</ele>
        <time>2014-11-02T09:23:38.000Z</time>
      </trkpt>
      <trkpt lat="47.44205" lon="6.79904">
        <ele>431.5</ele>
        <time>2014-11-02T09:23:41.000Z</time>
      </trkpt>
      <trkpt lat="47.44204" lon="6.79905">
        <ele>432.1</ele>
        <time>2014-11-02T09:23:42.000Z</time>
      </trkpt>
      <trkpt lat="47.44201" lon="6.79907">
        <ele>432.6</ele>
        <time>2014-11-02T09:23:45.000Z</time>
      </trkpt>
      <trkpt lat="47.442" lon="6.79908">
        <ele>432.6</ele>
        <time>2014-11-02T09:23:46.000Z</time>
      </trkpt>
      <trkpt lat="47.44197" lon="6.79911">
        <ele>435.8</ele>
        <time>2014-11-02T09:23:51.000Z</time>
      </trkpt>
      <trkpt lat="47.44196" lon="6.79911">
        <ele>435.6</ele>
        <time>2014-11-02T09:23:52.000Z</time>
      </trkpt>
      <trkpt lat="47.44197" lon="6.79917">
        <ele>433.4</ele>
        <time>2014-11-02T09:23:58.000Z</time>
      </trkpt>
      <trkpt lat="47.44197" lon="6.79918">
        <ele>432.6</ele>
        <time>2014-11-02T09:23:59.000Z</time>
      </trkpt>
      <trkpt lat="47.44195" lon="6.79924">
        <ele>427.3</ele>
        <time>2014-11-02T09:24:24.000Z</time>
      </trkpt>
      <trkpt lat="47.44195" lon="6.79924">
        <ele>427</ele>
        <time>2014-11-02T09:24:25.000Z</time>
      </trkpt>
      <trkpt lat="47.44194" lon="6.79918">
        <ele>427.3</ele>
        <time>2014-11-02T09:29:15.000Z</time>
      </trkpt>
      <trkpt lat="47.44195" lon="6.79917">
        <ele>425.2</ele>
        <time>2014-11-02T09:29:16.000Z</time>
      </trkpt>
      <trkpt lat="47.44194" lon="6.79911">
        <ele>427.5</ele>
        <time>2014-11-02T09:29:24.000Z</time>
      </trkpt>
      <trkpt lat="47.44194" lon="6.79909">
        <ele>427.4</ele>
        <time>2014-11-02T09:29:25.000Z</time>
      </trkpt>
      <trkpt lat="47.44195" lon="6.79904">
        <ele>427.9</ele>
        <time>2014-11-02T09:29:28.000Z</time>
      </trkpt>
      <trkpt lat="47.44195" lon="6.79902">
        <ele>430.9</ele>
        <time>2014-11-02T09:29:29.000Z</time>
      </trkpt>
      <trkpt lat="47.44196" lon="6.79896">
        <ele>428.4</ele>
        <time>2014-11-02T09:29:33.000Z</time>
      </trkpt>
      <trkpt lat="47.44196" lon="6.79894">
        <ele>429.5</ele>
        <time>2014-11-02T09:29:34.000Z</time>
      </trkpt>
      <trkpt lat="47.44195" lon="6.79889">
        <ele>430</ele>
        <time>2014-11-02T09:29:36.000Z</time>
      </trkpt>
      <trkpt lat="47.44195" lon="6.79887">
        <ele>428.5</ele>
        <time>2014-11-02T09:29:37.000Z</time>
      </trkpt>
      <trkpt lat="47.44195" lon="6.79881">
        <ele>428.5</ele>
        <time>2014-11-02T09:29:40.000Z</time>
      </trkpt>
      <trkpt lat="47.44194" lon="6.79879">
        <ele>428.7</ele>
        <time>2014-11-02T09:29:41.000Z</time>
      </trkpt>
      <trkpt lat="47.44194" lon="6.79874">
        <ele>433.1</ele>
        <time>2014-11-02T09:29:43.000Z</time>
      </trkpt>
      <trkpt lat="47.44194" lon="6.79872">
        <ele>431.3</ele>
        <time>2014-11-02T09:29:44.000Z</time>
      </trkpt>
      <trkpt lat="47.44192" lon="6.79866">
        <ele>431.7</ele>
        <time>2014-11-02T09:29:47.000Z</time>
      </trkpt>
      <trkpt lat="47.44192" lon="6.79865">
        <ele>431.5</ele>
        <time>2014-11-02T09:29:48.000Z</time>
      </trkpt>
      <trkpt lat="47.44192" lon="6.79859">
        <ele>430.5</ele>
        <time>2014-11-02T09:29:51.000Z</time>
      </trkpt>
      <trkpt lat="47.44192" lon="6.79857">
        <ele>430</ele>
        <time>2014-11-02T09:29:52.000Z</time>
      </trkpt>
      <trkpt lat="47.44192" lon="6.79851">
        <ele>430.1</ele>
        <time>2014-11-02T09:29:55.000Z</time>
      </trkpt>
      <trkpt lat="47.44192" lon="6.79849">
        <ele>430.6</ele>
        <time>2014-11-02T09:29:56.000Z</time>
      </trkpt>
      <trkpt lat="47.44192" lon="6.79844">
        <ele>431.3</ele>
        <time>2014-11-02T09:29:58.000Z</time>
      </trkpt>
      <trkpt lat="47.44192" lon="6.79841">
        <ele>431.3</ele>
        <time>2014-11-02T09:29:59.000Z</time>
      </trkpt>
      <trkpt lat="47.44193" lon="6.79837">
        <ele>431.4</ele>
        <time>2014-11-02T09:30:01.000Z</time>
      </trkpt>
      <trkpt lat="47.44193" lon="6.79835">
        <ele>431.6</ele>
        <time>2014-11-02T09:30:02.000Z</time>
      </trkpt>
      <trkpt lat="47.44193" lon="6.7983">
        <ele>431.9</ele>
        <time>2014-11-02T09:30:05.000Z</time>
      </trkpt>
      <trkpt lat="47.44193" lon="6.79828">
        <ele>429.8</ele>
        <time>2014-11-02T09:30:06.000Z</time>
      </trkpt>
      <trkpt lat="47.44192" lon="6.79821">
        <ele>428.3</ele>
        <time>2014-11-02T09:30:10.000Z</time>
      </trkpt>
      <trkpt lat="47.44192" lon="6.7982">
        <ele>427.7</ele>
        <time>2014-11-02T09:30:11.000Z</time>
      </trkpt>
      <trkpt lat="47.44191" lon="6.79813">
        <ele>428.2</ele>
        <time>2014-11-02T09:30:16.000Z</time>
      </trkpt>
      <trkpt lat="47.44191" lon="6.79813">
        <ele>428.2</ele>
        <time>2014-11-02T09:30:16.999Z</time>
      </trkpt>
      <trkpt lat="47.44191" lon="6.79808">
        <ele>428.6</ele>
        <time>2014-11-02T09:30:18.000Z</time>
      </trkpt>
      <trkpt lat="47.44191" lon="6.79805">
        <ele>428.6</ele>
        <time>2014-11-02T09:30:19.000Z</time>
      </trkpt>
      <trkpt lat="47.44192" lon="6.798">
        <ele>430.6</ele>
        <time>2014-11-02T09:30:21.000Z</time>
      </trkpt>
      <trkpt lat="47.44192" lon="6.79798">
        <ele>432</ele>
        <time>2014-11-02T09:30:22.000Z</time>
      </trkpt>
      <trkpt lat="47.44192" lon="6.79793">
        <ele>433.5</ele>
        <time>2014-11-02T09:30:24.000Z</time>
      </trkpt>
      <trkpt lat="47.44192" lon="6.79791">
        <ele>432.3</ele>
        <time>2014-11-02T09:30:25.000Z</time>
      </trkpt>
      <trkpt lat="47.44192" lon="6.79785">
        <ele>431.2</ele>
        <time>2014-11-02T09:30:27.000Z</time>
      </trkpt>
      <trkpt lat="47.44192" lon="6.79782">
        <ele>431.3</ele>
        <time>2014-11-02T09:30:28.000Z</time>
      </trkpt>
      <trkpt lat="47.44192" lon="6.79776">
        <ele>432</ele>
        <time>2014-11-02T09:30:30.000Z</time>
      </trkpt>
      <trkpt lat="47.44193" lon="6.79773">
        <ele>431.8</ele>
        <time>2014-11-02T09:30:31.000Z</time>
      </trkpt>
      <trkpt lat="47.44193" lon="6.7977">
        <ele>431.6</ele>
        <time>2014-11-02T09:30:32.000Z</time>
      </trkpt>
      <trkpt lat="47.44193" lon="6.79766">
        <ele>431.8</ele>
        <time>2014-11-02T09:30:33.000Z</time>
      </trkpt>
      <trkpt lat="47.44193" lon="6.79763">
        <ele>430.2</ele>
        <time>2014-11-02T09:30:34.000Z</time>
      </trkpt>
      <trkpt lat="47.44194" lon="6.79759">
        <ele>429.9</ele>
        <time>2014-11-02T09:30:35.000Z</time>
      </trkpt>
      <trkpt lat="47.44195" lon="6.79755">
        <ele>432.1</ele>
        <time>2014-11-02T09:30:36.000Z</time>
      </trkpt>
      <trkpt lat="47.44196" lon="6.79752">
        <ele>430.8</ele>
        <time>2014-11-02T09:30:37.000Z</time>
      </trkpt>
      <trkpt lat="47.44197" lon="6.79748">
        <ele>430.6</ele>
        <time>2014-11-02T09:30:38.000Z</time>
      </trkpt>
      <trkpt lat="47.44197" lon="6.79745">
        <ele>431.5</ele>
        <time>2014-11-02T09:30:39.000Z</time>
      </trkpt>
      <trkpt lat="47.44197" lon="6.79741">
        <ele>431.2</ele>
        <time>2014-11-02T09:30:40.000Z</time>
      </trkpt>
      <trkpt lat="47.44196" lon="6.79737">
        <ele>429.4</ele>
        <time>2014-11-02T09:30:41.000Z</time>
      </trkpt>
      <trkpt lat="47.44196" lon="6.79732">
        <ele>428.5</ele>
        <time>2014-11-02T09:30:42.000Z</time>
      </trkpt>
      <trkpt lat="47.44196" lon="6.79729">
        <ele>427.7</ele>
        <time>2014-11-02T09:30:43.000Z</time>
      </trkpt>
      <trkpt lat="47.44196" lon="6.79725">
        <ele>427.8</ele>
        <time>2014-11-02T09:30:44.000Z</time>
      </trkpt>
      <trkpt lat="47.44197" lon="6.79722">
        <ele>428.5</ele>
        <time>2014-11-02T09:30:45.000Z</time>
      </trkpt>
      <trkpt lat="47.44197" lon="6.79719">
        <ele>430</ele>
        <time>2014-11-02T09:30:46.000Z</time>
      </trkpt>
      <trkpt lat="47.44197" lon="6.79715">
        <ele>429.3</ele>
        <time>2014-11-02T09:30:47.000Z</time>
      </trkpt>
      <trkpt lat="47.44197" lon="6.79711">
        <ele>430.3</ele>
        <time>2014-11-02T09:30:48.000Z</time>
      </trkpt>
      <trkpt lat="47.44197" lon="6.79706">
        <ele>430.2</ele>
        <time>2014-11-02T09:30:49.000Z</time>
      </trkpt>
      <trkpt lat="47.44197" lon="6.79702">
        <ele>429.7</ele>
        <time>2014-11-02T09:30:50.000Z</time>
      </trkpt>
      <trkpt lat="47.44196" lon="6.79698">
        <ele>429.4</ele>
        <time>2014-11-02T09:30:51.000Z</time>
      </trkpt>
      <trkpt lat="47.44196" lon="6.79694">
        <ele>430.1</ele>
        <time>2014-11-02T09:30:52.000Z</time>
      </trkpt>
      <trkpt lat="47.44195" lon="6.79691">
        <ele>431.4</ele>
        <time>2014-11-02T09:30:53.000Z</time>
      </trkpt>
      <trkpt lat="47.44194" lon="6.79687">
        <ele>431.6</ele>
        <time>2014-11-02T09:30:54.000Z</time>
      </trkpt>
      <trkpt lat="47.44193" lon="6.79684">
        <ele>432.3</ele>
        <time>2014-11-02T09:30:55.000Z</time>
      </trkpt>
      <trkpt lat="47.4419" lon="6.7968">
        <ele>437.3</ele>
        <time>2014-11-02T09:30:57.000Z</time>
      </trkpt>
      <trkpt lat="47.44189" lon="6.79678">
        <ele>438.8</ele>
        <time>2014-11-02T09:30:58.000Z</time>
      </trkpt>
      <trkpt lat="47.44186" lon="6.79675">
        <ele>440.4</ele>
        <time>2014-11-02T09:31:00.000Z</time>
      </trkpt>
      <trkpt lat="47.44185" lon="6.79674">
        <ele>441.2</ele>
        <time>2014-11-02T09:31:01.000Z</time>
      </trkpt>
      <trkpt lat="47.44181" lon="6.79673">
        <ele>444.3</ele>
        <time>2014-11-02T09:31:05.000Z</time>
      </trkpt>
      <trkpt lat="47.4418" lon="6.79672">
        <ele>445.8</ele>
        <time>2014-11-02T09:31:06.000Z</time>
      </trkpt>
      <trkpt lat="47.44178" lon="6.79669">
        <ele>449.7</ele>
        <time>2014-11-02T09:31:08.000Z</time>
      </trkpt>
      <trkpt lat="47.44177" lon="6.79667">
        <ele>449.6</ele>
        <time>2014-11-02T09:31:09.000Z</time>
      </trkpt>
      <trkpt lat="47.44173" lon="6.79663">
        <ele>450.6</ele>
        <time>2014-11-02T09:31:11.000Z</time>
      </trkpt>
      <trkpt lat="47.44172" lon="6.79661">
        <ele>450</ele>
        <time>2014-11-02T09:31:12.000Z</time>
      </trkpt>
      <trkpt lat="47.44169" lon="6.79657">
        <ele>450.7</ele>
        <time>2014-11-02T09:31:13.000Z</time>
      </trkpt>
      <trkpt lat="47.44168" lon="6.79654">
        <ele>454.7</ele>
        <time>2014-11-02T09:31:14.000Z</time>
      </trkpt>
      <trkpt lat="47.44165" lon="6.79649">
        <ele>457.2</ele>
        <time>2014-11-02T09:31:16.000Z</time>
      </trkpt>
      <trkpt lat="47.44164" lon="6.79647">
        <ele>457.9</ele>
        <time>2014-11-02T09:31:17.000Z</time>
      </trkpt>
      <trkpt lat="47.44162" lon="6.79643">
        <ele>459.9</ele>
        <time>2014-11-02T09:31:19.000Z</time>
      </trkpt>
      <trkpt lat="47.44162" lon="6.79641">
        <ele>460.2</ele>
        <time>2014-11-02T09:31:20.000Z</time>
      </trkpt>
      <trkpt lat="47.4416" lon="6.79637">
        <ele>460.5</ele>
        <time>2014-11-02T09:31:22.000Z</time>
      </trkpt>
      <trkpt lat="47.44158" lon="6.79636">
        <ele>461.4</ele>
        <time>2014-11-02T09:31:23.000Z</time>
      </trkpt>
      <trkpt lat="47.44155" lon="6.79634">
        <ele>465.3</ele>
        <time>2014-11-02T09:31:25.000Z</time>
      </trkpt>
      <trkpt lat="47.44154" lon="6.79633">
        <ele>466.5</ele>
        <time>2014-11-02T09:31:26.000Z</time>
      </trkpt>
      <trkpt lat="47.44152" lon="6.7963">
        <ele>467.2</ele>
        <time>2014-11-02T09:31:28.000Z</time>
      </trkpt>
      <trkpt lat="47.4415" lon="6.79628">
        <ele>467.7</ele>
        <time>2014-11-02T09:31:29.000Z</time>
      </trkpt>
      <trkpt lat="47.44147" lon="6.79627">
        <ele>468.5</ele>
        <time>2014-11-02T09:31:31.000Z</time>
      </trkpt>
      <trkpt lat="47.44146" lon="6.79626">
        <ele>468.6</ele>
        <time>2014-11-02T09:31:32.000Z</time>
      </trkpt>
      <trkpt lat="47.44142" lon="6.79625">
        <ele>469.9</ele>
        <time>2014-11-02T09:31:34.000Z</time>
      </trkpt>
      <trkpt lat="47.4414" lon="6.79623">
        <ele>469.5</ele>
        <time>2014-11-02T09:31:35.000Z</time>
      </trkpt>
      <trkpt lat="47.44137" lon="6.79621">
        <ele>471.9</ele>
        <time>2014-11-02T09:31:37.000Z</time>
      </trkpt>
      <trkpt lat="47.44136" lon="6.7962">
        <ele>473.4</ele>
        <time>2014-11-02T09:31:38.000Z</time>
      </trkpt>
      <trkpt lat="47.44132" lon="6.79617">
        <ele>473.9</ele>
        <time>2014-11-02T09:31:40.000Z</time>
      </trkpt>
      <trkpt lat="47.4413" lon="6.79616">
        <ele>474.5</ele>
        <time>2014-11-02T09:31:41.000Z</time>
      </trkpt>
      <trkpt lat="47.44127" lon="6.79615">
        <ele>474.7</ele>
        <time>2014-11-02T09:31:42.000Z</time>
      </trkpt>
      <trkpt lat="47.44125" lon="6.79613">
        <ele>475</ele>
        <time>2014-11-02T09:31:43.000Z</time>
      </trkpt>
      <trkpt lat="47.44122" lon="6.79612">
        <ele>480.5</ele>
        <time>2014-11-02T09:31:44.000Z</time>
      </trkpt>
      <trkpt lat="47.4412" lon="6.7961">
        <ele>481.9</ele>
        <time>2014-11-02T09:31:45.000Z</time>
      </trkpt>
      <trkpt lat="47.44117" lon="6.79607">
        <ele>482.1</ele>
        <time>2014-11-02T09:31:47.000Z</time>
      </trkpt>
      <trkpt lat="47.44115" lon="6.79606">
        <ele>481.2</ele>
        <time>2014-11-02T09:31:48.000Z</time>
      </trkpt>
      <trkpt lat="47.44113" lon="6.79606">
        <ele>481.1</ele>
        <time>2014-11-02T09:31:49.000Z</time>
      </trkpt>
      <trkpt lat="47.4411" lon="6.79605">
        <ele>480.5</ele>
        <time>2014-11-02T09:31:50.000Z</time>
      </trkpt>
      <trkpt lat="47.44108" lon="6.79604">
        <ele>479.7</ele>
        <time>2014-11-02T09:31:51.000Z</time>
      </trkpt>
      <trkpt lat="47.44105" lon="6.79603">
        <ele>479.4</ele>
        <time>2014-11-02T09:31:52.000Z</time>
      </trkpt>
      <trkpt lat="47.44103" lon="6.79602">
        <ele>479.6</ele>
        <time>2014-11-02T09:31:53.000Z</time>
      </trkpt>
      <trkpt lat="47.44101" lon="6.79602">
        <ele>480</ele>
        <time>2014-11-02T09:31:54.000Z</time>
      </trkpt>
      <trkpt lat="47.44098" lon="6.79601">
        <ele>480.2</ele>
        <time>2014-11-02T09:31:55.000Z</time>
      </trkpt>
      <trkpt lat="47.44096" lon="6.79599">
        <ele>481.6</ele>
        <time>2014-11-02T09:31:56.000Z</time>
      </trkpt>
      <trkpt lat="47.44093" lon="6.79595">
        <ele>480.4</ele>
        <time>2014-11-02T09:31:58.000Z</time>
      </trkpt>
      <trkpt lat="47.44091" lon="6.79594">
        <ele>480.9</ele>
        <time>2014-11-02T09:31:59.000Z</time>
      </trkpt>
      <trkpt lat="47.44088" lon="6.7959">
        <ele>480.7</ele>
        <time>2014-11-02T09:32:01.000Z</time>
      </trkpt>
      <trkpt lat="47.44086" lon="6.79589">
        <ele>480.5</ele>
        <time>2014-11-02T09:32:02.000Z</time>
      </trkpt>
      <trkpt lat="47.44082" lon="6.79586">
        <ele>481</ele>
        <time>2014-11-02T09:32:05.000Z</time>
      </trkpt>
      <trkpt lat="47.4408" lon="6.79585">
        <ele>483.1</ele>
        <time>2014-11-02T09:32:06.000Z</time>
      </trkpt>
      <trkpt lat="47.44077" lon="6.79584">
        <ele>486.3</ele>
        <time>2014-11-02T09:32:08.000Z</time>
      </trkpt>
      <trkpt lat="47.44075" lon="6.79584">
        <ele>485.8</ele>
        <time>2014-11-02T09:32:09.000Z</time>
      </trkpt>
      <trkpt lat="47.44072" lon="6.79583">
        <ele>483.6</ele>
        <time>2014-11-02T09:32:11.000Z</time>
      </trkpt>
      <trkpt lat="47.4407" lon="6.79583">
        <ele>483.7</ele>
        <time>2014-11-02T09:32:12.000Z</time>
      </trkpt>
      <trkpt lat="47.44067" lon="6.79582">
        <ele>483.5</ele>
        <time>2014-11-02T09:32:13.000Z</time>
      </trkpt>
      <trkpt lat="47.44065" lon="6.79581">
        <ele>483.1</ele>
        <time>2014-11-02T09:32:14.000Z</time>
      </trkpt>
      <trkpt lat="47.44061" lon="6.7958">
        <ele>483.3</ele>
        <time>2014-11-02T09:32:16.000Z</time>
      </trkpt>
      <trkpt lat="47.44059" lon="6.7958">
        <ele>486.2</ele>
        <time>2014-11-02T09:32:17.000Z</time>
      </trkpt>
      <trkpt lat="47.44056" lon="6.79581">
        <ele>486.5</ele>
        <time>2014-11-02T09:32:19.000Z</time>
      </trkpt>
      <trkpt lat="47.44054" lon="6.79581">
        <ele>488.2</ele>
        <time>2014-11-02T09:32:20.000Z</time>
      </trkpt>
      <trkpt lat="47.44051" lon="6.7958">
        <ele>490.7</ele>
        <time>2014-11-02T09:32:22.000Z</time>
      </trkpt>
      <trkpt lat="47.44049" lon="6.79579">
        <ele>491.4</ele>
        <time>2014-11-02T09:32:23.000Z</time>
      </trkpt>
      <trkpt lat="47.44044" lon="6.79577">
        <ele>491.3</ele>
        <time>2014-11-02T09:32:25.000Z</time>
      </trkpt>
      <trkpt lat="47.44042" lon="6.79577">
        <ele>491.3</ele>
        <time>2014-11-02T09:32:26.000Z</time>
      </trkpt>
      <trkpt lat="47.4404" lon="6.79576">
        <ele>492.4</ele>
        <time>2014-11-02T09:32:27.000Z</time>
      </trkpt>
      <trkpt lat="47.44037" lon="6.79576">
        <ele>490.4</ele>
        <time>2014-11-02T09:32:28.000Z</time>
      </trkpt>
      <trkpt lat="47.44034" lon="6.79576">
        <ele>489</ele>
        <time>2014-11-02T09:32:29.000Z</time>
      </trkpt>
      <trkpt lat="47.44031" lon="6.79575">
        <ele>488.3</ele>
        <time>2014-11-02T09:32:30.000Z</time>
      </trkpt>
      <trkpt lat="47.44028" lon="6.79575">
        <ele>488.6</ele>
        <time>2014-11-02T09:32:31.000Z</time>
      </trkpt>
      <trkpt lat="47.44025" lon="6.79575">
        <ele>487.8</ele>
        <time>2014-11-02T09:32:32.000Z</time>
      </trkpt>
      <trkpt lat="47.44022" lon="6.79575">
        <ele>489.7</ele>
        <time>2014-11-02T09:32:34.000Z</time>
      </trkpt>
      <trkpt lat="47.4402" lon="6.79575">
        <ele>489.5</ele>
        <time>2014-11-02T09:32:35.000Z</time>
      </trkpt>
      <trkpt lat="47.44017" lon="6.79577">
        <ele>488</ele>
        <time>2014-11-02T09:32:37.000Z</time>
      </trkpt>
      <trkpt lat="47.44015" lon="6.79577">
        <ele>487.8</ele>
        <time>2014-11-02T09:32:38.000Z</time>
      </trkpt>
      <trkpt lat="47.44012" lon="6.79578">
        <ele>487.5</ele>
        <time>2014-11-02T09:32:39.000Z</time>
      </trkpt>
      <trkpt lat="47.4401" lon="6.79578">
        <ele>487.3</ele>
        <time>2014-11-02T09:32:40.000Z</time>
      </trkpt>
      <trkpt lat="47.44007" lon="6.79578">
        <ele>486.8</ele>
        <time>2014-11-02T09:32:41.000Z</time>
      </trkpt>
      <trkpt lat="47.44005" lon="6.79579">
        <ele>486</ele>
        <time>2014-11-02T09:32:42.000Z</time>
      </trkpt>
      <trkpt lat="47.44002" lon="6.79579">
        <ele>485.1</ele>
        <time>2014-11-02T09:32:43.000Z</time>
      </trkpt>
      <trkpt lat="47.43999" lon="6.79581">
        <ele>484.6</ele>
        <time>2014-11-02T09:32:44.000Z</time>
      </trkpt>
      <trkpt lat="47.43996" lon="6.79581">
        <ele>481.5</ele>
        <time>2014-11-02T09:32:45.000Z</time>
      </trkpt>
      <trkpt lat="47.43993" lon="6.79582">
        <ele>480.6</ele>
        <time>2014-11-02T09:32:46.000Z</time>
      </trkpt>
      <trkpt lat="47.4399" lon="6.79584">
        <ele>479.9</ele>
        <time>2014-11-02T09:32:47.000Z</time>
      </trkpt>
      <trkpt lat="47.43988" lon="6.79585">
        <ele>478.5</ele>
        <time>2014-11-02T09:32:48.000Z</time>
      </trkpt>
      <trkpt lat="47.43985" lon="6.79587">
        <ele>479.6</ele>
        <time>2014-11-02T09:32:49.000Z</time>
      </trkpt>
      <trkpt lat="47.43982" lon="6.79589">
        <ele>479.9</ele>
        <time>2014-11-02T09:32:50.000Z</time>
      </trkpt>
      <trkpt lat="47.43979" lon="6.7959">
        <ele>480</ele>
        <time>2014-11-02T09:32:51.000Z</time>
      </trkpt>
      <trkpt lat="47.43977" lon="6.7959">
        <ele>479.6</ele>
        <time>2014-11-02T09:32:52.000Z</time>
      </trkpt>
      <trkpt lat="47.43974" lon="6.79591">
        <ele>479.1</ele>
        <time>2014-11-02T09:32:54.000Z</time>
      </trkpt>
      <trkpt lat="47.43972" lon="6.7959">
        <ele>478.4</ele>
        <time>2014-11-02T09:32:55.000Z</time>
      </trkpt>
      <trkpt lat="47.43969" lon="6.79589">
        <ele>478.5</ele>
        <time>2014-11-02T09:32:57.000Z</time>
      </trkpt>
      <trkpt lat="47.43967" lon="6.79589">
        <ele>478.9</ele>
        <time>2014-11-02T09:32:58.000Z</time>
      </trkpt>
      <trkpt lat="47.43965" lon="6.79588">
        <ele>478.8</ele>
        <time>2014-11-02T09:32:59.000Z</time>
      </trkpt>
      <trkpt lat="47.43962" lon="6.79587">
        <ele>478.5</ele>
        <time>2014-11-02T09:33:00.000Z</time>
      </trkpt>
      <trkpt lat="47.4396" lon="6.79587">
        <ele>478.7</ele>
        <time>2014-11-02T09:33:01.000Z</time>
      </trkpt>
      <trkpt lat="47.43957" lon="6.79586">
        <ele>478.8</ele>
        <time>2014-11-02T09:33:02.000Z</time>
      </trkpt>
      <trkpt lat="47.43954" lon="6.79584">
        <ele>480</ele>
        <time>2014-11-02T09:33:05.000Z</time>
      </trkpt>
      <trkpt lat="47.43952" lon="6.79584">
        <ele>480.2</ele>
        <time>2014-11-02T09:33:06.000Z</time>
      </trkpt>
      <trkpt lat="47.43949" lon="6.79582">
        <ele>481.8</ele>
        <time>2014-11-02T09:33:08.000Z</time>
      </trkpt>
      <trkpt lat="47.43948" lon="6.79581">
        <ele>482.4</ele>
        <time>2014-11-02T09:33:09.000Z</time>
      </trkpt>
      <trkpt lat="47.43945" lon="6.79579">
        <ele>482.8</ele>
        <time>2014-11-02T09:33:10.000Z</time>
      </trkpt>
      <trkpt lat="47.43943" lon="6.79577">
        <ele>480.7</ele>
        <time>2014-11-02T09:33:11.000Z</time>
      </trkpt>
      <trkpt lat="47.4394" lon="6.79575">
        <ele>480.2</ele>
        <time>2014-11-02T09:33:12.000Z</time>
      </trkpt>
      <trkpt lat="47.43937" lon="6.79573">
        <ele>481.4</ele>
        <time>2014-11-02T09:33:13.000Z</time>
      </trkpt>
      <trkpt lat="47.43935" lon="6.79571">
        <ele>481.9</ele>
        <time>2014-11-02T09:33:14.000Z</time>
      </trkpt>
      <trkpt lat="47.43933" lon="6.79569">
        <ele>482.4</ele>
        <time>2014-11-02T09:33:15.000Z</time>
      </trkpt>
      <trkpt lat="47.4393" lon="6.79567">
        <ele>482.1</ele>
        <time>2014-11-02T09:33:16.000Z</time>
      </trkpt>
      <trkpt lat="47.43928" lon="6.79565">
        <ele>482.8</ele>
        <time>2014-11-02T09:33:17.000Z</time>
      </trkpt>
      <trkpt lat="47.43926" lon="6.79562">
        <ele>483.3</ele>
        <time>2014-11-02T09:33:18.000Z</time>
      </trkpt>
      <trkpt lat="47.43924" lon="6.7956">
        <ele>483.6</ele>
        <time>2014-11-02T09:33:19.000Z</time>
      </trkpt>
      <trkpt lat="47.43922" lon="6.79558">
        <ele>484.3</ele>
        <time>2014-11-02T09:33:20.000Z</time>
      </trkpt>
      <trkpt lat="47.4392" lon="6.79555">
        <ele>484.3</ele>
        <time>2014-11-02T09:33:21.000Z</time>
      </trkpt>
      <trkpt lat="47.43918" lon="6.79554">
        <ele>483.1</ele>
        <time>2014-11-02T09:33:22.000Z</time>
      </trkpt>
      <trkpt lat="47.43915" lon="6.79552">
        <ele>482.5</ele>
        <time>2014-11-02T09:33:23.000Z</time>
      </trkpt>
      <trkpt lat="47.43913" lon="6.79551">
        <ele>481.9</ele>
        <time>2014-11-02T09:33:24.000Z</time>
      </trkpt>
      <trkpt lat="47.4391" lon="6.79549">
        <ele>481.2</ele>
        <time>2014-11-02T09:33:25.000Z</time>
      </trkpt>
      <trkpt lat="47.43907" lon="6.79548">
        <ele>481.3</ele>
        <time>2014-11-02T09:33:26.000Z</time>
      </trkpt>
      <trkpt lat="47.43904" lon="6.79547">
        <ele>481.5</ele>
        <time>2014-11-02T09:33:27.000Z</time>
      </trkpt>
      <trkpt lat="47.43901" lon="6.79546">
        <ele>481.8</ele>
        <time>2014-11-02T09:33:28.000Z</time>
      </trkpt>
      <trkpt lat="47.43899" lon="6.79545">
        <ele>481.2</ele>
        <time>2014-11-02T09:33:29.000Z</time>
      </trkpt>
      <trkpt lat="47.43896" lon="6.79545">
        <ele>481.6</ele>
        <time>2014-11-02T09:33:30.000Z</time>
      </trkpt>
      <trkpt lat="47.43894" lon="6.79544">
        <ele>481.5</ele>
        <time>2014-11-02T09:33:31.000Z</time>
      </trkpt>
      <trkpt lat="47.43892" lon="6.79543">
        <ele>481.3</ele>
        <time>2014-11-02T09:33:32.000Z</time>
      </trkpt>
      <trkpt lat="47.43889" lon="6.79542">
        <ele>480.8</ele>
        <time>2014-11-02T09:33:33.000Z</time>
      </trkpt>
      <trkpt lat="47.43885" lon="6.7954">
        <ele>483.4</ele>
        <time>2014-11-02T09:33:35.000Z</time>
      </trkpt>
      <trkpt lat="47.43884" lon="6.79539">
        <ele>484.2</ele>
        <time>2014-11-02T09:33:36.000Z</time>
      </trkpt>
      <trkpt lat="47.43879" lon="6.79539">
        <ele>479.9</ele>
        <time>2014-11-02T09:33:38.000Z</time>
      </trkpt>
      <trkpt lat="47.43876" lon="6.79539">
        <ele>477.2</ele>
        <time>2014-11-02T09:33:39.000Z</time>
      </trkpt>
      <trkpt lat="47.43873" lon="6.7954">
        <ele>475.8</ele>
        <time>2014-11-02T09:33:40.000Z</time>
      </trkpt>
      <trkpt lat="47.4387" lon="6.79541">
        <ele>475.3</ele>
        <time>2014-11-02T09:33:41.000Z</time>
      </trkpt>
      <trkpt lat="47.43867" lon="6.79541">
        <ele>474.8</ele>
        <time>2014-11-02T09:33:42.000Z</time>
      </trkpt>
      <trkpt lat="47.43864" lon="6.79542">
        <ele>474</ele>
        <time>2014-11-02T09:33:43.000Z</time>
      </trkpt>
      <trkpt lat="47.4386" lon="6.79543">
        <ele>472.7</ele>
        <time>2014-11-02T09:33:44.000Z</time>
      </trkpt>
      <trkpt lat="47.43857" lon="6.79544">
        <ele>472.1</ele>
        <time>2014-11-02T09:33:45.000Z</time>
      </trkpt>
      <trkpt lat="47.43854" lon="6.79544">
        <ele>472.4</ele>
        <time>2014-11-02T09:33:46.000Z</time>
      </trkpt>
      <trkpt lat="47.43852" lon="6.79544">
        <ele>473.1</ele>
        <time>2014-11-02T09:33:47.000Z</time>
      </trkpt>
      <trkpt lat="47.4385" lon="6.79544">
        <ele>473.4</ele>
        <time>2014-11-02T09:33:48.000Z</time>
      </trkpt>
      <trkpt lat="47.43847" lon="6.79544">
        <ele>473.6</ele>
        <time>2014-11-02T09:33:49.000Z</time>
      </trkpt>
      <trkpt lat="47.43845" lon="6.79543">
        <ele>473.3</ele>
        <time>2014-11-02T09:33:50.000Z</time>
      </trkpt>
      <trkpt lat="47.43842" lon="6.79543">
        <ele>475.1</ele>
        <time>2014-11-02T09:33:51.000Z</time>
      </trkpt>
      <trkpt lat="47.4384" lon="6.79544">
        <ele>473.5</ele>
        <time>2014-11-02T09:33:52.000Z</time>
      </trkpt>
      <trkpt lat="47.43837" lon="6.79544">
        <ele>473.4</ele>
        <time>2014-11-02T09:33:53.000Z</time>
      </trkpt>
      <trkpt lat="47.43834" lon="6.79544">
        <ele>469.6</ele>
        <time>2014-11-02T09:33:55.000Z</time>
      </trkpt>
      <trkpt lat="47.43832" lon="6.79543">
        <ele>469.6</ele>
        <time>2014-11-02T09:33:56.000Z</time>
      </trkpt>
      <trkpt lat="47.43827" lon="6.79544">
        <ele>469.1</ele>
        <time>2014-11-02T09:33:58.000Z</time>
      </trkpt>
      <trkpt lat="47.43825" lon="6.79546">
        <ele>469</ele>
        <time>2014-11-02T09:33:59.000Z</time>
      </trkpt>
      <trkpt lat="47.43823" lon="6.79547">
        <ele>468</ele>
        <time>2014-11-02T09:34:00.000Z</time>
      </trkpt>
      <trkpt lat="47.43821" lon="6.79549">
        <ele>467.7</ele>
        <time>2014-11-02T09:34:01.000Z</time>
      </trkpt>
      <trkpt lat="47.43819" lon="6.79549">
        <ele>468.1</ele>
        <time>2014-11-02T09:34:02.000Z</time>
      </trkpt>
      <trkpt lat="47.43815" lon="6.7955">
        <ele>469</ele>
        <time>2014-11-02T09:34:05.000Z</time>
      </trkpt>
      <trkpt lat="47.43812" lon="6.79546">
        <ele>468.8</ele>
        <time>2014-11-02T09:34:07.000Z</time>
      </trkpt>
      <trkpt lat="47.43811" lon="6.79543">
        <ele>470.3</ele>
        <time>2014-11-02T09:34:08.000Z</time>
      </trkpt>
      <trkpt lat="47.4381" lon="6.79539">
        <ele>471</ele>
        <time>2014-11-02T09:34:09.000Z</time>
      </trkpt>
      <trkpt lat="47.4381" lon="6.79536">
        <ele>470.4</ele>
        <time>2014-11-02T09:34:10.000Z</time>
      </trkpt>
      <trkpt lat="47.43809" lon="6.7953">
        <ele>470.9</ele>
        <time>2014-11-02T09:34:12.000Z</time>
      </trkpt>
      <trkpt lat="47.43809" lon="6.79528">
        <ele>471.1</ele>
        <time>2014-11-02T09:34:13.000Z</time>
      </trkpt>
      <trkpt lat="47.43808" lon="6.79522">
        <ele>470.4</ele>
        <time>2014-11-02T09:34:15.000Z</time>
      </trkpt>
      <trkpt lat="47.43807" lon="6.79519">
        <ele>470.1</ele>
        <time>2014-11-02T09:34:16.000Z</time>
      </trkpt>
      <trkpt lat="47.43808" lon="6.79512">
        <ele>471</ele>
        <time>2014-11-02T09:34:18.000Z</time>
      </trkpt>
      <trkpt lat="47.43808" lon="6.79509">
        <ele>470.9</ele>
        <time>2014-11-02T09:34:19.000Z</time>
      </trkpt>
      <trkpt lat="47.43807" lon="6.79505">
        <ele>470.8</ele>
        <time>2014-11-02T09:34:20.000Z</time>
      </trkpt>
      <trkpt lat="47.43807" lon="6.79502">
        <ele>470.2</ele>
        <time>2014-11-02T09:34:21.000Z</time>
      </trkpt>
      <trkpt lat="47.43807" lon="6.79498">
        <ele>466.8</ele>
        <time>2014-11-02T09:34:22.000Z</time>
      </trkpt>
      <trkpt lat="47.43807" lon="6.79494">
        <ele>466.6</ele>
        <time>2014-11-02T09:34:23.000Z</time>
      </trkpt>
      <trkpt lat="47.43807" lon="6.79491">
        <ele>467.3</ele>
        <time>2014-11-02T09:34:24.000Z</time>
      </trkpt>
      <trkpt lat="47.43806" lon="6.79487">
        <ele>468.6</ele>
        <time>2014-11-02T09:34:25.000Z</time>
      </trkpt>
      <trkpt lat="47.43804" lon="6.79484">
        <ele>468.8</ele>
        <time>2014-11-02T09:34:26.000Z</time>
      </trkpt>
      <trkpt lat="47.43803" lon="6.7948">
        <ele>468.7</ele>
        <time>2014-11-02T09:34:27.000Z</time>
      </trkpt>
      <trkpt lat="47.43802" lon="6.79477">
        <ele>467.2</ele>
        <time>2014-11-02T09:34:28.000Z</time>
      </trkpt>
      <trkpt lat="47.43801" lon="6.79473">
        <ele>466.7</ele>
        <time>2014-11-02T09:34:29.000Z</time>
      </trkpt>
      <trkpt lat="47.43801" lon="6.79469">
        <ele>467.1</ele>
        <time>2014-11-02T09:34:30.000Z</time>
      </trkpt>
      <trkpt lat="47.43801" lon="6.79466">
        <ele>467.1</ele>
        <time>2014-11-02T09:34:31.000Z</time>
      </trkpt>
      <trkpt lat="47.43801" lon="6.79462">
        <ele>466.5</ele>
        <time>2014-11-02T09:34:32.000Z</time>
      </trkpt>
      <trkpt lat="47.438" lon="6.79459">
        <ele>466.6</ele>
        <time>2014-11-02T09:34:33.000Z</time>
      </trkpt>
      <trkpt lat="47.438" lon="6.79455">
        <ele>467.3</ele>
        <time>2014-11-02T09:34:34.000Z</time>
      </trkpt>
      <trkpt lat="47.43799" lon="6.79452">
        <ele>467.5</ele>
        <time>2014-11-02T09:34:35.000Z</time>
      </trkpt>
      <trkpt lat="47.43797" lon="6.79446">
        <ele>469</ele>
        <time>2014-11-02T09:34:37.000Z</time>
      </trkpt>
      <trkpt lat="47.43797" lon="6.79444">
        <ele>469.7</ele>
        <time>2014-11-02T09:34:38.000Z</time>
      </trkpt>
      <trkpt lat="47.43795" lon="6.79438">
        <ele>471.7</ele>
        <time>2014-11-02T09:34:40.000Z</time>
      </trkpt>
      <trkpt lat="47.43794" lon="6.79434">
        <ele>472.1</ele>
        <time>2014-11-02T09:34:41.000Z</time>
      </trkpt>
      <trkpt lat="47.43793" lon="6.79431">
        <ele>472.1</ele>
        <time>2014-11-02T09:34:42.000Z</time>
      </trkpt>
      <trkpt lat="47.43792" lon="6.79428">
        <ele>471.3</ele>
        <time>2014-11-02T09:34:43.000Z</time>
      </trkpt>
      <trkpt lat="47.4379" lon="6.79423">
        <ele>471.8</ele>
        <time>2014-11-02T09:34:45.000Z</time>
      </trkpt>
      <trkpt lat="47.43789" lon="6.79422">
        <ele>472.3</ele>
        <time>2014-11-02T09:34:46.000Z</time>
      </trkpt>
      <trkpt lat="47.43786" lon="6.7942">
        <ele>472.6</ele>
        <time>2014-11-02T09:34:48.000Z</time>
      </trkpt>
      <trkpt lat="47.43784" lon="6.7942">
        <ele>473.8</ele>
        <time>2014-11-02T09:34:49.000Z</time>
      </trkpt>
      <trkpt lat="47.4378" lon="6.7942">
        <ele>474.3</ele>
        <time>2014-11-02T09:34:52.000Z</time>
      </trkpt>
      <trkpt lat="47.43778" lon="6.7942">
        <ele>476.2</ele>
        <time>2014-11-02T09:34:53.000Z</time>
      </trkpt>
      <trkpt lat="47.43776" lon="6.7942">
        <ele>476.6</ele>
        <time>2014-11-02T09:34:54.000Z</time>
      </trkpt>
      <trkpt lat="47.43773" lon="6.7942">
        <ele>477.5</ele>
        <time>2014-11-02T09:34:55.000Z</time>
      </trkpt>
      <trkpt lat="47.43771" lon="6.7942">
        <ele>477.2</ele>
        <time>2014-11-02T09:34:56.000Z</time>
      </trkpt>
      <trkpt lat="47.43768" lon="6.79419">
        <ele>476.9</ele>
        <time>2014-11-02T09:34:57.000Z</time>
      </trkpt>
      <trkpt lat="47.43766" lon="6.79419">
        <ele>476.7</ele>
        <time>2014-11-02T09:34:58.000Z</time>
      </trkpt>
      <trkpt lat="47.43764" lon="6.79419">
        <ele>476.6</ele>
        <time>2014-11-02T09:34:59.000Z</time>
      </trkpt>
      <trkpt lat="47.43761" lon="6.79419">
        <ele>476.4</ele>
        <time>2014-11-02T09:35:00.000Z</time>
      </trkpt>
      <trkpt lat="47.43759" lon="6.79419">
        <ele>476.2</ele>
        <time>2014-11-02T09:35:01.000Z</time>
      </trkpt>
      <trkpt lat="47.43756" lon="6.7942">
        <ele>475.9</ele>
        <time>2014-11-02T09:35:02.000Z</time>
      </trkpt>
      <trkpt lat="47.4375" lon="6.79424">
        <ele>476.9</ele>
        <time>2014-11-02T09:35:05.000Z</time>
      </trkpt>
      <trkpt lat="47.43746" lon="6.79426">
        <ele>473.9</ele>
        <time>2014-11-02T09:35:07.000Z</time>
      </trkpt>
      <trkpt lat="47.43744" lon="6.79426">
        <ele>475</ele>
        <time>2014-11-02T09:35:08.000Z</time>
      </trkpt>
      <trkpt lat="47.43742" lon="6.79426">
        <ele>475.1</ele>
        <time>2014-11-02T09:35:09.000Z</time>
      </trkpt>
      <trkpt lat="47.43739" lon="6.79425">
        <ele>475.7</ele>
        <time>2014-11-02T09:35:10.000Z</time>
      </trkpt>
      <trkpt lat="47.43736" lon="6.79424">
        <ele>476.9</ele>
        <time>2014-11-02T09:35:11.000Z</time>
      </trkpt>
      <trkpt lat="47.43733" lon="6.79424">
        <ele>477.6</ele>
        <time>2014-11-02T09:35:12.000Z</time>
      </trkpt>
      <trkpt lat="47.43731" lon="6.79424">
        <ele>477.5</ele>
        <time>2014-11-02T09:35:13.000Z</time>
      </trkpt>
      <trkpt lat="47.43728" lon="6.79423">
        <ele>479.2</ele>
        <time>2014-11-02T09:35:14.000Z</time>
      </trkpt>
      <trkpt lat="47.43726" lon="6.79423">
        <ele>479.5</ele>
        <time>2014-11-02T09:35:15.000Z</time>
      </trkpt>
      <trkpt lat="47.43723" lon="6.79423">
        <ele>479.6</ele>
        <time>2014-11-02T09:35:16.000Z</time>
      </trkpt>
      <trkpt lat="47.43719" lon="6.79424">
        <ele>480.4</ele>
        <time>2014-11-02T09:35:18.000Z</time>
      </trkpt>
      <trkpt lat="47.43717" lon="6.79425">
        <ele>482</ele>
        <time>2014-11-02T09:35:19.000Z</time>
      </trkpt>
      <trkpt lat="47.43715" lon="6.79426">
        <ele>482.6</ele>
        <time>2014-11-02T09:35:20.000Z</time>
      </trkpt>
      <trkpt lat="47.43712" lon="6.79427">
        <ele>483.4</ele>
        <time>2014-11-02T09:35:21.000Z</time>
      </trkpt>
      <trkpt lat="47.4371" lon="6.79428">
        <ele>483.2</ele>
        <time>2014-11-02T09:35:22.000Z</time>
      </trkpt>
      <trkpt lat="47.43707" lon="6.79429">
        <ele>483.7</ele>
        <time>2014-11-02T09:35:23.000Z</time>
      </trkpt>
      <trkpt lat="47.43705" lon="6.7943">
        <ele>484.2</ele>
        <time>2014-11-02T09:35:24.000Z</time>
      </trkpt>
      <trkpt lat="47.43703" lon="6.7943">
        <ele>484.3</ele>
        <time>2014-11-02T09:35:25.000Z</time>
      </trkpt>
      <trkpt lat="47.43701" lon="6.79431">
        <ele>484.4</ele>
        <time>2014-11-02T09:35:26.000Z</time>
      </trkpt>
      <trkpt lat="47.43698" lon="6.79432">
        <ele>483.6</ele>
        <time>2014-11-02T09:35:27.000Z</time>
      </trkpt>
      <trkpt lat="47.43696" lon="6.79432">
        <ele>484.1</ele>
        <time>2014-11-02T09:35:28.000Z</time>
      </trkpt>
      <trkpt lat="47.43693" lon="6.79433">
        <ele>484.2</ele>
        <time>2014-11-02T09:35:29.000Z</time>
      </trkpt>
      <trkpt lat="47.4369" lon="6.79433">
        <ele>483.5</ele>
        <time>2014-11-02T09:35:30.000Z</time>
      </trkpt>
      <trkpt lat="47.43688" lon="6.79434">
        <ele>484.3</ele>
        <time>2014-11-02T09:35:31.000Z</time>
      </trkpt>
      <trkpt lat="47.43684" lon="6.79435">
        <ele>483.6</ele>
        <time>2014-11-02T09:35:33.000Z</time>
      </trkpt>
      <trkpt lat="47.43683" lon="6.79436">
        <ele>482.6</ele>
        <time>2014-11-02T09:35:34.000Z</time>
      </trkpt>
      <trkpt lat="47.4368" lon="6.79436">
        <ele>482.3</ele>
        <time>2014-11-02T09:35:35.000Z</time>
      </trkpt>
      <trkpt lat="47.43678" lon="6.79436">
        <ele>481.7</ele>
        <time>2014-11-02T09:35:36.000Z</time>
      </trkpt>
      <trkpt lat="47.43675" lon="6.79436">
        <ele>481.4</ele>
        <time>2014-11-02T09:35:37.000Z</time>
      </trkpt>
      <trkpt lat="47.43672" lon="6.79437">
        <ele>482.8</ele>
        <time>2014-11-02T09:35:38.000Z</time>
      </trkpt>
      <trkpt lat="47.4367" lon="6.79436">
        <ele>485.5</ele>
        <time>2014-11-02T09:35:39.000Z</time>
      </trkpt>
      <trkpt lat="47.43668" lon="6.79437">
        <ele>485.7</ele>
        <time>2014-11-02T09:35:40.000Z</time>
      </trkpt>
      <trkpt lat="47.43665" lon="6.79437">
        <ele>486.1</ele>
        <time>2014-11-02T09:35:41.000Z</time>
      </trkpt>
      <trkpt lat="47.43663" lon="6.79437">
        <ele>485.9</ele>
        <time>2014-11-02T09:35:42.000Z</time>
      </trkpt>
      <trkpt lat="47.4366" lon="6.79438">
        <ele>486.7</ele>
        <time>2014-11-02T09:35:43.000Z</time>
      </trkpt>
      <trkpt lat="47.43658" lon="6.79438">
        <ele>487.2</ele>
        <time>2014-11-02T09:35:44.000Z</time>
      </trkpt>
      <trkpt lat="47.43655" lon="6.79439">
        <ele>487.4</ele>
        <time>2014-11-02T09:35:45.000Z</time>
      </trkpt>
      <trkpt lat="47.43652" lon="6.79439">
        <ele>489</ele>
        <time>2014-11-02T09:35:46.000Z</time>
      </trkpt>
      <trkpt lat="47.4365" lon="6.79439">
        <ele>488.4</ele>
        <time>2014-11-02T09:35:47.000Z</time>
      </trkpt>
      <trkpt lat="47.43648" lon="6.79438">
        <ele>488.7</ele>
        <time>2014-11-02T09:35:48.000Z</time>
      </trkpt>
      <trkpt lat="47.43643" lon="6.79438">
        <ele>488.5</ele>
        <time>2014-11-02T09:35:50.000Z</time>
      </trkpt>
      <trkpt lat="47.43642" lon="6.79438">
        <ele>490.6</ele>
        <time>2014-11-02T09:35:51.000Z</time>
      </trkpt>
      <trkpt lat="47.43638" lon="6.79438">
        <ele>489.3</ele>
        <time>2014-11-02T09:35:53.000Z</time>
      </trkpt>
      <trkpt lat="47.43636" lon="6.79437">
        <ele>491.3</ele>
        <time>2014-11-02T09:35:54.000Z</time>
      </trkpt>
      <trkpt lat="47.43633" lon="6.79435">
        <ele>491.8</ele>
        <time>2014-11-02T09:35:55.000Z</time>
      </trkpt>
      <trkpt lat="47.43631" lon="6.79434">
        <ele>492.7</ele>
        <time>2014-11-02T09:35:56.000Z</time>
      </trkpt>
      <trkpt lat="47.43628" lon="6.79432">
        <ele>492.6</ele>
        <time>2014-11-02T09:35:57.000Z</time>
      </trkpt>
      <trkpt lat="47.43626" lon="6.79431">
        <ele>493</ele>
        <time>2014-11-02T09:35:58.000Z</time>
      </trkpt>
      <trkpt lat="47.43623" lon="6.79431">
        <ele>494.6</ele>
        <time>2014-11-02T09:35:59.000Z</time>
      </trkpt>
      <trkpt lat="47.43621" lon="6.7943">
        <ele>494.7</ele>
        <time>2014-11-02T09:36:00.000Z</time>
      </trkpt>
      <trkpt lat="47.43618" lon="6.7943">
        <ele>495</ele>
        <time>2014-11-02T09:36:01.000Z</time>
      </trkpt>
      <trkpt lat="47.43615" lon="6.79429">
        <ele>495.6</ele>
        <time>2014-11-02T09:36:02.000Z</time>
      </trkpt>
      <trkpt lat="47.43606" lon="6.7943">
        <ele>492.9</ele>
        <time>2014-11-02T09:36:05.000Z</time>
      </trkpt>
      <trkpt lat="47.43603" lon="6.79431">
        <ele>491.7</ele>
        <time>2014-11-02T09:36:06.000Z</time>
      </trkpt>
      <trkpt lat="47.436" lon="6.79432">
        <ele>491.6</ele>
        <time>2014-11-02T09:36:07.000Z</time>
      </trkpt>
      <trkpt lat="47.43597" lon="6.79433">
        <ele>491.5</ele>
        <time>2014-11-02T09:36:08.000Z</time>
      </trkpt>
      <trkpt lat="47.43594" lon="6.79433">
        <ele>491.7</ele>
        <time>2014-11-02T09:36:09.000Z</time>
      </trkpt>
      <trkpt lat="47.43591" lon="6.79435">
        <ele>492.4</ele>
        <time>2014-11-02T09:36:10.000Z</time>
      </trkpt>
      <trkpt lat="47.43588" lon="6.79436">
        <ele>490.3</ele>
        <time>2014-11-02T09:36:11.000Z</time>
      </trkpt>
      <trkpt lat="47.43585" lon="6.79438">
        <ele>489.8</ele>
        <time>2014-11-02T09:36:12.000Z</time>
      </trkpt>
      <trkpt lat="47.43583" lon="6.79441">
        <ele>489.6</ele>
        <time>2014-11-02T09:36:13.000Z</time>
      </trkpt>
      <trkpt lat="47.4358" lon="6.79442">
        <ele>489.2</ele>
        <time>2014-11-02T09:36:14.000Z</time>
      </trkpt>
      <trkpt lat="47.43577" lon="6.79444">
        <ele>489.2</ele>
        <time>2014-11-02T09:36:15.000Z</time>
      </trkpt>
      <trkpt lat="47.43575" lon="6.79445">
        <ele>489.1</ele>
        <time>2014-11-02T09:36:16.000Z</time>
      </trkpt>
      <trkpt lat="47.43572" lon="6.79447">
        <ele>488.7</ele>
        <time>2014-11-02T09:36:17.000Z</time>
      </trkpt>
      <trkpt lat="47.43569" lon="6.79448">
        <ele>488.7</ele>
        <time>2014-11-02T09:36:18.000Z</time>
      </trkpt>
      <trkpt lat="47.43565" lon="6.79449">
        <ele>489.1</ele>
        <time>2014-11-02T09:36:19.000Z</time>
      </trkpt>
      <trkpt lat="47.43561" lon="6.79451">
        <ele>489</ele>
        <time>2014-11-02T09:36:20.000Z</time>
      </trkpt>
      <trkpt lat="47.43558" lon="6.79454">
        <ele>488.9</ele>
        <time>2014-11-02T09:36:21.000Z</time>
      </trkpt>
      <trkpt lat="47.43553" lon="6.79455">
        <ele>485.5</ele>
        <time>2014-11-02T09:36:22.000Z</time>
      </trkpt>
      <trkpt lat="47.43549" lon="6.79456">
        <ele>484.1</ele>
        <time>2014-11-02T09:36:23.000Z</time>
      </trkpt>
      <trkpt lat="47.43545" lon="6.79457">
        <ele>487.2</ele>
        <time>2014-11-02T09:36:24.000Z</time>
      </trkpt>
      <trkpt lat="47.43542" lon="6.79457">
        <ele>487.5</ele>
        <time>2014-11-02T09:36:25.000Z</time>
      </trkpt>
      <trkpt lat="47.43539" lon="6.79457">
        <ele>488.5</ele>
        <time>2014-11-02T09:36:26.000Z</time>
      </trkpt>
      <trkpt lat="47.43536" lon="6.79458">
        <ele>488.8</ele>
        <time>2014-11-02T09:36:27.000Z</time>
      </trkpt>
      <trkpt lat="47.43533" lon="6.79459">
        <ele>488.7</ele>
        <time>2014-11-02T09:36:28.000Z</time>
      </trkpt>
      <trkpt lat="47.43529" lon="6.7946">
        <ele>488.7</ele>
        <time>2014-11-02T09:36:29.000Z</time>
      </trkpt>
      <trkpt lat="47.43526" lon="6.79462">
        <ele>488.9</ele>
        <time>2014-11-02T09:36:30.000Z</time>
      </trkpt>
      <trkpt lat="47.43523" lon="6.79463">
        <ele>486.9</ele>
        <time>2014-11-02T09:36:31.000Z</time>
      </trkpt>
      <trkpt lat="47.43519" lon="6.79463">
        <ele>489.4</ele>
        <time>2014-11-02T09:36:32.000Z</time>
      </trkpt>
      <trkpt lat="47.43516" lon="6.79463">
        <ele>488.5</ele>
        <time>2014-11-02T09:36:33.000Z</time>
      </trkpt>
      <trkpt lat="47.43512" lon="6.79464">
        <ele>488.5</ele>
        <time>2014-11-02T09:36:34.000Z</time>
      </trkpt>
      <trkpt lat="47.43509" lon="6.79465">
        <ele>488.7</ele>
        <time>2014-11-02T09:36:35.000Z</time>
      </trkpt>
      <trkpt lat="47.43505" lon="6.79467">
        <ele>487.8</ele>
        <time>2014-11-02T09:36:36.000Z</time>
      </trkpt>
      <trkpt lat="47.43501" lon="6.79469">
        <ele>487.5</ele>
        <time>2014-11-02T09:36:37.000Z</time>
      </trkpt>
      <trkpt lat="47.43497" lon="6.79471">
        <ele>485.7</ele>
        <time>2014-11-02T09:36:38.000Z</time>
      </trkpt>
      <trkpt lat="47.43493" lon="6.79474">
        <ele>484.5</ele>
        <time>2014-11-02T09:36:39.000Z</time>
      </trkpt>
      <trkpt lat="47.4349" lon="6.79477">
        <ele>483.6</ele>
        <time>2014-11-02T09:36:40.000Z</time>
      </trkpt>
      <trkpt lat="47.43486" lon="6.79479">
        <ele>482.6</ele>
        <time>2014-11-02T09:36:41.000Z</time>
      </trkpt>
      <trkpt lat="47.43482" lon="6.79482">
        <ele>483.1</ele>
        <time>2014-11-02T09:36:42.000Z</time>
      </trkpt>
      <trkpt lat="47.43478" lon="6.79484">
        <ele>483</ele>
        <time>2014-11-02T09:36:43.000Z</time>
      </trkpt>
      <trkpt lat="47.43473" lon="6.79486">
        <ele>483.5</ele>
        <time>2014-11-02T09:36:44.000Z</time>
      </trkpt>
      <trkpt lat="47.43469" lon="6.79489">
        <ele>483.1</ele>
        <time>2014-11-02T09:36:45.000Z</time>
      </trkpt>
      <trkpt lat="47.43465" lon="6.79493">
        <ele>481.8</ele>
        <time>2014-11-02T09:36:46.000Z</time>
      </trkpt>
      <trkpt lat="47.43462" lon="6.79496">
        <ele>482.9</ele>
        <time>2014-11-02T09:36:47.000Z</time>
      </trkpt>
      <trkpt lat="47.43459" lon="6.79499">
        <ele>482.8</ele>
        <time>2014-11-02T09:36:48.000Z</time>
      </trkpt>
      <trkpt lat="47.43456" lon="6.79502">
        <ele>482.4</ele>
        <time>2014-11-02T09:36:49.000Z</time>
      </trkpt>
      <trkpt lat="47.43454" lon="6.79504">
        <ele>481.9</ele>
        <time>2014-11-02T09:36:50.000Z</time>
      </trkpt>
      <trkpt lat="47.43452" lon="6.79507">
        <ele>481.3</ele>
        <time>2014-11-02T09:36:51.000Z</time>
      </trkpt>
      <trkpt lat="47.43449" lon="6.7951">
        <ele>481</ele>
        <time>2014-11-02T09:36:52.000Z</time>
      </trkpt>
      <trkpt lat="47.43446" lon="6.79512">
        <ele>480.8</ele>
        <time>2014-11-02T09:36:53.000Z</time>
      </trkpt>
      <trkpt lat="47.43444" lon="6.79515">
        <ele>480.4</ele>
        <time>2014-11-02T09:36:54.000Z</time>
      </trkpt>
      <trkpt lat="47.43441" lon="6.79517">
        <ele>480.3</ele>
        <time>2014-11-02T09:36:55.000Z</time>
      </trkpt>
      <trkpt lat="47.43438" lon="6.79518">
        <ele>480.2</ele>
        <time>2014-11-02T09:36:56.000Z</time>
      </trkpt>
      <trkpt lat="47.43435" lon="6.79518">
        <ele>480.1</ele>
        <time>2014-11-02T09:36:57.000Z</time>
      </trkpt>
      <trkpt lat="47.43432" lon="6.79518">
        <ele>480.2</ele>
        <time>2014-11-02T09:36:58.000Z</time>
      </trkpt>
      <trkpt lat="47.43428" lon="6.79518">
        <ele>483.5</ele>
        <time>2014-11-02T09:36:59.000Z</time>
      </trkpt>
      <trkpt lat="47.43423" lon="6.79518">
        <ele>483.3</ele>
        <time>2014-11-02T09:37:00.000Z</time>
      </trkpt>
      <trkpt lat="47.43418" lon="6.79517">
        <ele>483.1</ele>
        <time>2014-11-02T09:37:01.000Z</time>
      </trkpt>
      <trkpt lat="47.43413" lon="6.79517">
        <ele>484.2</ele>
        <time>2014-11-02T09:37:02.000Z</time>
      </trkpt>
      <trkpt lat="47.434" lon="6.79519">
        <ele>484.4</ele>
        <time>2014-11-02T09:37:05.000Z</time>
      </trkpt>
      <trkpt lat="47.43397" lon="6.79521">
        <ele>486.6</ele>
        <time>2014-11-02T09:37:06.000Z</time>
      </trkpt>
      <trkpt lat="47.43395" lon="6.79521">
        <ele>489</ele>
        <time>2014-11-02T09:37:07.000Z</time>
      </trkpt>
      <trkpt lat="47.43392" lon="6.79522">
        <ele>490.3</ele>
        <time>2014-11-02T09:37:09.000Z</time>
      </trkpt>
      <trkpt lat="47.4339" lon="6.79522">
        <ele>491.3</ele>
        <time>2014-11-02T09:37:10.000Z</time>
      </trkpt>
      <trkpt lat="47.43386" lon="6.79523">
        <ele>491.7</ele>
        <time>2014-11-02T09:37:12.000Z</time>
      </trkpt>
      <trkpt lat="47.43384" lon="6.79523">
        <ele>492.2</ele>
        <time>2014-11-02T09:37:12.999Z</time>
      </trkpt>
      <trkpt lat="47.43382" lon="6.79528">
        <ele>492.5</ele>
        <time>2014-11-02T09:37:14.000Z</time>
      </trkpt>
      <trkpt lat="47.43374" lon="6.79524">
        <ele>496.1</ele>
        <time>2014-11-02T09:37:15.000Z</time>
      </trkpt>
      <trkpt lat="47.4337" lon="6.79521">
        <ele>495.9</ele>
        <time>2014-11-02T09:37:16.000Z</time>
      </trkpt>
      <trkpt lat="47.43369" lon="6.79523">
        <ele>496.9</ele>
        <time>2014-11-02T09:37:17.000Z</time>
      </trkpt>
      <trkpt lat="47.43365" lon="6.79526">
        <ele>499.4</ele>
        <time>2014-11-02T09:37:19.000Z</time>
      </trkpt>
      <trkpt lat="47.43364" lon="6.79528">
        <ele>499.1</ele>
        <time>2014-11-02T09:37:20.000Z</time>
      </trkpt>
      <trkpt lat="47.43362" lon="6.79529">
        <ele>499.5</ele>
        <time>2014-11-02T09:37:21.000Z</time>
      </trkpt>
      <trkpt lat="47.43359" lon="6.79533">
        <ele>497.9</ele>
        <time>2014-11-02T09:37:22.000Z</time>
      </trkpt>
      <trkpt lat="47.43355" lon="6.79534">
        <ele>497.6</ele>
        <time>2014-11-02T09:37:24.000Z</time>
      </trkpt>
      <trkpt lat="47.43353" lon="6.79534">
        <ele>498.6</ele>
        <time>2014-11-02T09:37:25.000Z</time>
      </trkpt>
      <trkpt lat="47.43351" lon="6.79535">
        <ele>499.8</ele>
        <time>2014-11-02T09:37:26.000Z</time>
      </trkpt>
      <trkpt lat="47.43348" lon="6.79537">
        <ele>500.5</ele>
        <time>2014-11-02T09:37:27.000Z</time>
      </trkpt>
      <trkpt lat="47.43345" lon="6.79539">
        <ele>500.4</ele>
        <time>2014-11-02T09:37:28.000Z</time>
      </trkpt>
      <trkpt lat="47.43342" lon="6.79541">
        <ele>500.9</ele>
        <time>2014-11-02T09:37:29.000Z</time>
      </trkpt>
      <trkpt lat="47.43339" lon="6.79542">
        <ele>501.4</ele>
        <time>2014-11-02T09:37:30.000Z</time>
      </trkpt>
      <trkpt lat="47.43337" lon="6.79542">
        <ele>501.6</ele>
        <time>2014-11-02T09:37:31.000Z</time>
      </trkpt>
      <trkpt lat="47.43335" lon="6.79543">
        <ele>501.8</ele>
        <time>2014-11-02T09:37:32.000Z</time>
      </trkpt>
      <trkpt lat="47.43333" lon="6.79544">
        <ele>504.7</ele>
        <time>2014-11-02T09:37:33.000Z</time>
      </trkpt>
      <trkpt lat="47.4333" lon="6.79545">
        <ele>504.8</ele>
        <time>2014-11-02T09:37:34.000Z</time>
      </trkpt>
      <trkpt lat="47.43328" lon="6.79546">
        <ele>504.9</ele>
        <time>2014-11-02T09:37:35.000Z</time>
      </trkpt>
      <trkpt lat="47.43326" lon="6.79548">
        <ele>504.4</ele>
        <time>2014-11-02T09:37:36.000Z</time>
      </trkpt>
      <trkpt lat="47.43323" lon="6.7955">
        <ele>504.5</ele>
        <time>2014-11-02T09:37:37.000Z</time>
      </trkpt>
      <trkpt lat="47.43321" lon="6.79552">
        <ele>504.9</ele>
        <time>2014-11-02T09:37:38.000Z</time>
      </trkpt>
      <trkpt lat="47.43319" lon="6.79554">
        <ele>504.2</ele>
        <time>2014-11-02T09:37:39.000Z</time>
      </trkpt>
      <trkpt lat="47.43316" lon="6.79555">
        <ele>504.3</ele>
        <time>2014-11-02T09:37:40.000Z</time>
      </trkpt>
      <trkpt lat="47.43314" lon="6.79557">
        <ele>503.7</ele>
        <time>2014-11-02T09:37:41.000Z</time>
      </trkpt>
      <trkpt lat="47.43311" lon="6.79557">
        <ele>503.8</ele>
        <time>2014-11-02T09:37:42.000Z</time>
      </trkpt>
      <trkpt lat="47.43308" lon="6.79558">
        <ele>503.4</ele>
        <time>2014-11-02T09:37:43.000Z</time>
      </trkpt>
      <trkpt lat="47.43306" lon="6.79558">
        <ele>503.2</ele>
        <time>2014-11-02T09:37:44.000Z</time>
      </trkpt>
      <trkpt lat="47.43303" lon="6.79558">
        <ele>503.9</ele>
        <time>2014-11-02T09:37:45.000Z</time>
      </trkpt>
      <trkpt lat="47.433" lon="6.79558">
        <ele>503.6</ele>
        <time>2014-11-02T09:37:46.000Z</time>
      </trkpt>
      <trkpt lat="47.43296" lon="6.79558">
        <ele>503.7</ele>
        <time>2014-11-02T09:37:47.000Z</time>
      </trkpt>
      <trkpt lat="47.43292" lon="6.79558">
        <ele>503.5</ele>
        <time>2014-11-02T09:37:48.000Z</time>
      </trkpt>
      <trkpt lat="47.43288" lon="6.79558">
        <ele>502.9</ele>
        <time>2014-11-02T09:37:49.000Z</time>
      </trkpt>
      <trkpt lat="47.43285" lon="6.79558">
        <ele>502.7</ele>
        <time>2014-11-02T09:37:50.000Z</time>
      </trkpt>
      <trkpt lat="47.43282" lon="6.79558">
        <ele>502.2</ele>
        <time>2014-11-02T09:37:51.000Z</time>
      </trkpt>
      <trkpt lat="47.43279" lon="6.79557">
        <ele>502.3</ele>
        <time>2014-11-02T09:37:52.000Z</time>
      </trkpt>
      <trkpt lat="47.43275" lon="6.79556">
        <ele>501.7</ele>
        <time>2014-11-02T09:37:53.000Z</time>
      </trkpt>
      <trkpt lat="47.43266" lon="6.79558">
        <ele>498.9</ele>
        <time>2014-11-02T09:37:54.000Z</time>
      </trkpt>
      <trkpt lat="47.43262" lon="6.7956">
        <ele>497.7</ele>
        <time>2014-11-02T09:37:55.000Z</time>
      </trkpt>
      <trkpt lat="47.43259" lon="6.79563">
        <ele>497.5</ele>
        <time>2014-11-02T09:37:56.000Z</time>
      </trkpt>
      <trkpt lat="47.43254" lon="6.79565">
        <ele>496.9</ele>
        <time>2014-11-02T09:37:57.000Z</time>
      </trkpt>
      <trkpt lat="47.43251" lon="6.79567">
        <ele>496.6</ele>
        <time>2014-11-02T09:37:58.000Z</time>
      </trkpt>
      <trkpt lat="47.43248" lon="6.79568">
        <ele>496.1</ele>
        <time>2014-11-02T09:37:59.000Z</time>
      </trkpt>
      <trkpt lat="47.43244" lon="6.79565">
        <ele>495.8</ele>
        <time>2014-11-02T09:38:00.000Z</time>
      </trkpt>
      <trkpt lat="47.43241" lon="6.79564">
        <ele>496.8</ele>
        <time>2014-11-02T09:38:01.000Z</time>
      </trkpt>
      <trkpt lat="47.43238" lon="6.79562">
        <ele>497.1</ele>
        <time>2014-11-02T09:38:02.000Z</time>
      </trkpt>
      <trkpt lat="47.43231" lon="6.79557">
        <ele>494.6</ele>
        <time>2014-11-02T09:38:05.000Z</time>
      </trkpt>
      <trkpt lat="47.43225" lon="6.79559">
        <ele>495.9</ele>
        <time>2014-11-02T09:38:06.000Z</time>
      </trkpt>
      <trkpt lat="47.4322" lon="6.79558">
        <ele>496.1</ele>
        <time>2014-11-02T09:38:07.000Z</time>
      </trkpt>
      <trkpt lat="47.43216" lon="6.79557">
        <ele>497</ele>
        <time>2014-11-02T09:38:08.000Z</time>
      </trkpt>
      <trkpt lat="47.43213" lon="6.79562">
        <ele>497.9</ele>
        <time>2014-11-02T09:38:09.000Z</time>
      </trkpt>
      <trkpt lat="47.4321" lon="6.79564">
        <ele>497.9</ele>
        <time>2014-11-02T09:38:10.000Z</time>
      </trkpt>
      <trkpt lat="47.43207" lon="6.79566">
        <ele>498.3</ele>
        <time>2014-11-02T09:38:11.000Z</time>
      </trkpt>
      <trkpt lat="47.43203" lon="6.79562">
        <ele>500.7</ele>
        <time>2014-11-02T09:38:12.000Z</time>
      </trkpt>
      <trkpt lat="47.432" lon="6.79561">
        <ele>501.3</ele>
        <time>2014-11-02T09:38:13.000Z</time>
      </trkpt>
      <trkpt lat="47.43198" lon="6.7956">
        <ele>502.7</ele>
        <time>2014-11-02T09:38:14.000Z</time>
      </trkpt>
      <trkpt lat="47.43195" lon="6.79558">
        <ele>500.9</ele>
        <time>2014-11-02T09:38:15.000Z</time>
      </trkpt>
      <trkpt lat="47.43192" lon="6.79557">
        <ele>500.2</ele>
        <time>2014-11-02T09:38:16.000Z</time>
      </trkpt>
      <trkpt lat="47.43188" lon="6.79556">
        <ele>499.9</ele>
        <time>2014-11-02T09:38:17.000Z</time>
      </trkpt>
      <trkpt lat="47.43181" lon="6.79555">
        <ele>498.8</ele>
        <time>2014-11-02T09:38:18.000Z</time>
      </trkpt>
      <trkpt lat="47.43177" lon="6.79555">
        <ele>498.3</ele>
        <time>2014-11-02T09:38:19.000Z</time>
      </trkpt>
      <trkpt lat="47.43173" lon="6.79557">
        <ele>498.1</ele>
        <time>2014-11-02T09:38:20.000Z</time>
      </trkpt>
      <trkpt lat="47.43171" lon="6.7956">
        <ele>497.3</ele>
        <time>2014-11-02T09:38:21.000Z</time>
      </trkpt>
      <trkpt lat="47.4317" lon="6.79564">
        <ele>496.2</ele>
        <time>2014-11-02T09:38:22.000Z</time>
      </trkpt>
      <trkpt lat="47.43169" lon="6.79569">
        <ele>495.6</ele>
        <time>2014-11-02T09:38:23.000Z</time>
      </trkpt>
      <trkpt lat="47.43168" lon="6.79574">
        <ele>496</ele>
        <time>2014-11-02T09:38:24.000Z</time>
      </trkpt>
      <trkpt lat="47.43166" lon="6.79578">
        <ele>495.9</ele>
        <time>2014-11-02T09:38:25.000Z</time>
      </trkpt>
      <trkpt lat="47.43165" lon="6.79582">
        <ele>496</ele>
        <time>2014-11-02T09:38:26.000Z</time>
      </trkpt>
      <trkpt lat="47.43163" lon="6.79586">
        <ele>495.6</ele>
        <time>2014-11-02T09:38:27.000Z</time>
      </trkpt>
      <trkpt lat="47.43162" lon="6.79589">
        <ele>496.6</ele>
        <time>2014-11-02T09:38:28.000Z</time>
      </trkpt>
      <trkpt lat="47.4316" lon="6.79592">
        <ele>495.9</ele>
        <time>2014-11-02T09:38:29.000Z</time>
      </trkpt>
      <trkpt lat="47.43157" lon="6.79596">
        <ele>495</ele>
        <time>2014-11-02T09:38:31.000Z</time>
      </trkpt>
      <trkpt lat="47.43155" lon="6.79597">
        <ele>494.9</ele>
        <time>2014-11-02T09:38:32.000Z</time>
      </trkpt>
      <trkpt lat="47.43153" lon="6.79597">
        <ele>494.6</ele>
        <time>2014-11-02T09:38:33.000Z</time>
      </trkpt>
      <trkpt lat="47.4315" lon="6.79597">
        <ele>496.8</ele>
        <time>2014-11-02T09:38:34.000Z</time>
      </trkpt>
      <trkpt lat="47.43146" lon="6.79599">
        <ele>498</ele>
        <time>2014-11-02T09:38:36.000Z</time>
      </trkpt>
      <trkpt lat="47.43144" lon="6.79599">
        <ele>497.3</ele>
        <time>2014-11-02T09:38:37.000Z</time>
      </trkpt>
      <trkpt lat="47.43141" lon="6.79597">
        <ele>497.9</ele>
        <time>2014-11-02T09:38:39.000Z</time>
      </trkpt>
      <trkpt lat="47.43139" lon="6.79595">
        <ele>499.3</ele>
        <time>2014-11-02T09:38:40.000Z</time>
      </trkpt>
      <trkpt lat="47.43136" lon="6.79593">
        <ele>499.2</ele>
        <time>2014-11-02T09:38:41.000Z</time>
      </trkpt>
      <trkpt lat="47.43134" lon="6.79592">
        <ele>499.2</ele>
        <time>2014-11-02T09:38:42.000Z</time>
      </trkpt>
      <trkpt lat="47.43131" lon="6.7959">
        <ele>499.1</ele>
        <time>2014-11-02T09:38:44.000Z</time>
      </trkpt>
      <trkpt lat="47.4313" lon="6.79589">
        <ele>498.5</ele>
        <time>2014-11-02T09:38:45.000Z</time>
      </trkpt>
      <trkpt lat="47.43128" lon="6.79585">
        <ele>498.5</ele>
        <time>2014-11-02T09:38:47.000Z</time>
      </trkpt>
      <trkpt lat="47.43127" lon="6.79582">
        <ele>499.7</ele>
        <time>2014-11-02T09:38:48.000Z</time>
      </trkpt>
      <trkpt lat="47.43124" lon="6.79577">
        <ele>499.7</ele>
        <time>2014-11-02T09:38:50.000Z</time>
      </trkpt>
      <trkpt lat="47.43123" lon="6.79575">
        <ele>500.3</ele>
        <time>2014-11-02T09:38:51.000Z</time>
      </trkpt>
      <trkpt lat="47.4312" lon="6.79574">
        <ele>500.9</ele>
        <time>2014-11-02T09:38:52.000Z</time>
      </trkpt>
      <trkpt lat="47.43118" lon="6.79574">
        <ele>503.1</ele>
        <time>2014-11-02T09:38:53.000Z</time>
      </trkpt>
      <trkpt lat="47.43116" lon="6.79575">
        <ele>501.3</ele>
        <time>2014-11-02T09:38:54.000Z</time>
      </trkpt>
      <trkpt lat="47.43114" lon="6.79577">
        <ele>501.3</ele>
        <time>2014-11-02T09:38:55.000Z</time>
      </trkpt>
      <trkpt lat="47.43112" lon="6.79579">
        <ele>501.7</ele>
        <time>2014-11-02T09:38:56.000Z</time>
      </trkpt>
      <trkpt lat="47.43109" lon="6.7958">
        <ele>501.9</ele>
        <time>2014-11-02T09:38:57.000Z</time>
      </trkpt>
      <trkpt lat="47.43106" lon="6.79581">
        <ele>501.7</ele>
        <time>2014-11-02T09:38:58.000Z</time>
      </trkpt>
      <trkpt lat="47.43103" lon="6.79581">
        <ele>501.1</ele>
        <time>2014-11-02T09:38:59.000Z</time>
      </trkpt>
      <trkpt lat="47.431" lon="6.79581">
        <ele>500.7</ele>
        <time>2014-11-02T09:39:00.000Z</time>
      </trkpt>
      <trkpt lat="47.43097" lon="6.79581">
        <ele>497.2</ele>
        <time>2014-11-02T09:39:01.000Z</time>
      </trkpt>
      <trkpt lat="47.43095" lon="6.7958">
        <ele>499.1</ele>
        <time>2014-11-02T09:39:02.000Z</time>
      </trkpt>
      <trkpt lat="47.43087" lon="6.79579">
        <ele>496.6</ele>
        <time>2014-11-02T09:39:05.000Z</time>
      </trkpt>
      <trkpt lat="47.43086" lon="6.79574">
        <ele>496.5</ele>
        <time>2014-11-02T09:39:08.000Z</time>
      </trkpt>
      <trkpt lat="47.43086" lon="6.79572">
        <ele>495.7</ele>
        <time>2014-11-02T09:39:09.000Z</time>
      </trkpt>
      <trkpt lat="47.43082" lon="6.79571">
        <ele>495.6</ele>
        <time>2014-11-02T09:40:24.000Z</time>
      </trkpt>
      <trkpt lat="47.43081" lon="6.79571">
        <ele>495.7</ele>
        <time>2014-11-02T09:40:25.000Z</time>
      </trkpt>
      <trkpt lat="47.43085" lon="6.79574">
        <ele>500.5</ele>
        <time>2014-11-02T09:42:16.000Z</time>
      </trkpt>
      <trkpt lat="47.43085" lon="6.79574">
        <ele>500.9</ele>
        <time>2014-11-02T09:42:17.000Z</time>
      </trkpt>
      <trkpt lat="47.43081" lon="6.79573">
        <ele>503.5</ele>
        <time>2014-11-02T09:42:36.000Z</time>
      </trkpt>
      <trkpt lat="47.43081" lon="6.79573">
        <ele>503.3</ele>
        <time>2014-11-02T09:42:37.000Z</time>
      </trkpt>
      <trkpt lat="47.43079" lon="6.79578">
        <ele>498.2</ele>
        <time>2014-11-02T09:42:56.000Z</time>
      </trkpt>
      <trkpt lat="47.43078" lon="6.79578">
        <ele>497.7</ele>
        <time>2014-11-02T09:42:57.000Z</time>
      </trkpt>
      <trkpt lat="47.43076" lon="6.79579">
        <ele>497.5</ele>
        <time>2014-11-02T09:42:58.000Z</time>
      </trkpt>
      <trkpt lat="47.43073" lon="6.79581">
        <ele>497.2</ele>
        <time>2014-11-02T09:42:59.000Z</time>
      </trkpt>
      <trkpt lat="47.43071" lon="6.79583">
        <ele>498.3</ele>
        <time>2014-11-02T09:43:00.000Z</time>
      </trkpt>
      <trkpt lat="47.43069" lon="6.79585">
        <ele>499.4</ele>
        <time>2014-11-02T09:43:01.000Z</time>
      </trkpt>
      <trkpt lat="47.43067" lon="6.79586">
        <ele>498.7</ele>
        <time>2014-11-02T09:43:02.000Z</time>
      </trkpt>
      <trkpt lat="47.43059" lon="6.79585">
        <ele>499.1</ele>
        <time>2014-11-02T09:43:05.000Z</time>
      </trkpt>
      <trkpt lat="47.43057" lon="6.79585">
        <ele>499.1</ele>
        <time>2014-11-02T09:43:06.000Z</time>
      </trkpt>
      <trkpt lat="47.43054" lon="6.79585">
        <ele>499.4</ele>
        <time>2014-11-02T09:43:07.000Z</time>
      </trkpt>
      <trkpt lat="47.43051" lon="6.79588">
        <ele>498.6</ele>
        <time>2014-11-02T09:43:09.000Z</time>
      </trkpt>
      <trkpt lat="47.43049" lon="6.7959">
        <ele>498.2</ele>
        <time>2014-11-02T09:43:10.000Z</time>
      </trkpt>
      <trkpt lat="47.43044" lon="6.79591">
        <ele>498.3</ele>
        <time>2014-11-02T09:43:12.000Z</time>
      </trkpt>
      <trkpt lat="47.43042" lon="6.79588">
        <ele>498.3</ele>
        <time>2014-11-02T09:43:12.998Z</time>
      </trkpt>
      <trkpt lat="47.4304" lon="6.79585">
        <ele>498.1</ele>
        <time>2014-11-02T09:43:14.000Z</time>
      </trkpt>
      <trkpt lat="47.43037" lon="6.79582">
        <ele>498.5</ele>
        <time>2014-11-02T09:43:15.000Z</time>
      </trkpt>
      <trkpt lat="47.43034" lon="6.7958">
        <ele>498.4</ele>
        <time>2014-11-02T09:43:16.000Z</time>
      </trkpt>
      <trkpt lat="47.43032" lon="6.79579">
        <ele>498</ele>
        <time>2014-11-02T09:43:17.000Z</time>
      </trkpt>
      <trkpt lat="47.43029" lon="6.79579">
        <ele>497.3</ele>
        <time>2014-11-02T09:43:18.000Z</time>
      </trkpt>
      <trkpt lat="47.43025" lon="6.79579">
        <ele>497.3</ele>
        <time>2014-11-02T09:43:19.000Z</time>
      </trkpt>
      <trkpt lat="47.43022" lon="6.7958">
        <ele>497.5</ele>
        <time>2014-11-02T09:43:20.000Z</time>
      </trkpt>
      <trkpt lat="47.43018" lon="6.79581">
        <ele>497.7</ele>
        <time>2014-11-02T09:43:21.000Z</time>
      </trkpt>
      <trkpt lat="47.43015" lon="6.79582">
        <ele>497.3</ele>
        <time>2014-11-02T09:43:22.000Z</time>
      </trkpt>
      <trkpt lat="47.43012" lon="6.79583">
        <ele>497.1</ele>
        <time>2014-11-02T09:43:23.000Z</time>
      </trkpt>
      <trkpt lat="47.43009" lon="6.79584">
        <ele>497.4</ele>
        <time>2014-11-02T09:43:24.000Z</time>
      </trkpt>
      <trkpt lat="47.43005" lon="6.79585">
        <ele>497.2</ele>
        <time>2014-11-02T09:43:25.000Z</time>
      </trkpt>
      <trkpt lat="47.43001" lon="6.79585">
        <ele>496.8</ele>
        <time>2014-11-02T09:43:26.000Z</time>
      </trkpt>
      <trkpt lat="47.42997" lon="6.79586">
        <ele>496.9</ele>
        <time>2014-11-02T09:43:27.000Z</time>
      </trkpt>
      <trkpt lat="47.42989" lon="6.79588">
        <ele>496.1</ele>
        <time>2014-11-02T09:43:28.000Z</time>
      </trkpt>
      <trkpt lat="47.42985" lon="6.79589">
        <ele>496.4</ele>
        <time>2014-11-02T09:43:29.000Z</time>
      </trkpt>
      <trkpt lat="47.42981" lon="6.79588">
        <ele>496.3</ele>
        <time>2014-11-02T09:43:30.000Z</time>
      </trkpt>
      <trkpt lat="47.42978" lon="6.79587">
        <ele>496.5</ele>
        <time>2014-11-02T09:43:31.000Z</time>
      </trkpt>
      <trkpt lat="47.42974" lon="6.79585">
        <ele>496.4</ele>
        <time>2014-11-02T09:43:32.098Z</time>
      </trkpt>
      <trkpt lat="47.4297" lon="6.79586">
        <ele>496.3</ele>
        <time>2014-11-02T09:43:33.000Z</time>
      </trkpt>
      <trkpt lat="47.42965" lon="6.79586">
        <ele>499.9</ele>
        <time>2014-11-02T09:43:34.000Z</time>
      </trkpt>
      <trkpt lat="47.42961" lon="6.79585">
        <ele>501</ele>
        <time>2014-11-02T09:43:35.000Z</time>
      </trkpt>
      <trkpt lat="47.42957" lon="6.79585">
        <ele>500.6</ele>
        <time>2014-11-02T09:43:36.000Z</time>
      </trkpt>
      <trkpt lat="47.42953" lon="6.79592">
        <ele>498.7</ele>
        <time>2014-11-02T09:43:37.000Z</time>
      </trkpt>
      <trkpt lat="47.42949" lon="6.79593">
        <ele>498.1</ele>
        <time>2014-11-02T09:43:38.000Z</time>
      </trkpt>
      <trkpt lat="47.42946" lon="6.79593">
        <ele>497.7</ele>
        <time>2014-11-02T09:43:39.000Z</time>
      </trkpt>
      <trkpt lat="47.42941" lon="6.7959">
        <ele>499.8</ele>
        <time>2014-11-02T09:43:40.000Z</time>
      </trkpt>
      <trkpt lat="47.42936" lon="6.7959">
        <ele>500.7</ele>
        <time>2014-11-02T09:43:41.000Z</time>
      </trkpt>
      <trkpt lat="47.42932" lon="6.79588">
        <ele>500.9</ele>
        <time>2014-11-02T09:43:42.000Z</time>
      </trkpt>
      <trkpt lat="47.42926" lon="6.79587">
        <ele>500.7</ele>
        <time>2014-11-02T09:43:43.000Z</time>
      </trkpt>
      <trkpt lat="47.42921" lon="6.79585">
        <ele>501.2</ele>
        <time>2014-11-02T09:43:44.000Z</time>
      </trkpt>
      <trkpt lat="47.42913" lon="6.79587">
        <ele>502.6</ele>
        <time>2014-11-02T09:43:45.000Z</time>
      </trkpt>
      <trkpt lat="47.42905" lon="6.79587">
        <ele>502.7</ele>
        <time>2014-11-02T09:43:46.000Z</time>
      </trkpt>
      <trkpt lat="47.429" lon="6.79584">
        <ele>502.6</ele>
        <time>2014-11-02T09:43:47.000Z</time>
      </trkpt>
      <trkpt lat="47.42894" lon="6.79582">
        <ele>502.6</ele>
        <time>2014-11-02T09:43:48.000Z</time>
      </trkpt>
      <trkpt lat="47.42886" lon="6.79577">
        <ele>502.9</ele>
        <time>2014-11-02T09:43:49.000Z</time>
      </trkpt>
      <trkpt lat="47.42879" lon="6.79574">
        <ele>503</ele>
        <time>2014-11-02T09:43:50.000Z</time>
      </trkpt>
      <trkpt lat="47.42874" lon="6.79574">
        <ele>503</ele>
        <time>2014-11-02T09:43:51.000Z</time>
      </trkpt>
      <trkpt lat="47.42869" lon="6.79574">
        <ele>502.5</ele>
        <time>2014-11-02T09:43:52.000Z</time>
      </trkpt>
      <trkpt lat="47.42864" lon="6.79573">
        <ele>502.6</ele>
        <time>2014-11-02T09:43:53.000Z</time>
      </trkpt>
      <trkpt lat="47.4286" lon="6.79571">
        <ele>502.6</ele>
        <time>2014-11-02T09:43:54.000Z</time>
      </trkpt>
      <trkpt lat="47.42855" lon="6.79572">
        <ele>502.6</ele>
        <time>2014-11-02T09:43:55.000Z</time>
      </trkpt>
      <trkpt lat="47.4285" lon="6.79573">
        <ele>502.5</ele>
        <time>2014-11-02T09:43:56.000Z</time>
      </trkpt>
      <trkpt lat="47.42846" lon="6.79572">
        <ele>505.4</ele>
        <time>2014-11-02T09:43:57.000Z</time>
      </trkpt>
      <trkpt lat="47.42841" lon="6.7957">
        <ele>506.4</ele>
        <time>2014-11-02T09:43:58.000Z</time>
      </trkpt>
      <trkpt lat="47.42835" lon="6.79571">
        <ele>508.2</ele>
        <time>2014-11-02T09:43:59.000Z</time>
      </trkpt>
      <trkpt lat="47.4283" lon="6.7957">
        <ele>508.4</ele>
        <time>2014-11-02T09:44:00.000Z</time>
      </trkpt>
      <trkpt lat="47.42827" lon="6.7957">
        <ele>507.9</ele>
        <time>2014-11-02T09:44:01.000Z</time>
      </trkpt>
      <trkpt lat="47.42824" lon="6.79569">
        <ele>508.2</ele>
        <time>2014-11-02T09:44:02.000Z</time>
      </trkpt>
      <trkpt lat="47.42816" lon="6.7957">
        <ele>504.4</ele>
        <time>2014-11-02T09:44:05.000Z</time>
      </trkpt>
      <trkpt lat="47.42812" lon="6.79566">
        <ele>507.3</ele>
        <time>2014-11-02T09:44:06.000Z</time>
      </trkpt>
      <trkpt lat="47.42804" lon="6.79566">
        <ele>506.2</ele>
        <time>2014-11-02T09:44:07.000Z</time>
      </trkpt>
      <trkpt lat="47.42804" lon="6.79561">
        <ele>509.1</ele>
        <time>2014-11-02T09:44:09.000Z</time>
      </trkpt>
      <trkpt lat="47.42803" lon="6.7956">
        <ele>510.1</ele>
        <time>2014-11-02T09:44:09.999Z</time>
      </trkpt>
      <trkpt lat="47.42798" lon="6.79563">
        <ele>510</ele>
        <time>2014-11-02T09:44:11.000Z</time>
      </trkpt>
      <trkpt lat="47.42794" lon="6.79563">
        <ele>511.7</ele>
        <time>2014-11-02T09:44:13.000Z</time>
      </trkpt>
      <trkpt lat="47.42791" lon="6.79563">
        <ele>513.4</ele>
        <time>2014-11-02T09:44:14.000Z</time>
      </trkpt>
      <trkpt lat="47.42788" lon="6.79562">
        <ele>514</ele>
        <time>2014-11-02T09:44:15.000Z</time>
      </trkpt>
      <trkpt lat="47.42786" lon="6.79561">
        <ele>514.9</ele>
        <time>2014-11-02T09:44:16.001Z</time>
      </trkpt>
      <trkpt lat="47.42782" lon="6.79561">
        <ele>514.6</ele>
        <time>2014-11-02T09:44:16.999Z</time>
      </trkpt>
      <trkpt lat="47.42779" lon="6.79559">
        <ele>513.6</ele>
        <time>2014-11-02T09:44:18.000Z</time>
      </trkpt>
      <trkpt lat="47.42776" lon="6.79558">
        <ele>512.7</ele>
        <time>2014-11-02T09:44:19.000Z</time>
      </trkpt>
      <trkpt lat="47.42773" lon="6.79556">
        <ele>512.5</ele>
        <time>2014-11-02T09:44:20.000Z</time>
      </trkpt>
      <trkpt lat="47.42769" lon="6.79555">
        <ele>511.9</ele>
        <time>2014-11-02T09:44:21.000Z</time>
      </trkpt>
      <trkpt lat="47.42765" lon="6.79554">
        <ele>510.9</ele>
        <time>2014-11-02T09:44:22.000Z</time>
      </trkpt>
      <trkpt lat="47.42761" lon="6.79554">
        <ele>510.1</ele>
        <time>2014-11-02T09:44:23.000Z</time>
      </trkpt>
      <trkpt lat="47.42757" lon="6.79554">
        <ele>509.8</ele>
        <time>2014-11-02T09:44:24.000Z</time>
      </trkpt>
      <trkpt lat="47.42753" lon="6.79554">
        <ele>509.6</ele>
        <time>2014-11-02T09:44:25.000Z</time>
      </trkpt>
      <trkpt lat="47.42749" lon="6.79554">
        <ele>509.1</ele>
        <time>2014-11-02T09:44:26.000Z</time>
      </trkpt>
      <trkpt lat="47.42744" lon="6.79553">
        <ele>509.5</ele>
        <time>2014-11-02T09:44:27.000Z</time>
      </trkpt>
      <trkpt lat="47.4274" lon="6.79553">
        <ele>509.6</ele>
        <time>2014-11-02T09:44:28.000Z</time>
      </trkpt>
      <trkpt lat="47.42735" lon="6.79554">
        <ele>509.3</ele>
        <time>2014-11-02T09:44:29.000Z</time>
      </trkpt>
      <trkpt lat="47.42731" lon="6.79554">
        <ele>508.9</ele>
        <time>2014-11-02T09:44:30.000Z</time>
      </trkpt>
      <trkpt lat="47.42726" lon="6.79554">
        <ele>508.2</ele>
        <time>2014-11-02T09:44:31.000Z</time>
      </trkpt>
      <trkpt lat="47.42721" lon="6.79554">
        <ele>507.1</ele>
        <time>2014-11-02T09:44:32.000Z</time>
      </trkpt>
      <trkpt lat="47.42717" lon="6.79554">
        <ele>505.8</ele>
        <time>2014-11-02T09:44:33.000Z</time>
      </trkpt>
      <trkpt lat="47.42712" lon="6.79553">
        <ele>505.2</ele>
        <time>2014-11-02T09:44:34.000Z</time>
      </trkpt>
      <trkpt lat="47.42708" lon="6.79552">
        <ele>505</ele>
        <time>2014-11-02T09:44:35.000Z</time>
      </trkpt>
      <trkpt lat="47.42704" lon="6.7955">
        <ele>504.4</ele>
        <time>2014-11-02T09:44:36.000Z</time>
      </trkpt>
      <trkpt lat="47.42699" lon="6.79549">
        <ele>505.2</ele>
        <time>2014-11-02T09:44:37.000Z</time>
      </trkpt>
      <trkpt lat="47.42694" lon="6.79548">
        <ele>505.5</ele>
        <time>2014-11-02T09:44:38.000Z</time>
      </trkpt>
      <trkpt lat="47.42688" lon="6.79547">
        <ele>505.2</ele>
        <time>2014-11-02T09:44:39.000Z</time>
      </trkpt>
      <trkpt lat="47.42682" lon="6.79546">
        <ele>504.6</ele>
        <time>2014-11-02T09:44:40.000Z</time>
      </trkpt>
      <trkpt lat="47.42676" lon="6.79545">
        <ele>504.3</ele>
        <time>2014-11-02T09:44:41.000Z</time>
      </trkpt>
      <trkpt lat="47.42671" lon="6.79545">
        <ele>504.5</ele>
        <time>2014-11-02T09:44:42.000Z</time>
      </trkpt>
      <trkpt lat="47.42667" lon="6.79544">
        <ele>503.8</ele>
        <time>2014-11-02T09:44:43.000Z</time>
      </trkpt>
      <trkpt lat="47.42663" lon="6.79544">
        <ele>504.2</ele>
        <time>2014-11-02T09:44:44.000Z</time>
      </trkpt>
      <trkpt lat="47.42659" lon="6.79542">
        <ele>505.3</ele>
        <time>2014-11-02T09:44:45.000Z</time>
      </trkpt>
      <trkpt lat="47.42654" lon="6.79541">
        <ele>505.1</ele>
        <time>2014-11-02T09:44:46.000Z</time>
      </trkpt>
      <trkpt lat="47.4265" lon="6.7954">
        <ele>505</ele>
        <time>2014-11-02T09:44:47.000Z</time>
      </trkpt>
      <trkpt lat="47.42645" lon="6.79538">
        <ele>505.1</ele>
        <time>2014-11-02T09:44:48.000Z</time>
      </trkpt>
      <trkpt lat="47.42641" lon="6.79538">
        <ele>504.1</ele>
        <time>2014-11-02T09:44:49.000Z</time>
      </trkpt>
      <trkpt lat="47.42637" lon="6.79537">
        <ele>504.3</ele>
        <time>2014-11-02T09:44:50.000Z</time>
      </trkpt>
      <trkpt lat="47.42633" lon="6.79537">
        <ele>504</ele>
        <time>2014-11-02T09:44:51.000Z</time>
      </trkpt>
      <trkpt lat="47.4263" lon="6.79536">
        <ele>503.1</ele>
        <time>2014-11-02T09:44:52.000Z</time>
      </trkpt>
      <trkpt lat="47.42626" lon="6.79535">
        <ele>503.3</ele>
        <time>2014-11-02T09:44:53.000Z</time>
      </trkpt>
      <trkpt lat="47.42623" lon="6.79535">
        <ele>502</ele>
        <time>2014-11-02T09:44:54.000Z</time>
      </trkpt>
      <trkpt lat="47.42619" lon="6.79535">
        <ele>501.7</ele>
        <time>2014-11-02T09:44:55.000Z</time>
      </trkpt>
      <trkpt lat="47.42616" lon="6.79536">
        <ele>501.4</ele>
        <time>2014-11-02T09:44:56.000Z</time>
      </trkpt>
      <trkpt lat="47.42612" lon="6.79536">
        <ele>503.5</ele>
        <time>2014-11-02T09:44:57.000Z</time>
      </trkpt>
      <trkpt lat="47.42609" lon="6.79536">
        <ele>503.6</ele>
        <time>2014-11-02T09:44:58.000Z</time>
      </trkpt>
      <trkpt lat="47.42605" lon="6.79536">
        <ele>502.2</ele>
        <time>2014-11-02T09:44:59.000Z</time>
      </trkpt>
      <trkpt lat="47.42601" lon="6.79535">
        <ele>503.4</ele>
        <time>2014-11-02T09:45:00.000Z</time>
      </trkpt>
      <trkpt lat="47.42598" lon="6.79534">
        <ele>503.1</ele>
        <time>2014-11-02T09:45:01.000Z</time>
      </trkpt>
      <trkpt lat="47.42594" lon="6.79534">
        <ele>502.8</ele>
        <time>2014-11-02T09:45:02.000Z</time>
      </trkpt>
      <trkpt lat="47.42587" lon="6.79535">
        <ele>499.6</ele>
        <time>2014-11-02T09:45:04.229Z</time>
      </trkpt>
      <trkpt lat="47.42573" lon="6.7954">
        <ele>499.6</ele>
        <time>2014-11-02T09:45:08.000Z</time>
      </trkpt>
      <trkpt lat="47.4257" lon="6.79541">
        <ele>499.9</ele>
        <time>2014-11-02T09:45:09.000Z</time>
      </trkpt>
      <trkpt lat="47.42566" lon="6.79541">
        <ele>500.3</ele>
        <time>2014-11-02T09:45:10.000Z</time>
      </trkpt>
      <trkpt lat="47.42562" lon="6.79541">
        <ele>500.9</ele>
        <time>2014-11-02T09:45:11.000Z</time>
      </trkpt>
      <trkpt lat="47.42557" lon="6.7954">
        <ele>501.3</ele>
        <time>2014-11-02T09:45:12.000Z</time>
      </trkpt>
      <trkpt lat="47.42553" lon="6.7954">
        <ele>502.5</ele>
        <time>2014-11-02T09:45:13.000Z</time>
      </trkpt>
      <trkpt lat="47.42548" lon="6.7954">
        <ele>502.9</ele>
        <time>2014-11-02T09:45:14.000Z</time>
      </trkpt>
      <trkpt lat="47.42543" lon="6.79539">
        <ele>503.1</ele>
        <time>2014-11-02T09:45:15.000Z</time>
      </trkpt>
      <trkpt lat="47.42539" lon="6.79538">
        <ele>502.4</ele>
        <time>2014-11-02T09:45:16.000Z</time>
      </trkpt>
      <trkpt lat="47.42535" lon="6.79538">
        <ele>502.3</ele>
        <time>2014-11-02T09:45:17.000Z</time>
      </trkpt>
      <trkpt lat="47.4252" lon="6.79532">
        <ele>502.6</ele>
        <time>2014-11-02T09:45:18.000Z</time>
      </trkpt>
      <trkpt lat="47.42514" lon="6.79529">
        <ele>502.1</ele>
        <time>2014-11-02T09:45:19.000Z</time>
      </trkpt>
      <trkpt lat="47.42509" lon="6.79527">
        <ele>501.9</ele>
        <time>2014-11-02T09:45:20.000Z</time>
      </trkpt>
      <trkpt lat="47.42506" lon="6.79523">
        <ele>501.8</ele>
        <time>2014-11-02T09:45:21.000Z</time>
      </trkpt>
      <trkpt lat="47.425" lon="6.79523">
        <ele>501.8</ele>
        <time>2014-11-02T09:45:22.000Z</time>
      </trkpt>
      <trkpt lat="47.42493" lon="6.79521">
        <ele>501.1</ele>
        <time>2014-11-02T09:45:23.000Z</time>
      </trkpt>
      <trkpt lat="47.42488" lon="6.79518">
        <ele>501.1</ele>
        <time>2014-11-02T09:45:24.000Z</time>
      </trkpt>
      <trkpt lat="47.42485" lon="6.79521">
        <ele>501.8</ele>
        <time>2014-11-02T09:45:25.000Z</time>
      </trkpt>
      <trkpt lat="47.4248" lon="6.7952">
        <ele>502.7</ele>
        <time>2014-11-02T09:45:26.000Z</time>
      </trkpt>
      <trkpt lat="47.42477" lon="6.79519">
        <ele>502.6</ele>
        <time>2014-11-02T09:45:27.000Z</time>
      </trkpt>
      <trkpt lat="47.42473" lon="6.79518">
        <ele>502.6</ele>
        <time>2014-11-02T09:45:28.000Z</time>
      </trkpt>
      <trkpt lat="47.4247" lon="6.79517">
        <ele>503</ele>
        <time>2014-11-02T09:45:29.000Z</time>
      </trkpt>
      <trkpt lat="47.42463" lon="6.79514">
        <ele>503.4</ele>
        <time>2014-11-02T09:45:30.000Z</time>
      </trkpt>
      <trkpt lat="47.42458" lon="6.79513">
        <ele>503.8</ele>
        <time>2014-11-02T09:45:31.000Z</time>
      </trkpt>
      <trkpt lat="47.42452" lon="6.79515">
        <ele>503.7</ele>
        <time>2014-11-02T09:45:32.000Z</time>
      </trkpt>
      <trkpt lat="47.42447" lon="6.79514">
        <ele>504.1</ele>
        <time>2014-11-02T09:45:33.000Z</time>
      </trkpt>
      <trkpt lat="47.42443" lon="6.79515">
        <ele>504.6</ele>
        <time>2014-11-02T09:45:34.078Z</time>
      </trkpt>
      <trkpt lat="47.42435" lon="6.7951">
        <ele>503.9</ele>
        <time>2014-11-02T09:45:35.000Z</time>
      </trkpt>
      <trkpt lat="47.4243" lon="6.79508">
        <ele>505</ele>
        <time>2014-11-02T09:45:36.000Z</time>
      </trkpt>
      <trkpt lat="47.42424" lon="6.79507">
        <ele>504.4</ele>
        <time>2014-11-02T09:45:37.000Z</time>
      </trkpt>
      <trkpt lat="47.4242" lon="6.79506">
        <ele>504.4</ele>
        <time>2014-11-02T09:45:38.000Z</time>
      </trkpt>
      <trkpt lat="47.42414" lon="6.79506">
        <ele>503.9</ele>
        <time>2014-11-02T09:45:39.000Z</time>
      </trkpt>
      <trkpt lat="47.42409" lon="6.79505">
        <ele>504.1</ele>
        <time>2014-11-02T09:45:40.000Z</time>
      </trkpt>
      <trkpt lat="47.42404" lon="6.79503">
        <ele>503.8</ele>
        <time>2014-11-02T09:45:41.000Z</time>
      </trkpt>
      <trkpt lat="47.424" lon="6.79502">
        <ele>504</ele>
        <time>2014-11-02T09:45:42.000Z</time>
      </trkpt>
      <trkpt lat="47.42397" lon="6.795">
        <ele>504.3</ele>
        <time>2014-11-02T09:45:43.000Z</time>
      </trkpt>
      <trkpt lat="47.42394" lon="6.795">
        <ele>503.9</ele>
        <time>2014-11-02T09:45:44.000Z</time>
      </trkpt>
      <trkpt lat="47.42388" lon="6.795">
        <ele>502</ele>
        <time>2014-11-02T09:45:45.000Z</time>
      </trkpt>
      <trkpt lat="47.42385" lon="6.79501">
        <ele>500.5</ele>
        <time>2014-11-02T09:45:46.000Z</time>
      </trkpt>
      <trkpt lat="47.42382" lon="6.79499">
        <ele>502.1</ele>
        <time>2014-11-02T09:45:47.000Z</time>
      </trkpt>
      <trkpt lat="47.42378" lon="6.79498">
        <ele>501.8</ele>
        <time>2014-11-02T09:45:48.000Z</time>
      </trkpt>
      <trkpt lat="47.42374" lon="6.795">
        <ele>500.3</ele>
        <time>2014-11-02T09:45:49.000Z</time>
      </trkpt>
      <trkpt lat="47.42371" lon="6.795">
        <ele>500.2</ele>
        <time>2014-11-02T09:45:50.000Z</time>
      </trkpt>
      <trkpt lat="47.42369" lon="6.795">
        <ele>501.3</ele>
        <time>2014-11-02T09:45:51.000Z</time>
      </trkpt>
      <trkpt lat="47.42365" lon="6.79499">
        <ele>502.1</ele>
        <time>2014-11-02T09:45:53.000Z</time>
      </trkpt>
      <trkpt lat="47.42363" lon="6.79498">
        <ele>502.4</ele>
        <time>2014-11-02T09:45:54.000Z</time>
      </trkpt>
      <trkpt lat="47.42361" lon="6.79497">
        <ele>503.2</ele>
        <time>2014-11-02T09:45:55.000Z</time>
      </trkpt>
      <trkpt lat="47.42358" lon="6.79495">
        <ele>503.9</ele>
        <time>2014-11-02T09:45:56.000Z</time>
      </trkpt>
      <trkpt lat="47.42347" lon="6.79489">
        <ele>504.4</ele>
        <time>2014-11-02T09:45:57.000Z</time>
      </trkpt>
      <trkpt lat="47.42339" lon="6.79487">
        <ele>502.3</ele>
        <time>2014-11-02T09:45:58.000Z</time>
      </trkpt>
      <trkpt lat="47.42334" lon="6.79489">
        <ele>500.3</ele>
        <time>2014-11-02T09:45:59.000Z</time>
      </trkpt>
      <trkpt lat="47.4233" lon="6.79489">
        <ele>501</ele>
        <time>2014-11-02T09:46:00.000Z</time>
      </trkpt>
      <trkpt lat="47.42324" lon="6.79487">
        <ele>501.8</ele>
        <time>2014-11-02T09:46:01.000Z</time>
      </trkpt>
      <trkpt lat="47.4232" lon="6.79486">
        <ele>502.2</ele>
        <time>2014-11-02T09:46:02.000Z</time>
      </trkpt>
      <trkpt lat="47.42304" lon="6.79485">
        <ele>498.3</ele>
        <time>2014-11-02T09:46:05.000Z</time>
      </trkpt>
      <trkpt lat="47.42297" lon="6.79485">
        <ele>498</ele>
        <time>2014-11-02T09:46:06.000Z</time>
      </trkpt>
      <trkpt lat="47.42292" lon="6.79485">
        <ele>497</ele>
        <time>2014-11-02T09:46:07.000Z</time>
      </trkpt>
      <trkpt lat="47.42287" lon="6.79483">
        <ele>497.7</ele>
        <time>2014-11-02T09:46:08.000Z</time>
      </trkpt>
      <trkpt lat="47.42282" lon="6.79483">
        <ele>497.8</ele>
        <time>2014-11-02T09:46:09.000Z</time>
      </trkpt>
      <trkpt lat="47.42276" lon="6.79483">
        <ele>495.8</ele>
        <time>2014-11-02T09:46:10.000Z</time>
      </trkpt>
      <trkpt lat="47.4227" lon="6.7948">
        <ele>495.7</ele>
        <time>2014-11-02T09:46:11.000Z</time>
      </trkpt>
      <trkpt lat="47.42266" lon="6.79477">
        <ele>496.1</ele>
        <time>2014-11-02T09:46:12.000Z</time>
      </trkpt>
      <trkpt lat="47.42262" lon="6.79476">
        <ele>495.7</ele>
        <time>2014-11-02T09:46:13.001Z</time>
      </trkpt>
      <trkpt lat="47.42258" lon="6.79475">
        <ele>496.1</ele>
        <time>2014-11-02T09:46:14.000Z</time>
      </trkpt>
      <trkpt lat="47.42254" lon="6.79475">
        <ele>496.2</ele>
        <time>2014-11-02T09:46:15.000Z</time>
      </trkpt>
      <trkpt lat="47.42249" lon="6.79473">
        <ele>495.8</ele>
        <time>2014-11-02T09:46:16.000Z</time>
      </trkpt>
      <trkpt lat="47.42244" lon="6.79473">
        <ele>495.2</ele>
        <time>2014-11-02T09:46:17.000Z</time>
      </trkpt>
      <trkpt lat="47.4224" lon="6.79474">
        <ele>494.1</ele>
        <time>2014-11-02T09:46:18.000Z</time>
      </trkpt>
      <trkpt lat="47.42236" lon="6.79474">
        <ele>493.8</ele>
        <time>2014-11-02T09:46:19.000Z</time>
      </trkpt>
      <trkpt lat="47.42232" lon="6.79473">
        <ele>495.2</ele>
        <time>2014-11-02T09:46:20.000Z</time>
      </trkpt>
      <trkpt lat="47.42229" lon="6.79471">
        <ele>497.7</ele>
        <time>2014-11-02T09:46:21.000Z</time>
      </trkpt>
      <trkpt lat="47.42227" lon="6.79469">
        <ele>498.8</ele>
        <time>2014-11-02T09:46:22.000Z</time>
      </trkpt>
      <trkpt lat="47.42225" lon="6.79468">
        <ele>498.8</ele>
        <time>2014-11-02T09:46:23.000Z</time>
      </trkpt>
      <trkpt lat="47.42221" lon="6.79465">
        <ele>500.2</ele>
        <time>2014-11-02T09:46:25.000Z</time>
      </trkpt>
      <trkpt lat="47.42219" lon="6.79464">
        <ele>501.4</ele>
        <time>2014-11-02T09:46:26.000Z</time>
      </trkpt>
      <trkpt lat="47.42216" lon="6.79462">
        <ele>502</ele>
        <time>2014-11-02T09:46:27.000Z</time>
      </trkpt>
      <trkpt lat="47.42213" lon="6.79462">
        <ele>501.4</ele>
        <time>2014-11-02T09:46:28.000Z</time>
      </trkpt>
      <trkpt lat="47.42209" lon="6.79461">
        <ele>501.4</ele>
        <time>2014-11-02T09:46:29.000Z</time>
      </trkpt>
      <trkpt lat="47.42206" lon="6.79462">
        <ele>501.1</ele>
        <time>2014-11-02T09:46:30.000Z</time>
      </trkpt>
      <trkpt lat="47.42203" lon="6.79463">
        <ele>499.9</ele>
        <time>2014-11-02T09:46:31.000Z</time>
      </trkpt>
      <trkpt lat="47.422" lon="6.79463">
        <ele>501.4</ele>
        <time>2014-11-02T09:46:32.000Z</time>
      </trkpt>
      <trkpt lat="47.42197" lon="6.79463">
        <ele>502.4</ele>
        <time>2014-11-02T09:46:33.000Z</time>
      </trkpt>
      <trkpt lat="47.42194" lon="6.79463">
        <ele>502.6</ele>
        <time>2014-11-02T09:46:34.000Z</time>
      </trkpt>
      <trkpt lat="47.42191" lon="6.79462">
        <ele>502.3</ele>
        <time>2014-11-02T09:46:35.000Z</time>
      </trkpt>
      <trkpt lat="47.42187" lon="6.79462">
        <ele>502.4</ele>
        <time>2014-11-02T09:46:36.000Z</time>
      </trkpt>
      <trkpt lat="47.42184" lon="6.79463">
        <ele>502.5</ele>
        <time>2014-11-02T09:46:37.000Z</time>
      </trkpt>
      <trkpt lat="47.4218" lon="6.79463">
        <ele>503.1</ele>
        <time>2014-11-02T09:46:38.000Z</time>
      </trkpt>
      <trkpt lat="47.42177" lon="6.79463">
        <ele>502.5</ele>
        <time>2014-11-02T09:46:39.000Z</time>
      </trkpt>
      <trkpt lat="47.42175" lon="6.79463">
        <ele>503.9</ele>
        <time>2014-11-02T09:46:40.000Z</time>
      </trkpt>
      <trkpt lat="47.42173" lon="6.79462">
        <ele>504.3</ele>
        <time>2014-11-02T09:46:41.000Z</time>
      </trkpt>
      <trkpt lat="47.4217" lon="6.79462">
        <ele>504.7</ele>
        <time>2014-11-02T09:46:42.000Z</time>
      </trkpt>
      <trkpt lat="47.42168" lon="6.79461">
        <ele>505.1</ele>
        <time>2014-11-02T09:46:43.000Z</time>
      </trkpt>
      <trkpt lat="47.42165" lon="6.7946">
        <ele>505.6</ele>
        <time>2014-11-02T09:46:44.000Z</time>
      </trkpt>
      <trkpt lat="47.42163" lon="6.7946">
        <ele>505.7</ele>
        <time>2014-11-02T09:46:45.000Z</time>
      </trkpt>
      <trkpt lat="47.4216" lon="6.7946">
        <ele>506.3</ele>
        <time>2014-11-02T09:46:46.000Z</time>
      </trkpt>
      <trkpt lat="47.42156" lon="6.79459">
        <ele>507</ele>
        <time>2014-11-02T09:46:48.000Z</time>
      </trkpt>
      <trkpt lat="47.42154" lon="6.79459">
        <ele>506.8</ele>
        <time>2014-11-02T09:46:49.000Z</time>
      </trkpt>
      <trkpt lat="47.42151" lon="6.79458">
        <ele>505.1</ele>
        <time>2014-11-02T09:46:50.000Z</time>
      </trkpt>
      <trkpt lat="47.42148" lon="6.79458">
        <ele>505.8</ele>
        <time>2014-11-02T09:46:51.000Z</time>
      </trkpt>
      <trkpt lat="47.42145" lon="6.79457">
        <ele>506.5</ele>
        <time>2014-11-02T09:46:52.000Z</time>
      </trkpt>
      <trkpt lat="47.42142" lon="6.79457">
        <ele>506.9</ele>
        <time>2014-11-02T09:46:53.000Z</time>
      </trkpt>
      <trkpt lat="47.42139" lon="6.79456">
        <ele>508.8</ele>
        <time>2014-11-02T09:46:54.000Z</time>
      </trkpt>
      <trkpt lat="47.42135" lon="6.79456">
        <ele>509.8</ele>
        <time>2014-11-02T09:46:55.000Z</time>
      </trkpt>
      <trkpt lat="47.42132" lon="6.79456">
        <ele>510.6</ele>
        <time>2014-11-02T09:46:56.000Z</time>
      </trkpt>
      <trkpt lat="47.42129" lon="6.79456">
        <ele>511.8</ele>
        <time>2014-11-02T09:46:57.000Z</time>
      </trkpt>
      <trkpt lat="47.42126" lon="6.79455">
        <ele>512</ele>
        <time>2014-11-02T09:46:58.000Z</time>
      </trkpt>
      <trkpt lat="47.42123" lon="6.79454">
        <ele>512.9</ele>
        <time>2014-11-02T09:46:59.000Z</time>
      </trkpt>
      <trkpt lat="47.42121" lon="6.79454">
        <ele>513.7</ele>
        <time>2014-11-02T09:47:00.000Z</time>
      </trkpt>
      <trkpt lat="47.42118" lon="6.79453">
        <ele>512.7</ele>
        <time>2014-11-02T09:47:01.000Z</time>
      </trkpt>
      <trkpt lat="47.42115" lon="6.79453">
        <ele>513.2</ele>
        <time>2014-11-02T09:47:02.000Z</time>
      </trkpt>
      <trkpt lat="47.42107" lon="6.79454">
        <ele>509.9</ele>
        <time>2014-11-02T09:47:05.000Z</time>
      </trkpt>
      <trkpt lat="47.42104" lon="6.79455">
        <ele>512.2</ele>
        <time>2014-11-02T09:47:06.000Z</time>
      </trkpt>
      <trkpt lat="47.42102" lon="6.79456">
        <ele>512.1</ele>
        <time>2014-11-02T09:47:07.000Z</time>
      </trkpt>
      <trkpt lat="47.42099" lon="6.79459">
        <ele>512</ele>
        <time>2014-11-02T09:47:10.000Z</time>
      </trkpt>
      <trkpt lat="47.42099" lon="6.7946">
        <ele>512.3</ele>
        <time>2014-11-02T09:47:11.000Z</time>
      </trkpt>
      <trkpt lat="47.42096" lon="6.79462">
        <ele>514</ele>
        <time>2014-11-02T09:47:13.000Z</time>
      </trkpt>
      <trkpt lat="47.42093" lon="6.79463">
        <ele>513.3</ele>
        <time>2014-11-02T09:47:14.000Z</time>
      </trkpt>
      <trkpt lat="47.4209" lon="6.79465">
        <ele>514.1</ele>
        <time>2014-11-02T09:47:16.000Z</time>
      </trkpt>
      <trkpt lat="47.42088" lon="6.79466">
        <ele>515.2</ele>
        <time>2014-11-02T09:47:17.000Z</time>
      </trkpt>
      <trkpt lat="47.42085" lon="6.79466">
        <ele>514.5</ele>
        <time>2014-11-02T09:47:18.000Z</time>
      </trkpt>
      <trkpt lat="47.42082" lon="6.79465">
        <ele>513.8</ele>
        <time>2014-11-02T09:47:19.000Z</time>
      </trkpt>
      <trkpt lat="47.42079" lon="6.79464">
        <ele>513.9</ele>
        <time>2014-11-02T09:47:20.000Z</time>
      </trkpt>
      <trkpt lat="47.42075" lon="6.79464">
        <ele>514.7</ele>
        <time>2014-11-02T09:47:21.000Z</time>
      </trkpt>
      <trkpt lat="47.42073" lon="6.79463">
        <ele>515.3</ele>
        <time>2014-11-02T09:47:22.000Z</time>
      </trkpt>
      <trkpt lat="47.4207" lon="6.79464">
        <ele>515.5</ele>
        <time>2014-11-02T09:47:23.000Z</time>
      </trkpt>
      <trkpt lat="47.42066" lon="6.79464">
        <ele>515.7</ele>
        <time>2014-11-02T09:47:25.000Z</time>
      </trkpt>
      <trkpt lat="47.42065" lon="6.79464">
        <ele>515.7</ele>
        <time>2014-11-02T09:47:26.000Z</time>
      </trkpt>
      <trkpt lat="47.4206" lon="6.79465">
        <ele>518.2</ele>
        <time>2014-11-02T09:47:28.000Z</time>
      </trkpt>
      <trkpt lat="47.42057" lon="6.79465">
        <ele>518.2</ele>
        <time>2014-11-02T09:47:29.000Z</time>
      </trkpt>
      <trkpt lat="47.42055" lon="6.79465">
        <ele>518.3</ele>
        <time>2014-11-02T09:47:30.000Z</time>
      </trkpt>
      <trkpt lat="47.42053" lon="6.79466">
        <ele>517.3</ele>
        <time>2014-11-02T09:47:31.000Z</time>
      </trkpt>
      <trkpt lat="47.4205" lon="6.79467">
        <ele>515.6</ele>
        <time>2014-11-02T09:47:32.000Z</time>
      </trkpt>
      <trkpt lat="47.42047" lon="6.79468">
        <ele>514.7</ele>
        <time>2014-11-02T09:47:33.000Z</time>
      </trkpt>
      <trkpt lat="47.42043" lon="6.7947">
        <ele>513.9</ele>
        <time>2014-11-02T09:47:34.000Z</time>
      </trkpt>
      <trkpt lat="47.4204" lon="6.7947">
        <ele>513.4</ele>
        <time>2014-11-02T09:47:35.000Z</time>
      </trkpt>
      <trkpt lat="47.42038" lon="6.7947">
        <ele>513.2</ele>
        <time>2014-11-02T09:47:36.000Z</time>
      </trkpt>
      <trkpt lat="47.42036" lon="6.79469">
        <ele>516.8</ele>
        <time>2014-11-02T09:47:37.000Z</time>
      </trkpt>
      <trkpt lat="47.42032" lon="6.79468">
        <ele>517.9</ele>
        <time>2014-11-02T09:47:39.000Z</time>
      </trkpt>
      <trkpt lat="47.42031" lon="6.79468">
        <ele>518.2</ele>
        <time>2014-11-02T09:47:40.000Z</time>
      </trkpt>
      <trkpt lat="47.42027" lon="6.79467">
        <ele>522.3</ele>
        <time>2014-11-02T09:47:42.000Z</time>
      </trkpt>
      <trkpt lat="47.42025" lon="6.79467">
        <ele>522.9</ele>
        <time>2014-11-02T09:47:43.000Z</time>
      </trkpt>
      <trkpt lat="47.42022" lon="6.79468">
        <ele>524.1</ele>
        <time>2014-11-02T09:47:44.000Z</time>
      </trkpt>
      <trkpt lat="47.42019" lon="6.79468">
        <ele>524.3</ele>
        <time>2014-11-02T09:47:45.000Z</time>
      </trkpt>
      <trkpt lat="47.42016" lon="6.79469">
        <ele>524.2</ele>
        <time>2014-11-02T09:47:46.000Z</time>
      </trkpt>
      <trkpt lat="47.42013" lon="6.7947">
        <ele>523.4</ele>
        <time>2014-11-02T09:47:47.000Z</time>
      </trkpt>
      <trkpt lat="47.42011" lon="6.79471">
        <ele>523.2</ele>
        <time>2014-11-02T09:47:48.000Z</time>
      </trkpt>
      <trkpt lat="47.42009" lon="6.79473">
        <ele>522.5</ele>
        <time>2014-11-02T09:47:49.000Z</time>
      </trkpt>
      <trkpt lat="47.42006" lon="6.79474">
        <ele>522</ele>
        <time>2014-11-02T09:47:50.000Z</time>
      </trkpt>
      <trkpt lat="47.42004" lon="6.79476">
        <ele>521.1</ele>
        <time>2014-11-02T09:47:51.000Z</time>
      </trkpt>
      <trkpt lat="47.42001" lon="6.79478">
        <ele>521.7</ele>
        <time>2014-11-02T09:47:52.000Z</time>
      </trkpt>
      <trkpt lat="47.41998" lon="6.7948">
        <ele>520.3</ele>
        <time>2014-11-02T09:47:53.000Z</time>
      </trkpt>
      <trkpt lat="47.41994" lon="6.79482">
        <ele>519.5</ele>
        <time>2014-11-02T09:47:54.000Z</time>
      </trkpt>
      <trkpt lat="47.41991" lon="6.79485">
        <ele>519.3</ele>
        <time>2014-11-02T09:47:55.000Z</time>
      </trkpt>
      <trkpt lat="47.41987" lon="6.79488">
        <ele>520.1</ele>
        <time>2014-11-02T09:47:56.000Z</time>
      </trkpt>
      <trkpt lat="47.41984" lon="6.7949">
        <ele>519.5</ele>
        <time>2014-11-02T09:47:57.000Z</time>
      </trkpt>
      <trkpt lat="47.4198" lon="6.79492">
        <ele>519.3</ele>
        <time>2014-11-02T09:47:58.000Z</time>
      </trkpt>
      <trkpt lat="47.41976" lon="6.79495">
        <ele>518.9</ele>
        <time>2014-11-02T09:47:59.000Z</time>
      </trkpt>
      <trkpt lat="47.41972" lon="6.79497">
        <ele>518.4</ele>
        <time>2014-11-02T09:48:00.000Z</time>
      </trkpt>
      <trkpt lat="47.41969" lon="6.79501">
        <ele>519.2</ele>
        <time>2014-11-02T09:48:01.000Z</time>
      </trkpt>
      <trkpt lat="47.41966" lon="6.79504">
        <ele>518.8</ele>
        <time>2014-11-02T09:48:02.000Z</time>
      </trkpt>
      <trkpt lat="47.41958" lon="6.79514">
        <ele>514.5</ele>
        <time>2014-11-02T09:48:05.000Z</time>
      </trkpt>
      <trkpt lat="47.41956" lon="6.79518">
        <ele>514.3</ele>
        <time>2014-11-02T09:48:06.000Z</time>
      </trkpt>
      <trkpt lat="47.41952" lon="6.79523">
        <ele>513.5</ele>
        <time>2014-11-02T09:48:07.000Z</time>
      </trkpt>
      <trkpt lat="47.41949" lon="6.79527">
        <ele>512.9</ele>
        <time>2014-11-02T09:48:08.000Z</time>
      </trkpt>
      <trkpt lat="47.41945" lon="6.79531">
        <ele>512.4</ele>
        <time>2014-11-02T09:48:09.000Z</time>
      </trkpt>
      <trkpt lat="47.41942" lon="6.79535">
        <ele>511.5</ele>
        <time>2014-11-02T09:48:10.000Z</time>
      </trkpt>
      <trkpt lat="47.41939" lon="6.7954">
        <ele>511.4</ele>
        <time>2014-11-02T09:48:11.000Z</time>
      </trkpt>
      <trkpt lat="47.41937" lon="6.79544">
        <ele>511.1</ele>
        <time>2014-11-02T09:48:12.000Z</time>
      </trkpt>
      <trkpt lat="47.41934" lon="6.79548">
        <ele>510.5</ele>
        <time>2014-11-02T09:48:13.000Z</time>
      </trkpt>
      <trkpt lat="47.41932" lon="6.79553">
        <ele>509.9</ele>
        <time>2014-11-02T09:48:14.000Z</time>
      </trkpt>
      <trkpt lat="47.4193" lon="6.79557">
        <ele>509.5</ele>
        <time>2014-11-02T09:48:15.000Z</time>
      </trkpt>
      <trkpt lat="47.41928" lon="6.79562">
        <ele>509.4</ele>
        <time>2014-11-02T09:48:16.000Z</time>
      </trkpt>
      <trkpt lat="47.41925" lon="6.79566">
        <ele>508.7</ele>
        <time>2014-11-02T09:48:17.000Z</time>
      </trkpt>
      <trkpt lat="47.41923" lon="6.79571">
        <ele>508.1</ele>
        <time>2014-11-02T09:48:18.000Z</time>
      </trkpt>
      <trkpt lat="47.41921" lon="6.79577">
        <ele>507.4</ele>
        <time>2014-11-02T09:48:19.000Z</time>
      </trkpt>
      <trkpt lat="47.41918" lon="6.79585">
        <ele>507.6</ele>
        <time>2014-11-02T09:48:20.000Z</time>
      </trkpt>
      <trkpt lat="47.41916" lon="6.79592">
        <ele>508.6</ele>
        <time>2014-11-02T09:48:21.000Z</time>
      </trkpt>
      <trkpt lat="47.41914" lon="6.79599">
        <ele>506.8</ele>
        <time>2014-11-02T09:48:22.000Z</time>
      </trkpt>
      <trkpt lat="47.41912" lon="6.79605">
        <ele>505.7</ele>
        <time>2014-11-02T09:48:23.000Z</time>
      </trkpt>
      <trkpt lat="47.4191" lon="6.79612">
        <ele>505.2</ele>
        <time>2014-11-02T09:48:24.000Z</time>
      </trkpt>
      <trkpt lat="47.41908" lon="6.79618">
        <ele>503.7</ele>
        <time>2014-11-02T09:48:25.000Z</time>
      </trkpt>
      <trkpt lat="47.41907" lon="6.79624">
        <ele>502.6</ele>
        <time>2014-11-02T09:48:26.000Z</time>
      </trkpt>
      <trkpt lat="47.41905" lon="6.7963">
        <ele>502.9</ele>
        <time>2014-11-02T09:48:27.000Z</time>
      </trkpt>
      <trkpt lat="47.41904" lon="6.79636">
        <ele>502.2</ele>
        <time>2014-11-02T09:48:28.000Z</time>
      </trkpt>
      <trkpt lat="47.41904" lon="6.79642">
        <ele>502.3</ele>
        <time>2014-11-02T09:48:29.000Z</time>
      </trkpt>
      <trkpt lat="47.41903" lon="6.79647">
        <ele>501.1</ele>
        <time>2014-11-02T09:48:30.000Z</time>
      </trkpt>
      <trkpt lat="47.41903" lon="6.79652">
        <ele>501.2</ele>
        <time>2014-11-02T09:48:31.000Z</time>
      </trkpt>
      <trkpt lat="47.41902" lon="6.79657">
        <ele>500.8</ele>
        <time>2014-11-02T09:48:32.000Z</time>
      </trkpt>
      <trkpt lat="47.41901" lon="6.79662">
        <ele>500</ele>
        <time>2014-11-02T09:48:33.000Z</time>
      </trkpt>
      <trkpt lat="47.41901" lon="6.79668">
        <ele>501.4</ele>
        <time>2014-11-02T09:48:34.000Z</time>
      </trkpt>
      <trkpt lat="47.41901" lon="6.79674">
        <ele>500.6</ele>
        <time>2014-11-02T09:48:35.000Z</time>
      </trkpt>
      <trkpt lat="47.41902" lon="6.7968">
        <ele>499.2</ele>
        <time>2014-11-02T09:48:36.000Z</time>
      </trkpt>
      <trkpt lat="47.41903" lon="6.79687">
        <ele>497.1</ele>
        <time>2014-11-02T09:48:37.000Z</time>
      </trkpt>
      <trkpt lat="47.41903" lon="6.79695">
        <ele>496.2</ele>
        <time>2014-11-02T09:48:38.000Z</time>
      </trkpt>
      <trkpt lat="47.41904" lon="6.79703">
        <ele>495.1</ele>
        <time>2014-11-02T09:48:39.000Z</time>
      </trkpt>
      <trkpt lat="47.41904" lon="6.79711">
        <ele>494.1</ele>
        <time>2014-11-02T09:48:40.000Z</time>
      </trkpt>
      <trkpt lat="47.41904" lon="6.79717">
        <ele>494.1</ele>
        <time>2014-11-02T09:48:41.000Z</time>
      </trkpt>
      <trkpt lat="47.41904" lon="6.79722">
        <ele>493.7</ele>
        <time>2014-11-02T09:48:42.000Z</time>
      </trkpt>
      <trkpt lat="47.41904" lon="6.79727">
        <ele>495.2</ele>
        <time>2014-11-02T09:48:43.000Z</time>
      </trkpt>
      <trkpt lat="47.41904" lon="6.79731">
        <ele>496.2</ele>
        <time>2014-11-02T09:48:44.000Z</time>
      </trkpt>
      <trkpt lat="47.41904" lon="6.79736">
        <ele>496.5</ele>
        <time>2014-11-02T09:48:45.000Z</time>
      </trkpt>
      <trkpt lat="47.41903" lon="6.7974">
        <ele>495.6</ele>
        <time>2014-11-02T09:48:46.000Z</time>
      </trkpt>
      <trkpt lat="47.41902" lon="6.79744">
        <ele>492.9</ele>
        <time>2014-11-02T09:48:47.000Z</time>
      </trkpt>
      <trkpt lat="47.419" lon="6.79748">
        <ele>492.1</ele>
        <time>2014-11-02T09:48:48.000Z</time>
      </trkpt>
      <trkpt lat="47.41897" lon="6.79752">
        <ele>492.8</ele>
        <time>2014-11-02T09:48:49.000Z</time>
      </trkpt>
      <trkpt lat="47.41895" lon="6.79757">
        <ele>497</ele>
        <time>2014-11-02T09:48:50.000Z</time>
      </trkpt>
      <trkpt lat="47.41893" lon="6.79762">
        <ele>497.7</ele>
        <time>2014-11-02T09:48:51.000Z</time>
      </trkpt>
      <trkpt lat="47.41891" lon="6.79767">
        <ele>497.9</ele>
        <time>2014-11-02T09:48:52.000Z</time>
      </trkpt>
      <trkpt lat="47.41889" lon="6.79772">
        <ele>497.8</ele>
        <time>2014-11-02T09:48:53.000Z</time>
      </trkpt>
      <trkpt lat="47.41888" lon="6.79778">
        <ele>497.3</ele>
        <time>2014-11-02T09:48:54.000Z</time>
      </trkpt>
      <trkpt lat="47.41888" lon="6.79783">
        <ele>497.5</ele>
        <time>2014-11-02T09:48:55.000Z</time>
      </trkpt>
      <trkpt lat="47.41887" lon="6.79788">
        <ele>496.7</ele>
        <time>2014-11-02T09:48:56.000Z</time>
      </trkpt>
      <trkpt lat="47.41886" lon="6.79793">
        <ele>496.5</ele>
        <time>2014-11-02T09:48:57.000Z</time>
      </trkpt>
      <trkpt lat="47.41886" lon="6.79798">
        <ele>495.4</ele>
        <time>2014-11-02T09:48:58.000Z</time>
      </trkpt>
      <trkpt lat="47.41885" lon="6.79803">
        <ele>495.3</ele>
        <time>2014-11-02T09:48:59.000Z</time>
      </trkpt>
      <trkpt lat="47.41885" lon="6.79808">
        <ele>495.1</ele>
        <time>2014-11-02T09:49:00.000Z</time>
      </trkpt>
      <trkpt lat="47.41885" lon="6.79812">
        <ele>494.5</ele>
        <time>2014-11-02T09:49:01.000Z</time>
      </trkpt>
      <trkpt lat="47.41885" lon="6.79817">
        <ele>494.5</ele>
        <time>2014-11-02T09:49:02.000Z</time>
      </trkpt>
      <trkpt lat="47.41884" lon="6.79829">
        <ele>484.7</ele>
        <time>2014-11-02T09:49:05.000Z</time>
      </trkpt>
      <trkpt lat="47.41884" lon="6.79834">
        <ele>483.5</ele>
        <time>2014-11-02T09:49:06.000Z</time>
      </trkpt>
      <trkpt lat="47.41885" lon="6.7984">
        <ele>482.5</ele>
        <time>2014-11-02T09:49:07.000Z</time>
      </trkpt>
      <trkpt lat="47.41886" lon="6.79847">
        <ele>482.5</ele>
        <time>2014-11-02T09:49:08.000Z</time>
      </trkpt>
      <trkpt lat="47.41888" lon="6.79853">
        <ele>482.3</ele>
        <time>2014-11-02T09:49:09.000Z</time>
      </trkpt>
      <trkpt lat="47.41888" lon="6.79859">
        <ele>481.3</ele>
        <time>2014-11-02T09:49:10.000Z</time>
      </trkpt>
      <trkpt lat="47.41888" lon="6.79865">
        <ele>480.4</ele>
        <time>2014-11-02T09:49:11.000Z</time>
      </trkpt>
      <trkpt lat="47.41887" lon="6.79872">
        <ele>480</ele>
        <time>2014-11-02T09:49:12.000Z</time>
      </trkpt>
      <trkpt lat="47.41886" lon="6.79879">
        <ele>479.5</ele>
        <time>2014-11-02T09:49:13.000Z</time>
      </trkpt>
      <trkpt lat="47.41884" lon="6.79886">
        <ele>479.4</ele>
        <time>2014-11-02T09:49:14.000Z</time>
      </trkpt>
      <trkpt lat="47.41882" lon="6.79892">
        <ele>478.8</ele>
        <time>2014-11-02T09:49:15.000Z</time>
      </trkpt>
      <trkpt lat="47.4188" lon="6.79898">
        <ele>478.6</ele>
        <time>2014-11-02T09:49:16.000Z</time>
      </trkpt>
      <trkpt lat="47.41878" lon="6.79904">
        <ele>477.7</ele>
        <time>2014-11-02T09:49:17.000Z</time>
      </trkpt>
      <trkpt lat="47.41876" lon="6.79912">
        <ele>477.2</ele>
        <time>2014-11-02T09:49:18.000Z</time>
      </trkpt>
      <trkpt lat="47.41875" lon="6.7992">
        <ele>481</ele>
        <time>2014-11-02T09:49:19.000Z</time>
      </trkpt>
      <trkpt lat="47.41874" lon="6.79928">
        <ele>480.2</ele>
        <time>2014-11-02T09:49:20.000Z</time>
      </trkpt>
      <trkpt lat="47.41873" lon="6.79948">
        <ele>488.2</ele>
        <time>2014-11-02T09:49:21.000Z</time>
      </trkpt>
      <trkpt lat="47.41872" lon="6.79955">
        <ele>489.1</ele>
        <time>2014-11-02T09:49:22.000Z</time>
      </trkpt>
      <trkpt lat="47.4187" lon="6.79964">
        <ele>487.2</ele>
        <time>2014-11-02T09:49:23.000Z</time>
      </trkpt>
      <trkpt lat="47.41868" lon="6.79972">
        <ele>487.1</ele>
        <time>2014-11-02T09:49:24.000Z</time>
      </trkpt>
      <trkpt lat="47.41866" lon="6.79977">
        <ele>487.8</ele>
        <time>2014-11-02T09:49:25.000Z</time>
      </trkpt>
      <trkpt lat="47.41865" lon="6.79983">
        <ele>488.7</ele>
        <time>2014-11-02T09:49:26.000Z</time>
      </trkpt>
      <trkpt lat="47.41862" lon="6.7999">
        <ele>487.7</ele>
        <time>2014-11-02T09:49:27.000Z</time>
      </trkpt>
      <trkpt lat="47.41857" lon="6.79994">
        <ele>488</ele>
        <time>2014-11-02T09:49:28.000Z</time>
      </trkpt>
      <trkpt lat="47.41853" lon="6.79999">
        <ele>488</ele>
        <time>2014-11-02T09:49:29.000Z</time>
      </trkpt>
      <trkpt lat="47.41849" lon="6.80003">
        <ele>488.6</ele>
        <time>2014-11-02T09:49:30.000Z</time>
      </trkpt>
      <trkpt lat="47.41846" lon="6.80007">
        <ele>489</ele>
        <time>2014-11-02T09:49:31.000Z</time>
      </trkpt>
      <trkpt lat="47.41842" lon="6.80014">
        <ele>489.3</ele>
        <time>2014-11-02T09:49:32.000Z</time>
      </trkpt>
      <trkpt lat="47.41838" lon="6.80017">
        <ele>490.5</ele>
        <time>2014-11-02T09:49:33.000Z</time>
      </trkpt>
      <trkpt lat="47.41835" lon="6.80018">
        <ele>485.8</ele>
        <time>2014-11-02T09:49:34.000Z</time>
      </trkpt>
      <trkpt lat="47.41832" lon="6.8002">
        <ele>492.6</ele>
        <time>2014-11-02T09:49:35.000Z</time>
      </trkpt>
      <trkpt lat="47.41829" lon="6.80021">
        <ele>495</ele>
        <time>2014-11-02T09:49:36.000Z</time>
      </trkpt>
      <trkpt lat="47.41825" lon="6.80022">
        <ele>496.3</ele>
        <time>2014-11-02T09:49:37.000Z</time>
      </trkpt>
      <trkpt lat="47.41821" lon="6.80023">
        <ele>496.7</ele>
        <time>2014-11-02T09:49:39.000Z</time>
      </trkpt>
      <trkpt lat="47.41821" lon="6.80026">
        <ele>500.1</ele>
        <time>2014-11-02T09:49:40.000Z</time>
      </trkpt>
      <trkpt lat="47.41818" lon="6.80028">
        <ele>501.4</ele>
        <time>2014-11-02T09:49:43.000Z</time>
      </trkpt>
      <trkpt lat="47.41816" lon="6.80029">
        <ele>501.9</ele>
        <time>2014-11-02T09:49:44.000Z</time>
      </trkpt>
      <trkpt lat="47.41813" lon="6.80033">
        <ele>499.7</ele>
        <time>2014-11-02T09:49:48.000Z</time>
      </trkpt>
      <trkpt lat="47.41813" lon="6.80034">
        <ele>498.6</ele>
        <time>2014-11-02T09:49:49.000Z</time>
      </trkpt>
      <trkpt lat="47.41815" lon="6.80038">
        <ele>498.3</ele>
        <time>2014-11-02T09:49:52.000Z</time>
      </trkpt>
      <trkpt lat="47.41816" lon="6.8004">
        <ele>498.3</ele>
        <time>2014-11-02T09:49:53.000Z</time>
      </trkpt>
      <trkpt lat="47.41812" lon="6.80039">
        <ele>493.6</ele>
        <time>2014-11-02T09:50:13.000Z</time>
      </trkpt>
      <trkpt lat="47.41811" lon="6.80039">
        <ele>493.2</ele>
        <time>2014-11-02T09:50:14.000Z</time>
      </trkpt>
      <trkpt lat="47.41808" lon="6.80036">
        <ele>493.8</ele>
        <time>2014-11-02T09:50:17.000Z</time>
      </trkpt>
      <trkpt lat="47.41806" lon="6.80035">
        <ele>494.5</ele>
        <time>2014-11-02T09:50:18.000Z</time>
      </trkpt>
      <trkpt lat="47.41802" lon="6.80034">
        <ele>501.9</ele>
        <time>2014-11-02T09:50:20.000Z</time>
      </trkpt>
      <trkpt lat="47.418" lon="6.80033">
        <ele>502.3</ele>
        <time>2014-11-02T09:50:21.000Z</time>
      </trkpt>
      <trkpt lat="47.41797" lon="6.80032">
        <ele>501.9</ele>
        <time>2014-11-02T09:50:23.000Z</time>
      </trkpt>
      <trkpt lat="47.41795" lon="6.80032">
        <ele>502.9</ele>
        <time>2014-11-02T09:50:24.000Z</time>
      </trkpt>
      <trkpt lat="47.41791" lon="6.80033">
        <ele>503.1</ele>
        <time>2014-11-02T09:50:27.000Z</time>
      </trkpt>
      <trkpt lat="47.4179" lon="6.80033">
        <ele>503.5</ele>
        <time>2014-11-02T09:50:28.000Z</time>
      </trkpt>
      <trkpt lat="47.41786" lon="6.80035">
        <ele>505.7</ele>
        <time>2014-11-02T09:50:32.000Z</time>
      </trkpt>
      <trkpt lat="47.41786" lon="6.80035">
        <ele>505.9</ele>
        <time>2014-11-02T09:50:33.000Z</time>
      </trkpt>
      <trkpt lat="47.41782" lon="6.80038">
        <ele>506.1</ele>
        <time>2014-11-02T09:50:40.000Z</time>
      </trkpt>
      <trkpt lat="47.41781" lon="6.80038">
        <ele>505.6</ele>
        <time>2014-11-02T09:50:41.000Z</time>
      </trkpt>
      <trkpt lat="47.41777" lon="6.80038">
        <ele>504.8</ele>
        <time>2014-11-02T09:50:54.000Z</time>
      </trkpt>
      <trkpt lat="47.41776" lon="6.80038">
        <ele>505</ele>
        <time>2014-11-02T09:50:55.000Z</time>
      </trkpt>
      <trkpt lat="47.41771" lon="6.80039">
        <ele>504.1</ele>
        <time>2014-11-02T09:50:59.000Z</time>
      </trkpt>
      <trkpt lat="47.41769" lon="6.80039">
        <ele>504</ele>
        <time>2014-11-02T09:51:00.000Z</time>
      </trkpt>
      <trkpt lat="47.41766" lon="6.80039">
        <ele>504.5</ele>
        <time>2014-11-02T09:51:02.000Z</time>
      </trkpt>
      <trkpt lat="47.41762" lon="6.80038">
        <ele>502.8</ele>
        <time>2014-11-02T09:51:05.000Z</time>
      </trkpt>
      <trkpt lat="47.41757" lon="6.80039">
        <ele>504.1</ele>
        <time>2014-11-02T09:51:08.000Z</time>
      </trkpt>
      <trkpt lat="47.41756" lon="6.80039">
        <ele>503.6</ele>
        <time>2014-11-02T09:51:09.000Z</time>
      </trkpt>
      <trkpt lat="47.41753" lon="6.8004">
        <ele>503.7</ele>
        <time>2014-11-02T09:51:12.000Z</time>
      </trkpt>
      <trkpt lat="47.41751" lon="6.8004">
        <ele>502.9</ele>
        <time>2014-11-02T09:51:13.000Z</time>
      </trkpt>
      <trkpt lat="47.41747" lon="6.80039">
        <ele>502.6</ele>
        <time>2014-11-02T09:51:18.000Z</time>
      </trkpt>
      <trkpt lat="47.41747" lon="6.80039">
        <ele>502.9</ele>
        <time>2014-11-02T09:51:19.000Z</time>
      </trkpt>
      <trkpt lat="47.41743" lon="6.80041">
        <ele>504.8</ele>
        <time>2014-11-02T09:51:24.000Z</time>
      </trkpt>
      <trkpt lat="47.41742" lon="6.80041">
        <ele>505.9</ele>
        <time>2014-11-02T09:51:25.000Z</time>
      </trkpt>
      <trkpt lat="47.41739" lon="6.80042">
        <ele>506.5</ele>
        <time>2014-11-02T09:51:28.000Z</time>
      </trkpt>
      <trkpt lat="47.41737" lon="6.80042">
        <ele>507</ele>
        <time>2014-11-02T09:51:29.000Z</time>
      </trkpt>
      <trkpt lat="47.41733" lon="6.80042">
        <ele>507.4</ele>
        <time>2014-11-02T09:51:33.000Z</time>
      </trkpt>
      <trkpt lat="47.41732" lon="6.80042">
        <ele>507.2</ele>
        <time>2014-11-02T09:51:34.000Z</time>
      </trkpt>
      <trkpt lat="47.41728" lon="6.80042">
        <ele>507.6</ele>
        <time>2014-11-02T09:51:38.000Z</time>
      </trkpt>
      <trkpt lat="47.41728" lon="6.80041">
        <ele>507.2</ele>
        <time>2014-11-02T09:51:39.000Z</time>
      </trkpt>
      <trkpt lat="47.41723" lon="6.80041">
        <ele>509.2</ele>
        <time>2014-11-02T09:51:45.000Z</time>
      </trkpt>
      <trkpt lat="47.41722" lon="6.80041">
        <ele>509.2</ele>
        <time>2014-11-02T09:51:46.000Z</time>
      </trkpt>
      <trkpt lat="47.41717" lon="6.8004">
        <ele>510.4</ele>
        <time>2014-11-02T09:51:50.000Z</time>
      </trkpt>
      <trkpt lat="47.41716" lon="6.80039">
        <ele>510.9</ele>
        <time>2014-11-02T09:51:51.000Z</time>
      </trkpt>
      <trkpt lat="47.41712" lon="6.80038">
        <ele>510.8</ele>
        <time>2014-11-02T09:51:54.000Z</time>
      </trkpt>
      <trkpt lat="47.41711" lon="6.80038">
        <ele>511.1</ele>
        <time>2014-11-02T09:51:55.000Z</time>
      </trkpt>
      <trkpt lat="47.41707" lon="6.80036">
        <ele>511.4</ele>
        <time>2014-11-02T09:51:58.000Z</time>
      </trkpt>
      <trkpt lat="47.41706" lon="6.80036">
        <ele>510.9</ele>
        <time>2014-11-02T09:51:59.000Z</time>
      </trkpt>
      <trkpt lat="47.41704" lon="6.80034">
        <ele>511</ele>
        <time>2014-11-02T09:52:02.000Z</time>
      </trkpt>
      <trkpt lat="47.41702" lon="6.80032">
        <ele>508.7</ele>
        <time>2014-11-02T09:52:05.000Z</time>
      </trkpt>
      <trkpt lat="47.41698" lon="6.80031">
        <ele>512.5</ele>
        <time>2014-11-02T09:52:54.000Z</time>
      </trkpt>
      <trkpt lat="47.41697" lon="6.80029">
        <ele>511.5</ele>
        <time>2014-11-02T09:52:55.000Z</time>
      </trkpt>
      <trkpt lat="47.41693" lon="6.80026">
        <ele>510.1</ele>
        <time>2014-11-02T09:52:57.000Z</time>
      </trkpt>
      <trkpt lat="47.41691" lon="6.80024">
        <ele>509.8</ele>
        <time>2014-11-02T09:52:58.000Z</time>
      </trkpt>
      <trkpt lat="47.41689" lon="6.80022">
        <ele>509.8</ele>
        <time>2014-11-02T09:52:59.000Z</time>
      </trkpt>
      <trkpt lat="47.41688" lon="6.8002">
        <ele>510.1</ele>
        <time>2014-11-02T09:53:00.000Z</time>
      </trkpt>
      <trkpt lat="47.41686" lon="6.80017">
        <ele>510.3</ele>
        <time>2014-11-02T09:53:01.000Z</time>
      </trkpt>
      <trkpt lat="47.41684" lon="6.80015">
        <ele>509.5</ele>
        <time>2014-11-02T09:53:02.000Z</time>
      </trkpt>
      <trkpt lat="47.41678" lon="6.80008">
        <ele>508.8</ele>
        <time>2014-11-02T09:53:05.000Z</time>
      </trkpt>
      <trkpt lat="47.41676" lon="6.80006">
        <ele>508.9</ele>
        <time>2014-11-02T09:53:06.000Z</time>
      </trkpt>
      <trkpt lat="47.41674" lon="6.80003">
        <ele>508.5</ele>
        <time>2014-11-02T09:53:07.000Z</time>
      </trkpt>
      <trkpt lat="47.41672" lon="6.80001">
        <ele>508.6</ele>
        <time>2014-11-02T09:53:08.000Z</time>
      </trkpt>
      <trkpt lat="47.4167" lon="6.79999">
        <ele>508.7</ele>
        <time>2014-11-02T09:53:09.000Z</time>
      </trkpt>
      <trkpt lat="47.41668" lon="6.79997">
        <ele>509</ele>
        <time>2014-11-02T09:53:10.000Z</time>
      </trkpt>
      <trkpt lat="47.41666" lon="6.79995">
        <ele>509.9</ele>
        <time>2014-11-02T09:53:11.000Z</time>
      </trkpt>
      <trkpt lat="47.41663" lon="6.7999">
        <ele>510.2</ele>
        <time>2014-11-02T09:53:13.000Z</time>
      </trkpt>
      <trkpt lat="47.41662" lon="6.79987">
        <ele>510.1</ele>
        <time>2014-11-02T09:53:13.999Z</time>
      </trkpt>
      <trkpt lat="47.41659" lon="6.79984">
        <ele>509.7</ele>
        <time>2014-11-02T09:53:16.000Z</time>
      </trkpt>
      <trkpt lat="47.41657" lon="6.79982">
        <ele>510</ele>
        <time>2014-11-02T09:53:16.998Z</time>
      </trkpt>
      <trkpt lat="47.41655" lon="6.79979">
        <ele>509.8</ele>
        <time>2014-11-02T09:53:18.000Z</time>
      </trkpt>
      <trkpt lat="47.41653" lon="6.79976">
        <ele>509.3</ele>
        <time>2014-11-02T09:53:19.000Z</time>
      </trkpt>
      <trkpt lat="47.4165" lon="6.79973">
        <ele>508.6</ele>
        <time>2014-11-02T09:53:20.000Z</time>
      </trkpt>
      <trkpt lat="47.41648" lon="6.79971">
        <ele>508.4</ele>
        <time>2014-11-02T09:53:21.002Z</time>
      </trkpt>
      <trkpt lat="47.41646" lon="6.79969">
        <ele>508.1</ele>
        <time>2014-11-02T09:53:22.000Z</time>
      </trkpt>
      <trkpt lat="47.41644" lon="6.79966">
        <ele>508.1</ele>
        <time>2014-11-02T09:53:23.000Z</time>
      </trkpt>
      <trkpt lat="47.41642" lon="6.79964">
        <ele>507.4</ele>
        <time>2014-11-02T09:53:24.000Z</time>
      </trkpt>
      <trkpt lat="47.4164" lon="6.79962">
        <ele>506.9</ele>
        <time>2014-11-02T09:53:25.000Z</time>
      </trkpt>
      <trkpt lat="47.41637" lon="6.79959">
        <ele>506.6</ele>
        <time>2014-11-02T09:53:27.000Z</time>
      </trkpt>
      <trkpt lat="47.41636" lon="6.79958">
        <ele>507.7</ele>
        <time>2014-11-02T09:53:28.000Z</time>
      </trkpt>
      <trkpt lat="47.41633" lon="6.79953">
        <ele>507</ele>
        <time>2014-11-02T09:53:30.000Z</time>
      </trkpt>
      <trkpt lat="47.41632" lon="6.7995">
        <ele>504.4</ele>
        <time>2014-11-02T09:53:31.000Z</time>
      </trkpt>
      <trkpt lat="47.4163" lon="6.79947">
        <ele>504.4</ele>
        <time>2014-11-02T09:53:32.000Z</time>
      </trkpt>
      <trkpt lat="47.41627" lon="6.79944">
        <ele>504</ele>
        <time>2014-11-02T09:53:33.000Z</time>
      </trkpt>
      <trkpt lat="47.41625" lon="6.7994">
        <ele>504.1</ele>
        <time>2014-11-02T09:53:34.000Z</time>
      </trkpt>
      <trkpt lat="47.41623" lon="6.79936">
        <ele>504.1</ele>
        <time>2014-11-02T09:53:35.000Z</time>
      </trkpt>
      <trkpt lat="47.4162" lon="6.79931">
        <ele>504.3</ele>
        <time>2014-11-02T09:53:36.000Z</time>
      </trkpt>
      <trkpt lat="47.41618" lon="6.79926">
        <ele>504.4</ele>
        <time>2014-11-02T09:53:37.000Z</time>
      </trkpt>
      <trkpt lat="47.41615" lon="6.79921">
        <ele>504.2</ele>
        <time>2014-11-02T09:53:38.000Z</time>
      </trkpt>
      <trkpt lat="47.41613" lon="6.79916">
        <ele>503.7</ele>
        <time>2014-11-02T09:53:39.000Z</time>
      </trkpt>
      <trkpt lat="47.4161" lon="6.79911">
        <ele>503</ele>
        <time>2014-11-02T09:53:40.000Z</time>
      </trkpt>
      <trkpt lat="47.41607" lon="6.79907">
        <ele>502.4</ele>
        <time>2014-11-02T09:53:41.000Z</time>
      </trkpt>
      <trkpt lat="47.41604" lon="6.79901">
        <ele>501.9</ele>
        <time>2014-11-02T09:53:42.000Z</time>
      </trkpt>
      <trkpt lat="47.416" lon="6.79896">
        <ele>501.3</ele>
        <time>2014-11-02T09:53:43.000Z</time>
      </trkpt>
      <trkpt lat="47.41597" lon="6.79891">
        <ele>500.8</ele>
        <time>2014-11-02T09:53:44.000Z</time>
      </trkpt>
      <trkpt lat="47.41594" lon="6.79887">
        <ele>499.8</ele>
        <time>2014-11-02T09:53:45.000Z</time>
      </trkpt>
      <trkpt lat="47.4159" lon="6.79881">
        <ele>499.1</ele>
        <time>2014-11-02T09:53:46.000Z</time>
      </trkpt>
      <trkpt lat="47.41586" lon="6.79874">
        <ele>498.3</ele>
        <time>2014-11-02T09:53:47.000Z</time>
      </trkpt>
      <trkpt lat="47.41583" lon="6.79869">
        <ele>498.2</ele>
        <time>2014-11-02T09:53:48.000Z</time>
      </trkpt>
      <trkpt lat="47.4158" lon="6.79865">
        <ele>498.1</ele>
        <time>2014-11-02T09:53:49.000Z</time>
      </trkpt>
      <trkpt lat="47.41578" lon="6.79863">
        <ele>498.2</ele>
        <time>2014-11-02T09:53:50.000Z</time>
      </trkpt>
      <trkpt lat="47.41575" lon="6.79862">
        <ele>498</ele>
        <time>2014-11-02T09:53:51.000Z</time>
      </trkpt>
      <trkpt lat="47.41571" lon="6.79861">
        <ele>497.7</ele>
        <time>2014-11-02T09:53:53.000Z</time>
      </trkpt>
      <trkpt lat="47.41569" lon="6.79862">
        <ele>496.9</ele>
        <time>2014-11-02T09:53:54.000Z</time>
      </trkpt>
      <trkpt lat="47.41565" lon="6.79862">
        <ele>498.1</ele>
        <time>2014-11-02T09:53:56.000Z</time>
      </trkpt>
      <trkpt lat="47.41564" lon="6.79862">
        <ele>498.4</ele>
        <time>2014-11-02T09:53:57.000Z</time>
      </trkpt>
      <trkpt lat="47.41561" lon="6.7986">
        <ele>499.8</ele>
        <time>2014-11-02T09:54:00.000Z</time>
      </trkpt>
      <trkpt lat="47.4156" lon="6.79859">
        <ele>500.3</ele>
        <time>2014-11-02T09:54:01.000Z</time>
      </trkpt>
      <trkpt lat="47.41558" lon="6.79858">
        <ele>500</ele>
        <time>2014-11-02T09:54:02.000Z</time>
      </trkpt>
      <trkpt lat="47.41554" lon="6.79856">
        <ele>502.5</ele>
        <time>2014-11-02T09:54:05.000Z</time>
      </trkpt>
      <trkpt lat="47.41551" lon="6.79853">
        <ele>506</ele>
        <time>2014-11-02T09:54:08.000Z</time>
      </trkpt>
      <trkpt lat="47.4155" lon="6.79851">
        <ele>505.7</ele>
        <time>2014-11-02T09:54:09.000Z</time>
      </trkpt>
      <trkpt lat="47.41546" lon="6.79849">
        <ele>506.9</ele>
        <time>2014-11-02T09:54:13.000Z</time>
      </trkpt>
      <trkpt lat="47.41545" lon="6.79849">
        <ele>507.1</ele>
        <time>2014-11-02T09:54:14.000Z</time>
      </trkpt>
      <trkpt lat="47.4154" lon="6.7985">
        <ele>508.5</ele>
        <time>2014-11-02T09:54:19.000Z</time>
      </trkpt>
      <trkpt lat="47.4154" lon="6.7985">
        <ele>509.2</ele>
        <time>2014-11-02T09:54:20.000Z</time>
      </trkpt>
      <trkpt lat="47.41536" lon="6.79848">
        <ele>511.5</ele>
        <time>2014-11-02T09:54:24.000Z</time>
      </trkpt>
      <trkpt lat="47.41533" lon="6.79848">
        <ele>511.2</ele>
        <time>2014-11-02T09:54:25.000Z</time>
      </trkpt>
      <trkpt lat="47.41531" lon="6.79847">
        <ele>511.5</ele>
        <time>2014-11-02T09:54:26.000Z</time>
      </trkpt>
      <trkpt lat="47.41528" lon="6.79847">
        <ele>511.8</ele>
        <time>2014-11-02T09:54:27.000Z</time>
      </trkpt>
      <trkpt lat="47.41525" lon="6.79846">
        <ele>511.2</ele>
        <time>2014-11-02T09:54:28.000Z</time>
      </trkpt>
      <trkpt lat="47.41523" lon="6.79846">
        <ele>512.7</ele>
        <time>2014-11-02T09:54:29.000Z</time>
      </trkpt>
      <trkpt lat="47.41519" lon="6.79845">
        <ele>512</ele>
        <time>2014-11-02T09:54:31.000Z</time>
      </trkpt>
      <trkpt lat="47.41517" lon="6.79845">
        <ele>511.7</ele>
        <time>2014-11-02T09:54:32.000Z</time>
      </trkpt>
      <trkpt lat="47.41513" lon="6.79843">
        <ele>512.2</ele>
        <time>2014-11-02T09:54:34.000Z</time>
      </trkpt>
      <trkpt lat="47.41512" lon="6.79842">
        <ele>512.2</ele>
        <time>2014-11-02T09:54:35.000Z</time>
      </trkpt>
      <trkpt lat="47.41509" lon="6.79841">
        <ele>512</ele>
        <time>2014-11-02T09:54:36.000Z</time>
      </trkpt>
      <trkpt lat="47.41507" lon="6.7984">
        <ele>511.2</ele>
        <time>2014-11-02T09:54:37.000Z</time>
      </trkpt>
      <trkpt lat="47.41503" lon="6.79838">
        <ele>510.8</ele>
        <time>2014-11-02T09:54:39.000Z</time>
      </trkpt>
      <trkpt lat="47.41501" lon="6.79838">
        <ele>510.6</ele>
        <time>2014-11-02T09:54:40.000Z</time>
      </trkpt>
      <trkpt lat="47.41499" lon="6.79837">
        <ele>510.3</ele>
        <time>2014-11-02T09:54:41.000Z</time>
      </trkpt>
      <trkpt lat="47.41497" lon="6.79836">
        <ele>510.3</ele>
        <time>2014-11-02T09:54:42.000Z</time>
      </trkpt>
      <trkpt lat="47.41494" lon="6.79834">
        <ele>510.5</ele>
        <time>2014-11-02T09:54:43.000Z</time>
      </trkpt>
      <trkpt lat="47.41492" lon="6.79832">
        <ele>511.1</ele>
        <time>2014-11-02T09:54:44.000Z</time>
      </trkpt>
      <trkpt lat="47.41489" lon="6.7983">
        <ele>510.7</ele>
        <time>2014-11-02T09:54:45.000Z</time>
      </trkpt>
      <trkpt lat="47.41487" lon="6.79828">
        <ele>510.7</ele>
        <time>2014-11-02T09:54:46.000Z</time>
      </trkpt>
      <trkpt lat="47.41484" lon="6.79826">
        <ele>509.9</ele>
        <time>2014-11-02T09:54:47.000Z</time>
      </trkpt>
      <trkpt lat="47.41481" lon="6.79825">
        <ele>511.4</ele>
        <time>2014-11-02T09:54:48.000Z</time>
      </trkpt>
      <trkpt lat="47.41479" lon="6.79824">
        <ele>510.9</ele>
        <time>2014-11-02T09:54:49.000Z</time>
      </trkpt>
      <trkpt lat="47.41477" lon="6.79823">
        <ele>511.2</ele>
        <time>2014-11-02T09:54:50.000Z</time>
      </trkpt>
      <trkpt lat="47.41472" lon="6.79822">
        <ele>511.5</ele>
        <time>2014-11-02T09:54:52.000Z</time>
      </trkpt>
      <trkpt lat="47.4147" lon="6.79821">
        <ele>510.1</ele>
        <time>2014-11-02T09:54:53.000Z</time>
      </trkpt>
      <trkpt lat="47.41468" lon="6.79821">
        <ele>509.8</ele>
        <time>2014-11-02T09:54:54.000Z</time>
      </trkpt>
      <trkpt lat="47.41465" lon="6.7982">
        <ele>509.2</ele>
        <time>2014-11-02T09:54:55.000Z</time>
      </trkpt>
      <trkpt lat="47.41461" lon="6.79819">
        <ele>510.4</ele>
        <time>2014-11-02T09:54:57.000Z</time>
      </trkpt>
      <trkpt lat="47.4146" lon="6.79818">
        <ele>510.6</ele>
        <time>2014-11-02T09:54:58.000Z</time>
      </trkpt>
      <trkpt lat="47.41456" lon="6.79817">
        <ele>510.4</ele>
        <time>2014-11-02T09:55:00.000Z</time>
      </trkpt>
      <trkpt lat="47.41455" lon="6.79817">
        <ele>510.8</ele>
        <time>2014-11-02T09:55:01.000Z</time>
      </trkpt>
      <trkpt lat="47.41453" lon="6.79816">
        <ele>511.1</ele>
        <time>2014-11-02T09:55:02.000Z</time>
      </trkpt>
      <trkpt lat="47.41448" lon="6.79814">
        <ele>512.8</ele>
        <time>2014-11-02T09:55:05.000Z</time>
      </trkpt>
      <trkpt lat="47.41445" lon="6.79813">
        <ele>511.6</ele>
        <time>2014-11-02T09:55:07.000Z</time>
      </trkpt>
      <trkpt lat="47.41443" lon="6.79812">
        <ele>513</ele>
        <time>2014-11-02T09:55:08.000Z</time>
      </trkpt>
      <trkpt lat="47.41439" lon="6.79811">
        <ele>513.5</ele>
        <time>2014-11-02T09:55:10.000Z</time>
      </trkpt>
      <trkpt lat="47.41438" lon="6.7981">
        <ele>513.5</ele>
        <time>2014-11-02T09:55:11.000Z</time>
      </trkpt>
      <trkpt lat="47.41434" lon="6.79808">
        <ele>516.5</ele>
        <time>2014-11-02T09:55:14.000Z</time>
      </trkpt>
      <trkpt lat="47.41433" lon="6.79808">
        <ele>517.4</ele>
        <time>2014-11-02T09:55:15.000Z</time>
      </trkpt>
      <trkpt lat="47.41429" lon="6.79805">
        <ele>516.6</ele>
        <time>2014-11-02T09:55:18.000Z</time>
      </trkpt>
      <trkpt lat="47.41427" lon="6.79804">
        <ele>517</ele>
        <time>2014-11-02T09:55:19.000Z</time>
      </trkpt>
      <trkpt lat="47.41424" lon="6.79802">
        <ele>517.2</ele>
        <time>2014-11-02T09:55:21.000Z</time>
      </trkpt>
      <trkpt lat="47.41422" lon="6.79801">
        <ele>517.3</ele>
        <time>2014-11-02T09:55:22.000Z</time>
      </trkpt>
      <trkpt lat="47.41418" lon="6.79799">
        <ele>518.1</ele>
        <time>2014-11-02T09:55:25.000Z</time>
      </trkpt>
      <trkpt lat="47.41417" lon="6.79798">
        <ele>517.9</ele>
        <time>2014-11-02T09:55:26.000Z</time>
      </trkpt>
      <trkpt lat="47.41413" lon="6.79795">
        <ele>517.2</ele>
        <time>2014-11-02T09:55:29.000Z</time>
      </trkpt>
      <trkpt lat="47.41411" lon="6.79794">
        <ele>517.4</ele>
        <time>2014-11-02T09:55:30.000Z</time>
      </trkpt>
      <trkpt lat="47.41408" lon="6.79792">
        <ele>516.9</ele>
        <time>2014-11-02T09:55:32.000Z</time>
      </trkpt>
      <trkpt lat="47.41407" lon="6.79791">
        <ele>516.3</ele>
        <time>2014-11-02T09:55:33.000Z</time>
      </trkpt>
      <trkpt lat="47.41404" lon="6.79789">
        <ele>516</ele>
        <time>2014-11-02T09:55:35.000Z</time>
      </trkpt>
      <trkpt lat="47.41403" lon="6.79788">
        <ele>515.8</ele>
        <time>2014-11-02T09:55:36.000Z</time>
      </trkpt>
      <trkpt lat="47.41399" lon="6.79787">
        <ele>515.5</ele>
        <time>2014-11-02T09:55:38.000Z</time>
      </trkpt>
      <trkpt lat="47.41398" lon="6.79786">
        <ele>515.5</ele>
        <time>2014-11-02T09:55:39.000Z</time>
      </trkpt>
      <trkpt lat="47.41395" lon="6.79784">
        <ele>516.5</ele>
        <time>2014-11-02T09:55:41.000Z</time>
      </trkpt>
      <trkpt lat="47.41394" lon="6.79783">
        <ele>516.5</ele>
        <time>2014-11-02T09:55:42.000Z</time>
      </trkpt>
      <trkpt lat="47.4139" lon="6.79781">
        <ele>516.9</ele>
        <time>2014-11-02T09:55:44.000Z</time>
      </trkpt>
      <trkpt lat="47.41389" lon="6.7978">
        <ele>517</ele>
        <time>2014-11-02T09:55:45.000Z</time>
      </trkpt>
      <trkpt lat="47.41386" lon="6.79777">
        <ele>515.7</ele>
        <time>2014-11-02T09:55:47.000Z</time>
      </trkpt>
      <trkpt lat="47.41384" lon="6.79776">
        <ele>515.3</ele>
        <time>2014-11-02T09:55:48.000Z</time>
      </trkpt>
      <trkpt lat="47.41381" lon="6.79773">
        <ele>516.3</ele>
        <time>2014-11-02T09:55:50.000Z</time>
      </trkpt>
      <trkpt lat="47.4138" lon="6.79772">
        <ele>516.1</ele>
        <time>2014-11-02T09:55:51.000Z</time>
      </trkpt>
      <trkpt lat="47.41375" lon="6.79773">
        <ele>513.3</ele>
        <time>2014-11-02T09:56:00.000Z</time>
      </trkpt>
      <trkpt lat="47.41374" lon="6.79772">
        <ele>511.8</ele>
        <time>2014-11-02T09:56:01.000Z</time>
      </trkpt>
      <trkpt lat="47.41372" lon="6.7977">
        <ele>510.7</ele>
        <time>2014-11-02T09:56:02.000Z</time>
      </trkpt>
      <trkpt lat="47.41367" lon="6.79766">
        <ele>510.9</ele>
        <time>2014-11-02T09:56:05.000Z</time>
      </trkpt>
      <trkpt lat="47.41365" lon="6.79764">
        <ele>511.2</ele>
        <time>2014-11-02T09:56:06.000Z</time>
      </trkpt>
      <trkpt lat="47.41363" lon="6.79762">
        <ele>510.6</ele>
        <time>2014-11-02T09:56:07.000Z</time>
      </trkpt>
      <trkpt lat="47.41361" lon="6.79761">
        <ele>510.9</ele>
        <time>2014-11-02T09:56:08.000Z</time>
      </trkpt>
      <trkpt lat="47.41358" lon="6.79759">
        <ele>510.7</ele>
        <time>2014-11-02T09:56:09.000Z</time>
      </trkpt>
      <trkpt lat="47.41356" lon="6.79758">
        <ele>510</ele>
        <time>2014-11-02T09:56:10.000Z</time>
      </trkpt>
      <trkpt lat="47.41354" lon="6.79756">
        <ele>510.2</ele>
        <time>2014-11-02T09:56:11.000Z</time>
      </trkpt>
      <trkpt lat="47.41352" lon="6.79754">
        <ele>509.9</ele>
        <time>2014-11-02T09:56:12.000Z</time>
      </trkpt>
      <trkpt lat="47.41349" lon="6.79752">
        <ele>510</ele>
        <time>2014-11-02T09:56:13.000Z</time>
      </trkpt>
      <trkpt lat="47.41347" lon="6.79749">
        <ele>509.7</ele>
        <time>2014-11-02T09:56:14.000Z</time>
      </trkpt>
      <trkpt lat="47.41344" lon="6.79747">
        <ele>509.7</ele>
        <time>2014-11-02T09:56:15.000Z</time>
      </trkpt>
      <trkpt lat="47.41342" lon="6.79744">
        <ele>509.8</ele>
        <time>2014-11-02T09:56:16.000Z</time>
      </trkpt>
      <trkpt lat="47.41339" lon="6.79742">
        <ele>509.8</ele>
        <time>2014-11-02T09:56:17.000Z</time>
      </trkpt>
      <trkpt lat="47.41337" lon="6.7974">
        <ele>509.4</ele>
        <time>2014-11-02T09:56:18.000Z</time>
      </trkpt>
      <trkpt lat="47.41334" lon="6.79738">
        <ele>509.8</ele>
        <time>2014-11-02T09:56:19.000Z</time>
      </trkpt>
      <trkpt lat="47.41332" lon="6.79736">
        <ele>509.9</ele>
        <time>2014-11-02T09:56:20.000Z</time>
      </trkpt>
      <trkpt lat="47.41329" lon="6.79734">
        <ele>510.3</ele>
        <time>2014-11-02T09:56:21.000Z</time>
      </trkpt>
      <trkpt lat="47.41327" lon="6.79732">
        <ele>510</ele>
        <time>2014-11-02T09:56:22.000Z</time>
      </trkpt>
      <trkpt lat="47.41324" lon="6.7973">
        <ele>510.4</ele>
        <time>2014-11-02T09:56:23.000Z</time>
      </trkpt>
      <trkpt lat="47.41321" lon="6.79728">
        <ele>510.7</ele>
        <time>2014-11-02T09:56:24.000Z</time>
      </trkpt>
      <trkpt lat="47.41319" lon="6.79726">
        <ele>510.5</ele>
        <time>2014-11-02T09:56:25.000Z</time>
      </trkpt>
      <trkpt lat="47.41316" lon="6.79724">
        <ele>510.4</ele>
        <time>2014-11-02T09:56:26.000Z</time>
      </trkpt>
      <trkpt lat="47.41313" lon="6.79722">
        <ele>510.4</ele>
        <time>2014-11-02T09:56:27.000Z</time>
      </trkpt>
      <trkpt lat="47.41311" lon="6.7972">
        <ele>510.3</ele>
        <time>2014-11-02T09:56:28.000Z</time>
      </trkpt>
      <trkpt lat="47.41308" lon="6.79718">
        <ele>510.1</ele>
        <time>2014-11-02T09:56:29.000Z</time>
      </trkpt>
      <trkpt lat="47.41305" lon="6.79717">
        <ele>510.1</ele>
        <time>2014-11-02T09:56:30.000Z</time>
      </trkpt>
      <trkpt lat="47.41303" lon="6.79716">
        <ele>510.3</ele>
        <time>2014-11-02T09:56:31.000Z</time>
      </trkpt>
      <trkpt lat="47.41299" lon="6.79714">
        <ele>509.9</ele>
        <time>2014-11-02T09:56:33.000Z</time>
      </trkpt>
      <trkpt lat="47.41297" lon="6.79714">
        <ele>510</ele>
        <time>2014-11-02T09:56:34.000Z</time>
      </trkpt>
      <trkpt lat="47.41294" lon="6.79715">
        <ele>510.4</ele>
        <time>2014-11-02T09:56:37.000Z</time>
      </trkpt>
      <trkpt lat="47.41292" lon="6.79715">
        <ele>510.8</ele>
        <time>2014-11-02T09:56:38.000Z</time>
      </trkpt>
      <trkpt lat="47.41288" lon="6.79718">
        <ele>512.5</ele>
        <time>2014-11-02T09:56:44.000Z</time>
      </trkpt>
      <trkpt lat="47.41287" lon="6.79718">
        <ele>514.2</ele>
        <time>2014-11-02T09:56:45.000Z</time>
      </trkpt>
      <trkpt lat="47.41284" lon="6.79721">
        <ele>516.5</ele>
        <time>2014-11-02T09:56:50.000Z</time>
      </trkpt>
      <trkpt lat="47.41284" lon="6.79723">
        <ele>516.5</ele>
        <time>2014-11-02T09:56:51.000Z</time>
      </trkpt>
      <trkpt lat="47.41283" lon="6.79728">
        <ele>515.2</ele>
        <time>2014-11-02T09:57:07.000Z</time>
      </trkpt>
      <trkpt lat="47.41283" lon="6.79729">
        <ele>515.1</ele>
        <time>2014-11-02T09:57:08.000Z</time>
      </trkpt>
      <trkpt lat="47.41279" lon="6.79728">
        <ele>517.5</ele>
        <time>2014-11-02T09:59:46.000Z</time>
      </trkpt>
      <trkpt lat="47.41277" lon="6.79727">
        <ele>517.4</ele>
        <time>2014-11-02T09:59:47.000Z</time>
      </trkpt>
      <trkpt lat="47.41273" lon="6.79725">
        <ele>517.2</ele>
        <time>2014-11-02T09:59:49.000Z</time>
      </trkpt>
      <trkpt lat="47.41271" lon="6.79725">
        <ele>516.1</ele>
        <time>2014-11-02T09:59:50.000Z</time>
      </trkpt>
      <trkpt lat="47.41267" lon="6.79724">
        <ele>517.2</ele>
        <time>2014-11-02T09:59:52.000Z</time>
      </trkpt>
      <trkpt lat="47.41265" lon="6.79723">
        <ele>517.4</ele>
        <time>2014-11-02T09:59:53.000Z</time>
      </trkpt>
      <trkpt lat="47.41261" lon="6.79722">
        <ele>517</ele>
        <time>2014-11-02T09:59:56.000Z</time>
      </trkpt>
      <trkpt lat="47.4126" lon="6.79722">
        <ele>517.4</ele>
        <time>2014-11-02T09:59:57.000Z</time>
      </trkpt>
      <trkpt lat="47.41257" lon="6.7972">
        <ele>516.5</ele>
        <time>2014-11-02T10:00:02.000Z</time>
      </trkpt>
      <trkpt lat="47.41256" lon="6.79716">
        <ele>514.2</ele>
        <time>2014-11-02T10:00:05.000Z</time>
      </trkpt>
      <trkpt lat="47.41256" lon="6.79712">
        <ele>513.7</ele>
        <time>2014-11-02T10:00:07.000Z</time>
      </trkpt>
      <trkpt lat="47.41254" lon="6.7971">
        <ele>511.3</ele>
        <time>2014-11-02T10:00:08.000Z</time>
      </trkpt>
      <trkpt lat="47.41251" lon="6.79706">
        <ele>510.9</ele>
        <time>2014-11-02T10:00:10.000Z</time>
      </trkpt>
      <trkpt lat="47.4125" lon="6.79704">
        <ele>509.6</ele>
        <time>2014-11-02T10:00:11.000Z</time>
      </trkpt>
      <trkpt lat="47.41247" lon="6.79698">
        <ele>510.1</ele>
        <time>2014-11-02T10:00:13.000Z</time>
      </trkpt>
      <trkpt lat="47.41244" lon="6.79695">
        <ele>505.1</ele>
        <time>2014-11-02T10:00:14.000Z</time>
      </trkpt>
      <trkpt lat="47.41242" lon="6.79692">
        <ele>503.4</ele>
        <time>2014-11-02T10:00:14.998Z</time>
      </trkpt>
      <trkpt lat="47.41239" lon="6.79689">
        <ele>502.9</ele>
        <time>2014-11-02T10:00:16.000Z</time>
      </trkpt>
      <trkpt lat="47.41235" lon="6.79687">
        <ele>502.7</ele>
        <time>2014-11-02T10:00:17.000Z</time>
      </trkpt>
      <trkpt lat="47.41232" lon="6.79685">
        <ele>503</ele>
        <time>2014-11-02T10:00:18.000Z</time>
      </trkpt>
      <trkpt lat="47.41229" lon="6.79685">
        <ele>501.4</ele>
        <time>2014-11-02T10:00:19.000Z</time>
      </trkpt>
      <trkpt lat="47.41226" lon="6.79684">
        <ele>501.1</ele>
        <time>2014-11-02T10:00:20.000Z</time>
      </trkpt>
      <trkpt lat="47.41222" lon="6.79684">
        <ele>501.4</ele>
        <time>2014-11-02T10:00:21.000Z</time>
      </trkpt>
      <trkpt lat="47.41219" lon="6.79685">
        <ele>501.8</ele>
        <time>2014-11-02T10:00:22.000Z</time>
      </trkpt>
      <trkpt lat="47.41216" lon="6.79686">
        <ele>500.8</ele>
        <time>2014-11-02T10:00:23.000Z</time>
      </trkpt>
      <trkpt lat="47.41212" lon="6.79687">
        <ele>500.6</ele>
        <time>2014-11-02T10:00:24.000Z</time>
      </trkpt>
      <trkpt lat="47.41208" lon="6.79689">
        <ele>500.2</ele>
        <time>2014-11-02T10:00:25.000Z</time>
      </trkpt>
      <trkpt lat="47.41205" lon="6.79692">
        <ele>500</ele>
        <time>2014-11-02T10:00:26.000Z</time>
      </trkpt>
      <trkpt lat="47.41202" lon="6.79694">
        <ele>500</ele>
        <time>2014-11-02T10:00:27.000Z</time>
      </trkpt>
      <trkpt lat="47.41199" lon="6.79695">
        <ele>499.9</ele>
        <time>2014-11-02T10:00:28.000Z</time>
      </trkpt>
      <trkpt lat="47.41196" lon="6.79697">
        <ele>500</ele>
        <time>2014-11-02T10:00:29.000Z</time>
      </trkpt>
      <trkpt lat="47.41193" lon="6.79699">
        <ele>499.5</ele>
        <time>2014-11-02T10:00:30.000Z</time>
      </trkpt>
      <trkpt lat="47.41191" lon="6.797">
        <ele>500.3</ele>
        <time>2014-11-02T10:00:31.000Z</time>
      </trkpt>
      <trkpt lat="47.41188" lon="6.79702">
        <ele>500.7</ele>
        <time>2014-11-02T10:00:32.000Z</time>
      </trkpt>
      <trkpt lat="47.41185" lon="6.79704">
        <ele>500.2</ele>
        <time>2014-11-02T10:00:33.000Z</time>
      </trkpt>
      <trkpt lat="47.41182" lon="6.79706">
        <ele>500.8</ele>
        <time>2014-11-02T10:00:34.000Z</time>
      </trkpt>
      <trkpt lat="47.41179" lon="6.79709">
        <ele>500.8</ele>
        <time>2014-11-02T10:00:35.000Z</time>
      </trkpt>
      <trkpt lat="47.41176" lon="6.79712">
        <ele>501.4</ele>
        <time>2014-11-02T10:00:36.000Z</time>
      </trkpt>
      <trkpt lat="47.41173" lon="6.79715">
        <ele>499.7</ele>
        <time>2014-11-02T10:00:37.000Z</time>
      </trkpt>
      <trkpt lat="47.41171" lon="6.79718">
        <ele>499</ele>
        <time>2014-11-02T10:00:38.000Z</time>
      </trkpt>
      <trkpt lat="47.41169" lon="6.7972">
        <ele>500.3</ele>
        <time>2014-11-02T10:00:39.000Z</time>
      </trkpt>
      <trkpt lat="47.41167" lon="6.79722">
        <ele>500.5</ele>
        <time>2014-11-02T10:00:40.000Z</time>
      </trkpt>
      <trkpt lat="47.41165" lon="6.79724">
        <ele>500.8</ele>
        <time>2014-11-02T10:00:41.000Z</time>
      </trkpt>
      <trkpt lat="47.41163" lon="6.79726">
        <ele>500.9</ele>
        <time>2014-11-02T10:00:42.000Z</time>
      </trkpt>
      <trkpt lat="47.41159" lon="6.79728">
        <ele>500.7</ele>
        <time>2014-11-02T10:00:44.000Z</time>
      </trkpt>
      <trkpt lat="47.41158" lon="6.79728">
        <ele>502.4</ele>
        <time>2014-11-02T10:00:45.000Z</time>
      </trkpt>
      <trkpt lat="47.41155" lon="6.79726">
        <ele>501</ele>
        <time>2014-11-02T10:00:51.000Z</time>
      </trkpt>
      <trkpt lat="47.41154" lon="6.79725">
        <ele>500.1</ele>
        <time>2014-11-02T10:00:52.000Z</time>
      </trkpt>
      <trkpt lat="47.41154" lon="6.79719">
        <ele>495.5</ele>
        <time>2014-11-02T10:00:59.000Z</time>
      </trkpt>
      <trkpt lat="47.41155" lon="6.79718">
        <ele>495</ele>
        <time>2014-11-02T10:01:00.000Z</time>
      </trkpt>
      <trkpt lat="47.41156" lon="6.79715">
        <ele>495.6</ele>
        <time>2014-11-02T10:01:02.000Z</time>
      </trkpt>
      <trkpt lat="47.41158" lon="6.7971">
        <ele>495.6</ele>
        <time>2014-11-02T10:01:05.000Z</time>
      </trkpt>
      <trkpt lat="47.41158" lon="6.79706">
        <ele>495.6</ele>
        <time>2014-11-02T10:01:07.000Z</time>
      </trkpt>
      <trkpt lat="47.41159" lon="6.79703">
        <ele>497</ele>
        <time>2014-11-02T10:01:08.000Z</time>
      </trkpt>
      <trkpt lat="47.4116" lon="6.797">
        <ele>497.4</ele>
        <time>2014-11-02T10:01:09.000Z</time>
      </trkpt>
      <trkpt lat="47.41161" lon="6.79696">
        <ele>497.8</ele>
        <time>2014-11-02T10:01:10.000Z</time>
      </trkpt>
      <trkpt lat="47.41163" lon="6.79691">
        <ele>498.1</ele>
        <time>2014-11-02T10:01:12.000Z</time>
      </trkpt>
      <trkpt lat="47.41163" lon="6.79689">
        <ele>498.3</ele>
        <time>2014-11-02T10:01:13.000Z</time>
      </trkpt>
      <trkpt lat="47.41163" lon="6.79683">
        <ele>497.5</ele>
        <time>2014-11-02T10:01:15.000Z</time>
      </trkpt>
      <trkpt lat="47.41162" lon="6.79679">
        <ele>496.5</ele>
        <time>2014-11-02T10:01:16.000Z</time>
      </trkpt>
      <trkpt lat="47.41161" lon="6.79676">
        <ele>495.3</ele>
        <time>2014-11-02T10:01:17.000Z</time>
      </trkpt>
      <trkpt lat="47.41161" lon="6.79672">
        <ele>494.5</ele>
        <time>2014-11-02T10:01:18.000Z</time>
      </trkpt>
      <trkpt lat="47.41162" lon="6.79669">
        <ele>494.5</ele>
        <time>2014-11-02T10:01:19.000Z</time>
      </trkpt>
      <trkpt lat="47.41162" lon="6.79665">
        <ele>495.5</ele>
        <time>2014-11-02T10:01:20.000Z</time>
      </trkpt>
      <trkpt lat="47.41163" lon="6.79662">
        <ele>495.4</ele>
        <time>2014-11-02T10:01:21.000Z</time>
      </trkpt>
      <trkpt lat="47.41163" lon="6.79658">
        <ele>493.7</ele>
        <time>2014-11-02T10:01:22.000Z</time>
      </trkpt>
      <trkpt lat="47.41164" lon="6.79653">
        <ele>494.1</ele>
        <time>2014-11-02T10:01:24.000Z</time>
      </trkpt>
      <trkpt lat="47.41164" lon="6.79651">
        <ele>494.3</ele>
        <time>2014-11-02T10:01:25.000Z</time>
      </trkpt>
      <trkpt lat="47.41166" lon="6.79644">
        <ele>495.5</ele>
        <time>2014-11-02T10:01:28.000Z</time>
      </trkpt>
      <trkpt lat="47.41167" lon="6.79643">
        <ele>497.7</ele>
        <time>2014-11-02T10:01:29.000Z</time>
      </trkpt>
      <trkpt lat="47.41169" lon="6.79639">
        <ele>499.4</ele>
        <time>2014-11-02T10:01:31.000Z</time>
      </trkpt>
      <trkpt lat="47.4117" lon="6.79636">
        <ele>497.8</ele>
        <time>2014-11-02T10:01:32.000Z</time>
      </trkpt>
      <trkpt lat="47.4117" lon="6.79631">
        <ele>494.6</ele>
        <time>2014-11-02T10:01:34.000Z</time>
      </trkpt>
      <trkpt lat="47.41171" lon="6.79629">
        <ele>490.5</ele>
        <time>2014-11-02T10:01:35.000Z</time>
      </trkpt>
      <trkpt lat="47.41171" lon="6.79625">
        <ele>487.8</ele>
        <time>2014-11-02T10:01:37.000Z</time>
      </trkpt>
      <trkpt lat="47.41172" lon="6.79622">
        <ele>486.2</ele>
        <time>2014-11-02T10:01:38.000Z</time>
      </trkpt>
      <trkpt lat="47.41174" lon="6.79617">
        <ele>483.4</ele>
        <time>2014-11-02T10:01:40.000Z</time>
      </trkpt>
      <trkpt lat="47.41176" lon="6.79613">
        <ele>482</ele>
        <time>2014-11-02T10:01:41.000Z</time>
      </trkpt>
      <trkpt lat="47.41178" lon="6.7961">
        <ele>480.1</ele>
        <time>2014-11-02T10:01:42.000Z</time>
      </trkpt>
      <trkpt lat="47.4118" lon="6.79605">
        <ele>476.6</ele>
        <time>2014-11-02T10:01:43.000Z</time>
      </trkpt>
      <trkpt lat="47.41183" lon="6.796">
        <ele>476.2</ele>
        <time>2014-11-02T10:01:44.000Z</time>
      </trkpt>
      <trkpt lat="47.41185" lon="6.79594">
        <ele>476.2</ele>
        <time>2014-11-02T10:01:45.000Z</time>
      </trkpt>
      <trkpt lat="47.41187" lon="6.79589">
        <ele>476.4</ele>
        <time>2014-11-02T10:01:46.000Z</time>
      </trkpt>
      <trkpt lat="47.41189" lon="6.79585">
        <ele>476.2</ele>
        <time>2014-11-02T10:01:47.000Z</time>
      </trkpt>
      <trkpt lat="47.4119" lon="6.79581">
        <ele>480.8</ele>
        <time>2014-11-02T10:01:48.000Z</time>
      </trkpt>
      <trkpt lat="47.41192" lon="6.79577">
        <ele>481.7</ele>
        <time>2014-11-02T10:01:49.000Z</time>
      </trkpt>
      <trkpt lat="47.41193" lon="6.79573">
        <ele>482.2</ele>
        <time>2014-11-02T10:01:50.000Z</time>
      </trkpt>
      <trkpt lat="47.41194" lon="6.7957">
        <ele>482.4</ele>
        <time>2014-11-02T10:01:51.000Z</time>
      </trkpt>
      <trkpt lat="47.41195" lon="6.79567">
        <ele>482.7</ele>
        <time>2014-11-02T10:01:52.000Z</time>
      </trkpt>
      <trkpt lat="47.41196" lon="6.79563">
        <ele>482.9</ele>
        <time>2014-11-02T10:01:53.000Z</time>
      </trkpt>
      <trkpt lat="47.41197" lon="6.7956">
        <ele>482.3</ele>
        <time>2014-11-02T10:01:54.000Z</time>
      </trkpt>
      <trkpt lat="47.41197" lon="6.79556">
        <ele>481.7</ele>
        <time>2014-11-02T10:01:55.000Z</time>
      </trkpt>
      <trkpt lat="47.41198" lon="6.79553">
        <ele>481.3</ele>
        <time>2014-11-02T10:01:56.000Z</time>
      </trkpt>
      <trkpt lat="47.41199" lon="6.7955">
        <ele>481</ele>
        <time>2014-11-02T10:01:57.000Z</time>
      </trkpt>
      <trkpt lat="47.41199" lon="6.79546">
        <ele>481.5</ele>
        <time>2014-11-02T10:01:58.000Z</time>
      </trkpt>
      <trkpt lat="47.41198" lon="6.79542">
        <ele>480.7</ele>
        <time>2014-11-02T10:01:59.000Z</time>
      </trkpt>
      <trkpt lat="47.41199" lon="6.79538">
        <ele>479.4</ele>
        <time>2014-11-02T10:02:00.000Z</time>
      </trkpt>
      <trkpt lat="47.412" lon="6.79535">
        <ele>478.7</ele>
        <time>2014-11-02T10:02:01.000Z</time>
      </trkpt>
      <trkpt lat="47.41201" lon="6.79532">
        <ele>477.9</ele>
        <time>2014-11-02T10:02:02.000Z</time>
      </trkpt>
      <trkpt lat="47.41204" lon="6.79524">
        <ele>476.7</ele>
        <time>2014-11-02T10:02:05.000Z</time>
      </trkpt>
      <trkpt lat="47.41206" lon="6.7952">
        <ele>478.3</ele>
        <time>2014-11-02T10:02:06.000Z</time>
      </trkpt>
      <trkpt lat="47.41207" lon="6.79515">
        <ele>475.5</ele>
        <time>2014-11-02T10:02:07.000Z</time>
      </trkpt>
      <trkpt lat="47.41208" lon="6.79511">
        <ele>474.7</ele>
        <time>2014-11-02T10:02:08.000Z</time>
      </trkpt>
      <trkpt lat="47.41208" lon="6.79506">
        <ele>474.1</ele>
        <time>2014-11-02T10:02:09.000Z</time>
      </trkpt>
      <trkpt lat="47.41208" lon="6.79502">
        <ele>473.2</ele>
        <time>2014-11-02T10:02:10.000Z</time>
      </trkpt>
      <trkpt lat="47.41208" lon="6.79499">
        <ele>472.5</ele>
        <time>2014-11-02T10:02:11.000Z</time>
      </trkpt>
      <trkpt lat="47.41208" lon="6.79495">
        <ele>472.1</ele>
        <time>2014-11-02T10:02:12.000Z</time>
      </trkpt>
      <trkpt lat="47.41208" lon="6.79492">
        <ele>470.8</ele>
        <time>2014-11-02T10:02:13.000Z</time>
      </trkpt>
      <trkpt lat="47.41207" lon="6.79485">
        <ele>467.4</ele>
        <time>2014-11-02T10:02:15.000Z</time>
      </trkpt>
      <trkpt lat="47.41208" lon="6.79482">
        <ele>465.7</ele>
        <time>2014-11-02T10:02:16.000Z</time>
      </trkpt>
      <trkpt lat="47.41208" lon="6.79478">
        <ele>466.9</ele>
        <time>2014-11-02T10:02:17.000Z</time>
      </trkpt>
      <trkpt lat="47.4121" lon="6.79474">
        <ele>467.2</ele>
        <time>2014-11-02T10:02:18.000Z</time>
      </trkpt>
      <trkpt lat="47.4121" lon="6.79471">
        <ele>467.8</ele>
        <time>2014-11-02T10:02:19.000Z</time>
      </trkpt>
      <trkpt lat="47.41211" lon="6.79468">
        <ele>467.5</ele>
        <time>2014-11-02T10:02:20.000Z</time>
      </trkpt>
      <trkpt lat="47.4121" lon="6.79462">
        <ele>463.4</ele>
        <time>2014-11-02T10:02:23.000Z</time>
      </trkpt>
      <trkpt lat="47.41209" lon="6.7946">
        <ele>462.5</ele>
        <time>2014-11-02T10:02:24.000Z</time>
      </trkpt>
      <trkpt lat="47.41209" lon="6.79457">
        <ele>461.7</ele>
        <time>2014-11-02T10:02:25.000Z</time>
      </trkpt>
      <trkpt lat="47.41208" lon="6.79453">
        <ele>462.2</ele>
        <time>2014-11-02T10:02:26.000Z</time>
      </trkpt>
      <trkpt lat="47.41208" lon="6.79448">
        <ele>463.7</ele>
        <time>2014-11-02T10:02:27.000Z</time>
      </trkpt>
      <trkpt lat="47.41208" lon="6.79443">
        <ele>463.1</ele>
        <time>2014-11-02T10:02:28.000Z</time>
      </trkpt>
      <trkpt lat="47.41208" lon="6.79439">
        <ele>461.8</ele>
        <time>2014-11-02T10:02:29.000Z</time>
      </trkpt>
      <trkpt lat="47.41207" lon="6.79434">
        <ele>459.2</ele>
        <time>2014-11-02T10:02:30.000Z</time>
      </trkpt>
      <trkpt lat="47.41206" lon="6.7943">
        <ele>457.2</ele>
        <time>2014-11-02T10:02:31.000Z</time>
      </trkpt>
      <trkpt lat="47.41205" lon="6.79426">
        <ele>452.5</ele>
        <time>2014-11-02T10:02:32.000Z</time>
      </trkpt>
      <trkpt lat="47.41206" lon="6.7942">
        <ele>451.6</ele>
        <time>2014-11-02T10:02:34.000Z</time>
      </trkpt>
      <trkpt lat="47.41207" lon="6.79416">
        <ele>451.6</ele>
        <time>2014-11-02T10:02:35.000Z</time>
      </trkpt>
      <trkpt lat="47.41208" lon="6.79413">
        <ele>451.7</ele>
        <time>2014-11-02T10:02:36.000Z</time>
      </trkpt>
      <trkpt lat="47.41209" lon="6.7941">
        <ele>451.5</ele>
        <time>2014-11-02T10:02:37.000Z</time>
      </trkpt>
      <trkpt lat="47.41208" lon="6.79403">
        <ele>449.9</ele>
        <time>2014-11-02T10:02:39.000Z</time>
      </trkpt>
      <trkpt lat="47.41208" lon="6.794">
        <ele>452.2</ele>
        <time>2014-11-02T10:02:40.000Z</time>
      </trkpt>
      <trkpt lat="47.41208" lon="6.79397">
        <ele>451.8</ele>
        <time>2014-11-02T10:02:41.000Z</time>
      </trkpt>
      <trkpt lat="47.41208" lon="6.79393">
        <ele>453.2</ele>
        <time>2014-11-02T10:02:42.000Z</time>
      </trkpt>
      <trkpt lat="47.41208" lon="6.79389">
        <ele>451.2</ele>
        <time>2014-11-02T10:02:43.000Z</time>
      </trkpt>
      <trkpt lat="47.41208" lon="6.79385">
        <ele>451.2</ele>
        <time>2014-11-02T10:02:44.000Z</time>
      </trkpt>
      <trkpt lat="47.41208" lon="6.7938">
        <ele>450.3</ele>
        <time>2014-11-02T10:02:45.000Z</time>
      </trkpt>
      <trkpt lat="47.41209" lon="6.79376">
        <ele>449.3</ele>
        <time>2014-11-02T10:02:46.000Z</time>
      </trkpt>
      <trkpt lat="47.4121" lon="6.79372">
        <ele>450.3</ele>
        <time>2014-11-02T10:02:47.000Z</time>
      </trkpt>
      <trkpt lat="47.4121" lon="6.79369">
        <ele>450.7</ele>
        <time>2014-11-02T10:02:48.000Z</time>
      </trkpt>
      <trkpt lat="47.41212" lon="6.79364">
        <ele>449.7</ele>
        <time>2014-11-02T10:02:50.000Z</time>
      </trkpt>
      <trkpt lat="47.41212" lon="6.79361">
        <ele>449.3</ele>
        <time>2014-11-02T10:02:51.000Z</time>
      </trkpt>
      <trkpt lat="47.41212" lon="6.79355">
        <ele>452.5</ele>
        <time>2014-11-02T10:02:53.000Z</time>
      </trkpt>
      <trkpt lat="47.41212" lon="6.79352">
        <ele>452.5</ele>
        <time>2014-11-02T10:02:54.000Z</time>
      </trkpt>
      <trkpt lat="47.41212" lon="6.79346">
        <ele>451.8</ele>
        <time>2014-11-02T10:02:56.000Z</time>
      </trkpt>
      <trkpt lat="47.41212" lon="6.79344">
        <ele>451.8</ele>
        <time>2014-11-02T10:02:57.000Z</time>
      </trkpt>
      <trkpt lat="47.41212" lon="6.79339">
        <ele>449.9</ele>
        <time>2014-11-02T10:02:59.000Z</time>
      </trkpt>
      <trkpt lat="47.41212" lon="6.79336">
        <ele>447.4</ele>
        <time>2014-11-02T10:03:00.000Z</time>
      </trkpt>
      <trkpt lat="47.41212" lon="6.7933">
        <ele>449</ele>
        <time>2014-11-02T10:03:02.000Z</time>
      </trkpt>
      <trkpt lat="47.41213" lon="6.79322">
        <ele>448.8</ele>
        <time>2014-11-02T10:03:05.000Z</time>
      </trkpt>
      <trkpt lat="47.41214" lon="6.79318">
        <ele>449.2</ele>
        <time>2014-11-02T10:03:06.000Z</time>
      </trkpt>
      <trkpt lat="47.41214" lon="6.79313">
        <ele>449.5</ele>
        <time>2014-11-02T10:03:07.000Z</time>
      </trkpt>
      <trkpt lat="47.41215" lon="6.79308">
        <ele>450.1</ele>
        <time>2014-11-02T10:03:08.000Z</time>
      </trkpt>
      <trkpt lat="47.41216" lon="6.79303">
        <ele>448.5</ele>
        <time>2014-11-02T10:03:09.000Z</time>
      </trkpt>
      <trkpt lat="47.41216" lon="6.79297">
        <ele>447.7</ele>
        <time>2014-11-02T10:03:10.000Z</time>
      </trkpt>
      <trkpt lat="47.41217" lon="6.79292">
        <ele>446.8</ele>
        <time>2014-11-02T10:03:11.000Z</time>
      </trkpt>
      <trkpt lat="47.41217" lon="6.79286">
        <ele>446.2</ele>
        <time>2014-11-02T10:03:12.000Z</time>
      </trkpt>
      <trkpt lat="47.41217" lon="6.7928">
        <ele>445.9</ele>
        <time>2014-11-02T10:03:13.000Z</time>
      </trkpt>
      <trkpt lat="47.41217" lon="6.79275">
        <ele>445.2</ele>
        <time>2014-11-02T10:03:14.000Z</time>
      </trkpt>
      <trkpt lat="47.41217" lon="6.7927">
        <ele>445.1</ele>
        <time>2014-11-02T10:03:15.000Z</time>
      </trkpt>
      <trkpt lat="47.41216" lon="6.79264">
        <ele>445.2</ele>
        <time>2014-11-02T10:03:16.000Z</time>
      </trkpt>
      <trkpt lat="47.41216" lon="6.79258">
        <ele>449</ele>
        <time>2014-11-02T10:03:17.000Z</time>
      </trkpt>
      <trkpt lat="47.41215" lon="6.79252">
        <ele>449.4</ele>
        <time>2014-11-02T10:03:18.000Z</time>
      </trkpt>
      <trkpt lat="47.41215" lon="6.79247">
        <ele>448.4</ele>
        <time>2014-11-02T10:03:19.000Z</time>
      </trkpt>
      <trkpt lat="47.41215" lon="6.79242">
        <ele>446.3</ele>
        <time>2014-11-02T10:03:20.000Z</time>
      </trkpt>
      <trkpt lat="47.41216" lon="6.79238">
        <ele>446</ele>
        <time>2014-11-02T10:03:21.000Z</time>
      </trkpt>
      <trkpt lat="47.41217" lon="6.79233">
        <ele>443.8</ele>
        <time>2014-11-02T10:03:23.000Z</time>
      </trkpt>
      <trkpt lat="47.41217" lon="6.7923">
        <ele>443</ele>
        <time>2014-11-02T10:03:24.000Z</time>
      </trkpt>
      <trkpt lat="47.41219" lon="6.79225">
        <ele>440.3</ele>
        <time>2014-11-02T10:03:26.000Z</time>
      </trkpt>
      <trkpt lat="47.4122" lon="6.79223">
        <ele>439.6</ele>
        <time>2014-11-02T10:03:27.000Z</time>
      </trkpt>
      <trkpt lat="47.41222" lon="6.79219">
        <ele>434.9</ele>
        <time>2014-11-02T10:03:30.000Z</time>
      </trkpt>
      <trkpt lat="47.41223" lon="6.79218">
        <ele>433.6</ele>
        <time>2014-11-02T10:03:31.000Z</time>
      </trkpt>
      <trkpt lat="47.4122" lon="6.79222">
        <ele>424.4</ele>
        <time>2014-11-02T10:03:55.000Z</time>
      </trkpt>
      <trkpt lat="47.41219" lon="6.79222">
        <ele>423.8</ele>
        <time>2014-11-02T10:03:56.000Z</time>
      </trkpt>
      <trkpt lat="47.4122" lon="6.79215">
        <ele>419.6</ele>
        <time>2014-11-02T10:04:26.000Z</time>
      </trkpt>
      <trkpt lat="47.4122" lon="6.79215">
        <ele>418.9</ele>
        <time>2014-11-02T10:04:27.000Z</time>
      </trkpt>
      <trkpt lat="47.41222" lon="6.79209">
        <ele>413.1</ele>
        <time>2014-11-02T10:04:36.000Z</time>
      </trkpt>
      <trkpt lat="47.41223" lon="6.79209">
        <ele>413.2</ele>
        <time>2014-11-02T10:04:37.000Z</time>
      </trkpt>
      <trkpt lat="47.41225" lon="6.79203">
        <ele>411.7</ele>
        <time>2014-11-02T10:07:47.000Z</time>
      </trkpt>
      <trkpt lat="47.41225" lon="6.79201">
        <ele>412.6</ele>
        <time>2014-11-02T10:07:48.000Z</time>
      </trkpt>
      <trkpt lat="47.41227" lon="6.79196">
        <ele>413.5</ele>
        <time>2014-11-02T10:07:50.000Z</time>
      </trkpt>
      <trkpt lat="47.41227" lon="6.79193">
        <ele>413</ele>
        <time>2014-11-02T10:07:51.000Z</time>
      </trkpt>
      <trkpt lat="47.41227" lon="6.79187">
        <ele>413.1</ele>
        <time>2014-11-02T10:07:53.000Z</time>
      </trkpt>
      <trkpt lat="47.41227" lon="6.79184">
        <ele>412.6</ele>
        <time>2014-11-02T10:07:54.000Z</time>
      </trkpt>
      <trkpt lat="47.41227" lon="6.79181">
        <ele>412.5</ele>
        <time>2014-11-02T10:07:55.000Z</time>
      </trkpt>
      <trkpt lat="47.41227" lon="6.79177">
        <ele>414.5</ele>
        <time>2014-11-02T10:07:56.000Z</time>
      </trkpt>
      <trkpt lat="47.41227" lon="6.79172">
        <ele>415.3</ele>
        <time>2014-11-02T10:07:57.000Z</time>
      </trkpt>
      <trkpt lat="47.41228" lon="6.79166">
        <ele>414.7</ele>
        <time>2014-11-02T10:07:58.000Z</time>
      </trkpt>
      <trkpt lat="47.41229" lon="6.79158">
        <ele>413.8</ele>
        <time>2014-11-02T10:07:59.000Z</time>
      </trkpt>
      <trkpt lat="47.4123" lon="6.7915">
        <ele>413</ele>
        <time>2014-11-02T10:08:00.000Z</time>
      </trkpt>
      <trkpt lat="47.41231" lon="6.79142">
        <ele>413.2</ele>
        <time>2014-11-02T10:08:01.000Z</time>
      </trkpt>
      <trkpt lat="47.41233" lon="6.79127">
        <ele>412.9</ele>
        <time>2014-11-02T10:08:02.000Z</time>
      </trkpt>
      <trkpt lat="47.41233" lon="6.79108">
        <ele>412.6</ele>
        <time>2014-11-02T10:08:05.000Z</time>
      </trkpt>
      <trkpt lat="47.41237" lon="6.79095">
        <ele>412</ele>
        <time>2014-11-02T10:08:06.000Z</time>
      </trkpt>
      <trkpt lat="47.41236" lon="6.79088">
        <ele>411.5</ele>
        <time>2014-11-02T10:08:07.000Z</time>
      </trkpt>
      <trkpt lat="47.4124" lon="6.79078">
        <ele>408.9</ele>
        <time>2014-11-02T10:08:08.000Z</time>
      </trkpt>
      <trkpt lat="47.41241" lon="6.79068">
        <ele>407.5</ele>
        <time>2014-11-02T10:08:09.000Z</time>
      </trkpt>
      <trkpt lat="47.41243" lon="6.79059">
        <ele>407.6</ele>
        <time>2014-11-02T10:08:10.000Z</time>
      </trkpt>
      <trkpt lat="47.41244" lon="6.7905">
        <ele>407.1</ele>
        <time>2014-11-02T10:08:11.000Z</time>
      </trkpt>
      <trkpt lat="47.41247" lon="6.79042">
        <ele>406</ele>
        <time>2014-11-02T10:08:12.000Z</time>
      </trkpt>
      <trkpt lat="47.41249" lon="6.79032">
        <ele>404.4</ele>
        <time>2014-11-02T10:08:13.000Z</time>
      </trkpt>
      <trkpt lat="47.41249" lon="6.79023">
        <ele>402.1</ele>
        <time>2014-11-02T10:08:14.000Z</time>
      </trkpt>
      <trkpt lat="47.41251" lon="6.79015">
        <ele>400.6</ele>
        <time>2014-11-02T10:08:15.000Z</time>
      </trkpt>
      <trkpt lat="47.41252" lon="6.79007">
        <ele>399.3</ele>
        <time>2014-11-02T10:08:16.000Z</time>
      </trkpt>
      <trkpt lat="47.41252" lon="6.79">
        <ele>398.1</ele>
        <time>2014-11-02T10:08:17.000Z</time>
      </trkpt>
      <trkpt lat="47.41252" lon="6.78993">
        <ele>396.8</ele>
        <time>2014-11-02T10:08:18.000Z</time>
      </trkpt>
      <trkpt lat="47.41251" lon="6.78985">
        <ele>395.4</ele>
        <time>2014-11-02T10:08:19.000Z</time>
      </trkpt>
      <trkpt lat="47.4125" lon="6.78978">
        <ele>393</ele>
        <time>2014-11-02T10:08:20.000Z</time>
      </trkpt>
      <trkpt lat="47.41249" lon="6.7897">
        <ele>392.1</ele>
        <time>2014-11-02T10:08:21.000Z</time>
      </trkpt>
      <trkpt lat="47.41245" lon="6.78964">
        <ele>388.1</ele>
        <time>2014-11-02T10:08:22.000Z</time>
      </trkpt>
      <trkpt lat="47.41243" lon="6.78959">
        <ele>387.4</ele>
        <time>2014-11-02T10:08:23.000Z</time>
      </trkpt>
      <trkpt lat="47.4124" lon="6.78953">
        <ele>386.8</ele>
        <time>2014-11-02T10:08:24.000Z</time>
      </trkpt>
      <trkpt lat="47.41236" lon="6.78946">
        <ele>386.3</ele>
        <time>2014-11-02T10:08:25.000Z</time>
      </trkpt>
      <trkpt lat="47.41233" lon="6.78939">
        <ele>385.4</ele>
        <time>2014-11-02T10:08:26.000Z</time>
      </trkpt>
      <trkpt lat="47.41231" lon="6.78935">
        <ele>384</ele>
        <time>2014-11-02T10:08:27.000Z</time>
      </trkpt>
      <trkpt lat="47.41229" lon="6.78931">
        <ele>383.2</ele>
        <time>2014-11-02T10:08:28.000Z</time>
      </trkpt>
      <trkpt lat="47.41227" lon="6.78925">
        <ele>382.1</ele>
        <time>2014-11-02T10:08:29.000Z</time>
      </trkpt>
      <trkpt lat="47.41222" lon="6.78919">
        <ele>380.3</ele>
        <time>2014-11-02T10:08:30.000Z</time>
      </trkpt>
      <trkpt lat="47.41215" lon="6.78912">
        <ele>377.6</ele>
        <time>2014-11-02T10:08:31.000Z</time>
      </trkpt>
      <trkpt lat="47.41213" lon="6.78906">
        <ele>377.1</ele>
        <time>2014-11-02T10:08:33.000Z</time>
      </trkpt>
      <trkpt lat="47.4121" lon="6.78902">
        <ele>376.7</ele>
        <time>2014-11-02T10:08:34.000Z</time>
      </trkpt>
      <trkpt lat="47.41208" lon="6.78899">
        <ele>376.6</ele>
        <time>2014-11-02T10:08:35.000Z</time>
      </trkpt>
      <trkpt lat="47.41207" lon="6.78896">
        <ele>375.6</ele>
        <time>2014-11-02T10:08:36.000Z</time>
      </trkpt>
      <trkpt lat="47.41206" lon="6.78893">
        <ele>376.3</ele>
        <time>2014-11-02T10:08:37.000Z</time>
      </trkpt>
      <trkpt lat="47.41203" lon="6.7889">
        <ele>373.9</ele>
        <time>2014-11-02T10:08:38.000Z</time>
      </trkpt>
      <trkpt lat="47.412" lon="6.78886">
        <ele>375.4</ele>
        <time>2014-11-02T10:08:39.000Z</time>
      </trkpt>
      <trkpt lat="47.41197" lon="6.78882">
        <ele>374.3</ele>
        <time>2014-11-02T10:08:40.000Z</time>
      </trkpt>
      <trkpt lat="47.41194" lon="6.78877">
        <ele>375.1</ele>
        <time>2014-11-02T10:08:41.000Z</time>
      </trkpt>
      <trkpt lat="47.41192" lon="6.78872">
        <ele>374.7</ele>
        <time>2014-11-02T10:08:42.000Z</time>
      </trkpt>
      <trkpt lat="47.41189" lon="6.78868">
        <ele>374.3</ele>
        <time>2014-11-02T10:08:43.000Z</time>
      </trkpt>
      <trkpt lat="47.41186" lon="6.78864">
        <ele>373.6</ele>
        <time>2014-11-02T10:08:44.000Z</time>
      </trkpt>
      <trkpt lat="47.41184" lon="6.78861">
        <ele>373.5</ele>
        <time>2014-11-02T10:08:45.000Z</time>
      </trkpt>
      <trkpt lat="47.41182" lon="6.78859">
        <ele>372.9</ele>
        <time>2014-11-02T10:08:46.000Z</time>
      </trkpt>
      <trkpt lat="47.41179" lon="6.78858">
        <ele>371.2</ele>
        <time>2014-11-02T10:08:47.000Z</time>
      </trkpt>
      <trkpt lat="47.41177" lon="6.78857">
        <ele>371.5</ele>
        <time>2014-11-02T10:08:48.000Z</time>
      </trkpt>
      <trkpt lat="47.41174" lon="6.78856">
        <ele>369.2</ele>
        <time>2014-11-02T10:08:50.000Z</time>
      </trkpt>
      <trkpt lat="47.41173" lon="6.78855">
        <ele>369</ele>
        <time>2014-11-02T10:08:51.000Z</time>
      </trkpt>
      <trkpt lat="47.4117" lon="6.78851">
        <ele>371</ele>
        <time>2014-11-02T10:08:55.000Z</time>
      </trkpt>
      <trkpt lat="47.41169" lon="6.7885">
        <ele>371</ele>
        <time>2014-11-02T10:08:56.000Z</time>
      </trkpt>
      <trkpt lat="47.41169" lon="6.78844">
        <ele>370.2</ele>
        <time>2014-11-02T10:09:01.000Z</time>
      </trkpt>
      <trkpt lat="47.4117" lon="6.78841">
        <ele>368.8</ele>
        <time>2014-11-02T10:09:02.000Z</time>
      </trkpt>
      <trkpt lat="47.41174" lon="6.78831">
        <ele>365.3</ele>
        <time>2014-11-02T10:09:05.000Z</time>
      </trkpt>
      <trkpt lat="47.41176" lon="6.78828">
        <ele>366.1</ele>
        <time>2014-11-02T10:09:06.000Z</time>
      </trkpt>
      <trkpt lat="47.41178" lon="6.78826">
        <ele>366.4</ele>
        <time>2014-11-02T10:09:07.000Z</time>
      </trkpt>
      <trkpt lat="47.4118" lon="6.78823">
        <ele>366.9</ele>
        <time>2014-11-02T10:09:09.000Z</time>
      </trkpt>
      <trkpt lat="47.41182" lon="6.78822">
        <ele>367.1</ele>
        <time>2014-11-02T10:09:10.000Z</time>
      </trkpt>
      <trkpt lat="47.41183" lon="6.78819">
        <ele>367.4</ele>
        <time>2014-11-02T10:09:12.000Z</time>
      </trkpt>
      <trkpt lat="47.41185" lon="6.78816">
        <ele>366.9</ele>
        <time>2014-11-02T10:09:13.000Z</time>
      </trkpt>
      <trkpt lat="47.41186" lon="6.78813">
        <ele>367.2</ele>
        <time>2014-11-02T10:09:14.000Z</time>
      </trkpt>
      <trkpt lat="47.41186" lon="6.78808">
        <ele>366</ele>
        <time>2014-11-02T10:09:15.000Z</time>
      </trkpt>
      <trkpt lat="47.41187" lon="6.78803">
        <ele>365.8</ele>
        <time>2014-11-02T10:09:16.000Z</time>
      </trkpt>
      <trkpt lat="47.41187" lon="6.78797">
        <ele>366.4</ele>
        <time>2014-11-02T10:09:17.000Z</time>
      </trkpt>
      <trkpt lat="47.41188" lon="6.78791">
        <ele>367</ele>
        <time>2014-11-02T10:09:18.000Z</time>
      </trkpt>
      <trkpt lat="47.41188" lon="6.78787">
        <ele>368.2</ele>
        <time>2014-11-02T10:09:19.000Z</time>
      </trkpt>
      <trkpt lat="47.41188" lon="6.78782">
        <ele>367.6</ele>
        <time>2014-11-02T10:09:21.000Z</time>
      </trkpt>
      <trkpt lat="47.41189" lon="6.7878">
        <ele>367</ele>
        <time>2014-11-02T10:09:22.000Z</time>
      </trkpt>
      <trkpt lat="47.4119" lon="6.78773">
        <ele>366.6</ele>
        <time>2014-11-02T10:09:24.000Z</time>
      </trkpt>
      <trkpt lat="47.41191" lon="6.7877">
        <ele>366.5</ele>
        <time>2014-11-02T10:09:25.000Z</time>
      </trkpt>
      <trkpt lat="47.41191" lon="6.78765">
        <ele>365.3</ele>
        <time>2014-11-02T10:09:26.000Z</time>
      </trkpt>
      <trkpt lat="47.41191" lon="6.78761">
        <ele>364.7</ele>
        <time>2014-11-02T10:09:27.000Z</time>
      </trkpt>
      <trkpt lat="47.41191" lon="6.78756">
        <ele>365.2</ele>
        <time>2014-11-02T10:09:28.000Z</time>
      </trkpt>
      <trkpt lat="47.4119" lon="6.78751">
        <ele>365.1</ele>
        <time>2014-11-02T10:09:29.000Z</time>
      </trkpt>
      <trkpt lat="47.41189" lon="6.78745">
        <ele>363.5</ele>
        <time>2014-11-02T10:09:30.000Z</time>
      </trkpt>
      <trkpt lat="47.41189" lon="6.78738">
        <ele>362.9</ele>
        <time>2014-11-02T10:09:31.000Z</time>
      </trkpt>
      <trkpt lat="47.4119" lon="6.78732">
        <ele>361.9</ele>
        <time>2014-11-02T10:09:32.000Z</time>
      </trkpt>
      <trkpt lat="47.41189" lon="6.78726">
        <ele>361.7</ele>
        <time>2014-11-02T10:09:33.000Z</time>
      </trkpt>
      <trkpt lat="47.41189" lon="6.7872">
        <ele>361.4</ele>
        <time>2014-11-02T10:09:34.000Z</time>
      </trkpt>
      <trkpt lat="47.41188" lon="6.78714">
        <ele>360.3</ele>
        <time>2014-11-02T10:09:35.000Z</time>
      </trkpt>
      <trkpt lat="47.41187" lon="6.78708">
        <ele>360.2</ele>
        <time>2014-11-02T10:09:36.000Z</time>
      </trkpt>
      <trkpt lat="47.41186" lon="6.78703">
        <ele>359.9</ele>
        <time>2014-11-02T10:09:37.000Z</time>
      </trkpt>
      <trkpt lat="47.41185" lon="6.78697">
        <ele>360.2</ele>
        <time>2014-11-02T10:09:38.000Z</time>
      </trkpt>
      <trkpt lat="47.41185" lon="6.78691">
        <ele>359.6</ele>
        <time>2014-11-02T10:09:39.000Z</time>
      </trkpt>
      <trkpt lat="47.41184" lon="6.78685">
        <ele>358.4</ele>
        <time>2014-11-02T10:09:40.000Z</time>
      </trkpt>
      <trkpt lat="47.41182" lon="6.7868">
        <ele>358.7</ele>
        <time>2014-11-02T10:09:41.000Z</time>
      </trkpt>
      <trkpt lat="47.41181" lon="6.78674">
        <ele>358.8</ele>
        <time>2014-11-02T10:09:42.000Z</time>
      </trkpt>
      <trkpt lat="47.41179" lon="6.78669">
        <ele>358.7</ele>
        <time>2014-11-02T10:09:43.000Z</time>
      </trkpt>
      <trkpt lat="47.41178" lon="6.78663">
        <ele>358.7</ele>
        <time>2014-11-02T10:09:44.000Z</time>
      </trkpt>
      <trkpt lat="47.41176" lon="6.78657">
        <ele>358.3</ele>
        <time>2014-11-02T10:09:45.000Z</time>
      </trkpt>
      <trkpt lat="47.41175" lon="6.78651">
        <ele>359.5</ele>
        <time>2014-11-02T10:09:46.000Z</time>
      </trkpt>
      <trkpt lat="47.41175" lon="6.78645">
        <ele>360.2</ele>
        <time>2014-11-02T10:09:47.000Z</time>
      </trkpt>
      <trkpt lat="47.41174" lon="6.78639">
        <ele>360.6</ele>
        <time>2014-11-02T10:09:48.000Z</time>
      </trkpt>
      <trkpt lat="47.41174" lon="6.78633">
        <ele>360</ele>
        <time>2014-11-02T10:09:49.000Z</time>
      </trkpt>
      <trkpt lat="47.41173" lon="6.78628">
        <ele>359.8</ele>
        <time>2014-11-02T10:09:50.000Z</time>
      </trkpt>
      <trkpt lat="47.41172" lon="6.78623">
        <ele>360</ele>
        <time>2014-11-02T10:09:51.000Z</time>
      </trkpt>
      <trkpt lat="47.41171" lon="6.78618">
        <ele>359.7</ele>
        <time>2014-11-02T10:09:52.000Z</time>
      </trkpt>
      <trkpt lat="47.4117" lon="6.78614">
        <ele>359.9</ele>
        <time>2014-11-02T10:09:53.000Z</time>
      </trkpt>
      <trkpt lat="47.41169" lon="6.7861">
        <ele>359.3</ele>
        <time>2014-11-02T10:09:54.000Z</time>
      </trkpt>
      <trkpt lat="47.41169" lon="6.78606">
        <ele>360.5</ele>
        <time>2014-11-02T10:09:55.000Z</time>
      </trkpt>
      <trkpt lat="47.41168" lon="6.78602">
        <ele>360.6</ele>
        <time>2014-11-02T10:09:56.000Z</time>
      </trkpt>
      <trkpt lat="47.41167" lon="6.78599">
        <ele>360.3</ele>
        <time>2014-11-02T10:09:57.000Z</time>
      </trkpt>
      <trkpt lat="47.41166" lon="6.78595">
        <ele>359.3</ele>
        <time>2014-11-02T10:09:58.000Z</time>
      </trkpt>
      <trkpt lat="47.41166" lon="6.78591">
        <ele>360.6</ele>
        <time>2014-11-02T10:09:59.000Z</time>
      </trkpt>
      <trkpt lat="47.41164" lon="6.78586">
        <ele>361.4</ele>
        <time>2014-11-02T10:10:00.000Z</time>
      </trkpt>
      <trkpt lat="47.41163" lon="6.78581">
        <ele>361.9</ele>
        <time>2014-11-02T10:10:01.000Z</time>
      </trkpt>
      <trkpt lat="47.41162" lon="6.78576">
        <ele>360.8</ele>
        <time>2014-11-02T10:10:02.000Z</time>
      </trkpt>
      <trkpt lat="47.41161" lon="6.78572">
        <ele>361</ele>
        <time>2014-11-02T10:10:03.000Z</time>
      </trkpt>
      <trkpt lat="47.41157" lon="6.7856">
        <ele>358.8</ele>
        <time>2014-11-02T10:10:06.000Z</time>
      </trkpt>
      <trkpt lat="47.41156" lon="6.78556">
        <ele>358.5</ele>
        <time>2014-11-02T10:10:07.000Z</time>
      </trkpt>
      <trkpt lat="47.41155" lon="6.78551">
        <ele>357.4</ele>
        <time>2014-11-02T10:10:08.000Z</time>
      </trkpt>
      <trkpt lat="47.41154" lon="6.78545">
        <ele>358</ele>
        <time>2014-11-02T10:10:09.000Z</time>
      </trkpt>
      <trkpt lat="47.41153" lon="6.78539">
        <ele>359.6</ele>
        <time>2014-11-02T10:10:10.000Z</time>
      </trkpt>
      <trkpt lat="47.41153" lon="6.78533">
        <ele>360.1</ele>
        <time>2014-11-02T10:10:11.000Z</time>
      </trkpt>
      <trkpt lat="47.41152" lon="6.78528">
        <ele>361</ele>
        <time>2014-11-02T10:10:12.000Z</time>
      </trkpt>
      <trkpt lat="47.41151" lon="6.78524">
        <ele>359.9</ele>
        <time>2014-11-02T10:10:13.000Z</time>
      </trkpt>
      <trkpt lat="47.4115" lon="6.78519">
        <ele>359.6</ele>
        <time>2014-11-02T10:10:14.000Z</time>
      </trkpt>
      <trkpt lat="47.41149" lon="6.78514">
        <ele>364.4</ele>
        <time>2014-11-02T10:10:15.000Z</time>
      </trkpt>
      <trkpt lat="47.41148" lon="6.7851">
        <ele>365.4</ele>
        <time>2014-11-02T10:10:16.000Z</time>
      </trkpt>
      <trkpt lat="47.41147" lon="6.78505">
        <ele>365.3</ele>
        <time>2014-11-02T10:10:17.000Z</time>
      </trkpt>
      <trkpt lat="47.41146" lon="6.785">
        <ele>364.3</ele>
        <time>2014-11-02T10:10:18.000Z</time>
      </trkpt>
      <trkpt lat="47.41145" lon="6.78495">
        <ele>366.3</ele>
        <time>2014-11-02T10:10:19.000Z</time>
      </trkpt>
      <trkpt lat="47.41145" lon="6.7849">
        <ele>364.9</ele>
        <time>2014-11-02T10:10:20.000Z</time>
      </trkpt>
      <trkpt lat="47.41144" lon="6.78486">
        <ele>364.6</ele>
        <time>2014-11-02T10:10:21.000Z</time>
      </trkpt>
      <trkpt lat="47.41144" lon="6.78481">
        <ele>360.6</ele>
        <time>2014-11-02T10:10:22.000Z</time>
      </trkpt>
      <trkpt lat="47.41143" lon="6.78476">
        <ele>360.8</ele>
        <time>2014-11-02T10:10:23.000Z</time>
      </trkpt>
      <trkpt lat="47.41143" lon="6.7847">
        <ele>359.2</ele>
        <time>2014-11-02T10:10:24.000Z</time>
      </trkpt>
      <trkpt lat="47.41143" lon="6.78465">
        <ele>357.9</ele>
        <time>2014-11-02T10:10:25.000Z</time>
      </trkpt>
      <trkpt lat="47.41142" lon="6.7846">
        <ele>356.4</ele>
        <time>2014-11-02T10:10:26.000Z</time>
      </trkpt>
      <trkpt lat="47.41142" lon="6.78455">
        <ele>355.7</ele>
        <time>2014-11-02T10:10:27.000Z</time>
      </trkpt>
      <trkpt lat="47.41142" lon="6.78449">
        <ele>354.3</ele>
        <time>2014-11-02T10:10:28.000Z</time>
      </trkpt>
      <trkpt lat="47.41141" lon="6.78444">
        <ele>353</ele>
        <time>2014-11-02T10:10:29.000Z</time>
      </trkpt>
      <trkpt lat="47.4114" lon="6.78438">
        <ele>352.6</ele>
        <time>2014-11-02T10:10:30.000Z</time>
      </trkpt>
      <trkpt lat="47.41139" lon="6.78433">
        <ele>352.7</ele>
        <time>2014-11-02T10:10:31.000Z</time>
      </trkpt>
      <trkpt lat="47.41138" lon="6.78427">
        <ele>353.2</ele>
        <time>2014-11-02T10:10:32.000Z</time>
      </trkpt>
      <trkpt lat="47.41138" lon="6.78421">
        <ele>353.4</ele>
        <time>2014-11-02T10:10:33.000Z</time>
      </trkpt>
      <trkpt lat="47.41138" lon="6.78415">
        <ele>351.8</ele>
        <time>2014-11-02T10:10:34.000Z</time>
      </trkpt>
      <trkpt lat="47.41138" lon="6.78408">
        <ele>351.1</ele>
        <time>2014-11-02T10:10:35.000Z</time>
      </trkpt>
      <trkpt lat="47.41139" lon="6.78401">
        <ele>350.1</ele>
        <time>2014-11-02T10:10:36.000Z</time>
      </trkpt>
      <trkpt lat="47.4114" lon="6.78395">
        <ele>350.1</ele>
        <time>2014-11-02T10:10:37.000Z</time>
      </trkpt>
      <trkpt lat="47.4114" lon="6.78388">
        <ele>348.6</ele>
        <time>2014-11-02T10:10:38.000Z</time>
      </trkpt>
      <trkpt lat="47.4114" lon="6.78382">
        <ele>347.9</ele>
        <time>2014-11-02T10:10:39.000Z</time>
      </trkpt>
      <trkpt lat="47.4114" lon="6.78377">
        <ele>347.7</ele>
        <time>2014-11-02T10:10:40.000Z</time>
      </trkpt>
      <trkpt lat="47.41139" lon="6.78371">
        <ele>348.1</ele>
        <time>2014-11-02T10:10:41.000Z</time>
      </trkpt>
      <trkpt lat="47.41139" lon="6.78365">
        <ele>348</ele>
        <time>2014-11-02T10:10:42.000Z</time>
      </trkpt>
      <trkpt lat="47.41139" lon="6.78359">
        <ele>347.8</ele>
        <time>2014-11-02T10:10:43.000Z</time>
      </trkpt>
      <trkpt lat="47.41138" lon="6.78353">
        <ele>348</ele>
        <time>2014-11-02T10:10:44.000Z</time>
      </trkpt>
      <trkpt lat="47.41138" lon="6.78346">
        <ele>348.2</ele>
        <time>2014-11-02T10:10:45.000Z</time>
      </trkpt>
      <trkpt lat="47.41138" lon="6.7834">
        <ele>348.5</ele>
        <time>2014-11-02T10:10:46.000Z</time>
      </trkpt>
      <trkpt lat="47.41138" lon="6.78333">
        <ele>348.9</ele>
        <time>2014-11-02T10:10:47.000Z</time>
      </trkpt>
      <trkpt lat="47.41138" lon="6.78327">
        <ele>348.9</ele>
        <time>2014-11-02T10:10:48.000Z</time>
      </trkpt>
      <trkpt lat="47.41137" lon="6.7832">
        <ele>348.1</ele>
        <time>2014-11-02T10:10:49.000Z</time>
      </trkpt>
      <trkpt lat="47.41137" lon="6.78314">
        <ele>347.6</ele>
        <time>2014-11-02T10:10:50.000Z</time>
      </trkpt>
      <trkpt lat="47.41137" lon="6.78307">
        <ele>347.3</ele>
        <time>2014-11-02T10:10:51.000Z</time>
      </trkpt>
      <trkpt lat="47.41137" lon="6.78301">
        <ele>346.9</ele>
        <time>2014-11-02T10:10:52.000Z</time>
      </trkpt>
      <trkpt lat="47.41138" lon="6.78294">
        <ele>346.8</ele>
        <time>2014-11-02T10:10:53.000Z</time>
      </trkpt>
      <trkpt lat="47.41139" lon="6.78288">
        <ele>346.6</ele>
        <time>2014-11-02T10:10:54.000Z</time>
      </trkpt>
      <trkpt lat="47.41139" lon="6.78281">
        <ele>346.7</ele>
        <time>2014-11-02T10:10:55.000Z</time>
      </trkpt>
      <trkpt lat="47.41139" lon="6.78272">
        <ele>346.3</ele>
        <time>2014-11-02T10:10:56.000Z</time>
      </trkpt>
      <trkpt lat="47.4114" lon="6.78264">
        <ele>346.3</ele>
        <time>2014-11-02T10:10:57.000Z</time>
      </trkpt>
      <trkpt lat="47.41141" lon="6.78257">
        <ele>345.9</ele>
        <time>2014-11-02T10:10:58.000Z</time>
      </trkpt>
      <trkpt lat="47.41141" lon="6.7825">
        <ele>346</ele>
        <time>2014-11-02T10:10:59.000Z</time>
      </trkpt>
      <trkpt lat="47.41142" lon="6.78243">
        <ele>345.9</ele>
        <time>2014-11-02T10:11:00.000Z</time>
      </trkpt>
      <trkpt lat="47.4114" lon="6.78236">
        <ele>345.1</ele>
        <time>2014-11-02T10:11:01.000Z</time>
      </trkpt>
      <trkpt lat="47.41139" lon="6.78229">
        <ele>344.5</ele>
        <time>2014-11-02T10:11:02.000Z</time>
      </trkpt>
      <trkpt lat="47.41134" lon="6.78209">
        <ele>340.8</ele>
        <time>2014-11-02T10:11:05.000Z</time>
      </trkpt>
      <trkpt lat="47.41134" lon="6.78203">
        <ele>341</ele>
        <time>2014-11-02T10:11:06.000Z</time>
      </trkpt>
      <trkpt lat="47.41132" lon="6.78197">
        <ele>340.5</ele>
        <time>2014-11-02T10:11:07.000Z</time>
      </trkpt>
      <trkpt lat="47.41131" lon="6.78191">
        <ele>341.8</ele>
        <time>2014-11-02T10:11:08.000Z</time>
      </trkpt>
      <trkpt lat="47.4113" lon="6.78184">
        <ele>343.1</ele>
        <time>2014-11-02T10:11:09.000Z</time>
      </trkpt>
      <trkpt lat="47.41129" lon="6.78178">
        <ele>342.9</ele>
        <time>2014-11-02T10:11:10.000Z</time>
      </trkpt>
      <trkpt lat="47.41128" lon="6.78172">
        <ele>343.4</ele>
        <time>2014-11-02T10:11:11.000Z</time>
      </trkpt>
      <trkpt lat="47.41128" lon="6.78166">
        <ele>343.8</ele>
        <time>2014-11-02T10:11:12.000Z</time>
      </trkpt>
      <trkpt lat="47.41127" lon="6.78159">
        <ele>344.1</ele>
        <time>2014-11-02T10:11:13.000Z</time>
      </trkpt>
      <trkpt lat="47.41125" lon="6.78152">
        <ele>343.1</ele>
        <time>2014-11-02T10:11:14.000Z</time>
      </trkpt>
      <trkpt lat="47.41124" lon="6.78146">
        <ele>343</ele>
        <time>2014-11-02T10:11:15.000Z</time>
      </trkpt>
      <trkpt lat="47.41123" lon="6.78139">
        <ele>342.3</ele>
        <time>2014-11-02T10:11:16.000Z</time>
      </trkpt>
      <trkpt lat="47.41123" lon="6.78133">
        <ele>342.6</ele>
        <time>2014-11-02T10:11:17.000Z</time>
      </trkpt>
      <trkpt lat="47.41123" lon="6.78125">
        <ele>342.8</ele>
        <time>2014-11-02T10:11:18.000Z</time>
      </trkpt>
      <trkpt lat="47.41121" lon="6.78119">
        <ele>342.5</ele>
        <time>2014-11-02T10:11:19.000Z</time>
      </trkpt>
      <trkpt lat="47.41121" lon="6.78112">
        <ele>341.2</ele>
        <time>2014-11-02T10:11:20.000Z</time>
      </trkpt>
      <trkpt lat="47.41121" lon="6.78105">
        <ele>341</ele>
        <time>2014-11-02T10:11:21.000Z</time>
      </trkpt>
      <trkpt lat="47.4112" lon="6.78098">
        <ele>341.7</ele>
        <time>2014-11-02T10:11:22.000Z</time>
      </trkpt>
      <trkpt lat="47.41118" lon="6.78091">
        <ele>341.8</ele>
        <time>2014-11-02T10:11:23.000Z</time>
      </trkpt>
      <trkpt lat="47.41117" lon="6.78084">
        <ele>342.2</ele>
        <time>2014-11-02T10:11:24.000Z</time>
      </trkpt>
      <trkpt lat="47.41115" lon="6.78078">
        <ele>342</ele>
        <time>2014-11-02T10:11:25.000Z</time>
      </trkpt>
      <trkpt lat="47.41115" lon="6.7807">
        <ele>342.4</ele>
        <time>2014-11-02T10:11:26.000Z</time>
      </trkpt>
      <trkpt lat="47.41114" lon="6.78063">
        <ele>342.2</ele>
        <time>2014-11-02T10:11:27.000Z</time>
      </trkpt>
      <trkpt lat="47.41112" lon="6.78056">
        <ele>342.9</ele>
        <time>2014-11-02T10:11:28.000Z</time>
      </trkpt>
      <trkpt lat="47.41111" lon="6.78049">
        <ele>342.5</ele>
        <time>2014-11-02T10:11:29.000Z</time>
      </trkpt>
      <trkpt lat="47.41109" lon="6.78041">
        <ele>343.4</ele>
        <time>2014-11-02T10:11:30.000Z</time>
      </trkpt>
      <trkpt lat="47.41108" lon="6.78034">
        <ele>344</ele>
        <time>2014-11-02T10:11:31.000Z</time>
      </trkpt>
      <trkpt lat="47.41106" lon="6.78028">
        <ele>344.1</ele>
        <time>2014-11-02T10:11:32.000Z</time>
      </trkpt>
      <trkpt lat="47.41104" lon="6.78021">
        <ele>343.9</ele>
        <time>2014-11-02T10:11:33.000Z</time>
      </trkpt>
      <trkpt lat="47.41103" lon="6.78015">
        <ele>343.7</ele>
        <time>2014-11-02T10:11:34.000Z</time>
      </trkpt>
      <trkpt lat="47.41102" lon="6.78008">
        <ele>344.6</ele>
        <time>2014-11-02T10:11:35.000Z</time>
      </trkpt>
      <trkpt lat="47.411" lon="6.78001">
        <ele>344.8</ele>
        <time>2014-11-02T10:11:36.000Z</time>
      </trkpt>
      <trkpt lat="47.41099" lon="6.77995">
        <ele>344.9</ele>
        <time>2014-11-02T10:11:37.000Z</time>
      </trkpt>
      <trkpt lat="47.41097" lon="6.77989">
        <ele>345.4</ele>
        <time>2014-11-02T10:11:38.000Z</time>
      </trkpt>
      <trkpt lat="47.41096" lon="6.77983">
        <ele>345.4</ele>
        <time>2014-11-02T10:11:39.000Z</time>
      </trkpt>
      <trkpt lat="47.41094" lon="6.77976">
        <ele>345.1</ele>
        <time>2014-11-02T10:11:40.000Z</time>
      </trkpt>
      <trkpt lat="47.41092" lon="6.7797">
        <ele>345</ele>
        <time>2014-11-02T10:11:41.000Z</time>
      </trkpt>
      <trkpt lat="47.41091" lon="6.77962">
        <ele>346</ele>
        <time>2014-11-02T10:11:42.000Z</time>
      </trkpt>
      <trkpt lat="47.4109" lon="6.77956">
        <ele>346.7</ele>
        <time>2014-11-02T10:11:43.000Z</time>
      </trkpt>
      <trkpt lat="47.41088" lon="6.77949">
        <ele>347.1</ele>
        <time>2014-11-02T10:11:44.000Z</time>
      </trkpt>
      <trkpt lat="47.41086" lon="6.77943">
        <ele>347.2</ele>
        <time>2014-11-02T10:11:45.000Z</time>
      </trkpt>
      <trkpt lat="47.41084" lon="6.77937">
        <ele>346.5</ele>
        <time>2014-11-02T10:11:46.000Z</time>
      </trkpt>
      <trkpt lat="47.41082" lon="6.7793">
        <ele>346.2</ele>
        <time>2014-11-02T10:11:47.000Z</time>
      </trkpt>
      <trkpt lat="47.41081" lon="6.77924">
        <ele>347.3</ele>
        <time>2014-11-02T10:11:48.000Z</time>
      </trkpt>
      <trkpt lat="47.41079" lon="6.77918">
        <ele>347.4</ele>
        <time>2014-11-02T10:11:49.000Z</time>
      </trkpt>
      <trkpt lat="47.41078" lon="6.77911">
        <ele>347.6</ele>
        <time>2014-11-02T10:11:50.000Z</time>
      </trkpt>
      <trkpt lat="47.41076" lon="6.77905">
        <ele>347.5</ele>
        <time>2014-11-02T10:11:51.000Z</time>
      </trkpt>
      <trkpt lat="47.41075" lon="6.779">
        <ele>347.1</ele>
        <time>2014-11-02T10:11:52.000Z</time>
      </trkpt>
      <trkpt lat="47.41072" lon="6.77894">
        <ele>346.1</ele>
        <time>2014-11-02T10:11:53.000Z</time>
      </trkpt>
      <trkpt lat="47.41071" lon="6.77888">
        <ele>347.2</ele>
        <time>2014-11-02T10:11:54.000Z</time>
      </trkpt>
      <trkpt lat="47.41068" lon="6.77883">
        <ele>347.4</ele>
        <time>2014-11-02T10:11:55.000Z</time>
      </trkpt>
      <trkpt lat="47.41065" lon="6.77879">
        <ele>347.2</ele>
        <time>2014-11-02T10:11:56.000Z</time>
      </trkpt>
      <trkpt lat="47.41063" lon="6.77873">
        <ele>347.7</ele>
        <time>2014-11-02T10:11:57.000Z</time>
      </trkpt>
      <trkpt lat="47.41061" lon="6.77868">
        <ele>347.8</ele>
        <time>2014-11-02T10:11:58.000Z</time>
      </trkpt>
      <trkpt lat="47.4106" lon="6.77863">
        <ele>347.9</ele>
        <time>2014-11-02T10:11:59.000Z</time>
      </trkpt>
      <trkpt lat="47.41055" lon="6.77858">
        <ele>347.3</ele>
        <time>2014-11-02T10:12:00.000Z</time>
      </trkpt>
      <trkpt lat="47.41053" lon="6.77854">
        <ele>348.3</ele>
        <time>2014-11-02T10:12:01.000Z</time>
      </trkpt>
      <trkpt lat="47.4105" lon="6.77849">
        <ele>348.4</ele>
        <time>2014-11-02T10:12:02.000Z</time>
      </trkpt>
      <trkpt lat="47.41043" lon="6.77836">
        <ele>347.2</ele>
        <time>2014-11-02T10:12:05.000Z</time>
      </trkpt>
      <trkpt lat="47.41039" lon="6.77833">
        <ele>347.9</ele>
        <time>2014-11-02T10:12:06.000Z</time>
      </trkpt>
      <trkpt lat="47.41037" lon="6.77829">
        <ele>348.5</ele>
        <time>2014-11-02T10:12:07.000Z</time>
      </trkpt>
      <trkpt lat="47.41034" lon="6.77824">
        <ele>348.4</ele>
        <time>2014-11-02T10:12:08.000Z</time>
      </trkpt>
      <trkpt lat="47.41031" lon="6.7782">
        <ele>349.1</ele>
        <time>2014-11-02T10:12:09.000Z</time>
      </trkpt>
      <trkpt lat="47.41027" lon="6.77815">
        <ele>349</ele>
        <time>2014-11-02T10:12:10.000Z</time>
      </trkpt>
      <trkpt lat="47.41024" lon="6.77811">
        <ele>349.1</ele>
        <time>2014-11-02T10:12:11.000Z</time>
      </trkpt>
      <trkpt lat="47.41021" lon="6.77806">
        <ele>348.7</ele>
        <time>2014-11-02T10:12:12.000Z</time>
      </trkpt>
      <trkpt lat="47.41017" lon="6.77802">
        <ele>348.2</ele>
        <time>2014-11-02T10:12:13.000Z</time>
      </trkpt>
      <trkpt lat="47.41014" lon="6.77798">
        <ele>347.5</ele>
        <time>2014-11-02T10:12:14.000Z</time>
      </trkpt>
      <trkpt lat="47.41011" lon="6.77793">
        <ele>347.3</ele>
        <time>2014-11-02T10:12:15.000Z</time>
      </trkpt>
      <trkpt lat="47.41008" lon="6.77788">
        <ele>346.2</ele>
        <time>2014-11-02T10:12:16.000Z</time>
      </trkpt>
      <trkpt lat="47.41006" lon="6.77782">
        <ele>345.6</ele>
        <time>2014-11-02T10:12:17.000Z</time>
      </trkpt>
      <trkpt lat="47.41004" lon="6.77776">
        <ele>346.1</ele>
        <time>2014-11-02T10:12:18.000Z</time>
      </trkpt>
      <trkpt lat="47.41003" lon="6.7777">
        <ele>346</ele>
        <time>2014-11-02T10:12:19.000Z</time>
      </trkpt>
      <trkpt lat="47.41004" lon="6.77764">
        <ele>346.2</ele>
        <time>2014-11-02T10:12:20.000Z</time>
      </trkpt>
      <trkpt lat="47.41006" lon="6.77759">
        <ele>345.5</ele>
        <time>2014-11-02T10:12:21.000Z</time>
      </trkpt>
      <trkpt lat="47.41009" lon="6.77754">
        <ele>345.5</ele>
        <time>2014-11-02T10:12:22.000Z</time>
      </trkpt>
      <trkpt lat="47.41017" lon="6.77749">
        <ele>345.6</ele>
        <time>2014-11-02T10:12:23.000Z</time>
      </trkpt>
      <trkpt lat="47.4102" lon="6.77744">
        <ele>345.8</ele>
        <time>2014-11-02T10:12:24.000Z</time>
      </trkpt>
      <trkpt lat="47.41023" lon="6.77739">
        <ele>345.6</ele>
        <time>2014-11-02T10:12:25.000Z</time>
      </trkpt>
      <trkpt lat="47.41026" lon="6.77734">
        <ele>345.8</ele>
        <time>2014-11-02T10:12:26.000Z</time>
      </trkpt>
      <trkpt lat="47.4103" lon="6.77729">
        <ele>346.3</ele>
        <time>2014-11-02T10:12:27.000Z</time>
      </trkpt>
      <trkpt lat="47.41033" lon="6.77724">
        <ele>346.1</ele>
        <time>2014-11-02T10:12:28.000Z</time>
      </trkpt>
      <trkpt lat="47.41037" lon="6.77719">
        <ele>345.8</ele>
        <time>2014-11-02T10:12:29.000Z</time>
      </trkpt>
      <trkpt lat="47.41041" lon="6.77714">
        <ele>345.7</ele>
        <time>2014-11-02T10:12:30.000Z</time>
      </trkpt>
      <trkpt lat="47.41045" lon="6.77708">
        <ele>345.6</ele>
        <time>2014-11-02T10:12:31.000Z</time>
      </trkpt>
      <trkpt lat="47.41048" lon="6.77705">
        <ele>346.1</ele>
        <time>2014-11-02T10:12:32.000Z</time>
      </trkpt>
      <trkpt lat="47.41052" lon="6.777">
        <ele>346.2</ele>
        <time>2014-11-02T10:12:33.000Z</time>
      </trkpt>
      <trkpt lat="47.41056" lon="6.77695">
        <ele>346.3</ele>
        <time>2014-11-02T10:12:34.000Z</time>
      </trkpt>
      <trkpt lat="47.4106" lon="6.77691">
        <ele>346.5</ele>
        <time>2014-11-02T10:12:35.000Z</time>
      </trkpt>
      <trkpt lat="47.41064" lon="6.77686">
        <ele>344.8</ele>
        <time>2014-11-02T10:12:36.000Z</time>
      </trkpt>
      <trkpt lat="47.41067" lon="6.77681">
        <ele>344.7</ele>
        <time>2014-11-02T10:12:37.000Z</time>
      </trkpt>
      <trkpt lat="47.41071" lon="6.77676">
        <ele>344.4</ele>
        <time>2014-11-02T10:12:38.000Z</time>
      </trkpt>
      <trkpt lat="47.41074" lon="6.77674">
        <ele>345.8</ele>
        <time>2014-11-02T10:12:39.000Z</time>
      </trkpt>
      <trkpt lat="47.41078" lon="6.77671">
        <ele>345.9</ele>
        <time>2014-11-02T10:12:40.000Z</time>
      </trkpt>
      <trkpt lat="47.41081" lon="6.77666">
        <ele>346.4</ele>
        <time>2014-11-02T10:12:41.000Z</time>
      </trkpt>
      <trkpt lat="47.41085" lon="6.77662">
        <ele>346.7</ele>
        <time>2014-11-02T10:12:42.000Z</time>
      </trkpt>
      <trkpt lat="47.41088" lon="6.77658">
        <ele>345.3</ele>
        <time>2014-11-02T10:12:43.000Z</time>
      </trkpt>
      <trkpt lat="47.41091" lon="6.77654">
        <ele>345.4</ele>
        <time>2014-11-02T10:12:44.000Z</time>
      </trkpt>
      <trkpt lat="47.41095" lon="6.77649">
        <ele>345.6</ele>
        <time>2014-11-02T10:12:45.000Z</time>
      </trkpt>
      <trkpt lat="47.41097" lon="6.77644">
        <ele>346.1</ele>
        <time>2014-11-02T10:12:46.000Z</time>
      </trkpt>
      <trkpt lat="47.41101" lon="6.77639">
        <ele>346.1</ele>
        <time>2014-11-02T10:12:47.000Z</time>
      </trkpt>
      <trkpt lat="47.41104" lon="6.77635">
        <ele>346.2</ele>
        <time>2014-11-02T10:12:48.000Z</time>
      </trkpt>
      <trkpt lat="47.41108" lon="6.77631">
        <ele>348.6</ele>
        <time>2014-11-02T10:12:49.000Z</time>
      </trkpt>
      <trkpt lat="47.41112" lon="6.77624">
        <ele>349.9</ele>
        <time>2014-11-02T10:12:50.000Z</time>
      </trkpt>
      <trkpt lat="47.41115" lon="6.7762">
        <ele>349.2</ele>
        <time>2014-11-02T10:12:51.000Z</time>
      </trkpt>
      <trkpt lat="47.41118" lon="6.77617">
        <ele>349.5</ele>
        <time>2014-11-02T10:12:52.000Z</time>
      </trkpt>
      <trkpt lat="47.41121" lon="6.77612">
        <ele>349.5</ele>
        <time>2014-11-02T10:12:53.000Z</time>
      </trkpt>
      <trkpt lat="47.41123" lon="6.77607">
        <ele>349.6</ele>
        <time>2014-11-02T10:12:54.000Z</time>
      </trkpt>
      <trkpt lat="47.41126" lon="6.77604">
        <ele>349.9</ele>
        <time>2014-11-02T10:12:55.000Z</time>
      </trkpt>
      <trkpt lat="47.41129" lon="6.776">
        <ele>350.5</ele>
        <time>2014-11-02T10:12:56.000Z</time>
      </trkpt>
      <trkpt lat="47.41131" lon="6.77598">
        <ele>350.8</ele>
        <time>2014-11-02T10:12:57.000Z</time>
      </trkpt>
      <trkpt lat="47.41134" lon="6.77594">
        <ele>351.4</ele>
        <time>2014-11-02T10:12:58.000Z</time>
      </trkpt>
      <trkpt lat="47.41136" lon="6.77592">
        <ele>351.5</ele>
        <time>2014-11-02T10:12:59.000Z</time>
      </trkpt>
      <trkpt lat="47.41139" lon="6.7759">
        <ele>351</ele>
        <time>2014-11-02T10:13:00.000Z</time>
      </trkpt>
      <trkpt lat="47.41141" lon="6.77589">
        <ele>351.4</ele>
        <time>2014-11-02T10:13:01.000Z</time>
      </trkpt>
      <trkpt lat="47.41144" lon="6.7759">
        <ele>352.1</ele>
        <time>2014-11-02T10:13:02.000Z</time>
      </trkpt>
      <trkpt lat="47.41152" lon="6.77597">
        <ele>349.6</ele>
        <time>2014-11-02T10:13:05.000Z</time>
      </trkpt>
      <trkpt lat="47.41155" lon="6.77602">
        <ele>349.9</ele>
        <time>2014-11-02T10:13:06.000Z</time>
      </trkpt>
      <trkpt lat="47.41159" lon="6.77606">
        <ele>350.3</ele>
        <time>2014-11-02T10:13:07.000Z</time>
      </trkpt>
      <trkpt lat="47.41162" lon="6.7761">
        <ele>350.4</ele>
        <time>2014-11-02T10:13:08.000Z</time>
      </trkpt>
      <trkpt lat="47.41165" lon="6.77615">
        <ele>350.9</ele>
        <time>2014-11-02T10:13:09.000Z</time>
      </trkpt>
      <trkpt lat="47.41169" lon="6.77618">
        <ele>350.8</ele>
        <time>2014-11-02T10:13:10.000Z</time>
      </trkpt>
      <trkpt lat="47.41173" lon="6.77622">
        <ele>351.2</ele>
        <time>2014-11-02T10:13:11.000Z</time>
      </trkpt>
      <trkpt lat="47.41177" lon="6.77626">
        <ele>351</ele>
        <time>2014-11-02T10:13:12.000Z</time>
      </trkpt>
      <trkpt lat="47.4118" lon="6.7763">
        <ele>351.1</ele>
        <time>2014-11-02T10:13:13.000Z</time>
      </trkpt>
      <trkpt lat="47.41184" lon="6.77634">
        <ele>351</ele>
        <time>2014-11-02T10:13:14.000Z</time>
      </trkpt>
      <trkpt lat="47.41187" lon="6.77638">
        <ele>353.8</ele>
        <time>2014-11-02T10:13:15.000Z</time>
      </trkpt>
      <trkpt lat="47.4119" lon="6.77645">
        <ele>354.8</ele>
        <time>2014-11-02T10:13:16.000Z</time>
      </trkpt>
      <trkpt lat="47.41194" lon="6.77648">
        <ele>355</ele>
        <time>2014-11-02T10:13:17.000Z</time>
      </trkpt>
      <trkpt lat="47.41198" lon="6.77652">
        <ele>354.8</ele>
        <time>2014-11-02T10:13:18.000Z</time>
      </trkpt>
      <trkpt lat="47.41201" lon="6.77656">
        <ele>355</ele>
        <time>2014-11-02T10:13:19.000Z</time>
      </trkpt>
      <trkpt lat="47.41205" lon="6.7766">
        <ele>355.9</ele>
        <time>2014-11-02T10:13:20.000Z</time>
      </trkpt>
      <trkpt lat="47.41209" lon="6.77664">
        <ele>356.7</ele>
        <time>2014-11-02T10:13:21.000Z</time>
      </trkpt>
      <trkpt lat="47.41212" lon="6.77669">
        <ele>356</ele>
        <time>2014-11-02T10:13:22.000Z</time>
      </trkpt>
      <trkpt lat="47.41216" lon="6.77673">
        <ele>355.4</ele>
        <time>2014-11-02T10:13:23.000Z</time>
      </trkpt>
      <trkpt lat="47.4122" lon="6.77677">
        <ele>355.1</ele>
        <time>2014-11-02T10:13:24.000Z</time>
      </trkpt>
      <trkpt lat="47.41223" lon="6.77682">
        <ele>354</ele>
        <time>2014-11-02T10:13:25.000Z</time>
      </trkpt>
      <trkpt lat="47.41226" lon="6.77687">
        <ele>353.6</ele>
        <time>2014-11-02T10:13:26.000Z</time>
      </trkpt>
      <trkpt lat="47.41228" lon="6.77692">
        <ele>353.5</ele>
        <time>2014-11-02T10:13:27.000Z</time>
      </trkpt>
      <trkpt lat="47.41231" lon="6.77696">
        <ele>353.7</ele>
        <time>2014-11-02T10:13:28.000Z</time>
      </trkpt>
      <trkpt lat="47.41234" lon="6.77701">
        <ele>352.2</ele>
        <time>2014-11-02T10:13:29.000Z</time>
      </trkpt>
      <trkpt lat="47.41238" lon="6.77706">
        <ele>352.4</ele>
        <time>2014-11-02T10:13:30.000Z</time>
      </trkpt>
      <trkpt lat="47.41242" lon="6.7771">
        <ele>352.9</ele>
        <time>2014-11-02T10:13:31.000Z</time>
      </trkpt>
      <trkpt lat="47.41246" lon="6.77714">
        <ele>352.8</ele>
        <time>2014-11-02T10:13:32.000Z</time>
      </trkpt>
      <trkpt lat="47.41249" lon="6.77719">
        <ele>352.6</ele>
        <time>2014-11-02T10:13:33.000Z</time>
      </trkpt>
      <trkpt lat="47.41253" lon="6.77724">
        <ele>352.4</ele>
        <time>2014-11-02T10:13:34.000Z</time>
      </trkpt>
      <trkpt lat="47.41256" lon="6.77728">
        <ele>352.7</ele>
        <time>2014-11-02T10:13:35.000Z</time>
      </trkpt>
      <trkpt lat="47.4126" lon="6.77733">
        <ele>352.3</ele>
        <time>2014-11-02T10:13:36.000Z</time>
      </trkpt>
      <trkpt lat="47.41263" lon="6.77739">
        <ele>351</ele>
        <time>2014-11-02T10:13:37.000Z</time>
      </trkpt>
      <trkpt lat="47.41267" lon="6.77743">
        <ele>351.6</ele>
        <time>2014-11-02T10:13:38.000Z</time>
      </trkpt>
      <trkpt lat="47.4127" lon="6.77749">
        <ele>351.2</ele>
        <time>2014-11-02T10:13:39.000Z</time>
      </trkpt>
      <trkpt lat="47.41274" lon="6.77754">
        <ele>350.8</ele>
        <time>2014-11-02T10:13:40.000Z</time>
      </trkpt>
      <trkpt lat="47.41278" lon="6.77758">
        <ele>351.1</ele>
        <time>2014-11-02T10:13:41.000Z</time>
      </trkpt>
      <trkpt lat="47.41282" lon="6.77764">
        <ele>350</ele>
        <time>2014-11-02T10:13:42.000Z</time>
      </trkpt>
      <trkpt lat="47.41285" lon="6.77769">
        <ele>350.2</ele>
        <time>2014-11-02T10:13:43.000Z</time>
      </trkpt>
      <trkpt lat="47.41289" lon="6.77774">
        <ele>349.9</ele>
        <time>2014-11-02T10:13:44.000Z</time>
      </trkpt>
      <trkpt lat="47.41292" lon="6.77778">
        <ele>349.9</ele>
        <time>2014-11-02T10:13:45.000Z</time>
      </trkpt>
      <trkpt lat="47.41294" lon="6.77784">
        <ele>349.6</ele>
        <time>2014-11-02T10:13:46.000Z</time>
      </trkpt>
      <trkpt lat="47.41297" lon="6.7779">
        <ele>349.8</ele>
        <time>2014-11-02T10:13:47.000Z</time>
      </trkpt>
      <trkpt lat="47.41301" lon="6.77796">
        <ele>350.8</ele>
        <time>2014-11-02T10:13:48.000Z</time>
      </trkpt>
      <trkpt lat="47.41304" lon="6.77802">
        <ele>351.3</ele>
        <time>2014-11-02T10:13:49.000Z</time>
      </trkpt>
      <trkpt lat="47.41306" lon="6.77809">
        <ele>350.4</ele>
        <time>2014-11-02T10:13:50.000Z</time>
      </trkpt>
      <trkpt lat="47.41309" lon="6.77817">
        <ele>350.1</ele>
        <time>2014-11-02T10:13:51.000Z</time>
      </trkpt>
      <trkpt lat="47.41311" lon="6.77823">
        <ele>350.4</ele>
        <time>2014-11-02T10:13:52.000Z</time>
      </trkpt>
      <trkpt lat="47.41314" lon="6.77828">
        <ele>350.4</ele>
        <time>2014-11-02T10:13:53.000Z</time>
      </trkpt>
      <trkpt lat="47.41316" lon="6.77835">
        <ele>350.5</ele>
        <time>2014-11-02T10:13:54.000Z</time>
      </trkpt>
      <trkpt lat="47.41318" lon="6.77842">
        <ele>349.2</ele>
        <time>2014-11-02T10:13:55.000Z</time>
      </trkpt>
      <trkpt lat="47.4132" lon="6.77847">
        <ele>349.2</ele>
        <time>2014-11-02T10:13:56.000Z</time>
      </trkpt>
      <trkpt lat="47.41322" lon="6.77853">
        <ele>349.2</ele>
        <time>2014-11-02T10:13:57.000Z</time>
      </trkpt>
      <trkpt lat="47.41324" lon="6.7786">
        <ele>348.8</ele>
        <time>2014-11-02T10:13:58.000Z</time>
      </trkpt>
      <trkpt lat="47.41327" lon="6.77866">
        <ele>348.8</ele>
        <time>2014-11-02T10:13:59.000Z</time>
      </trkpt>
      <trkpt lat="47.41329" lon="6.77871">
        <ele>347.7</ele>
        <time>2014-11-02T10:14:00.000Z</time>
      </trkpt>
      <trkpt lat="47.41332" lon="6.77878">
        <ele>349</ele>
        <time>2014-11-02T10:14:01.000Z</time>
      </trkpt>
      <trkpt lat="47.41334" lon="6.77884">
        <ele>348.7</ele>
        <time>2014-11-02T10:14:02.000Z</time>
      </trkpt>
      <trkpt lat="47.4134" lon="6.77899">
        <ele>344.2</ele>
        <time>2014-11-02T10:14:05.000Z</time>
      </trkpt>
      <trkpt lat="47.41343" lon="6.77904">
        <ele>344.4</ele>
        <time>2014-11-02T10:14:06.000Z</time>
      </trkpt>
      <trkpt lat="47.41345" lon="6.77909">
        <ele>344.8</ele>
        <time>2014-11-02T10:14:07.000Z</time>
      </trkpt>
      <trkpt lat="47.41347" lon="6.77913">
        <ele>344.8</ele>
        <time>2014-11-02T10:14:08.000Z</time>
      </trkpt>
      <trkpt lat="47.41349" lon="6.77915">
        <ele>344.7</ele>
        <time>2014-11-02T10:14:09.000Z</time>
      </trkpt>
      <trkpt lat="47.41352" lon="6.77916">
        <ele>344.7</ele>
        <time>2014-11-02T10:14:10.000Z</time>
      </trkpt>
      <trkpt lat="47.41357" lon="6.77914">
        <ele>343.7</ele>
        <time>2014-11-02T10:14:11.000Z</time>
      </trkpt>
      <trkpt lat="47.4136" lon="6.77912">
        <ele>343</ele>
        <time>2014-11-02T10:14:12.000Z</time>
      </trkpt>
      <trkpt lat="47.41362" lon="6.77909">
        <ele>342.2</ele>
        <time>2014-11-02T10:14:13.000Z</time>
      </trkpt>
      <trkpt lat="47.41365" lon="6.77906">
        <ele>342.3</ele>
        <time>2014-11-02T10:14:14.000Z</time>
      </trkpt>
      <trkpt lat="47.41367" lon="6.77902">
        <ele>342.3</ele>
        <time>2014-11-02T10:14:15.000Z</time>
      </trkpt>
      <trkpt lat="47.4137" lon="6.77898">
        <ele>342.4</ele>
        <time>2014-11-02T10:14:16.000Z</time>
      </trkpt>
      <trkpt lat="47.41372" lon="6.77893">
        <ele>341.9</ele>
        <time>2014-11-02T10:14:17.000Z</time>
      </trkpt>
      <trkpt lat="47.41374" lon="6.77888">
        <ele>343.6</ele>
        <time>2014-11-02T10:14:18.000Z</time>
      </trkpt>
      <trkpt lat="47.41376" lon="6.77882">
        <ele>344.2</ele>
        <time>2014-11-02T10:14:19.000Z</time>
      </trkpt>
      <trkpt lat="47.41379" lon="6.77875">
        <ele>344.6</ele>
        <time>2014-11-02T10:14:20.000Z</time>
      </trkpt>
      <trkpt lat="47.41382" lon="6.77869">
        <ele>344.3</ele>
        <time>2014-11-02T10:14:21.000Z</time>
      </trkpt>
      <trkpt lat="47.41384" lon="6.77864">
        <ele>343.9</ele>
        <time>2014-11-02T10:14:22.000Z</time>
      </trkpt>
      <trkpt lat="47.41386" lon="6.77858">
        <ele>344</ele>
        <time>2014-11-02T10:14:23.000Z</time>
      </trkpt>
      <trkpt lat="47.41388" lon="6.77854">
        <ele>345.1</ele>
        <time>2014-11-02T10:14:24.000Z</time>
      </trkpt>
      <trkpt lat="47.4139" lon="6.77848">
        <ele>344.8</ele>
        <time>2014-11-02T10:14:25.000Z</time>
      </trkpt>
      <trkpt lat="47.41393" lon="6.77842">
        <ele>344.4</ele>
        <time>2014-11-02T10:14:26.000Z</time>
      </trkpt>
      <trkpt lat="47.41395" lon="6.77837">
        <ele>344.2</ele>
        <time>2014-11-02T10:14:27.000Z</time>
      </trkpt>
      <trkpt lat="47.41397" lon="6.77831">
        <ele>345</ele>
        <time>2014-11-02T10:14:28.000Z</time>
      </trkpt>
      <trkpt lat="47.414" lon="6.77826">
        <ele>345.6</ele>
        <time>2014-11-02T10:14:29.000Z</time>
      </trkpt>
      <trkpt lat="47.41402" lon="6.77821">
        <ele>345.6</ele>
        <time>2014-11-02T10:14:30.000Z</time>
      </trkpt>
      <trkpt lat="47.41405" lon="6.77815">
        <ele>345.7</ele>
        <time>2014-11-02T10:14:31.000Z</time>
      </trkpt>
      <trkpt lat="47.41407" lon="6.7781">
        <ele>346.7</ele>
        <time>2014-11-02T10:14:32.000Z</time>
      </trkpt>
      <trkpt lat="47.41409" lon="6.77805">
        <ele>346.6</ele>
        <time>2014-11-02T10:14:33.000Z</time>
      </trkpt>
      <trkpt lat="47.41411" lon="6.77799">
        <ele>346.3</ele>
        <time>2014-11-02T10:14:34.000Z</time>
      </trkpt>
      <trkpt lat="47.41413" lon="6.77794">
        <ele>345.9</ele>
        <time>2014-11-02T10:14:35.000Z</time>
      </trkpt>
      <trkpt lat="47.41415" lon="6.77789">
        <ele>345.4</ele>
        <time>2014-11-02T10:14:36.000Z</time>
      </trkpt>
      <trkpt lat="47.41418" lon="6.77784">
        <ele>345.5</ele>
        <time>2014-11-02T10:14:37.000Z</time>
      </trkpt>
      <trkpt lat="47.4142" lon="6.77778">
        <ele>344.9</ele>
        <time>2014-11-02T10:14:38.000Z</time>
      </trkpt>
      <trkpt lat="47.41422" lon="6.77773">
        <ele>344.5</ele>
        <time>2014-11-02T10:14:39.000Z</time>
      </trkpt>
      <trkpt lat="47.41424" lon="6.77767">
        <ele>344.5</ele>
        <time>2014-11-02T10:14:40.000Z</time>
      </trkpt>
      <trkpt lat="47.41427" lon="6.77761">
        <ele>345.2</ele>
        <time>2014-11-02T10:14:41.000Z</time>
      </trkpt>
      <trkpt lat="47.41429" lon="6.77755">
        <ele>345.5</ele>
        <time>2014-11-02T10:14:42.000Z</time>
      </trkpt>
      <trkpt lat="47.4143" lon="6.77749">
        <ele>345.6</ele>
        <time>2014-11-02T10:14:43.000Z</time>
      </trkpt>
      <trkpt lat="47.41433" lon="6.77743">
        <ele>345.5</ele>
        <time>2014-11-02T10:14:44.000Z</time>
      </trkpt>
      <trkpt lat="47.41434" lon="6.77738">
        <ele>345.6</ele>
        <time>2014-11-02T10:14:45.000Z</time>
      </trkpt>
      <trkpt lat="47.41435" lon="6.77733">
        <ele>345.5</ele>
        <time>2014-11-02T10:14:46.000Z</time>
      </trkpt>
      <trkpt lat="47.41437" lon="6.77727">
        <ele>345.2</ele>
        <time>2014-11-02T10:14:48.000Z</time>
      </trkpt>
      <trkpt lat="47.41437" lon="6.77726">
        <ele>345.1</ele>
        <time>2014-11-02T10:14:49.000Z</time>
      </trkpt>
      <trkpt lat="47.41438" lon="6.7772">
        <ele>346.2</ele>
        <time>2014-11-02T10:14:58.000Z</time>
      </trkpt>
      <trkpt lat="47.41439" lon="6.77717">
        <ele>345.5</ele>
        <time>2014-11-02T10:14:59.000Z</time>
      </trkpt>
      <trkpt lat="47.41439" lon="6.77705">
        <ele>344.6</ele>
        <time>2014-11-02T10:15:00.000Z</time>
      </trkpt>
      <trkpt lat="47.4144" lon="6.77697">
        <ele>344</ele>
        <time>2014-11-02T10:15:01.000Z</time>
      </trkpt>
      <trkpt lat="47.41442" lon="6.77691">
        <ele>345.7</ele>
        <time>2014-11-02T10:15:02.000Z</time>
      </trkpt>
      <trkpt lat="47.41448" lon="6.77672">
        <ele>343.5</ele>
        <time>2014-11-02T10:15:05.000Z</time>
      </trkpt>
      <trkpt lat="47.41451" lon="6.77666">
        <ele>343.6</ele>
        <time>2014-11-02T10:15:06.000Z</time>
      </trkpt>
      <trkpt lat="47.41453" lon="6.77662">
        <ele>344.2</ele>
        <time>2014-11-02T10:15:07.000Z</time>
      </trkpt>
      <trkpt lat="47.41453" lon="6.77656">
        <ele>345</ele>
        <time>2014-11-02T10:15:08.000Z</time>
      </trkpt>
      <trkpt lat="47.41455" lon="6.7765">
        <ele>345.1</ele>
        <time>2014-11-02T10:15:09.000Z</time>
      </trkpt>
      <trkpt lat="47.41457" lon="6.77646">
        <ele>346.8</ele>
        <time>2014-11-02T10:15:10.000Z</time>
      </trkpt>
      <trkpt lat="47.41457" lon="6.77642">
        <ele>346.4</ele>
        <time>2014-11-02T10:15:11.000Z</time>
      </trkpt>
      <trkpt lat="47.41459" lon="6.77638">
        <ele>345.4</ele>
        <time>2014-11-02T10:15:12.000Z</time>
      </trkpt>
      <trkpt lat="47.41461" lon="6.77634">
        <ele>345.4</ele>
        <time>2014-11-02T10:15:13.000Z</time>
      </trkpt>
      <trkpt lat="47.41463" lon="6.7763">
        <ele>345.9</ele>
        <time>2014-11-02T10:15:14.000Z</time>
      </trkpt>
      <trkpt lat="47.41464" lon="6.77626">
        <ele>346.4</ele>
        <time>2014-11-02T10:15:15.000Z</time>
      </trkpt>
      <trkpt lat="47.41467" lon="6.77622">
        <ele>346.3</ele>
        <time>2014-11-02T10:15:16.000Z</time>
      </trkpt>
      <trkpt lat="47.41469" lon="6.77618">
        <ele>346.2</ele>
        <time>2014-11-02T10:15:17.000Z</time>
      </trkpt>
      <trkpt lat="47.41471" lon="6.77615">
        <ele>346.2</ele>
        <time>2014-11-02T10:15:18.000Z</time>
      </trkpt>
      <trkpt lat="47.41473" lon="6.77611">
        <ele>346.5</ele>
        <time>2014-11-02T10:15:19.000Z</time>
      </trkpt>
      <trkpt lat="47.41476" lon="6.77609">
        <ele>345.7</ele>
        <time>2014-11-02T10:15:20.000Z</time>
      </trkpt>
      <trkpt lat="47.41483" lon="6.77608">
        <ele>343.7</ele>
        <time>2014-11-02T10:15:21.000Z</time>
      </trkpt>
      <trkpt lat="47.41488" lon="6.77607">
        <ele>342.2</ele>
        <time>2014-11-02T10:15:22.000Z</time>
      </trkpt>
      <trkpt lat="47.41492" lon="6.77606">
        <ele>342.5</ele>
        <time>2014-11-02T10:15:23.000Z</time>
      </trkpt>
      <trkpt lat="47.41497" lon="6.77605">
        <ele>342.3</ele>
        <time>2014-11-02T10:15:24.000Z</time>
      </trkpt>
      <trkpt lat="47.41502" lon="6.77604">
        <ele>342.8</ele>
        <time>2014-11-02T10:15:25.000Z</time>
      </trkpt>
      <trkpt lat="47.41507" lon="6.77604">
        <ele>342.7</ele>
        <time>2014-11-02T10:15:26.000Z</time>
      </trkpt>
      <trkpt lat="47.41512" lon="6.77603">
        <ele>342.3</ele>
        <time>2014-11-02T10:15:27.000Z</time>
      </trkpt>
      <trkpt lat="47.41516" lon="6.77603">
        <ele>342.1</ele>
        <time>2014-11-02T10:15:28.000Z</time>
      </trkpt>
      <trkpt lat="47.4152" lon="6.77603">
        <ele>341.9</ele>
        <time>2014-11-02T10:15:29.000Z</time>
      </trkpt>
      <trkpt lat="47.41524" lon="6.77604">
        <ele>342.7</ele>
        <time>2014-11-02T10:15:30.000Z</time>
      </trkpt>
      <trkpt lat="47.41529" lon="6.77604">
        <ele>343.2</ele>
        <time>2014-11-02T10:15:31.000Z</time>
      </trkpt>
      <trkpt lat="47.41533" lon="6.77603">
        <ele>343.5</ele>
        <time>2014-11-02T10:15:32.000Z</time>
      </trkpt>
      <trkpt lat="47.41538" lon="6.77602">
        <ele>344.2</ele>
        <time>2014-11-02T10:15:33.000Z</time>
      </trkpt>
      <trkpt lat="47.41543" lon="6.77602">
        <ele>344.6</ele>
        <time>2014-11-02T10:15:34.000Z</time>
      </trkpt>
      <trkpt lat="47.41547" lon="6.77602">
        <ele>345.4</ele>
        <time>2014-11-02T10:15:35.000Z</time>
      </trkpt>
      <trkpt lat="47.41552" lon="6.77602">
        <ele>346.2</ele>
        <time>2014-11-02T10:15:36.000Z</time>
      </trkpt>
      <trkpt lat="47.41556" lon="6.77603">
        <ele>346.3</ele>
        <time>2014-11-02T10:15:37.000Z</time>
      </trkpt>
      <trkpt lat="47.4156" lon="6.77604">
        <ele>345.7</ele>
        <time>2014-11-02T10:15:38.000Z</time>
      </trkpt>
      <trkpt lat="47.41564" lon="6.77605">
        <ele>346.1</ele>
        <time>2014-11-02T10:15:39.000Z</time>
      </trkpt>
      <trkpt lat="47.41569" lon="6.77606">
        <ele>347</ele>
        <time>2014-11-02T10:15:40.000Z</time>
      </trkpt>
      <trkpt lat="47.41573" lon="6.77605">
        <ele>346.7</ele>
        <time>2014-11-02T10:15:41.000Z</time>
      </trkpt>
      <trkpt lat="47.41578" lon="6.77605">
        <ele>346.7</ele>
        <time>2014-11-02T10:15:42.000Z</time>
      </trkpt>
      <trkpt lat="47.41582" lon="6.77606">
        <ele>346.5</ele>
        <time>2014-11-02T10:15:43.000Z</time>
      </trkpt>
      <trkpt lat="47.41586" lon="6.77608">
        <ele>346.6</ele>
        <time>2014-11-02T10:15:44.000Z</time>
      </trkpt>
      <trkpt lat="47.41591" lon="6.7761">
        <ele>346.8</ele>
        <time>2014-11-02T10:15:45.000Z</time>
      </trkpt>
      <trkpt lat="47.41595" lon="6.77612">
        <ele>346.7</ele>
        <time>2014-11-02T10:15:46.000Z</time>
      </trkpt>
      <trkpt lat="47.416" lon="6.77613">
        <ele>346.8</ele>
        <time>2014-11-02T10:15:47.000Z</time>
      </trkpt>
      <trkpt lat="47.41604" lon="6.77615">
        <ele>346.9</ele>
        <time>2014-11-02T10:15:48.000Z</time>
      </trkpt>
      <trkpt lat="47.41609" lon="6.77617">
        <ele>347.4</ele>
        <time>2014-11-02T10:15:49.000Z</time>
      </trkpt>
      <trkpt lat="47.41613" lon="6.7762">
        <ele>348.6</ele>
        <time>2014-11-02T10:15:50.000Z</time>
      </trkpt>
      <trkpt lat="47.41617" lon="6.77622">
        <ele>348.4</ele>
        <time>2014-11-02T10:15:51.000Z</time>
      </trkpt>
      <trkpt lat="47.4162" lon="6.77625">
        <ele>349</ele>
        <time>2014-11-02T10:15:52.000Z</time>
      </trkpt>
      <trkpt lat="47.41623" lon="6.77627">
        <ele>348.9</ele>
        <time>2014-11-02T10:15:53.000Z</time>
      </trkpt>
      <trkpt lat="47.41627" lon="6.7763">
        <ele>349</ele>
        <time>2014-11-02T10:15:54.000Z</time>
      </trkpt>
      <trkpt lat="47.41631" lon="6.77633">
        <ele>349.2</ele>
        <time>2014-11-02T10:15:55.000Z</time>
      </trkpt>
      <trkpt lat="47.41634" lon="6.77636">
        <ele>349.4</ele>
        <time>2014-11-02T10:15:56.000Z</time>
      </trkpt>
      <trkpt lat="47.41638" lon="6.77639">
        <ele>350.2</ele>
        <time>2014-11-02T10:15:57.000Z</time>
      </trkpt>
      <trkpt lat="47.41643" lon="6.77642">
        <ele>350.4</ele>
        <time>2014-11-02T10:15:58.000Z</time>
      </trkpt>
      <trkpt lat="47.41646" lon="6.77647">
        <ele>350.8</ele>
        <time>2014-11-02T10:15:59.000Z</time>
      </trkpt>
      <trkpt lat="47.4165" lon="6.7765">
        <ele>350.7</ele>
        <time>2014-11-02T10:16:00.000Z</time>
      </trkpt>
      <trkpt lat="47.41653" lon="6.77653">
        <ele>350.8</ele>
        <time>2014-11-02T10:16:01.000Z</time>
      </trkpt>
      <trkpt lat="47.41657" lon="6.77657">
        <ele>351.7</ele>
        <time>2014-11-02T10:16:02.000Z</time>
      </trkpt>
      <trkpt lat="47.41667" lon="6.77668">
        <ele>351.3</ele>
        <time>2014-11-02T10:16:05.000Z</time>
      </trkpt>
      <trkpt lat="47.4167" lon="6.77671">
        <ele>351.1</ele>
        <time>2014-11-02T10:16:06.000Z</time>
      </trkpt>
      <trkpt lat="47.41673" lon="6.77674">
        <ele>350.9</ele>
        <time>2014-11-02T10:16:07.000Z</time>
      </trkpt>
      <trkpt lat="47.41677" lon="6.77675">
        <ele>351</ele>
        <time>2014-11-02T10:16:08.000Z</time>
      </trkpt>
      <trkpt lat="47.41681" lon="6.77676">
        <ele>350.8</ele>
        <time>2014-11-02T10:16:09.000Z</time>
      </trkpt>
      <trkpt lat="47.41684" lon="6.77678">
        <ele>350.5</ele>
        <time>2014-11-02T10:16:10.000Z</time>
      </trkpt>
      <trkpt lat="47.41687" lon="6.77679">
        <ele>350.5</ele>
        <time>2014-11-02T10:16:11.000Z</time>
      </trkpt>
      <trkpt lat="47.41692" lon="6.77679">
        <ele>351.9</ele>
        <time>2014-11-02T10:16:12.000Z</time>
      </trkpt>
      <trkpt lat="47.41695" lon="6.77679">
        <ele>351.6</ele>
        <time>2014-11-02T10:16:13.000Z</time>
      </trkpt>
      <trkpt lat="47.41699" lon="6.77679">
        <ele>351.9</ele>
        <time>2014-11-02T10:16:14.000Z</time>
      </trkpt>
      <trkpt lat="47.41702" lon="6.77679">
        <ele>352.1</ele>
        <time>2014-11-02T10:16:15.000Z</time>
      </trkpt>
      <trkpt lat="47.41706" lon="6.77679">
        <ele>352.3</ele>
        <time>2014-11-02T10:16:16.000Z</time>
      </trkpt>
      <trkpt lat="47.41709" lon="6.77678">
        <ele>353.3</ele>
        <time>2014-11-02T10:16:17.000Z</time>
      </trkpt>
      <trkpt lat="47.41714" lon="6.77674">
        <ele>354.6</ele>
        <time>2014-11-02T10:16:18.000Z</time>
      </trkpt>
      <trkpt lat="47.41718" lon="6.77673">
        <ele>355.3</ele>
        <time>2014-11-02T10:16:19.000Z</time>
      </trkpt>
      <trkpt lat="47.41719" lon="6.77672">
        <ele>355.8</ele>
        <time>2014-11-02T10:16:20.000Z</time>
      </trkpt>
      <trkpt lat="47.41722" lon="6.77671">
        <ele>356.1</ele>
        <time>2014-11-02T10:16:21.000Z</time>
      </trkpt>
      <trkpt lat="47.41725" lon="6.77668">
        <ele>356.2</ele>
        <time>2014-11-02T10:16:22.000Z</time>
      </trkpt>
      <trkpt lat="47.41728" lon="6.77666">
        <ele>356.4</ele>
        <time>2014-11-02T10:16:23.000Z</time>
      </trkpt>
      <trkpt lat="47.41731" lon="6.77665">
        <ele>357.2</ele>
        <time>2014-11-02T10:16:24.000Z</time>
      </trkpt>
      <trkpt lat="47.41734" lon="6.77664">
        <ele>355.1</ele>
        <time>2014-11-02T10:16:25.000Z</time>
      </trkpt>
      <trkpt lat="47.41737" lon="6.77662">
        <ele>354.5</ele>
        <time>2014-11-02T10:16:26.000Z</time>
      </trkpt>
      <trkpt lat="47.4174" lon="6.7766">
        <ele>353.8</ele>
        <time>2014-11-02T10:16:27.000Z</time>
      </trkpt>
      <trkpt lat="47.41742" lon="6.77659">
        <ele>357.8</ele>
        <time>2014-11-02T10:16:28.000Z</time>
      </trkpt>
      <trkpt lat="47.41746" lon="6.77658">
        <ele>355.8</ele>
        <time>2014-11-02T10:16:30.000Z</time>
      </trkpt>
      <trkpt lat="47.41749" lon="6.77657">
        <ele>355.4</ele>
        <time>2014-11-02T10:16:31.000Z</time>
      </trkpt>
      <trkpt lat="47.41751" lon="6.77657">
        <ele>356</ele>
        <time>2014-11-02T10:16:32.000Z</time>
      </trkpt>
      <trkpt lat="47.41753" lon="6.77656">
        <ele>356.2</ele>
        <time>2014-11-02T10:16:33.000Z</time>
      </trkpt>
      <trkpt lat="47.41756" lon="6.77654">
        <ele>356.5</ele>
        <time>2014-11-02T10:16:34.000Z</time>
      </trkpt>
      <trkpt lat="47.41758" lon="6.77654">
        <ele>356.7</ele>
        <time>2014-11-02T10:16:35.000Z</time>
      </trkpt>
      <trkpt lat="47.41762" lon="6.77653">
        <ele>358.5</ele>
        <time>2014-11-02T10:16:37.000Z</time>
      </trkpt>
      <trkpt lat="47.41764" lon="6.77653">
        <ele>358.6</ele>
        <time>2014-11-02T10:16:38.000Z</time>
      </trkpt>
      <trkpt lat="47.41768" lon="6.77653">
        <ele>359.1</ele>
        <time>2014-11-02T10:16:40.000Z</time>
      </trkpt>
      <trkpt lat="47.4177" lon="6.77652">
        <ele>359.4</ele>
        <time>2014-11-02T10:16:41.000Z</time>
      </trkpt>
      <trkpt lat="47.41772" lon="6.77652">
        <ele>359.4</ele>
        <time>2014-11-02T10:16:42.000Z</time>
      </trkpt>
      <trkpt lat="47.41775" lon="6.77651">
        <ele>359.2</ele>
        <time>2014-11-02T10:16:43.000Z</time>
      </trkpt>
      <trkpt lat="47.41778" lon="6.77649">
        <ele>360.7</ele>
        <time>2014-11-02T10:16:44.000Z</time>
      </trkpt>
      <trkpt lat="47.41781" lon="6.77647">
        <ele>361.2</ele>
        <time>2014-11-02T10:16:45.000Z</time>
      </trkpt>
      <trkpt lat="47.41785" lon="6.77645">
        <ele>361.4</ele>
        <time>2014-11-02T10:16:46.000Z</time>
      </trkpt>
      <trkpt lat="47.41788" lon="6.77643">
        <ele>360.6</ele>
        <time>2014-11-02T10:16:47.000Z</time>
      </trkpt>
      <trkpt lat="47.41791" lon="6.77641">
        <ele>360.1</ele>
        <time>2014-11-02T10:16:48.000Z</time>
      </trkpt>
      <trkpt lat="47.41795" lon="6.77639">
        <ele>361.6</ele>
        <time>2014-11-02T10:16:49.000Z</time>
      </trkpt>
      <trkpt lat="47.41798" lon="6.77637">
        <ele>361.5</ele>
        <time>2014-11-02T10:16:50.000Z</time>
      </trkpt>
      <trkpt lat="47.41801" lon="6.77635">
        <ele>360.9</ele>
        <time>2014-11-02T10:16:51.000Z</time>
      </trkpt>
      <trkpt lat="47.41804" lon="6.77632">
        <ele>361.2</ele>
        <time>2014-11-02T10:16:52.000Z</time>
      </trkpt>
      <trkpt lat="47.41807" lon="6.77629">
        <ele>361</ele>
        <time>2014-11-02T10:16:53.000Z</time>
      </trkpt>
      <trkpt lat="47.41809" lon="6.77626">
        <ele>361</ele>
        <time>2014-11-02T10:16:54.000Z</time>
      </trkpt>
      <trkpt lat="47.41812" lon="6.77623">
        <ele>360.6</ele>
        <time>2014-11-02T10:16:55.000Z</time>
      </trkpt>
      <trkpt lat="47.41814" lon="6.7762">
        <ele>360.2</ele>
        <time>2014-11-02T10:16:56.000Z</time>
      </trkpt>
      <trkpt lat="47.41817" lon="6.77616">
        <ele>359.4</ele>
        <time>2014-11-02T10:16:57.000Z</time>
      </trkpt>
      <trkpt lat="47.41819" lon="6.77613">
        <ele>359.1</ele>
        <time>2014-11-02T10:16:58.000Z</time>
      </trkpt>
      <trkpt lat="47.41821" lon="6.7761">
        <ele>360.4</ele>
        <time>2014-11-02T10:16:59.000Z</time>
      </trkpt>
      <trkpt lat="47.41823" lon="6.77606">
        <ele>359.8</ele>
        <time>2014-11-02T10:17:00.000Z</time>
      </trkpt>
      <trkpt lat="47.41824" lon="6.77603">
        <ele>360.4</ele>
        <time>2014-11-02T10:17:01.000Z</time>
      </trkpt>
      <trkpt lat="47.41826" lon="6.77599">
        <ele>361.1</ele>
        <time>2014-11-02T10:17:02.000Z</time>
      </trkpt>
      <trkpt lat="47.41835" lon="6.77564">
        <ele>355.9</ele>
        <time>2014-11-02T10:17:11.000Z</time>
      </trkpt>
      <trkpt lat="47.41837" lon="6.7756">
        <ele>357.5</ele>
        <time>2014-11-02T10:17:12.000Z</time>
      </trkpt>
      <trkpt lat="47.41839" lon="6.77557">
        <ele>359.2</ele>
        <time>2014-11-02T10:17:13.000Z</time>
      </trkpt>
      <trkpt lat="47.4184" lon="6.77554">
        <ele>360.1</ele>
        <time>2014-11-02T10:17:14.000Z</time>
      </trkpt>
      <trkpt lat="47.41842" lon="6.77551">
        <ele>360.3</ele>
        <time>2014-11-02T10:17:15.000Z</time>
      </trkpt>
      <trkpt lat="47.41844" lon="6.77547">
        <ele>361.7</ele>
        <time>2014-11-02T10:17:16.000Z</time>
      </trkpt>
      <trkpt lat="47.41846" lon="6.77543">
        <ele>361.1</ele>
        <time>2014-11-02T10:17:17.000Z</time>
      </trkpt>
      <trkpt lat="47.41847" lon="6.77539">
        <ele>360.9</ele>
        <time>2014-11-02T10:17:18.000Z</time>
      </trkpt>
      <trkpt lat="47.41849" lon="6.77535">
        <ele>360.8</ele>
        <time>2014-11-02T10:17:19.000Z</time>
      </trkpt>
      <trkpt lat="47.4185" lon="6.77531">
        <ele>360.9</ele>
        <time>2014-11-02T10:17:20.000Z</time>
      </trkpt>
      <trkpt lat="47.41851" lon="6.77526">
        <ele>360.5</ele>
        <time>2014-11-02T10:17:21.000Z</time>
      </trkpt>
      <trkpt lat="47.41852" lon="6.77522">
        <ele>360.6</ele>
        <time>2014-11-02T10:17:22.000Z</time>
      </trkpt>
      <trkpt lat="47.41853" lon="6.77518">
        <ele>359.6</ele>
        <time>2014-11-02T10:17:23.000Z</time>
      </trkpt>
      <trkpt lat="47.41854" lon="6.77513">
        <ele>359.7</ele>
        <time>2014-11-02T10:17:24.000Z</time>
      </trkpt>
      <trkpt lat="47.41856" lon="6.77509">
        <ele>359.7</ele>
        <time>2014-11-02T10:17:25.000Z</time>
      </trkpt>
      <trkpt lat="47.41856" lon="6.77505">
        <ele>360</ele>
        <time>2014-11-02T10:17:26.000Z</time>
      </trkpt>
      <trkpt lat="47.41857" lon="6.775">
        <ele>360.2</ele>
        <time>2014-11-02T10:17:27.000Z</time>
      </trkpt>
      <trkpt lat="47.41858" lon="6.77496">
        <ele>360</ele>
        <time>2014-11-02T10:17:28.000Z</time>
      </trkpt>
      <trkpt lat="47.41859" lon="6.77492">
        <ele>359.9</ele>
        <time>2014-11-02T10:17:29.000Z</time>
      </trkpt>
      <trkpt lat="47.41861" lon="6.77488">
        <ele>360.6</ele>
        <time>2014-11-02T10:17:30.000Z</time>
      </trkpt>
      <trkpt lat="47.41863" lon="6.77483">
        <ele>361.5</ele>
        <time>2014-11-02T10:17:31.000Z</time>
      </trkpt>
      <trkpt lat="47.41864" lon="6.77478">
        <ele>362</ele>
        <time>2014-11-02T10:17:32.000Z</time>
      </trkpt>
      <trkpt lat="47.41865" lon="6.77473">
        <ele>362.5</ele>
        <time>2014-11-02T10:17:33.000Z</time>
      </trkpt>
      <trkpt lat="47.41865" lon="6.77468">
        <ele>361.5</ele>
        <time>2014-11-02T10:17:34.000Z</time>
      </trkpt>
      <trkpt lat="47.41866" lon="6.77462">
        <ele>361.7</ele>
        <time>2014-11-02T10:17:35.000Z</time>
      </trkpt>
      <trkpt lat="47.41867" lon="6.77455">
        <ele>361.6</ele>
        <time>2014-11-02T10:17:36.000Z</time>
      </trkpt>
      <trkpt lat="47.41867" lon="6.77448">
        <ele>361.4</ele>
        <time>2014-11-02T10:17:37.000Z</time>
      </trkpt>
      <trkpt lat="47.41868" lon="6.77442">
        <ele>363.5</ele>
        <time>2014-11-02T10:17:38.000Z</time>
      </trkpt>
      <trkpt lat="47.41868" lon="6.77435">
        <ele>363.9</ele>
        <time>2014-11-02T10:17:39.000Z</time>
      </trkpt>
      <trkpt lat="47.41866" lon="6.77425">
        <ele>362.5</ele>
        <time>2014-11-02T10:17:40.000Z</time>
      </trkpt>
      <trkpt lat="47.41865" lon="6.77418">
        <ele>362.4</ele>
        <time>2014-11-02T10:17:41.000Z</time>
      </trkpt>
      <trkpt lat="47.41864" lon="6.77411">
        <ele>362</ele>
        <time>2014-11-02T10:17:42.000Z</time>
      </trkpt>
      <trkpt lat="47.41863" lon="6.77405">
        <ele>362.6</ele>
        <time>2014-11-02T10:17:43.000Z</time>
      </trkpt>
      <trkpt lat="47.41862" lon="6.77399">
        <ele>362.1</ele>
        <time>2014-11-02T10:17:44.000Z</time>
      </trkpt>
      <trkpt lat="47.41862" lon="6.77392">
        <ele>362</ele>
        <time>2014-11-02T10:17:45.000Z</time>
      </trkpt>
      <trkpt lat="47.41862" lon="6.77387">
        <ele>363.1</ele>
        <time>2014-11-02T10:17:46.000Z</time>
      </trkpt>
      <trkpt lat="47.41862" lon="6.7738">
        <ele>363.6</ele>
        <time>2014-11-02T10:17:47.000Z</time>
      </trkpt>
      <trkpt lat="47.41863" lon="6.77375">
        <ele>363.5</ele>
        <time>2014-11-02T10:17:48.000Z</time>
      </trkpt>
      <trkpt lat="47.41863" lon="6.77369">
        <ele>363.3</ele>
        <time>2014-11-02T10:17:49.000Z</time>
      </trkpt>
      <trkpt lat="47.41862" lon="6.77364">
        <ele>363.1</ele>
        <time>2014-11-02T10:17:50.000Z</time>
      </trkpt>
      <trkpt lat="47.41865" lon="6.77358">
        <ele>363.4</ele>
        <time>2014-11-02T10:17:51.000Z</time>
      </trkpt>
      <trkpt lat="47.41864" lon="6.77353">
        <ele>363.3</ele>
        <time>2014-11-02T10:17:52.000Z</time>
      </trkpt>
      <trkpt lat="47.41864" lon="6.77348">
        <ele>363.3</ele>
        <time>2014-11-02T10:17:53.000Z</time>
      </trkpt>
      <trkpt lat="47.41865" lon="6.77343">
        <ele>363.3</ele>
        <time>2014-11-02T10:17:54.000Z</time>
      </trkpt>
      <trkpt lat="47.41864" lon="6.77337">
        <ele>363.6</ele>
        <time>2014-11-02T10:17:55.000Z</time>
      </trkpt>
      <trkpt lat="47.41865" lon="6.77333">
        <ele>366.2</ele>
        <time>2014-11-02T10:17:56.000Z</time>
      </trkpt>
      <trkpt lat="47.41866" lon="6.77327">
        <ele>364.1</ele>
        <time>2014-11-02T10:17:57.000Z</time>
      </trkpt>
      <trkpt lat="47.41867" lon="6.77322">
        <ele>365.6</ele>
        <time>2014-11-02T10:17:58.000Z</time>
      </trkpt>
      <trkpt lat="47.41868" lon="6.77318">
        <ele>366.8</ele>
        <time>2014-11-02T10:17:59.000Z</time>
      </trkpt>
      <trkpt lat="47.41869" lon="6.77313">
        <ele>368</ele>
        <time>2014-11-02T10:18:00.000Z</time>
      </trkpt>
      <trkpt lat="47.41869" lon="6.77308">
        <ele>368.6</ele>
        <time>2014-11-02T10:18:01.000Z</time>
      </trkpt>
      <trkpt lat="47.41869" lon="6.77303">
        <ele>368.3</ele>
        <time>2014-11-02T10:18:02.000Z</time>
      </trkpt>
      <trkpt lat="47.4187" lon="6.77298">
        <ele>367.8</ele>
        <time>2014-11-02T10:18:03.000Z</time>
      </trkpt>
      <trkpt lat="47.41871" lon="6.77282">
        <ele>364.7</ele>
        <time>2014-11-02T10:18:06.000Z</time>
      </trkpt>
      <trkpt lat="47.41871" lon="6.77277">
        <ele>363.3</ele>
        <time>2014-11-02T10:18:07.000Z</time>
      </trkpt>
      <trkpt lat="47.41872" lon="6.77272">
        <ele>362.8</ele>
        <time>2014-11-02T10:18:08.000Z</time>
      </trkpt>
      <trkpt lat="47.41872" lon="6.77266">
        <ele>361.8</ele>
        <time>2014-11-02T10:18:09.000Z</time>
      </trkpt>
      <trkpt lat="47.41872" lon="6.77261">
        <ele>361.3</ele>
        <time>2014-11-02T10:18:10.000Z</time>
      </trkpt>
      <trkpt lat="47.41873" lon="6.77256">
        <ele>364.8</ele>
        <time>2014-11-02T10:18:11.000Z</time>
      </trkpt>
      <trkpt lat="47.41874" lon="6.77251">
        <ele>365.5</ele>
        <time>2014-11-02T10:18:12.000Z</time>
      </trkpt>
      <trkpt lat="47.41875" lon="6.77247">
        <ele>365.6</ele>
        <time>2014-11-02T10:18:13.000Z</time>
      </trkpt>
      <trkpt lat="47.41876" lon="6.77242">
        <ele>366</ele>
        <time>2014-11-02T10:18:14.000Z</time>
      </trkpt>
      <trkpt lat="47.41876" lon="6.77237">
        <ele>365.7</ele>
        <time>2014-11-02T10:18:15.000Z</time>
      </trkpt>
      <trkpt lat="47.41877" lon="6.77232">
        <ele>365.6</ele>
        <time>2014-11-02T10:18:16.000Z</time>
      </trkpt>
      <trkpt lat="47.41877" lon="6.77228">
        <ele>365.1</ele>
        <time>2014-11-02T10:18:17.000Z</time>
      </trkpt>
      <trkpt lat="47.41877" lon="6.77223">
        <ele>364.9</ele>
        <time>2014-11-02T10:18:18.000Z</time>
      </trkpt>
      <trkpt lat="47.41877" lon="6.77219">
        <ele>364.7</ele>
        <time>2014-11-02T10:18:19.000Z</time>
      </trkpt>
      <trkpt lat="47.41877" lon="6.77215">
        <ele>364.4</ele>
        <time>2014-11-02T10:18:20.000Z</time>
      </trkpt>
      <trkpt lat="47.41878" lon="6.7721">
        <ele>364.1</ele>
        <time>2014-11-02T10:18:21.000Z</time>
      </trkpt>
      <trkpt lat="47.41879" lon="6.77207">
        <ele>361.1</ele>
        <time>2014-11-02T10:18:22.000Z</time>
      </trkpt>
      <trkpt lat="47.4188" lon="6.77203">
        <ele>361.4</ele>
        <time>2014-11-02T10:18:23.000Z</time>
      </trkpt>
      <trkpt lat="47.41881" lon="6.77199">
        <ele>361.7</ele>
        <time>2014-11-02T10:18:24.000Z</time>
      </trkpt>
      <trkpt lat="47.41882" lon="6.77195">
        <ele>359.6</ele>
        <time>2014-11-02T10:18:25.000Z</time>
      </trkpt>
      <trkpt lat="47.41883" lon="6.77192">
        <ele>359</ele>
        <time>2014-11-02T10:18:26.000Z</time>
      </trkpt>
      <trkpt lat="47.41884" lon="6.77186">
        <ele>363.3</ele>
        <time>2014-11-02T10:18:28.000Z</time>
      </trkpt>
      <trkpt lat="47.41885" lon="6.77182">
        <ele>364</ele>
        <time>2014-11-02T10:18:29.000Z</time>
      </trkpt>
      <trkpt lat="47.41885" lon="6.77179">
        <ele>364.5</ele>
        <time>2014-11-02T10:18:30.000Z</time>
      </trkpt>
      <trkpt lat="47.41886" lon="6.77175">
        <ele>365.3</ele>
        <time>2014-11-02T10:18:31.000Z</time>
      </trkpt>
      <trkpt lat="47.41887" lon="6.77172">
        <ele>366.3</ele>
        <time>2014-11-02T10:18:32.000Z</time>
      </trkpt>
      <trkpt lat="47.41888" lon="6.77169">
        <ele>367</ele>
        <time>2014-11-02T10:18:33.000Z</time>
      </trkpt>
      <trkpt lat="47.41889" lon="6.77166">
        <ele>370.8</ele>
        <time>2014-11-02T10:18:34.000Z</time>
      </trkpt>
      <trkpt lat="47.4189" lon="6.77163">
        <ele>372.4</ele>
        <time>2014-11-02T10:18:35.000Z</time>
      </trkpt>
      <trkpt lat="47.41892" lon="6.77157">
        <ele>374.2</ele>
        <time>2014-11-02T10:18:37.000Z</time>
      </trkpt>
      <trkpt lat="47.41893" lon="6.77154">
        <ele>375</ele>
        <time>2014-11-02T10:18:38.000Z</time>
      </trkpt>
      <trkpt lat="47.41894" lon="6.77149">
        <ele>376.9</ele>
        <time>2014-11-02T10:18:40.000Z</time>
      </trkpt>
      <trkpt lat="47.41895" lon="6.77147">
        <ele>377.4</ele>
        <time>2014-11-02T10:18:41.000Z</time>
      </trkpt>
      <trkpt lat="47.41896" lon="6.77143">
        <ele>377</ele>
        <time>2014-11-02T10:18:42.000Z</time>
      </trkpt>
      <trkpt lat="47.41897" lon="6.77138">
        <ele>378.2</ele>
        <time>2014-11-02T10:18:43.000Z</time>
      </trkpt>
      <trkpt lat="47.41897" lon="6.77134">
        <ele>378.6</ele>
        <time>2014-11-02T10:18:44.000Z</time>
      </trkpt>
      <trkpt lat="47.41898" lon="6.77129">
        <ele>382.3</ele>
        <time>2014-11-02T10:18:45.000Z</time>
      </trkpt>
      <trkpt lat="47.41898" lon="6.77125">
        <ele>383</ele>
        <time>2014-11-02T10:18:46.000Z</time>
      </trkpt>
      <trkpt lat="47.41899" lon="6.77121">
        <ele>384.1</ele>
        <time>2014-11-02T10:18:47.000Z</time>
      </trkpt>
      <trkpt lat="47.41899" lon="6.77117">
        <ele>385.5</ele>
        <time>2014-11-02T10:18:48.000Z</time>
      </trkpt>
      <trkpt lat="47.419" lon="6.77113">
        <ele>386.6</ele>
        <time>2014-11-02T10:18:49.000Z</time>
      </trkpt>
      <trkpt lat="47.41901" lon="6.7711">
        <ele>387.3</ele>
        <time>2014-11-02T10:18:50.000Z</time>
      </trkpt>
      <trkpt lat="47.41902" lon="6.77107">
        <ele>387.9</ele>
        <time>2014-11-02T10:18:51.000Z</time>
      </trkpt>
      <trkpt lat="47.41902" lon="6.77102">
        <ele>383.6</ele>
        <time>2014-11-02T10:18:53.000Z</time>
      </trkpt>
      <trkpt lat="47.41903" lon="6.77099">
        <ele>383</ele>
        <time>2014-11-02T10:18:54.000Z</time>
      </trkpt>
      <trkpt lat="47.41903" lon="6.77093">
        <ele>383.9</ele>
        <time>2014-11-02T10:18:56.000Z</time>
      </trkpt>
      <trkpt lat="47.41904" lon="6.77089">
        <ele>385.8</ele>
        <time>2014-11-02T10:18:57.000Z</time>
      </trkpt>
      <trkpt lat="47.41904" lon="6.77084">
        <ele>386.4</ele>
        <time>2014-11-02T10:18:58.000Z</time>
      </trkpt>
      <trkpt lat="47.41905" lon="6.77079">
        <ele>386.9</ele>
        <time>2014-11-02T10:18:59.000Z</time>
      </trkpt>
      <trkpt lat="47.41905" lon="6.77075">
        <ele>386.9</ele>
        <time>2014-11-02T10:19:00.000Z</time>
      </trkpt>
      <trkpt lat="47.41906" lon="6.77071">
        <ele>387.2</ele>
        <time>2014-11-02T10:19:01.000Z</time>
      </trkpt>
      <trkpt lat="47.41906" lon="6.77067">
        <ele>390.6</ele>
        <time>2014-11-02T10:19:02.000Z</time>
      </trkpt>
      <trkpt lat="47.41906" lon="6.77062">
        <ele>391.7</ele>
        <time>2014-11-02T10:19:03.000Z</time>
      </trkpt>
      <trkpt lat="47.41909" lon="6.77031">
        <ele>388.8</ele>
        <time>2014-11-02T10:19:11.000Z</time>
      </trkpt>
      <trkpt lat="47.4191" lon="6.77025">
        <ele>391.7</ele>
        <time>2014-11-02T10:19:12.000Z</time>
      </trkpt>
      <trkpt lat="47.41912" lon="6.7702">
        <ele>392.6</ele>
        <time>2014-11-02T10:19:13.000Z</time>
      </trkpt>
      <trkpt lat="47.41913" lon="6.77014">
        <ele>392.9</ele>
        <time>2014-11-02T10:19:14.000Z</time>
      </trkpt>
      <trkpt lat="47.41915" lon="6.77008">
        <ele>393.2</ele>
        <time>2014-11-02T10:19:15.000Z</time>
      </trkpt>
      <trkpt lat="47.41917" lon="6.77003">
        <ele>392</ele>
        <time>2014-11-02T10:19:16.000Z</time>
      </trkpt>
      <trkpt lat="47.41918" lon="6.76997">
        <ele>391.4</ele>
        <time>2014-11-02T10:19:17.000Z</time>
      </trkpt>
      <trkpt lat="47.41919" lon="6.76992">
        <ele>392.6</ele>
        <time>2014-11-02T10:19:18.000Z</time>
      </trkpt>
      <trkpt lat="47.4192" lon="6.76987">
        <ele>393.7</ele>
        <time>2014-11-02T10:19:19.000Z</time>
      </trkpt>
      <trkpt lat="47.4192" lon="6.76983">
        <ele>394.4</ele>
        <time>2014-11-02T10:19:20.000Z</time>
      </trkpt>
      <trkpt lat="47.4192" lon="6.76979">
        <ele>395.5</ele>
        <time>2014-11-02T10:19:21.000Z</time>
      </trkpt>
      <trkpt lat="47.4192" lon="6.76973">
        <ele>401.4</ele>
        <time>2014-11-02T10:19:23.000Z</time>
      </trkpt>
      <trkpt lat="47.41921" lon="6.76969">
        <ele>400.7</ele>
        <time>2014-11-02T10:19:24.000Z</time>
      </trkpt>
      <trkpt lat="47.41922" lon="6.76966">
        <ele>402.8</ele>
        <time>2014-11-02T10:19:25.000Z</time>
      </trkpt>
      <trkpt lat="47.41923" lon="6.76962">
        <ele>403.9</ele>
        <time>2014-11-02T10:19:26.000Z</time>
      </trkpt>
      <trkpt lat="47.41923" lon="6.76958">
        <ele>403.9</ele>
        <time>2014-11-02T10:19:27.000Z</time>
      </trkpt>
      <trkpt lat="47.41924" lon="6.76955">
        <ele>403.6</ele>
        <time>2014-11-02T10:19:28.000Z</time>
      </trkpt>
      <trkpt lat="47.41925" lon="6.76952">
        <ele>403.8</ele>
        <time>2014-11-02T10:19:29.000Z</time>
      </trkpt>
      <trkpt lat="47.41926" lon="6.76948">
        <ele>404.2</ele>
        <time>2014-11-02T10:19:30.000Z</time>
      </trkpt>
      <trkpt lat="47.41927" lon="6.76944">
        <ele>406.7</ele>
        <time>2014-11-02T10:19:31.000Z</time>
      </trkpt>
      <trkpt lat="47.41928" lon="6.7694">
        <ele>406.4</ele>
        <time>2014-11-02T10:19:32.000Z</time>
      </trkpt>
      <trkpt lat="47.41928" lon="6.76936">
        <ele>403.4</ele>
        <time>2014-11-02T10:19:33.000Z</time>
      </trkpt>
      <trkpt lat="47.41929" lon="6.76932">
        <ele>402.1</ele>
        <time>2014-11-02T10:19:34.000Z</time>
      </trkpt>
      <trkpt lat="47.41929" lon="6.76928">
        <ele>401.7</ele>
        <time>2014-11-02T10:19:35.000Z</time>
      </trkpt>
      <trkpt lat="47.4193" lon="6.76924">
        <ele>397.2</ele>
        <time>2014-11-02T10:19:36.000Z</time>
      </trkpt>
      <trkpt lat="47.41931" lon="6.76918">
        <ele>396.3</ele>
        <time>2014-11-02T10:19:38.000Z</time>
      </trkpt>
      <trkpt lat="47.41932" lon="6.76915">
        <ele>394.8</ele>
        <time>2014-11-02T10:19:39.000Z</time>
      </trkpt>
      <trkpt lat="47.41933" lon="6.76911">
        <ele>395</ele>
        <time>2014-11-02T10:19:40.000Z</time>
      </trkpt>
      <trkpt lat="47.41934" lon="6.76906">
        <ele>393.8</ele>
        <time>2014-11-02T10:19:41.000Z</time>
      </trkpt>
      <trkpt lat="47.41936" lon="6.76902">
        <ele>394</ele>
        <time>2014-11-02T10:19:42.000Z</time>
      </trkpt>
      <trkpt lat="47.41937" lon="6.76898">
        <ele>394.5</ele>
        <time>2014-11-02T10:19:43.000Z</time>
      </trkpt>
      <trkpt lat="47.41939" lon="6.76895">
        <ele>394.6</ele>
        <time>2014-11-02T10:19:44.000Z</time>
      </trkpt>
      <trkpt lat="47.4194" lon="6.76892">
        <ele>395</ele>
        <time>2014-11-02T10:19:45.000Z</time>
      </trkpt>
      <trkpt lat="47.41941" lon="6.76885">
        <ele>394.8</ele>
        <time>2014-11-02T10:19:47.000Z</time>
      </trkpt>
      <trkpt lat="47.41942" lon="6.76881">
        <ele>398.1</ele>
        <time>2014-11-02T10:19:48.000Z</time>
      </trkpt>
      <trkpt lat="47.41942" lon="6.76876">
        <ele>399.3</ele>
        <time>2014-11-02T10:19:49.000Z</time>
      </trkpt>
      <trkpt lat="47.41943" lon="6.7687">
        <ele>400</ele>
        <time>2014-11-02T10:19:50.000Z</time>
      </trkpt>
      <trkpt lat="47.41944" lon="6.76865">
        <ele>400.4</ele>
        <time>2014-11-02T10:19:51.000Z</time>
      </trkpt>
      <trkpt lat="47.41945" lon="6.7686">
        <ele>400.6</ele>
        <time>2014-11-02T10:19:52.000Z</time>
      </trkpt>
      <trkpt lat="47.41946" lon="6.76855">
        <ele>400.5</ele>
        <time>2014-11-02T10:19:53.000Z</time>
      </trkpt>
      <trkpt lat="47.41947" lon="6.7685">
        <ele>401.5</ele>
        <time>2014-11-02T10:19:54.000Z</time>
      </trkpt>
      <trkpt lat="47.41947" lon="6.76845">
        <ele>402.9</ele>
        <time>2014-11-02T10:19:55.000Z</time>
      </trkpt>
      <trkpt lat="47.41948" lon="6.76839">
        <ele>403.1</ele>
        <time>2014-11-02T10:19:56.000Z</time>
      </trkpt>
      <trkpt lat="47.41948" lon="6.76833">
        <ele>402</ele>
        <time>2014-11-02T10:19:57.000Z</time>
      </trkpt>
      <trkpt lat="47.41949" lon="6.76827">
        <ele>403.5</ele>
        <time>2014-11-02T10:19:58.000Z</time>
      </trkpt>
      <trkpt lat="47.41951" lon="6.76822">
        <ele>403.8</ele>
        <time>2014-11-02T10:19:59.000Z</time>
      </trkpt>
      <trkpt lat="47.41952" lon="6.76816">
        <ele>403.9</ele>
        <time>2014-11-02T10:20:00.000Z</time>
      </trkpt>
      <trkpt lat="47.41953" lon="6.76811">
        <ele>406.3</ele>
        <time>2014-11-02T10:20:01.000Z</time>
      </trkpt>
      <trkpt lat="47.41953" lon="6.76805">
        <ele>407.1</ele>
        <time>2014-11-02T10:20:02.000Z</time>
      </trkpt>
      <trkpt lat="47.41953" lon="6.768">
        <ele>407.5</ele>
        <time>2014-11-02T10:20:03.000Z</time>
      </trkpt>
      <trkpt lat="47.41953" lon="6.76761">
        <ele>404.1</ele>
        <time>2014-11-02T10:20:11.000Z</time>
      </trkpt>
      <trkpt lat="47.41954" lon="6.76758">
        <ele>404.2</ele>
        <time>2014-11-02T10:20:12.000Z</time>
      </trkpt>
      <trkpt lat="47.41954" lon="6.76754">
        <ele>405.4</ele>
        <time>2014-11-02T10:20:13.000Z</time>
      </trkpt>
      <trkpt lat="47.41955" lon="6.7675">
        <ele>408.1</ele>
        <time>2014-11-02T10:20:14.000Z</time>
      </trkpt>
      <trkpt lat="47.41955" lon="6.76746">
        <ele>409</ele>
        <time>2014-11-02T10:20:15.000Z</time>
      </trkpt>
      <trkpt lat="47.41955" lon="6.76743">
        <ele>409.7</ele>
        <time>2014-11-02T10:20:16.000Z</time>
      </trkpt>
      <trkpt lat="47.41956" lon="6.76739">
        <ele>410</ele>
        <time>2014-11-02T10:20:17.000Z</time>
      </trkpt>
      <trkpt lat="47.41956" lon="6.76735">
        <ele>410.4</ele>
        <time>2014-11-02T10:20:18.000Z</time>
      </trkpt>
      <trkpt lat="47.41956" lon="6.76732">
        <ele>412.6</ele>
        <time>2014-11-02T10:20:19.000Z</time>
      </trkpt>
      <trkpt lat="47.41957" lon="6.76728">
        <ele>413.7</ele>
        <time>2014-11-02T10:20:20.000Z</time>
      </trkpt>
      <trkpt lat="47.41958" lon="6.76725">
        <ele>413.8</ele>
        <time>2014-11-02T10:20:21.000Z</time>
      </trkpt>
      <trkpt lat="47.41959" lon="6.76721">
        <ele>414.1</ele>
        <time>2014-11-02T10:20:22.000Z</time>
      </trkpt>
      <trkpt lat="47.4196" lon="6.76718">
        <ele>414.5</ele>
        <time>2014-11-02T10:20:23.000Z</time>
      </trkpt>
      <trkpt lat="47.41961" lon="6.76715">
        <ele>414.1</ele>
        <time>2014-11-02T10:20:24.000Z</time>
      </trkpt>
      <trkpt lat="47.41961" lon="6.76711">
        <ele>414.4</ele>
        <time>2014-11-02T10:20:25.000Z</time>
      </trkpt>
      <trkpt lat="47.4196" lon="6.76707">
        <ele>414.6</ele>
        <time>2014-11-02T10:20:26.000Z</time>
      </trkpt>
      <trkpt lat="47.4196" lon="6.76704">
        <ele>414.7</ele>
        <time>2014-11-02T10:20:27.000Z</time>
      </trkpt>
      <trkpt lat="47.4196" lon="6.76698">
        <ele>414</ele>
        <time>2014-11-02T10:20:29.000Z</time>
      </trkpt>
      <trkpt lat="47.4196" lon="6.76695">
        <ele>414.6</ele>
        <time>2014-11-02T10:20:30.000Z</time>
      </trkpt>
      <trkpt lat="47.41959" lon="6.76692">
        <ele>414.8</ele>
        <time>2014-11-02T10:20:31.000Z</time>
      </trkpt>
      <trkpt lat="47.41959" lon="6.76688">
        <ele>414.1</ele>
        <time>2014-11-02T10:20:32.000Z</time>
      </trkpt>
      <trkpt lat="47.4196" lon="6.76683">
        <ele>413.4</ele>
        <time>2014-11-02T10:20:33.000Z</time>
      </trkpt>
      <trkpt lat="47.4196" lon="6.76678">
        <ele>413</ele>
        <time>2014-11-02T10:20:34.000Z</time>
      </trkpt>
      <trkpt lat="47.41961" lon="6.76672">
        <ele>411.9</ele>
        <time>2014-11-02T10:20:35.000Z</time>
      </trkpt>
      <trkpt lat="47.41961" lon="6.76667">
        <ele>411.3</ele>
        <time>2014-11-02T10:20:36.000Z</time>
      </trkpt>
      <trkpt lat="47.41962" lon="6.76661">
        <ele>411.7</ele>
        <time>2014-11-02T10:20:37.000Z</time>
      </trkpt>
      <trkpt lat="47.41962" lon="6.76654">
        <ele>411.3</ele>
        <time>2014-11-02T10:20:38.000Z</time>
      </trkpt>
      <trkpt lat="47.41962" lon="6.76648">
        <ele>411.7</ele>
        <time>2014-11-02T10:20:39.000Z</time>
      </trkpt>
      <trkpt lat="47.41962" lon="6.76641">
        <ele>411.7</ele>
        <time>2014-11-02T10:20:40.000Z</time>
      </trkpt>
      <trkpt lat="47.41961" lon="6.76635">
        <ele>411.9</ele>
        <time>2014-11-02T10:20:41.000Z</time>
      </trkpt>
      <trkpt lat="47.41961" lon="6.76628">
        <ele>412.1</ele>
        <time>2014-11-02T10:20:42.000Z</time>
      </trkpt>
      <trkpt lat="47.41961" lon="6.76622">
        <ele>412.1</ele>
        <time>2014-11-02T10:20:43.000Z</time>
      </trkpt>
      <trkpt lat="47.41962" lon="6.76616">
        <ele>411.5</ele>
        <time>2014-11-02T10:20:44.000Z</time>
      </trkpt>
      <trkpt lat="47.41962" lon="6.7661">
        <ele>409.8</ele>
        <time>2014-11-02T10:20:45.000Z</time>
      </trkpt>
      <trkpt lat="47.41962" lon="6.76605">
        <ele>408.6</ele>
        <time>2014-11-02T10:20:46.000Z</time>
      </trkpt>
      <trkpt lat="47.41962" lon="6.76599">
        <ele>410.2</ele>
        <time>2014-11-02T10:20:47.000Z</time>
      </trkpt>
      <trkpt lat="47.41962" lon="6.76594">
        <ele>410</ele>
        <time>2014-11-02T10:20:48.000Z</time>
      </trkpt>
      <trkpt lat="47.41962" lon="6.76589">
        <ele>408.4</ele>
        <time>2014-11-02T10:20:49.000Z</time>
      </trkpt>
      <trkpt lat="47.41962" lon="6.76583">
        <ele>408.7</ele>
        <time>2014-11-02T10:20:50.000Z</time>
      </trkpt>
      <trkpt lat="47.41962" lon="6.76578">
        <ele>408.4</ele>
        <time>2014-11-02T10:20:51.000Z</time>
      </trkpt>
      <trkpt lat="47.41962" lon="6.76573">
        <ele>407.6</ele>
        <time>2014-11-02T10:20:52.000Z</time>
      </trkpt>
      <trkpt lat="47.41961" lon="6.76568">
        <ele>408.1</ele>
        <time>2014-11-02T10:20:53.000Z</time>
      </trkpt>
      <trkpt lat="47.4196" lon="6.76564">
        <ele>408</ele>
        <time>2014-11-02T10:20:54.000Z</time>
      </trkpt>
      <trkpt lat="47.41959" lon="6.76559">
        <ele>406.7</ele>
        <time>2014-11-02T10:20:55.000Z</time>
      </trkpt>
      <trkpt lat="47.41958" lon="6.76555">
        <ele>405.6</ele>
        <time>2014-11-02T10:20:56.000Z</time>
      </trkpt>
      <trkpt lat="47.41958" lon="6.7655">
        <ele>406</ele>
        <time>2014-11-02T10:20:57.000Z</time>
      </trkpt>
      <trkpt lat="47.41957" lon="6.76545">
        <ele>405.3</ele>
        <time>2014-11-02T10:20:58.000Z</time>
      </trkpt>
      <trkpt lat="47.41957" lon="6.7654">
        <ele>405</ele>
        <time>2014-11-02T10:20:59.000Z</time>
      </trkpt>
      <trkpt lat="47.41956" lon="6.76535">
        <ele>404.3</ele>
        <time>2014-11-02T10:21:00.000Z</time>
      </trkpt>
      <trkpt lat="47.41956" lon="6.76531">
        <ele>404</ele>
        <time>2014-11-02T10:21:01.000Z</time>
      </trkpt>
      <trkpt lat="47.41955" lon="6.76527">
        <ele>405.9</ele>
        <time>2014-11-02T10:21:02.000Z</time>
      </trkpt>
      <trkpt lat="47.41955" lon="6.76524">
        <ele>406.9</ele>
        <time>2014-11-02T10:21:03.000Z</time>
      </trkpt>
      <trkpt lat="47.41954" lon="6.76517">
        <ele>404.4</ele>
        <time>2014-11-02T10:21:06.000Z</time>
      </trkpt>
      <trkpt lat="47.41952" lon="6.76511">
        <ele>409.3</ele>
        <time>2014-11-02T10:21:08.000Z</time>
      </trkpt>
      <trkpt lat="47.41951" lon="6.76507">
        <ele>410</ele>
        <time>2014-11-02T10:21:09.000Z</time>
      </trkpt>
      <trkpt lat="47.41951" lon="6.76503">
        <ele>412.2</ele>
        <time>2014-11-02T10:21:10.000Z</time>
      </trkpt>
      <trkpt lat="47.41951" lon="6.76498">
        <ele>412.4</ele>
        <time>2014-11-02T10:21:11.000Z</time>
      </trkpt>
      <trkpt lat="47.41951" lon="6.76494">
        <ele>413.3</ele>
        <time>2014-11-02T10:21:12.000Z</time>
      </trkpt>
      <trkpt lat="47.4195" lon="6.76489">
        <ele>416.9</ele>
        <time>2014-11-02T10:21:13.000Z</time>
      </trkpt>
      <trkpt lat="47.41949" lon="6.76485">
        <ele>418.4</ele>
        <time>2014-11-02T10:21:14.000Z</time>
      </trkpt>
      <trkpt lat="47.41948" lon="6.76481">
        <ele>418.7</ele>
        <time>2014-11-02T10:21:15.000Z</time>
      </trkpt>
      <trkpt lat="47.41947" lon="6.76477">
        <ele>419.4</ele>
        <time>2014-11-02T10:21:16.000Z</time>
      </trkpt>
      <trkpt lat="47.41946" lon="6.76473">
        <ele>419.8</ele>
        <time>2014-11-02T10:21:17.000Z</time>
      </trkpt>
      <trkpt lat="47.41945" lon="6.76469">
        <ele>422.9</ele>
        <time>2014-11-02T10:21:18.000Z</time>
      </trkpt>
      <trkpt lat="47.41944" lon="6.76465">
        <ele>424</ele>
        <time>2014-11-02T10:21:19.000Z</time>
      </trkpt>
      <trkpt lat="47.41943" lon="6.76461">
        <ele>424</ele>
        <time>2014-11-02T10:21:20.000Z</time>
      </trkpt>
      <trkpt lat="47.41942" lon="6.76457">
        <ele>423</ele>
        <time>2014-11-02T10:21:21.000Z</time>
      </trkpt>
      <trkpt lat="47.41942" lon="6.76452">
        <ele>420.8</ele>
        <time>2014-11-02T10:21:22.000Z</time>
      </trkpt>
      <trkpt lat="47.41942" lon="6.76448">
        <ele>422.9</ele>
        <time>2014-11-02T10:21:23.000Z</time>
      </trkpt>
      <trkpt lat="47.41942" lon="6.76443">
        <ele>423.7</ele>
        <time>2014-11-02T10:21:24.000Z</time>
      </trkpt>
      <trkpt lat="47.41942" lon="6.76439">
        <ele>424.5</ele>
        <time>2014-11-02T10:21:25.000Z</time>
      </trkpt>
      <trkpt lat="47.41942" lon="6.76435">
        <ele>422.6</ele>
        <time>2014-11-02T10:21:26.000Z</time>
      </trkpt>
      <trkpt lat="47.41942" lon="6.7643">
        <ele>421.9</ele>
        <time>2014-11-02T10:21:27.000Z</time>
      </trkpt>
      <trkpt lat="47.41942" lon="6.76426">
        <ele>423.2</ele>
        <time>2014-11-02T10:21:28.000Z</time>
      </trkpt>
      <trkpt lat="47.41942" lon="6.76421">
        <ele>423.4</ele>
        <time>2014-11-02T10:21:29.000Z</time>
      </trkpt>
      <trkpt lat="47.41942" lon="6.76417">
        <ele>425.7</ele>
        <time>2014-11-02T10:21:30.000Z</time>
      </trkpt>
      <trkpt lat="47.41941" lon="6.76413">
        <ele>426.5</ele>
        <time>2014-11-02T10:21:31.000Z</time>
      </trkpt>
      <trkpt lat="47.41939" lon="6.76407">
        <ele>425.2</ele>
        <time>2014-11-02T10:21:33.000Z</time>
      </trkpt>
      <trkpt lat="47.41938" lon="6.76404">
        <ele>424.7</ele>
        <time>2014-11-02T10:21:34.000Z</time>
      </trkpt>
      <trkpt lat="47.41938" lon="6.76399">
        <ele>424.5</ele>
        <time>2014-11-02T10:21:35.000Z</time>
      </trkpt>
      <trkpt lat="47.41937" lon="6.76395">
        <ele>426.5</ele>
        <time>2014-11-02T10:21:36.000Z</time>
      </trkpt>
      <trkpt lat="47.41937" lon="6.7639">
        <ele>426.4</ele>
        <time>2014-11-02T10:21:37.000Z</time>
      </trkpt>
      <trkpt lat="47.41937" lon="6.76386">
        <ele>426.3</ele>
        <time>2014-11-02T10:21:38.000Z</time>
      </trkpt>
      <trkpt lat="47.41937" lon="6.76382">
        <ele>428</ele>
        <time>2014-11-02T10:21:39.000Z</time>
      </trkpt>
      <trkpt lat="47.41937" lon="6.76378">
        <ele>429.4</ele>
        <time>2014-11-02T10:21:40.000Z</time>
      </trkpt>
      <trkpt lat="47.41936" lon="6.76375">
        <ele>430</ele>
        <time>2014-11-02T10:21:41.000Z</time>
      </trkpt>
      <trkpt lat="47.41936" lon="6.76372">
        <ele>432.2</ele>
        <time>2014-11-02T10:21:42.000Z</time>
      </trkpt>
      <trkpt lat="47.41936" lon="6.76366">
        <ele>433.4</ele>
        <time>2014-11-02T10:21:44.000Z</time>
      </trkpt>
      <trkpt lat="47.41936" lon="6.76363">
        <ele>434.2</ele>
        <time>2014-11-02T10:21:45.000Z</time>
      </trkpt>
      <trkpt lat="47.41936" lon="6.7636">
        <ele>434.7</ele>
        <time>2014-11-02T10:21:46.000Z</time>
      </trkpt>
      <trkpt lat="47.41935" lon="6.76356">
        <ele>434.9</ele>
        <time>2014-11-02T10:21:47.000Z</time>
      </trkpt>
      <trkpt lat="47.41935" lon="6.76353">
        <ele>436.6</ele>
        <time>2014-11-02T10:21:48.000Z</time>
      </trkpt>
      <trkpt lat="47.41934" lon="6.76349">
        <ele>436.5</ele>
        <time>2014-11-02T10:21:49.000Z</time>
      </trkpt>
      <trkpt lat="47.41934" lon="6.76344">
        <ele>433.3</ele>
        <time>2014-11-02T10:21:50.000Z</time>
      </trkpt>
      <trkpt lat="47.41934" lon="6.76339">
        <ele>431.2</ele>
        <time>2014-11-02T10:21:51.000Z</time>
      </trkpt>
      <trkpt lat="47.41934" lon="6.76334">
        <ele>434</ele>
        <time>2014-11-02T10:21:52.000Z</time>
      </trkpt>
      <trkpt lat="47.41934" lon="6.7633">
        <ele>435.7</ele>
        <time>2014-11-02T10:21:53.000Z</time>
      </trkpt>
      <trkpt lat="47.41934" lon="6.76327">
        <ele>436.1</ele>
        <time>2014-11-02T10:21:54.000Z</time>
      </trkpt>
      <trkpt lat="47.41933" lon="6.76323">
        <ele>436.1</ele>
        <time>2014-11-02T10:21:55.000Z</time>
      </trkpt>
      <trkpt lat="47.41933" lon="6.7632">
        <ele>435.6</ele>
        <time>2014-11-02T10:21:56.000Z</time>
      </trkpt>
      <trkpt lat="47.41933" lon="6.76316">
        <ele>435.4</ele>
        <time>2014-11-02T10:21:57.000Z</time>
      </trkpt>
      <trkpt lat="47.41933" lon="6.76311">
        <ele>437</ele>
        <time>2014-11-02T10:21:58.000Z</time>
      </trkpt>
      <trkpt lat="47.41932" lon="6.76307">
        <ele>439.3</ele>
        <time>2014-11-02T10:21:59.000Z</time>
      </trkpt>
      <trkpt lat="47.41932" lon="6.76302">
        <ele>440.2</ele>
        <time>2014-11-02T10:22:00.000Z</time>
      </trkpt>
      <trkpt lat="47.41932" lon="6.76298">
        <ele>441.9</ele>
        <time>2014-11-02T10:22:01.000Z</time>
      </trkpt>
      <trkpt lat="47.41932" lon="6.76294">
        <ele>442.8</ele>
        <time>2014-11-02T10:22:02.000Z</time>
      </trkpt>
      <trkpt lat="47.41932" lon="6.7629">
        <ele>443.6</ele>
        <time>2014-11-02T10:22:03.000Z</time>
      </trkpt>
      <trkpt lat="47.41933" lon="6.7628">
        <ele>445.2</ele>
        <time>2014-11-02T10:22:06.000Z</time>
      </trkpt>
      <trkpt lat="47.41933" lon="6.76275">
        <ele>443.5</ele>
        <time>2014-11-02T10:22:07.000Z</time>
      </trkpt>
      <trkpt lat="47.41932" lon="6.7627">
        <ele>442.8</ele>
        <time>2014-11-02T10:22:08.000Z</time>
      </trkpt>
      <trkpt lat="47.41932" lon="6.76266">
        <ele>443</ele>
        <time>2014-11-02T10:22:09.000Z</time>
      </trkpt>
      <trkpt lat="47.41931" lon="6.76262">
        <ele>444.6</ele>
        <time>2014-11-02T10:22:10.000Z</time>
      </trkpt>
      <trkpt lat="47.41931" lon="6.76258">
        <ele>445</ele>
        <time>2014-11-02T10:22:11.000Z</time>
      </trkpt>
      <trkpt lat="47.41931" lon="6.76254">
        <ele>445.3</ele>
        <time>2014-11-02T10:22:12.000Z</time>
      </trkpt>
      <trkpt lat="47.4193" lon="6.7625">
        <ele>445.9</ele>
        <time>2014-11-02T10:22:13.000Z</time>
      </trkpt>
      <trkpt lat="47.4193" lon="6.76246">
        <ele>446.6</ele>
        <time>2014-11-02T10:22:14.000Z</time>
      </trkpt>
      <trkpt lat="47.41929" lon="6.76243">
        <ele>446.4</ele>
        <time>2014-11-02T10:22:15.000Z</time>
      </trkpt>
      <trkpt lat="47.41928" lon="6.7624">
        <ele>444.8</ele>
        <time>2014-11-02T10:22:16.000Z</time>
      </trkpt>
      <trkpt lat="47.41926" lon="6.76236">
        <ele>441.9</ele>
        <time>2014-11-02T10:22:17.000Z</time>
      </trkpt>
      <trkpt lat="47.41925" lon="6.76233">
        <ele>440.5</ele>
        <time>2014-11-02T10:22:18.000Z</time>
      </trkpt>
      <trkpt lat="47.41924" lon="6.76229">
        <ele>443.2</ele>
        <time>2014-11-02T10:22:19.000Z</time>
      </trkpt>
      <trkpt lat="47.41923" lon="6.76224">
        <ele>443.6</ele>
        <time>2014-11-02T10:22:20.000Z</time>
      </trkpt>
      <trkpt lat="47.41923" lon="6.7622">
        <ele>447.7</ele>
        <time>2014-11-02T10:22:21.000Z</time>
      </trkpt>
      <trkpt lat="47.41922" lon="6.76216">
        <ele>448.1</ele>
        <time>2014-11-02T10:22:22.000Z</time>
      </trkpt>
      <trkpt lat="47.41921" lon="6.76213">
        <ele>449</ele>
        <time>2014-11-02T10:22:23.000Z</time>
      </trkpt>
      <trkpt lat="47.41921" lon="6.7621">
        <ele>450.1</ele>
        <time>2014-11-02T10:22:24.000Z</time>
      </trkpt>
      <trkpt lat="47.4192" lon="6.76206">
        <ele>447.6</ele>
        <time>2014-11-02T10:22:25.000Z</time>
      </trkpt>
      <trkpt lat="47.4192" lon="6.76202">
        <ele>449.9</ele>
        <time>2014-11-02T10:22:26.000Z</time>
      </trkpt>
      <trkpt lat="47.41919" lon="6.76198">
        <ele>451.2</ele>
        <time>2014-11-02T10:22:27.000Z</time>
      </trkpt>
      <trkpt lat="47.41919" lon="6.76194">
        <ele>452</ele>
        <time>2014-11-02T10:22:28.000Z</time>
      </trkpt>
      <trkpt lat="47.41918" lon="6.7619">
        <ele>451.7</ele>
        <time>2014-11-02T10:22:29.000Z</time>
      </trkpt>
      <trkpt lat="47.41918" lon="6.76187">
        <ele>452</ele>
        <time>2014-11-02T10:22:30.000Z</time>
      </trkpt>
      <trkpt lat="47.41917" lon="6.76183">
        <ele>451.1</ele>
        <time>2014-11-02T10:22:31.000Z</time>
      </trkpt>
      <trkpt lat="47.41916" lon="6.76179">
        <ele>452.5</ele>
        <time>2014-11-02T10:22:32.000Z</time>
      </trkpt>
      <trkpt lat="47.41915" lon="6.76175">
        <ele>451.5</ele>
        <time>2014-11-02T10:22:33.000Z</time>
      </trkpt>
      <trkpt lat="47.41914" lon="6.7617">
        <ele>451.2</ele>
        <time>2014-11-02T10:22:34.000Z</time>
      </trkpt>
      <trkpt lat="47.41914" lon="6.76166">
        <ele>451.1</ele>
        <time>2014-11-02T10:22:35.000Z</time>
      </trkpt>
      <trkpt lat="47.41913" lon="6.76162">
        <ele>451.2</ele>
        <time>2014-11-02T10:22:36.000Z</time>
      </trkpt>
      <trkpt lat="47.41913" lon="6.76158">
        <ele>454.6</ele>
        <time>2014-11-02T10:22:37.000Z</time>
      </trkpt>
      <trkpt lat="47.41913" lon="6.76155">
        <ele>454.4</ele>
        <time>2014-11-02T10:22:38.000Z</time>
      </trkpt>
      <trkpt lat="47.41914" lon="6.7615">
        <ele>453.6</ele>
        <time>2014-11-02T10:22:39.000Z</time>
      </trkpt>
      <trkpt lat="47.41915" lon="6.76146">
        <ele>455.5</ele>
        <time>2014-11-02T10:22:40.000Z</time>
      </trkpt>
      <trkpt lat="47.41915" lon="6.76142">
        <ele>456</ele>
        <time>2014-11-02T10:22:41.000Z</time>
      </trkpt>
      <trkpt lat="47.41915" lon="6.76138">
        <ele>456.9</ele>
        <time>2014-11-02T10:22:42.000Z</time>
      </trkpt>
      <trkpt lat="47.41915" lon="6.76135">
        <ele>456.2</ele>
        <time>2014-11-02T10:22:43.000Z</time>
      </trkpt>
      <trkpt lat="47.41915" lon="6.76131">
        <ele>455.6</ele>
        <time>2014-11-02T10:22:44.000Z</time>
      </trkpt>
      <trkpt lat="47.41915" lon="6.76127">
        <ele>455.8</ele>
        <time>2014-11-02T10:22:45.000Z</time>
      </trkpt>
      <trkpt lat="47.41914" lon="6.76123">
        <ele>455.5</ele>
        <time>2014-11-02T10:22:46.000Z</time>
      </trkpt>
      <trkpt lat="47.41914" lon="6.76119">
        <ele>456.2</ele>
        <time>2014-11-02T10:22:47.000Z</time>
      </trkpt>
      <trkpt lat="47.41914" lon="6.76115">
        <ele>456.2</ele>
        <time>2014-11-02T10:22:48.000Z</time>
      </trkpt>
      <trkpt lat="47.41913" lon="6.76111">
        <ele>460.3</ele>
        <time>2014-11-02T10:22:49.000Z</time>
      </trkpt>
      <trkpt lat="47.41912" lon="6.76108">
        <ele>461.3</ele>
        <time>2014-11-02T10:22:50.000Z</time>
      </trkpt>
      <trkpt lat="47.41912" lon="6.76105">
        <ele>461.4</ele>
        <time>2014-11-02T10:22:51.000Z</time>
      </trkpt>
      <trkpt lat="47.41913" lon="6.76101">
        <ele>460.5</ele>
        <time>2014-11-02T10:22:52.000Z</time>
      </trkpt>
      <trkpt lat="47.41914" lon="6.76097">
        <ele>458.2</ele>
        <time>2014-11-02T10:22:53.000Z</time>
      </trkpt>
      <trkpt lat="47.41915" lon="6.76093">
        <ele>456.2</ele>
        <time>2014-11-02T10:22:54.000Z</time>
      </trkpt>
      <trkpt lat="47.41916" lon="6.76088">
        <ele>457.9</ele>
        <time>2014-11-02T10:22:55.000Z</time>
      </trkpt>
      <trkpt lat="47.41918" lon="6.76084">
        <ele>457.2</ele>
        <time>2014-11-02T10:22:56.000Z</time>
      </trkpt>
      <trkpt lat="47.41919" lon="6.76079">
        <ele>454.4</ele>
        <time>2014-11-02T10:22:57.000Z</time>
      </trkpt>
      <trkpt lat="47.4192" lon="6.76074">
        <ele>452.8</ele>
        <time>2014-11-02T10:22:58.000Z</time>
      </trkpt>
      <trkpt lat="47.4192" lon="6.76068">
        <ele>451.4</ele>
        <time>2014-11-02T10:22:59.000Z</time>
      </trkpt>
      <trkpt lat="47.41921" lon="6.76064">
        <ele>451.3</ele>
        <time>2014-11-02T10:23:00.000Z</time>
      </trkpt>
      <trkpt lat="47.41921" lon="6.76059">
        <ele>452.2</ele>
        <time>2014-11-02T10:23:01.000Z</time>
      </trkpt>
      <trkpt lat="47.41921" lon="6.76055">
        <ele>453.1</ele>
        <time>2014-11-02T10:23:02.000Z</time>
      </trkpt>
      <trkpt lat="47.41919" lon="6.76045">
        <ele>454.8</ele>
        <time>2014-11-02T10:23:05.000Z</time>
      </trkpt>
      <trkpt lat="47.41919" lon="6.76041">
        <ele>453.4</ele>
        <time>2014-11-02T10:23:06.000Z</time>
      </trkpt>
      <trkpt lat="47.41917" lon="6.76038">
        <ele>453.5</ele>
        <time>2014-11-02T10:23:07.000Z</time>
      </trkpt>
      <trkpt lat="47.41915" lon="6.76034">
        <ele>452.8</ele>
        <time>2014-11-02T10:23:08.000Z</time>
      </trkpt>
      <trkpt lat="47.41913" lon="6.76031">
        <ele>453.7</ele>
        <time>2014-11-02T10:23:09.000Z</time>
      </trkpt>
      <trkpt lat="47.41911" lon="6.76027">
        <ele>454.2</ele>
        <time>2014-11-02T10:23:10.000Z</time>
      </trkpt>
      <trkpt lat="47.41909" lon="6.76024">
        <ele>454</ele>
        <time>2014-11-02T10:23:11.000Z</time>
      </trkpt>
      <trkpt lat="47.41908" lon="6.76021">
        <ele>453.6</ele>
        <time>2014-11-02T10:23:12.000Z</time>
      </trkpt>
      <trkpt lat="47.41906" lon="6.76019">
        <ele>454.6</ele>
        <time>2014-11-02T10:23:13.000Z</time>
      </trkpt>
      <trkpt lat="47.41903" lon="6.76017">
        <ele>456.7</ele>
        <time>2014-11-02T10:23:15.000Z</time>
      </trkpt>
      <trkpt lat="47.41901" lon="6.76017">
        <ele>457.8</ele>
        <time>2014-11-02T10:23:16.000Z</time>
      </trkpt>
      <trkpt lat="47.41898" lon="6.76019">
        <ele>459</ele>
        <time>2014-11-02T10:23:18.000Z</time>
      </trkpt>
      <trkpt lat="47.41896" lon="6.76021">
        <ele>459.5</ele>
        <time>2014-11-02T10:23:19.000Z</time>
      </trkpt>
      <trkpt lat="47.41893" lon="6.76022">
        <ele>459.2</ele>
        <time>2014-11-02T10:23:20.000Z</time>
      </trkpt>
      <trkpt lat="47.41891" lon="6.76024">
        <ele>458.3</ele>
        <time>2014-11-02T10:23:21.000Z</time>
      </trkpt>
      <trkpt lat="47.41889" lon="6.76027">
        <ele>455.8</ele>
        <time>2014-11-02T10:23:22.000Z</time>
      </trkpt>
      <trkpt lat="47.41888" lon="6.7603">
        <ele>454.5</ele>
        <time>2014-11-02T10:23:23.000Z</time>
      </trkpt>
      <trkpt lat="47.41886" lon="6.76034">
        <ele>451.8</ele>
        <time>2014-11-02T10:23:24.000Z</time>
      </trkpt>
      <trkpt lat="47.41886" lon="6.76037">
        <ele>454.2</ele>
        <time>2014-11-02T10:23:25.000Z</time>
      </trkpt>
      <trkpt lat="47.41884" lon="6.7604">
        <ele>454.3</ele>
        <time>2014-11-02T10:23:26.000Z</time>
      </trkpt>
      <trkpt lat="47.41884" lon="6.76044">
        <ele>454.9</ele>
        <time>2014-11-02T10:23:27.000Z</time>
      </trkpt>
      <trkpt lat="47.41883" lon="6.76047">
        <ele>455</ele>
        <time>2014-11-02T10:23:28.000Z</time>
      </trkpt>
      <trkpt lat="47.41881" lon="6.76051">
        <ele>454.6</ele>
        <time>2014-11-02T10:23:29.000Z</time>
      </trkpt>
      <trkpt lat="47.4188" lon="6.76054">
        <ele>454.8</ele>
        <time>2014-11-02T10:23:30.000Z</time>
      </trkpt>
      <trkpt lat="47.41878" lon="6.76058">
        <ele>452</ele>
        <time>2014-11-02T10:23:31.000Z</time>
      </trkpt>
      <trkpt lat="47.41876" lon="6.76061">
        <ele>451.6</ele>
        <time>2014-11-02T10:23:32.000Z</time>
      </trkpt>
      <trkpt lat="47.41874" lon="6.76065">
        <ele>450.7</ele>
        <time>2014-11-02T10:23:33.000Z</time>
      </trkpt>
      <trkpt lat="47.41871" lon="6.76068">
        <ele>449.9</ele>
        <time>2014-11-02T10:23:34.000Z</time>
      </trkpt>
      <trkpt lat="47.41869" lon="6.76071">
        <ele>453.5</ele>
        <time>2014-11-02T10:23:35.000Z</time>
      </trkpt>
      <trkpt lat="47.41866" lon="6.76074">
        <ele>454.4</ele>
        <time>2014-11-02T10:23:36.000Z</time>
      </trkpt>
      <trkpt lat="47.41863" lon="6.76077">
        <ele>454</ele>
        <time>2014-11-02T10:23:37.000Z</time>
      </trkpt>
      <trkpt lat="47.4186" lon="6.76081">
        <ele>454.8</ele>
        <time>2014-11-02T10:23:38.000Z</time>
      </trkpt>
      <trkpt lat="47.41858" lon="6.76084">
        <ele>454.4</ele>
        <time>2014-11-02T10:23:39.000Z</time>
      </trkpt>
      <trkpt lat="47.41856" lon="6.76087">
        <ele>453.2</ele>
        <time>2014-11-02T10:23:40.000Z</time>
      </trkpt>
      <trkpt lat="47.41856" lon="6.7609">
        <ele>453</ele>
        <time>2014-11-02T10:23:41.000Z</time>
      </trkpt>
      <trkpt lat="47.41855" lon="6.76094">
        <ele>452.3</ele>
        <time>2014-11-02T10:23:42.000Z</time>
      </trkpt>
      <trkpt lat="47.41855" lon="6.76097">
        <ele>452.1</ele>
        <time>2014-11-02T10:23:43.000Z</time>
      </trkpt>
      <trkpt lat="47.41853" lon="6.76103">
        <ele>451.8</ele>
        <time>2014-11-02T10:23:45.000Z</time>
      </trkpt>
      <trkpt lat="47.41852" lon="6.76105">
        <ele>451.8</ele>
        <time>2014-11-02T10:23:46.000Z</time>
      </trkpt>
      <trkpt lat="47.41848" lon="6.76108">
        <ele>452</ele>
        <time>2014-11-02T10:23:48.000Z</time>
      </trkpt>
      <trkpt lat="47.41846" lon="6.76111">
        <ele>452.8</ele>
        <time>2014-11-02T10:23:49.000Z</time>
      </trkpt>
      <trkpt lat="47.41844" lon="6.76113">
        <ele>451.7</ele>
        <time>2014-11-02T10:23:50.000Z</time>
      </trkpt>
      <trkpt lat="47.41842" lon="6.76116">
        <ele>451.4</ele>
        <time>2014-11-02T10:23:51.000Z</time>
      </trkpt>
      <trkpt lat="47.41839" lon="6.76118">
        <ele>453.5</ele>
        <time>2014-11-02T10:23:52.000Z</time>
      </trkpt>
      <trkpt lat="47.41837" lon="6.76121">
        <ele>453.5</ele>
        <time>2014-11-02T10:23:53.000Z</time>
      </trkpt>
      <trkpt lat="47.41834" lon="6.76123">
        <ele>452.4</ele>
        <time>2014-11-02T10:23:54.000Z</time>
      </trkpt>
      <trkpt lat="47.41831" lon="6.76126">
        <ele>453.6</ele>
        <time>2014-11-02T10:23:55.000Z</time>
      </trkpt>
      <trkpt lat="47.41829" lon="6.76128">
        <ele>454.1</ele>
        <time>2014-11-02T10:23:56.000Z</time>
      </trkpt>
      <trkpt lat="47.41826" lon="6.7613">
        <ele>455.4</ele>
        <time>2014-11-02T10:23:57.000Z</time>
      </trkpt>
      <trkpt lat="47.41823" lon="6.76133">
        <ele>456.4</ele>
        <time>2014-11-02T10:23:58.000Z</time>
      </trkpt>
      <trkpt lat="47.4182" lon="6.76136">
        <ele>456.8</ele>
        <time>2014-11-02T10:23:59.000Z</time>
      </trkpt>
      <trkpt lat="47.41817" lon="6.76139">
        <ele>456.2</ele>
        <time>2014-11-02T10:24:00.000Z</time>
      </trkpt>
      <trkpt lat="47.41814" lon="6.76143">
        <ele>455.6</ele>
        <time>2014-11-02T10:24:01.000Z</time>
      </trkpt>
      <trkpt lat="47.41812" lon="6.76147">
        <ele>456.1</ele>
        <time>2014-11-02T10:24:02.000Z</time>
      </trkpt>
      <trkpt lat="47.41807" lon="6.76157">
        <ele>457</ele>
        <time>2014-11-02T10:24:05.000Z</time>
      </trkpt>
      <trkpt lat="47.41805" lon="6.7616">
        <ele>456.5</ele>
        <time>2014-11-02T10:24:06.000Z</time>
      </trkpt>
      <trkpt lat="47.41804" lon="6.76164">
        <ele>457.4</ele>
        <time>2014-11-02T10:24:07.000Z</time>
      </trkpt>
      <trkpt lat="47.41802" lon="6.76168">
        <ele>455.1</ele>
        <time>2014-11-02T10:24:08.000Z</time>
      </trkpt>
      <trkpt lat="47.418" lon="6.76172">
        <ele>454.9</ele>
        <time>2014-11-02T10:24:09.000Z</time>
      </trkpt>
      <trkpt lat="47.41798" lon="6.76176">
        <ele>452.7</ele>
        <time>2014-11-02T10:24:10.000Z</time>
      </trkpt>
      <trkpt lat="47.41796" lon="6.76179">
        <ele>454.1</ele>
        <time>2014-11-02T10:24:11.000Z</time>
      </trkpt>
      <trkpt lat="47.41795" lon="6.76183">
        <ele>454.2</ele>
        <time>2014-11-02T10:24:12.000Z</time>
      </trkpt>
      <trkpt lat="47.41793" lon="6.76187">
        <ele>454.4</ele>
        <time>2014-11-02T10:24:13.000Z</time>
      </trkpt>
      <trkpt lat="47.41792" lon="6.76191">
        <ele>454.6</ele>
        <time>2014-11-02T10:24:14.000Z</time>
      </trkpt>
      <trkpt lat="47.4179" lon="6.76195">
        <ele>454.7</ele>
        <time>2014-11-02T10:24:15.000Z</time>
      </trkpt>
      <trkpt lat="47.41789" lon="6.762">
        <ele>456.9</ele>
        <time>2014-11-02T10:24:16.000Z</time>
      </trkpt>
      <trkpt lat="47.41787" lon="6.76204">
        <ele>457.2</ele>
        <time>2014-11-02T10:24:17.000Z</time>
      </trkpt>
      <trkpt lat="47.41786" lon="6.76209">
        <ele>458</ele>
        <time>2014-11-02T10:24:18.000Z</time>
      </trkpt>
      <trkpt lat="47.41785" lon="6.76212">
        <ele>458.2</ele>
        <time>2014-11-02T10:24:19.000Z</time>
      </trkpt>
      <trkpt lat="47.41784" lon="6.76216">
        <ele>457.4</ele>
        <time>2014-11-02T10:24:20.000Z</time>
      </trkpt>
      <trkpt lat="47.41782" lon="6.7622">
        <ele>457.4</ele>
        <time>2014-11-02T10:24:21.000Z</time>
      </trkpt>
      <trkpt lat="47.41781" lon="6.76224">
        <ele>456.5</ele>
        <time>2014-11-02T10:24:22.000Z</time>
      </trkpt>
      <trkpt lat="47.4178" lon="6.76228">
        <ele>457.7</ele>
        <time>2014-11-02T10:24:23.000Z</time>
      </trkpt>
      <trkpt lat="47.41778" lon="6.76232">
        <ele>458.2</ele>
        <time>2014-11-02T10:24:24.000Z</time>
      </trkpt>
      <trkpt lat="47.41777" lon="6.76236">
        <ele>459</ele>
        <time>2014-11-02T10:24:25.000Z</time>
      </trkpt>
      <trkpt lat="47.41776" lon="6.7624">
        <ele>459.3</ele>
        <time>2014-11-02T10:24:26.000Z</time>
      </trkpt>
      <trkpt lat="47.41775" lon="6.76244">
        <ele>459.1</ele>
        <time>2014-11-02T10:24:27.000Z</time>
      </trkpt>
      <trkpt lat="47.41774" lon="6.76247">
        <ele>459.4</ele>
        <time>2014-11-02T10:24:28.000Z</time>
      </trkpt>
      <trkpt lat="47.41773" lon="6.76251">
        <ele>459.4</ele>
        <time>2014-11-02T10:24:29.000Z</time>
      </trkpt>
      <trkpt lat="47.41772" lon="6.76254">
        <ele>459.7</ele>
        <time>2014-11-02T10:24:30.000Z</time>
      </trkpt>
      <trkpt lat="47.41771" lon="6.76258">
        <ele>459.1</ele>
        <time>2014-11-02T10:24:31.000Z</time>
      </trkpt>
      <trkpt lat="47.4177" lon="6.76262">
        <ele>459.2</ele>
        <time>2014-11-02T10:24:32.000Z</time>
      </trkpt>
      <trkpt lat="47.4177" lon="6.76266">
        <ele>461.9</ele>
        <time>2014-11-02T10:24:33.000Z</time>
      </trkpt>
      <trkpt lat="47.41769" lon="6.7627">
        <ele>462.9</ele>
        <time>2014-11-02T10:24:34.000Z</time>
      </trkpt>
      <trkpt lat="47.41768" lon="6.76274">
        <ele>461.4</ele>
        <time>2014-11-02T10:24:35.000Z</time>
      </trkpt>
      <trkpt lat="47.41767" lon="6.76279">
        <ele>460.6</ele>
        <time>2014-11-02T10:24:36.000Z</time>
      </trkpt>
      <trkpt lat="47.41766" lon="6.76284">
        <ele>459.4</ele>
        <time>2014-11-02T10:24:37.000Z</time>
      </trkpt>
      <trkpt lat="47.41765" lon="6.76288">
        <ele>459.1</ele>
        <time>2014-11-02T10:24:38.000Z</time>
      </trkpt>
      <trkpt lat="47.41763" lon="6.76293">
        <ele>458.4</ele>
        <time>2014-11-02T10:24:39.000Z</time>
      </trkpt>
      <trkpt lat="47.41762" lon="6.76297">
        <ele>458.5</ele>
        <time>2014-11-02T10:24:40.000Z</time>
      </trkpt>
      <trkpt lat="47.41762" lon="6.76301">
        <ele>451.3</ele>
        <time>2014-11-02T10:24:41.000Z</time>
      </trkpt>
      <trkpt lat="47.41761" lon="6.76304">
        <ele>448.8</ele>
        <time>2014-11-02T10:24:42.000Z</time>
      </trkpt>
      <trkpt lat="47.4176" lon="6.76308">
        <ele>452.9</ele>
        <time>2014-11-02T10:24:43.000Z</time>
      </trkpt>
      <trkpt lat="47.41759" lon="6.76311">
        <ele>454.8</ele>
        <time>2014-11-02T10:24:44.000Z</time>
      </trkpt>
      <trkpt lat="47.41758" lon="6.76315">
        <ele>454.8</ele>
        <time>2014-11-02T10:24:45.000Z</time>
      </trkpt>
      <trkpt lat="47.41757" lon="6.7632">
        <ele>451.4</ele>
        <time>2014-11-02T10:24:46.000Z</time>
      </trkpt>
      <trkpt lat="47.41757" lon="6.76324">
        <ele>449.8</ele>
        <time>2014-11-02T10:24:47.000Z</time>
      </trkpt>
      <trkpt lat="47.41756" lon="6.76329">
        <ele>449.8</ele>
        <time>2014-11-02T10:24:48.000Z</time>
      </trkpt>
      <trkpt lat="47.41755" lon="6.76334">
        <ele>450.2</ele>
        <time>2014-11-02T10:24:49.000Z</time>
      </trkpt>
      <trkpt lat="47.41755" lon="6.76338">
        <ele>450.4</ele>
        <time>2014-11-02T10:24:50.000Z</time>
      </trkpt>
      <trkpt lat="47.41754" lon="6.76342">
        <ele>450.3</ele>
        <time>2014-11-02T10:24:51.000Z</time>
      </trkpt>
      <trkpt lat="47.41753" lon="6.76346">
        <ele>450.3</ele>
        <time>2014-11-02T10:24:52.000Z</time>
      </trkpt>
      <trkpt lat="47.41752" lon="6.7635">
        <ele>452.7</ele>
        <time>2014-11-02T10:24:53.000Z</time>
      </trkpt>
      <trkpt lat="47.41752" lon="6.76355">
        <ele>456.2</ele>
        <time>2014-11-02T10:24:54.000Z</time>
      </trkpt>
      <trkpt lat="47.41751" lon="6.76359">
        <ele>457.7</ele>
        <time>2014-11-02T10:24:55.000Z</time>
      </trkpt>
      <trkpt lat="47.4175" lon="6.76364">
        <ele>458.8</ele>
        <time>2014-11-02T10:24:56.000Z</time>
      </trkpt>
      <trkpt lat="47.4175" lon="6.76368">
        <ele>458.5</ele>
        <time>2014-11-02T10:24:57.000Z</time>
      </trkpt>
      <trkpt lat="47.41749" lon="6.76371">
        <ele>458.6</ele>
        <time>2014-11-02T10:24:58.000Z</time>
      </trkpt>
      <trkpt lat="47.41748" lon="6.76376">
        <ele>457.1</ele>
        <time>2014-11-02T10:24:59.000Z</time>
      </trkpt>
      <trkpt lat="47.41747" lon="6.76381">
        <ele>458.8</ele>
        <time>2014-11-02T10:25:00.000Z</time>
      </trkpt>
      <trkpt lat="47.41747" lon="6.76386">
        <ele>459.7</ele>
        <time>2014-11-02T10:25:01.000Z</time>
      </trkpt>
      <trkpt lat="47.41746" lon="6.76391">
        <ele>460.5</ele>
        <time>2014-11-02T10:25:02.000Z</time>
      </trkpt>
      <trkpt lat="47.41745" lon="6.76395">
        <ele>460.7</ele>
        <time>2014-11-02T10:25:03.000Z</time>
      </trkpt>
      <trkpt lat="47.41742" lon="6.76406">
        <ele>463.3</ele>
        <time>2014-11-02T10:25:06.000Z</time>
      </trkpt>
      <trkpt lat="47.41741" lon="6.7641">
        <ele>462.8</ele>
        <time>2014-11-02T10:25:07.000Z</time>
      </trkpt>
      <trkpt lat="47.41739" lon="6.76413">
        <ele>463.3</ele>
        <time>2014-11-02T10:25:08.000Z</time>
      </trkpt>
      <trkpt lat="47.41738" lon="6.76417">
        <ele>464</ele>
        <time>2014-11-02T10:25:09.000Z</time>
      </trkpt>
      <trkpt lat="47.41737" lon="6.76421">
        <ele>464.8</ele>
        <time>2014-11-02T10:25:10.000Z</time>
      </trkpt>
      <trkpt lat="47.41736" lon="6.76425">
        <ele>464.3</ele>
        <time>2014-11-02T10:25:11.000Z</time>
      </trkpt>
      <trkpt lat="47.41735" lon="6.76429">
        <ele>463.9</ele>
        <time>2014-11-02T10:25:12.000Z</time>
      </trkpt>
      <trkpt lat="47.41734" lon="6.76433">
        <ele>464.2</ele>
        <time>2014-11-02T10:25:13.000Z</time>
      </trkpt>
      <trkpt lat="47.41733" lon="6.76437">
        <ele>464.6</ele>
        <time>2014-11-02T10:25:14.000Z</time>
      </trkpt>
      <trkpt lat="47.41732" lon="6.7644">
        <ele>465.1</ele>
        <time>2014-11-02T10:25:15.000Z</time>
      </trkpt>
      <trkpt lat="47.41731" lon="6.76445">
        <ele>466.3</ele>
        <time>2014-11-02T10:25:16.000Z</time>
      </trkpt>
      <trkpt lat="47.4173" lon="6.76449">
        <ele>466.6</ele>
        <time>2014-11-02T10:25:17.000Z</time>
      </trkpt>
      <trkpt lat="47.41729" lon="6.76454">
        <ele>467</ele>
        <time>2014-11-02T10:25:18.000Z</time>
      </trkpt>
      <trkpt lat="47.41728" lon="6.76458">
        <ele>467.2</ele>
        <time>2014-11-02T10:25:19.000Z</time>
      </trkpt>
      <trkpt lat="47.41726" lon="6.76462">
        <ele>467.4</ele>
        <time>2014-11-02T10:25:20.000Z</time>
      </trkpt>
      <trkpt lat="47.41725" lon="6.76467">
        <ele>470.2</ele>
        <time>2014-11-02T10:25:21.000Z</time>
      </trkpt>
      <trkpt lat="47.41724" lon="6.76471">
        <ele>469.9</ele>
        <time>2014-11-02T10:25:22.000Z</time>
      </trkpt>
      <trkpt lat="47.41722" lon="6.76476">
        <ele>471.4</ele>
        <time>2014-11-02T10:25:23.000Z</time>
      </trkpt>
      <trkpt lat="47.41721" lon="6.7648">
        <ele>470.9</ele>
        <time>2014-11-02T10:25:24.000Z</time>
      </trkpt>
      <trkpt lat="47.4172" lon="6.76484">
        <ele>470.9</ele>
        <time>2014-11-02T10:25:25.000Z</time>
      </trkpt>
      <trkpt lat="47.4172" lon="6.76488">
        <ele>471.9</ele>
        <time>2014-11-02T10:25:26.000Z</time>
      </trkpt>
      <trkpt lat="47.41719" lon="6.76492">
        <ele>472.9</ele>
        <time>2014-11-02T10:25:27.000Z</time>
      </trkpt>
      <trkpt lat="47.41718" lon="6.76496">
        <ele>472.8</ele>
        <time>2014-11-02T10:25:28.000Z</time>
      </trkpt>
      <trkpt lat="47.41717" lon="6.765">
        <ele>473</ele>
        <time>2014-11-02T10:25:29.000Z</time>
      </trkpt>
      <trkpt lat="47.41716" lon="6.76505">
        <ele>474.5</ele>
        <time>2014-11-02T10:25:30.000Z</time>
      </trkpt>
      <trkpt lat="47.41714" lon="6.76508">
        <ele>473</ele>
        <time>2014-11-02T10:25:31.000Z</time>
      </trkpt>
      <trkpt lat="47.41711" lon="6.76512">
        <ele>472.9</ele>
        <time>2014-11-02T10:25:32.000Z</time>
      </trkpt>
      <trkpt lat="47.41708" lon="6.76515">
        <ele>472.4</ele>
        <time>2014-11-02T10:25:33.000Z</time>
      </trkpt>
      <trkpt lat="47.41706" lon="6.76518">
        <ele>471.8</ele>
        <time>2014-11-02T10:25:34.000Z</time>
      </trkpt>
      <trkpt lat="47.41705" lon="6.76522">
        <ele>475.2</ele>
        <time>2014-11-02T10:25:35.000Z</time>
      </trkpt>
      <trkpt lat="47.41704" lon="6.76526">
        <ele>474.8</ele>
        <time>2014-11-02T10:25:36.000Z</time>
      </trkpt>
      <trkpt lat="47.41703" lon="6.76531">
        <ele>475</ele>
        <time>2014-11-02T10:25:37.000Z</time>
      </trkpt>
      <trkpt lat="47.41702" lon="6.76534">
        <ele>475.4</ele>
        <time>2014-11-02T10:25:38.000Z</time>
      </trkpt>
      <trkpt lat="47.41702" lon="6.76538">
        <ele>476.5</ele>
        <time>2014-11-02T10:25:39.000Z</time>
      </trkpt>
      <trkpt lat="47.41702" lon="6.76543">
        <ele>477</ele>
        <time>2014-11-02T10:25:40.000Z</time>
      </trkpt>
      <trkpt lat="47.41701" lon="6.76547">
        <ele>477.1</ele>
        <time>2014-11-02T10:25:41.000Z</time>
      </trkpt>
      <trkpt lat="47.41701" lon="6.76552">
        <ele>476.8</ele>
        <time>2014-11-02T10:25:42.000Z</time>
      </trkpt>
      <trkpt lat="47.417" lon="6.76557">
        <ele>477.5</ele>
        <time>2014-11-02T10:25:43.000Z</time>
      </trkpt>
      <trkpt lat="47.417" lon="6.76561">
        <ele>477.7</ele>
        <time>2014-11-02T10:25:44.000Z</time>
      </trkpt>
      <trkpt lat="47.41699" lon="6.76565">
        <ele>477.8</ele>
        <time>2014-11-02T10:25:45.000Z</time>
      </trkpt>
      <trkpt lat="47.41698" lon="6.7657">
        <ele>477.7</ele>
        <time>2014-11-02T10:25:46.000Z</time>
      </trkpt>
      <trkpt lat="47.41697" lon="6.76575">
        <ele>479.6</ele>
        <time>2014-11-02T10:25:47.000Z</time>
      </trkpt>
      <trkpt lat="47.41696" lon="6.7658">
        <ele>478.3</ele>
        <time>2014-11-02T10:25:48.000Z</time>
      </trkpt>
      <trkpt lat="47.41695" lon="6.76586">
        <ele>479.1</ele>
        <time>2014-11-02T10:25:49.000Z</time>
      </trkpt>
      <trkpt lat="47.41695" lon="6.76591">
        <ele>477.6</ele>
        <time>2014-11-02T10:25:50.000Z</time>
      </trkpt>
      <trkpt lat="47.41694" lon="6.76596">
        <ele>476.6</ele>
        <time>2014-11-02T10:25:51.000Z</time>
      </trkpt>
      <trkpt lat="47.41693" lon="6.76601">
        <ele>474.1</ele>
        <time>2014-11-02T10:25:52.000Z</time>
      </trkpt>
      <trkpt lat="47.41692" lon="6.76606">
        <ele>472.6</ele>
        <time>2014-11-02T10:25:53.000Z</time>
      </trkpt>
      <trkpt lat="47.41692" lon="6.7661">
        <ele>472.3</ele>
        <time>2014-11-02T10:25:54.000Z</time>
      </trkpt>
      <trkpt lat="47.41691" lon="6.76615">
        <ele>471.9</ele>
        <time>2014-11-02T10:25:55.000Z</time>
      </trkpt>
      <trkpt lat="47.4169" lon="6.7662">
        <ele>471.2</ele>
        <time>2014-11-02T10:25:56.000Z</time>
      </trkpt>
      <trkpt lat="47.41689" lon="6.76625">
        <ele>470.7</ele>
        <time>2014-11-02T10:25:57.000Z</time>
      </trkpt>
      <trkpt lat="47.41688" lon="6.76629">
        <ele>470.6</ele>
        <time>2014-11-02T10:25:58.000Z</time>
      </trkpt>
      <trkpt lat="47.41687" lon="6.76633">
        <ele>470</ele>
        <time>2014-11-02T10:25:59.000Z</time>
      </trkpt>
      <trkpt lat="47.41686" lon="6.76637">
        <ele>469.4</ele>
        <time>2014-11-02T10:26:00.000Z</time>
      </trkpt>
      <trkpt lat="47.41686" lon="6.76641">
        <ele>468.9</ele>
        <time>2014-11-02T10:26:01.000Z</time>
      </trkpt>
      <trkpt lat="47.41685" lon="6.76645">
        <ele>468.2</ele>
        <time>2014-11-02T10:26:02.000Z</time>
      </trkpt>
      <trkpt lat="47.41685" lon="6.7665">
        <ele>467.3</ele>
        <time>2014-11-02T10:26:03.000Z</time>
      </trkpt>
      <trkpt lat="47.41678" lon="6.76687">
        <ele>465</ele>
        <time>2014-11-02T10:26:11.000Z</time>
      </trkpt>
      <trkpt lat="47.41678" lon="6.7669">
        <ele>464.7</ele>
        <time>2014-11-02T10:26:12.000Z</time>
      </trkpt>
      <trkpt lat="47.41678" lon="6.76694">
        <ele>462.4</ele>
        <time>2014-11-02T10:26:13.000Z</time>
      </trkpt>
      <trkpt lat="47.41678" lon="6.76699">
        <ele>460.5</ele>
        <time>2014-11-02T10:26:14.000Z</time>
      </trkpt>
      <trkpt lat="47.41677" lon="6.76705">
        <ele>459.2</ele>
        <time>2014-11-02T10:26:15.000Z</time>
      </trkpt>
      <trkpt lat="47.41677" lon="6.7671">
        <ele>458.4</ele>
        <time>2014-11-02T10:26:16.000Z</time>
      </trkpt>
      <trkpt lat="47.41677" lon="6.76715">
        <ele>454.3</ele>
        <time>2014-11-02T10:26:17.000Z</time>
      </trkpt>
      <trkpt lat="47.41676" lon="6.76721">
        <ele>452.7</ele>
        <time>2014-11-02T10:26:18.000Z</time>
      </trkpt>
      <trkpt lat="47.41675" lon="6.76726">
        <ele>454.4</ele>
        <time>2014-11-02T10:26:19.000Z</time>
      </trkpt>
      <trkpt lat="47.41675" lon="6.76732">
        <ele>454.8</ele>
        <time>2014-11-02T10:26:20.000Z</time>
      </trkpt>
      <trkpt lat="47.41675" lon="6.76738">
        <ele>454.5</ele>
        <time>2014-11-02T10:26:21.000Z</time>
      </trkpt>
      <trkpt lat="47.41676" lon="6.76743">
        <ele>453.7</ele>
        <time>2014-11-02T10:26:22.000Z</time>
      </trkpt>
      <trkpt lat="47.41676" lon="6.76749">
        <ele>455.3</ele>
        <time>2014-11-02T10:26:23.000Z</time>
      </trkpt>
      <trkpt lat="47.41677" lon="6.76754">
        <ele>455.6</ele>
        <time>2014-11-02T10:26:24.000Z</time>
      </trkpt>
      <trkpt lat="47.41677" lon="6.76759">
        <ele>455.9</ele>
        <time>2014-11-02T10:26:25.000Z</time>
      </trkpt>
      <trkpt lat="47.41678" lon="6.76763">
        <ele>457.5</ele>
        <time>2014-11-02T10:26:26.000Z</time>
      </trkpt>
      <trkpt lat="47.41678" lon="6.76767">
        <ele>457.8</ele>
        <time>2014-11-02T10:26:27.000Z</time>
      </trkpt>
      <trkpt lat="47.41679" lon="6.76772">
        <ele>455.9</ele>
        <time>2014-11-02T10:26:28.000Z</time>
      </trkpt>
      <trkpt lat="47.41679" lon="6.76776">
        <ele>457.2</ele>
        <time>2014-11-02T10:26:29.000Z</time>
      </trkpt>
      <trkpt lat="47.4168" lon="6.76781">
        <ele>458.3</ele>
        <time>2014-11-02T10:26:30.000Z</time>
      </trkpt>
      <trkpt lat="47.41681" lon="6.76786">
        <ele>458.8</ele>
        <time>2014-11-02T10:26:31.000Z</time>
      </trkpt>
      <trkpt lat="47.41682" lon="6.7679">
        <ele>459</ele>
        <time>2014-11-02T10:26:32.000Z</time>
      </trkpt>
      <trkpt lat="47.41683" lon="6.76795">
        <ele>463.6</ele>
        <time>2014-11-02T10:26:33.000Z</time>
      </trkpt>
      <trkpt lat="47.41685" lon="6.768">
        <ele>465.1</ele>
        <time>2014-11-02T10:26:34.000Z</time>
      </trkpt>
      <trkpt lat="47.41686" lon="6.76804">
        <ele>464.7</ele>
        <time>2014-11-02T10:26:35.000Z</time>
      </trkpt>
      <trkpt lat="47.41688" lon="6.76809">
        <ele>464.3</ele>
        <time>2014-11-02T10:26:36.000Z</time>
      </trkpt>
      <trkpt lat="47.41689" lon="6.76814">
        <ele>464.1</ele>
        <time>2014-11-02T10:26:37.000Z</time>
      </trkpt>
      <trkpt lat="47.41691" lon="6.76819">
        <ele>463.9</ele>
        <time>2014-11-02T10:26:38.000Z</time>
      </trkpt>
      <trkpt lat="47.41692" lon="6.76823">
        <ele>464.4</ele>
        <time>2014-11-02T10:26:39.000Z</time>
      </trkpt>
      <trkpt lat="47.41694" lon="6.76828">
        <ele>464.3</ele>
        <time>2014-11-02T10:26:40.000Z</time>
      </trkpt>
      <trkpt lat="47.41696" lon="6.76832">
        <ele>465.1</ele>
        <time>2014-11-02T10:26:41.000Z</time>
      </trkpt>
      <trkpt lat="47.41698" lon="6.76837">
        <ele>465.7</ele>
        <time>2014-11-02T10:26:42.000Z</time>
      </trkpt>
      <trkpt lat="47.417" lon="6.76841">
        <ele>462.6</ele>
        <time>2014-11-02T10:26:43.000Z</time>
      </trkpt>
      <trkpt lat="47.41702" lon="6.76846">
        <ele>461.9</ele>
        <time>2014-11-02T10:26:44.000Z</time>
      </trkpt>
      <trkpt lat="47.41704" lon="6.76851">
        <ele>462.3</ele>
        <time>2014-11-02T10:26:45.000Z</time>
      </trkpt>
      <trkpt lat="47.41706" lon="6.76856">
        <ele>464.3</ele>
        <time>2014-11-02T10:26:46.000Z</time>
      </trkpt>
      <trkpt lat="47.41709" lon="6.7686">
        <ele>464.4</ele>
        <time>2014-11-02T10:26:47.000Z</time>
      </trkpt>
      <trkpt lat="47.41711" lon="6.76863">
        <ele>463.8</ele>
        <time>2014-11-02T10:26:48.000Z</time>
      </trkpt>
      <trkpt lat="47.41713" lon="6.76867">
        <ele>463.5</ele>
        <time>2014-11-02T10:26:49.000Z</time>
      </trkpt>
      <trkpt lat="47.41715" lon="6.76871">
        <ele>461.6</ele>
        <time>2014-11-02T10:26:50.000Z</time>
      </trkpt>
      <trkpt lat="47.41716" lon="6.76876">
        <ele>462.2</ele>
        <time>2014-11-02T10:26:51.000Z</time>
      </trkpt>
      <trkpt lat="47.41718" lon="6.76881">
        <ele>462.2</ele>
        <time>2014-11-02T10:26:52.000Z</time>
      </trkpt>
      <trkpt lat="47.4172" lon="6.76886">
        <ele>461.3</ele>
        <time>2014-11-02T10:26:53.000Z</time>
      </trkpt>
      <trkpt lat="47.41721" lon="6.76891">
        <ele>460.6</ele>
        <time>2014-11-02T10:26:54.000Z</time>
      </trkpt>
      <trkpt lat="47.41723" lon="6.76895">
        <ele>460.9</ele>
        <time>2014-11-02T10:26:55.000Z</time>
      </trkpt>
      <trkpt lat="47.41724" lon="6.769">
        <ele>460.6</ele>
        <time>2014-11-02T10:26:56.000Z</time>
      </trkpt>
      <trkpt lat="47.41724" lon="6.76905">
        <ele>461.1</ele>
        <time>2014-11-02T10:26:57.000Z</time>
      </trkpt>
      <trkpt lat="47.41724" lon="6.7691">
        <ele>461.1</ele>
        <time>2014-11-02T10:26:58.000Z</time>
      </trkpt>
      <trkpt lat="47.41724" lon="6.76915">
        <ele>462.1</ele>
        <time>2014-11-02T10:26:59.000Z</time>
      </trkpt>
      <trkpt lat="47.41723" lon="6.76919">
        <ele>462.2</ele>
        <time>2014-11-02T10:27:00.000Z</time>
      </trkpt>
      <trkpt lat="47.41723" lon="6.76924">
        <ele>462.1</ele>
        <time>2014-11-02T10:27:01.000Z</time>
      </trkpt>
      <trkpt lat="47.41722" lon="6.76928">
        <ele>462.1</ele>
        <time>2014-11-02T10:27:02.000Z</time>
      </trkpt>
      <trkpt lat="47.4172" lon="6.7694">
        <ele>463.1</ele>
        <time>2014-11-02T10:27:05.000Z</time>
      </trkpt>
      <trkpt lat="47.4172" lon="6.76944">
        <ele>463.7</ele>
        <time>2014-11-02T10:27:06.000Z</time>
      </trkpt>
      <trkpt lat="47.4172" lon="6.76948">
        <ele>463.5</ele>
        <time>2014-11-02T10:27:07.000Z</time>
      </trkpt>
      <trkpt lat="47.4172" lon="6.76953">
        <ele>465.2</ele>
        <time>2014-11-02T10:27:08.000Z</time>
      </trkpt>
      <trkpt lat="47.4172" lon="6.76957">
        <ele>464.9</ele>
        <time>2014-11-02T10:27:09.000Z</time>
      </trkpt>
      <trkpt lat="47.41719" lon="6.76961">
        <ele>464.5</ele>
        <time>2014-11-02T10:27:10.000Z</time>
      </trkpt>
      <trkpt lat="47.41718" lon="6.76965">
        <ele>465.5</ele>
        <time>2014-11-02T10:27:11.000Z</time>
      </trkpt>
      <trkpt lat="47.41716" lon="6.76969">
        <ele>466.1</ele>
        <time>2014-11-02T10:27:12.000Z</time>
      </trkpt>
      <trkpt lat="47.41715" lon="6.76972">
        <ele>467.2</ele>
        <time>2014-11-02T10:27:13.000Z</time>
      </trkpt>
      <trkpt lat="47.41714" lon="6.76976">
        <ele>466.7</ele>
        <time>2014-11-02T10:27:14.000Z</time>
      </trkpt>
      <trkpt lat="47.41713" lon="6.7698">
        <ele>467.4</ele>
        <time>2014-11-02T10:27:15.000Z</time>
      </trkpt>
      <trkpt lat="47.41711" lon="6.76984">
        <ele>467.1</ele>
        <time>2014-11-02T10:27:16.000Z</time>
      </trkpt>
      <trkpt lat="47.4171" lon="6.76987">
        <ele>467.8</ele>
        <time>2014-11-02T10:27:17.000Z</time>
      </trkpt>
      <trkpt lat="47.41708" lon="6.76991">
        <ele>467.9</ele>
        <time>2014-11-02T10:27:18.000Z</time>
      </trkpt>
      <trkpt lat="47.41707" lon="6.76995">
        <ele>468.1</ele>
        <time>2014-11-02T10:27:19.000Z</time>
      </trkpt>
      <trkpt lat="47.41705" lon="6.76999">
        <ele>468.4</ele>
        <time>2014-11-02T10:27:20.000Z</time>
      </trkpt>
      <trkpt lat="47.41704" lon="6.77003">
        <ele>468.7</ele>
        <time>2014-11-02T10:27:21.000Z</time>
      </trkpt>
      <trkpt lat="47.41702" lon="6.77007">
        <ele>468.5</ele>
        <time>2014-11-02T10:27:22.000Z</time>
      </trkpt>
      <trkpt lat="47.417" lon="6.7701">
        <ele>466.2</ele>
        <time>2014-11-02T10:27:23.000Z</time>
      </trkpt>
      <trkpt lat="47.41698" lon="6.77013">
        <ele>466.4</ele>
        <time>2014-11-02T10:27:24.000Z</time>
      </trkpt>
      <trkpt lat="47.41696" lon="6.77016">
        <ele>466.1</ele>
        <time>2014-11-02T10:27:25.000Z</time>
      </trkpt>
      <trkpt lat="47.41693" lon="6.77018">
        <ele>466.2</ele>
        <time>2014-11-02T10:27:26.000Z</time>
      </trkpt>
      <trkpt lat="47.41692" lon="6.77021">
        <ele>465.7</ele>
        <time>2014-11-02T10:27:27.000Z</time>
      </trkpt>
      <trkpt lat="47.41691" lon="6.77024">
        <ele>467.7</ele>
        <time>2014-11-02T10:27:28.000Z</time>
      </trkpt>
      <trkpt lat="47.4169" lon="6.77028">
        <ele>467.9</ele>
        <time>2014-11-02T10:27:29.000Z</time>
      </trkpt>
      <trkpt lat="47.4169" lon="6.77031">
        <ele>467.7</ele>
        <time>2014-11-02T10:27:30.000Z</time>
      </trkpt>
      <trkpt lat="47.41689" lon="6.77035">
        <ele>468.2</ele>
        <time>2014-11-02T10:27:31.000Z</time>
      </trkpt>
      <trkpt lat="47.41688" lon="6.77039">
        <ele>467.5</ele>
        <time>2014-11-02T10:27:32.000Z</time>
      </trkpt>
      <trkpt lat="47.41686" lon="6.77042">
        <ele>467.1</ele>
        <time>2014-11-02T10:27:33.000Z</time>
      </trkpt>
      <trkpt lat="47.41685" lon="6.77046">
        <ele>466.8</ele>
        <time>2014-11-02T10:27:34.000Z</time>
      </trkpt>
      <trkpt lat="47.41683" lon="6.77049">
        <ele>466.3</ele>
        <time>2014-11-02T10:27:35.000Z</time>
      </trkpt>
      <trkpt lat="47.41682" lon="6.77052">
        <ele>463.6</ele>
        <time>2014-11-02T10:27:36.000Z</time>
      </trkpt>
      <trkpt lat="47.4168" lon="6.77055">
        <ele>463.6</ele>
        <time>2014-11-02T10:27:37.000Z</time>
      </trkpt>
      <trkpt lat="47.41677" lon="6.77058">
        <ele>463.3</ele>
        <time>2014-11-02T10:27:38.000Z</time>
      </trkpt>
      <trkpt lat="47.41675" lon="6.77062">
        <ele>463.3</ele>
        <time>2014-11-02T10:27:39.000Z</time>
      </trkpt>
      <trkpt lat="47.41672" lon="6.77066">
        <ele>464</ele>
        <time>2014-11-02T10:27:40.000Z</time>
      </trkpt>
      <trkpt lat="47.4167" lon="6.7707">
        <ele>463.5</ele>
        <time>2014-11-02T10:27:41.000Z</time>
      </trkpt>
      <trkpt lat="47.41668" lon="6.77074">
        <ele>464.7</ele>
        <time>2014-11-02T10:27:42.000Z</time>
      </trkpt>
      <trkpt lat="47.41667" lon="6.77078">
        <ele>465.9</ele>
        <time>2014-11-02T10:27:43.000Z</time>
      </trkpt>
      <trkpt lat="47.41666" lon="6.77083">
        <ele>466.6</ele>
        <time>2014-11-02T10:27:44.000Z</time>
      </trkpt>
      <trkpt lat="47.41665" lon="6.77087">
        <ele>467.2</ele>
        <time>2014-11-02T10:27:45.000Z</time>
      </trkpt>
      <trkpt lat="47.41664" lon="6.77091">
        <ele>467.3</ele>
        <time>2014-11-02T10:27:46.000Z</time>
      </trkpt>
      <trkpt lat="47.41664" lon="6.77095">
        <ele>469</ele>
        <time>2014-11-02T10:27:47.000Z</time>
      </trkpt>
      <trkpt lat="47.41663" lon="6.771">
        <ele>470</ele>
        <time>2014-11-02T10:27:48.000Z</time>
      </trkpt>
      <trkpt lat="47.41663" lon="6.77104">
        <ele>469.8</ele>
        <time>2014-11-02T10:27:49.000Z</time>
      </trkpt>
      <trkpt lat="47.41662" lon="6.77108">
        <ele>470</ele>
        <time>2014-11-02T10:27:50.000Z</time>
      </trkpt>
      <trkpt lat="47.41661" lon="6.77111">
        <ele>472</ele>
        <time>2014-11-02T10:27:51.000Z</time>
      </trkpt>
      <trkpt lat="47.41661" lon="6.77115">
        <ele>472.5</ele>
        <time>2014-11-02T10:27:52.000Z</time>
      </trkpt>
      <trkpt lat="47.4166" lon="6.77119">
        <ele>470.5</ele>
        <time>2014-11-02T10:27:53.000Z</time>
      </trkpt>
      <trkpt lat="47.4166" lon="6.77124">
        <ele>471.6</ele>
        <time>2014-11-02T10:27:54.000Z</time>
      </trkpt>
      <trkpt lat="47.41659" lon="6.77128">
        <ele>471.9</ele>
        <time>2014-11-02T10:27:55.000Z</time>
      </trkpt>
      <trkpt lat="47.41658" lon="6.77132">
        <ele>471.8</ele>
        <time>2014-11-02T10:27:56.000Z</time>
      </trkpt>
      <trkpt lat="47.41657" lon="6.77136">
        <ele>472.9</ele>
        <time>2014-11-02T10:27:57.000Z</time>
      </trkpt>
      <trkpt lat="47.41655" lon="6.77139">
        <ele>474</ele>
        <time>2014-11-02T10:27:58.000Z</time>
      </trkpt>
      <trkpt lat="47.41654" lon="6.77143">
        <ele>474.3</ele>
        <time>2014-11-02T10:27:59.000Z</time>
      </trkpt>
      <trkpt lat="47.41652" lon="6.77147">
        <ele>473.1</ele>
        <time>2014-11-02T10:28:00.000Z</time>
      </trkpt>
      <trkpt lat="47.4165" lon="6.7715">
        <ele>472.5</ele>
        <time>2014-11-02T10:28:01.000Z</time>
      </trkpt>
      <trkpt lat="47.41649" lon="6.77154">
        <ele>472.3</ele>
        <time>2014-11-02T10:28:02.000Z</time>
      </trkpt>
      <trkpt lat="47.41643" lon="6.77162">
        <ele>472.5</ele>
        <time>2014-11-02T10:28:05.000Z</time>
      </trkpt>
      <trkpt lat="47.41639" lon="6.77164">
        <ele>472.6</ele>
        <time>2014-11-02T10:28:07.000Z</time>
      </trkpt>
      <trkpt lat="47.41637" lon="6.77165">
        <ele>472.5</ele>
        <time>2014-11-02T10:28:08.000Z</time>
      </trkpt>
      <trkpt lat="47.41634" lon="6.77163">
        <ele>473.4</ele>
        <time>2014-11-02T10:28:10.000Z</time>
      </trkpt>
      <trkpt lat="47.41632" lon="6.77163">
        <ele>473.4</ele>
        <time>2014-11-02T10:28:11.000Z</time>
      </trkpt>
      <trkpt lat="47.41628" lon="6.7716">
        <ele>474.7</ele>
        <time>2014-11-02T10:28:13.000Z</time>
      </trkpt>
      <trkpt lat="47.41627" lon="6.77159">
        <ele>474.1</ele>
        <time>2014-11-02T10:28:14.000Z</time>
      </trkpt>
      <trkpt lat="47.41624" lon="6.77155">
        <ele>478.4</ele>
        <time>2014-11-02T10:28:17.000Z</time>
      </trkpt>
      <trkpt lat="47.41623" lon="6.77154">
        <ele>484.1</ele>
        <time>2014-11-02T10:28:18.000Z</time>
      </trkpt>
      <trkpt lat="47.41619" lon="6.77153">
        <ele>485.6</ele>
        <time>2014-11-02T10:28:20.000Z</time>
      </trkpt>
      <trkpt lat="47.41618" lon="6.77152">
        <ele>486.4</ele>
        <time>2014-11-02T10:28:21.000Z</time>
      </trkpt>
      <trkpt lat="47.41615" lon="6.77148">
        <ele>486.1</ele>
        <time>2014-11-02T10:28:24.000Z</time>
      </trkpt>
      <trkpt lat="47.41614" lon="6.77146">
        <ele>486.2</ele>
        <time>2014-11-02T10:28:25.000Z</time>
      </trkpt>
      <trkpt lat="47.41613" lon="6.7714">
        <ele>486.4</ele>
        <time>2014-11-02T10:28:27.000Z</time>
      </trkpt>
      <trkpt lat="47.41613" lon="6.77137">
        <ele>486.5</ele>
        <time>2014-11-02T10:28:28.000Z</time>
      </trkpt>
      <trkpt lat="47.41611" lon="6.77133">
        <ele>486.6</ele>
        <time>2014-11-02T10:28:30.000Z</time>
      </trkpt>
      <trkpt lat="47.41609" lon="6.77131">
        <ele>486.4</ele>
        <time>2014-11-02T10:28:31.000Z</time>
      </trkpt>
      <trkpt lat="47.41606" lon="6.77127">
        <ele>491.1</ele>
        <time>2014-11-02T10:28:33.000Z</time>
      </trkpt>
      <trkpt lat="47.41604" lon="6.77125">
        <ele>491.3</ele>
        <time>2014-11-02T10:28:34.000Z</time>
      </trkpt>
      <trkpt lat="47.41601" lon="6.77123">
        <ele>491.3</ele>
        <time>2014-11-02T10:28:35.000Z</time>
      </trkpt>
      <trkpt lat="47.41598" lon="6.7712">
        <ele>491</ele>
        <time>2014-11-02T10:28:36.000Z</time>
      </trkpt>
      <trkpt lat="47.41595" lon="6.77118">
        <ele>490.7</ele>
        <time>2014-11-02T10:28:37.000Z</time>
      </trkpt>
      <trkpt lat="47.41592" lon="6.77116">
        <ele>491.1</ele>
        <time>2014-11-02T10:28:38.000Z</time>
      </trkpt>
      <trkpt lat="47.4159" lon="6.77114">
        <ele>491.1</ele>
        <time>2014-11-02T10:28:39.000Z</time>
      </trkpt>
      <trkpt lat="47.41587" lon="6.77113">
        <ele>491.9</ele>
        <time>2014-11-02T10:28:40.000Z</time>
      </trkpt>
      <trkpt lat="47.41584" lon="6.77112">
        <ele>491</ele>
        <time>2014-11-02T10:28:41.000Z</time>
      </trkpt>
      <trkpt lat="47.4158" lon="6.77112">
        <ele>491.3</ele>
        <time>2014-11-02T10:28:42.000Z</time>
      </trkpt>
      <trkpt lat="47.41577" lon="6.77113">
        <ele>491.2</ele>
        <time>2014-11-02T10:28:43.000Z</time>
      </trkpt>
      <trkpt lat="47.41574" lon="6.77116">
        <ele>491.1</ele>
        <time>2014-11-02T10:28:44.000Z</time>
      </trkpt>
      <trkpt lat="47.41572" lon="6.77119">
        <ele>491.1</ele>
        <time>2014-11-02T10:28:45.000Z</time>
      </trkpt>
      <trkpt lat="47.41571" lon="6.77123">
        <ele>491.1</ele>
        <time>2014-11-02T10:28:46.000Z</time>
      </trkpt>
      <trkpt lat="47.4157" lon="6.77126">
        <ele>490.8</ele>
        <time>2014-11-02T10:28:47.000Z</time>
      </trkpt>
      <trkpt lat="47.41567" lon="6.77128">
        <ele>489.2</ele>
        <time>2014-11-02T10:28:48.000Z</time>
      </trkpt>
      <trkpt lat="47.41565" lon="6.7713">
        <ele>488.2</ele>
        <time>2014-11-02T10:28:49.000Z</time>
      </trkpt>
      <trkpt lat="47.41562" lon="6.77131">
        <ele>487.7</ele>
        <time>2014-11-02T10:28:50.000Z</time>
      </trkpt>
      <trkpt lat="47.41545" lon="6.77132">
        <ele>489.6</ele>
        <time>2014-11-02T10:28:51.000Z</time>
      </trkpt>
      <trkpt lat="47.41541" lon="6.77132">
        <ele>489.9</ele>
        <time>2014-11-02T10:28:53.000Z</time>
      </trkpt>
      <trkpt lat="47.41539" lon="6.77133">
        <ele>489.8</ele>
        <time>2014-11-02T10:28:54.000Z</time>
      </trkpt>
      <trkpt lat="47.41536" lon="6.77135">
        <ele>489.3</ele>
        <time>2014-11-02T10:28:55.000Z</time>
      </trkpt>
      <trkpt lat="47.41534" lon="6.77135">
        <ele>489.8</ele>
        <time>2014-11-02T10:28:56.000Z</time>
      </trkpt>
      <trkpt lat="47.4153" lon="6.77135">
        <ele>488</ele>
        <time>2014-11-02T10:28:57.000Z</time>
      </trkpt>
      <trkpt lat="47.41526" lon="6.77136">
        <ele>488.4</ele>
        <time>2014-11-02T10:28:58.000Z</time>
      </trkpt>
      <trkpt lat="47.41523" lon="6.77137">
        <ele>488</ele>
        <time>2014-11-02T10:28:59.000Z</time>
      </trkpt>
      <trkpt lat="47.41519" lon="6.77137">
        <ele>486.9</ele>
        <time>2014-11-02T10:29:00.000Z</time>
      </trkpt>
      <trkpt lat="47.41517" lon="6.77138">
        <ele>485.8</ele>
        <time>2014-11-02T10:29:01.000Z</time>
      </trkpt>
      <trkpt lat="47.41514" lon="6.77138">
        <ele>485.4</ele>
        <time>2014-11-02T10:29:02.000Z</time>
      </trkpt>
      <trkpt lat="47.41511" lon="6.77138">
        <ele>484.7</ele>
        <time>2014-11-02T10:29:03.000Z</time>
      </trkpt>
      <trkpt lat="47.41503" lon="6.77138">
        <ele>484</ele>
        <time>2014-11-02T10:29:06.000Z</time>
      </trkpt>
      <trkpt lat="47.41499" lon="6.77137">
        <ele>484.5</ele>
        <time>2014-11-02T10:29:07.000Z</time>
      </trkpt>
      <trkpt lat="47.41496" lon="6.77137">
        <ele>486.2</ele>
        <time>2014-11-02T10:29:08.000Z</time>
      </trkpt>
      <trkpt lat="47.41493" lon="6.77136">
        <ele>485.2</ele>
        <time>2014-11-02T10:29:09.000Z</time>
      </trkpt>
      <trkpt lat="47.4149" lon="6.77136">
        <ele>485.6</ele>
        <time>2014-11-02T10:29:10.000Z</time>
      </trkpt>
      <trkpt lat="47.41488" lon="6.77135">
        <ele>485.2</ele>
        <time>2014-11-02T10:29:11.000Z</time>
      </trkpt>
      <trkpt lat="47.41485" lon="6.77135">
        <ele>485.3</ele>
        <time>2014-11-02T10:29:12.000Z</time>
      </trkpt>
      <trkpt lat="47.41482" lon="6.77135">
        <ele>485.1</ele>
        <time>2014-11-02T10:29:13.000Z</time>
      </trkpt>
      <trkpt lat="47.4148" lon="6.77135">
        <ele>485.1</ele>
        <time>2014-11-02T10:29:14.000Z</time>
      </trkpt>
      <trkpt lat="47.41478" lon="6.77134">
        <ele>484.3</ele>
        <time>2014-11-02T10:29:15.000Z</time>
      </trkpt>
      <trkpt lat="47.41476" lon="6.77134">
        <ele>483.8</ele>
        <time>2014-11-02T10:29:16.000Z</time>
      </trkpt>
      <trkpt lat="47.41473" lon="6.77133">
        <ele>483.1</ele>
        <time>2014-11-02T10:29:17.000Z</time>
      </trkpt>
      <trkpt lat="47.41471" lon="6.77132">
        <ele>483</ele>
        <time>2014-11-02T10:29:18.000Z</time>
      </trkpt>
      <trkpt lat="47.41467" lon="6.7713">
        <ele>484.2</ele>
        <time>2014-11-02T10:29:20.000Z</time>
      </trkpt>
      <trkpt lat="47.41465" lon="6.77129">
        <ele>485.7</ele>
        <time>2014-11-02T10:29:21.000Z</time>
      </trkpt>
      <trkpt lat="47.41462" lon="6.77127">
        <ele>485.7</ele>
        <time>2014-11-02T10:29:22.000Z</time>
      </trkpt>
      <trkpt lat="47.4146" lon="6.77126">
        <ele>486</ele>
        <time>2014-11-02T10:29:23.000Z</time>
      </trkpt>
      <trkpt lat="47.41457" lon="6.77124">
        <ele>486.2</ele>
        <time>2014-11-02T10:29:24.000Z</time>
      </trkpt>
      <trkpt lat="47.41454" lon="6.77123">
        <ele>487</ele>
        <time>2014-11-02T10:29:25.000Z</time>
      </trkpt>
      <trkpt lat="47.41452" lon="6.77122">
        <ele>486.4</ele>
        <time>2014-11-02T10:29:26.000Z</time>
      </trkpt>
      <trkpt lat="47.41449" lon="6.7712">
        <ele>485.7</ele>
        <time>2014-11-02T10:29:27.000Z</time>
      </trkpt>
      <trkpt lat="47.41447" lon="6.77119">
        <ele>484.7</ele>
        <time>2014-11-02T10:29:28.000Z</time>
      </trkpt>
      <trkpt lat="47.41445" lon="6.77117">
        <ele>485.1</ele>
        <time>2014-11-02T10:29:29.000Z</time>
      </trkpt>
      <trkpt lat="47.41442" lon="6.77112">
        <ele>485</ele>
        <time>2014-11-02T10:29:31.000Z</time>
      </trkpt>
      <trkpt lat="47.4144" lon="6.7711">
        <ele>485.6</ele>
        <time>2014-11-02T10:29:32.000Z</time>
      </trkpt>
      <trkpt lat="47.41437" lon="6.77108">
        <ele>484.6</ele>
        <time>2014-11-02T10:29:34.000Z</time>
      </trkpt>
      <trkpt lat="47.41434" lon="6.77106">
        <ele>484.3</ele>
        <time>2014-11-02T10:29:35.000Z</time>
      </trkpt>
      <trkpt lat="47.41432" lon="6.77104">
        <ele>484.2</ele>
        <time>2014-11-02T10:29:36.000Z</time>
      </trkpt>
      <trkpt lat="47.4143" lon="6.77102">
        <ele>484.5</ele>
        <time>2014-11-02T10:29:37.000Z</time>
      </trkpt>
      <trkpt lat="47.41426" lon="6.77099">
        <ele>486</ele>
        <time>2014-11-02T10:29:39.000Z</time>
      </trkpt>
      <trkpt lat="47.41425" lon="6.77096">
        <ele>485.4</ele>
        <time>2014-11-02T10:29:40.000Z</time>
      </trkpt>
      <trkpt lat="47.41423" lon="6.77094">
        <ele>486.4</ele>
        <time>2014-11-02T10:29:41.000Z</time>
      </trkpt>
      <trkpt lat="47.41421" lon="6.77092">
        <ele>486.6</ele>
        <time>2014-11-02T10:29:42.000Z</time>
      </trkpt>
      <trkpt lat="47.41418" lon="6.77089">
        <ele>483.8</ele>
        <time>2014-11-02T10:29:43.000Z</time>
      </trkpt>
      <trkpt lat="47.41416" lon="6.77087">
        <ele>484.7</ele>
        <time>2014-11-02T10:29:44.000Z</time>
      </trkpt>
      <trkpt lat="47.41414" lon="6.77084">
        <ele>487.1</ele>
        <time>2014-11-02T10:29:45.000Z</time>
      </trkpt>
      <trkpt lat="47.41412" lon="6.77082">
        <ele>488.3</ele>
        <time>2014-11-02T10:29:46.000Z</time>
      </trkpt>
      <trkpt lat="47.41409" lon="6.77077">
        <ele>488.7</ele>
        <time>2014-11-02T10:29:48.000Z</time>
      </trkpt>
      <trkpt lat="47.41407" lon="6.77075">
        <ele>489</ele>
        <time>2014-11-02T10:29:49.000Z</time>
      </trkpt>
      <trkpt lat="47.41404" lon="6.7707">
        <ele>490.9</ele>
        <time>2014-11-02T10:29:51.000Z</time>
      </trkpt>
      <trkpt lat="47.41403" lon="6.77068">
        <ele>491.6</ele>
        <time>2014-11-02T10:29:52.000Z</time>
      </trkpt>
      <trkpt lat="47.41401" lon="6.77066">
        <ele>492.2</ele>
        <time>2014-11-02T10:29:53.000Z</time>
      </trkpt>
      <trkpt lat="47.414" lon="6.77063">
        <ele>489.9</ele>
        <time>2014-11-02T10:29:54.000Z</time>
      </trkpt>
      <trkpt lat="47.41397" lon="6.77061">
        <ele>489.2</ele>
        <time>2014-11-02T10:29:55.000Z</time>
      </trkpt>
      <trkpt lat="47.41395" lon="6.77058">
        <ele>489.9</ele>
        <time>2014-11-02T10:29:56.000Z</time>
      </trkpt>
      <trkpt lat="47.41393" lon="6.77055">
        <ele>490.8</ele>
        <time>2014-11-02T10:29:57.000Z</time>
      </trkpt>
      <trkpt lat="47.41391" lon="6.77052">
        <ele>491.2</ele>
        <time>2014-11-02T10:29:58.000Z</time>
      </trkpt>
      <trkpt lat="47.41389" lon="6.77049">
        <ele>492.1</ele>
        <time>2014-11-02T10:29:59.000Z</time>
      </trkpt>
      <trkpt lat="47.41387" lon="6.77047">
        <ele>494.4</ele>
        <time>2014-11-02T10:30:00.000Z</time>
      </trkpt>
      <trkpt lat="47.41385" lon="6.77044">
        <ele>495.8</ele>
        <time>2014-11-02T10:30:01.000Z</time>
      </trkpt>
      <trkpt lat="47.41383" lon="6.77041">
        <ele>496.8</ele>
        <time>2014-11-02T10:30:02.000Z</time>
      </trkpt>
      <trkpt lat="47.41378" lon="6.77032">
        <ele>498.8</ele>
        <time>2014-11-02T10:30:05.000Z</time>
      </trkpt>
      <trkpt lat="47.41377" lon="6.77029">
        <ele>499.2</ele>
        <time>2014-11-02T10:30:06.000Z</time>
      </trkpt>
      <trkpt lat="47.41376" lon="6.77026">
        <ele>497.8</ele>
        <time>2014-11-02T10:30:07.000Z</time>
      </trkpt>
      <trkpt lat="47.41373" lon="6.7702">
        <ele>497.1</ele>
        <time>2014-11-02T10:30:09.000Z</time>
      </trkpt>
      <trkpt lat="47.41372" lon="6.77017">
        <ele>497.4</ele>
        <time>2014-11-02T10:30:10.000Z</time>
      </trkpt>
      <trkpt lat="47.4137" lon="6.77014">
        <ele>497.2</ele>
        <time>2014-11-02T10:30:11.000Z</time>
      </trkpt>
      <trkpt lat="47.41367" lon="6.77012">
        <ele>496.5</ele>
        <time>2014-11-02T10:30:12.000Z</time>
      </trkpt>
      <trkpt lat="47.41364" lon="6.7701">
        <ele>498.9</ele>
        <time>2014-11-02T10:30:13.000Z</time>
      </trkpt>
      <trkpt lat="47.4136" lon="6.77009">
        <ele>500.3</ele>
        <time>2014-11-02T10:30:14.000Z</time>
      </trkpt>
      <trkpt lat="47.41355" lon="6.77009">
        <ele>500.2</ele>
        <time>2014-11-02T10:30:15.000Z</time>
      </trkpt>
      <trkpt lat="47.41351" lon="6.77009">
        <ele>500.3</ele>
        <time>2014-11-02T10:30:16.000Z</time>
      </trkpt>
      <trkpt lat="47.41347" lon="6.77009">
        <ele>498.4</ele>
        <time>2014-11-02T10:30:17.000Z</time>
      </trkpt>
      <trkpt lat="47.41343" lon="6.77009">
        <ele>497.3</ele>
        <time>2014-11-02T10:30:18.000Z</time>
      </trkpt>
      <trkpt lat="47.41338" lon="6.7701">
        <ele>495.3</ele>
        <time>2014-11-02T10:30:19.000Z</time>
      </trkpt>
      <trkpt lat="47.41333" lon="6.7701">
        <ele>493.3</ele>
        <time>2014-11-02T10:30:20.000Z</time>
      </trkpt>
      <trkpt lat="47.41327" lon="6.7701">
        <ele>491</ele>
        <time>2014-11-02T10:30:21.000Z</time>
      </trkpt>
      <trkpt lat="47.41321" lon="6.7701">
        <ele>490.9</ele>
        <time>2014-11-02T10:30:22.000Z</time>
      </trkpt>
      <trkpt lat="47.41316" lon="6.7701">
        <ele>492.1</ele>
        <time>2014-11-02T10:30:23.000Z</time>
      </trkpt>
      <trkpt lat="47.41312" lon="6.7701">
        <ele>492.1</ele>
        <time>2014-11-02T10:30:24.000Z</time>
      </trkpt>
      <trkpt lat="47.41308" lon="6.7701">
        <ele>492.1</ele>
        <time>2014-11-02T10:30:25.000Z</time>
      </trkpt>
      <trkpt lat="47.41304" lon="6.7701">
        <ele>492.8</ele>
        <time>2014-11-02T10:30:26.000Z</time>
      </trkpt>
      <trkpt lat="47.41301" lon="6.77009">
        <ele>493.2</ele>
        <time>2014-11-02T10:30:27.000Z</time>
      </trkpt>
      <trkpt lat="47.41299" lon="6.77008">
        <ele>493</ele>
        <time>2014-11-02T10:30:28.000Z</time>
      </trkpt>
      <trkpt lat="47.41296" lon="6.77005">
        <ele>494.4</ele>
        <time>2014-11-02T10:30:29.000Z</time>
      </trkpt>
      <trkpt lat="47.41294" lon="6.77003">
        <ele>495.4</ele>
        <time>2014-11-02T10:30:30.000Z</time>
      </trkpt>
      <trkpt lat="47.41292" lon="6.77">
        <ele>495.4</ele>
        <time>2014-11-02T10:30:31.000Z</time>
      </trkpt>
      <trkpt lat="47.41289" lon="6.76997">
        <ele>495.3</ele>
        <time>2014-11-02T10:30:32.000Z</time>
      </trkpt>
      <trkpt lat="47.41287" lon="6.76994">
        <ele>495.4</ele>
        <time>2014-11-02T10:30:33.000Z</time>
      </trkpt>
      <trkpt lat="47.41284" lon="6.76991">
        <ele>497.3</ele>
        <time>2014-11-02T10:30:34.000Z</time>
      </trkpt>
      <trkpt lat="47.41282" lon="6.76989">
        <ele>497.4</ele>
        <time>2014-11-02T10:30:35.000Z</time>
      </trkpt>
      <trkpt lat="47.4128" lon="6.76985">
        <ele>498.3</ele>
        <time>2014-11-02T10:30:36.000Z</time>
      </trkpt>
      <trkpt lat="47.41279" lon="6.76982">
        <ele>498</ele>
        <time>2014-11-02T10:30:37.000Z</time>
      </trkpt>
      <trkpt lat="47.41278" lon="6.76978">
        <ele>497.3</ele>
        <time>2014-11-02T10:30:38.000Z</time>
      </trkpt>
      <trkpt lat="47.41276" lon="6.76975">
        <ele>497.5</ele>
        <time>2014-11-02T10:30:39.000Z</time>
      </trkpt>
      <trkpt lat="47.41273" lon="6.76972">
        <ele>498.3</ele>
        <time>2014-11-02T10:30:40.000Z</time>
      </trkpt>
      <trkpt lat="47.4127" lon="6.76969">
        <ele>498.1</ele>
        <time>2014-11-02T10:30:41.000Z</time>
      </trkpt>
      <trkpt lat="47.41267" lon="6.76966">
        <ele>498.9</ele>
        <time>2014-11-02T10:30:42.000Z</time>
      </trkpt>
      <trkpt lat="47.41265" lon="6.76963">
        <ele>499</ele>
        <time>2014-11-02T10:30:43.000Z</time>
      </trkpt>
      <trkpt lat="47.41262" lon="6.76959">
        <ele>498.3</ele>
        <time>2014-11-02T10:30:44.000Z</time>
      </trkpt>
      <trkpt lat="47.41259" lon="6.76956">
        <ele>499</ele>
        <time>2014-11-02T10:30:45.000Z</time>
      </trkpt>
      <trkpt lat="47.41256" lon="6.76954">
        <ele>499.2</ele>
        <time>2014-11-02T10:30:46.000Z</time>
      </trkpt>
      <trkpt lat="47.41253" lon="6.76951">
        <ele>500</ele>
        <time>2014-11-02T10:30:47.000Z</time>
      </trkpt>
      <trkpt lat="47.4125" lon="6.76949">
        <ele>499.9</ele>
        <time>2014-11-02T10:30:48.000Z</time>
      </trkpt>
      <trkpt lat="47.41246" lon="6.76947">
        <ele>501.5</ele>
        <time>2014-11-02T10:30:49.000Z</time>
      </trkpt>
      <trkpt lat="47.41243" lon="6.76945">
        <ele>502.1</ele>
        <time>2014-11-02T10:30:50.000Z</time>
      </trkpt>
      <trkpt lat="47.41241" lon="6.76942">
        <ele>502.7</ele>
        <time>2014-11-02T10:30:51.000Z</time>
      </trkpt>
      <trkpt lat="47.41238" lon="6.7694">
        <ele>502.7</ele>
        <time>2014-11-02T10:30:52.000Z</time>
      </trkpt>
      <trkpt lat="47.41235" lon="6.76937">
        <ele>502.9</ele>
        <time>2014-11-02T10:30:53.000Z</time>
      </trkpt>
      <trkpt lat="47.41233" lon="6.76934">
        <ele>503.1</ele>
        <time>2014-11-02T10:30:54.000Z</time>
      </trkpt>
      <trkpt lat="47.41231" lon="6.76932">
        <ele>504.9</ele>
        <time>2014-11-02T10:30:55.000Z</time>
      </trkpt>
      <trkpt lat="47.41229" lon="6.7693">
        <ele>505.8</ele>
        <time>2014-11-02T10:30:56.000Z</time>
      </trkpt>
      <trkpt lat="47.41227" lon="6.76927">
        <ele>504.8</ele>
        <time>2014-11-02T10:30:57.000Z</time>
      </trkpt>
      <trkpt lat="47.41225" lon="6.76925">
        <ele>505.6</ele>
        <time>2014-11-02T10:30:58.000Z</time>
      </trkpt>
      <trkpt lat="47.41223" lon="6.76922">
        <ele>504.2</ele>
        <time>2014-11-02T10:30:59.000Z</time>
      </trkpt>
      <trkpt lat="47.41221" lon="6.7692">
        <ele>503.3</ele>
        <time>2014-11-02T10:31:00.000Z</time>
      </trkpt>
      <trkpt lat="47.41219" lon="6.76918">
        <ele>502.8</ele>
        <time>2014-11-02T10:31:01.000Z</time>
      </trkpt>
      <trkpt lat="47.41217" lon="6.76915">
        <ele>502.5</ele>
        <time>2014-11-02T10:31:02.000Z</time>
      </trkpt>
      <trkpt lat="47.41215" lon="6.76913">
        <ele>502.3</ele>
        <time>2014-11-02T10:31:03.000Z</time>
      </trkpt>
      <trkpt lat="47.41209" lon="6.76907">
        <ele>503.3</ele>
        <time>2014-11-02T10:31:06.000Z</time>
      </trkpt>
      <trkpt lat="47.41206" lon="6.76905">
        <ele>503.8</ele>
        <time>2014-11-02T10:31:07.000Z</time>
      </trkpt>
      <trkpt lat="47.41204" lon="6.76903">
        <ele>503.9</ele>
        <time>2014-11-02T10:31:08.000Z</time>
      </trkpt>
      <trkpt lat="47.41201" lon="6.769">
        <ele>504</ele>
        <time>2014-11-02T10:31:09.000Z</time>
      </trkpt>
      <trkpt lat="47.41199" lon="6.76898">
        <ele>503.4</ele>
        <time>2014-11-02T10:31:10.000Z</time>
      </trkpt>
      <trkpt lat="47.41197" lon="6.76895">
        <ele>503.3</ele>
        <time>2014-11-02T10:31:11.000Z</time>
      </trkpt>
      <trkpt lat="47.41195" lon="6.76893">
        <ele>504.4</ele>
        <time>2014-11-02T10:31:12.000Z</time>
      </trkpt>
      <trkpt lat="47.41193" lon="6.7689">
        <ele>504.9</ele>
        <time>2014-11-02T10:31:13.000Z</time>
      </trkpt>
      <trkpt lat="47.41191" lon="6.76888">
        <ele>504.1</ele>
        <time>2014-11-02T10:31:14.000Z</time>
      </trkpt>
      <trkpt lat="47.41189" lon="6.76885">
        <ele>504.7</ele>
        <time>2014-11-02T10:31:15.000Z</time>
      </trkpt>
      <trkpt lat="47.41187" lon="6.76883">
        <ele>504.9</ele>
        <time>2014-11-02T10:31:16.000Z</time>
      </trkpt>
      <trkpt lat="47.41185" lon="6.76881">
        <ele>504.4</ele>
        <time>2014-11-02T10:31:17.000Z</time>
      </trkpt>
      <trkpt lat="47.41183" lon="6.76879">
        <ele>503.8</ele>
        <time>2014-11-02T10:31:18.000Z</time>
      </trkpt>
      <trkpt lat="47.4118" lon="6.76876">
        <ele>503.3</ele>
        <time>2014-11-02T10:31:19.000Z</time>
      </trkpt>
      <trkpt lat="47.41178" lon="6.76874">
        <ele>503.8</ele>
        <time>2014-11-02T10:31:20.000Z</time>
      </trkpt>
      <trkpt lat="47.41175" lon="6.76872">
        <ele>503.4</ele>
        <time>2014-11-02T10:31:21.000Z</time>
      </trkpt>
      <trkpt lat="47.41173" lon="6.7687">
        <ele>503.7</ele>
        <time>2014-11-02T10:31:22.000Z</time>
      </trkpt>
      <trkpt lat="47.4117" lon="6.76868">
        <ele>503.4</ele>
        <time>2014-11-02T10:31:23.000Z</time>
      </trkpt>
      <trkpt lat="47.41168" lon="6.76866">
        <ele>503.5</ele>
        <time>2014-11-02T10:31:24.000Z</time>
      </trkpt>
      <trkpt lat="47.41166" lon="6.76863">
        <ele>504</ele>
        <time>2014-11-02T10:31:25.000Z</time>
      </trkpt>
      <trkpt lat="47.41164" lon="6.7686">
        <ele>504.7</ele>
        <time>2014-11-02T10:31:26.000Z</time>
      </trkpt>
      <trkpt lat="47.41162" lon="6.76857">
        <ele>504.9</ele>
        <time>2014-11-02T10:31:27.000Z</time>
      </trkpt>
      <trkpt lat="47.4116" lon="6.76854">
        <ele>504.9</ele>
        <time>2014-11-02T10:31:28.000Z</time>
      </trkpt>
      <trkpt lat="47.41158" lon="6.76851">
        <ele>508.9</ele>
        <time>2014-11-02T10:31:29.000Z</time>
      </trkpt>
      <trkpt lat="47.41157" lon="6.76848">
        <ele>509.4</ele>
        <time>2014-11-02T10:31:30.000Z</time>
      </trkpt>
      <trkpt lat="47.41157" lon="6.76844">
        <ele>510.2</ele>
        <time>2014-11-02T10:31:31.000Z</time>
      </trkpt>
      <trkpt lat="47.41156" lon="6.76841">
        <ele>510.2</ele>
        <time>2014-11-02T10:31:32.000Z</time>
      </trkpt>
      <trkpt lat="47.41155" lon="6.76837">
        <ele>510.7</ele>
        <time>2014-11-02T10:31:33.000Z</time>
      </trkpt>
      <trkpt lat="47.41154" lon="6.76834">
        <ele>510.8</ele>
        <time>2014-11-02T10:31:34.000Z</time>
      </trkpt>
      <trkpt lat="47.41153" lon="6.76831">
        <ele>511.8</ele>
        <time>2014-11-02T10:31:35.000Z</time>
      </trkpt>
      <trkpt lat="47.41152" lon="6.76828">
        <ele>512.4</ele>
        <time>2014-11-02T10:31:36.000Z</time>
      </trkpt>
      <trkpt lat="47.41151" lon="6.76824">
        <ele>513</ele>
        <time>2014-11-02T10:31:37.000Z</time>
      </trkpt>
      <trkpt lat="47.41149" lon="6.76821">
        <ele>513.5</ele>
        <time>2014-11-02T10:31:38.000Z</time>
      </trkpt>
      <trkpt lat="47.41148" lon="6.76817">
        <ele>513.2</ele>
        <time>2014-11-02T10:31:39.000Z</time>
      </trkpt>
      <trkpt lat="47.41146" lon="6.76814">
        <ele>512.7</ele>
        <time>2014-11-02T10:31:40.000Z</time>
      </trkpt>
      <trkpt lat="47.41145" lon="6.7681">
        <ele>512.7</ele>
        <time>2014-11-02T10:31:41.000Z</time>
      </trkpt>
      <trkpt lat="47.41143" lon="6.76807">
        <ele>512.1</ele>
        <time>2014-11-02T10:31:42.000Z</time>
      </trkpt>
      <trkpt lat="47.41143" lon="6.76803">
        <ele>512.5</ele>
        <time>2014-11-02T10:31:43.000Z</time>
      </trkpt>
      <trkpt lat="47.41142" lon="6.76799">
        <ele>513.8</ele>
        <time>2014-11-02T10:31:44.000Z</time>
      </trkpt>
      <trkpt lat="47.41142" lon="6.76795">
        <ele>514.9</ele>
        <time>2014-11-02T10:31:45.000Z</time>
      </trkpt>
      <trkpt lat="47.41143" lon="6.7679">
        <ele>515.1</ele>
        <time>2014-11-02T10:31:46.000Z</time>
      </trkpt>
      <trkpt lat="47.41143" lon="6.76786">
        <ele>515.1</ele>
        <time>2014-11-02T10:31:47.000Z</time>
      </trkpt>
      <trkpt lat="47.41143" lon="6.76782">
        <ele>514.8</ele>
        <time>2014-11-02T10:31:48.000Z</time>
      </trkpt>
      <trkpt lat="47.41143" lon="6.76778">
        <ele>515.3</ele>
        <time>2014-11-02T10:31:49.000Z</time>
      </trkpt>
      <trkpt lat="47.41143" lon="6.76774">
        <ele>515.2</ele>
        <time>2014-11-02T10:31:50.000Z</time>
      </trkpt>
      <trkpt lat="47.41145" lon="6.76768">
        <ele>516</ele>
        <time>2014-11-02T10:31:52.000Z</time>
      </trkpt>
      <trkpt lat="47.41146" lon="6.76765">
        <ele>515.8</ele>
        <time>2014-11-02T10:31:53.000Z</time>
      </trkpt>
      <trkpt lat="47.41147" lon="6.76762">
        <ele>514.9</ele>
        <time>2014-11-02T10:31:54.000Z</time>
      </trkpt>
      <trkpt lat="47.41148" lon="6.76759">
        <ele>515.5</ele>
        <time>2014-11-02T10:31:55.000Z</time>
      </trkpt>
      <trkpt lat="47.41148" lon="6.76755">
        <ele>518.8</ele>
        <time>2014-11-02T10:31:56.000Z</time>
      </trkpt>
      <trkpt lat="47.41149" lon="6.76751">
        <ele>519.5</ele>
        <time>2014-11-02T10:31:57.000Z</time>
      </trkpt>
      <trkpt lat="47.4115" lon="6.76748">
        <ele>519.8</ele>
        <time>2014-11-02T10:31:58.000Z</time>
      </trkpt>
      <trkpt lat="47.41151" lon="6.76745">
        <ele>520.1</ele>
        <time>2014-11-02T10:31:59.000Z</time>
      </trkpt>
      <trkpt lat="47.41153" lon="6.76743">
        <ele>520.4</ele>
        <time>2014-11-02T10:32:00.000Z</time>
      </trkpt>
      <trkpt lat="47.41154" lon="6.76739">
        <ele>519.7</ele>
        <time>2014-11-02T10:32:01.000Z</time>
      </trkpt>
      <trkpt lat="47.41156" lon="6.76736">
        <ele>519.5</ele>
        <time>2014-11-02T10:32:02.000Z</time>
      </trkpt>
      <trkpt lat="47.4116" lon="6.76726">
        <ele>519</ele>
        <time>2014-11-02T10:32:05.000Z</time>
      </trkpt>
      <trkpt lat="47.41161" lon="6.76722">
        <ele>520.8</ele>
        <time>2014-11-02T10:32:06.000Z</time>
      </trkpt>
      <trkpt lat="47.41161" lon="6.76719">
        <ele>522.3</ele>
        <time>2014-11-02T10:32:07.000Z</time>
      </trkpt>
      <trkpt lat="47.4116" lon="6.76713">
        <ele>522.6</ele>
        <time>2014-11-02T10:32:09.000Z</time>
      </trkpt>
      <trkpt lat="47.4116" lon="6.7671">
        <ele>523.4</ele>
        <time>2014-11-02T10:32:10.000Z</time>
      </trkpt>
      <trkpt lat="47.41159" lon="6.76707">
        <ele>525.6</ele>
        <time>2014-11-02T10:32:11.000Z</time>
      </trkpt>
      <trkpt lat="47.41157" lon="6.76704">
        <ele>526.3</ele>
        <time>2014-11-02T10:32:12.000Z</time>
      </trkpt>
      <trkpt lat="47.41156" lon="6.76701">
        <ele>526</ele>
        <time>2014-11-02T10:32:13.000Z</time>
      </trkpt>
      <trkpt lat="47.41154" lon="6.76698">
        <ele>527.9</ele>
        <time>2014-11-02T10:32:14.000Z</time>
      </trkpt>
      <trkpt lat="47.41152" lon="6.76696">
        <ele>529.3</ele>
        <time>2014-11-02T10:32:15.000Z</time>
      </trkpt>
      <trkpt lat="47.41151" lon="6.76693">
        <ele>529.9</ele>
        <time>2014-11-02T10:32:16.000Z</time>
      </trkpt>
      <trkpt lat="47.41148" lon="6.76689">
        <ele>530.6</ele>
        <time>2014-11-02T10:32:18.000Z</time>
      </trkpt>
      <trkpt lat="47.41147" lon="6.76686">
        <ele>530.4</ele>
        <time>2014-11-02T10:32:19.000Z</time>
      </trkpt>
      <trkpt lat="47.41146" lon="6.76681">
        <ele>531.9</ele>
        <time>2014-11-02T10:32:21.000Z</time>
      </trkpt>
      <trkpt lat="47.41145" lon="6.76678">
        <ele>532.8</ele>
        <time>2014-11-02T10:32:22.000Z</time>
      </trkpt>
      <trkpt lat="47.41144" lon="6.76672">
        <ele>532.9</ele>
        <time>2014-11-02T10:32:24.000Z</time>
      </trkpt>
      <trkpt lat="47.41143" lon="6.76668">
        <ele>533.7</ele>
        <time>2014-11-02T10:32:25.000Z</time>
      </trkpt>
      <trkpt lat="47.41142" lon="6.76664">
        <ele>533.7</ele>
        <time>2014-11-02T10:32:26.000Z</time>
      </trkpt>
      <trkpt lat="47.4114" lon="6.7666">
        <ele>534.2</ele>
        <time>2014-11-02T10:32:27.000Z</time>
      </trkpt>
      <trkpt lat="47.41139" lon="6.76656">
        <ele>534.3</ele>
        <time>2014-11-02T10:32:28.000Z</time>
      </trkpt>
      <trkpt lat="47.41138" lon="6.76652">
        <ele>534.4</ele>
        <time>2014-11-02T10:32:29.000Z</time>
      </trkpt>
      <trkpt lat="47.41137" lon="6.76649">
        <ele>536.6</ele>
        <time>2014-11-02T10:32:30.000Z</time>
      </trkpt>
      <trkpt lat="47.41135" lon="6.76646">
        <ele>536.9</ele>
        <time>2014-11-02T10:32:31.000Z</time>
      </trkpt>
      <trkpt lat="47.41134" lon="6.76643">
        <ele>537.3</ele>
        <time>2014-11-02T10:32:32.000Z</time>
      </trkpt>
      <trkpt lat="47.41132" lon="6.7664">
        <ele>536.8</ele>
        <time>2014-11-02T10:32:33.000Z</time>
      </trkpt>
      <trkpt lat="47.41131" lon="6.76637">
        <ele>536</ele>
        <time>2014-11-02T10:32:34.000Z</time>
      </trkpt>
      <trkpt lat="47.41129" lon="6.76634">
        <ele>536.9</ele>
        <time>2014-11-02T10:32:35.000Z</time>
      </trkpt>
      <trkpt lat="47.41128" lon="6.76631">
        <ele>537.3</ele>
        <time>2014-11-02T10:32:36.000Z</time>
      </trkpt>
      <trkpt lat="47.41126" lon="6.76628">
        <ele>537.7</ele>
        <time>2014-11-02T10:32:37.000Z</time>
      </trkpt>
      <trkpt lat="47.41125" lon="6.76624">
        <ele>537.7</ele>
        <time>2014-11-02T10:32:38.000Z</time>
      </trkpt>
      <trkpt lat="47.41124" lon="6.76621">
        <ele>537.2</ele>
        <time>2014-11-02T10:32:39.000Z</time>
      </trkpt>
      <trkpt lat="47.41122" lon="6.76616">
        <ele>535.1</ele>
        <time>2014-11-02T10:32:41.000Z</time>
      </trkpt>
      <trkpt lat="47.41122" lon="6.76613">
        <ele>535.1</ele>
        <time>2014-11-02T10:32:42.000Z</time>
      </trkpt>
      <trkpt lat="47.4112" lon="6.7661">
        <ele>536</ele>
        <time>2014-11-02T10:32:43.000Z</time>
      </trkpt>
      <trkpt lat="47.41118" lon="6.76607">
        <ele>535.6</ele>
        <time>2014-11-02T10:32:44.000Z</time>
      </trkpt>
      <trkpt lat="47.41116" lon="6.76603">
        <ele>535.9</ele>
        <time>2014-11-02T10:32:45.000Z</time>
      </trkpt>
      <trkpt lat="47.41114" lon="6.76599">
        <ele>538.7</ele>
        <time>2014-11-02T10:32:46.000Z</time>
      </trkpt>
      <trkpt lat="47.41113" lon="6.76595">
        <ele>539.1</ele>
        <time>2014-11-02T10:32:47.000Z</time>
      </trkpt>
      <trkpt lat="47.41111" lon="6.76591">
        <ele>540.2</ele>
        <time>2014-11-02T10:32:48.000Z</time>
      </trkpt>
      <trkpt lat="47.4111" lon="6.76587">
        <ele>539.1</ele>
        <time>2014-11-02T10:32:49.000Z</time>
      </trkpt>
      <trkpt lat="47.41108" lon="6.76583">
        <ele>537.3</ele>
        <time>2014-11-02T10:32:50.000Z</time>
      </trkpt>
      <trkpt lat="47.41106" lon="6.76579">
        <ele>536.2</ele>
        <time>2014-11-02T10:32:51.000Z</time>
      </trkpt>
      <trkpt lat="47.41104" lon="6.76575">
        <ele>535</ele>
        <time>2014-11-02T10:32:52.000Z</time>
      </trkpt>
      <trkpt lat="47.41102" lon="6.76572">
        <ele>534.4</ele>
        <time>2014-11-02T10:32:53.000Z</time>
      </trkpt>
      <trkpt lat="47.41101" lon="6.76569">
        <ele>533.6</ele>
        <time>2014-11-02T10:32:54.000Z</time>
      </trkpt>
      <trkpt lat="47.411" lon="6.76566">
        <ele>534.1</ele>
        <time>2014-11-02T10:32:55.000Z</time>
      </trkpt>
      <trkpt lat="47.41098" lon="6.76562">
        <ele>536.2</ele>
        <time>2014-11-02T10:32:56.000Z</time>
      </trkpt>
      <trkpt lat="47.41098" lon="6.76559">
        <ele>536.1</ele>
        <time>2014-11-02T10:32:57.000Z</time>
      </trkpt>
      <trkpt lat="47.41097" lon="6.76555">
        <ele>536.5</ele>
        <time>2014-11-02T10:32:58.000Z</time>
      </trkpt>
      <trkpt lat="47.41096" lon="6.76549">
        <ele>536.5</ele>
        <time>2014-11-02T10:33:00.000Z</time>
      </trkpt>
      <trkpt lat="47.41096" lon="6.76546">
        <ele>536.7</ele>
        <time>2014-11-02T10:33:01.000Z</time>
      </trkpt>
      <trkpt lat="47.41096" lon="6.76544">
        <ele>537.2</ele>
        <time>2014-11-02T10:33:02.000Z</time>
      </trkpt>
      <trkpt lat="47.41097" lon="6.76538">
        <ele>537.5</ele>
        <time>2014-11-02T10:33:05.000Z</time>
      </trkpt>
      <trkpt lat="47.41096" lon="6.76535">
        <ele>536.7</ele>
        <time>2014-11-02T10:33:06.000Z</time>
      </trkpt>
      <trkpt lat="47.41095" lon="6.76532">
        <ele>536.6</ele>
        <time>2014-11-02T10:33:07.000Z</time>
      </trkpt>
      <trkpt lat="47.41093" lon="6.76529">
        <ele>536.5</ele>
        <time>2014-11-02T10:33:08.000Z</time>
      </trkpt>
      <trkpt lat="47.41091" lon="6.76526">
        <ele>536.7</ele>
        <time>2014-11-02T10:33:09.000Z</time>
      </trkpt>
      <trkpt lat="47.41089" lon="6.7652">
        <ele>538.3</ele>
        <time>2014-11-02T10:33:11.000Z</time>
      </trkpt>
      <trkpt lat="47.41088" lon="6.76517">
        <ele>538.6</ele>
        <time>2014-11-02T10:33:12.000Z</time>
      </trkpt>
      <trkpt lat="47.41087" lon="6.76514">
        <ele>538.7</ele>
        <time>2014-11-02T10:33:13.000Z</time>
      </trkpt>
      <trkpt lat="47.41086" lon="6.76511">
        <ele>539.6</ele>
        <time>2014-11-02T10:33:14.000Z</time>
      </trkpt>
      <trkpt lat="47.41084" lon="6.76505">
        <ele>539.7</ele>
        <time>2014-11-02T10:33:16.000Z</time>
      </trkpt>
      <trkpt lat="47.41083" lon="6.76502">
        <ele>540.1</ele>
        <time>2014-11-02T10:33:17.000Z</time>
      </trkpt>
      <trkpt lat="47.41081" lon="6.765">
        <ele>539.7</ele>
        <time>2014-11-02T10:33:18.000Z</time>
      </trkpt>
      <trkpt lat="47.4108" lon="6.76496">
        <ele>537.9</ele>
        <time>2014-11-02T10:33:19.000Z</time>
      </trkpt>
      <trkpt lat="47.41078" lon="6.76493">
        <ele>537.2</ele>
        <time>2014-11-02T10:33:20.000Z</time>
      </trkpt>
      <trkpt lat="47.41076" lon="6.76489">
        <ele>536.5</ele>
        <time>2014-11-02T10:33:21.000Z</time>
      </trkpt>
      <trkpt lat="47.41074" lon="6.76486">
        <ele>536.7</ele>
        <time>2014-11-02T10:33:22.000Z</time>
      </trkpt>
      <trkpt lat="47.41073" lon="6.76483">
        <ele>538.4</ele>
        <time>2014-11-02T10:33:23.000Z</time>
      </trkpt>
      <trkpt lat="47.41071" lon="6.76477">
        <ele>536.2</ele>
        <time>2014-11-02T10:33:25.000Z</time>
      </trkpt>
      <trkpt lat="47.4107" lon="6.76475">
        <ele>535.6</ele>
        <time>2014-11-02T10:33:26.000Z</time>
      </trkpt>
      <trkpt lat="47.41068" lon="6.76469">
        <ele>536.4</ele>
        <time>2014-11-02T10:33:28.000Z</time>
      </trkpt>
      <trkpt lat="47.41066" lon="6.76467">
        <ele>537.6</ele>
        <time>2014-11-02T10:33:29.000Z</time>
      </trkpt>
      <trkpt lat="47.41065" lon="6.76464">
        <ele>538</ele>
        <time>2014-11-02T10:33:30.000Z</time>
      </trkpt>
      <trkpt lat="47.41063" lon="6.76461">
        <ele>537.6</ele>
        <time>2014-11-02T10:33:31.000Z</time>
      </trkpt>
      <trkpt lat="47.41061" lon="6.76457">
        <ele>537.6</ele>
        <time>2014-11-02T10:33:32.000Z</time>
      </trkpt>
      <trkpt lat="47.4106" lon="6.76453">
        <ele>537.5</ele>
        <time>2014-11-02T10:33:33.000Z</time>
      </trkpt>
      <trkpt lat="47.41059" lon="6.76449">
        <ele>537.3</ele>
        <time>2014-11-02T10:33:34.000Z</time>
      </trkpt>
      <trkpt lat="47.41058" lon="6.76446">
        <ele>538.9</ele>
        <time>2014-11-02T10:33:35.000Z</time>
      </trkpt>
      <trkpt lat="47.41057" lon="6.7644">
        <ele>540.1</ele>
        <time>2014-11-02T10:33:37.000Z</time>
      </trkpt>
      <trkpt lat="47.41057" lon="6.76437">
        <ele>540.4</ele>
        <time>2014-11-02T10:33:38.000Z</time>
      </trkpt>
      <trkpt lat="47.41057" lon="6.76433">
        <ele>540.4</ele>
        <time>2014-11-02T10:33:39.000Z</time>
      </trkpt>
      <trkpt lat="47.41057" lon="6.7643">
        <ele>541.3</ele>
        <time>2014-11-02T10:33:40.000Z</time>
      </trkpt>
      <trkpt lat="47.41057" lon="6.76427">
        <ele>542.4</ele>
        <time>2014-11-02T10:33:41.000Z</time>
      </trkpt>
      <trkpt lat="47.41057" lon="6.76423">
        <ele>542.5</ele>
        <time>2014-11-02T10:33:42.000Z</time>
      </trkpt>
      <trkpt lat="47.41058" lon="6.76417">
        <ele>543.1</ele>
        <time>2014-11-02T10:33:44.000Z</time>
      </trkpt>
      <trkpt lat="47.41058" lon="6.76414">
        <ele>543.4</ele>
        <time>2014-11-02T10:33:45.000Z</time>
      </trkpt>
      <trkpt lat="47.41059" lon="6.76407">
        <ele>545.2</ele>
        <time>2014-11-02T10:33:47.000Z</time>
      </trkpt>
      <trkpt lat="47.41059" lon="6.76404">
        <ele>545.2</ele>
        <time>2014-11-02T10:33:48.000Z</time>
      </trkpt>
      <trkpt lat="47.4106" lon="6.764">
        <ele>545.8</ele>
        <time>2014-11-02T10:33:49.000Z</time>
      </trkpt>
      <trkpt lat="47.4106" lon="6.76397">
        <ele>546.8</ele>
        <time>2014-11-02T10:33:50.000Z</time>
      </trkpt>
      <trkpt lat="47.41061" lon="6.76394">
        <ele>546.3</ele>
        <time>2014-11-02T10:33:51.000Z</time>
      </trkpt>
      <trkpt lat="47.41062" lon="6.7639">
        <ele>547.2</ele>
        <time>2014-11-02T10:33:52.000Z</time>
      </trkpt>
      <trkpt lat="47.41062" lon="6.76387">
        <ele>547.4</ele>
        <time>2014-11-02T10:33:53.000Z</time>
      </trkpt>
      <trkpt lat="47.41063" lon="6.76383">
        <ele>547.9</ele>
        <time>2014-11-02T10:33:54.000Z</time>
      </trkpt>
      <trkpt lat="47.41063" lon="6.76379">
        <ele>548.3</ele>
        <time>2014-11-02T10:33:55.000Z</time>
      </trkpt>
      <trkpt lat="47.41062" lon="6.76376">
        <ele>549.7</ele>
        <time>2014-11-02T10:33:56.000Z</time>
      </trkpt>
      <trkpt lat="47.41061" lon="6.76369">
        <ele>550.9</ele>
        <time>2014-11-02T10:33:58.000Z</time>
      </trkpt>
      <trkpt lat="47.4106" lon="6.76366">
        <ele>550.5</ele>
        <time>2014-11-02T10:33:59.000Z</time>
      </trkpt>
      <trkpt lat="47.4106" lon="6.76363">
        <ele>550.9</ele>
        <time>2014-11-02T10:34:00.000Z</time>
      </trkpt>
      <trkpt lat="47.41059" lon="6.76359">
        <ele>550.9</ele>
        <time>2014-11-02T10:34:01.000Z</time>
      </trkpt>
      <trkpt lat="47.41058" lon="6.76356">
        <ele>552.2</ele>
        <time>2014-11-02T10:34:02.000Z</time>
      </trkpt>
      <trkpt lat="47.41057" lon="6.76352">
        <ele>552.6</ele>
        <time>2014-11-02T10:34:03.000Z</time>
      </trkpt>
      <trkpt lat="47.41049" lon="6.76332">
        <ele>550.9</ele>
        <time>2014-11-02T10:34:11.000Z</time>
      </trkpt>
      <trkpt lat="47.41049" lon="6.76326">
        <ele>555.6</ele>
        <time>2014-11-02T10:34:13.000Z</time>
      </trkpt>
      <trkpt lat="47.41049" lon="6.76323">
        <ele>555.6</ele>
        <time>2014-11-02T10:34:14.000Z</time>
      </trkpt>
      <trkpt lat="47.41049" lon="6.76317">
        <ele>555.8</ele>
        <time>2014-11-02T10:34:16.000Z</time>
      </trkpt>
      <trkpt lat="47.41049" lon="6.76313">
        <ele>555.1</ele>
        <time>2014-11-02T10:34:17.000Z</time>
      </trkpt>
      <trkpt lat="47.41048" lon="6.76309">
        <ele>556.8</ele>
        <time>2014-11-02T10:34:18.000Z</time>
      </trkpt>
      <trkpt lat="47.41048" lon="6.76306">
        <ele>556.7</ele>
        <time>2014-11-02T10:34:19.000Z</time>
      </trkpt>
      <trkpt lat="47.41047" lon="6.76302">
        <ele>556.6</ele>
        <time>2014-11-02T10:34:20.000Z</time>
      </trkpt>
      <trkpt lat="47.41047" lon="6.76299">
        <ele>557.1</ele>
        <time>2014-11-02T10:34:21.000Z</time>
      </trkpt>
      <trkpt lat="47.41046" lon="6.76296">
        <ele>558</ele>
        <time>2014-11-02T10:34:22.000Z</time>
      </trkpt>
      <trkpt lat="47.41046" lon="6.76292">
        <ele>559.2</ele>
        <time>2014-11-02T10:34:23.000Z</time>
      </trkpt>
      <trkpt lat="47.41046" lon="6.76289">
        <ele>559.5</ele>
        <time>2014-11-02T10:34:24.000Z</time>
      </trkpt>
      <trkpt lat="47.41045" lon="6.76285">
        <ele>558.8</ele>
        <time>2014-11-02T10:34:25.000Z</time>
      </trkpt>
      <trkpt lat="47.41045" lon="6.76281">
        <ele>558.6</ele>
        <time>2014-11-02T10:34:26.000Z</time>
      </trkpt>
      <trkpt lat="47.41044" lon="6.76277">
        <ele>558.5</ele>
        <time>2014-11-02T10:34:27.000Z</time>
      </trkpt>
      <trkpt lat="47.41044" lon="6.76274">
        <ele>559.4</ele>
        <time>2014-11-02T10:34:28.000Z</time>
      </trkpt>
      <trkpt lat="47.41043" lon="6.76271">
        <ele>560.2</ele>
        <time>2014-11-02T10:34:29.000Z</time>
      </trkpt>
      <trkpt lat="47.41041" lon="6.76265">
        <ele>560.2</ele>
        <time>2014-11-02T10:34:31.000Z</time>
      </trkpt>
      <trkpt lat="47.4104" lon="6.76262">
        <ele>561.1</ele>
        <time>2014-11-02T10:34:32.000Z</time>
      </trkpt>
      <trkpt lat="47.41039" lon="6.76256">
        <ele>562.9</ele>
        <time>2014-11-02T10:34:34.000Z</time>
      </trkpt>
      <trkpt lat="47.41038" lon="6.76253">
        <ele>563.2</ele>
        <time>2014-11-02T10:34:35.000Z</time>
      </trkpt>
      <trkpt lat="47.41036" lon="6.76247">
        <ele>564.9</ele>
        <time>2014-11-02T10:34:37.000Z</time>
      </trkpt>
      <trkpt lat="47.41035" lon="6.76244">
        <ele>566.2</ele>
        <time>2014-11-02T10:34:38.000Z</time>
      </trkpt>
      <trkpt lat="47.41035" lon="6.76238">
        <ele>567.1</ele>
        <time>2014-11-02T10:34:40.000Z</time>
      </trkpt>
      <trkpt lat="47.41034" lon="6.76235">
        <ele>567.1</ele>
        <time>2014-11-02T10:34:41.000Z</time>
      </trkpt>
      <trkpt lat="47.41034" lon="6.7623">
        <ele>565.4</ele>
        <time>2014-11-02T10:34:43.000Z</time>
      </trkpt>
      <trkpt lat="47.41034" lon="6.76227">
        <ele>565.5</ele>
        <time>2014-11-02T10:34:44.000Z</time>
      </trkpt>
      <trkpt lat="47.41033" lon="6.76223">
        <ele>565.5</ele>
        <time>2014-11-02T10:34:45.000Z</time>
      </trkpt>
      <trkpt lat="47.41033" lon="6.7622">
        <ele>565</ele>
        <time>2014-11-02T10:34:46.000Z</time>
      </trkpt>
      <trkpt lat="47.41032" lon="6.76216">
        <ele>564.6</ele>
        <time>2014-11-02T10:34:47.000Z</time>
      </trkpt>
      <trkpt lat="47.41032" lon="6.76212">
        <ele>563.3</ele>
        <time>2014-11-02T10:34:48.000Z</time>
      </trkpt>
      <trkpt lat="47.41031" lon="6.76208">
        <ele>560.8</ele>
        <time>2014-11-02T10:34:49.000Z</time>
      </trkpt>
      <trkpt lat="47.4103" lon="6.76204">
        <ele>559.5</ele>
        <time>2014-11-02T10:34:50.000Z</time>
      </trkpt>
      <trkpt lat="47.41029" lon="6.76199">
        <ele>559</ele>
        <time>2014-11-02T10:34:51.000Z</time>
      </trkpt>
      <trkpt lat="47.41028" lon="6.76195">
        <ele>558.2</ele>
        <time>2014-11-02T10:34:52.000Z</time>
      </trkpt>
      <trkpt lat="47.41028" lon="6.7619">
        <ele>558.7</ele>
        <time>2014-11-02T10:34:53.000Z</time>
      </trkpt>
      <trkpt lat="47.41027" lon="6.76185">
        <ele>559.5</ele>
        <time>2014-11-02T10:34:54.000Z</time>
      </trkpt>
      <trkpt lat="47.41026" lon="6.76181">
        <ele>560.6</ele>
        <time>2014-11-02T10:34:55.000Z</time>
      </trkpt>
      <trkpt lat="47.41026" lon="6.76177">
        <ele>561</ele>
        <time>2014-11-02T10:34:56.000Z</time>
      </trkpt>
      <trkpt lat="47.41025" lon="6.76172">
        <ele>562.4</ele>
        <time>2014-11-02T10:34:57.000Z</time>
      </trkpt>
      <trkpt lat="47.41025" lon="6.76168">
        <ele>562.7</ele>
        <time>2014-11-02T10:34:58.000Z</time>
      </trkpt>
      <trkpt lat="47.41026" lon="6.76164">
        <ele>563.2</ele>
        <time>2014-11-02T10:34:59.000Z</time>
      </trkpt>
      <trkpt lat="47.41025" lon="6.7616">
        <ele>562.7</ele>
        <time>2014-11-02T10:35:00.000Z</time>
      </trkpt>
      <trkpt lat="47.41025" lon="6.76155">
        <ele>563.1</ele>
        <time>2014-11-02T10:35:01.000Z</time>
      </trkpt>
      <trkpt lat="47.41025" lon="6.76151">
        <ele>562.8</ele>
        <time>2014-11-02T10:35:02.000Z</time>
      </trkpt>
      <trkpt lat="47.41025" lon="6.76147">
        <ele>563.4</ele>
        <time>2014-11-02T10:35:03.000Z</time>
      </trkpt>
      <trkpt lat="47.41024" lon="6.76136">
        <ele>565</ele>
        <time>2014-11-02T10:35:06.000Z</time>
      </trkpt>
      <trkpt lat="47.41024" lon="6.7613">
        <ele>565.3</ele>
        <time>2014-11-02T10:35:08.000Z</time>
      </trkpt>
      <trkpt lat="47.41023" lon="6.76127">
        <ele>565.5</ele>
        <time>2014-11-02T10:35:09.000Z</time>
      </trkpt>
      <trkpt lat="47.41022" lon="6.76122">
        <ele>567</ele>
        <time>2014-11-02T10:35:11.000Z</time>
      </trkpt>
      <trkpt lat="47.41022" lon="6.7612">
        <ele>566.4</ele>
        <time>2014-11-02T10:35:12.000Z</time>
      </trkpt>
      <trkpt lat="47.41021" lon="6.76114">
        <ele>565.8</ele>
        <time>2014-11-02T10:35:14.000Z</time>
      </trkpt>
      <trkpt lat="47.41021" lon="6.76111">
        <ele>566.6</ele>
        <time>2014-11-02T10:35:15.000Z</time>
      </trkpt>
      <trkpt lat="47.41022" lon="6.76107">
        <ele>567.4</ele>
        <time>2014-11-02T10:35:16.000Z</time>
      </trkpt>
      <trkpt lat="47.41022" lon="6.76104">
        <ele>567</ele>
        <time>2014-11-02T10:35:17.000Z</time>
      </trkpt>
      <trkpt lat="47.41023" lon="6.761">
        <ele>567.2</ele>
        <time>2014-11-02T10:35:18.000Z</time>
      </trkpt>
      <trkpt lat="47.41023" lon="6.76097">
        <ele>567.3</ele>
        <time>2014-11-02T10:35:19.000Z</time>
      </trkpt>
      <trkpt lat="47.41024" lon="6.7609">
        <ele>567.1</ele>
        <time>2014-11-02T10:35:21.000Z</time>
      </trkpt>
      <trkpt lat="47.41024" lon="6.76086">
        <ele>567.6</ele>
        <time>2014-11-02T10:35:22.000Z</time>
      </trkpt>
      <trkpt lat="47.41025" lon="6.76083">
        <ele>567.5</ele>
        <time>2014-11-02T10:35:23.000Z</time>
      </trkpt>
      <trkpt lat="47.41025" lon="6.76079">
        <ele>566.9</ele>
        <time>2014-11-02T10:35:24.000Z</time>
      </trkpt>
      <trkpt lat="47.41026" lon="6.76075">
        <ele>568.4</ele>
        <time>2014-11-02T10:35:25.000Z</time>
      </trkpt>
      <trkpt lat="47.41026" lon="6.76072">
        <ele>568.1</ele>
        <time>2014-11-02T10:35:26.000Z</time>
      </trkpt>
      <trkpt lat="47.41025" lon="6.76066">
        <ele>566.9</ele>
        <time>2014-11-02T10:35:28.000Z</time>
      </trkpt>
      <trkpt lat="47.41025" lon="6.76062">
        <ele>566.2</ele>
        <time>2014-11-02T10:35:29.000Z</time>
      </trkpt>
      <trkpt lat="47.41024" lon="6.76059">
        <ele>563.9</ele>
        <time>2014-11-02T10:35:30.000Z</time>
      </trkpt>
      <trkpt lat="47.41023" lon="6.76056">
        <ele>563.8</ele>
        <time>2014-11-02T10:35:31.000Z</time>
      </trkpt>
      <trkpt lat="47.41021" lon="6.76052">
        <ele>560.5</ele>
        <time>2014-11-02T10:35:32.000Z</time>
      </trkpt>
      <trkpt lat="47.4102" lon="6.76048">
        <ele>558.5</ele>
        <time>2014-11-02T10:35:33.000Z</time>
      </trkpt>
      <trkpt lat="47.41018" lon="6.76043">
        <ele>555.1</ele>
        <time>2014-11-02T10:35:34.000Z</time>
      </trkpt>
      <trkpt lat="47.41017" lon="6.76038">
        <ele>554.8</ele>
        <time>2014-11-02T10:35:35.000Z</time>
      </trkpt>
      <trkpt lat="47.41017" lon="6.76033">
        <ele>554.7</ele>
        <time>2014-11-02T10:35:36.000Z</time>
      </trkpt>
      <trkpt lat="47.41016" lon="6.76029">
        <ele>554.6</ele>
        <time>2014-11-02T10:35:37.000Z</time>
      </trkpt>
      <trkpt lat="47.41016" lon="6.76026">
        <ele>554.4</ele>
        <time>2014-11-02T10:35:38.000Z</time>
      </trkpt>
      <trkpt lat="47.41016" lon="6.76022">
        <ele>553.2</ele>
        <time>2014-11-02T10:35:39.000Z</time>
      </trkpt>
      <trkpt lat="47.41016" lon="6.76019">
        <ele>554.6</ele>
        <time>2014-11-02T10:35:40.000Z</time>
      </trkpt>
      <trkpt lat="47.41016" lon="6.76015">
        <ele>554.7</ele>
        <time>2014-11-02T10:35:41.000Z</time>
      </trkpt>
      <trkpt lat="47.41016" lon="6.76011">
        <ele>555.6</ele>
        <time>2014-11-02T10:35:42.000Z</time>
      </trkpt>
      <trkpt lat="47.41016" lon="6.76007">
        <ele>556.1</ele>
        <time>2014-11-02T10:35:43.000Z</time>
      </trkpt>
      <trkpt lat="47.41016" lon="6.76003">
        <ele>555.2</ele>
        <time>2014-11-02T10:35:44.000Z</time>
      </trkpt>
      <trkpt lat="47.41016" lon="6.75999">
        <ele>554.9</ele>
        <time>2014-11-02T10:35:45.000Z</time>
      </trkpt>
      <trkpt lat="47.41015" lon="6.75996">
        <ele>554.6</ele>
        <time>2014-11-02T10:35:46.000Z</time>
      </trkpt>
      <trkpt lat="47.41016" lon="6.75993">
        <ele>555.5</ele>
        <time>2014-11-02T10:35:47.000Z</time>
      </trkpt>
      <trkpt lat="47.41017" lon="6.75987">
        <ele>556.1</ele>
        <time>2014-11-02T10:35:49.000Z</time>
      </trkpt>
      <trkpt lat="47.41018" lon="6.75983">
        <ele>556.3</ele>
        <time>2014-11-02T10:35:50.000Z</time>
      </trkpt>
      <trkpt lat="47.41018" lon="6.75977">
        <ele>555.9</ele>
        <time>2014-11-02T10:35:52.000Z</time>
      </trkpt>
      <trkpt lat="47.41018" lon="6.75974">
        <ele>555.4</ele>
        <time>2014-11-02T10:35:53.000Z</time>
      </trkpt>
      <trkpt lat="47.41018" lon="6.7597">
        <ele>554.5</ele>
        <time>2014-11-02T10:35:54.000Z</time>
      </trkpt>
      <trkpt lat="47.41018" lon="6.75967">
        <ele>554.4</ele>
        <time>2014-11-02T10:35:55.000Z</time>
      </trkpt>
      <trkpt lat="47.41017" lon="6.7596">
        <ele>554.8</ele>
        <time>2014-11-02T10:35:57.000Z</time>
      </trkpt>
      <trkpt lat="47.41018" lon="6.75957">
        <ele>554.8</ele>
        <time>2014-11-02T10:35:58.000Z</time>
      </trkpt>
      <trkpt lat="47.41018" lon="6.75952">
        <ele>554.9</ele>
        <time>2014-11-02T10:35:59.000Z</time>
      </trkpt>
      <trkpt lat="47.41019" lon="6.75948">
        <ele>554.7</ele>
        <time>2014-11-02T10:36:00.000Z</time>
      </trkpt>
      <trkpt lat="47.41019" lon="6.75944">
        <ele>556.4</ele>
        <time>2014-11-02T10:36:01.000Z</time>
      </trkpt>
      <trkpt lat="47.41019" lon="6.7594">
        <ele>555.6</ele>
        <time>2014-11-02T10:36:02.000Z</time>
      </trkpt>
      <trkpt lat="47.4102" lon="6.75936">
        <ele>555.2</ele>
        <time>2014-11-02T10:36:03.000Z</time>
      </trkpt>
      <trkpt lat="47.4102" lon="6.75925">
        <ele>554.3</ele>
        <time>2014-11-02T10:36:06.000Z</time>
      </trkpt>
      <trkpt lat="47.4102" lon="6.75922">
        <ele>552.5</ele>
        <time>2014-11-02T10:36:07.000Z</time>
      </trkpt>
      <trkpt lat="47.4102" lon="6.75918">
        <ele>552.6</ele>
        <time>2014-11-02T10:36:08.000Z</time>
      </trkpt>
      <trkpt lat="47.4102" lon="6.75914">
        <ele>552.3</ele>
        <time>2014-11-02T10:36:09.000Z</time>
      </trkpt>
      <trkpt lat="47.4102" lon="6.75911">
        <ele>553</ele>
        <time>2014-11-02T10:36:10.000Z</time>
      </trkpt>
      <trkpt lat="47.4102" lon="6.75907">
        <ele>553.7</ele>
        <time>2014-11-02T10:36:11.000Z</time>
      </trkpt>
      <trkpt lat="47.41021" lon="6.75903">
        <ele>554.2</ele>
        <time>2014-11-02T10:36:12.027Z</time>
      </trkpt>
      <trkpt lat="47.41021" lon="6.75899">
        <ele>555.1</ele>
        <time>2014-11-02T10:36:13.000Z</time>
      </trkpt>
      <trkpt lat="47.41022" lon="6.75896">
        <ele>555.5</ele>
        <time>2014-11-02T10:36:14.000Z</time>
      </trkpt>
      <trkpt lat="47.41022" lon="6.75892">
        <ele>555.5</ele>
        <time>2014-11-02T10:36:15.000Z</time>
      </trkpt>
      <trkpt lat="47.41023" lon="6.75889">
        <ele>555.8</ele>
        <time>2014-11-02T10:36:16.000Z</time>
      </trkpt>
      <trkpt lat="47.41023" lon="6.75885">
        <ele>556.3</ele>
        <time>2014-11-02T10:36:17.000Z</time>
      </trkpt>
      <trkpt lat="47.41023" lon="6.75882">
        <ele>556.3</ele>
        <time>2014-11-02T10:36:18.000Z</time>
      </trkpt>
      <trkpt lat="47.41024" lon="6.75875">
        <ele>556.7</ele>
        <time>2014-11-02T10:36:20.000Z</time>
      </trkpt>
      <trkpt lat="47.41024" lon="6.75872">
        <ele>557.3</ele>
        <time>2014-11-02T10:36:21.000Z</time>
      </trkpt>
      <trkpt lat="47.41025" lon="6.75866">
        <ele>559.6</ele>
        <time>2014-11-02T10:36:23.000Z</time>
      </trkpt>
      <trkpt lat="47.41025" lon="6.75862">
        <ele>560.3</ele>
        <time>2014-11-02T10:36:24.000Z</time>
      </trkpt>
      <trkpt lat="47.41026" lon="6.75859">
        <ele>562.4</ele>
        <time>2014-11-02T10:36:25.000Z</time>
      </trkpt>
      <trkpt lat="47.41027" lon="6.75855">
        <ele>561.3</ele>
        <time>2014-11-02T10:36:26.000Z</time>
      </trkpt>
      <trkpt lat="47.41027" lon="6.75852">
        <ele>561.3</ele>
        <time>2014-11-02T10:36:27.000Z</time>
      </trkpt>
      <trkpt lat="47.41028" lon="6.75848">
        <ele>562</ele>
        <time>2014-11-02T10:36:28.000Z</time>
      </trkpt>
      <trkpt lat="47.41029" lon="6.75842">
        <ele>563.6</ele>
        <time>2014-11-02T10:36:30.000Z</time>
      </trkpt>
      <trkpt lat="47.4103" lon="6.75839">
        <ele>563.4</ele>
        <time>2014-11-02T10:36:31.000Z</time>
      </trkpt>
      <trkpt lat="47.41031" lon="6.75836">
        <ele>563.5</ele>
        <time>2014-11-02T10:36:32.000Z</time>
      </trkpt>
      <trkpt lat="47.41031" lon="6.75832">
        <ele>564.1</ele>
        <time>2014-11-02T10:36:33.000Z</time>
      </trkpt>
      <trkpt lat="47.41032" lon="6.75829">
        <ele>564.2</ele>
        <time>2014-11-02T10:36:34.000Z</time>
      </trkpt>
      <trkpt lat="47.41032" lon="6.75826">
        <ele>563.9</ele>
        <time>2014-11-02T10:36:35.000Z</time>
      </trkpt>
      <trkpt lat="47.41033" lon="6.7582">
        <ele>566.5</ele>
        <time>2014-11-02T10:36:37.000Z</time>
      </trkpt>
      <trkpt lat="47.41034" lon="6.75818">
        <ele>566.5</ele>
        <time>2014-11-02T10:36:38.000Z</time>
      </trkpt>
      <trkpt lat="47.41034" lon="6.75815">
        <ele>566.2</ele>
        <time>2014-11-02T10:36:39.000Z</time>
      </trkpt>
      <trkpt lat="47.41035" lon="6.75811">
        <ele>566.3</ele>
        <time>2014-11-02T10:36:40.000Z</time>
      </trkpt>
      <trkpt lat="47.41035" lon="6.75807">
        <ele>566.5</ele>
        <time>2014-11-02T10:36:41.000Z</time>
      </trkpt>
      <trkpt lat="47.41035" lon="6.75803">
        <ele>565.5</ele>
        <time>2014-11-02T10:36:42.000Z</time>
      </trkpt>
      <trkpt lat="47.41034" lon="6.75799">
        <ele>565.1</ele>
        <time>2014-11-02T10:36:43.000Z</time>
      </trkpt>
      <trkpt lat="47.41034" lon="6.75794">
        <ele>565.3</ele>
        <time>2014-11-02T10:36:44.000Z</time>
      </trkpt>
      <trkpt lat="47.41034" lon="6.7579">
        <ele>565.3</ele>
        <time>2014-11-02T10:36:45.000Z</time>
      </trkpt>
      <trkpt lat="47.41034" lon="6.75786">
        <ele>564.7</ele>
        <time>2014-11-02T10:36:46.000Z</time>
      </trkpt>
      <trkpt lat="47.41034" lon="6.75782">
        <ele>564.5</ele>
        <time>2014-11-02T10:36:47.000Z</time>
      </trkpt>
      <trkpt lat="47.41034" lon="6.75777">
        <ele>563.9</ele>
        <time>2014-11-02T10:36:48.000Z</time>
      </trkpt>
      <trkpt lat="47.41033" lon="6.75773">
        <ele>565.1</ele>
        <time>2014-11-02T10:36:49.000Z</time>
      </trkpt>
      <trkpt lat="47.41032" lon="6.75769">
        <ele>565</ele>
        <time>2014-11-02T10:36:50.000Z</time>
      </trkpt>
      <trkpt lat="47.41032" lon="6.75764">
        <ele>564.4</ele>
        <time>2014-11-02T10:36:51.000Z</time>
      </trkpt>
      <trkpt lat="47.41031" lon="6.7576">
        <ele>563.8</ele>
        <time>2014-11-02T10:36:52.000Z</time>
      </trkpt>
      <trkpt lat="47.41031" lon="6.75755">
        <ele>563.4</ele>
        <time>2014-11-02T10:36:53.000Z</time>
      </trkpt>
      <trkpt lat="47.41031" lon="6.75751">
        <ele>562.2</ele>
        <time>2014-11-02T10:36:54.000Z</time>
      </trkpt>
      <trkpt lat="47.41031" lon="6.75746">
        <ele>561.3</ele>
        <time>2014-11-02T10:36:55.000Z</time>
      </trkpt>
      <trkpt lat="47.41031" lon="6.75741">
        <ele>562.3</ele>
        <time>2014-11-02T10:36:56.000Z</time>
      </trkpt>
      <trkpt lat="47.41032" lon="6.75736">
        <ele>562</ele>
        <time>2014-11-02T10:36:57.000Z</time>
      </trkpt>
      <trkpt lat="47.41033" lon="6.75732">
        <ele>562.6</ele>
        <time>2014-11-02T10:36:58.000Z</time>
      </trkpt>
      <trkpt lat="47.41034" lon="6.75727">
        <ele>562.8</ele>
        <time>2014-11-02T10:36:59.000Z</time>
      </trkpt>
      <trkpt lat="47.41034" lon="6.75722">
        <ele>560.6</ele>
        <time>2014-11-02T10:37:00.000Z</time>
      </trkpt>
      <trkpt lat="47.41033" lon="6.75716">
        <ele>559.5</ele>
        <time>2014-11-02T10:37:01.000Z</time>
      </trkpt>
      <trkpt lat="47.41033" lon="6.75711">
        <ele>560.5</ele>
        <time>2014-11-02T10:37:02.000Z</time>
      </trkpt>
      <trkpt lat="47.41031" lon="6.757">
        <ele>561.1</ele>
        <time>2014-11-02T10:37:05.000Z</time>
      </trkpt>
      <trkpt lat="47.41031" lon="6.75694">
        <ele>559.1</ele>
        <time>2014-11-02T10:37:12.000Z</time>
      </trkpt>
      <trkpt lat="47.41032" lon="6.75693">
        <ele>559.7</ele>
        <time>2014-11-02T10:37:13.000Z</time>
      </trkpt>
      <trkpt lat="47.41028" lon="6.75689">
        <ele>549.7</ele>
        <time>2014-11-02T10:37:45.000Z</time>
      </trkpt>
      <trkpt lat="47.41028" lon="6.75689">
        <ele>549.2</ele>
        <time>2014-11-02T10:37:46.000Z</time>
      </trkpt>
      <trkpt lat="47.41031" lon="6.75684">
        <ele>548.3</ele>
        <time>2014-11-02T10:46:36.000Z</time>
      </trkpt>
      <trkpt lat="47.41032" lon="6.75685">
        <ele>549.3</ele>
        <time>2014-11-02T10:46:37.000Z</time>
      </trkpt>
      <trkpt lat="47.41035" lon="6.75688">
        <ele>550.7</ele>
        <time>2014-11-02T10:46:39.000Z</time>
      </trkpt>
      <trkpt lat="47.41036" lon="6.7569">
        <ele>551</ele>
        <time>2014-11-02T10:46:40.000Z</time>
      </trkpt>
      <trkpt lat="47.4104" lon="6.75692">
        <ele>552.4</ele>
        <time>2014-11-02T10:46:42.000Z</time>
      </trkpt>
      <trkpt lat="47.41042" lon="6.75693">
        <ele>553.4</ele>
        <time>2014-11-02T10:46:43.000Z</time>
      </trkpt>
      <trkpt lat="47.41045" lon="6.75694">
        <ele>552.7</ele>
        <time>2014-11-02T10:46:45.000Z</time>
      </trkpt>
      <trkpt lat="47.41047" lon="6.75694">
        <ele>552.4</ele>
        <time>2014-11-02T10:46:46.000Z</time>
      </trkpt>
      <trkpt lat="47.4105" lon="6.75696">
        <ele>553.6</ele>
        <time>2014-11-02T10:46:48.000Z</time>
      </trkpt>
      <trkpt lat="47.41052" lon="6.75697">
        <ele>554.6</ele>
        <time>2014-11-02T10:46:49.000Z</time>
      </trkpt>
      <trkpt lat="47.41054" lon="6.75698">
        <ele>555.1</ele>
        <time>2014-11-02T10:46:50.000Z</time>
      </trkpt>
      <trkpt lat="47.41057" lon="6.75698">
        <ele>556</ele>
        <time>2014-11-02T10:46:51.000Z</time>
      </trkpt>
      <trkpt lat="47.41059" lon="6.75698">
        <ele>556.6</ele>
        <time>2014-11-02T10:46:52.000Z</time>
      </trkpt>
      <trkpt lat="47.41062" lon="6.75698">
        <ele>558.2</ele>
        <time>2014-11-02T10:46:53.000Z</time>
      </trkpt>
      <trkpt lat="47.41064" lon="6.75698">
        <ele>558.8</ele>
        <time>2014-11-02T10:46:54.000Z</time>
      </trkpt>
      <trkpt lat="47.41067" lon="6.75698">
        <ele>559.1</ele>
        <time>2014-11-02T10:46:55.000Z</time>
      </trkpt>
      <trkpt lat="47.41069" lon="6.75699">
        <ele>559.1</ele>
        <time>2014-11-02T10:46:56.000Z</time>
      </trkpt>
      <trkpt lat="47.41071" lon="6.757">
        <ele>559.7</ele>
        <time>2014-11-02T10:46:57.000Z</time>
      </trkpt>
      <trkpt lat="47.41074" lon="6.75701">
        <ele>559.7</ele>
        <time>2014-11-02T10:46:58.000Z</time>
      </trkpt>
      <trkpt lat="47.41076" lon="6.75702">
        <ele>559.8</ele>
        <time>2014-11-02T10:46:59.000Z</time>
      </trkpt>
      <trkpt lat="47.41079" lon="6.75704">
        <ele>559.3</ele>
        <time>2014-11-02T10:47:00.000Z</time>
      </trkpt>
      <trkpt lat="47.41081" lon="6.75705">
        <ele>559.8</ele>
        <time>2014-11-02T10:47:01.000Z</time>
      </trkpt>
      <trkpt lat="47.41083" lon="6.75706">
        <ele>560.1</ele>
        <time>2014-11-02T10:47:02.000Z</time>
      </trkpt>
      <trkpt lat="47.4109" lon="6.7571">
        <ele>559.9</ele>
        <time>2014-11-02T10:47:05.000Z</time>
      </trkpt>
      <trkpt lat="47.41093" lon="6.75712">
        <ele>560</ele>
        <time>2014-11-02T10:47:06.000Z</time>
      </trkpt>
      <trkpt lat="47.41095" lon="6.75713">
        <ele>560.3</ele>
        <time>2014-11-02T10:47:07.000Z</time>
      </trkpt>
      <trkpt lat="47.41098" lon="6.75714">
        <ele>560.3</ele>
        <time>2014-11-02T10:47:08.000Z</time>
      </trkpt>
      <trkpt lat="47.411" lon="6.75715">
        <ele>560.4</ele>
        <time>2014-11-02T10:47:09.000Z</time>
      </trkpt>
      <trkpt lat="47.41103" lon="6.75717">
        <ele>560.2</ele>
        <time>2014-11-02T10:47:10.000Z</time>
      </trkpt>
      <trkpt lat="47.41105" lon="6.75718">
        <ele>560.9</ele>
        <time>2014-11-02T10:47:11.000Z</time>
      </trkpt>
      <trkpt lat="47.41107" lon="6.75719">
        <ele>561.4</ele>
        <time>2014-11-02T10:47:12.000Z</time>
      </trkpt>
      <trkpt lat="47.4111" lon="6.7572">
        <ele>561.4</ele>
        <time>2014-11-02T10:47:13.000Z</time>
      </trkpt>
      <trkpt lat="47.41113" lon="6.75721">
        <ele>560.9</ele>
        <time>2014-11-02T10:47:14.000Z</time>
      </trkpt>
      <trkpt lat="47.41116" lon="6.75722">
        <ele>561</ele>
        <time>2014-11-02T10:47:15.000Z</time>
      </trkpt>
      <trkpt lat="47.41118" lon="6.75722">
        <ele>561.8</ele>
        <time>2014-11-02T10:47:16.000Z</time>
      </trkpt>
      <trkpt lat="47.41121" lon="6.75722">
        <ele>562.1</ele>
        <time>2014-11-02T10:47:17.000Z</time>
      </trkpt>
      <trkpt lat="47.41124" lon="6.75723">
        <ele>562</ele>
        <time>2014-11-02T10:47:18.000Z</time>
      </trkpt>
      <trkpt lat="47.41126" lon="6.75725">
        <ele>561.6</ele>
        <time>2014-11-02T10:47:19.000Z</time>
      </trkpt>
      <trkpt lat="47.41129" lon="6.75726">
        <ele>561.7</ele>
        <time>2014-11-02T10:47:20.000Z</time>
      </trkpt>
      <trkpt lat="47.41132" lon="6.75728">
        <ele>562.3</ele>
        <time>2014-11-02T10:47:21.000Z</time>
      </trkpt>
      <trkpt lat="47.41134" lon="6.75729">
        <ele>562</ele>
        <time>2014-11-02T10:47:22.000Z</time>
      </trkpt>
      <trkpt lat="47.41137" lon="6.7573">
        <ele>562.6</ele>
        <time>2014-11-02T10:47:23.000Z</time>
      </trkpt>
      <trkpt lat="47.41139" lon="6.75731">
        <ele>562.4</ele>
        <time>2014-11-02T10:47:24.000Z</time>
      </trkpt>
      <trkpt lat="47.41142" lon="6.75732">
        <ele>562</ele>
        <time>2014-11-02T10:47:25.000Z</time>
      </trkpt>
      <trkpt lat="47.41144" lon="6.75734">
        <ele>563.3</ele>
        <time>2014-11-02T10:47:26.000Z</time>
      </trkpt>
      <trkpt lat="47.41146" lon="6.75735">
        <ele>562.9</ele>
        <time>2014-11-02T10:47:27.000Z</time>
      </trkpt>
      <trkpt lat="47.41148" lon="6.75736">
        <ele>563.5</ele>
        <time>2014-11-02T10:47:28.000Z</time>
      </trkpt>
      <trkpt lat="47.41151" lon="6.75736">
        <ele>563.5</ele>
        <time>2014-11-02T10:47:29.000Z</time>
      </trkpt>
      <trkpt lat="47.41153" lon="6.75737">
        <ele>563.2</ele>
        <time>2014-11-02T10:47:30.000Z</time>
      </trkpt>
      <trkpt lat="47.41156" lon="6.75737">
        <ele>563.3</ele>
        <time>2014-11-02T10:47:31.000Z</time>
      </trkpt>
      <trkpt lat="47.41158" lon="6.75738">
        <ele>563.3</ele>
        <time>2014-11-02T10:47:32.000Z</time>
      </trkpt>
      <trkpt lat="47.41161" lon="6.75738">
        <ele>564.5</ele>
        <time>2014-11-02T10:47:33.000Z</time>
      </trkpt>
      <trkpt lat="47.41163" lon="6.75739">
        <ele>565.2</ele>
        <time>2014-11-02T10:47:34.000Z</time>
      </trkpt>
      <trkpt lat="47.41166" lon="6.75741">
        <ele>564.8</ele>
        <time>2014-11-02T10:47:35.000Z</time>
      </trkpt>
      <trkpt lat="47.41168" lon="6.75742">
        <ele>564.6</ele>
        <time>2014-11-02T10:47:36.000Z</time>
      </trkpt>
      <trkpt lat="47.4117" lon="6.75745">
        <ele>564.6</ele>
        <time>2014-11-02T10:47:37.000Z</time>
      </trkpt>
      <trkpt lat="47.41172" lon="6.75746">
        <ele>564.2</ele>
        <time>2014-11-02T10:47:38.000Z</time>
      </trkpt>
      <trkpt lat="47.41175" lon="6.75748">
        <ele>564.4</ele>
        <time>2014-11-02T10:47:39.000Z</time>
      </trkpt>
      <trkpt lat="47.41177" lon="6.75749">
        <ele>564.8</ele>
        <time>2014-11-02T10:47:40.000Z</time>
      </trkpt>
      <trkpt lat="47.4118" lon="6.7575">
        <ele>564.8</ele>
        <time>2014-11-02T10:47:41.000Z</time>
      </trkpt>
      <trkpt lat="47.41183" lon="6.75751">
        <ele>563.1</ele>
        <time>2014-11-02T10:47:42.000Z</time>
      </trkpt>
      <trkpt lat="47.41186" lon="6.75752">
        <ele>562.3</ele>
        <time>2014-11-02T10:47:43.000Z</time>
      </trkpt>
      <trkpt lat="47.41189" lon="6.75753">
        <ele>563.3</ele>
        <time>2014-11-02T10:47:44.000Z</time>
      </trkpt>
      <trkpt lat="47.41192" lon="6.75754">
        <ele>563</ele>
        <time>2014-11-02T10:47:45.000Z</time>
      </trkpt>
      <trkpt lat="47.41195" lon="6.75755">
        <ele>562.6</ele>
        <time>2014-11-02T10:47:46.000Z</time>
      </trkpt>
      <trkpt lat="47.41198" lon="6.75755">
        <ele>561.4</ele>
        <time>2014-11-02T10:47:47.000Z</time>
      </trkpt>
      <trkpt lat="47.41201" lon="6.75756">
        <ele>560.6</ele>
        <time>2014-11-02T10:47:48.000Z</time>
      </trkpt>
      <trkpt lat="47.41203" lon="6.75756">
        <ele>561.4</ele>
        <time>2014-11-02T10:47:49.000Z</time>
      </trkpt>
      <trkpt lat="47.41206" lon="6.75756">
        <ele>560.8</ele>
        <time>2014-11-02T10:47:50.000Z</time>
      </trkpt>
      <trkpt lat="47.41209" lon="6.75757">
        <ele>560.3</ele>
        <time>2014-11-02T10:47:51.000Z</time>
      </trkpt>
      <trkpt lat="47.41211" lon="6.75758">
        <ele>560.1</ele>
        <time>2014-11-02T10:47:52.000Z</time>
      </trkpt>
      <trkpt lat="47.41214" lon="6.75759">
        <ele>560.8</ele>
        <time>2014-11-02T10:47:53.000Z</time>
      </trkpt>
      <trkpt lat="47.41216" lon="6.75761">
        <ele>560.9</ele>
        <time>2014-11-02T10:47:54.000Z</time>
      </trkpt>
      <trkpt lat="47.41218" lon="6.75763">
        <ele>561.7</ele>
        <time>2014-11-02T10:47:55.000Z</time>
      </trkpt>
      <trkpt lat="47.4122" lon="6.75764">
        <ele>562.1</ele>
        <time>2014-11-02T10:47:56.000Z</time>
      </trkpt>
      <trkpt lat="47.41222" lon="6.75766">
        <ele>562.3</ele>
        <time>2014-11-02T10:47:57.000Z</time>
      </trkpt>
      <trkpt lat="47.41225" lon="6.75767">
        <ele>562.3</ele>
        <time>2014-11-02T10:47:58.000Z</time>
      </trkpt>
      <trkpt lat="47.41227" lon="6.75769">
        <ele>562.3</ele>
        <time>2014-11-02T10:47:59.000Z</time>
      </trkpt>
      <trkpt lat="47.41229" lon="6.7577">
        <ele>562.3</ele>
        <time>2014-11-02T10:48:00.000Z</time>
      </trkpt>
      <trkpt lat="47.41231" lon="6.75772">
        <ele>562.4</ele>
        <time>2014-11-02T10:48:01.000Z</time>
      </trkpt>
      <trkpt lat="47.41233" lon="6.75773">
        <ele>562.3</ele>
        <time>2014-11-02T10:48:02.000Z</time>
      </trkpt>
      <trkpt lat="47.4124" lon="6.75777">
        <ele>562.3</ele>
        <time>2014-11-02T10:48:05.000Z</time>
      </trkpt>
      <trkpt lat="47.41242" lon="6.75779">
        <ele>565</ele>
        <time>2014-11-02T10:48:06.000Z</time>
      </trkpt>
      <trkpt lat="47.41245" lon="6.7578">
        <ele>565.7</ele>
        <time>2014-11-02T10:48:07.000Z</time>
      </trkpt>
      <trkpt lat="47.41248" lon="6.7578">
        <ele>567.6</ele>
        <time>2014-11-02T10:48:08.000Z</time>
      </trkpt>
      <trkpt lat="47.41251" lon="6.7578">
        <ele>568.8</ele>
        <time>2014-11-02T10:48:09.000Z</time>
      </trkpt>
      <trkpt lat="47.41253" lon="6.7578">
        <ele>568.3</ele>
        <time>2014-11-02T10:48:10.000Z</time>
      </trkpt>
      <trkpt lat="47.41256" lon="6.75781">
        <ele>567.8</ele>
        <time>2014-11-02T10:48:11.000Z</time>
      </trkpt>
      <trkpt lat="47.41259" lon="6.75782">
        <ele>565.9</ele>
        <time>2014-11-02T10:48:12.000Z</time>
      </trkpt>
      <trkpt lat="47.41262" lon="6.75784">
        <ele>566.1</ele>
        <time>2014-11-02T10:48:13.000Z</time>
      </trkpt>
      <trkpt lat="47.41265" lon="6.75786">
        <ele>567</ele>
        <time>2014-11-02T10:48:14.000Z</time>
      </trkpt>
      <trkpt lat="47.41268" lon="6.75788">
        <ele>567.4</ele>
        <time>2014-11-02T10:48:15.000Z</time>
      </trkpt>
      <trkpt lat="47.41271" lon="6.75789">
        <ele>568.3</ele>
        <time>2014-11-02T10:48:16.000Z</time>
      </trkpt>
      <trkpt lat="47.41274" lon="6.75791">
        <ele>567.5</ele>
        <time>2014-11-02T10:48:17.000Z</time>
      </trkpt>
      <trkpt lat="47.41277" lon="6.75793">
        <ele>566.5</ele>
        <time>2014-11-02T10:48:18.000Z</time>
      </trkpt>
      <trkpt lat="47.4128" lon="6.75794">
        <ele>565.9</ele>
        <time>2014-11-02T10:48:19.000Z</time>
      </trkpt>
      <trkpt lat="47.41283" lon="6.75795">
        <ele>565.6</ele>
        <time>2014-11-02T10:48:20.000Z</time>
      </trkpt>
      <trkpt lat="47.41286" lon="6.75797">
        <ele>566.6</ele>
        <time>2014-11-02T10:48:21.000Z</time>
      </trkpt>
      <trkpt lat="47.41289" lon="6.75798">
        <ele>566.3</ele>
        <time>2014-11-02T10:48:22.000Z</time>
      </trkpt>
      <trkpt lat="47.41292" lon="6.75799">
        <ele>565.7</ele>
        <time>2014-11-02T10:48:23.000Z</time>
      </trkpt>
      <trkpt lat="47.41296" lon="6.758">
        <ele>566.3</ele>
        <time>2014-11-02T10:48:24.000Z</time>
      </trkpt>
      <trkpt lat="47.41299" lon="6.758">
        <ele>565.9</ele>
        <time>2014-11-02T10:48:25.000Z</time>
      </trkpt>
      <trkpt lat="47.41303" lon="6.75801">
        <ele>565.2</ele>
        <time>2014-11-02T10:48:26.000Z</time>
      </trkpt>
      <trkpt lat="47.41307" lon="6.75801">
        <ele>565.1</ele>
        <time>2014-11-02T10:48:27.000Z</time>
      </trkpt>
      <trkpt lat="47.41311" lon="6.758">
        <ele>565.3</ele>
        <time>2014-11-02T10:48:28.000Z</time>
      </trkpt>
      <trkpt lat="47.41314" lon="6.758">
        <ele>565.3</ele>
        <time>2014-11-02T10:48:29.000Z</time>
      </trkpt>
      <trkpt lat="47.41318" lon="6.75799">
        <ele>565.6</ele>
        <time>2014-11-02T10:48:30.000Z</time>
      </trkpt>
      <trkpt lat="47.41321" lon="6.75796">
        <ele>565.3</ele>
        <time>2014-11-02T10:48:31.000Z</time>
      </trkpt>
      <trkpt lat="47.41324" lon="6.75792">
        <ele>565.1</ele>
        <time>2014-11-02T10:48:32.000Z</time>
      </trkpt>
      <trkpt lat="47.41327" lon="6.75787">
        <ele>565.3</ele>
        <time>2014-11-02T10:48:33.000Z</time>
      </trkpt>
      <trkpt lat="47.41328" lon="6.75781">
        <ele>565.1</ele>
        <time>2014-11-02T10:48:34.000Z</time>
      </trkpt>
      <trkpt lat="47.41329" lon="6.75776">
        <ele>565.3</ele>
        <time>2014-11-02T10:48:35.000Z</time>
      </trkpt>
      <trkpt lat="47.41329" lon="6.7577">
        <ele>565.2</ele>
        <time>2014-11-02T10:48:36.000Z</time>
      </trkpt>
      <trkpt lat="47.41329" lon="6.75764">
        <ele>565</ele>
        <time>2014-11-02T10:48:37.000Z</time>
      </trkpt>
      <trkpt lat="47.41329" lon="6.75759">
        <ele>565.1</ele>
        <time>2014-11-02T10:48:38.000Z</time>
      </trkpt>
      <trkpt lat="47.41329" lon="6.75754">
        <ele>563.4</ele>
        <time>2014-11-02T10:48:39.000Z</time>
      </trkpt>
      <trkpt lat="47.41329" lon="6.75749">
        <ele>562.2</ele>
        <time>2014-11-02T10:48:40.000Z</time>
      </trkpt>
      <trkpt lat="47.41329" lon="6.75745">
        <ele>563.3</ele>
        <time>2014-11-02T10:48:41.000Z</time>
      </trkpt>
      <trkpt lat="47.41329" lon="6.75741">
        <ele>563</ele>
        <time>2014-11-02T10:48:42.000Z</time>
      </trkpt>
      <trkpt lat="47.41329" lon="6.75737">
        <ele>562.8</ele>
        <time>2014-11-02T10:48:43.000Z</time>
      </trkpt>
      <trkpt lat="47.41329" lon="6.75733">
        <ele>562.4</ele>
        <time>2014-11-02T10:48:44.000Z</time>
      </trkpt>
      <trkpt lat="47.41329" lon="6.75728">
        <ele>561.8</ele>
        <time>2014-11-02T10:48:45.000Z</time>
      </trkpt>
      <trkpt lat="47.41329" lon="6.75724">
        <ele>560.8</ele>
        <time>2014-11-02T10:48:46.000Z</time>
      </trkpt>
      <trkpt lat="47.41328" lon="6.7572">
        <ele>560</ele>
        <time>2014-11-02T10:48:47.000Z</time>
      </trkpt>
      <trkpt lat="47.41328" lon="6.75715">
        <ele>559.6</ele>
        <time>2014-11-02T10:48:48.000Z</time>
      </trkpt>
      <trkpt lat="47.41328" lon="6.7571">
        <ele>559.1</ele>
        <time>2014-11-02T10:48:49.000Z</time>
      </trkpt>
      <trkpt lat="47.41328" lon="6.75706">
        <ele>558.8</ele>
        <time>2014-11-02T10:48:50.000Z</time>
      </trkpt>
      <trkpt lat="47.41328" lon="6.75701">
        <ele>559</ele>
        <time>2014-11-02T10:48:51.000Z</time>
      </trkpt>
      <trkpt lat="47.41327" lon="6.75697">
        <ele>560.8</ele>
        <time>2014-11-02T10:48:52.000Z</time>
      </trkpt>
      <trkpt lat="47.41327" lon="6.75692">
        <ele>560.1</ele>
        <time>2014-11-02T10:48:53.000Z</time>
      </trkpt>
      <trkpt lat="47.41327" lon="6.75688">
        <ele>560.3</ele>
        <time>2014-11-02T10:48:54.000Z</time>
      </trkpt>
      <trkpt lat="47.41327" lon="6.75684">
        <ele>560.4</ele>
        <time>2014-11-02T10:48:55.000Z</time>
      </trkpt>
      <trkpt lat="47.41327" lon="6.7568">
        <ele>561</ele>
        <time>2014-11-02T10:48:56.000Z</time>
      </trkpt>
      <trkpt lat="47.41327" lon="6.75676">
        <ele>560.7</ele>
        <time>2014-11-02T10:48:57.000Z</time>
      </trkpt>
      <trkpt lat="47.41326" lon="6.75671">
        <ele>561.7</ele>
        <time>2014-11-02T10:48:59.000Z</time>
      </trkpt>
      <trkpt lat="47.41325" lon="6.75668">
        <ele>563.6</ele>
        <time>2014-11-02T10:49:00.000Z</time>
      </trkpt>
      <trkpt lat="47.41325" lon="6.75665">
        <ele>564.3</ele>
        <time>2014-11-02T10:49:01.000Z</time>
      </trkpt>
      <trkpt lat="47.41324" lon="6.75661">
        <ele>564.4</ele>
        <time>2014-11-02T10:49:02.000Z</time>
      </trkpt>
      <trkpt lat="47.41323" lon="6.75657">
        <ele>563.4</ele>
        <time>2014-11-02T10:49:03.000Z</time>
      </trkpt>
      <trkpt lat="47.41323" lon="6.75652">
        <ele>563.6</ele>
        <time>2014-11-02T10:49:04.000Z</time>
      </trkpt>
      <trkpt lat="47.41323" lon="6.75624">
        <ele>566.1</ele>
        <time>2014-11-02T10:49:12.000Z</time>
      </trkpt>
      <trkpt lat="47.41323" lon="6.75619">
        <ele>568.3</ele>
        <time>2014-11-02T10:49:14.000Z</time>
      </trkpt>
      <trkpt lat="47.41323" lon="6.75616">
        <ele>568.3</ele>
        <time>2014-11-02T10:49:15.000Z</time>
      </trkpt>
      <trkpt lat="47.41322" lon="6.75611">
        <ele>566.6</ele>
        <time>2014-11-02T10:49:17.000Z</time>
      </trkpt>
      <trkpt lat="47.41322" lon="6.75609">
        <ele>566.1</ele>
        <time>2014-11-02T10:49:18.000Z</time>
      </trkpt>
      <trkpt lat="47.41319" lon="6.75604">
        <ele>562.1</ele>
        <time>2014-11-02T10:49:21.000Z</time>
      </trkpt>
      <trkpt lat="47.41319" lon="6.75603">
        <ele>561.4</ele>
        <time>2014-11-02T10:49:22.000Z</time>
      </trkpt>
      <trkpt lat="47.41322" lon="6.756">
        <ele>566.4</ele>
        <time>2014-11-02T10:49:25.000Z</time>
      </trkpt>
      <trkpt lat="47.41324" lon="6.75598">
        <ele>568.6</ele>
        <time>2014-11-02T10:49:26.000Z</time>
      </trkpt>
      <trkpt lat="47.41325" lon="6.75592">
        <ele>567.4</ele>
        <time>2014-11-02T10:49:28.000Z</time>
      </trkpt>
      <trkpt lat="47.41326" lon="6.7559">
        <ele>568.6</ele>
        <time>2014-11-02T10:49:29.000Z</time>
      </trkpt>
      <trkpt lat="47.41327" lon="6.75585">
        <ele>570.1</ele>
        <time>2014-11-02T10:49:31.000Z</time>
      </trkpt>
      <trkpt lat="47.41328" lon="6.75583">
        <ele>570.7</ele>
        <time>2014-11-02T10:49:32.000Z</time>
      </trkpt>
      <trkpt lat="47.41328" lon="6.75578">
        <ele>572.6</ele>
        <time>2014-11-02T10:49:34.000Z</time>
      </trkpt>
      <trkpt lat="47.41328" lon="6.75575">
        <ele>573.1</ele>
        <time>2014-11-02T10:49:35.000Z</time>
      </trkpt>
      <trkpt lat="47.41327" lon="6.75571">
        <ele>573.2</ele>
        <time>2014-11-02T10:49:37.000Z</time>
      </trkpt>
      <trkpt lat="47.41327" lon="6.75568">
        <ele>574.5</ele>
        <time>2014-11-02T10:49:38.000Z</time>
      </trkpt>
      <trkpt lat="47.41328" lon="6.75562">
        <ele>573</ele>
        <time>2014-11-02T10:49:41.000Z</time>
      </trkpt>
      <trkpt lat="47.41328" lon="6.7556">
        <ele>573</ele>
        <time>2014-11-02T10:49:42.000Z</time>
      </trkpt>
      <trkpt lat="47.41327" lon="6.75554">
        <ele>572.9</ele>
        <time>2014-11-02T10:49:45.000Z</time>
      </trkpt>
      <trkpt lat="47.41327" lon="6.75552">
        <ele>573</ele>
        <time>2014-11-02T10:49:46.000Z</time>
      </trkpt>
      <trkpt lat="47.41326" lon="6.75546">
        <ele>572</ele>
        <time>2014-11-02T10:49:48.000Z</time>
      </trkpt>
      <trkpt lat="47.41325" lon="6.75542">
        <ele>570.9</ele>
        <time>2014-11-02T10:49:49.000Z</time>
      </trkpt>
      <trkpt lat="47.41324" lon="6.75538">
        <ele>570.8</ele>
        <time>2014-11-02T10:49:50.000Z</time>
      </trkpt>
      <trkpt lat="47.41323" lon="6.75535">
        <ele>570</ele>
        <time>2014-11-02T10:49:51.000Z</time>
      </trkpt>
      <trkpt lat="47.41321" lon="6.75529">
        <ele>569</ele>
        <time>2014-11-02T10:49:53.000Z</time>
      </trkpt>
      <trkpt lat="47.41321" lon="6.75526">
        <ele>571.5</ele>
        <time>2014-11-02T10:49:54.000Z</time>
      </trkpt>
      <trkpt lat="47.4132" lon="6.75522">
        <ele>571.6</ele>
        <time>2014-11-02T10:49:55.000Z</time>
      </trkpt>
      <trkpt lat="47.41319" lon="6.75518">
        <ele>572.2</ele>
        <time>2014-11-02T10:49:56.000Z</time>
      </trkpt>
      <trkpt lat="47.41318" lon="6.75514">
        <ele>572.4</ele>
        <time>2014-11-02T10:49:57.000Z</time>
      </trkpt>
      <trkpt lat="47.41317" lon="6.7551">
        <ele>571</ele>
        <time>2014-11-02T10:49:58.000Z</time>
      </trkpt>
      <trkpt lat="47.41316" lon="6.75505">
        <ele>570.6</ele>
        <time>2014-11-02T10:49:59.000Z</time>
      </trkpt>
      <trkpt lat="47.41315" lon="6.75501">
        <ele>569.8</ele>
        <time>2014-11-02T10:50:00.000Z</time>
      </trkpt>
      <trkpt lat="47.41314" lon="6.75496">
        <ele>570.1</ele>
        <time>2014-11-02T10:50:01.000Z</time>
      </trkpt>
      <trkpt lat="47.41313" lon="6.75492">
        <ele>569.2</ele>
        <time>2014-11-02T10:50:02.000Z</time>
      </trkpt>
      <trkpt lat="47.41309" lon="6.75482">
        <ele>568.9</ele>
        <time>2014-11-02T10:50:05.000Z</time>
      </trkpt>
      <trkpt lat="47.41308" lon="6.75479">
        <ele>568.7</ele>
        <time>2014-11-02T10:50:06.000Z</time>
      </trkpt>
      <trkpt lat="47.41307" lon="6.75475">
        <ele>568.4</ele>
        <time>2014-11-02T10:50:07.000Z</time>
      </trkpt>
      <trkpt lat="47.41306" lon="6.75472">
        <ele>567.4</ele>
        <time>2014-11-02T10:50:08.000Z</time>
      </trkpt>
      <trkpt lat="47.41305" lon="6.75468">
        <ele>568.2</ele>
        <time>2014-11-02T10:50:09.000Z</time>
      </trkpt>
      <trkpt lat="47.41304" lon="6.75465">
        <ele>567.8</ele>
        <time>2014-11-02T10:50:10.000Z</time>
      </trkpt>
      <trkpt lat="47.41304" lon="6.75461">
        <ele>567.7</ele>
        <time>2014-11-02T10:50:11.000Z</time>
      </trkpt>
      <trkpt lat="47.41303" lon="6.75457">
        <ele>569.2</ele>
        <time>2014-11-02T10:50:12.000Z</time>
      </trkpt>
      <trkpt lat="47.41302" lon="6.75454">
        <ele>569.5</ele>
        <time>2014-11-02T10:50:13.000Z</time>
      </trkpt>
      <trkpt lat="47.41301" lon="6.75448">
        <ele>569.4</ele>
        <time>2014-11-02T10:50:15.000Z</time>
      </trkpt>
      <trkpt lat="47.41301" lon="6.75445">
        <ele>569.6</ele>
        <time>2014-11-02T10:50:16.000Z</time>
      </trkpt>
      <trkpt lat="47.41299" lon="6.75439">
        <ele>570.5</ele>
        <time>2014-11-02T10:50:18.000Z</time>
      </trkpt>
      <trkpt lat="47.41298" lon="6.75436">
        <ele>570.6</ele>
        <time>2014-11-02T10:50:19.000Z</time>
      </trkpt>
      <trkpt lat="47.41298" lon="6.75432">
        <ele>569.6</ele>
        <time>2014-11-02T10:50:20.000Z</time>
      </trkpt>
      <trkpt lat="47.41297" lon="6.75429">
        <ele>570.7</ele>
        <time>2014-11-02T10:50:21.000Z</time>
      </trkpt>
      <trkpt lat="47.41296" lon="6.75425">
        <ele>569.9</ele>
        <time>2014-11-02T10:50:22.000Z</time>
      </trkpt>
      <trkpt lat="47.41295" lon="6.75422">
        <ele>568.4</ele>
        <time>2014-11-02T10:50:23.000Z</time>
      </trkpt>
      <trkpt lat="47.41294" lon="6.75419">
        <ele>568</ele>
        <time>2014-11-02T10:50:24.000Z</time>
      </trkpt>
      <trkpt lat="47.41292" lon="6.75416">
        <ele>568.7</ele>
        <time>2014-11-02T10:50:25.000Z</time>
      </trkpt>
      <trkpt lat="47.4129" lon="6.75411">
        <ele>568.6</ele>
        <time>2014-11-02T10:50:27.000Z</time>
      </trkpt>
      <trkpt lat="47.4129" lon="6.75407">
        <ele>568.5</ele>
        <time>2014-11-02T10:50:28.000Z</time>
      </trkpt>
      <trkpt lat="47.41289" lon="6.75401">
        <ele>568.3</ele>
        <time>2014-11-02T10:50:30.000Z</time>
      </trkpt>
      <trkpt lat="47.41288" lon="6.75398">
        <ele>568</ele>
        <time>2014-11-02T10:50:31.000Z</time>
      </trkpt>
      <trkpt lat="47.41287" lon="6.75394">
        <ele>568.1</ele>
        <time>2014-11-02T10:50:32.000Z</time>
      </trkpt>
      <trkpt lat="47.41286" lon="6.7539">
        <ele>567.6</ele>
        <time>2014-11-02T10:50:33.000Z</time>
      </trkpt>
      <trkpt lat="47.41285" lon="6.75386">
        <ele>567.6</ele>
        <time>2014-11-02T10:50:34.000Z</time>
      </trkpt>
      <trkpt lat="47.41285" lon="6.75382">
        <ele>567.4</ele>
        <time>2014-11-02T10:50:35.000Z</time>
      </trkpt>
      <trkpt lat="47.41285" lon="6.75378">
        <ele>566.8</ele>
        <time>2014-11-02T10:50:36.000Z</time>
      </trkpt>
      <trkpt lat="47.41284" lon="6.75373">
        <ele>566.6</ele>
        <time>2014-11-02T10:50:37.000Z</time>
      </trkpt>
      <trkpt lat="47.41284" lon="6.75369">
        <ele>566.8</ele>
        <time>2014-11-02T10:50:38.000Z</time>
      </trkpt>
      <trkpt lat="47.41284" lon="6.75365">
        <ele>566.6</ele>
        <time>2014-11-02T10:50:39.000Z</time>
      </trkpt>
      <trkpt lat="47.41284" lon="6.75361">
        <ele>567.3</ele>
        <time>2014-11-02T10:50:40.000Z</time>
      </trkpt>
      <trkpt lat="47.41284" lon="6.75357">
        <ele>568</ele>
        <time>2014-11-02T10:50:41.000Z</time>
      </trkpt>
      <trkpt lat="47.41284" lon="6.75353">
        <ele>567.7</ele>
        <time>2014-11-02T10:50:42.000Z</time>
      </trkpt>
      <trkpt lat="47.41284" lon="6.7535">
        <ele>567.5</ele>
        <time>2014-11-02T10:50:43.000Z</time>
      </trkpt>
      <trkpt lat="47.41283" lon="6.75346">
        <ele>566.9</ele>
        <time>2014-11-02T10:50:44.000Z</time>
      </trkpt>
      <trkpt lat="47.41283" lon="6.75343">
        <ele>567.3</ele>
        <time>2014-11-02T10:50:45.000Z</time>
      </trkpt>
      <trkpt lat="47.41283" lon="6.75339">
        <ele>567</ele>
        <time>2014-11-02T10:50:46.000Z</time>
      </trkpt>
      <trkpt lat="47.41283" lon="6.75335">
        <ele>566.6</ele>
        <time>2014-11-02T10:50:47.000Z</time>
      </trkpt>
      <trkpt lat="47.41283" lon="6.75331">
        <ele>566.4</ele>
        <time>2014-11-02T10:50:48.000Z</time>
      </trkpt>
      <trkpt lat="47.41284" lon="6.75326">
        <ele>566.3</ele>
        <time>2014-11-02T10:50:49.000Z</time>
      </trkpt>
      <trkpt lat="47.41284" lon="6.75323">
        <ele>566.1</ele>
        <time>2014-11-02T10:50:50.000Z</time>
      </trkpt>
      <trkpt lat="47.41284" lon="6.75319">
        <ele>565.9</ele>
        <time>2014-11-02T10:50:51.000Z</time>
      </trkpt>
      <trkpt lat="47.41285" lon="6.75316">
        <ele>565.2</ele>
        <time>2014-11-02T10:50:52.000Z</time>
      </trkpt>
      <trkpt lat="47.41285" lon="6.75312">
        <ele>564.9</ele>
        <time>2014-11-02T10:50:53.000Z</time>
      </trkpt>
      <trkpt lat="47.41285" lon="6.75306">
        <ele>564.7</ele>
        <time>2014-11-02T10:50:55.000Z</time>
      </trkpt>
      <trkpt lat="47.41285" lon="6.75303">
        <ele>564.4</ele>
        <time>2014-11-02T10:50:56.000Z</time>
      </trkpt>
      <trkpt lat="47.41284" lon="6.75299">
        <ele>564</ele>
        <time>2014-11-02T10:50:57.000Z</time>
      </trkpt>
      <trkpt lat="47.41283" lon="6.75295">
        <ele>563.9</ele>
        <time>2014-11-02T10:50:58.000Z</time>
      </trkpt>
      <trkpt lat="47.41282" lon="6.75292">
        <ele>563.7</ele>
        <time>2014-11-02T10:50:59.000Z</time>
      </trkpt>
      <trkpt lat="47.4128" lon="6.75288">
        <ele>563.6</ele>
        <time>2014-11-02T10:51:00.000Z</time>
      </trkpt>
      <trkpt lat="47.41279" lon="6.75284">
        <ele>563.2</ele>
        <time>2014-11-02T10:51:01.000Z</time>
      </trkpt>
      <trkpt lat="47.41277" lon="6.75279">
        <ele>563.1</ele>
        <time>2014-11-02T10:51:02.000Z</time>
      </trkpt>
      <trkpt lat="47.41275" lon="6.75275">
        <ele>562.8</ele>
        <time>2014-11-02T10:51:03.000Z</time>
      </trkpt>
      <trkpt lat="47.41271" lon="6.75262">
        <ele>562.8</ele>
        <time>2014-11-02T10:51:06.000Z</time>
      </trkpt>
      <trkpt lat="47.4127" lon="6.75257">
        <ele>562.2</ele>
        <time>2014-11-02T10:51:07.000Z</time>
      </trkpt>
      <trkpt lat="47.41268" lon="6.75253">
        <ele>562.2</ele>
        <time>2014-11-02T10:51:08.000Z</time>
      </trkpt>
      <trkpt lat="47.41266" lon="6.75248">
        <ele>561.9</ele>
        <time>2014-11-02T10:51:09.000Z</time>
      </trkpt>
      <trkpt lat="47.41265" lon="6.75243">
        <ele>561.2</ele>
        <time>2014-11-02T10:51:10.000Z</time>
      </trkpt>
      <trkpt lat="47.41263" lon="6.75238">
        <ele>560.9</ele>
        <time>2014-11-02T10:51:11.000Z</time>
      </trkpt>
      <trkpt lat="47.41262" lon="6.75233">
        <ele>560.9</ele>
        <time>2014-11-02T10:51:12.000Z</time>
      </trkpt>
      <trkpt lat="47.41261" lon="6.75228">
        <ele>560.9</ele>
        <time>2014-11-02T10:51:13.000Z</time>
      </trkpt>
      <trkpt lat="47.41259" lon="6.75224">
        <ele>560.8</ele>
        <time>2014-11-02T10:51:14.000Z</time>
      </trkpt>
      <trkpt lat="47.41258" lon="6.75219">
        <ele>560.5</ele>
        <time>2014-11-02T10:51:15.000Z</time>
      </trkpt>
      <trkpt lat="47.41257" lon="6.75215">
        <ele>559.8</ele>
        <time>2014-11-02T10:51:16.000Z</time>
      </trkpt>
      <trkpt lat="47.41255" lon="6.75211">
        <ele>559.6</ele>
        <time>2014-11-02T10:51:17.000Z</time>
      </trkpt>
      <trkpt lat="47.41254" lon="6.75208">
        <ele>559.7</ele>
        <time>2014-11-02T10:51:18.000Z</time>
      </trkpt>
      <trkpt lat="47.41255" lon="6.75204">
        <ele>559.3</ele>
        <time>2014-11-02T10:51:20.000Z</time>
      </trkpt>
      <trkpt lat="47.41257" lon="6.75202">
        <ele>559.2</ele>
        <time>2014-11-02T10:51:21.000Z</time>
      </trkpt>
      <trkpt lat="47.41261" lon="6.75201">
        <ele>559.1</ele>
        <time>2014-11-02T10:51:23.000Z</time>
      </trkpt>
      <trkpt lat="47.41262" lon="6.75202">
        <ele>559.4</ele>
        <time>2014-11-02T10:51:24.000Z</time>
      </trkpt>
      <trkpt lat="47.41266" lon="6.75201">
        <ele>558.8</ele>
        <time>2014-11-02T10:52:45.000Z</time>
      </trkpt>
      <trkpt lat="47.41266" lon="6.75199">
        <ele>558.9</ele>
        <time>2014-11-02T10:52:46.000Z</time>
      </trkpt>
      <trkpt lat="47.41267" lon="6.75194">
        <ele>558.8</ele>
        <time>2014-11-02T10:52:59.000Z</time>
      </trkpt>
      <trkpt lat="47.41266" lon="6.75192">
        <ele>558.9</ele>
        <time>2014-11-02T10:53:00.000Z</time>
      </trkpt>
      <trkpt lat="47.41266" lon="6.75187">
        <ele>558</ele>
        <time>2014-11-02T10:53:02.000Z</time>
      </trkpt>
      <trkpt lat="47.41266" lon="6.75176">
        <ele>558.1</ele>
        <time>2014-11-02T10:53:05.000Z</time>
      </trkpt>
      <trkpt lat="47.41267" lon="6.75171">
        <ele>558.3</ele>
        <time>2014-11-02T10:53:06.000Z</time>
      </trkpt>
      <trkpt lat="47.41268" lon="6.75165">
        <ele>556.8</ele>
        <time>2014-11-02T10:53:07.000Z</time>
      </trkpt>
      <trkpt lat="47.41269" lon="6.75159">
        <ele>556.4</ele>
        <time>2014-11-02T10:53:08.000Z</time>
      </trkpt>
      <trkpt lat="47.41269" lon="6.75151">
        <ele>556</ele>
        <time>2014-11-02T10:53:09.000Z</time>
      </trkpt>
      <trkpt lat="47.41269" lon="6.75138">
        <ele>555.7</ele>
        <time>2014-11-02T10:53:10.000Z</time>
      </trkpt>
      <trkpt lat="47.41268" lon="6.75131">
        <ele>555.7</ele>
        <time>2014-11-02T10:53:11.000Z</time>
      </trkpt>
      <trkpt lat="47.41268" lon="6.75123">
        <ele>554.8</ele>
        <time>2014-11-02T10:53:12.000Z</time>
      </trkpt>
      <trkpt lat="47.41267" lon="6.75116">
        <ele>554.8</ele>
        <time>2014-11-02T10:53:13.000Z</time>
      </trkpt>
      <trkpt lat="47.41266" lon="6.75109">
        <ele>554.7</ele>
        <time>2014-11-02T10:53:14.000Z</time>
      </trkpt>
      <trkpt lat="47.41265" lon="6.75103">
        <ele>554.2</ele>
        <time>2014-11-02T10:53:15.000Z</time>
      </trkpt>
      <trkpt lat="47.41264" lon="6.75096">
        <ele>553.9</ele>
        <time>2014-11-02T10:53:16.000Z</time>
      </trkpt>
      <trkpt lat="47.41263" lon="6.75089">
        <ele>554</ele>
        <time>2014-11-02T10:53:17.000Z</time>
      </trkpt>
      <trkpt lat="47.41262" lon="6.7508">
        <ele>552.5</ele>
        <time>2014-11-02T10:53:18.000Z</time>
      </trkpt>
      <trkpt lat="47.41262" lon="6.75072">
        <ele>552</ele>
        <time>2014-11-02T10:53:19.000Z</time>
      </trkpt>
      <trkpt lat="47.41263" lon="6.75063">
        <ele>551.9</ele>
        <time>2014-11-02T10:53:20.000Z</time>
      </trkpt>
      <trkpt lat="47.41261" lon="6.75055">
        <ele>551.8</ele>
        <time>2014-11-02T10:53:21.000Z</time>
      </trkpt>
      <trkpt lat="47.4126" lon="6.75047">
        <ele>551.2</ele>
        <time>2014-11-02T10:53:22.000Z</time>
      </trkpt>
      <trkpt lat="47.41259" lon="6.75039">
        <ele>551.7</ele>
        <time>2014-11-02T10:53:23.000Z</time>
      </trkpt>
      <trkpt lat="47.41257" lon="6.75032">
        <ele>551.8</ele>
        <time>2014-11-02T10:53:24.000Z</time>
      </trkpt>
      <trkpt lat="47.41255" lon="6.75024">
        <ele>551.6</ele>
        <time>2014-11-02T10:53:25.000Z</time>
      </trkpt>
      <trkpt lat="47.41254" lon="6.75017">
        <ele>552</ele>
        <time>2014-11-02T10:53:26.000Z</time>
      </trkpt>
      <trkpt lat="47.41253" lon="6.75009">
        <ele>551.9</ele>
        <time>2014-11-02T10:53:27.000Z</time>
      </trkpt>
      <trkpt lat="47.41251" lon="6.75001">
        <ele>551.3</ele>
        <time>2014-11-02T10:53:28.000Z</time>
      </trkpt>
      <trkpt lat="47.41249" lon="6.74994">
        <ele>551</ele>
        <time>2014-11-02T10:53:29.000Z</time>
      </trkpt>
      <trkpt lat="47.41248" lon="6.74985">
        <ele>550.4</ele>
        <time>2014-11-02T10:53:30.000Z</time>
      </trkpt>
      <trkpt lat="47.41246" lon="6.74978">
        <ele>550.4</ele>
        <time>2014-11-02T10:53:31.000Z</time>
      </trkpt>
      <trkpt lat="47.41244" lon="6.7497">
        <ele>550.5</ele>
        <time>2014-11-02T10:53:32.000Z</time>
      </trkpt>
      <trkpt lat="47.41242" lon="6.74963">
        <ele>550.5</ele>
        <time>2014-11-02T10:53:33.000Z</time>
      </trkpt>
      <trkpt lat="47.41239" lon="6.74956">
        <ele>550.4</ele>
        <time>2014-11-02T10:53:34.000Z</time>
      </trkpt>
      <trkpt lat="47.41237" lon="6.7495">
        <ele>550.1</ele>
        <time>2014-11-02T10:53:35.000Z</time>
      </trkpt>
      <trkpt lat="47.41235" lon="6.74943">
        <ele>548.9</ele>
        <time>2014-11-02T10:53:36.000Z</time>
      </trkpt>
      <trkpt lat="47.41233" lon="6.74936">
        <ele>548.8</ele>
        <time>2014-11-02T10:53:37.000Z</time>
      </trkpt>
      <trkpt lat="47.41231" lon="6.7493">
        <ele>549.2</ele>
        <time>2014-11-02T10:53:38.000Z</time>
      </trkpt>
      <trkpt lat="47.41229" lon="6.74923">
        <ele>548.9</ele>
        <time>2014-11-02T10:53:39.000Z</time>
      </trkpt>
      <trkpt lat="47.41226" lon="6.74916">
        <ele>548.3</ele>
        <time>2014-11-02T10:53:40.000Z</time>
      </trkpt>
      <trkpt lat="47.41223" lon="6.74909">
        <ele>547.8</ele>
        <time>2014-11-02T10:53:41.000Z</time>
      </trkpt>
      <trkpt lat="47.4122" lon="6.74903">
        <ele>548.2</ele>
        <time>2014-11-02T10:53:42.000Z</time>
      </trkpt>
      <trkpt lat="47.41218" lon="6.74895">
        <ele>548.7</ele>
        <time>2014-11-02T10:53:43.000Z</time>
      </trkpt>
      <trkpt lat="47.41216" lon="6.74888">
        <ele>549.1</ele>
        <time>2014-11-02T10:53:44.000Z</time>
      </trkpt>
      <trkpt lat="47.41214" lon="6.74881">
        <ele>548</ele>
        <time>2014-11-02T10:53:45.000Z</time>
      </trkpt>
      <trkpt lat="47.41211" lon="6.74872">
        <ele>548.1</ele>
        <time>2014-11-02T10:53:46.000Z</time>
      </trkpt>
      <trkpt lat="47.41209" lon="6.74864">
        <ele>548.2</ele>
        <time>2014-11-02T10:53:47.000Z</time>
      </trkpt>
      <trkpt lat="47.41207" lon="6.74856">
        <ele>548.4</ele>
        <time>2014-11-02T10:53:48.000Z</time>
      </trkpt>
      <trkpt lat="47.41204" lon="6.74849">
        <ele>548.4</ele>
        <time>2014-11-02T10:53:49.000Z</time>
      </trkpt>
      <trkpt lat="47.41201" lon="6.74841">
        <ele>548.5</ele>
        <time>2014-11-02T10:53:50.000Z</time>
      </trkpt>
      <trkpt lat="47.41197" lon="6.74835">
        <ele>548.2</ele>
        <time>2014-11-02T10:53:51.000Z</time>
      </trkpt>
      <trkpt lat="47.41194" lon="6.74828">
        <ele>548.1</ele>
        <time>2014-11-02T10:53:52.000Z</time>
      </trkpt>
      <trkpt lat="47.4119" lon="6.74821">
        <ele>548.7</ele>
        <time>2014-11-02T10:53:53.000Z</time>
      </trkpt>
      <trkpt lat="47.41187" lon="6.74812">
        <ele>550.4</ele>
        <time>2014-11-02T10:53:54.000Z</time>
      </trkpt>
      <trkpt lat="47.41183" lon="6.74803">
        <ele>550.4</ele>
        <time>2014-11-02T10:53:55.000Z</time>
      </trkpt>
      <trkpt lat="47.41178" lon="6.74796">
        <ele>550.1</ele>
        <time>2014-11-02T10:53:56.000Z</time>
      </trkpt>
      <trkpt lat="47.41174" lon="6.74788">
        <ele>549.4</ele>
        <time>2014-11-02T10:53:57.000Z</time>
      </trkpt>
      <trkpt lat="47.41169" lon="6.7478">
        <ele>549.2</ele>
        <time>2014-11-02T10:53:58.000Z</time>
      </trkpt>
      <trkpt lat="47.41165" lon="6.74773">
        <ele>549.2</ele>
        <time>2014-11-02T10:53:59.000Z</time>
      </trkpt>
      <trkpt lat="47.41161" lon="6.74763">
        <ele>549.1</ele>
        <time>2014-11-02T10:54:00.000Z</time>
      </trkpt>
      <trkpt lat="47.41158" lon="6.74754">
        <ele>545.9</ele>
        <time>2014-11-02T10:54:01.000Z</time>
      </trkpt>
      <trkpt lat="47.41154" lon="6.74744">
        <ele>545.2</ele>
        <time>2014-11-02T10:54:02.000Z</time>
      </trkpt>
      <trkpt lat="47.4115" lon="6.74711">
        <ele>542.8</ele>
        <time>2014-11-02T10:54:05.000Z</time>
      </trkpt>
      <trkpt lat="47.41155" lon="6.74699">
        <ele>543.6</ele>
        <time>2014-11-02T10:54:06.000Z</time>
      </trkpt>
      <trkpt lat="47.41158" lon="6.74688">
        <ele>544.6</ele>
        <time>2014-11-02T10:54:07.000Z</time>
      </trkpt>
      <trkpt lat="47.41163" lon="6.7468">
        <ele>545.1</ele>
        <time>2014-11-02T10:54:08.000Z</time>
      </trkpt>
      <trkpt lat="47.41169" lon="6.74673">
        <ele>544.7</ele>
        <time>2014-11-02T10:54:09.000Z</time>
      </trkpt>
      <trkpt lat="47.41175" lon="6.74668">
        <ele>544.2</ele>
        <time>2014-11-02T10:54:10.000Z</time>
      </trkpt>
      <trkpt lat="47.41181" lon="6.74667">
        <ele>545.5</ele>
        <time>2014-11-02T10:54:11.000Z</time>
      </trkpt>
      <trkpt lat="47.41187" lon="6.74665">
        <ele>545.7</ele>
        <time>2014-11-02T10:54:12.000Z</time>
      </trkpt>
      <trkpt lat="47.41194" lon="6.74662">
        <ele>545.5</ele>
        <time>2014-11-02T10:54:13.000Z</time>
      </trkpt>
      <trkpt lat="47.412" lon="6.74659">
        <ele>544.7</ele>
        <time>2014-11-02T10:54:14.000Z</time>
      </trkpt>
      <trkpt lat="47.41207" lon="6.74655">
        <ele>544.8</ele>
        <time>2014-11-02T10:54:15.000Z</time>
      </trkpt>
      <trkpt lat="47.41215" lon="6.74651">
        <ele>545.1</ele>
        <time>2014-11-02T10:54:16.000Z</time>
      </trkpt>
      <trkpt lat="47.41223" lon="6.74644">
        <ele>544.8</ele>
        <time>2014-11-02T10:54:17.000Z</time>
      </trkpt>
      <trkpt lat="47.41231" lon="6.74639">
        <ele>544.6</ele>
        <time>2014-11-02T10:54:18.000Z</time>
      </trkpt>
      <trkpt lat="47.41239" lon="6.74633">
        <ele>544.7</ele>
        <time>2014-11-02T10:54:19.000Z</time>
      </trkpt>
      <trkpt lat="47.41247" lon="6.74627">
        <ele>545</ele>
        <time>2014-11-02T10:54:20.000Z</time>
      </trkpt>
      <trkpt lat="47.41255" lon="6.74619">
        <ele>544.4</ele>
        <time>2014-11-02T10:54:21.000Z</time>
      </trkpt>
      <trkpt lat="47.41262" lon="6.74614">
        <ele>544.5</ele>
        <time>2014-11-02T10:54:22.000Z</time>
      </trkpt>
      <trkpt lat="47.41268" lon="6.7461">
        <ele>544.3</ele>
        <time>2014-11-02T10:54:23.000Z</time>
      </trkpt>
      <trkpt lat="47.41276" lon="6.74607">
        <ele>544.7</ele>
        <time>2014-11-02T10:54:24.000Z</time>
      </trkpt>
      <trkpt lat="47.41281" lon="6.746">
        <ele>546.6</ele>
        <time>2014-11-02T10:54:25.000Z</time>
      </trkpt>
      <trkpt lat="47.41287" lon="6.74593">
        <ele>546.8</ele>
        <time>2014-11-02T10:54:26.000Z</time>
      </trkpt>
      <trkpt lat="47.41291" lon="6.74585">
        <ele>546.7</ele>
        <time>2014-11-02T10:54:27.000Z</time>
      </trkpt>
      <trkpt lat="47.41295" lon="6.74577">
        <ele>546.9</ele>
        <time>2014-11-02T10:54:28.000Z</time>
      </trkpt>
      <trkpt lat="47.41297" lon="6.7457">
        <ele>547</ele>
        <time>2014-11-02T10:54:29.000Z</time>
      </trkpt>
      <trkpt lat="47.41301" lon="6.74563">
        <ele>546.8</ele>
        <time>2014-11-02T10:54:30.000Z</time>
      </trkpt>
      <trkpt lat="47.41305" lon="6.74552">
        <ele>543.8</ele>
        <time>2014-11-02T10:54:31.000Z</time>
      </trkpt>
      <trkpt lat="47.41309" lon="6.74542">
        <ele>543.4</ele>
        <time>2014-11-02T10:54:32.000Z</time>
      </trkpt>
      <trkpt lat="47.41313" lon="6.74534">
        <ele>543.4</ele>
        <time>2014-11-02T10:54:33.000Z</time>
      </trkpt>
      <trkpt lat="47.41319" lon="6.74527">
        <ele>542.6</ele>
        <time>2014-11-02T10:54:34.000Z</time>
      </trkpt>
      <trkpt lat="47.41322" lon="6.74518">
        <ele>541.6</ele>
        <time>2014-11-02T10:54:35.000Z</time>
      </trkpt>
      <trkpt lat="47.41327" lon="6.74509">
        <ele>541.1</ele>
        <time>2014-11-02T10:54:36.000Z</time>
      </trkpt>
      <trkpt lat="47.4133" lon="6.745">
        <ele>539.6</ele>
        <time>2014-11-02T10:54:37.000Z</time>
      </trkpt>
      <trkpt lat="47.41332" lon="6.74489">
        <ele>538.5</ele>
        <time>2014-11-02T10:54:38.000Z</time>
      </trkpt>
      <trkpt lat="47.41333" lon="6.74479">
        <ele>537.3</ele>
        <time>2014-11-02T10:54:39.000Z</time>
      </trkpt>
      <trkpt lat="47.41334" lon="6.74468">
        <ele>537.5</ele>
        <time>2014-11-02T10:54:40.000Z</time>
      </trkpt>
      <trkpt lat="47.41336" lon="6.74457">
        <ele>536.9</ele>
        <time>2014-11-02T10:54:41.000Z</time>
      </trkpt>
      <trkpt lat="47.41337" lon="6.74446">
        <ele>536.7</ele>
        <time>2014-11-02T10:54:42.000Z</time>
      </trkpt>
      <trkpt lat="47.41339" lon="6.74434">
        <ele>536.5</ele>
        <time>2014-11-02T10:54:43.000Z</time>
      </trkpt>
      <trkpt lat="47.41339" lon="6.74422">
        <ele>536.2</ele>
        <time>2014-11-02T10:54:44.000Z</time>
      </trkpt>
      <trkpt lat="47.41341" lon="6.7441">
        <ele>535.5</ele>
        <time>2014-11-02T10:54:45.000Z</time>
      </trkpt>
      <trkpt lat="47.41342" lon="6.74398">
        <ele>535.1</ele>
        <time>2014-11-02T10:54:46.000Z</time>
      </trkpt>
      <trkpt lat="47.41342" lon="6.74387">
        <ele>534.3</ele>
        <time>2014-11-02T10:54:47.000Z</time>
      </trkpt>
      <trkpt lat="47.41343" lon="6.74374">
        <ele>533.9</ele>
        <time>2014-11-02T10:54:48.000Z</time>
      </trkpt>
      <trkpt lat="47.41344" lon="6.74363">
        <ele>534.5</ele>
        <time>2014-11-02T10:54:49.000Z</time>
      </trkpt>
      <trkpt lat="47.41343" lon="6.74352">
        <ele>535.2</ele>
        <time>2014-11-02T10:54:50.000Z</time>
      </trkpt>
      <trkpt lat="47.41341" lon="6.74342">
        <ele>535.2</ele>
        <time>2014-11-02T10:54:51.000Z</time>
      </trkpt>
      <trkpt lat="47.41341" lon="6.7433">
        <ele>534.9</ele>
        <time>2014-11-02T10:54:52.000Z</time>
      </trkpt>
      <trkpt lat="47.4134" lon="6.74318">
        <ele>534.4</ele>
        <time>2014-11-02T10:54:53.000Z</time>
      </trkpt>
      <trkpt lat="47.4134" lon="6.74307">
        <ele>534.1</ele>
        <time>2014-11-02T10:54:54.000Z</time>
      </trkpt>
      <trkpt lat="47.41338" lon="6.74296">
        <ele>533.8</ele>
        <time>2014-11-02T10:54:55.000Z</time>
      </trkpt>
      <trkpt lat="47.41337" lon="6.74284">
        <ele>533.6</ele>
        <time>2014-11-02T10:54:56.000Z</time>
      </trkpt>
      <trkpt lat="47.41337" lon="6.74274">
        <ele>533.3</ele>
        <time>2014-11-02T10:54:57.000Z</time>
      </trkpt>
      <trkpt lat="47.41336" lon="6.74264">
        <ele>533.2</ele>
        <time>2014-11-02T10:54:58.000Z</time>
      </trkpt>
      <trkpt lat="47.41334" lon="6.74253">
        <ele>533.2</ele>
        <time>2014-11-02T10:54:59.000Z</time>
      </trkpt>
      <trkpt lat="47.41333" lon="6.74244">
        <ele>532.7</ele>
        <time>2014-11-02T10:55:00.000Z</time>
      </trkpt>
      <trkpt lat="47.41332" lon="6.74235">
        <ele>532.9</ele>
        <time>2014-11-02T10:55:01.000Z</time>
      </trkpt>
      <trkpt lat="47.41332" lon="6.74224">
        <ele>532.9</ele>
        <time>2014-11-02T10:55:02.000Z</time>
      </trkpt>
      <trkpt lat="47.41331" lon="6.74197">
        <ele>533.2</ele>
        <time>2014-11-02T10:55:05.000Z</time>
      </trkpt>
      <trkpt lat="47.41329" lon="6.74187">
        <ele>531.4</ele>
        <time>2014-11-02T10:55:06.000Z</time>
      </trkpt>
      <trkpt lat="47.41329" lon="6.74177">
        <ele>530.6</ele>
        <time>2014-11-02T10:55:07.000Z</time>
      </trkpt>
      <trkpt lat="47.41327" lon="6.74168">
        <ele>531.2</ele>
        <time>2014-11-02T10:55:08.000Z</time>
      </trkpt>
      <trkpt lat="47.41326" lon="6.74158">
        <ele>530.4</ele>
        <time>2014-11-02T10:55:09.000Z</time>
      </trkpt>
      <trkpt lat="47.41325" lon="6.74148">
        <ele>529.8</ele>
        <time>2014-11-02T10:55:10.000Z</time>
      </trkpt>
      <trkpt lat="47.41325" lon="6.74139">
        <ele>529.5</ele>
        <time>2014-11-02T10:55:11.000Z</time>
      </trkpt>
      <trkpt lat="47.41324" lon="6.7413">
        <ele>530</ele>
        <time>2014-11-02T10:55:12.000Z</time>
      </trkpt>
      <trkpt lat="47.41324" lon="6.74121">
        <ele>529.7</ele>
        <time>2014-11-02T10:55:13.000Z</time>
      </trkpt>
      <trkpt lat="47.41324" lon="6.74111">
        <ele>529.4</ele>
        <time>2014-11-02T10:55:14.000Z</time>
      </trkpt>
      <trkpt lat="47.41323" lon="6.74102">
        <ele>529.7</ele>
        <time>2014-11-02T10:55:15.000Z</time>
      </trkpt>
      <trkpt lat="47.41323" lon="6.74092">
        <ele>529.4</ele>
        <time>2014-11-02T10:55:16.000Z</time>
      </trkpt>
      <trkpt lat="47.41323" lon="6.74083">
        <ele>529.5</ele>
        <time>2014-11-02T10:55:17.000Z</time>
      </trkpt>
      <trkpt lat="47.41323" lon="6.74074">
        <ele>529.2</ele>
        <time>2014-11-02T10:55:18.000Z</time>
      </trkpt>
      <trkpt lat="47.41323" lon="6.74065">
        <ele>529</ele>
        <time>2014-11-02T10:55:19.000Z</time>
      </trkpt>
      <trkpt lat="47.41323" lon="6.74056">
        <ele>528.5</ele>
        <time>2014-11-02T10:55:20.000Z</time>
      </trkpt>
      <trkpt lat="47.41323" lon="6.74046">
        <ele>527.9</ele>
        <time>2014-11-02T10:55:21.000Z</time>
      </trkpt>
      <trkpt lat="47.41322" lon="6.74036">
        <ele>528.3</ele>
        <time>2014-11-02T10:55:22.000Z</time>
      </trkpt>
      <trkpt lat="47.41321" lon="6.74026">
        <ele>528.2</ele>
        <time>2014-11-02T10:55:23.000Z</time>
      </trkpt>
      <trkpt lat="47.41321" lon="6.74015">
        <ele>528</ele>
        <time>2014-11-02T10:55:24.000Z</time>
      </trkpt>
      <trkpt lat="47.4132" lon="6.74004">
        <ele>527.8</ele>
        <time>2014-11-02T10:55:25.000Z</time>
      </trkpt>
      <trkpt lat="47.4132" lon="6.73994">
        <ele>527.6</ele>
        <time>2014-11-02T10:55:26.000Z</time>
      </trkpt>
      <trkpt lat="47.41319" lon="6.73983">
        <ele>527.9</ele>
        <time>2014-11-02T10:55:27.000Z</time>
      </trkpt>
      <trkpt lat="47.41318" lon="6.73973">
        <ele>527.8</ele>
        <time>2014-11-02T10:55:28.000Z</time>
      </trkpt>
      <trkpt lat="47.41317" lon="6.73963">
        <ele>528</ele>
        <time>2014-11-02T10:55:29.000Z</time>
      </trkpt>
      <trkpt lat="47.41317" lon="6.73954">
        <ele>528.7</ele>
        <time>2014-11-02T10:55:30.000Z</time>
      </trkpt>
      <trkpt lat="47.41316" lon="6.73943">
        <ele>528.6</ele>
        <time>2014-11-02T10:55:31.000Z</time>
      </trkpt>
      <trkpt lat="47.41316" lon="6.73933">
        <ele>528.6</ele>
        <time>2014-11-02T10:55:32.000Z</time>
      </trkpt>
      <trkpt lat="47.41316" lon="6.73923">
        <ele>528</ele>
        <time>2014-11-02T10:55:33.000Z</time>
      </trkpt>
      <trkpt lat="47.41315" lon="6.73912">
        <ele>526.8</ele>
        <time>2014-11-02T10:55:34.000Z</time>
      </trkpt>
      <trkpt lat="47.41315" lon="6.73901">
        <ele>526.3</ele>
        <time>2014-11-02T10:55:35.000Z</time>
      </trkpt>
      <trkpt lat="47.41315" lon="6.7389">
        <ele>526</ele>
        <time>2014-11-02T10:55:36.000Z</time>
      </trkpt>
      <trkpt lat="47.41315" lon="6.73877">
        <ele>526.1</ele>
        <time>2014-11-02T10:55:37.000Z</time>
      </trkpt>
      <trkpt lat="47.41317" lon="6.73867">
        <ele>525.6</ele>
        <time>2014-11-02T10:55:38.000Z</time>
      </trkpt>
      <trkpt lat="47.41318" lon="6.73856">
        <ele>525.3</ele>
        <time>2014-11-02T10:55:38.996Z</time>
      </trkpt>
      <trkpt lat="47.41316" lon="6.73842">
        <ele>525</ele>
        <time>2014-11-02T10:55:40.000Z</time>
      </trkpt>
      <trkpt lat="47.41317" lon="6.7383">
        <ele>524.2</ele>
        <time>2014-11-02T10:55:41.000Z</time>
      </trkpt>
      <trkpt lat="47.41317" lon="6.73817">
        <ele>523.2</ele>
        <time>2014-11-02T10:55:42.000Z</time>
      </trkpt>
      <trkpt lat="47.41318" lon="6.73804">
        <ele>522.8</ele>
        <time>2014-11-02T10:55:43.000Z</time>
      </trkpt>
      <trkpt lat="47.4132" lon="6.73792">
        <ele>522</ele>
        <time>2014-11-02T10:55:44.000Z</time>
      </trkpt>
      <trkpt lat="47.41321" lon="6.7378">
        <ele>521.3</ele>
        <time>2014-11-02T10:55:45.000Z</time>
      </trkpt>
      <trkpt lat="47.41323" lon="6.73768">
        <ele>520.8</ele>
        <time>2014-11-02T10:55:46.000Z</time>
      </trkpt>
      <trkpt lat="47.41324" lon="6.73756">
        <ele>520.4</ele>
        <time>2014-11-02T10:55:47.000Z</time>
      </trkpt>
      <trkpt lat="47.41324" lon="6.73746">
        <ele>519.9</ele>
        <time>2014-11-02T10:55:48.000Z</time>
      </trkpt>
      <trkpt lat="47.41325" lon="6.73737">
        <ele>520.2</ele>
        <time>2014-11-02T10:55:49.000Z</time>
      </trkpt>
      <trkpt lat="47.41326" lon="6.73727">
        <ele>520.2</ele>
        <time>2014-11-02T10:55:50.000Z</time>
      </trkpt>
      <trkpt lat="47.41328" lon="6.73717">
        <ele>519.6</ele>
        <time>2014-11-02T10:55:51.000Z</time>
      </trkpt>
      <trkpt lat="47.41329" lon="6.73707">
        <ele>519.2</ele>
        <time>2014-11-02T10:55:52.000Z</time>
      </trkpt>
      <trkpt lat="47.4133" lon="6.73697">
        <ele>519</ele>
        <time>2014-11-02T10:55:53.000Z</time>
      </trkpt>
      <trkpt lat="47.41332" lon="6.73687">
        <ele>518.8</ele>
        <time>2014-11-02T10:55:54.000Z</time>
      </trkpt>
      <trkpt lat="47.41333" lon="6.73677">
        <ele>518.9</ele>
        <time>2014-11-02T10:55:55.000Z</time>
      </trkpt>
      <trkpt lat="47.41334" lon="6.73667">
        <ele>518.3</ele>
        <time>2014-11-02T10:55:56.000Z</time>
      </trkpt>
      <trkpt lat="47.41336" lon="6.73658">
        <ele>517.8</ele>
        <time>2014-11-02T10:55:57.000Z</time>
      </trkpt>
      <trkpt lat="47.41338" lon="6.73649">
        <ele>519.1</ele>
        <time>2014-11-02T10:55:58.000Z</time>
      </trkpt>
      <trkpt lat="47.4134" lon="6.73638">
        <ele>518.6</ele>
        <time>2014-11-02T10:55:59.000Z</time>
      </trkpt>
      <trkpt lat="47.41342" lon="6.73628">
        <ele>518.4</ele>
        <time>2014-11-02T10:56:00.000Z</time>
      </trkpt>
      <trkpt lat="47.41343" lon="6.73617">
        <ele>518.6</ele>
        <time>2014-11-02T10:56:01.000Z</time>
      </trkpt>
      <trkpt lat="47.41345" lon="6.73605">
        <ele>518.8</ele>
        <time>2014-11-02T10:56:02.000Z</time>
      </trkpt>
      <trkpt lat="47.4135" lon="6.7357">
        <ele>518.8</ele>
        <time>2014-11-02T10:56:05.000Z</time>
      </trkpt>
      <trkpt lat="47.41349" lon="6.73554">
        <ele>519</ele>
        <time>2014-11-02T10:56:06.000Z</time>
      </trkpt>
      <trkpt lat="47.41351" lon="6.73539">
        <ele>518.7</ele>
        <time>2014-11-02T10:56:07.000Z</time>
      </trkpt>
      <trkpt lat="47.41355" lon="6.73527">
        <ele>518.2</ele>
        <time>2014-11-02T10:56:08.000Z</time>
      </trkpt>
      <trkpt lat="47.41359" lon="6.73515">
        <ele>517</ele>
        <time>2014-11-02T10:56:09.000Z</time>
      </trkpt>
      <trkpt lat="47.41363" lon="6.73502">
        <ele>516.5</ele>
        <time>2014-11-02T10:56:10.000Z</time>
      </trkpt>
      <trkpt lat="47.41368" lon="6.7349">
        <ele>516.1</ele>
        <time>2014-11-02T10:56:11.000Z</time>
      </trkpt>
      <trkpt lat="47.41372" lon="6.7348">
        <ele>515.7</ele>
        <time>2014-11-02T10:56:12.000Z</time>
      </trkpt>
      <trkpt lat="47.41378" lon="6.73469">
        <ele>516.5</ele>
        <time>2014-11-02T10:56:13.000Z</time>
      </trkpt>
      <trkpt lat="47.41382" lon="6.7346">
        <ele>516.1</ele>
        <time>2014-11-02T10:56:14.000Z</time>
      </trkpt>
      <trkpt lat="47.41388" lon="6.7345">
        <ele>515.6</ele>
        <time>2014-11-02T10:56:15.000Z</time>
      </trkpt>
      <trkpt lat="47.41392" lon="6.7344">
        <ele>514.9</ele>
        <time>2014-11-02T10:56:16.000Z</time>
      </trkpt>
      <trkpt lat="47.41397" lon="6.73431">
        <ele>514.8</ele>
        <time>2014-11-02T10:56:17.000Z</time>
      </trkpt>
      <trkpt lat="47.41402" lon="6.73422">
        <ele>514.7</ele>
        <time>2014-11-02T10:56:18.000Z</time>
      </trkpt>
      <trkpt lat="47.41407" lon="6.73413">
        <ele>514.5</ele>
        <time>2014-11-02T10:56:19.000Z</time>
      </trkpt>
      <trkpt lat="47.41411" lon="6.73405">
        <ele>514.4</ele>
        <time>2014-11-02T10:56:20.000Z</time>
      </trkpt>
      <trkpt lat="47.41416" lon="6.73397">
        <ele>513.8</ele>
        <time>2014-11-02T10:56:21.000Z</time>
      </trkpt>
      <trkpt lat="47.4142" lon="6.73389">
        <ele>514.1</ele>
        <time>2014-11-02T10:56:22.000Z</time>
      </trkpt>
      <trkpt lat="47.41425" lon="6.73382">
        <ele>513.8</ele>
        <time>2014-11-02T10:56:23.000Z</time>
      </trkpt>
      <trkpt lat="47.41429" lon="6.73375">
        <ele>514.2</ele>
        <time>2014-11-02T10:56:24.000Z</time>
      </trkpt>
      <trkpt lat="47.41433" lon="6.73368">
        <ele>514.1</ele>
        <time>2014-11-02T10:56:25.000Z</time>
      </trkpt>
      <trkpt lat="47.41436" lon="6.73362">
        <ele>513.6</ele>
        <time>2014-11-02T10:56:26.000Z</time>
      </trkpt>
      <trkpt lat="47.41439" lon="6.73356">
        <ele>513.3</ele>
        <time>2014-11-02T10:56:27.000Z</time>
      </trkpt>
      <trkpt lat="47.41442" lon="6.7335">
        <ele>513.4</ele>
        <time>2014-11-02T10:56:28.000Z</time>
      </trkpt>
      <trkpt lat="47.41445" lon="6.73344">
        <ele>513.1</ele>
        <time>2014-11-02T10:56:29.000Z</time>
      </trkpt>
      <trkpt lat="47.41449" lon="6.73338">
        <ele>513.1</ele>
        <time>2014-11-02T10:56:30.000Z</time>
      </trkpt>
      <trkpt lat="47.41452" lon="6.73332">
        <ele>512.5</ele>
        <time>2014-11-02T10:56:31.000Z</time>
      </trkpt>
      <trkpt lat="47.41456" lon="6.73325">
        <ele>513</ele>
        <time>2014-11-02T10:56:32.000Z</time>
      </trkpt>
      <trkpt lat="47.4146" lon="6.73319">
        <ele>513</ele>
        <time>2014-11-02T10:56:33.000Z</time>
      </trkpt>
      <trkpt lat="47.41463" lon="6.73314">
        <ele>513.3</ele>
        <time>2014-11-02T10:56:34.000Z</time>
      </trkpt>
      <trkpt lat="47.41466" lon="6.73309">
        <ele>513.4</ele>
        <time>2014-11-02T10:56:35.000Z</time>
      </trkpt>
      <trkpt lat="47.41469" lon="6.73304">
        <ele>513.1</ele>
        <time>2014-11-02T10:56:36.000Z</time>
      </trkpt>
      <trkpt lat="47.41472" lon="6.733">
        <ele>513.1</ele>
        <time>2014-11-02T10:56:37.000Z</time>
      </trkpt>
      <trkpt lat="47.41475" lon="6.73297">
        <ele>513.2</ele>
        <time>2014-11-02T10:56:38.000Z</time>
      </trkpt>
      <trkpt lat="47.41477" lon="6.73294">
        <ele>513.5</ele>
        <time>2014-11-02T10:56:39.000Z</time>
      </trkpt>
      <trkpt lat="47.41479" lon="6.7329">
        <ele>513.5</ele>
        <time>2014-11-02T10:56:40.000Z</time>
      </trkpt>
      <trkpt lat="47.41481" lon="6.73288">
        <ele>513.6</ele>
        <time>2014-11-02T10:56:41.000Z</time>
      </trkpt>
      <trkpt lat="47.41484" lon="6.73285">
        <ele>513.6</ele>
        <time>2014-11-02T10:56:42.000Z</time>
      </trkpt>
      <trkpt lat="47.41486" lon="6.73282">
        <ele>513.3</ele>
        <time>2014-11-02T10:56:43.000Z</time>
      </trkpt>
      <trkpt lat="47.41489" lon="6.73281">
        <ele>514</ele>
        <time>2014-11-02T10:56:44.000Z</time>
      </trkpt>
      <trkpt lat="47.41491" lon="6.73276">
        <ele>513.6</ele>
        <time>2014-11-02T10:56:45.000Z</time>
      </trkpt>
      <trkpt lat="47.41494" lon="6.73273">
        <ele>513.4</ele>
        <time>2014-11-02T10:56:46.000Z</time>
      </trkpt>
      <trkpt lat="47.41496" lon="6.7327">
        <ele>513.6</ele>
        <time>2014-11-02T10:56:47.000Z</time>
      </trkpt>
      <trkpt lat="47.41499" lon="6.73267">
        <ele>513.7</ele>
        <time>2014-11-02T10:56:48.000Z</time>
      </trkpt>
      <trkpt lat="47.41501" lon="6.73264">
        <ele>513.3</ele>
        <time>2014-11-02T10:56:49.000Z</time>
      </trkpt>
      <trkpt lat="47.41503" lon="6.73261">
        <ele>513.4</ele>
        <time>2014-11-02T10:56:50.000Z</time>
      </trkpt>
      <trkpt lat="47.41505" lon="6.73259">
        <ele>513.2</ele>
        <time>2014-11-02T10:56:51.000Z</time>
      </trkpt>
      <trkpt lat="47.41507" lon="6.73257">
        <ele>513.6</ele>
        <time>2014-11-02T10:56:52.000Z</time>
      </trkpt>
      <trkpt lat="47.41509" lon="6.73255">
        <ele>514.2</ele>
        <time>2014-11-02T10:56:53.000Z</time>
      </trkpt>
      <trkpt lat="47.41511" lon="6.73254">
        <ele>514.7</ele>
        <time>2014-11-02T10:56:54.000Z</time>
      </trkpt>
      <trkpt lat="47.41514" lon="6.73253">
        <ele>514.6</ele>
        <time>2014-11-02T10:56:55.000Z</time>
      </trkpt>
      <trkpt lat="47.41516" lon="6.73251">
        <ele>514.5</ele>
        <time>2014-11-02T10:56:56.000Z</time>
      </trkpt>
      <trkpt lat="47.41518" lon="6.73248">
        <ele>514.6</ele>
        <time>2014-11-02T10:56:57.000Z</time>
      </trkpt>
      <trkpt lat="47.4152" lon="6.73246">
        <ele>514.5</ele>
        <time>2014-11-02T10:56:58.000Z</time>
      </trkpt>
      <trkpt lat="47.41522" lon="6.73244">
        <ele>514.7</ele>
        <time>2014-11-02T10:56:59.000Z</time>
      </trkpt>
      <trkpt lat="47.41524" lon="6.73242">
        <ele>514.3</ele>
        <time>2014-11-02T10:57:00.000Z</time>
      </trkpt>
      <trkpt lat="47.41526" lon="6.73241">
        <ele>514.5</ele>
        <time>2014-11-02T10:57:01.000Z</time>
      </trkpt>
      <trkpt lat="47.41529" lon="6.73239">
        <ele>514.7</ele>
        <time>2014-11-02T10:57:02.000Z</time>
      </trkpt>
      <trkpt lat="47.41533" lon="6.73231">
        <ele>517.3</ele>
        <time>2014-11-02T10:57:05.000Z</time>
      </trkpt>
      <trkpt lat="47.41536" lon="6.73227">
        <ele>520.3</ele>
        <time>2014-11-02T10:57:07.000Z</time>
      </trkpt>
      <trkpt lat="47.41538" lon="6.73225">
        <ele>520.7</ele>
        <time>2014-11-02T10:57:08.000Z</time>
      </trkpt>
      <trkpt lat="47.4154" lon="6.73224">
        <ele>520.9</ele>
        <time>2014-11-02T10:57:09.000Z</time>
      </trkpt>
      <trkpt lat="47.41543" lon="6.73222">
        <ele>521.4</ele>
        <time>2014-11-02T10:57:10.000Z</time>
      </trkpt>
      <trkpt lat="47.41545" lon="6.7322">
        <ele>523.7</ele>
        <time>2014-11-02T10:57:11.000Z</time>
      </trkpt>
      <trkpt lat="47.41548" lon="6.73218">
        <ele>523.5</ele>
        <time>2014-11-02T10:57:12.000Z</time>
      </trkpt>
      <trkpt lat="47.41549" lon="6.73216">
        <ele>523.6</ele>
        <time>2014-11-02T10:57:13.000Z</time>
      </trkpt>
      <trkpt lat="47.41551" lon="6.73214">
        <ele>524.2</ele>
        <time>2014-11-02T10:57:14.000Z</time>
      </trkpt>
      <trkpt lat="47.41553" lon="6.73212">
        <ele>524.4</ele>
        <time>2014-11-02T10:57:15.000Z</time>
      </trkpt>
      <trkpt lat="47.41555" lon="6.7321">
        <ele>524.8</ele>
        <time>2014-11-02T10:57:16.000Z</time>
      </trkpt>
      <trkpt lat="47.41557" lon="6.73208">
        <ele>524.9</ele>
        <time>2014-11-02T10:57:17.000Z</time>
      </trkpt>
      <trkpt lat="47.41559" lon="6.73206">
        <ele>525.3</ele>
        <time>2014-11-02T10:57:18.000Z</time>
      </trkpt>
      <trkpt lat="47.41561" lon="6.73203">
        <ele>523.4</ele>
        <time>2014-11-02T10:57:19.000Z</time>
      </trkpt>
      <trkpt lat="47.41562" lon="6.732">
        <ele>524.9</ele>
        <time>2014-11-02T10:57:20.000Z</time>
      </trkpt>
      <trkpt lat="47.41566" lon="6.73196">
        <ele>525.6</ele>
        <time>2014-11-02T10:57:22.000Z</time>
      </trkpt>
      <trkpt lat="47.41568" lon="6.73195">
        <ele>526</ele>
        <time>2014-11-02T10:57:23.000Z</time>
      </trkpt>
      <trkpt lat="47.41571" lon="6.73191">
        <ele>526.6</ele>
        <time>2014-11-02T10:57:25.000Z</time>
      </trkpt>
      <trkpt lat="47.41573" lon="6.73188">
        <ele>525.7</ele>
        <time>2014-11-02T10:57:26.000Z</time>
      </trkpt>
      <trkpt lat="47.41574" lon="6.73185">
        <ele>525.1</ele>
        <time>2014-11-02T10:57:27.000Z</time>
      </trkpt>
      <trkpt lat="47.41576" lon="6.73181">
        <ele>524.7</ele>
        <time>2014-11-02T10:57:28.000Z</time>
      </trkpt>
      <trkpt lat="47.41578" lon="6.73177">
        <ele>525.1</ele>
        <time>2014-11-02T10:57:29.000Z</time>
      </trkpt>
      <trkpt lat="47.41579" lon="6.73174">
        <ele>525.4</ele>
        <time>2014-11-02T10:57:30.000Z</time>
      </trkpt>
      <trkpt lat="47.41581" lon="6.73171">
        <ele>524.5</ele>
        <time>2014-11-02T10:57:31.000Z</time>
      </trkpt>
      <trkpt lat="47.41583" lon="6.73167">
        <ele>524.6</ele>
        <time>2014-11-02T10:57:32.000Z</time>
      </trkpt>
      <trkpt lat="47.41584" lon="6.73164">
        <ele>524.9</ele>
        <time>2014-11-02T10:57:33.000Z</time>
      </trkpt>
      <trkpt lat="47.41586" lon="6.73161">
        <ele>524.6</ele>
        <time>2014-11-02T10:57:34.000Z</time>
      </trkpt>
      <trkpt lat="47.41587" lon="6.73158">
        <ele>524.5</ele>
        <time>2014-11-02T10:57:35.000Z</time>
      </trkpt>
      <trkpt lat="47.41589" lon="6.73156">
        <ele>524.9</ele>
        <time>2014-11-02T10:57:36.000Z</time>
      </trkpt>
      <trkpt lat="47.41591" lon="6.73153">
        <ele>524.7</ele>
        <time>2014-11-02T10:57:37.000Z</time>
      </trkpt>
      <trkpt lat="47.41593" lon="6.73151">
        <ele>525</ele>
        <time>2014-11-02T10:57:38.000Z</time>
      </trkpt>
      <trkpt lat="47.41595" lon="6.73146">
        <ele>525.4</ele>
        <time>2014-11-02T10:57:40.000Z</time>
      </trkpt>
      <trkpt lat="47.41597" lon="6.73143">
        <ele>525.5</ele>
        <time>2014-11-02T10:57:41.000Z</time>
      </trkpt>
      <trkpt lat="47.41599" lon="6.73137">
        <ele>526.2</ele>
        <time>2014-11-02T10:57:43.000Z</time>
      </trkpt>
      <trkpt lat="47.416" lon="6.73134">
        <ele>526.1</ele>
        <time>2014-11-02T10:57:44.000Z</time>
      </trkpt>
      <trkpt lat="47.41603" lon="6.73129">
        <ele>526.5</ele>
        <time>2014-11-02T10:57:46.000Z</time>
      </trkpt>
      <trkpt lat="47.41604" lon="6.73127">
        <ele>526.4</ele>
        <time>2014-11-02T10:57:47.000Z</time>
      </trkpt>
      <trkpt lat="47.41607" lon="6.73123">
        <ele>527.2</ele>
        <time>2014-11-02T10:57:49.000Z</time>
      </trkpt>
      <trkpt lat="47.41608" lon="6.7312">
        <ele>527.3</ele>
        <time>2014-11-02T10:57:50.000Z</time>
      </trkpt>
      <trkpt lat="47.4161" lon="6.73118">
        <ele>528</ele>
        <time>2014-11-02T10:57:51.000Z</time>
      </trkpt>
      <trkpt lat="47.41612" lon="6.73115">
        <ele>528</ele>
        <time>2014-11-02T10:57:52.000Z</time>
      </trkpt>
      <trkpt lat="47.41614" lon="6.73113">
        <ele>528.9</ele>
        <time>2014-11-02T10:57:53.000Z</time>
      </trkpt>
      <trkpt lat="47.41615" lon="6.73111">
        <ele>529.1</ele>
        <time>2014-11-02T10:57:54.000Z</time>
      </trkpt>
      <trkpt lat="47.41618" lon="6.73106">
        <ele>529.7</ele>
        <time>2014-11-02T10:57:56.000Z</time>
      </trkpt>
      <trkpt lat="47.41619" lon="6.73103">
        <ele>529.3</ele>
        <time>2014-11-02T10:57:57.000Z</time>
      </trkpt>
      <trkpt lat="47.41621" lon="6.731">
        <ele>529</ele>
        <time>2014-11-02T10:57:58.000Z</time>
      </trkpt>
      <trkpt lat="47.41623" lon="6.73097">
        <ele>529.8</ele>
        <time>2014-11-02T10:57:59.000Z</time>
      </trkpt>
      <trkpt lat="47.41624" lon="6.73094">
        <ele>529.6</ele>
        <time>2014-11-02T10:58:00.000Z</time>
      </trkpt>
      <trkpt lat="47.41626" lon="6.73092">
        <ele>529.1</ele>
        <time>2014-11-02T10:58:01.000Z</time>
      </trkpt>
      <trkpt lat="47.41628" lon="6.73089">
        <ele>529.1</ele>
        <time>2014-11-02T10:58:02.000Z</time>
      </trkpt>
      <trkpt lat="47.4163" lon="6.73086">
        <ele>529.2</ele>
        <time>2014-11-02T10:58:03.000Z</time>
      </trkpt>
      <trkpt lat="47.41635" lon="6.73078">
        <ele>530</ele>
        <time>2014-11-02T10:58:06.000Z</time>
      </trkpt>
      <trkpt lat="47.41637" lon="6.73076">
        <ele>529.5</ele>
        <time>2014-11-02T10:58:07.000Z</time>
      </trkpt>
      <trkpt lat="47.41638" lon="6.73073">
        <ele>529.5</ele>
        <time>2014-11-02T10:58:08.000Z</time>
      </trkpt>
      <trkpt lat="47.4164" lon="6.7307">
        <ele>529.7</ele>
        <time>2014-11-02T10:58:09.000Z</time>
      </trkpt>
      <trkpt lat="47.41642" lon="6.73067">
        <ele>529</ele>
        <time>2014-11-02T10:58:10.000Z</time>
      </trkpt>
      <trkpt lat="47.41644" lon="6.73064">
        <ele>528.5</ele>
        <time>2014-11-02T10:58:11.000Z</time>
      </trkpt>
      <trkpt lat="47.41646" lon="6.73061">
        <ele>528.1</ele>
        <time>2014-11-02T10:58:12.000Z</time>
      </trkpt>
      <trkpt lat="47.41648" lon="6.73058">
        <ele>527.7</ele>
        <time>2014-11-02T10:58:13.000Z</time>
      </trkpt>
      <trkpt lat="47.41651" lon="6.73055">
        <ele>528.6</ele>
        <time>2014-11-02T10:58:14.000Z</time>
      </trkpt>
      <trkpt lat="47.41653" lon="6.73053">
        <ele>529.1</ele>
        <time>2014-11-02T10:58:15.000Z</time>
      </trkpt>
      <trkpt lat="47.41656" lon="6.7305">
        <ele>528.5</ele>
        <time>2014-11-02T10:58:16.000Z</time>
      </trkpt>
      <trkpt lat="47.41659" lon="6.73046">
        <ele>527.4</ele>
        <time>2014-11-02T10:58:17.000Z</time>
      </trkpt>
      <trkpt lat="47.41662" lon="6.73042">
        <ele>526.7</ele>
        <time>2014-11-02T10:58:18.000Z</time>
      </trkpt>
      <trkpt lat="47.41665" lon="6.73039">
        <ele>526.5</ele>
        <time>2014-11-02T10:58:19.000Z</time>
      </trkpt>
      <trkpt lat="47.41667" lon="6.73036">
        <ele>526.3</ele>
        <time>2014-11-02T10:58:20.000Z</time>
      </trkpt>
      <trkpt lat="47.4167" lon="6.73033">
        <ele>524.9</ele>
        <time>2014-11-02T10:58:22.000Z</time>
      </trkpt>
      <trkpt lat="47.41672" lon="6.73031">
        <ele>524.6</ele>
        <time>2014-11-02T10:58:23.000Z</time>
      </trkpt>
      <trkpt lat="47.41674" lon="6.73029">
        <ele>524.7</ele>
        <time>2014-11-02T10:58:24.000Z</time>
      </trkpt>
      <trkpt lat="47.41676" lon="6.73027">
        <ele>524.5</ele>
        <time>2014-11-02T10:58:25.000Z</time>
      </trkpt>
      <trkpt lat="47.41678" lon="6.73025">
        <ele>524.5</ele>
        <time>2014-11-02T10:58:26.000Z</time>
      </trkpt>
      <trkpt lat="47.41681" lon="6.73023">
        <ele>524.6</ele>
        <time>2014-11-02T10:58:27.000Z</time>
      </trkpt>
      <trkpt lat="47.41683" lon="6.7302">
        <ele>524.5</ele>
        <time>2014-11-02T10:58:28.000Z</time>
      </trkpt>
      <trkpt lat="47.41685" lon="6.73018">
        <ele>524.7</ele>
        <time>2014-11-02T10:58:29.000Z</time>
      </trkpt>
      <trkpt lat="47.41688" lon="6.73016">
        <ele>526.3</ele>
        <time>2014-11-02T10:58:30.000Z</time>
      </trkpt>
      <trkpt lat="47.4169" lon="6.73015">
        <ele>527.1</ele>
        <time>2014-11-02T10:58:31.000Z</time>
      </trkpt>
      <trkpt lat="47.41692" lon="6.73013">
        <ele>527.4</ele>
        <time>2014-11-02T10:58:32.000Z</time>
      </trkpt>
      <trkpt lat="47.41695" lon="6.73012">
        <ele>527.5</ele>
        <time>2014-11-02T10:58:33.000Z</time>
      </trkpt>
      <trkpt lat="47.41697" lon="6.7301">
        <ele>527.1</ele>
        <time>2014-11-02T10:58:34.000Z</time>
      </trkpt>
      <trkpt lat="47.41699" lon="6.73008">
        <ele>526.9</ele>
        <time>2014-11-02T10:58:35.000Z</time>
      </trkpt>
      <trkpt lat="47.41701" lon="6.73006">
        <ele>527.6</ele>
        <time>2014-11-02T10:58:36.000Z</time>
      </trkpt>
      <trkpt lat="47.41703" lon="6.73004">
        <ele>527.3</ele>
        <time>2014-11-02T10:58:37.000Z</time>
      </trkpt>
      <trkpt lat="47.41705" lon="6.73001">
        <ele>526.3</ele>
        <time>2014-11-02T10:58:38.000Z</time>
      </trkpt>
      <trkpt lat="47.41708" lon="6.72999">
        <ele>525.5</ele>
        <time>2014-11-02T10:58:39.000Z</time>
      </trkpt>
      <trkpt lat="47.41711" lon="6.72997">
        <ele>526.2</ele>
        <time>2014-11-02T10:58:40.000Z</time>
      </trkpt>
      <trkpt lat="47.41713" lon="6.72994">
        <ele>525.8</ele>
        <time>2014-11-02T10:58:41.000Z</time>
      </trkpt>
      <trkpt lat="47.41715" lon="6.72992">
        <ele>525.9</ele>
        <time>2014-11-02T10:58:42.000Z</time>
      </trkpt>
      <trkpt lat="47.41717" lon="6.72989">
        <ele>525.7</ele>
        <time>2014-11-02T10:58:43.000Z</time>
      </trkpt>
      <trkpt lat="47.41719" lon="6.72987">
        <ele>526.1</ele>
        <time>2014-11-02T10:58:44.000Z</time>
      </trkpt>
      <trkpt lat="47.41722" lon="6.72985">
        <ele>525.6</ele>
        <time>2014-11-02T10:58:45.000Z</time>
      </trkpt>
      <trkpt lat="47.41724" lon="6.72983">
        <ele>525.8</ele>
        <time>2014-11-02T10:58:46.000Z</time>
      </trkpt>
      <trkpt lat="47.41727" lon="6.72981">
        <ele>527.5</ele>
        <time>2014-11-02T10:58:47.000Z</time>
      </trkpt>
      <trkpt lat="47.41729" lon="6.72979">
        <ele>527.3</ele>
        <time>2014-11-02T10:58:48.000Z</time>
      </trkpt>
      <trkpt lat="47.41732" lon="6.72977">
        <ele>527.5</ele>
        <time>2014-11-02T10:58:49.000Z</time>
      </trkpt>
      <trkpt lat="47.41735" lon="6.72974">
        <ele>528</ele>
        <time>2014-11-02T10:58:50.000Z</time>
      </trkpt>
      <trkpt lat="47.41739" lon="6.72971">
        <ele>528</ele>
        <time>2014-11-02T10:58:51.000Z</time>
      </trkpt>
      <trkpt lat="47.41742" lon="6.72967">
        <ele>528.8</ele>
        <time>2014-11-02T10:58:52.000Z</time>
      </trkpt>
      <trkpt lat="47.41746" lon="6.72964">
        <ele>528.9</ele>
        <time>2014-11-02T10:58:53.000Z</time>
      </trkpt>
      <trkpt lat="47.41749" lon="6.7296">
        <ele>528.3</ele>
        <time>2014-11-02T10:58:54.000Z</time>
      </trkpt>
      <trkpt lat="47.41753" lon="6.72957">
        <ele>528.5</ele>
        <time>2014-11-02T10:58:55.000Z</time>
      </trkpt>
      <trkpt lat="47.41756" lon="6.72953">
        <ele>528.8</ele>
        <time>2014-11-02T10:58:56.000Z</time>
      </trkpt>
      <trkpt lat="47.41759" lon="6.72949">
        <ele>527.8</ele>
        <time>2014-11-02T10:58:57.000Z</time>
      </trkpt>
      <trkpt lat="47.41762" lon="6.72945">
        <ele>527.5</ele>
        <time>2014-11-02T10:58:58.000Z</time>
      </trkpt>
      <trkpt lat="47.41764" lon="6.7294">
        <ele>527.6</ele>
        <time>2014-11-02T10:58:59.000Z</time>
      </trkpt>
      <trkpt lat="47.41766" lon="6.72935">
        <ele>527.6</ele>
        <time>2014-11-02T10:59:00.000Z</time>
      </trkpt>
      <trkpt lat="47.41769" lon="6.7293">
        <ele>528.1</ele>
        <time>2014-11-02T10:59:01.000Z</time>
      </trkpt>
      <trkpt lat="47.41771" lon="6.72926">
        <ele>528.3</ele>
        <time>2014-11-02T10:59:02.000Z</time>
      </trkpt>
      <trkpt lat="47.41773" lon="6.72922">
        <ele>529</ele>
        <time>2014-11-02T10:59:03.000Z</time>
      </trkpt>
      <trkpt lat="47.41778" lon="6.7291">
        <ele>530.1</ele>
        <time>2014-11-02T10:59:06.000Z</time>
      </trkpt>
      <trkpt lat="47.4178" lon="6.72906">
        <ele>530.6</ele>
        <time>2014-11-02T10:59:07.000Z</time>
      </trkpt>
      <trkpt lat="47.41782" lon="6.72902">
        <ele>531.3</ele>
        <time>2014-11-02T10:59:08.000Z</time>
      </trkpt>
      <trkpt lat="47.41783" lon="6.72898">
        <ele>531</ele>
        <time>2014-11-02T10:59:09.000Z</time>
      </trkpt>
      <trkpt lat="47.41784" lon="6.72893">
        <ele>531.1</ele>
        <time>2014-11-02T10:59:10.000Z</time>
      </trkpt>
      <trkpt lat="47.41785" lon="6.72888">
        <ele>531.1</ele>
        <time>2014-11-02T10:59:11.000Z</time>
      </trkpt>
      <trkpt lat="47.41786" lon="6.72883">
        <ele>531.2</ele>
        <time>2014-11-02T10:59:12.000Z</time>
      </trkpt>
      <trkpt lat="47.41788" lon="6.72879">
        <ele>531.4</ele>
        <time>2014-11-02T10:59:13.000Z</time>
      </trkpt>
      <trkpt lat="47.41789" lon="6.72874">
        <ele>531.4</ele>
        <time>2014-11-02T10:59:14.000Z</time>
      </trkpt>
      <trkpt lat="47.4179" lon="6.7287">
        <ele>532.2</ele>
        <time>2014-11-02T10:59:15.000Z</time>
      </trkpt>
      <trkpt lat="47.41791" lon="6.72865">
        <ele>532.8</ele>
        <time>2014-11-02T10:59:16.000Z</time>
      </trkpt>
      <trkpt lat="47.41792" lon="6.7286">
        <ele>533.2</ele>
        <time>2014-11-02T10:59:17.000Z</time>
      </trkpt>
      <trkpt lat="47.41793" lon="6.72855">
        <ele>534.1</ele>
        <time>2014-11-02T10:59:18.000Z</time>
      </trkpt>
      <trkpt lat="47.41794" lon="6.7285">
        <ele>534.8</ele>
        <time>2014-11-02T10:59:19.000Z</time>
      </trkpt>
      <trkpt lat="47.41796" lon="6.72844">
        <ele>535</ele>
        <time>2014-11-02T10:59:20.000Z</time>
      </trkpt>
      <trkpt lat="47.41797" lon="6.72838">
        <ele>535.6</ele>
        <time>2014-11-02T10:59:21.000Z</time>
      </trkpt>
      <trkpt lat="47.41799" lon="6.72832">
        <ele>536</ele>
        <time>2014-11-02T10:59:22.000Z</time>
      </trkpt>
      <trkpt lat="47.418" lon="6.72827">
        <ele>536.4</ele>
        <time>2014-11-02T10:59:23.000Z</time>
      </trkpt>
      <trkpt lat="47.41802" lon="6.72821">
        <ele>536.6</ele>
        <time>2014-11-02T10:59:24.000Z</time>
      </trkpt>
      <trkpt lat="47.41804" lon="6.72816">
        <ele>536.6</ele>
        <time>2014-11-02T10:59:25.000Z</time>
      </trkpt>
      <trkpt lat="47.41805" lon="6.7281">
        <ele>536.9</ele>
        <time>2014-11-02T10:59:26.000Z</time>
      </trkpt>
      <trkpt lat="47.41807" lon="6.72804">
        <ele>537.2</ele>
        <time>2014-11-02T10:59:27.000Z</time>
      </trkpt>
      <trkpt lat="47.41809" lon="6.72798">
        <ele>537</ele>
        <time>2014-11-02T10:59:28.000Z</time>
      </trkpt>
      <trkpt lat="47.41811" lon="6.72792">
        <ele>537.3</ele>
        <time>2014-11-02T10:59:29.000Z</time>
      </trkpt>
      <trkpt lat="47.41813" lon="6.72785">
        <ele>537.5</ele>
        <time>2014-11-02T10:59:30.000Z</time>
      </trkpt>
      <trkpt lat="47.41814" lon="6.72779">
        <ele>537.4</ele>
        <time>2014-11-02T10:59:31.000Z</time>
      </trkpt>
      <trkpt lat="47.41816" lon="6.72773">
        <ele>537.5</ele>
        <time>2014-11-02T10:59:32.000Z</time>
      </trkpt>
      <trkpt lat="47.41818" lon="6.72767">
        <ele>537.6</ele>
        <time>2014-11-02T10:59:33.000Z</time>
      </trkpt>
      <trkpt lat="47.41819" lon="6.72761">
        <ele>537.5</ele>
        <time>2014-11-02T10:59:34.000Z</time>
      </trkpt>
      <trkpt lat="47.41821" lon="6.72755">
        <ele>537.3</ele>
        <time>2014-11-02T10:59:35.000Z</time>
      </trkpt>
      <trkpt lat="47.41823" lon="6.72749">
        <ele>537.4</ele>
        <time>2014-11-02T10:59:36.000Z</time>
      </trkpt>
      <trkpt lat="47.41825" lon="6.72742">
        <ele>537.3</ele>
        <time>2014-11-02T10:59:37.000Z</time>
      </trkpt>
      <trkpt lat="47.41826" lon="6.72736">
        <ele>537</ele>
        <time>2014-11-02T10:59:38.000Z</time>
      </trkpt>
      <trkpt lat="47.41828" lon="6.72729">
        <ele>537.2</ele>
        <time>2014-11-02T10:59:39.000Z</time>
      </trkpt>
      <trkpt lat="47.4183" lon="6.72723">
        <ele>537.1</ele>
        <time>2014-11-02T10:59:40.000Z</time>
      </trkpt>
      <trkpt lat="47.41832" lon="6.72716">
        <ele>536.8</ele>
        <time>2014-11-02T10:59:41.000Z</time>
      </trkpt>
      <trkpt lat="47.41834" lon="6.7271">
        <ele>536.7</ele>
        <time>2014-11-02T10:59:42.000Z</time>
      </trkpt>
      <trkpt lat="47.41836" lon="6.72703">
        <ele>536.5</ele>
        <time>2014-11-02T10:59:43.000Z</time>
      </trkpt>
      <trkpt lat="47.41838" lon="6.72696">
        <ele>536.5</ele>
        <time>2014-11-02T10:59:44.000Z</time>
      </trkpt>
      <trkpt lat="47.4184" lon="6.72689">
        <ele>536.4</ele>
        <time>2014-11-02T10:59:45.000Z</time>
      </trkpt>
      <trkpt lat="47.41842" lon="6.72682">
        <ele>536.5</ele>
        <time>2014-11-02T10:59:46.000Z</time>
      </trkpt>
      <trkpt lat="47.41845" lon="6.72676">
        <ele>536.5</ele>
        <time>2014-11-02T10:59:47.000Z</time>
      </trkpt>
      <trkpt lat="47.41847" lon="6.72669">
        <ele>536.7</ele>
        <time>2014-11-02T10:59:48.000Z</time>
      </trkpt>
      <trkpt lat="47.41849" lon="6.72663">
        <ele>536.7</ele>
        <time>2014-11-02T10:59:49.000Z</time>
      </trkpt>
      <trkpt lat="47.41851" lon="6.72657">
        <ele>536.7</ele>
        <time>2014-11-02T10:59:50.000Z</time>
      </trkpt>
      <trkpt lat="47.41852" lon="6.72651">
        <ele>536.4</ele>
        <time>2014-11-02T10:59:51.000Z</time>
      </trkpt>
      <trkpt lat="47.41854" lon="6.72645">
        <ele>536.4</ele>
        <time>2014-11-02T10:59:52.000Z</time>
      </trkpt>
      <trkpt lat="47.41857" lon="6.72639">
        <ele>536.1</ele>
        <time>2014-11-02T10:59:53.000Z</time>
      </trkpt>
      <trkpt lat="47.41859" lon="6.72633">
        <ele>535.9</ele>
        <time>2014-11-02T10:59:54.000Z</time>
      </trkpt>
      <trkpt lat="47.41861" lon="6.72626">
        <ele>535.9</ele>
        <time>2014-11-02T10:59:55.000Z</time>
      </trkpt>
      <trkpt lat="47.41863" lon="6.72618">
        <ele>535.6</ele>
        <time>2014-11-02T10:59:56.000Z</time>
      </trkpt>
      <trkpt lat="47.41865" lon="6.72611">
        <ele>536.4</ele>
        <time>2014-11-02T10:59:57.000Z</time>
      </trkpt>
      <trkpt lat="47.41867" lon="6.72604">
        <ele>536.3</ele>
        <time>2014-11-02T10:59:58.000Z</time>
      </trkpt>
      <trkpt lat="47.4187" lon="6.72597">
        <ele>536.7</ele>
        <time>2014-11-02T10:59:59.000Z</time>
      </trkpt>
      <trkpt lat="47.41872" lon="6.72589">
        <ele>536.6</ele>
        <time>2014-11-02T11:00:00.000Z</time>
      </trkpt>
      <trkpt lat="47.41875" lon="6.72582">
        <ele>536.1</ele>
        <time>2014-11-02T11:00:01.000Z</time>
      </trkpt>
      <trkpt lat="47.41879" lon="6.72575">
        <ele>536.1</ele>
        <time>2014-11-02T11:00:02.000Z</time>
      </trkpt>
      <trkpt lat="47.41892" lon="6.72561">
        <ele>536.1</ele>
        <time>2014-11-02T11:00:05.000Z</time>
      </trkpt>
      <trkpt lat="47.419" lon="6.72559">
        <ele>535.8</ele>
        <time>2014-11-02T11:00:06.000Z</time>
      </trkpt>
      <trkpt lat="47.41907" lon="6.72558">
        <ele>535.5</ele>
        <time>2014-11-02T11:00:07.000Z</time>
      </trkpt>
      <trkpt lat="47.41914" lon="6.72557">
        <ele>535.5</ele>
        <time>2014-11-02T11:00:08.000Z</time>
      </trkpt>
      <trkpt lat="47.41921" lon="6.72556">
        <ele>534.8</ele>
        <time>2014-11-02T11:00:09.000Z</time>
      </trkpt>
      <trkpt lat="47.41929" lon="6.72556">
        <ele>534.1</ele>
        <time>2014-11-02T11:00:10.000Z</time>
      </trkpt>
      <trkpt lat="47.41936" lon="6.72555">
        <ele>533.7</ele>
        <time>2014-11-02T11:00:11.000Z</time>
      </trkpt>
      <trkpt lat="47.41943" lon="6.72555">
        <ele>533.8</ele>
        <time>2014-11-02T11:00:12.000Z</time>
      </trkpt>
      <trkpt lat="47.4195" lon="6.72556">
        <ele>533.3</ele>
        <time>2014-11-02T11:00:13.000Z</time>
      </trkpt>
      <trkpt lat="47.41957" lon="6.72557">
        <ele>532.6</ele>
        <time>2014-11-02T11:00:14.000Z</time>
      </trkpt>
      <trkpt lat="47.41963" lon="6.72558">
        <ele>532.4</ele>
        <time>2014-11-02T11:00:15.000Z</time>
      </trkpt>
      <trkpt lat="47.41971" lon="6.72559">
        <ele>532.1</ele>
        <time>2014-11-02T11:00:16.000Z</time>
      </trkpt>
      <trkpt lat="47.41978" lon="6.7256">
        <ele>531.7</ele>
        <time>2014-11-02T11:00:17.000Z</time>
      </trkpt>
      <trkpt lat="47.41985" lon="6.7256">
        <ele>531.7</ele>
        <time>2014-11-02T11:00:18.000Z</time>
      </trkpt>
      <trkpt lat="47.41992" lon="6.72562">
        <ele>531.3</ele>
        <time>2014-11-02T11:00:19.000Z</time>
      </trkpt>
      <trkpt lat="47.41999" lon="6.72563">
        <ele>531.3</ele>
        <time>2014-11-02T11:00:20.000Z</time>
      </trkpt>
      <trkpt lat="47.42007" lon="6.72564">
        <ele>530.9</ele>
        <time>2014-11-02T11:00:21.000Z</time>
      </trkpt>
      <trkpt lat="47.42014" lon="6.72566">
        <ele>531.2</ele>
        <time>2014-11-02T11:00:22.000Z</time>
      </trkpt>
      <trkpt lat="47.4202" lon="6.72567">
        <ele>531.3</ele>
        <time>2014-11-02T11:00:23.000Z</time>
      </trkpt>
      <trkpt lat="47.42027" lon="6.72568">
        <ele>530.8</ele>
        <time>2014-11-02T11:00:24.000Z</time>
      </trkpt>
      <trkpt lat="47.42034" lon="6.7257">
        <ele>530.6</ele>
        <time>2014-11-02T11:00:25.000Z</time>
      </trkpt>
      <trkpt lat="47.42041" lon="6.7257">
        <ele>530.4</ele>
        <time>2014-11-02T11:00:26.000Z</time>
      </trkpt>
      <trkpt lat="47.42047" lon="6.72571">
        <ele>530.2</ele>
        <time>2014-11-02T11:00:27.000Z</time>
      </trkpt>
      <trkpt lat="47.42054" lon="6.72573">
        <ele>529.8</ele>
        <time>2014-11-02T11:00:28.000Z</time>
      </trkpt>
      <trkpt lat="47.4206" lon="6.72574">
        <ele>529.9</ele>
        <time>2014-11-02T11:00:29.000Z</time>
      </trkpt>
      <trkpt lat="47.42067" lon="6.72576">
        <ele>529.4</ele>
        <time>2014-11-02T11:00:30.000Z</time>
      </trkpt>
      <trkpt lat="47.42073" lon="6.72577">
        <ele>529.3</ele>
        <time>2014-11-02T11:00:31.000Z</time>
      </trkpt>
      <trkpt lat="47.42079" lon="6.72579">
        <ele>529</ele>
        <time>2014-11-02T11:00:32.000Z</time>
      </trkpt>
      <trkpt lat="47.42085" lon="6.72581">
        <ele>528.3</ele>
        <time>2014-11-02T11:00:33.000Z</time>
      </trkpt>
      <trkpt lat="47.42092" lon="6.72581">
        <ele>527.4</ele>
        <time>2014-11-02T11:00:34.000Z</time>
      </trkpt>
      <trkpt lat="47.42098" lon="6.72582">
        <ele>527.4</ele>
        <time>2014-11-02T11:00:35.000Z</time>
      </trkpt>
      <trkpt lat="47.42104" lon="6.72585">
        <ele>527.4</ele>
        <time>2014-11-02T11:00:36.000Z</time>
      </trkpt>
      <trkpt lat="47.4211" lon="6.72586">
        <ele>527.3</ele>
        <time>2014-11-02T11:00:37.000Z</time>
      </trkpt>
      <trkpt lat="47.42116" lon="6.72588">
        <ele>527.4</ele>
        <time>2014-11-02T11:00:38.000Z</time>
      </trkpt>
      <trkpt lat="47.42122" lon="6.72589">
        <ele>527.3</ele>
        <time>2014-11-02T11:00:39.000Z</time>
      </trkpt>
      <trkpt lat="47.42128" lon="6.72591">
        <ele>527.1</ele>
        <time>2014-11-02T11:00:40.000Z</time>
      </trkpt>
      <trkpt lat="47.42133" lon="6.72592">
        <ele>526.9</ele>
        <time>2014-11-02T11:00:41.000Z</time>
      </trkpt>
      <trkpt lat="47.42139" lon="6.72594">
        <ele>526.4</ele>
        <time>2014-11-02T11:00:42.000Z</time>
      </trkpt>
      <trkpt lat="47.42145" lon="6.72596">
        <ele>526.4</ele>
        <time>2014-11-02T11:00:43.000Z</time>
      </trkpt>
      <trkpt lat="47.4215" lon="6.72598">
        <ele>526</ele>
        <time>2014-11-02T11:00:44.000Z</time>
      </trkpt>
      <trkpt lat="47.42156" lon="6.72601">
        <ele>526.7</ele>
        <time>2014-11-02T11:00:45.000Z</time>
      </trkpt>
      <trkpt lat="47.42161" lon="6.72601">
        <ele>526.1</ele>
        <time>2014-11-02T11:00:46.000Z</time>
      </trkpt>
      <trkpt lat="47.42167" lon="6.72603">
        <ele>527.4</ele>
        <time>2014-11-02T11:00:47.000Z</time>
      </trkpt>
      <trkpt lat="47.42173" lon="6.72605">
        <ele>527.8</ele>
        <time>2014-11-02T11:00:48.000Z</time>
      </trkpt>
      <trkpt lat="47.42178" lon="6.72606">
        <ele>527.6</ele>
        <time>2014-11-02T11:00:49.000Z</time>
      </trkpt>
      <trkpt lat="47.42184" lon="6.72607">
        <ele>527.7</ele>
        <time>2014-11-02T11:00:50.000Z</time>
      </trkpt>
      <trkpt lat="47.4219" lon="6.72608">
        <ele>527.5</ele>
        <time>2014-11-02T11:00:51.000Z</time>
      </trkpt>
      <trkpt lat="47.42195" lon="6.72609">
        <ele>527.5</ele>
        <time>2014-11-02T11:00:52.000Z</time>
      </trkpt>
      <trkpt lat="47.422" lon="6.72611">
        <ele>528.6</ele>
        <time>2014-11-02T11:00:53.000Z</time>
      </trkpt>
      <trkpt lat="47.42204" lon="6.72613">
        <ele>529.1</ele>
        <time>2014-11-02T11:00:54.000Z</time>
      </trkpt>
      <trkpt lat="47.42209" lon="6.72614">
        <ele>529.4</ele>
        <time>2014-11-02T11:00:55.000Z</time>
      </trkpt>
      <trkpt lat="47.42213" lon="6.72616">
        <ele>529.3</ele>
        <time>2014-11-02T11:00:56.000Z</time>
      </trkpt>
      <trkpt lat="47.42218" lon="6.72618">
        <ele>529.8</ele>
        <time>2014-11-02T11:00:57.000Z</time>
      </trkpt>
      <trkpt lat="47.42223" lon="6.72619">
        <ele>530</ele>
        <time>2014-11-02T11:00:58.000Z</time>
      </trkpt>
      <trkpt lat="47.42227" lon="6.72621">
        <ele>529.8</ele>
        <time>2014-11-02T11:00:59.000Z</time>
      </trkpt>
      <trkpt lat="47.42231" lon="6.72624">
        <ele>529.8</ele>
        <time>2014-11-02T11:01:00.000Z</time>
      </trkpt>
      <trkpt lat="47.42235" lon="6.72626">
        <ele>529</ele>
        <time>2014-11-02T11:01:01.000Z</time>
      </trkpt>
      <trkpt lat="47.4224" lon="6.72629">
        <ele>529.1</ele>
        <time>2014-11-02T11:01:02.000Z</time>
      </trkpt>
      <trkpt lat="47.4225" lon="6.72637">
        <ele>531.1</ele>
        <time>2014-11-02T11:01:05.000Z</time>
      </trkpt>
      <trkpt lat="47.42255" lon="6.72641">
        <ele>529.9</ele>
        <time>2014-11-02T11:01:06.000Z</time>
      </trkpt>
      <trkpt lat="47.42259" lon="6.72643">
        <ele>530.4</ele>
        <time>2014-11-02T11:01:07.000Z</time>
      </trkpt>
      <trkpt lat="47.42264" lon="6.72646">
        <ele>530.2</ele>
        <time>2014-11-02T11:01:08.000Z</time>
      </trkpt>
      <trkpt lat="47.42268" lon="6.72649">
        <ele>530.5</ele>
        <time>2014-11-02T11:01:09.000Z</time>
      </trkpt>
      <trkpt lat="47.42273" lon="6.72651">
        <ele>530</ele>
        <time>2014-11-02T11:01:10.000Z</time>
      </trkpt>
      <trkpt lat="47.42277" lon="6.72654">
        <ele>530.5</ele>
        <time>2014-11-02T11:01:11.000Z</time>
      </trkpt>
      <trkpt lat="47.42282" lon="6.72656">
        <ele>530.8</ele>
        <time>2014-11-02T11:01:12.000Z</time>
      </trkpt>
      <trkpt lat="47.42286" lon="6.7266">
        <ele>530.6</ele>
        <time>2014-11-02T11:01:13.000Z</time>
      </trkpt>
      <trkpt lat="47.4229" lon="6.72662">
        <ele>530.6</ele>
        <time>2014-11-02T11:01:14.000Z</time>
      </trkpt>
      <trkpt lat="47.42295" lon="6.72664">
        <ele>530.1</ele>
        <time>2014-11-02T11:01:15.000Z</time>
      </trkpt>
      <trkpt lat="47.42299" lon="6.72668">
        <ele>530.1</ele>
        <time>2014-11-02T11:01:16.000Z</time>
      </trkpt>
      <trkpt lat="47.42303" lon="6.72672">
        <ele>530</ele>
        <time>2014-11-02T11:01:17.000Z</time>
      </trkpt>
      <trkpt lat="47.42307" lon="6.72676">
        <ele>530.1</ele>
        <time>2014-11-02T11:01:18.000Z</time>
      </trkpt>
      <trkpt lat="47.4231" lon="6.7268">
        <ele>530.3</ele>
        <time>2014-11-02T11:01:19.000Z</time>
      </trkpt>
      <trkpt lat="47.42313" lon="6.72686">
        <ele>530.8</ele>
        <time>2014-11-02T11:01:20.000Z</time>
      </trkpt>
      <trkpt lat="47.42316" lon="6.72691">
        <ele>531.3</ele>
        <time>2014-11-02T11:01:21.000Z</time>
      </trkpt>
      <trkpt lat="47.42319" lon="6.72696">
        <ele>531.4</ele>
        <time>2014-11-02T11:01:22.000Z</time>
      </trkpt>
      <trkpt lat="47.42321" lon="6.72702">
        <ele>530.8</ele>
        <time>2014-11-02T11:01:23.000Z</time>
      </trkpt>
      <trkpt lat="47.42324" lon="6.72707">
        <ele>530.5</ele>
        <time>2014-11-02T11:01:24.000Z</time>
      </trkpt>
      <trkpt lat="47.42326" lon="6.72712">
        <ele>531</ele>
        <time>2014-11-02T11:01:25.000Z</time>
      </trkpt>
      <trkpt lat="47.42328" lon="6.72717">
        <ele>531.1</ele>
        <time>2014-11-02T11:01:26.000Z</time>
      </trkpt>
      <trkpt lat="47.42331" lon="6.72723">
        <ele>531.2</ele>
        <time>2014-11-02T11:01:27.000Z</time>
      </trkpt>
      <trkpt lat="47.42333" lon="6.72727">
        <ele>530.9</ele>
        <time>2014-11-02T11:01:28.000Z</time>
      </trkpt>
      <trkpt lat="47.42336" lon="6.72732">
        <ele>531</ele>
        <time>2014-11-02T11:01:29.000Z</time>
      </trkpt>
      <trkpt lat="47.42339" lon="6.72736">
        <ele>531</ele>
        <time>2014-11-02T11:01:30.000Z</time>
      </trkpt>
      <trkpt lat="47.42341" lon="6.72741">
        <ele>531.1</ele>
        <time>2014-11-02T11:01:31.000Z</time>
      </trkpt>
      <trkpt lat="47.42344" lon="6.72744">
        <ele>531.1</ele>
        <time>2014-11-02T11:01:32.000Z</time>
      </trkpt>
      <trkpt lat="47.42347" lon="6.72749">
        <ele>529.8</ele>
        <time>2014-11-02T11:01:33.000Z</time>
      </trkpt>
      <trkpt lat="47.4235" lon="6.72753">
        <ele>530.4</ele>
        <time>2014-11-02T11:01:34.000Z</time>
      </trkpt>
      <trkpt lat="47.42353" lon="6.72756">
        <ele>530.3</ele>
        <time>2014-11-02T11:01:35.000Z</time>
      </trkpt>
      <trkpt lat="47.42356" lon="6.7276">
        <ele>530.6</ele>
        <time>2014-11-02T11:01:36.000Z</time>
      </trkpt>
      <trkpt lat="47.42359" lon="6.72763">
        <ele>530.9</ele>
        <time>2014-11-02T11:01:37.000Z</time>
      </trkpt>
      <trkpt lat="47.42362" lon="6.72767">
        <ele>531.1</ele>
        <time>2014-11-02T11:01:38.000Z</time>
      </trkpt>
      <trkpt lat="47.42365" lon="6.7277">
        <ele>531.2</ele>
        <time>2014-11-02T11:01:39.000Z</time>
      </trkpt>
      <trkpt lat="47.42368" lon="6.72772">
        <ele>531.4</ele>
        <time>2014-11-02T11:01:40.000Z</time>
      </trkpt>
      <trkpt lat="47.42371" lon="6.72775">
        <ele>531.8</ele>
        <time>2014-11-02T11:01:41.000Z</time>
      </trkpt>
      <trkpt lat="47.42374" lon="6.72779">
        <ele>532.6</ele>
        <time>2014-11-02T11:01:42.000Z</time>
      </trkpt>
      <trkpt lat="47.42376" lon="6.72782">
        <ele>532.8</ele>
        <time>2014-11-02T11:01:43.000Z</time>
      </trkpt>
      <trkpt lat="47.42379" lon="6.72785">
        <ele>533.1</ele>
        <time>2014-11-02T11:01:44.000Z</time>
      </trkpt>
      <trkpt lat="47.42382" lon="6.72788">
        <ele>533.8</ele>
        <time>2014-11-02T11:01:45.000Z</time>
      </trkpt>
      <trkpt lat="47.42385" lon="6.72791">
        <ele>534.5</ele>
        <time>2014-11-02T11:01:46.000Z</time>
      </trkpt>
      <trkpt lat="47.42389" lon="6.72794">
        <ele>535.3</ele>
        <time>2014-11-02T11:01:47.000Z</time>
      </trkpt>
      <trkpt lat="47.42392" lon="6.72797">
        <ele>536</ele>
        <time>2014-11-02T11:01:48.000Z</time>
      </trkpt>
      <trkpt lat="47.42396" lon="6.728">
        <ele>536.1</ele>
        <time>2014-11-02T11:01:49.000Z</time>
      </trkpt>
      <trkpt lat="47.42399" lon="6.72804">
        <ele>535.8</ele>
        <time>2014-11-02T11:01:50.000Z</time>
      </trkpt>
      <trkpt lat="47.42403" lon="6.72808">
        <ele>535.8</ele>
        <time>2014-11-02T11:01:51.000Z</time>
      </trkpt>
      <trkpt lat="47.42406" lon="6.72812">
        <ele>535.9</ele>
        <time>2014-11-02T11:01:52.000Z</time>
      </trkpt>
      <trkpt lat="47.4241" lon="6.72816">
        <ele>536.2</ele>
        <time>2014-11-02T11:01:53.000Z</time>
      </trkpt>
      <trkpt lat="47.42413" lon="6.72819">
        <ele>538.2</ele>
        <time>2014-11-02T11:01:54.000Z</time>
      </trkpt>
      <trkpt lat="47.42416" lon="6.72822">
        <ele>539.9</ele>
        <time>2014-11-02T11:01:55.000Z</time>
      </trkpt>
      <trkpt lat="47.4242" lon="6.72825">
        <ele>539.1</ele>
        <time>2014-11-02T11:01:56.000Z</time>
      </trkpt>
      <trkpt lat="47.42423" lon="6.72828">
        <ele>539.3</ele>
        <time>2014-11-02T11:01:57.000Z</time>
      </trkpt>
      <trkpt lat="47.42426" lon="6.72832">
        <ele>538.8</ele>
        <time>2014-11-02T11:01:58.000Z</time>
      </trkpt>
      <trkpt lat="47.42429" lon="6.72836">
        <ele>538.9</ele>
        <time>2014-11-02T11:01:59.000Z</time>
      </trkpt>
      <trkpt lat="47.42432" lon="6.7284">
        <ele>539.4</ele>
        <time>2014-11-02T11:02:00.000Z</time>
      </trkpt>
      <trkpt lat="47.42436" lon="6.72844">
        <ele>539.7</ele>
        <time>2014-11-02T11:02:01.000Z</time>
      </trkpt>
      <trkpt lat="47.42439" lon="6.72848">
        <ele>539.9</ele>
        <time>2014-11-02T11:02:02.000Z</time>
      </trkpt>
      <trkpt lat="47.42442" lon="6.72851">
        <ele>539.8</ele>
        <time>2014-11-02T11:02:03.000Z</time>
      </trkpt>
      <trkpt lat="47.4246" lon="6.72873">
        <ele>542.3</ele>
        <time>2014-11-02T11:02:11.000Z</time>
      </trkpt>
      <trkpt lat="47.42463" lon="6.72876">
        <ele>541.8</ele>
        <time>2014-11-02T11:02:12.000Z</time>
      </trkpt>
      <trkpt lat="47.42466" lon="6.72879">
        <ele>542.3</ele>
        <time>2014-11-02T11:02:13.000Z</time>
      </trkpt>
      <trkpt lat="47.42469" lon="6.72882">
        <ele>541.8</ele>
        <time>2014-11-02T11:02:14.000Z</time>
      </trkpt>
      <trkpt lat="47.42472" lon="6.72885">
        <ele>542</ele>
        <time>2014-11-02T11:02:15.000Z</time>
      </trkpt>
      <trkpt lat="47.42475" lon="6.72888">
        <ele>541.7</ele>
        <time>2014-11-02T11:02:16.000Z</time>
      </trkpt>
      <trkpt lat="47.42477" lon="6.72891">
        <ele>541.7</ele>
        <time>2014-11-02T11:02:17.000Z</time>
      </trkpt>
      <trkpt lat="47.4248" lon="6.72894">
        <ele>541.6</ele>
        <time>2014-11-02T11:02:18.000Z</time>
      </trkpt>
      <trkpt lat="47.42482" lon="6.72896">
        <ele>542.1</ele>
        <time>2014-11-02T11:02:19.000Z</time>
      </trkpt>
      <trkpt lat="47.42484" lon="6.729">
        <ele>541.1</ele>
        <time>2014-11-02T11:02:20.000Z</time>
      </trkpt>
      <trkpt lat="47.42487" lon="6.72903">
        <ele>541.1</ele>
        <time>2014-11-02T11:02:21.000Z</time>
      </trkpt>
      <trkpt lat="47.4249" lon="6.72906">
        <ele>541.4</ele>
        <time>2014-11-02T11:02:22.000Z</time>
      </trkpt>
      <trkpt lat="47.42493" lon="6.7291">
        <ele>541.1</ele>
        <time>2014-11-02T11:02:23.000Z</time>
      </trkpt>
      <trkpt lat="47.42496" lon="6.72914">
        <ele>540.8</ele>
        <time>2014-11-02T11:02:24.000Z</time>
      </trkpt>
      <trkpt lat="47.42499" lon="6.72917">
        <ele>540.8</ele>
        <time>2014-11-02T11:02:25.000Z</time>
      </trkpt>
      <trkpt lat="47.42502" lon="6.72919">
        <ele>540.9</ele>
        <time>2014-11-02T11:02:26.000Z</time>
      </trkpt>
      <trkpt lat="47.42504" lon="6.72922">
        <ele>540.8</ele>
        <time>2014-11-02T11:02:27.000Z</time>
      </trkpt>
      <trkpt lat="47.42507" lon="6.72925">
        <ele>541.1</ele>
        <time>2014-11-02T11:02:28.000Z</time>
      </trkpt>
      <trkpt lat="47.4251" lon="6.72927">
        <ele>541</ele>
        <time>2014-11-02T11:02:29.000Z</time>
      </trkpt>
      <trkpt lat="47.42513" lon="6.72929">
        <ele>541.1</ele>
        <time>2014-11-02T11:02:30.000Z</time>
      </trkpt>
      <trkpt lat="47.42516" lon="6.72932">
        <ele>541.1</ele>
        <time>2014-11-02T11:02:31.000Z</time>
      </trkpt>
      <trkpt lat="47.42519" lon="6.72934">
        <ele>541.2</ele>
        <time>2014-11-02T11:02:32.000Z</time>
      </trkpt>
      <trkpt lat="47.42522" lon="6.72937">
        <ele>539.8</ele>
        <time>2014-11-02T11:02:33.000Z</time>
      </trkpt>
      <trkpt lat="47.42525" lon="6.7294">
        <ele>539.2</ele>
        <time>2014-11-02T11:02:34.000Z</time>
      </trkpt>
      <trkpt lat="47.42529" lon="6.72942">
        <ele>538.7</ele>
        <time>2014-11-02T11:02:35.000Z</time>
      </trkpt>
      <trkpt lat="47.42534" lon="6.72947">
        <ele>538.2</ele>
        <time>2014-11-02T11:02:36.000Z</time>
      </trkpt>
      <trkpt lat="47.42538" lon="6.7295">
        <ele>538.4</ele>
        <time>2014-11-02T11:02:37.000Z</time>
      </trkpt>
      <trkpt lat="47.42542" lon="6.72953">
        <ele>538.7</ele>
        <time>2014-11-02T11:02:38.000Z</time>
      </trkpt>
      <trkpt lat="47.42547" lon="6.72956">
        <ele>538.4</ele>
        <time>2014-11-02T11:02:39.000Z</time>
      </trkpt>
      <trkpt lat="47.42551" lon="6.72959">
        <ele>538</ele>
        <time>2014-11-02T11:02:40.000Z</time>
      </trkpt>
      <trkpt lat="47.42556" lon="6.72964">
        <ele>537.8</ele>
        <time>2014-11-02T11:02:41.000Z</time>
      </trkpt>
      <trkpt lat="47.4256" lon="6.72968">
        <ele>537.4</ele>
        <time>2014-11-02T11:02:42.000Z</time>
      </trkpt>
      <trkpt lat="47.42565" lon="6.72972">
        <ele>537.3</ele>
        <time>2014-11-02T11:02:43.000Z</time>
      </trkpt>
      <trkpt lat="47.4257" lon="6.72975">
        <ele>537.5</ele>
        <time>2014-11-02T11:02:44.000Z</time>
      </trkpt>
      <trkpt lat="47.42575" lon="6.72979">
        <ele>537.1</ele>
        <time>2014-11-02T11:02:45.000Z</time>
      </trkpt>
      <trkpt lat="47.42579" lon="6.72984">
        <ele>537.2</ele>
        <time>2014-11-02T11:02:46.000Z</time>
      </trkpt>
      <trkpt lat="47.42585" lon="6.72987">
        <ele>536.8</ele>
        <time>2014-11-02T11:02:47.000Z</time>
      </trkpt>
      <trkpt lat="47.42589" lon="6.72993">
        <ele>536.9</ele>
        <time>2014-11-02T11:02:48.000Z</time>
      </trkpt>
      <trkpt lat="47.42594" lon="6.72997">
        <ele>536.7</ele>
        <time>2014-11-02T11:02:49.000Z</time>
      </trkpt>
      <trkpt lat="47.42599" lon="6.73002">
        <ele>536.6</ele>
        <time>2014-11-02T11:02:50.000Z</time>
      </trkpt>
      <trkpt lat="47.42604" lon="6.73005">
        <ele>536.1</ele>
        <time>2014-11-02T11:02:51.000Z</time>
      </trkpt>
      <trkpt lat="47.4261" lon="6.73009">
        <ele>535.7</ele>
        <time>2014-11-02T11:02:52.000Z</time>
      </trkpt>
      <trkpt lat="47.42616" lon="6.73013">
        <ele>535.5</ele>
        <time>2014-11-02T11:02:53.000Z</time>
      </trkpt>
      <trkpt lat="47.42622" lon="6.73018">
        <ele>535.3</ele>
        <time>2014-11-02T11:02:54.000Z</time>
      </trkpt>
      <trkpt lat="47.42628" lon="6.73023">
        <ele>535.3</ele>
        <time>2014-11-02T11:02:55.000Z</time>
      </trkpt>
      <trkpt lat="47.42634" lon="6.73028">
        <ele>534.8</ele>
        <time>2014-11-02T11:02:55.998Z</time>
      </trkpt>
      <trkpt lat="47.42639" lon="6.73032">
        <ele>535.3</ele>
        <time>2014-11-02T11:02:57.000Z</time>
      </trkpt>
      <trkpt lat="47.42641" lon="6.73041">
        <ele>535.3</ele>
        <time>2014-11-02T11:02:58.000Z</time>
      </trkpt>
      <trkpt lat="47.42639" lon="6.73051">
        <ele>534</ele>
        <time>2014-11-02T11:02:59.000Z</time>
      </trkpt>
      <trkpt lat="47.42638" lon="6.73059">
        <ele>533.8</ele>
        <time>2014-11-02T11:03:00.000Z</time>
      </trkpt>
      <trkpt lat="47.42636" lon="6.73069">
        <ele>533.2</ele>
        <time>2014-11-02T11:03:01.000Z</time>
      </trkpt>
      <trkpt lat="47.42634" lon="6.73078">
        <ele>533.6</ele>
        <time>2014-11-02T11:03:02.000Z</time>
      </trkpt>
      <trkpt lat="47.42632" lon="6.73099">
        <ele>534.3</ele>
        <time>2014-11-02T11:03:05.000Z</time>
      </trkpt>
      <trkpt lat="47.42633" lon="6.73108">
        <ele>534.5</ele>
        <time>2014-11-02T11:03:06.000Z</time>
      </trkpt>
      <trkpt lat="47.42633" lon="6.73119">
        <ele>533.6</ele>
        <time>2014-11-02T11:03:07.000Z</time>
      </trkpt>
      <trkpt lat="47.42632" lon="6.73128">
        <ele>534.6</ele>
        <time>2014-11-02T11:03:08.000Z</time>
      </trkpt>
      <trkpt lat="47.4263" lon="6.73137">
        <ele>535.1</ele>
        <time>2014-11-02T11:03:09.000Z</time>
      </trkpt>
      <trkpt lat="47.42629" lon="6.73146">
        <ele>535</ele>
        <time>2014-11-02T11:03:10.000Z</time>
      </trkpt>
      <trkpt lat="47.42631" lon="6.73156">
        <ele>533.5</ele>
        <time>2014-11-02T11:03:11.000Z</time>
      </trkpt>
      <trkpt lat="47.42633" lon="6.73166">
        <ele>533.5</ele>
        <time>2014-11-02T11:03:12.000Z</time>
      </trkpt>
      <trkpt lat="47.42633" lon="6.73175">
        <ele>532.5</ele>
        <time>2014-11-02T11:03:13.000Z</time>
      </trkpt>
      <trkpt lat="47.42633" lon="6.73184">
        <ele>532.7</ele>
        <time>2014-11-02T11:03:14.000Z</time>
      </trkpt>
      <trkpt lat="47.42633" lon="6.73193">
        <ele>532.5</ele>
        <time>2014-11-02T11:03:15.000Z</time>
      </trkpt>
      <trkpt lat="47.42635" lon="6.73203">
        <ele>532.6</ele>
        <time>2014-11-02T11:03:16.000Z</time>
      </trkpt>
      <trkpt lat="47.42634" lon="6.73212">
        <ele>531.9</ele>
        <time>2014-11-02T11:03:17.000Z</time>
      </trkpt>
      <trkpt lat="47.42633" lon="6.73221">
        <ele>530.9</ele>
        <time>2014-11-02T11:03:18.000Z</time>
      </trkpt>
      <trkpt lat="47.42634" lon="6.7323">
        <ele>529.9</ele>
        <time>2014-11-02T11:03:19.000Z</time>
      </trkpt>
      <trkpt lat="47.42634" lon="6.73238">
        <ele>529.9</ele>
        <time>2014-11-02T11:03:20.000Z</time>
      </trkpt>
      <trkpt lat="47.42636" lon="6.73246">
        <ele>529.7</ele>
        <time>2014-11-02T11:03:21.000Z</time>
      </trkpt>
      <trkpt lat="47.42639" lon="6.73254">
        <ele>529</ele>
        <time>2014-11-02T11:03:22.000Z</time>
      </trkpt>
      <trkpt lat="47.42643" lon="6.7326">
        <ele>529.3</ele>
        <time>2014-11-02T11:03:23.000Z</time>
      </trkpt>
      <trkpt lat="47.42647" lon="6.73261">
        <ele>529.4</ele>
        <time>2014-11-02T11:03:24.000Z</time>
      </trkpt>
      <trkpt lat="47.42653" lon="6.73264">
        <ele>529.5</ele>
        <time>2014-11-02T11:03:25.000Z</time>
      </trkpt>
      <trkpt lat="47.4266" lon="6.73264">
        <ele>529.1</ele>
        <time>2014-11-02T11:03:26.000Z</time>
      </trkpt>
      <trkpt lat="47.42665" lon="6.73264">
        <ele>528.7</ele>
        <time>2014-11-02T11:03:27.000Z</time>
      </trkpt>
      <trkpt lat="47.42671" lon="6.73267">
        <ele>528.6</ele>
        <time>2014-11-02T11:03:28.000Z</time>
      </trkpt>
      <trkpt lat="47.42676" lon="6.73269">
        <ele>528.1</ele>
        <time>2014-11-02T11:03:29.000Z</time>
      </trkpt>
      <trkpt lat="47.42682" lon="6.73271">
        <ele>528.2</ele>
        <time>2014-11-02T11:03:30.000Z</time>
      </trkpt>
      <trkpt lat="47.42688" lon="6.73273">
        <ele>527.8</ele>
        <time>2014-11-02T11:03:31.000Z</time>
      </trkpt>
      <trkpt lat="47.42693" lon="6.73274">
        <ele>527.9</ele>
        <time>2014-11-02T11:03:32.000Z</time>
      </trkpt>
      <trkpt lat="47.42699" lon="6.73276">
        <ele>527.9</ele>
        <time>2014-11-02T11:03:33.000Z</time>
      </trkpt>
      <trkpt lat="47.42705" lon="6.73278">
        <ele>527.4</ele>
        <time>2014-11-02T11:03:34.000Z</time>
      </trkpt>
      <trkpt lat="47.4271" lon="6.73281">
        <ele>527.1</ele>
        <time>2014-11-02T11:03:35.000Z</time>
      </trkpt>
      <trkpt lat="47.42716" lon="6.73284">
        <ele>526.9</ele>
        <time>2014-11-02T11:03:36.000Z</time>
      </trkpt>
      <trkpt lat="47.42721" lon="6.73287">
        <ele>526.5</ele>
        <time>2014-11-02T11:03:37.000Z</time>
      </trkpt>
      <trkpt lat="47.42727" lon="6.73289">
        <ele>526.1</ele>
        <time>2014-11-02T11:03:38.000Z</time>
      </trkpt>
      <trkpt lat="47.42732" lon="6.73292">
        <ele>526.1</ele>
        <time>2014-11-02T11:03:39.000Z</time>
      </trkpt>
      <trkpt lat="47.42738" lon="6.73294">
        <ele>526.1</ele>
        <time>2014-11-02T11:03:40.000Z</time>
      </trkpt>
      <trkpt lat="47.42743" lon="6.73297">
        <ele>525.9</ele>
        <time>2014-11-02T11:03:41.000Z</time>
      </trkpt>
      <trkpt lat="47.42749" lon="6.73299">
        <ele>525.8</ele>
        <time>2014-11-02T11:03:42.000Z</time>
      </trkpt>
      <trkpt lat="47.42755" lon="6.73301">
        <ele>525.9</ele>
        <time>2014-11-02T11:03:43.000Z</time>
      </trkpt>
      <trkpt lat="47.4276" lon="6.73303">
        <ele>525.9</ele>
        <time>2014-11-02T11:03:44.000Z</time>
      </trkpt>
      <trkpt lat="47.42767" lon="6.73305">
        <ele>526.6</ele>
        <time>2014-11-02T11:03:45.000Z</time>
      </trkpt>
      <trkpt lat="47.42773" lon="6.73308">
        <ele>525.8</ele>
        <time>2014-11-02T11:03:46.000Z</time>
      </trkpt>
      <trkpt lat="47.4278" lon="6.73312">
        <ele>524.8</ele>
        <time>2014-11-02T11:03:47.000Z</time>
      </trkpt>
      <trkpt lat="47.42787" lon="6.73315">
        <ele>524.5</ele>
        <time>2014-11-02T11:03:48.000Z</time>
      </trkpt>
      <trkpt lat="47.42794" lon="6.7332">
        <ele>524.1</ele>
        <time>2014-11-02T11:03:49.000Z</time>
      </trkpt>
      <trkpt lat="47.42802" lon="6.73325">
        <ele>524.5</ele>
        <time>2014-11-02T11:03:50.000Z</time>
      </trkpt>
      <trkpt lat="47.42809" lon="6.73332">
        <ele>524.5</ele>
        <time>2014-11-02T11:03:51.000Z</time>
      </trkpt>
      <trkpt lat="47.42816" lon="6.73339">
        <ele>524.3</ele>
        <time>2014-11-02T11:03:52.000Z</time>
      </trkpt>
      <trkpt lat="47.42823" lon="6.73346">
        <ele>523.3</ele>
        <time>2014-11-02T11:03:53.000Z</time>
      </trkpt>
      <trkpt lat="47.4283" lon="6.73353">
        <ele>522.8</ele>
        <time>2014-11-02T11:03:54.029Z</time>
      </trkpt>
      <trkpt lat="47.42838" lon="6.73358">
        <ele>522.3</ele>
        <time>2014-11-02T11:03:55.000Z</time>
      </trkpt>
      <trkpt lat="47.42846" lon="6.73362">
        <ele>522</ele>
        <time>2014-11-02T11:03:56.000Z</time>
      </trkpt>
      <trkpt lat="47.42854" lon="6.73364">
        <ele>521.3</ele>
        <time>2014-11-02T11:03:57.000Z</time>
      </trkpt>
      <trkpt lat="47.4286" lon="6.73368">
        <ele>519.9</ele>
        <time>2014-11-02T11:03:58.000Z</time>
      </trkpt>
      <trkpt lat="47.42867" lon="6.73369">
        <ele>519.1</ele>
        <time>2014-11-02T11:03:59.000Z</time>
      </trkpt>
      <trkpt lat="47.42874" lon="6.7337">
        <ele>518.6</ele>
        <time>2014-11-02T11:04:00.000Z</time>
      </trkpt>
      <trkpt lat="47.42882" lon="6.73369">
        <ele>518.9</ele>
        <time>2014-11-02T11:04:01.000Z</time>
      </trkpt>
      <trkpt lat="47.4289" lon="6.73367">
        <ele>518.2</ele>
        <time>2014-11-02T11:04:02.000Z</time>
      </trkpt>
      <trkpt lat="47.42909" lon="6.73365">
        <ele>518.3</ele>
        <time>2014-11-02T11:04:05.000Z</time>
      </trkpt>
      <trkpt lat="47.42917" lon="6.73364">
        <ele>518.1</ele>
        <time>2014-11-02T11:04:06.000Z</time>
      </trkpt>
      <trkpt lat="47.42925" lon="6.7336">
        <ele>517.8</ele>
        <time>2014-11-02T11:04:07.000Z</time>
      </trkpt>
      <trkpt lat="47.42933" lon="6.73358">
        <ele>517.2</ele>
        <time>2014-11-02T11:04:08.000Z</time>
      </trkpt>
      <trkpt lat="47.42939" lon="6.73356">
        <ele>515.7</ele>
        <time>2014-11-02T11:04:09.000Z</time>
      </trkpt>
      <trkpt lat="47.42945" lon="6.73355">
        <ele>514.7</ele>
        <time>2014-11-02T11:04:10.000Z</time>
      </trkpt>
      <trkpt lat="47.42951" lon="6.73353">
        <ele>514.6</ele>
        <time>2014-11-02T11:04:11.000Z</time>
      </trkpt>
      <trkpt lat="47.42955" lon="6.73352">
        <ele>514.2</ele>
        <time>2014-11-02T11:04:12.000Z</time>
      </trkpt>
      <trkpt lat="47.42959" lon="6.73351">
        <ele>514.2</ele>
        <time>2014-11-02T11:04:13.000Z</time>
      </trkpt>
      <trkpt lat="47.42962" lon="6.73351">
        <ele>514.4</ele>
        <time>2014-11-02T11:04:14.000Z</time>
      </trkpt>
      <trkpt lat="47.42967" lon="6.73348">
        <ele>513</ele>
        <time>2014-11-02T11:04:15.000Z</time>
      </trkpt>
      <trkpt lat="47.42971" lon="6.73347">
        <ele>511.2</ele>
        <time>2014-11-02T11:04:16.000Z</time>
      </trkpt>
      <trkpt lat="47.42977" lon="6.73343">
        <ele>511.2</ele>
        <time>2014-11-02T11:04:17.000Z</time>
      </trkpt>
      <trkpt lat="47.42983" lon="6.7334">
        <ele>509.5</ele>
        <time>2014-11-02T11:04:18.000Z</time>
      </trkpt>
      <trkpt lat="47.4299" lon="6.7334">
        <ele>508.5</ele>
        <time>2014-11-02T11:04:19.000Z</time>
      </trkpt>
      <trkpt lat="47.42996" lon="6.73341">
        <ele>508</ele>
        <time>2014-11-02T11:04:20.000Z</time>
      </trkpt>
      <trkpt lat="47.43" lon="6.73342">
        <ele>508</ele>
        <time>2014-11-02T11:04:21.000Z</time>
      </trkpt>
      <trkpt lat="47.43005" lon="6.73341">
        <ele>506.5</ele>
        <time>2014-11-02T11:04:22.000Z</time>
      </trkpt>
      <trkpt lat="47.4301" lon="6.73341">
        <ele>506.2</ele>
        <time>2014-11-02T11:04:23.000Z</time>
      </trkpt>
      <trkpt lat="47.43015" lon="6.73341">
        <ele>506.5</ele>
        <time>2014-11-02T11:04:24.000Z</time>
      </trkpt>
      <trkpt lat="47.43019" lon="6.73341">
        <ele>506.5</ele>
        <time>2014-11-02T11:04:25.000Z</time>
      </trkpt>
      <trkpt lat="47.43023" lon="6.73341">
        <ele>506.4</ele>
        <time>2014-11-02T11:04:26.000Z</time>
      </trkpt>
      <trkpt lat="47.43028" lon="6.73342">
        <ele>506.6</ele>
        <time>2014-11-02T11:04:27.000Z</time>
      </trkpt>
      <trkpt lat="47.43033" lon="6.73342">
        <ele>506</ele>
        <time>2014-11-02T11:04:28.000Z</time>
      </trkpt>
      <trkpt lat="47.43038" lon="6.73342">
        <ele>505.7</ele>
        <time>2014-11-02T11:04:29.000Z</time>
      </trkpt>
      <trkpt lat="47.43044" lon="6.7334">
        <ele>505</ele>
        <time>2014-11-02T11:04:30.000Z</time>
      </trkpt>
      <trkpt lat="47.43049" lon="6.7334">
        <ele>505.1</ele>
        <time>2014-11-02T11:04:31.000Z</time>
      </trkpt>
      <trkpt lat="47.43055" lon="6.73339">
        <ele>504.8</ele>
        <time>2014-11-02T11:04:32.000Z</time>
      </trkpt>
      <trkpt lat="47.43062" lon="6.73338">
        <ele>505.1</ele>
        <time>2014-11-02T11:04:33.000Z</time>
      </trkpt>
      <trkpt lat="47.43068" lon="6.73337">
        <ele>504.4</ele>
        <time>2014-11-02T11:04:34.000Z</time>
      </trkpt>
      <trkpt lat="47.43074" lon="6.73336">
        <ele>504.6</ele>
        <time>2014-11-02T11:04:35.000Z</time>
      </trkpt>
      <trkpt lat="47.43081" lon="6.73337">
        <ele>503.7</ele>
        <time>2014-11-02T11:04:36.000Z</time>
      </trkpt>
      <trkpt lat="47.43089" lon="6.73334">
        <ele>503.1</ele>
        <time>2014-11-02T11:04:37.000Z</time>
      </trkpt>
      <trkpt lat="47.43096" lon="6.73333">
        <ele>502.1</ele>
        <time>2014-11-02T11:04:38.000Z</time>
      </trkpt>
      <trkpt lat="47.43103" lon="6.73331">
        <ele>501.7</ele>
        <time>2014-11-02T11:04:39.000Z</time>
      </trkpt>
      <trkpt lat="47.4311" lon="6.73329">
        <ele>501.8</ele>
        <time>2014-11-02T11:04:40.000Z</time>
      </trkpt>
      <trkpt lat="47.43116" lon="6.73326">
        <ele>501</ele>
        <time>2014-11-02T11:04:41.000Z</time>
      </trkpt>
      <trkpt lat="47.43124" lon="6.73323">
        <ele>500.4</ele>
        <time>2014-11-02T11:04:42.000Z</time>
      </trkpt>
      <trkpt lat="47.43131" lon="6.73318">
        <ele>499.6</ele>
        <time>2014-11-02T11:04:43.000Z</time>
      </trkpt>
      <trkpt lat="47.43139" lon="6.73313">
        <ele>499.5</ele>
        <time>2014-11-02T11:04:44.000Z</time>
      </trkpt>
      <trkpt lat="47.43146" lon="6.73308">
        <ele>498.4</ele>
        <time>2014-11-02T11:04:45.000Z</time>
      </trkpt>
      <trkpt lat="47.43153" lon="6.73302">
        <ele>498.2</ele>
        <time>2014-11-02T11:04:46.000Z</time>
      </trkpt>
      <trkpt lat="47.4316" lon="6.73295">
        <ele>497.4</ele>
        <time>2014-11-02T11:04:47.000Z</time>
      </trkpt>
      <trkpt lat="47.43166" lon="6.7329">
        <ele>495.8</ele>
        <time>2014-11-02T11:04:48.000Z</time>
      </trkpt>
      <trkpt lat="47.43173" lon="6.73284">
        <ele>495.2</ele>
        <time>2014-11-02T11:04:49.000Z</time>
      </trkpt>
      <trkpt lat="47.4318" lon="6.73279">
        <ele>495.2</ele>
        <time>2014-11-02T11:04:50.000Z</time>
      </trkpt>
      <trkpt lat="47.43187" lon="6.73274">
        <ele>495.4</ele>
        <time>2014-11-02T11:04:51.000Z</time>
      </trkpt>
      <trkpt lat="47.43194" lon="6.73274">
        <ele>495.4</ele>
        <time>2014-11-02T11:04:52.000Z</time>
      </trkpt>
      <trkpt lat="47.43201" lon="6.73273">
        <ele>494.5</ele>
        <time>2014-11-02T11:04:53.000Z</time>
      </trkpt>
      <trkpt lat="47.43207" lon="6.73275">
        <ele>494.3</ele>
        <time>2014-11-02T11:04:54.000Z</time>
      </trkpt>
      <trkpt lat="47.43213" lon="6.73275">
        <ele>493.8</ele>
        <time>2014-11-02T11:04:55.000Z</time>
      </trkpt>
      <trkpt lat="47.4322" lon="6.73276">
        <ele>493.7</ele>
        <time>2014-11-02T11:04:56.000Z</time>
      </trkpt>
      <trkpt lat="47.43227" lon="6.73277">
        <ele>493.8</ele>
        <time>2014-11-02T11:04:57.000Z</time>
      </trkpt>
      <trkpt lat="47.43233" lon="6.73279">
        <ele>493.9</ele>
        <time>2014-11-02T11:04:58.000Z</time>
      </trkpt>
      <trkpt lat="47.4324" lon="6.7328">
        <ele>493.3</ele>
        <time>2014-11-02T11:04:59.000Z</time>
      </trkpt>
      <trkpt lat="47.43249" lon="6.73284">
        <ele>492.5</ele>
        <time>2014-11-02T11:05:00.000Z</time>
      </trkpt>
      <trkpt lat="47.43256" lon="6.73289">
        <ele>492.7</ele>
        <time>2014-11-02T11:05:01.000Z</time>
      </trkpt>
      <trkpt lat="47.43264" lon="6.73292">
        <ele>493.1</ele>
        <time>2014-11-02T11:05:02.000Z</time>
      </trkpt>
      <trkpt lat="47.4328" lon="6.73295">
        <ele>492.3</ele>
        <time>2014-11-02T11:05:05.000Z</time>
      </trkpt>
      <trkpt lat="47.43285" lon="6.73295">
        <ele>491.6</ele>
        <time>2014-11-02T11:05:06.000Z</time>
      </trkpt>
      <trkpt lat="47.43291" lon="6.73298">
        <ele>489.9</ele>
        <time>2014-11-02T11:05:07.000Z</time>
      </trkpt>
      <trkpt lat="47.43299" lon="6.73304">
        <ele>489.2</ele>
        <time>2014-11-02T11:05:08.000Z</time>
      </trkpt>
      <trkpt lat="47.43306" lon="6.73302">
        <ele>487.2</ele>
        <time>2014-11-02T11:05:09.000Z</time>
      </trkpt>
      <trkpt lat="47.43313" lon="6.733">
        <ele>486.1</ele>
        <time>2014-11-02T11:05:10.000Z</time>
      </trkpt>
      <trkpt lat="47.43318" lon="6.73294">
        <ele>485.3</ele>
        <time>2014-11-02T11:05:11.000Z</time>
      </trkpt>
      <trkpt lat="47.43324" lon="6.73289">
        <ele>484.9</ele>
        <time>2014-11-02T11:05:12.000Z</time>
      </trkpt>
      <trkpt lat="47.4333" lon="6.73286">
        <ele>484.1</ele>
        <time>2014-11-02T11:05:13.000Z</time>
      </trkpt>
      <trkpt lat="47.43336" lon="6.73284">
        <ele>482.1</ele>
        <time>2014-11-02T11:05:14.000Z</time>
      </trkpt>
      <trkpt lat="47.43343" lon="6.73283">
        <ele>481</ele>
        <time>2014-11-02T11:05:15.000Z</time>
      </trkpt>
      <trkpt lat="47.43349" lon="6.73282">
        <ele>480.8</ele>
        <time>2014-11-02T11:05:16.000Z</time>
      </trkpt>
      <trkpt lat="47.43354" lon="6.73286">
        <ele>479.5</ele>
        <time>2014-11-02T11:05:17.000Z</time>
      </trkpt>
      <trkpt lat="47.4336" lon="6.73287">
        <ele>478.8</ele>
        <time>2014-11-02T11:05:18.000Z</time>
      </trkpt>
      <trkpt lat="47.43365" lon="6.73289">
        <ele>478.8</ele>
        <time>2014-11-02T11:05:19.000Z</time>
      </trkpt>
      <trkpt lat="47.43368" lon="6.7329">
        <ele>475.6</ele>
        <time>2014-11-02T11:05:20.000Z</time>
      </trkpt>
      <trkpt lat="47.43372" lon="6.73291">
        <ele>474.9</ele>
        <time>2014-11-02T11:05:21.000Z</time>
      </trkpt>
      <trkpt lat="47.43375" lon="6.73294">
        <ele>474.6</ele>
        <time>2014-11-02T11:05:22.000Z</time>
      </trkpt>
      <trkpt lat="47.43379" lon="6.73295">
        <ele>474.4</ele>
        <time>2014-11-02T11:05:23.000Z</time>
      </trkpt>
      <trkpt lat="47.43383" lon="6.73297">
        <ele>474.6</ele>
        <time>2014-11-02T11:05:24.000Z</time>
      </trkpt>
      <trkpt lat="47.43388" lon="6.73302">
        <ele>471.9</ele>
        <time>2014-11-02T11:05:25.000Z</time>
      </trkpt>
      <trkpt lat="47.43392" lon="6.73305">
        <ele>471.4</ele>
        <time>2014-11-02T11:05:26.000Z</time>
      </trkpt>
      <trkpt lat="47.43396" lon="6.73306">
        <ele>471.6</ele>
        <time>2014-11-02T11:05:27.000Z</time>
      </trkpt>
      <trkpt lat="47.434" lon="6.73307">
        <ele>471.5</ele>
        <time>2014-11-02T11:05:28.000Z</time>
      </trkpt>
      <trkpt lat="47.43404" lon="6.73307">
        <ele>471.2</ele>
        <time>2014-11-02T11:05:29.000Z</time>
      </trkpt>
      <trkpt lat="47.43407" lon="6.73307">
        <ele>471.2</ele>
        <time>2014-11-02T11:05:30.000Z</time>
      </trkpt>
      <trkpt lat="47.43412" lon="6.73308">
        <ele>471.2</ele>
        <time>2014-11-02T11:05:31.000Z</time>
      </trkpt>
      <trkpt lat="47.43418" lon="6.7331">
        <ele>470.6</ele>
        <time>2014-11-02T11:05:32.000Z</time>
      </trkpt>
      <trkpt lat="47.43424" lon="6.73311">
        <ele>469.4</ele>
        <time>2014-11-02T11:05:33.000Z</time>
      </trkpt>
      <trkpt lat="47.43431" lon="6.73312">
        <ele>468.4</ele>
        <time>2014-11-02T11:05:34.000Z</time>
      </trkpt>
      <trkpt lat="47.43436" lon="6.73314">
        <ele>468.1</ele>
        <time>2014-11-02T11:05:35.000Z</time>
      </trkpt>
      <trkpt lat="47.43443" lon="6.73316">
        <ele>466.6</ele>
        <time>2014-11-02T11:05:36.000Z</time>
      </trkpt>
      <trkpt lat="47.43447" lon="6.73324">
        <ele>465.7</ele>
        <time>2014-11-02T11:05:37.000Z</time>
      </trkpt>
      <trkpt lat="47.43451" lon="6.73327">
        <ele>462.5</ele>
        <time>2014-11-02T11:05:38.000Z</time>
      </trkpt>
      <trkpt lat="47.43457" lon="6.73329">
        <ele>463.5</ele>
        <time>2014-11-02T11:05:39.000Z</time>
      </trkpt>
      <trkpt lat="47.43462" lon="6.73331">
        <ele>462</ele>
        <time>2014-11-02T11:05:40.000Z</time>
      </trkpt>
      <trkpt lat="47.43466" lon="6.73334">
        <ele>461.2</ele>
        <time>2014-11-02T11:05:41.000Z</time>
      </trkpt>
      <trkpt lat="47.43469" lon="6.73337">
        <ele>460.8</ele>
        <time>2014-11-02T11:05:42.000Z</time>
      </trkpt>
      <trkpt lat="47.43474" lon="6.73342">
        <ele>460</ele>
        <time>2014-11-02T11:05:43.000Z</time>
      </trkpt>
      <trkpt lat="47.43477" lon="6.73345">
        <ele>459.6</ele>
        <time>2014-11-02T11:05:44.000Z</time>
      </trkpt>
      <trkpt lat="47.43482" lon="6.73349">
        <ele>458.9</ele>
        <time>2014-11-02T11:05:45.000Z</time>
      </trkpt>
      <trkpt lat="47.43486" lon="6.73352">
        <ele>458.4</ele>
        <time>2014-11-02T11:05:46.000Z</time>
      </trkpt>
      <trkpt lat="47.43491" lon="6.73357">
        <ele>457.6</ele>
        <time>2014-11-02T11:05:47.000Z</time>
      </trkpt>
      <trkpt lat="47.43495" lon="6.7336">
        <ele>457.7</ele>
        <time>2014-11-02T11:05:48.000Z</time>
      </trkpt>
      <trkpt lat="47.43499" lon="6.73363">
        <ele>455.4</ele>
        <time>2014-11-02T11:05:49.000Z</time>
      </trkpt>
      <trkpt lat="47.43503" lon="6.73366">
        <ele>453.4</ele>
        <time>2014-11-02T11:05:50.000Z</time>
      </trkpt>
      <trkpt lat="47.43506" lon="6.7337">
        <ele>452.4</ele>
        <time>2014-11-02T11:05:51.000Z</time>
      </trkpt>
      <trkpt lat="47.4351" lon="6.73373">
        <ele>450.9</ele>
        <time>2014-11-02T11:05:52.000Z</time>
      </trkpt>
      <trkpt lat="47.43516" lon="6.73377">
        <ele>449.4</ele>
        <time>2014-11-02T11:05:53.000Z</time>
      </trkpt>
      <trkpt lat="47.4352" lon="6.7338">
        <ele>448.9</ele>
        <time>2014-11-02T11:05:54.000Z</time>
      </trkpt>
      <trkpt lat="47.43527" lon="6.73384">
        <ele>448</ele>
        <time>2014-11-02T11:05:55.000Z</time>
      </trkpt>
      <trkpt lat="47.43533" lon="6.73388">
        <ele>447</ele>
        <time>2014-11-02T11:05:56.000Z</time>
      </trkpt>
      <trkpt lat="47.43538" lon="6.73391">
        <ele>445.1</ele>
        <time>2014-11-02T11:05:57.000Z</time>
      </trkpt>
      <trkpt lat="47.43542" lon="6.73395">
        <ele>444</ele>
        <time>2014-11-02T11:05:58.000Z</time>
      </trkpt>
      <trkpt lat="47.43546" lon="6.73401">
        <ele>442.8</ele>
        <time>2014-11-02T11:05:59.000Z</time>
      </trkpt>
      <trkpt lat="47.4355" lon="6.73405">
        <ele>441.6</ele>
        <time>2014-11-02T11:06:00.000Z</time>
      </trkpt>
      <trkpt lat="47.43554" lon="6.73407">
        <ele>441.2</ele>
        <time>2014-11-02T11:06:01.000Z</time>
      </trkpt>
      <trkpt lat="47.43557" lon="6.7341">
        <ele>441.2</ele>
        <time>2014-11-02T11:06:02.000Z</time>
      </trkpt>
      <trkpt lat="47.4356" lon="6.73424">
        <ele>440.7</ele>
        <time>2014-11-02T11:06:05.000Z</time>
      </trkpt>
      <trkpt lat="47.43562" lon="6.73428">
        <ele>439.8</ele>
        <time>2014-11-02T11:06:06.000Z</time>
      </trkpt>
      <trkpt lat="47.43564" lon="6.73433">
        <ele>439.3</ele>
        <time>2014-11-02T11:06:07.000Z</time>
      </trkpt>
      <trkpt lat="47.43566" lon="6.73437">
        <ele>439.2</ele>
        <time>2014-11-02T11:06:08.000Z</time>
      </trkpt>
      <trkpt lat="47.43568" lon="6.73443">
        <ele>439.1</ele>
        <time>2014-11-02T11:06:09.000Z</time>
      </trkpt>
      <trkpt lat="47.43569" lon="6.73449">
        <ele>438.7</ele>
        <time>2014-11-02T11:06:10.000Z</time>
      </trkpt>
      <trkpt lat="47.4357" lon="6.73454">
        <ele>438.5</ele>
        <time>2014-11-02T11:06:11.000Z</time>
      </trkpt>
      <trkpt lat="47.43571" lon="6.7346">
        <ele>438.2</ele>
        <time>2014-11-02T11:06:12.000Z</time>
      </trkpt>
      <trkpt lat="47.43572" lon="6.73466">
        <ele>438.2</ele>
        <time>2014-11-02T11:06:13.000Z</time>
      </trkpt>
      <trkpt lat="47.43573" lon="6.73471">
        <ele>438.2</ele>
        <time>2014-11-02T11:06:14.000Z</time>
      </trkpt>
      <trkpt lat="47.43575" lon="6.73477">
        <ele>437.9</ele>
        <time>2014-11-02T11:06:15.000Z</time>
      </trkpt>
      <trkpt lat="47.43577" lon="6.73482">
        <ele>438</ele>
        <time>2014-11-02T11:06:16.000Z</time>
      </trkpt>
      <trkpt lat="47.43579" lon="6.73489">
        <ele>437.6</ele>
        <time>2014-11-02T11:06:17.000Z</time>
      </trkpt>
      <trkpt lat="47.43583" lon="6.73496">
        <ele>436.9</ele>
        <time>2014-11-02T11:06:18.000Z</time>
      </trkpt>
      <trkpt lat="47.43595" lon="6.7351">
        <ele>435</ele>
        <time>2014-11-02T11:06:19.000Z</time>
      </trkpt>
      <trkpt lat="47.43597" lon="6.73518">
        <ele>434.7</ele>
        <time>2014-11-02T11:06:20.000Z</time>
      </trkpt>
      <trkpt lat="47.436" lon="6.73527">
        <ele>435.1</ele>
        <time>2014-11-02T11:06:21.000Z</time>
      </trkpt>
      <trkpt lat="47.43601" lon="6.73535">
        <ele>435.6</ele>
        <time>2014-11-02T11:06:22.000Z</time>
      </trkpt>
      <trkpt lat="47.43603" lon="6.73545">
        <ele>435.4</ele>
        <time>2014-11-02T11:06:23.000Z</time>
      </trkpt>
      <trkpt lat="47.43608" lon="6.73554">
        <ele>434.2</ele>
        <time>2014-11-02T11:06:24.000Z</time>
      </trkpt>
      <trkpt lat="47.4361" lon="6.73563">
        <ele>434.2</ele>
        <time>2014-11-02T11:06:25.000Z</time>
      </trkpt>
      <trkpt lat="47.43613" lon="6.73571">
        <ele>434.4</ele>
        <time>2014-11-02T11:06:26.000Z</time>
      </trkpt>
      <trkpt lat="47.43614" lon="6.73577">
        <ele>433.8</ele>
        <time>2014-11-02T11:06:27.000Z</time>
      </trkpt>
      <trkpt lat="47.43616" lon="6.73584">
        <ele>433.5</ele>
        <time>2014-11-02T11:06:28.000Z</time>
      </trkpt>
      <trkpt lat="47.4362" lon="6.73589">
        <ele>432</ele>
        <time>2014-11-02T11:06:29.000Z</time>
      </trkpt>
      <trkpt lat="47.43625" lon="6.73597">
        <ele>430.1</ele>
        <time>2014-11-02T11:06:30.000Z</time>
      </trkpt>
      <trkpt lat="47.4363" lon="6.73605">
        <ele>430</ele>
        <time>2014-11-02T11:06:31.000Z</time>
      </trkpt>
      <trkpt lat="47.43634" lon="6.73612">
        <ele>429.4</ele>
        <time>2014-11-02T11:06:32.000Z</time>
      </trkpt>
      <trkpt lat="47.43638" lon="6.7362">
        <ele>429.3</ele>
        <time>2014-11-02T11:06:33.000Z</time>
      </trkpt>
      <trkpt lat="47.43644" lon="6.73629">
        <ele>427.3</ele>
        <time>2014-11-02T11:06:34.000Z</time>
      </trkpt>
      <trkpt lat="47.43647" lon="6.73637">
        <ele>425.6</ele>
        <time>2014-11-02T11:06:35.000Z</time>
      </trkpt>
      <trkpt lat="47.4365" lon="6.73646">
        <ele>426</ele>
        <time>2014-11-02T11:06:36.000Z</time>
      </trkpt>
      <trkpt lat="47.43652" lon="6.73652">
        <ele>425.5</ele>
        <time>2014-11-02T11:06:37.000Z</time>
      </trkpt>
      <trkpt lat="47.43655" lon="6.73661">
        <ele>425.2</ele>
        <time>2014-11-02T11:06:38.000Z</time>
      </trkpt>
      <trkpt lat="47.43659" lon="6.73668">
        <ele>425.3</ele>
        <time>2014-11-02T11:06:39.000Z</time>
      </trkpt>
      <trkpt lat="47.43662" lon="6.73675">
        <ele>425.6</ele>
        <time>2014-11-02T11:06:40.000Z</time>
      </trkpt>
      <trkpt lat="47.43665" lon="6.73682">
        <ele>425.9</ele>
        <time>2014-11-02T11:06:41.000Z</time>
      </trkpt>
      <trkpt lat="47.43667" lon="6.73692">
        <ele>423.9</ele>
        <time>2014-11-02T11:06:42.000Z</time>
      </trkpt>
      <trkpt lat="47.43671" lon="6.737">
        <ele>424.7</ele>
        <time>2014-11-02T11:06:43.000Z</time>
      </trkpt>
      <trkpt lat="47.43676" lon="6.73707">
        <ele>426.2</ele>
        <time>2014-11-02T11:06:44.000Z</time>
      </trkpt>
      <trkpt lat="47.4368" lon="6.73713">
        <ele>426.1</ele>
        <time>2014-11-02T11:06:45.000Z</time>
      </trkpt>
      <trkpt lat="47.43684" lon="6.7372">
        <ele>426.3</ele>
        <time>2014-11-02T11:06:46.000Z</time>
      </trkpt>
      <trkpt lat="47.43688" lon="6.73726">
        <ele>425.9</ele>
        <time>2014-11-02T11:06:47.000Z</time>
      </trkpt>
      <trkpt lat="47.43691" lon="6.73735">
        <ele>425.6</ele>
        <time>2014-11-02T11:06:48.000Z</time>
      </trkpt>
      <trkpt lat="47.43696" lon="6.73745">
        <ele>425.9</ele>
        <time>2014-11-02T11:06:49.000Z</time>
      </trkpt>
      <trkpt lat="47.43702" lon="6.73753">
        <ele>423.6</ele>
        <time>2014-11-02T11:06:50.000Z</time>
      </trkpt>
      <trkpt lat="47.43707" lon="6.73762">
        <ele>422.3</ele>
        <time>2014-11-02T11:06:51.000Z</time>
      </trkpt>
      <trkpt lat="47.43711" lon="6.73769">
        <ele>421.5</ele>
        <time>2014-11-02T11:06:52.000Z</time>
      </trkpt>
      <trkpt lat="47.43715" lon="6.73777">
        <ele>420.4</ele>
        <time>2014-11-02T11:06:53.000Z</time>
      </trkpt>
      <trkpt lat="47.43718" lon="6.73785">
        <ele>420.1</ele>
        <time>2014-11-02T11:06:54.000Z</time>
      </trkpt>
      <trkpt lat="47.43724" lon="6.73794">
        <ele>420.1</ele>
        <time>2014-11-02T11:06:55.000Z</time>
      </trkpt>
      <trkpt lat="47.43729" lon="6.73801">
        <ele>420.8</ele>
        <time>2014-11-02T11:06:56.000Z</time>
      </trkpt>
      <trkpt lat="47.43733" lon="6.73809">
        <ele>420.5</ele>
        <time>2014-11-02T11:06:57.000Z</time>
      </trkpt>
      <trkpt lat="47.43738" lon="6.73815">
        <ele>420.9</ele>
        <time>2014-11-02T11:06:58.000Z</time>
      </trkpt>
      <trkpt lat="47.43744" lon="6.73825">
        <ele>420.9</ele>
        <time>2014-11-02T11:06:59.000Z</time>
      </trkpt>
      <trkpt lat="47.4375" lon="6.73833">
        <ele>420.8</ele>
        <time>2014-11-02T11:07:00.000Z</time>
      </trkpt>
      <trkpt lat="47.43754" lon="6.73842">
        <ele>420.7</ele>
        <time>2014-11-02T11:07:01.000Z</time>
      </trkpt>
      <trkpt lat="47.43758" lon="6.73847">
        <ele>420.3</ele>
        <time>2014-11-02T11:07:02.000Z</time>
      </trkpt>
      <trkpt lat="47.43768" lon="6.73863">
        <ele>417.5</ele>
        <time>2014-11-02T11:07:05.000Z</time>
      </trkpt>
      <trkpt lat="47.43772" lon="6.73868">
        <ele>417.2</ele>
        <time>2014-11-02T11:07:06.000Z</time>
      </trkpt>
      <trkpt lat="47.43774" lon="6.73873">
        <ele>417.7</ele>
        <time>2014-11-02T11:07:07.000Z</time>
      </trkpt>
      <trkpt lat="47.43777" lon="6.73877">
        <ele>418.3</ele>
        <time>2014-11-02T11:07:08.000Z</time>
      </trkpt>
      <trkpt lat="47.4378" lon="6.73886">
        <ele>416.8</ele>
        <time>2014-11-02T11:07:09.000Z</time>
      </trkpt>
      <trkpt lat="47.43783" lon="6.73892">
        <ele>415.3</ele>
        <time>2014-11-02T11:07:10.000Z</time>
      </trkpt>
      <trkpt lat="47.43787" lon="6.73897">
        <ele>414.7</ele>
        <time>2014-11-02T11:07:11.000Z</time>
      </trkpt>
      <trkpt lat="47.43789" lon="6.73904">
        <ele>414.7</ele>
        <time>2014-11-02T11:07:12.000Z</time>
      </trkpt>
      <trkpt lat="47.43793" lon="6.73908">
        <ele>413.2</ele>
        <time>2014-11-02T11:07:13.000Z</time>
      </trkpt>
      <trkpt lat="47.43796" lon="6.73912">
        <ele>412.4</ele>
        <time>2014-11-02T11:07:14.000Z</time>
      </trkpt>
      <trkpt lat="47.438" lon="6.73917">
        <ele>413.1</ele>
        <time>2014-11-02T11:07:15.000Z</time>
      </trkpt>
      <trkpt lat="47.43802" lon="6.7392">
        <ele>413.6</ele>
        <time>2014-11-02T11:07:16.000Z</time>
      </trkpt>
      <trkpt lat="47.43805" lon="6.73923">
        <ele>413.9</ele>
        <time>2014-11-02T11:07:17.000Z</time>
      </trkpt>
      <trkpt lat="47.43811" lon="6.7393">
        <ele>413.7</ele>
        <time>2014-11-02T11:07:18.000Z</time>
      </trkpt>
      <trkpt lat="47.43813" lon="6.73936">
        <ele>412.9</ele>
        <time>2014-11-02T11:07:19.000Z</time>
      </trkpt>
      <trkpt lat="47.43815" lon="6.73939">
        <ele>413.2</ele>
        <time>2014-11-02T11:07:20.000Z</time>
      </trkpt>
      <trkpt lat="47.43815" lon="6.73946">
        <ele>413.2</ele>
        <time>2014-11-02T11:07:21.000Z</time>
      </trkpt>
      <trkpt lat="47.43816" lon="6.73951">
        <ele>413.6</ele>
        <time>2014-11-02T11:07:22.000Z</time>
      </trkpt>
      <trkpt lat="47.43817" lon="6.73956">
        <ele>413.4</ele>
        <time>2014-11-02T11:07:23.000Z</time>
      </trkpt>
      <trkpt lat="47.43818" lon="6.73963">
        <ele>414.1</ele>
        <time>2014-11-02T11:07:24.000Z</time>
      </trkpt>
      <trkpt lat="47.43821" lon="6.73967">
        <ele>414.1</ele>
        <time>2014-11-02T11:07:25.000Z</time>
      </trkpt>
      <trkpt lat="47.43823" lon="6.73973">
        <ele>414.5</ele>
        <time>2014-11-02T11:07:26.000Z</time>
      </trkpt>
      <trkpt lat="47.43825" lon="6.73976">
        <ele>415.4</ele>
        <time>2014-11-02T11:07:27.000Z</time>
      </trkpt>
      <trkpt lat="47.43827" lon="6.73983">
        <ele>416.5</ele>
        <time>2014-11-02T11:07:28.000Z</time>
      </trkpt>
      <trkpt lat="47.43828" lon="6.73989">
        <ele>418.1</ele>
        <time>2014-11-02T11:07:29.000Z</time>
      </trkpt>
      <trkpt lat="47.43828" lon="6.73994">
        <ele>419.3</ele>
        <time>2014-11-02T11:07:30.000Z</time>
      </trkpt>
      <trkpt lat="47.43828" lon="6.74">
        <ele>420.4</ele>
        <time>2014-11-02T11:07:31.000Z</time>
      </trkpt>
      <trkpt lat="47.43828" lon="6.74007">
        <ele>421.5</ele>
        <time>2014-11-02T11:07:32.000Z</time>
      </trkpt>
      <trkpt lat="47.4383" lon="6.74024">
        <ele>421.4</ele>
        <time>2014-11-02T11:07:33.000Z</time>
      </trkpt>
      <trkpt lat="47.43831" lon="6.74033">
        <ele>421.7</ele>
        <time>2014-11-02T11:07:34.000Z</time>
      </trkpt>
      <trkpt lat="47.43832" lon="6.74041">
        <ele>423</ele>
        <time>2014-11-02T11:07:35.000Z</time>
      </trkpt>
      <trkpt lat="47.43834" lon="6.7405">
        <ele>423</ele>
        <time>2014-11-02T11:07:36.000Z</time>
      </trkpt>
      <trkpt lat="47.43836" lon="6.74059">
        <ele>422.8</ele>
        <time>2014-11-02T11:07:37.000Z</time>
      </trkpt>
      <trkpt lat="47.43837" lon="6.74069">
        <ele>422.2</ele>
        <time>2014-11-02T11:07:38.000Z</time>
      </trkpt>
      <trkpt lat="47.4384" lon="6.74081">
        <ele>421.7</ele>
        <time>2014-11-02T11:07:39.000Z</time>
      </trkpt>
      <trkpt lat="47.4384" lon="6.74091">
        <ele>422.5</ele>
        <time>2014-11-02T11:07:40.000Z</time>
      </trkpt>
      <trkpt lat="47.4384" lon="6.74101">
        <ele>423.2</ele>
        <time>2014-11-02T11:07:41.000Z</time>
      </trkpt>
      <trkpt lat="47.4384" lon="6.74113">
        <ele>423.5</ele>
        <time>2014-11-02T11:07:42.000Z</time>
      </trkpt>
      <trkpt lat="47.43841" lon="6.74123">
        <ele>424.5</ele>
        <time>2014-11-02T11:07:43.000Z</time>
      </trkpt>
      <trkpt lat="47.43844" lon="6.74136">
        <ele>424.5</ele>
        <time>2014-11-02T11:07:44.000Z</time>
      </trkpt>
      <trkpt lat="47.43844" lon="6.74145">
        <ele>425</ele>
        <time>2014-11-02T11:07:45.000Z</time>
      </trkpt>
      <trkpt lat="47.43845" lon="6.74155">
        <ele>423.9</ele>
        <time>2014-11-02T11:07:46.000Z</time>
      </trkpt>
      <trkpt lat="47.43853" lon="6.74173">
        <ele>419.4</ele>
        <time>2014-11-02T11:07:47.000Z</time>
      </trkpt>
      <trkpt lat="47.43856" lon="6.74184">
        <ele>418</ele>
        <time>2014-11-02T11:07:48.000Z</time>
      </trkpt>
      <trkpt lat="47.43859" lon="6.7419">
        <ele>417.7</ele>
        <time>2014-11-02T11:07:49.000Z</time>
      </trkpt>
      <trkpt lat="47.43861" lon="6.74197">
        <ele>417.4</ele>
        <time>2014-11-02T11:07:50.000Z</time>
      </trkpt>
      <trkpt lat="47.43863" lon="6.74208">
        <ele>417.6</ele>
        <time>2014-11-02T11:07:51.000Z</time>
      </trkpt>
      <trkpt lat="47.43862" lon="6.74217">
        <ele>417</ele>
        <time>2014-11-02T11:07:52.000Z</time>
      </trkpt>
      <trkpt lat="47.43861" lon="6.74226">
        <ele>417.1</ele>
        <time>2014-11-02T11:07:53.000Z</time>
      </trkpt>
      <trkpt lat="47.43865" lon="6.74238">
        <ele>416.5</ele>
        <time>2014-11-02T11:07:54.000Z</time>
      </trkpt>
      <trkpt lat="47.43867" lon="6.74249">
        <ele>414</ele>
        <time>2014-11-02T11:07:55.000Z</time>
      </trkpt>
      <trkpt lat="47.43868" lon="6.74255">
        <ele>414.7</ele>
        <time>2014-11-02T11:07:56.000Z</time>
      </trkpt>
      <trkpt lat="47.4387" lon="6.74263">
        <ele>415.2</ele>
        <time>2014-11-02T11:07:57.000Z</time>
      </trkpt>
      <trkpt lat="47.43872" lon="6.74271">
        <ele>416</ele>
        <time>2014-11-02T11:07:58.000Z</time>
      </trkpt>
      <trkpt lat="47.43874" lon="6.7428">
        <ele>416.2</ele>
        <time>2014-11-02T11:07:59.000Z</time>
      </trkpt>
      <trkpt lat="47.43874" lon="6.74291">
        <ele>417.6</ele>
        <time>2014-11-02T11:08:00.000Z</time>
      </trkpt>
      <trkpt lat="47.43874" lon="6.74301">
        <ele>417.1</ele>
        <time>2014-11-02T11:08:01.000Z</time>
      </trkpt>
      <trkpt lat="47.43872" lon="6.7431">
        <ele>418.7</ele>
        <time>2014-11-02T11:08:02.000Z</time>
      </trkpt>
      <trkpt lat="47.43868" lon="6.74331">
        <ele>420.2</ele>
        <time>2014-11-02T11:08:05.000Z</time>
      </trkpt>
      <trkpt lat="47.43864" lon="6.74341">
        <ele>421.1</ele>
        <time>2014-11-02T11:08:06.000Z</time>
      </trkpt>
      <trkpt lat="47.43862" lon="6.7435">
        <ele>421.7</ele>
        <time>2014-11-02T11:08:07.000Z</time>
      </trkpt>
      <trkpt lat="47.43861" lon="6.7436">
        <ele>420.6</ele>
        <time>2014-11-02T11:08:08.000Z</time>
      </trkpt>
      <trkpt lat="47.43859" lon="6.7437">
        <ele>417.5</ele>
        <time>2014-11-02T11:08:09.000Z</time>
      </trkpt>
      <trkpt lat="47.43857" lon="6.74377">
        <ele>417.9</ele>
        <time>2014-11-02T11:08:10.000Z</time>
      </trkpt>
      <trkpt lat="47.43855" lon="6.74384">
        <ele>417.9</ele>
        <time>2014-11-02T11:08:11.000Z</time>
      </trkpt>
      <trkpt lat="47.43853" lon="6.74392">
        <ele>418</ele>
        <time>2014-11-02T11:08:12.000Z</time>
      </trkpt>
      <trkpt lat="47.43853" lon="6.74401">
        <ele>419.2</ele>
        <time>2014-11-02T11:08:13.000Z</time>
      </trkpt>
      <trkpt lat="47.43851" lon="6.7441">
        <ele>418.6</ele>
        <time>2014-11-02T11:08:14.000Z</time>
      </trkpt>
      <trkpt lat="47.4385" lon="6.74418">
        <ele>418.7</ele>
        <time>2014-11-02T11:08:15.000Z</time>
      </trkpt>
      <trkpt lat="47.43848" lon="6.74426">
        <ele>418.1</ele>
        <time>2014-11-02T11:08:16.000Z</time>
      </trkpt>
      <trkpt lat="47.43847" lon="6.74433">
        <ele>417.7</ele>
        <time>2014-11-02T11:08:17.000Z</time>
      </trkpt>
      <trkpt lat="47.43851" lon="6.74451">
        <ele>410.8</ele>
        <time>2014-11-02T11:08:18.000Z</time>
      </trkpt>
      <trkpt lat="47.43852" lon="6.74464">
        <ele>409.2</ele>
        <time>2014-11-02T11:08:19.000Z</time>
      </trkpt>
      <trkpt lat="47.4385" lon="6.74473">
        <ele>408.4</ele>
        <time>2014-11-02T11:08:20.000Z</time>
      </trkpt>
      <trkpt lat="47.43849" lon="6.74482">
        <ele>409.1</ele>
        <time>2014-11-02T11:08:21.000Z</time>
      </trkpt>
      <trkpt lat="47.43849" lon="6.74489">
        <ele>409.1</ele>
        <time>2014-11-02T11:08:22.000Z</time>
      </trkpt>
      <trkpt lat="47.43845" lon="6.74496">
        <ele>410.8</ele>
        <time>2014-11-02T11:08:23.000Z</time>
      </trkpt>
      <trkpt lat="47.43843" lon="6.74505">
        <ele>410.4</ele>
        <time>2014-11-02T11:08:24.000Z</time>
      </trkpt>
      <trkpt lat="47.43843" lon="6.74517">
        <ele>407.6</ele>
        <time>2014-11-02T11:08:25.000Z</time>
      </trkpt>
      <trkpt lat="47.43842" lon="6.74525">
        <ele>407</ele>
        <time>2014-11-02T11:08:26.000Z</time>
      </trkpt>
      <trkpt lat="47.4384" lon="6.74533">
        <ele>407.2</ele>
        <time>2014-11-02T11:08:27.000Z</time>
      </trkpt>
      <trkpt lat="47.43838" lon="6.74541">
        <ele>407.1</ele>
        <time>2014-11-02T11:08:28.000Z</time>
      </trkpt>
      <trkpt lat="47.43833" lon="6.74548">
        <ele>409.9</ele>
        <time>2014-11-02T11:08:29.000Z</time>
      </trkpt>
      <trkpt lat="47.43829" lon="6.74556">
        <ele>410.4</ele>
        <time>2014-11-02T11:08:30.000Z</time>
      </trkpt>
      <trkpt lat="47.43826" lon="6.74565">
        <ele>409.5</ele>
        <time>2014-11-02T11:08:31.000Z</time>
      </trkpt>
      <trkpt lat="47.43823" lon="6.74576">
        <ele>407.1</ele>
        <time>2014-11-02T11:08:32.000Z</time>
      </trkpt>
      <trkpt lat="47.4382" lon="6.74585">
        <ele>406.4</ele>
        <time>2014-11-02T11:08:33.000Z</time>
      </trkpt>
      <trkpt lat="47.43819" lon="6.74596">
        <ele>407.1</ele>
        <time>2014-11-02T11:08:34.000Z</time>
      </trkpt>
      <trkpt lat="47.43818" lon="6.74604">
        <ele>407.2</ele>
        <time>2014-11-02T11:08:35.000Z</time>
      </trkpt>
      <trkpt lat="47.43818" lon="6.74613">
        <ele>406</ele>
        <time>2014-11-02T11:08:36.000Z</time>
      </trkpt>
      <trkpt lat="47.43818" lon="6.74625">
        <ele>403</ele>
        <time>2014-11-02T11:08:37.000Z</time>
      </trkpt>
      <trkpt lat="47.43817" lon="6.74633">
        <ele>401.4</ele>
        <time>2014-11-02T11:08:38.000Z</time>
      </trkpt>
      <trkpt lat="47.43814" lon="6.74642">
        <ele>401.1</ele>
        <time>2014-11-02T11:08:39.000Z</time>
      </trkpt>
      <trkpt lat="47.43812" lon="6.74656">
        <ele>395.3</ele>
        <time>2014-11-02T11:08:40.000Z</time>
      </trkpt>
      <trkpt lat="47.43809" lon="6.74665">
        <ele>395.2</ele>
        <time>2014-11-02T11:08:41.000Z</time>
      </trkpt>
      <trkpt lat="47.43804" lon="6.74669">
        <ele>394.2</ele>
        <time>2014-11-02T11:08:42.000Z</time>
      </trkpt>
      <trkpt lat="47.43802" lon="6.74674">
        <ele>393.8</ele>
        <time>2014-11-02T11:08:43.000Z</time>
      </trkpt>
      <trkpt lat="47.43801" lon="6.74676">
        <ele>394.5</ele>
        <time>2014-11-02T11:08:44.000Z</time>
      </trkpt>
      <trkpt lat="47.43801" lon="6.74683">
        <ele>394.5</ele>
        <time>2014-11-02T11:08:46.000Z</time>
      </trkpt>
      <trkpt lat="47.438" lon="6.74685">
        <ele>396.6</ele>
        <time>2014-11-02T11:08:47.000Z</time>
      </trkpt>
      <trkpt lat="47.43801" lon="6.74689">
        <ele>395.1</ele>
        <time>2014-11-02T11:08:48.000Z</time>
      </trkpt>
      <trkpt lat="47.43802" lon="6.74691">
        <ele>393.8</ele>
        <time>2014-11-02T11:08:49.000Z</time>
      </trkpt>
      <trkpt lat="47.43804" lon="6.74696">
        <ele>388.9</ele>
        <time>2014-11-02T11:08:56.000Z</time>
      </trkpt>
      <trkpt lat="47.43804" lon="6.74697">
        <ele>388.3</ele>
        <time>2014-11-02T11:08:57.000Z</time>
      </trkpt>
      <trkpt lat="47.43807" lon="6.74701">
        <ele>383.2</ele>
        <time>2014-11-02T11:09:20.000Z</time>
      </trkpt>
      <trkpt lat="47.43807" lon="6.74703">
        <ele>382.7</ele>
        <time>2014-11-02T11:09:21.000Z</time>
      </trkpt>
      <trkpt lat="47.43809" lon="6.74707">
        <ele>382.2</ele>
        <time>2014-11-02T11:09:23.000Z</time>
      </trkpt>
      <trkpt lat="47.4381" lon="6.74711">
        <ele>381</ele>
        <time>2014-11-02T11:09:24.000Z</time>
      </trkpt>
      <trkpt lat="47.43811" lon="6.74716">
        <ele>379.8</ele>
        <time>2014-11-02T11:09:25.000Z</time>
      </trkpt>
      <trkpt lat="47.43814" lon="6.74721">
        <ele>379</ele>
        <time>2014-11-02T11:09:26.000Z</time>
      </trkpt>
      <trkpt lat="47.43817" lon="6.74725">
        <ele>378.4</ele>
        <time>2014-11-02T11:09:27.000Z</time>
      </trkpt>
      <trkpt lat="47.4382" lon="6.7473">
        <ele>377.5</ele>
        <time>2014-11-02T11:09:28.000Z</time>
      </trkpt>
      <trkpt lat="47.43823" lon="6.74733">
        <ele>376.9</ele>
        <time>2014-11-02T11:09:29.000Z</time>
      </trkpt>
      <trkpt lat="47.43827" lon="6.74737">
        <ele>376.2</ele>
        <time>2014-11-02T11:09:30.000Z</time>
      </trkpt>
      <trkpt lat="47.4383" lon="6.74742">
        <ele>376</ele>
        <time>2014-11-02T11:09:31.000Z</time>
      </trkpt>
      <trkpt lat="47.43833" lon="6.74746">
        <ele>375.8</ele>
        <time>2014-11-02T11:09:32.000Z</time>
      </trkpt>
      <trkpt lat="47.43836" lon="6.74751">
        <ele>375.6</ele>
        <time>2014-11-02T11:09:33.000Z</time>
      </trkpt>
      <trkpt lat="47.4384" lon="6.74755">
        <ele>375.4</ele>
        <time>2014-11-02T11:09:34.000Z</time>
      </trkpt>
      <trkpt lat="47.43843" lon="6.7476">
        <ele>374.8</ele>
        <time>2014-11-02T11:09:35.000Z</time>
      </trkpt>
      <trkpt lat="47.43846" lon="6.74765">
        <ele>374.5</ele>
        <time>2014-11-02T11:09:36.000Z</time>
      </trkpt>
      <trkpt lat="47.43851" lon="6.74771">
        <ele>374.3</ele>
        <time>2014-11-02T11:09:37.000Z</time>
      </trkpt>
      <trkpt lat="47.43855" lon="6.74776">
        <ele>374.2</ele>
        <time>2014-11-02T11:09:38.000Z</time>
      </trkpt>
      <trkpt lat="47.43859" lon="6.7478">
        <ele>374.3</ele>
        <time>2014-11-02T11:09:39.000Z</time>
      </trkpt>
      <trkpt lat="47.43863" lon="6.74785">
        <ele>373.6</ele>
        <time>2014-11-02T11:09:40.000Z</time>
      </trkpt>
      <trkpt lat="47.43867" lon="6.74788">
        <ele>374</ele>
        <time>2014-11-02T11:09:41.000Z</time>
      </trkpt>
      <trkpt lat="47.43871" lon="6.74791">
        <ele>374.2</ele>
        <time>2014-11-02T11:09:42.000Z</time>
      </trkpt>
      <trkpt lat="47.43876" lon="6.74795">
        <ele>374.1</ele>
        <time>2014-11-02T11:09:43.000Z</time>
      </trkpt>
      <trkpt lat="47.4388" lon="6.74798">
        <ele>374.3</ele>
        <time>2014-11-02T11:09:44.000Z</time>
      </trkpt>
      <trkpt lat="47.43886" lon="6.748">
        <ele>374</ele>
        <time>2014-11-02T11:09:45.000Z</time>
      </trkpt>
      <trkpt lat="47.43891" lon="6.74803">
        <ele>374</ele>
        <time>2014-11-02T11:09:46.000Z</time>
      </trkpt>
      <trkpt lat="47.43895" lon="6.74805">
        <ele>374.2</ele>
        <time>2014-11-02T11:09:47.000Z</time>
      </trkpt>
      <trkpt lat="47.439" lon="6.74806">
        <ele>373.8</ele>
        <time>2014-11-02T11:09:48.000Z</time>
      </trkpt>
      <trkpt lat="47.43906" lon="6.74808">
        <ele>373.8</ele>
        <time>2014-11-02T11:09:49.000Z</time>
      </trkpt>
      <trkpt lat="47.4391" lon="6.74809">
        <ele>373.7</ele>
        <time>2014-11-02T11:09:50.000Z</time>
      </trkpt>
      <trkpt lat="47.43915" lon="6.74811">
        <ele>373.2</ele>
        <time>2014-11-02T11:09:51.000Z</time>
      </trkpt>
      <trkpt lat="47.43919" lon="6.74813">
        <ele>373.2</ele>
        <time>2014-11-02T11:09:52.000Z</time>
      </trkpt>
      <trkpt lat="47.43924" lon="6.74815">
        <ele>373.2</ele>
        <time>2014-11-02T11:09:53.000Z</time>
      </trkpt>
      <trkpt lat="47.43928" lon="6.74817">
        <ele>373.4</ele>
        <time>2014-11-02T11:09:54.000Z</time>
      </trkpt>
      <trkpt lat="47.43934" lon="6.74818">
        <ele>372.5</ele>
        <time>2014-11-02T11:09:55.000Z</time>
      </trkpt>
      <trkpt lat="47.43938" lon="6.74821">
        <ele>372.3</ele>
        <time>2014-11-02T11:09:56.000Z</time>
      </trkpt>
      <trkpt lat="47.43942" lon="6.74825">
        <ele>372.7</ele>
        <time>2014-11-02T11:09:57.000Z</time>
      </trkpt>
      <trkpt lat="47.43947" lon="6.74828">
        <ele>373.2</ele>
        <time>2014-11-02T11:09:58.000Z</time>
      </trkpt>
      <trkpt lat="47.43951" lon="6.74831">
        <ele>373.9</ele>
        <time>2014-11-02T11:09:59.000Z</time>
      </trkpt>
      <trkpt lat="47.43955" lon="6.74834">
        <ele>373.7</ele>
        <time>2014-11-02T11:10:00.000Z</time>
      </trkpt>
      <trkpt lat="47.43959" lon="6.74838">
        <ele>373.9</ele>
        <time>2014-11-02T11:10:01.000Z</time>
      </trkpt>
      <trkpt lat="47.43963" lon="6.74842">
        <ele>373.8</ele>
        <time>2014-11-02T11:10:02.000Z</time>
      </trkpt>
      <trkpt lat="47.43968" lon="6.74845">
        <ele>373.9</ele>
        <time>2014-11-02T11:10:03.000Z</time>
      </trkpt>
      <trkpt lat="47.4398" lon="6.74858">
        <ele>372.5</ele>
        <time>2014-11-02T11:10:06.000Z</time>
      </trkpt>
      <trkpt lat="47.43985" lon="6.74864">
        <ele>372.9</ele>
        <time>2014-11-02T11:10:07.000Z</time>
      </trkpt>
      <trkpt lat="47.43989" lon="6.74869">
        <ele>372.8</ele>
        <time>2014-11-02T11:10:08.000Z</time>
      </trkpt>
      <trkpt lat="47.43994" lon="6.74875">
        <ele>372.7</ele>
        <time>2014-11-02T11:10:09.000Z</time>
      </trkpt>
      <trkpt lat="47.43998" lon="6.74881">
        <ele>372.2</ele>
        <time>2014-11-02T11:10:10.000Z</time>
      </trkpt>
      <trkpt lat="47.44002" lon="6.74886">
        <ele>372.2</ele>
        <time>2014-11-02T11:10:11.000Z</time>
      </trkpt>
      <trkpt lat="47.44007" lon="6.74892">
        <ele>371.9</ele>
        <time>2014-11-02T11:10:12.000Z</time>
      </trkpt>
      <trkpt lat="47.4401" lon="6.74901">
        <ele>372.1</ele>
        <time>2014-11-02T11:10:13.000Z</time>
      </trkpt>
      <trkpt lat="47.44013" lon="6.74909">
        <ele>372.1</ele>
        <time>2014-11-02T11:10:14.000Z</time>
      </trkpt>
      <trkpt lat="47.44017" lon="6.74916">
        <ele>371.9</ele>
        <time>2014-11-02T11:10:15.000Z</time>
      </trkpt>
      <trkpt lat="47.44021" lon="6.74922">
        <ele>372.3</ele>
        <time>2014-11-02T11:10:16.000Z</time>
      </trkpt>
      <trkpt lat="47.44025" lon="6.7493">
        <ele>371.8</ele>
        <time>2014-11-02T11:10:17.000Z</time>
      </trkpt>
      <trkpt lat="47.44029" lon="6.74937">
        <ele>372</ele>
        <time>2014-11-02T11:10:18.000Z</time>
      </trkpt>
      <trkpt lat="47.44032" lon="6.74945">
        <ele>372</ele>
        <time>2014-11-02T11:10:19.000Z</time>
      </trkpt>
      <trkpt lat="47.44037" lon="6.74951">
        <ele>371.6</ele>
        <time>2014-11-02T11:10:20.000Z</time>
      </trkpt>
      <trkpt lat="47.44041" lon="6.74957">
        <ele>371.5</ele>
        <time>2014-11-02T11:10:21.000Z</time>
      </trkpt>
      <trkpt lat="47.44045" lon="6.74964">
        <ele>371.5</ele>
        <time>2014-11-02T11:10:22.000Z</time>
      </trkpt>
      <trkpt lat="47.44049" lon="6.7497">
        <ele>370.9</ele>
        <time>2014-11-02T11:10:23.000Z</time>
      </trkpt>
      <trkpt lat="47.44053" lon="6.74977">
        <ele>370.6</ele>
        <time>2014-11-02T11:10:24.000Z</time>
      </trkpt>
      <trkpt lat="47.44057" lon="6.74983">
        <ele>370.8</ele>
        <time>2014-11-02T11:10:25.000Z</time>
      </trkpt>
      <trkpt lat="47.44061" lon="6.7499">
        <ele>370.4</ele>
        <time>2014-11-02T11:10:26.000Z</time>
      </trkpt>
      <trkpt lat="47.44065" lon="6.74997">
        <ele>370.1</ele>
        <time>2014-11-02T11:10:27.000Z</time>
      </trkpt>
      <trkpt lat="47.44069" lon="6.75004">
        <ele>369.8</ele>
        <time>2014-11-02T11:10:28.000Z</time>
      </trkpt>
      <trkpt lat="47.44073" lon="6.75011">
        <ele>369.3</ele>
        <time>2014-11-02T11:10:29.000Z</time>
      </trkpt>
      <trkpt lat="47.44077" lon="6.75019">
        <ele>368.4</ele>
        <time>2014-11-02T11:10:30.000Z</time>
      </trkpt>
      <trkpt lat="47.44081" lon="6.75028">
        <ele>368.1</ele>
        <time>2014-11-02T11:10:31.000Z</time>
      </trkpt>
      <trkpt lat="47.44085" lon="6.75037">
        <ele>367.9</ele>
        <time>2014-11-02T11:10:32.000Z</time>
      </trkpt>
      <trkpt lat="47.44089" lon="6.75046">
        <ele>367.8</ele>
        <time>2014-11-02T11:10:33.000Z</time>
      </trkpt>
      <trkpt lat="47.44093" lon="6.75054">
        <ele>367.6</ele>
        <time>2014-11-02T11:10:34.000Z</time>
      </trkpt>
      <trkpt lat="47.44097" lon="6.75063">
        <ele>367.6</ele>
        <time>2014-11-02T11:10:35.000Z</time>
      </trkpt>
      <trkpt lat="47.441" lon="6.75071">
        <ele>367.8</ele>
        <time>2014-11-02T11:10:36.000Z</time>
      </trkpt>
      <trkpt lat="47.44104" lon="6.75079">
        <ele>368</ele>
        <time>2014-11-02T11:10:37.000Z</time>
      </trkpt>
      <trkpt lat="47.44108" lon="6.75088">
        <ele>368</ele>
        <time>2014-11-02T11:10:38.000Z</time>
      </trkpt>
      <trkpt lat="47.44111" lon="6.75096">
        <ele>368.1</ele>
        <time>2014-11-02T11:10:39.000Z</time>
      </trkpt>
      <trkpt lat="47.44115" lon="6.75104">
        <ele>367.8</ele>
        <time>2014-11-02T11:10:40.000Z</time>
      </trkpt>
      <trkpt lat="47.44119" lon="6.75112">
        <ele>368.3</ele>
        <time>2014-11-02T11:10:41.000Z</time>
      </trkpt>
      <trkpt lat="47.44124" lon="6.75119">
        <ele>368.9</ele>
        <time>2014-11-02T11:10:42.000Z</time>
      </trkpt>
      <trkpt lat="47.44128" lon="6.75126">
        <ele>369.2</ele>
        <time>2014-11-02T11:10:43.000Z</time>
      </trkpt>
      <trkpt lat="47.44133" lon="6.75134">
        <ele>368.7</ele>
        <time>2014-11-02T11:10:44.000Z</time>
      </trkpt>
      <trkpt lat="47.44137" lon="6.7514">
        <ele>368.2</ele>
        <time>2014-11-02T11:10:45.000Z</time>
      </trkpt>
      <trkpt lat="47.4414" lon="6.75148">
        <ele>368.5</ele>
        <time>2014-11-02T11:10:46.000Z</time>
      </trkpt>
      <trkpt lat="47.44144" lon="6.75155">
        <ele>368.5</ele>
        <time>2014-11-02T11:10:47.000Z</time>
      </trkpt>
      <trkpt lat="47.44149" lon="6.75161">
        <ele>368.7</ele>
        <time>2014-11-02T11:10:48.000Z</time>
      </trkpt>
      <trkpt lat="47.44153" lon="6.75168">
        <ele>368.6</ele>
        <time>2014-11-02T11:10:49.000Z</time>
      </trkpt>
      <trkpt lat="47.44157" lon="6.75173">
        <ele>368.3</ele>
        <time>2014-11-02T11:10:50.000Z</time>
      </trkpt>
      <trkpt lat="47.44161" lon="6.75178">
        <ele>368.1</ele>
        <time>2014-11-02T11:10:51.000Z</time>
      </trkpt>
      <trkpt lat="47.44165" lon="6.75184">
        <ele>368</ele>
        <time>2014-11-02T11:10:52.000Z</time>
      </trkpt>
      <trkpt lat="47.44169" lon="6.75189">
        <ele>367.9</ele>
        <time>2014-11-02T11:10:53.000Z</time>
      </trkpt>
      <trkpt lat="47.44173" lon="6.75194">
        <ele>368.1</ele>
        <time>2014-11-02T11:10:54.000Z</time>
      </trkpt>
      <trkpt lat="47.44177" lon="6.752">
        <ele>367.9</ele>
        <time>2014-11-02T11:10:55.000Z</time>
      </trkpt>
      <trkpt lat="47.44182" lon="6.75205">
        <ele>367.7</ele>
        <time>2014-11-02T11:10:56.000Z</time>
      </trkpt>
      <trkpt lat="47.44187" lon="6.7521">
        <ele>367.7</ele>
        <time>2014-11-02T11:10:57.000Z</time>
      </trkpt>
      <trkpt lat="47.44192" lon="6.75216">
        <ele>367.5</ele>
        <time>2014-11-02T11:10:58.000Z</time>
      </trkpt>
      <trkpt lat="47.44197" lon="6.75221">
        <ele>366.9</ele>
        <time>2014-11-02T11:10:59.000Z</time>
      </trkpt>
      <trkpt lat="47.44202" lon="6.75228">
        <ele>366.7</ele>
        <time>2014-11-02T11:11:00.000Z</time>
      </trkpt>
      <trkpt lat="47.44207" lon="6.75234">
        <ele>366.3</ele>
        <time>2014-11-02T11:11:01.000Z</time>
      </trkpt>
      <trkpt lat="47.44213" lon="6.75239">
        <ele>366.1</ele>
        <time>2014-11-02T11:11:02.000Z</time>
      </trkpt>
      <trkpt lat="47.44252" lon="6.75275">
        <ele>364.9</ele>
        <time>2014-11-02T11:11:09.773Z</time>
      </trkpt>
      <trkpt lat="47.44259" lon="6.7528">
        <ele>364.9</ele>
        <time>2014-11-02T11:11:11.000Z</time>
      </trkpt>
      <trkpt lat="47.44264" lon="6.75282">
        <ele>363.3</ele>
        <time>2014-11-02T11:11:12.000Z</time>
      </trkpt>
      <trkpt lat="47.4427" lon="6.75287">
        <ele>363</ele>
        <time>2014-11-02T11:11:13.000Z</time>
      </trkpt>
      <trkpt lat="47.44277" lon="6.75292">
        <ele>362.7</ele>
        <time>2014-11-02T11:11:14.000Z</time>
      </trkpt>
      <trkpt lat="47.44283" lon="6.75297">
        <ele>362.4</ele>
        <time>2014-11-02T11:11:15.000Z</time>
      </trkpt>
      <trkpt lat="47.4429" lon="6.75302">
        <ele>361.3</ele>
        <time>2014-11-02T11:11:16.000Z</time>
      </trkpt>
      <trkpt lat="47.44298" lon="6.75308">
        <ele>361.3</ele>
        <time>2014-11-02T11:11:17.000Z</time>
      </trkpt>
      <trkpt lat="47.44306" lon="6.75311">
        <ele>360.8</ele>
        <time>2014-11-02T11:11:18.000Z</time>
      </trkpt>
      <trkpt lat="47.44314" lon="6.75314">
        <ele>360.9</ele>
        <time>2014-11-02T11:11:19.000Z</time>
      </trkpt>
      <trkpt lat="47.44323" lon="6.75317">
        <ele>360.9</ele>
        <time>2014-11-02T11:11:20.000Z</time>
      </trkpt>
      <trkpt lat="47.44331" lon="6.7532">
        <ele>360.7</ele>
        <time>2014-11-02T11:11:21.000Z</time>
      </trkpt>
      <trkpt lat="47.4434" lon="6.75323">
        <ele>360.4</ele>
        <time>2014-11-02T11:11:22.000Z</time>
      </trkpt>
      <trkpt lat="47.44348" lon="6.75326">
        <ele>359.9</ele>
        <time>2014-11-02T11:11:23.000Z</time>
      </trkpt>
      <trkpt lat="47.44355" lon="6.7533">
        <ele>359.7</ele>
        <time>2014-11-02T11:11:24.000Z</time>
      </trkpt>
      <trkpt lat="47.44362" lon="6.75332">
        <ele>359.5</ele>
        <time>2014-11-02T11:11:25.000Z</time>
      </trkpt>
      <trkpt lat="47.4437" lon="6.75337">
        <ele>359.6</ele>
        <time>2014-11-02T11:11:26.000Z</time>
      </trkpt>
      <trkpt lat="47.44377" lon="6.75342">
        <ele>358.3</ele>
        <time>2014-11-02T11:11:27.000Z</time>
      </trkpt>
      <trkpt lat="47.44384" lon="6.75346">
        <ele>357.7</ele>
        <time>2014-11-02T11:11:28.000Z</time>
      </trkpt>
      <trkpt lat="47.44391" lon="6.75352">
        <ele>358.6</ele>
        <time>2014-11-02T11:11:29.000Z</time>
      </trkpt>
      <trkpt lat="47.44397" lon="6.75358">
        <ele>359.5</ele>
        <time>2014-11-02T11:11:30.000Z</time>
      </trkpt>
      <trkpt lat="47.44403" lon="6.75364">
        <ele>359.9</ele>
        <time>2014-11-02T11:11:31.000Z</time>
      </trkpt>
      <trkpt lat="47.4441" lon="6.75371">
        <ele>360.2</ele>
        <time>2014-11-02T11:11:32.000Z</time>
      </trkpt>
      <trkpt lat="47.44417" lon="6.75377">
        <ele>359.7</ele>
        <time>2014-11-02T11:11:33.000Z</time>
      </trkpt>
      <trkpt lat="47.44423" lon="6.75384">
        <ele>359.4</ele>
        <time>2014-11-02T11:11:34.000Z</time>
      </trkpt>
      <trkpt lat="47.4443" lon="6.7539">
        <ele>359</ele>
        <time>2014-11-02T11:11:35.000Z</time>
      </trkpt>
      <trkpt lat="47.44437" lon="6.75397">
        <ele>358.7</ele>
        <time>2014-11-02T11:11:36.000Z</time>
      </trkpt>
      <trkpt lat="47.44444" lon="6.75403">
        <ele>358.8</ele>
        <time>2014-11-02T11:11:37.000Z</time>
      </trkpt>
      <trkpt lat="47.44451" lon="6.7541">
        <ele>358.8</ele>
        <time>2014-11-02T11:11:38.000Z</time>
      </trkpt>
      <trkpt lat="47.44459" lon="6.75415">
        <ele>358.8</ele>
        <time>2014-11-02T11:11:39.000Z</time>
      </trkpt>
      <trkpt lat="47.44465" lon="6.75422">
        <ele>359.7</ele>
        <time>2014-11-02T11:11:40.000Z</time>
      </trkpt>
      <trkpt lat="47.44472" lon="6.75428">
        <ele>359.3</ele>
        <time>2014-11-02T11:11:41.000Z</time>
      </trkpt>
      <trkpt lat="47.44478" lon="6.75432">
        <ele>359.7</ele>
        <time>2014-11-02T11:11:42.000Z</time>
      </trkpt>
      <trkpt lat="47.44484" lon="6.75437">
        <ele>359.4</ele>
        <time>2014-11-02T11:11:43.000Z</time>
      </trkpt>
      <trkpt lat="47.44491" lon="6.7544">
        <ele>359.6</ele>
        <time>2014-11-02T11:11:44.000Z</time>
      </trkpt>
      <trkpt lat="47.44497" lon="6.75445">
        <ele>361.3</ele>
        <time>2014-11-02T11:11:45.000Z</time>
      </trkpt>
      <trkpt lat="47.44504" lon="6.7545">
        <ele>361.6</ele>
        <time>2014-11-02T11:11:46.000Z</time>
      </trkpt>
      <trkpt lat="47.44511" lon="6.75454">
        <ele>360.8</ele>
        <time>2014-11-02T11:11:47.000Z</time>
      </trkpt>
      <trkpt lat="47.44518" lon="6.75456">
        <ele>360.6</ele>
        <time>2014-11-02T11:11:48.000Z</time>
      </trkpt>
      <trkpt lat="47.44525" lon="6.75459">
        <ele>360.3</ele>
        <time>2014-11-02T11:11:49.000Z</time>
      </trkpt>
      <trkpt lat="47.44533" lon="6.7546">
        <ele>360.1</ele>
        <time>2014-11-02T11:11:50.000Z</time>
      </trkpt>
      <trkpt lat="47.44541" lon="6.7546">
        <ele>360.2</ele>
        <time>2014-11-02T11:11:51.000Z</time>
      </trkpt>
      <trkpt lat="47.44548" lon="6.7546">
        <ele>360.4</ele>
        <time>2014-11-02T11:11:52.000Z</time>
      </trkpt>
      <trkpt lat="47.44556" lon="6.7546">
        <ele>359.9</ele>
        <time>2014-11-02T11:11:53.000Z</time>
      </trkpt>
      <trkpt lat="47.44563" lon="6.7546">
        <ele>360.1</ele>
        <time>2014-11-02T11:11:54.000Z</time>
      </trkpt>
      <trkpt lat="47.4457" lon="6.7546">
        <ele>359.9</ele>
        <time>2014-11-02T11:11:55.000Z</time>
      </trkpt>
      <trkpt lat="47.44577" lon="6.75459">
        <ele>359.7</ele>
        <time>2014-11-02T11:11:56.000Z</time>
      </trkpt>
      <trkpt lat="47.44585" lon="6.75459">
        <ele>360.2</ele>
        <time>2014-11-02T11:11:57.000Z</time>
      </trkpt>
      <trkpt lat="47.44592" lon="6.75459">
        <ele>360.8</ele>
        <time>2014-11-02T11:11:58.000Z</time>
      </trkpt>
      <trkpt lat="47.44599" lon="6.75459">
        <ele>360.7</ele>
        <time>2014-11-02T11:11:59.000Z</time>
      </trkpt>
      <trkpt lat="47.44606" lon="6.75458">
        <ele>361.6</ele>
        <time>2014-11-02T11:12:00.000Z</time>
      </trkpt>
      <trkpt lat="47.44612" lon="6.75458">
        <ele>361.4</ele>
        <time>2014-11-02T11:12:01.000Z</time>
      </trkpt>
      <trkpt lat="47.44617" lon="6.75458">
        <ele>361.8</ele>
        <time>2014-11-02T11:12:02.000Z</time>
      </trkpt>
      <trkpt lat="47.44668" lon="6.75462">
        <ele>362.4</ele>
        <time>2014-11-02T11:12:10.331Z</time>
      </trkpt>
      <trkpt lat="47.44679" lon="6.75463">
        <ele>362.4</ele>
        <time>2014-11-02T11:12:12.000Z</time>
      </trkpt>
      <trkpt lat="47.44698" lon="6.75463">
        <ele>362.2</ele>
        <time>2014-11-02T11:12:14.000Z</time>
      </trkpt>
      <trkpt lat="47.44706" lon="6.75463">
        <ele>362.2</ele>
        <time>2014-11-02T11:12:15.000Z</time>
      </trkpt>
      <trkpt lat="47.44717" lon="6.75461">
        <ele>360.8</ele>
        <time>2014-11-02T11:12:16.000Z</time>
      </trkpt>
      <trkpt lat="47.44723" lon="6.75461">
        <ele>359.6</ele>
        <time>2014-11-02T11:12:17.000Z</time>
      </trkpt>
      <trkpt lat="47.44732" lon="6.7546">
        <ele>359</ele>
        <time>2014-11-02T11:12:18.000Z</time>
      </trkpt>
      <trkpt lat="47.44739" lon="6.75462">
        <ele>358.6</ele>
        <time>2014-11-02T11:12:19.000Z</time>
      </trkpt>
      <trkpt lat="47.44747" lon="6.75463">
        <ele>358.7</ele>
        <time>2014-11-02T11:12:20.000Z</time>
      </trkpt>
      <trkpt lat="47.44755" lon="6.75462">
        <ele>359.1</ele>
        <time>2014-11-02T11:12:21.000Z</time>
      </trkpt>
      <trkpt lat="47.44764" lon="6.75461">
        <ele>359.3</ele>
        <time>2014-11-02T11:12:22.000Z</time>
      </trkpt>
      <trkpt lat="47.44772" lon="6.75458">
        <ele>359</ele>
        <time>2014-11-02T11:12:23.000Z</time>
      </trkpt>
      <trkpt lat="47.4478" lon="6.75456">
        <ele>359.6</ele>
        <time>2014-11-02T11:12:24.000Z</time>
      </trkpt>
      <trkpt lat="47.44788" lon="6.75456">
        <ele>360.1</ele>
        <time>2014-11-02T11:12:25.000Z</time>
      </trkpt>
      <trkpt lat="47.44796" lon="6.75453">
        <ele>359.6</ele>
        <time>2014-11-02T11:12:26.000Z</time>
      </trkpt>
      <trkpt lat="47.44804" lon="6.75452">
        <ele>359.3</ele>
        <time>2014-11-02T11:12:27.000Z</time>
      </trkpt>
      <trkpt lat="47.44811" lon="6.7545">
        <ele>358.8</ele>
        <time>2014-11-02T11:12:28.000Z</time>
      </trkpt>
      <trkpt lat="47.44819" lon="6.75448">
        <ele>358.7</ele>
        <time>2014-11-02T11:12:29.000Z</time>
      </trkpt>
      <trkpt lat="47.44826" lon="6.75448">
        <ele>359.2</ele>
        <time>2014-11-02T11:12:30.000Z</time>
      </trkpt>
      <trkpt lat="47.44834" lon="6.75446">
        <ele>358.9</ele>
        <time>2014-11-02T11:12:31.000Z</time>
      </trkpt>
      <trkpt lat="47.44842" lon="6.75446">
        <ele>359.4</ele>
        <time>2014-11-02T11:12:32.000Z</time>
      </trkpt>
      <trkpt lat="47.44849" lon="6.75446">
        <ele>360</ele>
        <time>2014-11-02T11:12:33.000Z</time>
      </trkpt>
      <trkpt lat="47.44857" lon="6.75445">
        <ele>360.1</ele>
        <time>2014-11-02T11:12:34.000Z</time>
      </trkpt>
      <trkpt lat="47.44865" lon="6.75444">
        <ele>360.4</ele>
        <time>2014-11-02T11:12:35.000Z</time>
      </trkpt>
      <trkpt lat="47.44872" lon="6.75442">
        <ele>361</ele>
        <time>2014-11-02T11:12:36.000Z</time>
      </trkpt>
      <trkpt lat="47.44879" lon="6.75441">
        <ele>360.6</ele>
        <time>2014-11-02T11:12:37.000Z</time>
      </trkpt>
      <trkpt lat="47.44886" lon="6.75439">
        <ele>360.4</ele>
        <time>2014-11-02T11:12:38.000Z</time>
      </trkpt>
      <trkpt lat="47.44894" lon="6.75439">
        <ele>360</ele>
        <time>2014-11-02T11:12:39.000Z</time>
      </trkpt>
      <trkpt lat="47.449" lon="6.75439">
        <ele>359.8</ele>
        <time>2014-11-02T11:12:40.000Z</time>
      </trkpt>
      <trkpt lat="47.44907" lon="6.75438">
        <ele>359</ele>
        <time>2014-11-02T11:12:41.000Z</time>
      </trkpt>
      <trkpt lat="47.44914" lon="6.75438">
        <ele>358.7</ele>
        <time>2014-11-02T11:12:42.000Z</time>
      </trkpt>
      <trkpt lat="47.44921" lon="6.75439">
        <ele>358.2</ele>
        <time>2014-11-02T11:12:43.000Z</time>
      </trkpt>
      <trkpt lat="47.44928" lon="6.75439">
        <ele>357.8</ele>
        <time>2014-11-02T11:12:44.000Z</time>
      </trkpt>
      <trkpt lat="47.44934" lon="6.7544">
        <ele>357.7</ele>
        <time>2014-11-02T11:12:45.000Z</time>
      </trkpt>
      <trkpt lat="47.44941" lon="6.75441">
        <ele>358.4</ele>
        <time>2014-11-02T11:12:46.000Z</time>
      </trkpt>
      <trkpt lat="47.44948" lon="6.75442">
        <ele>358</ele>
        <time>2014-11-02T11:12:47.000Z</time>
      </trkpt>
      <trkpt lat="47.44955" lon="6.75443">
        <ele>357.7</ele>
        <time>2014-11-02T11:12:48.000Z</time>
      </trkpt>
      <trkpt lat="47.44963" lon="6.75444">
        <ele>356.9</ele>
        <time>2014-11-02T11:12:49.000Z</time>
      </trkpt>
      <trkpt lat="47.4497" lon="6.75445">
        <ele>356.5</ele>
        <time>2014-11-02T11:12:50.000Z</time>
      </trkpt>
      <trkpt lat="47.44979" lon="6.75445">
        <ele>356.2</ele>
        <time>2014-11-02T11:12:51.000Z</time>
      </trkpt>
      <trkpt lat="47.44987" lon="6.75445">
        <ele>356</ele>
        <time>2014-11-02T11:12:52.000Z</time>
      </trkpt>
      <trkpt lat="47.44995" lon="6.75446">
        <ele>355.9</ele>
        <time>2014-11-02T11:12:53.000Z</time>
      </trkpt>
      <trkpt lat="47.45003" lon="6.75447">
        <ele>356.1</ele>
        <time>2014-11-02T11:12:54.000Z</time>
      </trkpt>
      <trkpt lat="47.45011" lon="6.75448">
        <ele>356.1</ele>
        <time>2014-11-02T11:12:55.000Z</time>
      </trkpt>
      <trkpt lat="47.45018" lon="6.75449">
        <ele>355.9</ele>
        <time>2014-11-02T11:12:56.000Z</time>
      </trkpt>
      <trkpt lat="47.45026" lon="6.75449">
        <ele>355.4</ele>
        <time>2014-11-02T11:12:57.000Z</time>
      </trkpt>
      <trkpt lat="47.45034" lon="6.75449">
        <ele>355.6</ele>
        <time>2014-11-02T11:12:58.000Z</time>
      </trkpt>
      <trkpt lat="47.45042" lon="6.75448">
        <ele>355.5</ele>
        <time>2014-11-02T11:12:59.000Z</time>
      </trkpt>
      <trkpt lat="47.4505" lon="6.75446">
        <ele>354.9</ele>
        <time>2014-11-02T11:13:00.000Z</time>
      </trkpt>
      <trkpt lat="47.45057" lon="6.75445">
        <ele>354.5</ele>
        <time>2014-11-02T11:13:01.000Z</time>
      </trkpt>
      <trkpt lat="47.45065" lon="6.75442">
        <ele>354.5</ele>
        <time>2014-11-02T11:13:02.000Z</time>
      </trkpt>
      <trkpt lat="47.45072" lon="6.75441">
        <ele>354.4</ele>
        <time>2014-11-02T11:13:02.999Z</time>
      </trkpt>
      <trkpt lat="47.45096" lon="6.75438">
        <ele>354.4</ele>
        <time>2014-11-02T11:13:06.000Z</time>
      </trkpt>
      <trkpt lat="47.45103" lon="6.75436">
        <ele>354.6</ele>
        <time>2014-11-02T11:13:07.000Z</time>
      </trkpt>
      <trkpt lat="47.4511" lon="6.75435">
        <ele>353.9</ele>
        <time>2014-11-02T11:13:08.000Z</time>
      </trkpt>
      <trkpt lat="47.45116" lon="6.75434">
        <ele>353.9</ele>
        <time>2014-11-02T11:13:09.000Z</time>
      </trkpt>
      <trkpt lat="47.45124" lon="6.75432">
        <ele>353.3</ele>
        <time>2014-11-02T11:13:10.000Z</time>
      </trkpt>
      <trkpt lat="47.4513" lon="6.75432">
        <ele>352.8</ele>
        <time>2014-11-02T11:13:11.000Z</time>
      </trkpt>
      <trkpt lat="47.45138" lon="6.7543">
        <ele>352.6</ele>
        <time>2014-11-02T11:13:12.000Z</time>
      </trkpt>
      <trkpt lat="47.45145" lon="6.75428">
        <ele>352.3</ele>
        <time>2014-11-02T11:13:13.000Z</time>
      </trkpt>
      <trkpt lat="47.45153" lon="6.75426">
        <ele>353.5</ele>
        <time>2014-11-02T11:13:14.000Z</time>
      </trkpt>
      <trkpt lat="47.45161" lon="6.75423">
        <ele>354.9</ele>
        <time>2014-11-02T11:13:14.999Z</time>
      </trkpt>
      <trkpt lat="47.45168" lon="6.7542">
        <ele>352.9</ele>
        <time>2014-11-02T11:13:16.000Z</time>
      </trkpt>
      <trkpt lat="47.45176" lon="6.75417">
        <ele>352.7</ele>
        <time>2014-11-02T11:13:17.000Z</time>
      </trkpt>
      <trkpt lat="47.45183" lon="6.75414">
        <ele>353.4</ele>
        <time>2014-11-02T11:13:18.000Z</time>
      </trkpt>
      <trkpt lat="47.4519" lon="6.75411">
        <ele>353.1</ele>
        <time>2014-11-02T11:13:19.000Z</time>
      </trkpt>
      <trkpt lat="47.45196" lon="6.75406">
        <ele>352.2</ele>
        <time>2014-11-02T11:13:20.000Z</time>
      </trkpt>
      <trkpt lat="47.45204" lon="6.75402">
        <ele>352.6</ele>
        <time>2014-11-02T11:13:21.000Z</time>
      </trkpt>
      <trkpt lat="47.45211" lon="6.75398">
        <ele>353.1</ele>
        <time>2014-11-02T11:13:22.000Z</time>
      </trkpt>
      <trkpt lat="47.45217" lon="6.75395">
        <ele>353.4</ele>
        <time>2014-11-02T11:13:23.000Z</time>
      </trkpt>
      <trkpt lat="47.45224" lon="6.75391">
        <ele>353.5</ele>
        <time>2014-11-02T11:13:24.000Z</time>
      </trkpt>
      <trkpt lat="47.4523" lon="6.75389">
        <ele>353.9</ele>
        <time>2014-11-02T11:13:25.000Z</time>
      </trkpt>
      <trkpt lat="47.45237" lon="6.75386">
        <ele>355.9</ele>
        <time>2014-11-02T11:13:26.000Z</time>
      </trkpt>
      <trkpt lat="47.45243" lon="6.75383">
        <ele>358.4</ele>
        <time>2014-11-02T11:13:27.000Z</time>
      </trkpt>
      <trkpt lat="47.4525" lon="6.75379">
        <ele>358.3</ele>
        <time>2014-11-02T11:13:28.000Z</time>
      </trkpt>
      <trkpt lat="47.45256" lon="6.75377">
        <ele>357.7</ele>
        <time>2014-11-02T11:13:29.000Z</time>
      </trkpt>
      <trkpt lat="47.45261" lon="6.75374">
        <ele>357.4</ele>
        <time>2014-11-02T11:13:30.000Z</time>
      </trkpt>
      <trkpt lat="47.45267" lon="6.75369">
        <ele>358.4</ele>
        <time>2014-11-02T11:13:31.000Z</time>
      </trkpt>
      <trkpt lat="47.45274" lon="6.75367">
        <ele>359.4</ele>
        <time>2014-11-02T11:13:32.000Z</time>
      </trkpt>
      <trkpt lat="47.4528" lon="6.75364">
        <ele>360.6</ele>
        <time>2014-11-02T11:13:32.999Z</time>
      </trkpt>
      <trkpt lat="47.45288" lon="6.75362">
        <ele>361.4</ele>
        <time>2014-11-02T11:13:34.000Z</time>
      </trkpt>
      <trkpt lat="47.45295" lon="6.75362">
        <ele>363.7</ele>
        <time>2014-11-02T11:13:35.000Z</time>
      </trkpt>
      <trkpt lat="47.45301" lon="6.75362">
        <ele>365.3</ele>
        <time>2014-11-02T11:13:36.000Z</time>
      </trkpt>
      <trkpt lat="47.45307" lon="6.75357">
        <ele>364.5</ele>
        <time>2014-11-02T11:13:37.000Z</time>
      </trkpt>
      <trkpt lat="47.45314" lon="6.75351">
        <ele>364</ele>
        <time>2014-11-02T11:13:38.000Z</time>
      </trkpt>
      <trkpt lat="47.45321" lon="6.75347">
        <ele>363.7</ele>
        <time>2014-11-02T11:13:39.001Z</time>
      </trkpt>
      <trkpt lat="47.45328" lon="6.75343">
        <ele>363.7</ele>
        <time>2014-11-02T11:13:40.001Z</time>
      </trkpt>
      <trkpt lat="47.4534" lon="6.75333">
        <ele>363.6</ele>
        <time>2014-11-02T11:13:42.000Z</time>
      </trkpt>
      <trkpt lat="47.45348" lon="6.75326">
        <ele>362.8</ele>
        <time>2014-11-02T11:13:43.000Z</time>
      </trkpt>
      <trkpt lat="47.45357" lon="6.7532">
        <ele>362</ele>
        <time>2014-11-02T11:13:44.000Z</time>
      </trkpt>
      <trkpt lat="47.45365" lon="6.75315">
        <ele>359</ele>
        <time>2014-11-02T11:13:45.000Z</time>
      </trkpt>
      <trkpt lat="47.45374" lon="6.75311">
        <ele>359.6</ele>
        <time>2014-11-02T11:13:46.000Z</time>
      </trkpt>
      <trkpt lat="47.45383" lon="6.75309">
        <ele>358.3</ele>
        <time>2014-11-02T11:13:47.000Z</time>
      </trkpt>
      <trkpt lat="47.4539" lon="6.75307">
        <ele>358.1</ele>
        <time>2014-11-02T11:13:48.000Z</time>
      </trkpt>
      <trkpt lat="47.45399" lon="6.75306">
        <ele>358</ele>
        <time>2014-11-02T11:13:49.000Z</time>
      </trkpt>
      <trkpt lat="47.45406" lon="6.75305">
        <ele>357.1</ele>
        <time>2014-11-02T11:13:50.000Z</time>
      </trkpt>
      <trkpt lat="47.45415" lon="6.75306">
        <ele>356.8</ele>
        <time>2014-11-02T11:13:51.000Z</time>
      </trkpt>
      <trkpt lat="47.45421" lon="6.75308">
        <ele>356.3</ele>
        <time>2014-11-02T11:13:52.000Z</time>
      </trkpt>
      <trkpt lat="47.45428" lon="6.7531">
        <ele>355.9</ele>
        <time>2014-11-02T11:13:53.000Z</time>
      </trkpt>
      <trkpt lat="47.45436" lon="6.75312">
        <ele>354.7</ele>
        <time>2014-11-02T11:13:54.000Z</time>
      </trkpt>
      <trkpt lat="47.45444" lon="6.75316">
        <ele>355.2</ele>
        <time>2014-11-02T11:13:55.000Z</time>
      </trkpt>
      <trkpt lat="47.45451" lon="6.75318">
        <ele>354.6</ele>
        <time>2014-11-02T11:13:56.000Z</time>
      </trkpt>
      <trkpt lat="47.45459" lon="6.75321">
        <ele>354</ele>
        <time>2014-11-02T11:13:57.000Z</time>
      </trkpt>
      <trkpt lat="47.45467" lon="6.75323">
        <ele>353.7</ele>
        <time>2014-11-02T11:13:58.001Z</time>
      </trkpt>
      <trkpt lat="47.45475" lon="6.75326">
        <ele>354.3</ele>
        <time>2014-11-02T11:13:59.000Z</time>
      </trkpt>
      <trkpt lat="47.45482" lon="6.75329">
        <ele>354.1</ele>
        <time>2014-11-02T11:14:00.000Z</time>
      </trkpt>
      <trkpt lat="47.4549" lon="6.75332">
        <ele>353.5</ele>
        <time>2014-11-02T11:14:01.000Z</time>
      </trkpt>
      <trkpt lat="47.45497" lon="6.75335">
        <ele>353.2</ele>
        <time>2014-11-02T11:14:02.000Z</time>
      </trkpt>
      <trkpt lat="47.4555" lon="6.7536">
        <ele>350.5</ele>
        <time>2014-11-02T11:14:09.783Z</time>
      </trkpt>
      <trkpt lat="47.45559" lon="6.75367">
        <ele>349.3</ele>
        <time>2014-11-02T11:14:11.000Z</time>
      </trkpt>
      <trkpt lat="47.45565" lon="6.7537">
        <ele>349.4</ele>
        <time>2014-11-02T11:14:12.000Z</time>
      </trkpt>
      <trkpt lat="47.45572" lon="6.75374">
        <ele>349.3</ele>
        <time>2014-11-02T11:14:13.000Z</time>
      </trkpt>
      <trkpt lat="47.4558" lon="6.75376">
        <ele>349.3</ele>
        <time>2014-11-02T11:14:14.000Z</time>
      </trkpt>
      <trkpt lat="47.45587" lon="6.75381">
        <ele>350.6</ele>
        <time>2014-11-02T11:14:15.000Z</time>
      </trkpt>
      <trkpt lat="47.45594" lon="6.75385">
        <ele>350.1</ele>
        <time>2014-11-02T11:14:16.000Z</time>
      </trkpt>
      <trkpt lat="47.45601" lon="6.75389">
        <ele>350.2</ele>
        <time>2014-11-02T11:14:17.000Z</time>
      </trkpt>
      <trkpt lat="47.4561" lon="6.75393">
        <ele>349.3</ele>
        <time>2014-11-02T11:14:18.000Z</time>
      </trkpt>
      <trkpt lat="47.45616" lon="6.75398">
        <ele>349.5</ele>
        <time>2014-11-02T11:14:19.000Z</time>
      </trkpt>
      <trkpt lat="47.45622" lon="6.75402">
        <ele>348.7</ele>
        <time>2014-11-02T11:14:20.000Z</time>
      </trkpt>
      <trkpt lat="47.45629" lon="6.75405">
        <ele>348.6</ele>
        <time>2014-11-02T11:14:21.000Z</time>
      </trkpt>
      <trkpt lat="47.45636" lon="6.75411">
        <ele>348.4</ele>
        <time>2014-11-02T11:14:22.000Z</time>
      </trkpt>
      <trkpt lat="47.45642" lon="6.75417">
        <ele>347.5</ele>
        <time>2014-11-02T11:14:23.000Z</time>
      </trkpt>
      <trkpt lat="47.45647" lon="6.75423">
        <ele>348.3</ele>
        <time>2014-11-02T11:14:24.000Z</time>
      </trkpt>
      <trkpt lat="47.45652" lon="6.75428">
        <ele>349.1</ele>
        <time>2014-11-02T11:14:25.000Z</time>
      </trkpt>
      <trkpt lat="47.45658" lon="6.75434">
        <ele>349.2</ele>
        <time>2014-11-02T11:14:26.000Z</time>
      </trkpt>
      <trkpt lat="47.45663" lon="6.7544">
        <ele>348.6</ele>
        <time>2014-11-02T11:14:27.000Z</time>
      </trkpt>
      <trkpt lat="47.45669" lon="6.75447">
        <ele>348.5</ele>
        <time>2014-11-02T11:14:27.999Z</time>
      </trkpt>
      <trkpt lat="47.45676" lon="6.75452">
        <ele>348.4</ele>
        <time>2014-11-02T11:14:29.000Z</time>
      </trkpt>
      <trkpt lat="47.45681" lon="6.75458">
        <ele>349.1</ele>
        <time>2014-11-02T11:14:30.000Z</time>
      </trkpt>
      <trkpt lat="47.45686" lon="6.75465">
        <ele>349.5</ele>
        <time>2014-11-02T11:14:31.000Z</time>
      </trkpt>
      <trkpt lat="47.45692" lon="6.75471">
        <ele>349.9</ele>
        <time>2014-11-02T11:14:32.000Z</time>
      </trkpt>
      <trkpt lat="47.45697" lon="6.75477">
        <ele>349.9</ele>
        <time>2014-11-02T11:14:33.000Z</time>
      </trkpt>
      <trkpt lat="47.45702" lon="6.75483">
        <ele>349.7</ele>
        <time>2014-11-02T11:14:34.000Z</time>
      </trkpt>
      <trkpt lat="47.45707" lon="6.75491">
        <ele>349.2</ele>
        <time>2014-11-02T11:14:35.000Z</time>
      </trkpt>
      <trkpt lat="47.45712" lon="6.75497">
        <ele>348.4</ele>
        <time>2014-11-02T11:14:36.000Z</time>
      </trkpt>
      <trkpt lat="47.45717" lon="6.75505">
        <ele>348</ele>
        <time>2014-11-02T11:14:37.000Z</time>
      </trkpt>
      <trkpt lat="47.45722" lon="6.75512">
        <ele>347.5</ele>
        <time>2014-11-02T11:14:38.000Z</time>
      </trkpt>
      <trkpt lat="47.45727" lon="6.7552">
        <ele>347.1</ele>
        <time>2014-11-02T11:14:39.000Z</time>
      </trkpt>
      <trkpt lat="47.45732" lon="6.75528">
        <ele>346.8</ele>
        <time>2014-11-02T11:14:40.000Z</time>
      </trkpt>
      <trkpt lat="47.45736" lon="6.75536">
        <ele>346.6</ele>
        <time>2014-11-02T11:14:41.000Z</time>
      </trkpt>
      <trkpt lat="47.45741" lon="6.75543">
        <ele>346.3</ele>
        <time>2014-11-02T11:14:42.000Z</time>
      </trkpt>
      <trkpt lat="47.45745" lon="6.75551">
        <ele>346</ele>
        <time>2014-11-02T11:14:43.000Z</time>
      </trkpt>
      <trkpt lat="47.45749" lon="6.75559">
        <ele>345.8</ele>
        <time>2014-11-02T11:14:44.000Z</time>
      </trkpt>
      <trkpt lat="47.45753" lon="6.75566">
        <ele>345.4</ele>
        <time>2014-11-02T11:14:45.000Z</time>
      </trkpt>
      <trkpt lat="47.45758" lon="6.75575">
        <ele>345.1</ele>
        <time>2014-11-02T11:14:46.000Z</time>
      </trkpt>
      <trkpt lat="47.45762" lon="6.75583">
        <ele>344.8</ele>
        <time>2014-11-02T11:14:47.000Z</time>
      </trkpt>
      <trkpt lat="47.45767" lon="6.75591">
        <ele>344.4</ele>
        <time>2014-11-02T11:14:48.000Z</time>
      </trkpt>
      <trkpt lat="47.45771" lon="6.75598">
        <ele>344.1</ele>
        <time>2014-11-02T11:14:49.000Z</time>
      </trkpt>
      <trkpt lat="47.45776" lon="6.75606">
        <ele>343.9</ele>
        <time>2014-11-02T11:14:50.000Z</time>
      </trkpt>
      <trkpt lat="47.45781" lon="6.75612">
        <ele>343.6</ele>
        <time>2014-11-02T11:14:51.000Z</time>
      </trkpt>
      <trkpt lat="47.45786" lon="6.75619">
        <ele>343.7</ele>
        <time>2014-11-02T11:14:52.000Z</time>
      </trkpt>
      <trkpt lat="47.45791" lon="6.75624">
        <ele>343.7</ele>
        <time>2014-11-02T11:14:53.000Z</time>
      </trkpt>
      <trkpt lat="47.45796" lon="6.7563">
        <ele>343.9</ele>
        <time>2014-11-02T11:14:54.000Z</time>
      </trkpt>
      <trkpt lat="47.45801" lon="6.75635">
        <ele>344.2</ele>
        <time>2014-11-02T11:14:55.000Z</time>
      </trkpt>
      <trkpt lat="47.45806" lon="6.75639">
        <ele>344.8</ele>
        <time>2014-11-02T11:14:56.000Z</time>
      </trkpt>
      <trkpt lat="47.4581" lon="6.75644">
        <ele>345.2</ele>
        <time>2014-11-02T11:14:57.000Z</time>
      </trkpt>
      <trkpt lat="47.45814" lon="6.75648">
        <ele>345.3</ele>
        <time>2014-11-02T11:14:58.000Z</time>
      </trkpt>
      <trkpt lat="47.45819" lon="6.75651">
        <ele>345.1</ele>
        <time>2014-11-02T11:14:59.000Z</time>
      </trkpt>
      <trkpt lat="47.45822" lon="6.75654">
        <ele>345.4</ele>
        <time>2014-11-02T11:15:00.000Z</time>
      </trkpt>
      <trkpt lat="47.45825" lon="6.75658">
        <ele>345.8</ele>
        <time>2014-11-02T11:15:01.000Z</time>
      </trkpt>
      <trkpt lat="47.45827" lon="6.75661">
        <ele>345.7</ele>
        <time>2014-11-02T11:15:02.000Z</time>
      </trkpt>
      <trkpt lat="47.45831" lon="6.75663">
        <ele>345.6</ele>
        <time>2014-11-02T11:15:03.000Z</time>
      </trkpt>
      <trkpt lat="47.45856" lon="6.75689">
        <ele>345</ele>
        <time>2014-11-02T11:15:11.000Z</time>
      </trkpt>
      <trkpt lat="47.4586" lon="6.75693">
        <ele>345</ele>
        <time>2014-11-02T11:15:12.000Z</time>
      </trkpt>
      <trkpt lat="47.45865" lon="6.75696">
        <ele>344.3</ele>
        <time>2014-11-02T11:15:13.000Z</time>
      </trkpt>
      <trkpt lat="47.4587" lon="6.757">
        <ele>343.9</ele>
        <time>2014-11-02T11:15:14.000Z</time>
      </trkpt>
      <trkpt lat="47.45874" lon="6.75703">
        <ele>344.1</ele>
        <time>2014-11-02T11:15:15.000Z</time>
      </trkpt>
      <trkpt lat="47.45879" lon="6.75707">
        <ele>344.1</ele>
        <time>2014-11-02T11:15:16.000Z</time>
      </trkpt>
      <trkpt lat="47.45883" lon="6.7571">
        <ele>344.3</ele>
        <time>2014-11-02T11:15:17.000Z</time>
      </trkpt>
      <trkpt lat="47.45888" lon="6.75712">
        <ele>343.5</ele>
        <time>2014-11-02T11:15:18.000Z</time>
      </trkpt>
      <trkpt lat="47.45892" lon="6.75716">
        <ele>343.9</ele>
        <time>2014-11-02T11:15:19.000Z</time>
      </trkpt>
      <trkpt lat="47.45896" lon="6.7572">
        <ele>344.4</ele>
        <time>2014-11-02T11:15:20.000Z</time>
      </trkpt>
      <trkpt lat="47.459" lon="6.75723">
        <ele>344</ele>
        <time>2014-11-02T11:15:21.000Z</time>
      </trkpt>
      <trkpt lat="47.45905" lon="6.75726">
        <ele>343.3</ele>
        <time>2014-11-02T11:15:22.000Z</time>
      </trkpt>
      <trkpt lat="47.45909" lon="6.7573">
        <ele>343.3</ele>
        <time>2014-11-02T11:15:23.000Z</time>
      </trkpt>
      <trkpt lat="47.45913" lon="6.75733">
        <ele>343</ele>
        <time>2014-11-02T11:15:24.000Z</time>
      </trkpt>
      <trkpt lat="47.45918" lon="6.75737">
        <ele>343.2</ele>
        <time>2014-11-02T11:15:25.000Z</time>
      </trkpt>
      <trkpt lat="47.45923" lon="6.75741">
        <ele>343.3</ele>
        <time>2014-11-02T11:15:26.000Z</time>
      </trkpt>
      <trkpt lat="47.45928" lon="6.75744">
        <ele>343.9</ele>
        <time>2014-11-02T11:15:27.000Z</time>
      </trkpt>
      <trkpt lat="47.45931" lon="6.75748">
        <ele>343.6</ele>
        <time>2014-11-02T11:15:28.000Z</time>
      </trkpt>
      <trkpt lat="47.45935" lon="6.75752">
        <ele>343.3</ele>
        <time>2014-11-02T11:15:29.000Z</time>
      </trkpt>
      <trkpt lat="47.45939" lon="6.75756">
        <ele>342.5</ele>
        <time>2014-11-02T11:15:30.000Z</time>
      </trkpt>
      <trkpt lat="47.45943" lon="6.7576">
        <ele>342.3</ele>
        <time>2014-11-02T11:15:31.000Z</time>
      </trkpt>
      <trkpt lat="47.45947" lon="6.75763">
        <ele>342.4</ele>
        <time>2014-11-02T11:15:32.000Z</time>
      </trkpt>
      <trkpt lat="47.45951" lon="6.75766">
        <ele>342.4</ele>
        <time>2014-11-02T11:15:33.000Z</time>
      </trkpt>
      <trkpt lat="47.45954" lon="6.75771">
        <ele>342.3</ele>
        <time>2014-11-02T11:15:34.000Z</time>
      </trkpt>
      <trkpt lat="47.45957" lon="6.75775">
        <ele>342</ele>
        <time>2014-11-02T11:15:35.000Z</time>
      </trkpt>
      <trkpt lat="47.4596" lon="6.75778">
        <ele>342</ele>
        <time>2014-11-02T11:15:36.000Z</time>
      </trkpt>
      <trkpt lat="47.45964" lon="6.75782">
        <ele>341.6</ele>
        <time>2014-11-02T11:15:37.000Z</time>
      </trkpt>
      <trkpt lat="47.45967" lon="6.75785">
        <ele>341.9</ele>
        <time>2014-11-02T11:15:38.000Z</time>
      </trkpt>
      <trkpt lat="47.4597" lon="6.75789">
        <ele>342</ele>
        <time>2014-11-02T11:15:39.000Z</time>
      </trkpt>
      <trkpt lat="47.45973" lon="6.75792">
        <ele>342</ele>
        <time>2014-11-02T11:15:40.000Z</time>
      </trkpt>
      <trkpt lat="47.45977" lon="6.75795">
        <ele>342.2</ele>
        <time>2014-11-02T11:15:41.000Z</time>
      </trkpt>
      <trkpt lat="47.4598" lon="6.75799">
        <ele>342.2</ele>
        <time>2014-11-02T11:15:42.000Z</time>
      </trkpt>
      <trkpt lat="47.45984" lon="6.75802">
        <ele>342.4</ele>
        <time>2014-11-02T11:15:43.000Z</time>
      </trkpt>
      <trkpt lat="47.45987" lon="6.75805">
        <ele>342.5</ele>
        <time>2014-11-02T11:15:44.000Z</time>
      </trkpt>
      <trkpt lat="47.45991" lon="6.75807">
        <ele>342.4</ele>
        <time>2014-11-02T11:15:45.000Z</time>
      </trkpt>
      <trkpt lat="47.45996" lon="6.75809">
        <ele>342.4</ele>
        <time>2014-11-02T11:15:46.000Z</time>
      </trkpt>
      <trkpt lat="47.46" lon="6.75812">
        <ele>342.9</ele>
        <time>2014-11-02T11:15:47.000Z</time>
      </trkpt>
      <trkpt lat="47.46004" lon="6.75816">
        <ele>342.8</ele>
        <time>2014-11-02T11:15:48.000Z</time>
      </trkpt>
      <trkpt lat="47.46008" lon="6.7582">
        <ele>342.5</ele>
        <time>2014-11-02T11:15:49.000Z</time>
      </trkpt>
      <trkpt lat="47.46012" lon="6.75824">
        <ele>342.1</ele>
        <time>2014-11-02T11:15:50.000Z</time>
      </trkpt>
      <trkpt lat="47.46016" lon="6.75828">
        <ele>342.2</ele>
        <time>2014-11-02T11:15:51.000Z</time>
      </trkpt>
      <trkpt lat="47.4602" lon="6.75832">
        <ele>342.7</ele>
        <time>2014-11-02T11:15:52.000Z</time>
      </trkpt>
      <trkpt lat="47.46023" lon="6.75837">
        <ele>344.1</ele>
        <time>2014-11-02T11:15:53.000Z</time>
      </trkpt>
      <trkpt lat="47.46027" lon="6.75843">
        <ele>343.9</ele>
        <time>2014-11-02T11:15:54.000Z</time>
      </trkpt>
      <trkpt lat="47.4603" lon="6.75849">
        <ele>343.7</ele>
        <time>2014-11-02T11:15:55.000Z</time>
      </trkpt>
      <trkpt lat="47.46033" lon="6.75855">
        <ele>343.4</ele>
        <time>2014-11-02T11:15:56.000Z</time>
      </trkpt>
      <trkpt lat="47.46037" lon="6.75862">
        <ele>342.9</ele>
        <time>2014-11-02T11:15:57.000Z</time>
      </trkpt>
      <trkpt lat="47.46041" lon="6.75869">
        <ele>342.4</ele>
        <time>2014-11-02T11:15:58.000Z</time>
      </trkpt>
      <trkpt lat="47.46045" lon="6.75876">
        <ele>342</ele>
        <time>2014-11-02T11:15:59.000Z</time>
      </trkpt>
      <trkpt lat="47.4605" lon="6.75884">
        <ele>341.6</ele>
        <time>2014-11-02T11:16:00.000Z</time>
      </trkpt>
      <trkpt lat="47.46054" lon="6.75893">
        <ele>341.3</ele>
        <time>2014-11-02T11:16:01.000Z</time>
      </trkpt>
      <trkpt lat="47.46058" lon="6.75903">
        <ele>340.6</ele>
        <time>2014-11-02T11:16:02.000Z</time>
      </trkpt>
      <trkpt lat="47.46093" lon="6.75966">
        <ele>335.9</ele>
        <time>2014-11-02T11:16:09.785Z</time>
      </trkpt>
      <trkpt lat="47.46095" lon="6.75974">
        <ele>335</ele>
        <time>2014-11-02T11:16:11.000Z</time>
      </trkpt>
      <trkpt lat="47.46098" lon="6.75986">
        <ele>335.3</ele>
        <time>2014-11-02T11:16:12.000Z</time>
      </trkpt>
      <trkpt lat="47.461" lon="6.75996">
        <ele>336.7</ele>
        <time>2014-11-02T11:16:13.000Z</time>
      </trkpt>
      <trkpt lat="47.46103" lon="6.76006">
        <ele>336.7</ele>
        <time>2014-11-02T11:16:14.000Z</time>
      </trkpt>
      <trkpt lat="47.46107" lon="6.76014">
        <ele>336.2</ele>
        <time>2014-11-02T11:16:15.000Z</time>
      </trkpt>
      <trkpt lat="47.4611" lon="6.76022">
        <ele>336.4</ele>
        <time>2014-11-02T11:16:16.000Z</time>
      </trkpt>
      <trkpt lat="47.46114" lon="6.76029">
        <ele>336.3</ele>
        <time>2014-11-02T11:16:17.000Z</time>
      </trkpt>
      <trkpt lat="47.46117" lon="6.76038">
        <ele>336.3</ele>
        <time>2014-11-02T11:16:18.000Z</time>
      </trkpt>
      <trkpt lat="47.4612" lon="6.76048">
        <ele>337.1</ele>
        <time>2014-11-02T11:16:19.000Z</time>
      </trkpt>
      <trkpt lat="47.46125" lon="6.76058">
        <ele>336.7</ele>
        <time>2014-11-02T11:16:20.000Z</time>
      </trkpt>
      <trkpt lat="47.46129" lon="6.76066">
        <ele>336.4</ele>
        <time>2014-11-02T11:16:21.000Z</time>
      </trkpt>
      <trkpt lat="47.46133" lon="6.76075">
        <ele>336.1</ele>
        <time>2014-11-02T11:16:22.000Z</time>
      </trkpt>
      <trkpt lat="47.46138" lon="6.76084">
        <ele>335.7</ele>
        <time>2014-11-02T11:16:23.000Z</time>
      </trkpt>
      <trkpt lat="47.46143" lon="6.76093">
        <ele>335.5</ele>
        <time>2014-11-02T11:16:24.000Z</time>
      </trkpt>
      <trkpt lat="47.46149" lon="6.76101">
        <ele>334.8</ele>
        <time>2014-11-02T11:16:25.000Z</time>
      </trkpt>
      <trkpt lat="47.46154" lon="6.7611">
        <ele>334.4</ele>
        <time>2014-11-02T11:16:25.999Z</time>
      </trkpt>
      <trkpt lat="47.46159" lon="6.76117">
        <ele>334.1</ele>
        <time>2014-11-02T11:16:27.000Z</time>
      </trkpt>
      <trkpt lat="47.46164" lon="6.76125">
        <ele>334</ele>
        <time>2014-11-02T11:16:28.000Z</time>
      </trkpt>
      <trkpt lat="47.4617" lon="6.76132">
        <ele>333.3</ele>
        <time>2014-11-02T11:16:29.000Z</time>
      </trkpt>
      <trkpt lat="47.46175" lon="6.7614">
        <ele>333.5</ele>
        <time>2014-11-02T11:16:30.000Z</time>
      </trkpt>
      <trkpt lat="47.46181" lon="6.76147">
        <ele>333.5</ele>
        <time>2014-11-02T11:16:31.000Z</time>
      </trkpt>
      <trkpt lat="47.46186" lon="6.76155">
        <ele>333.4</ele>
        <time>2014-11-02T11:16:32.000Z</time>
      </trkpt>
      <trkpt lat="47.46192" lon="6.76162">
        <ele>333.2</ele>
        <time>2014-11-02T11:16:33.000Z</time>
      </trkpt>
      <trkpt lat="47.46198" lon="6.76169">
        <ele>333</ele>
        <time>2014-11-02T11:16:34.000Z</time>
      </trkpt>
      <trkpt lat="47.46204" lon="6.76175">
        <ele>332.5</ele>
        <time>2014-11-02T11:16:35.000Z</time>
      </trkpt>
      <trkpt lat="47.46209" lon="6.76182">
        <ele>332.2</ele>
        <time>2014-11-02T11:16:36.000Z</time>
      </trkpt>
      <trkpt lat="47.46215" lon="6.76188">
        <ele>332.3</ele>
        <time>2014-11-02T11:16:37.000Z</time>
      </trkpt>
      <trkpt lat="47.4622" lon="6.76194">
        <ele>332.4</ele>
        <time>2014-11-02T11:16:38.000Z</time>
      </trkpt>
      <trkpt lat="47.46225" lon="6.76199">
        <ele>332.4</ele>
        <time>2014-11-02T11:16:39.000Z</time>
      </trkpt>
      <trkpt lat="47.4623" lon="6.76205">
        <ele>332</ele>
        <time>2014-11-02T11:16:40.000Z</time>
      </trkpt>
      <trkpt lat="47.46235" lon="6.7621">
        <ele>331.8</ele>
        <time>2014-11-02T11:16:41.000Z</time>
      </trkpt>
      <trkpt lat="47.4624" lon="6.76215">
        <ele>331.5</ele>
        <time>2014-11-02T11:16:42.000Z</time>
      </trkpt>
      <trkpt lat="47.46244" lon="6.7622">
        <ele>331.4</ele>
        <time>2014-11-02T11:16:43.000Z</time>
      </trkpt>
      <trkpt lat="47.46248" lon="6.76225">
        <ele>330.9</ele>
        <time>2014-11-02T11:16:44.000Z</time>
      </trkpt>
      <trkpt lat="47.46253" lon="6.7623">
        <ele>330.9</ele>
        <time>2014-11-02T11:16:45.000Z</time>
      </trkpt>
      <trkpt lat="47.46257" lon="6.76234">
        <ele>330.4</ele>
        <time>2014-11-02T11:16:46.000Z</time>
      </trkpt>
      <trkpt lat="47.46261" lon="6.76238">
        <ele>330.3</ele>
        <time>2014-11-02T11:16:47.000Z</time>
      </trkpt>
      <trkpt lat="47.46265" lon="6.7624">
        <ele>330.1</ele>
        <time>2014-11-02T11:16:48.000Z</time>
      </trkpt>
      <trkpt lat="47.46269" lon="6.76243">
        <ele>330.5</ele>
        <time>2014-11-02T11:16:49.000Z</time>
      </trkpt>
      <trkpt lat="47.46273" lon="6.76241">
        <ele>330.6</ele>
        <time>2014-11-02T11:16:50.000Z</time>
      </trkpt>
      <trkpt lat="47.46275" lon="6.76242">
        <ele>331.6</ele>
        <time>2014-11-02T11:16:51.000Z</time>
      </trkpt>
      <trkpt lat="47.46278" lon="6.76244">
        <ele>332.6</ele>
        <time>2014-11-02T11:16:52.000Z</time>
      </trkpt>
      <trkpt lat="47.46281" lon="6.76246">
        <ele>332.3</ele>
        <time>2014-11-02T11:16:53.000Z</time>
      </trkpt>
      <trkpt lat="47.46285" lon="6.76248">
        <ele>332.8</ele>
        <time>2014-11-02T11:16:54.000Z</time>
      </trkpt>
      <trkpt lat="47.46288" lon="6.7625">
        <ele>332.7</ele>
        <time>2014-11-02T11:16:55.000Z</time>
      </trkpt>
      <trkpt lat="47.46292" lon="6.7625">
        <ele>333.1</ele>
        <time>2014-11-02T11:16:56.000Z</time>
      </trkpt>
      <trkpt lat="47.46296" lon="6.76252">
        <ele>333.9</ele>
        <time>2014-11-02T11:16:57.000Z</time>
      </trkpt>
      <trkpt lat="47.46299" lon="6.76254">
        <ele>334.5</ele>
        <time>2014-11-02T11:16:58.000Z</time>
      </trkpt>
      <trkpt lat="47.46303" lon="6.76256">
        <ele>334.5</ele>
        <time>2014-11-02T11:16:59.000Z</time>
      </trkpt>
      <trkpt lat="47.46307" lon="6.76257">
        <ele>334.8</ele>
        <time>2014-11-02T11:17:00.001Z</time>
      </trkpt>
      <trkpt lat="47.46311" lon="6.76258">
        <ele>334.7</ele>
        <time>2014-11-02T11:17:01.000Z</time>
      </trkpt>
      <trkpt lat="47.46315" lon="6.76259">
        <ele>334.4</ele>
        <time>2014-11-02T11:17:02.000Z</time>
      </trkpt>
      <trkpt lat="47.46318" lon="6.76261">
        <ele>335.4</ele>
        <time>2014-11-02T11:17:03.000Z</time>
      </trkpt>
      <trkpt lat="47.4633" lon="6.76266">
        <ele>333.3</ele>
        <time>2014-11-02T11:17:06.000Z</time>
      </trkpt>
      <trkpt lat="47.46334" lon="6.76268">
        <ele>333.3</ele>
        <time>2014-11-02T11:17:07.000Z</time>
      </trkpt>
      <trkpt lat="47.4634" lon="6.76273">
        <ele>332.7</ele>
        <time>2014-11-02T11:17:08.000Z</time>
      </trkpt>
      <trkpt lat="47.46346" lon="6.76278">
        <ele>331.9</ele>
        <time>2014-11-02T11:17:09.000Z</time>
      </trkpt>
      <trkpt lat="47.46352" lon="6.76279">
        <ele>330.9</ele>
        <time>2014-11-02T11:17:09.999Z</time>
      </trkpt>
      <trkpt lat="47.46357" lon="6.76278">
        <ele>332.2</ele>
        <time>2014-11-02T11:17:11.000Z</time>
      </trkpt>
      <trkpt lat="47.46362" lon="6.76279">
        <ele>332.4</ele>
        <time>2014-11-02T11:17:12.000Z</time>
      </trkpt>
      <trkpt lat="47.46367" lon="6.7628">
        <ele>332.1</ele>
        <time>2014-11-02T11:17:13.000Z</time>
      </trkpt>
      <trkpt lat="47.46372" lon="6.7628">
        <ele>332.3</ele>
        <time>2014-11-02T11:17:14.000Z</time>
      </trkpt>
      <trkpt lat="47.46375" lon="6.76283">
        <ele>336.3</ele>
        <time>2014-11-02T11:17:15.000Z</time>
      </trkpt>
      <trkpt lat="47.46377" lon="6.76283">
        <ele>336.2</ele>
        <time>2014-11-02T11:17:16.000Z</time>
      </trkpt>
      <trkpt lat="47.4638" lon="6.76283">
        <ele>334.7</ele>
        <time>2014-11-02T11:17:17.000Z</time>
      </trkpt>
      <trkpt lat="47.46384" lon="6.76286">
        <ele>336.7</ele>
        <time>2014-11-02T11:17:18.000Z</time>
      </trkpt>
      <trkpt lat="47.46389" lon="6.76286">
        <ele>337.2</ele>
        <time>2014-11-02T11:17:19.000Z</time>
      </trkpt>
      <trkpt lat="47.46393" lon="6.76287">
        <ele>337.2</ele>
        <time>2014-11-02T11:17:20.000Z</time>
      </trkpt>
      <trkpt lat="47.46398" lon="6.76286">
        <ele>337.1</ele>
        <time>2014-11-02T11:17:21.000Z</time>
      </trkpt>
      <trkpt lat="47.46402" lon="6.76287">
        <ele>337.2</ele>
        <time>2014-11-02T11:17:22.000Z</time>
      </trkpt>
      <trkpt lat="47.46411" lon="6.76285">
        <ele>336.8</ele>
        <time>2014-11-02T11:17:23.000Z</time>
      </trkpt>
      <trkpt lat="47.46415" lon="6.76286">
        <ele>336.5</ele>
        <time>2014-11-02T11:17:24.000Z</time>
      </trkpt>
      <trkpt lat="47.46422" lon="6.76285">
        <ele>335.6</ele>
        <time>2014-11-02T11:17:25.000Z</time>
      </trkpt>
      <trkpt lat="47.46427" lon="6.76285">
        <ele>335.2</ele>
        <time>2014-11-02T11:17:26.000Z</time>
      </trkpt>
      <trkpt lat="47.46431" lon="6.76286">
        <ele>334.3</ele>
        <time>2014-11-02T11:17:27.000Z</time>
      </trkpt>
      <trkpt lat="47.46437" lon="6.76288">
        <ele>336.2</ele>
        <time>2014-11-02T11:17:28.000Z</time>
      </trkpt>
      <trkpt lat="47.46442" lon="6.76292">
        <ele>336.6</ele>
        <time>2014-11-02T11:17:29.000Z</time>
      </trkpt>
      <trkpt lat="47.46447" lon="6.76293">
        <ele>336.5</ele>
        <time>2014-11-02T11:17:30.000Z</time>
      </trkpt>
      <trkpt lat="47.46451" lon="6.76293">
        <ele>338.9</ele>
        <time>2014-11-02T11:17:31.000Z</time>
      </trkpt>
      <trkpt lat="47.46455" lon="6.76293">
        <ele>339.8</ele>
        <time>2014-11-02T11:17:32.000Z</time>
      </trkpt>
      <trkpt lat="47.46459" lon="6.76291">
        <ele>341.6</ele>
        <time>2014-11-02T11:17:33.000Z</time>
      </trkpt>
      <trkpt lat="47.46464" lon="6.76291">
        <ele>341.5</ele>
        <time>2014-11-02T11:17:34.000Z</time>
      </trkpt>
      <trkpt lat="47.46469" lon="6.76291">
        <ele>341.6</ele>
        <time>2014-11-02T11:17:35.000Z</time>
      </trkpt>
      <trkpt lat="47.46475" lon="6.76291">
        <ele>341.4</ele>
        <time>2014-11-02T11:17:36.000Z</time>
      </trkpt>
      <trkpt lat="47.46482" lon="6.76296">
        <ele>341.3</ele>
        <time>2014-11-02T11:17:37.000Z</time>
      </trkpt>
      <trkpt lat="47.46488" lon="6.76299">
        <ele>342.5</ele>
        <time>2014-11-02T11:17:38.000Z</time>
      </trkpt>
      <trkpt lat="47.46493" lon="6.76301">
        <ele>342.9</ele>
        <time>2014-11-02T11:17:39.000Z</time>
      </trkpt>
      <trkpt lat="47.46499" lon="6.76299">
        <ele>342.7</ele>
        <time>2014-11-02T11:17:40.000Z</time>
      </trkpt>
      <trkpt lat="47.46505" lon="6.763">
        <ele>342.6</ele>
        <time>2014-11-02T11:17:41.000Z</time>
      </trkpt>
      <trkpt lat="47.4651" lon="6.763">
        <ele>341.3</ele>
        <time>2014-11-02T11:17:42.000Z</time>
      </trkpt>
      <trkpt lat="47.46514" lon="6.76301">
        <ele>341.5</ele>
        <time>2014-11-02T11:17:43.000Z</time>
      </trkpt>
      <trkpt lat="47.46518" lon="6.76301">
        <ele>340.5</ele>
        <time>2014-11-02T11:17:44.000Z</time>
      </trkpt>
      <trkpt lat="47.46523" lon="6.763">
        <ele>340.8</ele>
        <time>2014-11-02T11:17:45.000Z</time>
      </trkpt>
      <trkpt lat="47.46529" lon="6.763">
        <ele>340.8</ele>
        <time>2014-11-02T11:17:46.000Z</time>
      </trkpt>
      <trkpt lat="47.46532" lon="6.763">
        <ele>339.4</ele>
        <time>2014-11-02T11:17:47.000Z</time>
      </trkpt>
      <trkpt lat="47.46535" lon="6.763">
        <ele>339</ele>
        <time>2014-11-02T11:17:48.000Z</time>
      </trkpt>
      <trkpt lat="47.4654" lon="6.763">
        <ele>338.6</ele>
        <time>2014-11-02T11:17:51.000Z</time>
      </trkpt>
      <trkpt lat="47.4654" lon="6.76302">
        <ele>338.7</ele>
        <time>2014-11-02T11:17:52.000Z</time>
      </trkpt>
      <trkpt lat="47.46543" lon="6.76304">
        <ele>340</ele>
        <time>2014-11-02T11:17:54.000Z</time>
      </trkpt>
      <trkpt lat="47.46545" lon="6.76305">
        <ele>340</ele>
        <time>2014-11-02T11:17:55.000Z</time>
      </trkpt>
      <trkpt lat="47.46548" lon="6.76306">
        <ele>339.1</ele>
        <time>2014-11-02T11:17:56.000Z</time>
      </trkpt>
      <trkpt lat="47.46551" lon="6.76306">
        <ele>337.6</ele>
        <time>2014-11-02T11:17:57.000Z</time>
      </trkpt>
      <trkpt lat="47.46554" lon="6.76307">
        <ele>337.6</ele>
        <time>2014-11-02T11:17:58.000Z</time>
      </trkpt>
      <trkpt lat="47.46559" lon="6.76307">
        <ele>337.4</ele>
        <time>2014-11-02T11:17:59.000Z</time>
      </trkpt>
      <trkpt lat="47.46564" lon="6.76308">
        <ele>336.1</ele>
        <time>2014-11-02T11:18:00.000Z</time>
      </trkpt>
      <trkpt lat="47.46569" lon="6.76308">
        <ele>335.8</ele>
        <time>2014-11-02T11:18:01.000Z</time>
      </trkpt>
      <trkpt lat="47.46579" lon="6.7631">
        <ele>334.5</ele>
        <time>2014-11-02T11:18:02.000Z</time>
      </trkpt>
      <trkpt lat="47.46584" lon="6.76309">
        <ele>334</ele>
        <time>2014-11-02T11:18:03.000Z</time>
      </trkpt>
      <trkpt lat="47.46614" lon="6.76317">
        <ele>335.8</ele>
        <time>2014-11-02T11:18:11.000Z</time>
      </trkpt>
      <trkpt lat="47.46617" lon="6.76317">
        <ele>335.9</ele>
        <time>2014-11-02T11:18:12.000Z</time>
      </trkpt>
      <trkpt lat="47.46621" lon="6.76317">
        <ele>335.8</ele>
        <time>2014-11-02T11:18:13.000Z</time>
      </trkpt>
      <trkpt lat="47.46624" lon="6.76318">
        <ele>335.8</ele>
        <time>2014-11-02T11:18:13.999Z</time>
      </trkpt>
      <trkpt lat="47.46629" lon="6.76316">
        <ele>337.2</ele>
        <time>2014-11-02T11:18:15.000Z</time>
      </trkpt>
      <trkpt lat="47.46633" lon="6.76317">
        <ele>337.6</ele>
        <time>2014-11-02T11:18:16.000Z</time>
      </trkpt>
      <trkpt lat="47.46639" lon="6.76317">
        <ele>337.5</ele>
        <time>2014-11-02T11:18:17.000Z</time>
      </trkpt>
      <trkpt lat="47.46643" lon="6.76318">
        <ele>337.8</ele>
        <time>2014-11-02T11:18:17.999Z</time>
      </trkpt>
      <trkpt lat="47.46648" lon="6.76317">
        <ele>334.2</ele>
        <time>2014-11-02T11:18:19.000Z</time>
      </trkpt>
      <trkpt lat="47.46654" lon="6.76316">
        <ele>333.4</ele>
        <time>2014-11-02T11:18:20.000Z</time>
      </trkpt>
      <trkpt lat="47.46659" lon="6.76315">
        <ele>332.7</ele>
        <time>2014-11-02T11:18:21.000Z</time>
      </trkpt>
      <trkpt lat="47.46663" lon="6.76315">
        <ele>332.3</ele>
        <time>2014-11-02T11:18:21.998Z</time>
      </trkpt>
      <trkpt lat="47.46667" lon="6.76316">
        <ele>331.6</ele>
        <time>2014-11-02T11:18:23.000Z</time>
      </trkpt>
      <trkpt lat="47.46671" lon="6.76316">
        <ele>330.9</ele>
        <time>2014-11-02T11:18:24.000Z</time>
      </trkpt>
      <trkpt lat="47.46675" lon="6.76316">
        <ele>331.3</ele>
        <time>2014-11-02T11:18:25.000Z</time>
      </trkpt>
      <trkpt lat="47.46679" lon="6.76316">
        <ele>332.3</ele>
        <time>2014-11-02T11:18:26.000Z</time>
      </trkpt>
      <trkpt lat="47.46682" lon="6.76317">
        <ele>332</ele>
        <time>2014-11-02T11:18:27.000Z</time>
      </trkpt>
      <trkpt lat="47.46686" lon="6.76318">
        <ele>331.9</ele>
        <time>2014-11-02T11:18:28.000Z</time>
      </trkpt>
      <trkpt lat="47.4669" lon="6.76319">
        <ele>331.3</ele>
        <time>2014-11-02T11:18:29.000Z</time>
      </trkpt>
      <trkpt lat="47.46695" lon="6.7632">
        <ele>330.8</ele>
        <time>2014-11-02T11:18:30.000Z</time>
      </trkpt>
      <trkpt lat="47.46699" lon="6.7632">
        <ele>331.3</ele>
        <time>2014-11-02T11:18:31.000Z</time>
      </trkpt>
      <trkpt lat="47.46704" lon="6.76319">
        <ele>330.2</ele>
        <time>2014-11-02T11:18:32.000Z</time>
      </trkpt>
      <trkpt lat="47.4671" lon="6.76315">
        <ele>330</ele>
        <time>2014-11-02T11:18:33.000Z</time>
      </trkpt>
      <trkpt lat="47.46716" lon="6.76313">
        <ele>330</ele>
        <time>2014-11-02T11:18:34.000Z</time>
      </trkpt>
      <trkpt lat="47.4672" lon="6.76312">
        <ele>331.4</ele>
        <time>2014-11-02T11:18:35.000Z</time>
      </trkpt>
      <trkpt lat="47.46724" lon="6.76312">
        <ele>332</ele>
        <time>2014-11-02T11:18:35.999Z</time>
      </trkpt>
      <trkpt lat="47.4673" lon="6.76311">
        <ele>332.2</ele>
        <time>2014-11-02T11:18:37.000Z</time>
      </trkpt>
      <trkpt lat="47.46735" lon="6.76313">
        <ele>331.6</ele>
        <time>2014-11-02T11:18:38.000Z</time>
      </trkpt>
      <trkpt lat="47.46741" lon="6.76309">
        <ele>332.9</ele>
        <time>2014-11-02T11:18:39.000Z</time>
      </trkpt>
      <trkpt lat="47.46746" lon="6.76307">
        <ele>333.2</ele>
        <time>2014-11-02T11:18:40.000Z</time>
      </trkpt>
      <trkpt lat="47.46751" lon="6.76305">
        <ele>333.1</ele>
        <time>2014-11-02T11:18:41.000Z</time>
      </trkpt>
      <trkpt lat="47.46756" lon="6.76303">
        <ele>333.1</ele>
        <time>2014-11-02T11:18:42.000Z</time>
      </trkpt>
      <trkpt lat="47.46762" lon="6.76301">
        <ele>333.1</ele>
        <time>2014-11-02T11:18:43.000Z</time>
      </trkpt>
      <trkpt lat="47.46768" lon="6.76304">
        <ele>333</ele>
        <time>2014-11-02T11:18:44.000Z</time>
      </trkpt>
      <trkpt lat="47.46774" lon="6.76302">
        <ele>332.9</ele>
        <time>2014-11-02T11:18:45.000Z</time>
      </trkpt>
      <trkpt lat="47.46784" lon="6.76303">
        <ele>332</ele>
        <time>2014-11-02T11:18:46.000Z</time>
      </trkpt>
      <trkpt lat="47.46789" lon="6.76308">
        <ele>328.2</ele>
        <time>2014-11-02T11:18:47.000Z</time>
      </trkpt>
      <trkpt lat="47.46796" lon="6.76313">
        <ele>327.4</ele>
        <time>2014-11-02T11:18:48.000Z</time>
      </trkpt>
      <trkpt lat="47.46801" lon="6.76315">
        <ele>327.3</ele>
        <time>2014-11-02T11:18:49.000Z</time>
      </trkpt>
      <trkpt lat="47.46808" lon="6.76316">
        <ele>327.7</ele>
        <time>2014-11-02T11:18:50.000Z</time>
      </trkpt>
      <trkpt lat="47.46812" lon="6.7632">
        <ele>328.1</ele>
        <time>2014-11-02T11:18:51.000Z</time>
      </trkpt>
      <trkpt lat="47.46817" lon="6.76325">
        <ele>327.4</ele>
        <time>2014-11-02T11:18:52.000Z</time>
      </trkpt>
      <trkpt lat="47.46823" lon="6.76326">
        <ele>327.7</ele>
        <time>2014-11-02T11:18:53.000Z</time>
      </trkpt>
      <trkpt lat="47.46829" lon="6.76328">
        <ele>327.9</ele>
        <time>2014-11-02T11:18:54.000Z</time>
      </trkpt>
      <trkpt lat="47.46835" lon="6.76329">
        <ele>328</ele>
        <time>2014-11-02T11:18:55.000Z</time>
      </trkpt>
      <trkpt lat="47.4684" lon="6.76332">
        <ele>328</ele>
        <time>2014-11-02T11:18:56.000Z</time>
      </trkpt>
      <trkpt lat="47.46846" lon="6.76334">
        <ele>327.2</ele>
        <time>2014-11-02T11:18:57.000Z</time>
      </trkpt>
      <trkpt lat="47.46851" lon="6.76337">
        <ele>326.9</ele>
        <time>2014-11-02T11:18:58.000Z</time>
      </trkpt>
      <trkpt lat="47.46857" lon="6.76339">
        <ele>327</ele>
        <time>2014-11-02T11:18:59.000Z</time>
      </trkpt>
      <trkpt lat="47.46862" lon="6.76341">
        <ele>327.2</ele>
        <time>2014-11-02T11:19:00.000Z</time>
      </trkpt>
      <trkpt lat="47.46868" lon="6.76343">
        <ele>326.6</ele>
        <time>2014-11-02T11:19:01.000Z</time>
      </trkpt>
      <trkpt lat="47.46873" lon="6.76343">
        <ele>326.3</ele>
        <time>2014-11-02T11:19:02.000Z</time>
      </trkpt>
      <trkpt lat="47.46915" lon="6.76335">
        <ele>324.7</ele>
        <time>2014-11-02T11:19:09.918Z</time>
      </trkpt>
      <trkpt lat="47.46921" lon="6.76336">
        <ele>324.8</ele>
        <time>2014-11-02T11:19:11.000Z</time>
      </trkpt>
      <trkpt lat="47.46926" lon="6.76337">
        <ele>324.4</ele>
        <time>2014-11-02T11:19:12.000Z</time>
      </trkpt>
      <trkpt lat="47.46931" lon="6.76336">
        <ele>324.9</ele>
        <time>2014-11-02T11:19:13.000Z</time>
      </trkpt>
      <trkpt lat="47.46936" lon="6.76336">
        <ele>324.9</ele>
        <time>2014-11-02T11:19:14.000Z</time>
      </trkpt>
      <trkpt lat="47.4694" lon="6.76337">
        <ele>324.1</ele>
        <time>2014-11-02T11:19:15.000Z</time>
      </trkpt>
      <trkpt lat="47.46944" lon="6.76337">
        <ele>325.1</ele>
        <time>2014-11-02T11:19:16.000Z</time>
      </trkpt>
      <trkpt lat="47.46948" lon="6.76339">
        <ele>324.7</ele>
        <time>2014-11-02T11:19:17.000Z</time>
      </trkpt>
      <trkpt lat="47.46953" lon="6.76339">
        <ele>324.9</ele>
        <time>2014-11-02T11:19:18.000Z</time>
      </trkpt>
      <trkpt lat="47.46958" lon="6.76341">
        <ele>325</ele>
        <time>2014-11-02T11:19:19.000Z</time>
      </trkpt>
      <trkpt lat="47.46963" lon="6.76341">
        <ele>324.7</ele>
        <time>2014-11-02T11:19:20.000Z</time>
      </trkpt>
      <trkpt lat="47.46968" lon="6.76342">
        <ele>324.5</ele>
        <time>2014-11-02T11:19:21.000Z</time>
      </trkpt>
      <trkpt lat="47.46974" lon="6.76343">
        <ele>324.8</ele>
        <time>2014-11-02T11:19:22.000Z</time>
      </trkpt>
      <trkpt lat="47.46979" lon="6.76344">
        <ele>325.2</ele>
        <time>2014-11-02T11:19:23.000Z</time>
      </trkpt>
      <trkpt lat="47.46984" lon="6.76345">
        <ele>324.7</ele>
        <time>2014-11-02T11:19:24.000Z</time>
      </trkpt>
      <trkpt lat="47.46989" lon="6.76347">
        <ele>324.3</ele>
        <time>2014-11-02T11:19:25.000Z</time>
      </trkpt>
      <trkpt lat="47.46994" lon="6.76347">
        <ele>324.5</ele>
        <time>2014-11-02T11:19:26.000Z</time>
      </trkpt>
      <trkpt lat="47.46999" lon="6.76348">
        <ele>324.6</ele>
        <time>2014-11-02T11:19:27.000Z</time>
      </trkpt>
      <trkpt lat="47.47005" lon="6.7635">
        <ele>324.9</ele>
        <time>2014-11-02T11:19:28.000Z</time>
      </trkpt>
      <trkpt lat="47.4701" lon="6.76353">
        <ele>324.9</ele>
        <time>2014-11-02T11:19:29.000Z</time>
      </trkpt>
      <trkpt lat="47.47016" lon="6.76354">
        <ele>325.6</ele>
        <time>2014-11-02T11:19:30.000Z</time>
      </trkpt>
      <trkpt lat="47.47021" lon="6.76355">
        <ele>325.8</ele>
        <time>2014-11-02T11:19:31.000Z</time>
      </trkpt>
      <trkpt lat="47.47027" lon="6.76356">
        <ele>325</ele>
        <time>2014-11-02T11:19:32.000Z</time>
      </trkpt>
      <trkpt lat="47.47032" lon="6.76356">
        <ele>324.8</ele>
        <time>2014-11-02T11:19:33.000Z</time>
      </trkpt>
      <trkpt lat="47.47038" lon="6.76357">
        <ele>325</ele>
        <time>2014-11-02T11:19:34.000Z</time>
      </trkpt>
      <trkpt lat="47.47043" lon="6.76357">
        <ele>325.3</ele>
        <time>2014-11-02T11:19:35.000Z</time>
      </trkpt>
      <trkpt lat="47.47049" lon="6.76359">
        <ele>325.5</ele>
        <time>2014-11-02T11:19:36.000Z</time>
      </trkpt>
      <trkpt lat="47.47053" lon="6.76362">
        <ele>325.2</ele>
        <time>2014-11-02T11:19:37.000Z</time>
      </trkpt>
      <trkpt lat="47.47059" lon="6.76363">
        <ele>325</ele>
        <time>2014-11-02T11:19:38.000Z</time>
      </trkpt>
      <trkpt lat="47.47065" lon="6.76365">
        <ele>324.7</ele>
        <time>2014-11-02T11:19:39.000Z</time>
      </trkpt>
      <trkpt lat="47.47071" lon="6.76368">
        <ele>325.2</ele>
        <time>2014-11-02T11:19:40.000Z</time>
      </trkpt>
      <trkpt lat="47.47078" lon="6.76369">
        <ele>324.9</ele>
        <time>2014-11-02T11:19:41.000Z</time>
      </trkpt>
      <trkpt lat="47.47083" lon="6.76371">
        <ele>324.8</ele>
        <time>2014-11-02T11:19:42.000Z</time>
      </trkpt>
      <trkpt lat="47.47089" lon="6.76371">
        <ele>324.4</ele>
        <time>2014-11-02T11:19:43.000Z</time>
      </trkpt>
      <trkpt lat="47.47094" lon="6.76373">
        <ele>324</ele>
        <time>2014-11-02T11:19:44.000Z</time>
      </trkpt>
      <trkpt lat="47.47099" lon="6.76375">
        <ele>324</ele>
        <time>2014-11-02T11:19:45.000Z</time>
      </trkpt>
      <trkpt lat="47.47104" lon="6.76375">
        <ele>324.2</ele>
        <time>2014-11-02T11:19:46.000Z</time>
      </trkpt>
      <trkpt lat="47.4711" lon="6.76376">
        <ele>323.4</ele>
        <time>2014-11-02T11:19:47.000Z</time>
      </trkpt>
      <trkpt lat="47.47115" lon="6.76377">
        <ele>323.2</ele>
        <time>2014-11-02T11:19:48.000Z</time>
      </trkpt>
      <trkpt lat="47.47121" lon="6.76378">
        <ele>323.1</ele>
        <time>2014-11-02T11:19:49.000Z</time>
      </trkpt>
      <trkpt lat="47.47127" lon="6.76379">
        <ele>322.7</ele>
        <time>2014-11-02T11:19:50.000Z</time>
      </trkpt>
      <trkpt lat="47.47132" lon="6.76379">
        <ele>321.8</ele>
        <time>2014-11-02T11:19:51.000Z</time>
      </trkpt>
      <trkpt lat="47.47138" lon="6.76381">
        <ele>321.6</ele>
        <time>2014-11-02T11:19:52.000Z</time>
      </trkpt>
      <trkpt lat="47.47142" lon="6.76383">
        <ele>322.1</ele>
        <time>2014-11-02T11:19:53.000Z</time>
      </trkpt>
      <trkpt lat="47.47146" lon="6.76385">
        <ele>322.2</ele>
        <time>2014-11-02T11:19:54.000Z</time>
      </trkpt>
      <trkpt lat="47.4715" lon="6.76386">
        <ele>320.4</ele>
        <time>2014-11-02T11:19:55.000Z</time>
      </trkpt>
      <trkpt lat="47.47155" lon="6.76387">
        <ele>319.9</ele>
        <time>2014-11-02T11:19:56.000Z</time>
      </trkpt>
      <trkpt lat="47.47159" lon="6.76389">
        <ele>319.8</ele>
        <time>2014-11-02T11:19:57.000Z</time>
      </trkpt>
      <trkpt lat="47.47165" lon="6.7639">
        <ele>319.8</ele>
        <time>2014-11-02T11:19:58.000Z</time>
      </trkpt>
      <trkpt lat="47.4717" lon="6.76391">
        <ele>319.9</ele>
        <time>2014-11-02T11:19:59.000Z</time>
      </trkpt>
      <trkpt lat="47.47176" lon="6.76391">
        <ele>319.8</ele>
        <time>2014-11-02T11:20:00.000Z</time>
      </trkpt>
      <trkpt lat="47.47182" lon="6.76392">
        <ele>320</ele>
        <time>2014-11-02T11:20:01.000Z</time>
      </trkpt>
      <trkpt lat="47.47188" lon="6.76394">
        <ele>319.5</ele>
        <time>2014-11-02T11:20:02.000Z</time>
      </trkpt>
      <trkpt lat="47.47192" lon="6.76395">
        <ele>319.7</ele>
        <time>2014-11-02T11:20:03.000Z</time>
      </trkpt>
      <trkpt lat="47.47208" lon="6.76399">
        <ele>317.3</ele>
        <time>2014-11-02T11:20:06.000Z</time>
      </trkpt>
      <trkpt lat="47.47213" lon="6.764">
        <ele>317.9</ele>
        <time>2014-11-02T11:20:07.000Z</time>
      </trkpt>
      <trkpt lat="47.4722" lon="6.76403">
        <ele>318.7</ele>
        <time>2014-11-02T11:20:07.999Z</time>
      </trkpt>
      <trkpt lat="47.47226" lon="6.764">
        <ele>319.2</ele>
        <time>2014-11-02T11:20:09.000Z</time>
      </trkpt>
      <trkpt lat="47.47232" lon="6.764">
        <ele>319.8</ele>
        <time>2014-11-02T11:20:10.000Z</time>
      </trkpt>
      <trkpt lat="47.47237" lon="6.764">
        <ele>319.6</ele>
        <time>2014-11-02T11:20:11.000Z</time>
      </trkpt>
      <trkpt lat="47.47243" lon="6.764">
        <ele>318.9</ele>
        <time>2014-11-02T11:20:12.000Z</time>
      </trkpt>
      <trkpt lat="47.47248" lon="6.76398">
        <ele>319.2</ele>
        <time>2014-11-02T11:20:13.000Z</time>
      </trkpt>
      <trkpt lat="47.47253" lon="6.76395">
        <ele>320.3</ele>
        <time>2014-11-02T11:20:14.000Z</time>
      </trkpt>
      <trkpt lat="47.47258" lon="6.76393">
        <ele>320.7</ele>
        <time>2014-11-02T11:20:15.000Z</time>
      </trkpt>
      <trkpt lat="47.47263" lon="6.76391">
        <ele>320.9</ele>
        <time>2014-11-02T11:20:16.000Z</time>
      </trkpt>
      <trkpt lat="47.47268" lon="6.76392">
        <ele>321.6</ele>
        <time>2014-11-02T11:20:17.000Z</time>
      </trkpt>
      <trkpt lat="47.47273" lon="6.76391">
        <ele>321.6</ele>
        <time>2014-11-02T11:20:18.000Z</time>
      </trkpt>
      <trkpt lat="47.47278" lon="6.7639">
        <ele>321.4</ele>
        <time>2014-11-02T11:20:19.000Z</time>
      </trkpt>
      <trkpt lat="47.47282" lon="6.7639">
        <ele>321</ele>
        <time>2014-11-02T11:20:20.000Z</time>
      </trkpt>
      <trkpt lat="47.47287" lon="6.76388">
        <ele>319.7</ele>
        <time>2014-11-02T11:20:21.000Z</time>
      </trkpt>
      <trkpt lat="47.47293" lon="6.76387">
        <ele>318.9</ele>
        <time>2014-11-02T11:20:22.000Z</time>
      </trkpt>
      <trkpt lat="47.47298" lon="6.76386">
        <ele>318.8</ele>
        <time>2014-11-02T11:20:23.000Z</time>
      </trkpt>
      <trkpt lat="47.47304" lon="6.76386">
        <ele>319.1</ele>
        <time>2014-11-02T11:20:24.000Z</time>
      </trkpt>
      <trkpt lat="47.47308" lon="6.7639">
        <ele>319.1</ele>
        <time>2014-11-02T11:20:25.000Z</time>
      </trkpt>
      <trkpt lat="47.47313" lon="6.76393">
        <ele>317.9</ele>
        <time>2014-11-02T11:20:26.000Z</time>
      </trkpt>
      <trkpt lat="47.47319" lon="6.76394">
        <ele>317.6</ele>
        <time>2014-11-02T11:20:27.000Z</time>
      </trkpt>
      <trkpt lat="47.47325" lon="6.76397">
        <ele>318.4</ele>
        <time>2014-11-02T11:20:28.000Z</time>
      </trkpt>
      <trkpt lat="47.4733" lon="6.76397">
        <ele>320.1</ele>
        <time>2014-11-02T11:20:29.000Z</time>
      </trkpt>
      <trkpt lat="47.47335" lon="6.76399">
        <ele>320.5</ele>
        <time>2014-11-02T11:20:30.000Z</time>
      </trkpt>
      <trkpt lat="47.47341" lon="6.764">
        <ele>320.9</ele>
        <time>2014-11-02T11:20:31.000Z</time>
      </trkpt>
      <trkpt lat="47.47345" lon="6.76403">
        <ele>320.7</ele>
        <time>2014-11-02T11:20:32.000Z</time>
      </trkpt>
      <trkpt lat="47.4735" lon="6.76406">
        <ele>320.6</ele>
        <time>2014-11-02T11:20:33.000Z</time>
      </trkpt>
      <trkpt lat="47.47354" lon="6.7641">
        <ele>320.5</ele>
        <time>2014-11-02T11:20:34.000Z</time>
      </trkpt>
      <trkpt lat="47.47359" lon="6.76412">
        <ele>320.4</ele>
        <time>2014-11-02T11:20:35.000Z</time>
      </trkpt>
      <trkpt lat="47.47364" lon="6.76413">
        <ele>320.9</ele>
        <time>2014-11-02T11:20:36.000Z</time>
      </trkpt>
      <trkpt lat="47.47369" lon="6.76414">
        <ele>321.6</ele>
        <time>2014-11-02T11:20:37.000Z</time>
      </trkpt>
      <trkpt lat="47.47373" lon="6.76416">
        <ele>322.2</ele>
        <time>2014-11-02T11:20:38.000Z</time>
      </trkpt>
      <trkpt lat="47.47376" lon="6.76419">
        <ele>322.2</ele>
        <time>2014-11-02T11:20:39.000Z</time>
      </trkpt>
      <trkpt lat="47.4738" lon="6.76423">
        <ele>321.9</ele>
        <time>2014-11-02T11:20:40.000Z</time>
      </trkpt>
      <trkpt lat="47.47385" lon="6.76426">
        <ele>322.3</ele>
        <time>2014-11-02T11:20:41.000Z</time>
      </trkpt>
      <trkpt lat="47.47389" lon="6.76429">
        <ele>323</ele>
        <time>2014-11-02T11:20:42.000Z</time>
      </trkpt>
      <trkpt lat="47.47393" lon="6.76432">
        <ele>322.1</ele>
        <time>2014-11-02T11:20:42.999Z</time>
      </trkpt>
      <trkpt lat="47.47397" lon="6.76438">
        <ele>320.7</ele>
        <time>2014-11-02T11:20:44.000Z</time>
      </trkpt>
      <trkpt lat="47.47401" lon="6.7644">
        <ele>320.9</ele>
        <time>2014-11-02T11:20:45.000Z</time>
      </trkpt>
      <trkpt lat="47.47404" lon="6.76444">
        <ele>321.6</ele>
        <time>2014-11-02T11:20:46.000Z</time>
      </trkpt>
      <trkpt lat="47.47407" lon="6.76447">
        <ele>322.8</ele>
        <time>2014-11-02T11:20:47.000Z</time>
      </trkpt>
      <trkpt lat="47.47411" lon="6.7645">
        <ele>323.3</ele>
        <time>2014-11-02T11:20:48.001Z</time>
      </trkpt>
      <trkpt lat="47.47415" lon="6.76455">
        <ele>320.6</ele>
        <time>2014-11-02T11:20:49.000Z</time>
      </trkpt>
      <trkpt lat="47.47419" lon="6.7646">
        <ele>319.9</ele>
        <time>2014-11-02T11:20:50.000Z</time>
      </trkpt>
      <trkpt lat="47.47423" lon="6.76465">
        <ele>319.6</ele>
        <time>2014-11-02T11:20:51.000Z</time>
      </trkpt>
      <trkpt lat="47.47425" lon="6.76468">
        <ele>319.3</ele>
        <time>2014-11-02T11:20:52.000Z</time>
      </trkpt>
      <trkpt lat="47.47426" lon="6.76468">
        <ele>318.8</ele>
        <time>2014-11-02T11:20:53.000Z</time>
      </trkpt>
      <trkpt lat="47.4743" lon="6.7647">
        <ele>318.9</ele>
        <time>2014-11-02T11:20:55.000Z</time>
      </trkpt>
      <trkpt lat="47.47434" lon="6.76469">
        <ele>319.3</ele>
        <time>2014-11-02T11:20:56.000Z</time>
      </trkpt>
      <trkpt lat="47.47437" lon="6.76469">
        <ele>319.5</ele>
        <time>2014-11-02T11:20:57.000Z</time>
      </trkpt>
      <trkpt lat="47.4744" lon="6.76466">
        <ele>319.3</ele>
        <time>2014-11-02T11:20:58.000Z</time>
      </trkpt>
      <trkpt lat="47.47443" lon="6.76463">
        <ele>319.4</ele>
        <time>2014-11-02T11:20:59.000Z</time>
      </trkpt>
      <trkpt lat="47.47444" lon="6.76458">
        <ele>319.5</ele>
        <time>2014-11-02T11:21:00.000Z</time>
      </trkpt>
      <trkpt lat="47.47446" lon="6.76454">
        <ele>319.5</ele>
        <time>2014-11-02T11:21:01.000Z</time>
      </trkpt>
      <trkpt lat="47.47447" lon="6.76449">
        <ele>319.5</ele>
        <time>2014-11-02T11:21:02.000Z</time>
      </trkpt>
      <trkpt lat="47.47449" lon="6.76444">
        <ele>319.7</ele>
        <time>2014-11-02T11:21:03.000Z</time>
      </trkpt>
      <trkpt lat="47.47485" lon="6.76448">
        <ele>316.1</ele>
        <time>2014-11-02T11:21:11.000Z</time>
      </trkpt>
      <trkpt lat="47.47492" lon="6.76443">
        <ele>315.9</ele>
        <time>2014-11-02T11:21:12.000Z</time>
      </trkpt>
      <trkpt lat="47.47493" lon="6.76451">
        <ele>315.6</ele>
        <time>2014-11-02T11:21:13.000Z</time>
      </trkpt>
      <trkpt lat="47.47497" lon="6.76455">
        <ele>315.3</ele>
        <time>2014-11-02T11:21:14.000Z</time>
      </trkpt>
      <trkpt lat="47.47501" lon="6.76458">
        <ele>315.2</ele>
        <time>2014-11-02T11:21:15.000Z</time>
      </trkpt>
      <trkpt lat="47.47506" lon="6.76459">
        <ele>315.4</ele>
        <time>2014-11-02T11:21:16.000Z</time>
      </trkpt>
      <trkpt lat="47.47509" lon="6.76448">
        <ele>315.5</ele>
        <time>2014-11-02T11:21:17.000Z</time>
      </trkpt>
      <trkpt lat="47.47512" lon="6.76442">
        <ele>315.6</ele>
        <time>2014-11-02T11:21:18.000Z</time>
      </trkpt>
      <trkpt lat="47.47515" lon="6.76436">
        <ele>313.9</ele>
        <time>2014-11-02T11:21:19.000Z</time>
      </trkpt>
      <trkpt lat="47.47518" lon="6.76432">
        <ele>314.6</ele>
        <time>2014-11-02T11:21:20.000Z</time>
      </trkpt>
      <trkpt lat="47.47524" lon="6.76426">
        <ele>314.3</ele>
        <time>2014-11-02T11:21:21.000Z</time>
      </trkpt>
      <trkpt lat="47.47528" lon="6.76421">
        <ele>314.2</ele>
        <time>2014-11-02T11:21:22.000Z</time>
      </trkpt>
      <trkpt lat="47.47533" lon="6.76415">
        <ele>314</ele>
        <time>2014-11-02T11:21:23.000Z</time>
      </trkpt>
      <trkpt lat="47.47537" lon="6.7641">
        <ele>314.4</ele>
        <time>2014-11-02T11:21:24.000Z</time>
      </trkpt>
      <trkpt lat="47.47541" lon="6.76405">
        <ele>314.3</ele>
        <time>2014-11-02T11:21:25.000Z</time>
      </trkpt>
      <trkpt lat="47.47544" lon="6.76398">
        <ele>314.3</ele>
        <time>2014-11-02T11:21:26.000Z</time>
      </trkpt>
      <trkpt lat="47.47545" lon="6.76388">
        <ele>313.9</ele>
        <time>2014-11-02T11:21:27.000Z</time>
      </trkpt>
      <trkpt lat="47.47547" lon="6.7638">
        <ele>313.7</ele>
        <time>2014-11-02T11:21:28.000Z</time>
      </trkpt>
      <trkpt lat="47.4755" lon="6.76372">
        <ele>314.8</ele>
        <time>2014-11-02T11:21:29.000Z</time>
      </trkpt>
      <trkpt lat="47.47552" lon="6.76364">
        <ele>315.4</ele>
        <time>2014-11-02T11:21:30.000Z</time>
      </trkpt>
      <trkpt lat="47.47556" lon="6.76358">
        <ele>315.4</ele>
        <time>2014-11-02T11:21:31.000Z</time>
      </trkpt>
      <trkpt lat="47.47561" lon="6.76352">
        <ele>316.2</ele>
        <time>2014-11-02T11:21:32.000Z</time>
      </trkpt>
      <trkpt lat="47.47564" lon="6.76345">
        <ele>316.4</ele>
        <time>2014-11-02T11:21:33.000Z</time>
      </trkpt>
      <trkpt lat="47.47568" lon="6.76339">
        <ele>316.3</ele>
        <time>2014-11-02T11:21:34.000Z</time>
      </trkpt>
      <trkpt lat="47.47572" lon="6.76333">
        <ele>316</ele>
        <time>2014-11-02T11:21:35.000Z</time>
      </trkpt>
      <trkpt lat="47.47575" lon="6.76326">
        <ele>316.4</ele>
        <time>2014-11-02T11:21:36.000Z</time>
      </trkpt>
      <trkpt lat="47.47579" lon="6.7632">
        <ele>316.2</ele>
        <time>2014-11-02T11:21:37.000Z</time>
      </trkpt>
      <trkpt lat="47.47583" lon="6.76313">
        <ele>316.3</ele>
        <time>2014-11-02T11:21:38.000Z</time>
      </trkpt>
      <trkpt lat="47.47586" lon="6.76307">
        <ele>316.5</ele>
        <time>2014-11-02T11:21:39.000Z</time>
      </trkpt>
      <trkpt lat="47.47591" lon="6.76301">
        <ele>318.1</ele>
        <time>2014-11-02T11:21:40.000Z</time>
      </trkpt>
      <trkpt lat="47.47595" lon="6.76295">
        <ele>318.6</ele>
        <time>2014-11-02T11:21:41.000Z</time>
      </trkpt>
      <trkpt lat="47.47598" lon="6.76289">
        <ele>318.6</ele>
        <time>2014-11-02T11:21:42.000Z</time>
      </trkpt>
      <trkpt lat="47.47601" lon="6.76281">
        <ele>318.2</ele>
        <time>2014-11-02T11:21:43.000Z</time>
      </trkpt>
      <trkpt lat="47.47604" lon="6.76275">
        <ele>318</ele>
        <time>2014-11-02T11:21:44.000Z</time>
      </trkpt>
      <trkpt lat="47.47606" lon="6.76269">
        <ele>318.4</ele>
        <time>2014-11-02T11:21:45.000Z</time>
      </trkpt>
      <trkpt lat="47.4761" lon="6.76259">
        <ele>318.3</ele>
        <time>2014-11-02T11:21:46.000Z</time>
      </trkpt>
      <trkpt lat="47.47613" lon="6.76252">
        <ele>319</ele>
        <time>2014-11-02T11:21:47.000Z</time>
      </trkpt>
      <trkpt lat="47.47615" lon="6.76242">
        <ele>322.2</ele>
        <time>2014-11-02T11:21:48.000Z</time>
      </trkpt>
      <trkpt lat="47.47618" lon="6.76234">
        <ele>322.4</ele>
        <time>2014-11-02T11:21:49.000Z</time>
      </trkpt>
      <trkpt lat="47.47621" lon="6.76229">
        <ele>322</ele>
        <time>2014-11-02T11:21:50.000Z</time>
      </trkpt>
      <trkpt lat="47.47624" lon="6.76222">
        <ele>321.9</ele>
        <time>2014-11-02T11:21:51.000Z</time>
      </trkpt>
      <trkpt lat="47.47627" lon="6.76215">
        <ele>319.4</ele>
        <time>2014-11-02T11:21:52.000Z</time>
      </trkpt>
      <trkpt lat="47.4763" lon="6.76207">
        <ele>320.3</ele>
        <time>2014-11-02T11:21:53.000Z</time>
      </trkpt>
      <trkpt lat="47.47634" lon="6.762">
        <ele>320.1</ele>
        <time>2014-11-02T11:21:54.000Z</time>
      </trkpt>
      <trkpt lat="47.47637" lon="6.76194">
        <ele>318.3</ele>
        <time>2014-11-02T11:21:55.000Z</time>
      </trkpt>
      <trkpt lat="47.47641" lon="6.76186">
        <ele>321.7</ele>
        <time>2014-11-02T11:21:56.000Z</time>
      </trkpt>
      <trkpt lat="47.47644" lon="6.76178">
        <ele>321.3</ele>
        <time>2014-11-02T11:21:57.000Z</time>
      </trkpt>
      <trkpt lat="47.47647" lon="6.7617">
        <ele>321.1</ele>
        <time>2014-11-02T11:21:58.000Z</time>
      </trkpt>
      <trkpt lat="47.47649" lon="6.76164">
        <ele>318.5</ele>
        <time>2014-11-02T11:21:59.000Z</time>
      </trkpt>
      <trkpt lat="47.47651" lon="6.76159">
        <ele>317.5</ele>
        <time>2014-11-02T11:22:00.000Z</time>
      </trkpt>
      <trkpt lat="47.47653" lon="6.76151">
        <ele>317</ele>
        <time>2014-11-02T11:22:01.000Z</time>
      </trkpt>
      <trkpt lat="47.47655" lon="6.76142">
        <ele>319.7</ele>
        <time>2014-11-02T11:22:02.000Z</time>
      </trkpt>
      <trkpt lat="47.47657" lon="6.76135">
        <ele>320.6</ele>
        <time>2014-11-02T11:22:03.000Z</time>
      </trkpt>
      <trkpt lat="47.47667" lon="6.76117">
        <ele>316.5</ele>
        <time>2014-11-02T11:22:06.000Z</time>
      </trkpt>
      <trkpt lat="47.4767" lon="6.76109">
        <ele>315.5</ele>
        <time>2014-11-02T11:22:07.000Z</time>
      </trkpt>
      <trkpt lat="47.47674" lon="6.76101">
        <ele>317.5</ele>
        <time>2014-11-02T11:22:08.000Z</time>
      </trkpt>
      <trkpt lat="47.47677" lon="6.76094">
        <ele>318.4</ele>
        <time>2014-11-02T11:22:09.000Z</time>
      </trkpt>
      <trkpt lat="47.47679" lon="6.76092">
        <ele>318.9</ele>
        <time>2014-11-02T11:22:10.000Z</time>
      </trkpt>
      <trkpt lat="47.47681" lon="6.76089">
        <ele>319.2</ele>
        <time>2014-11-02T11:22:10.999Z</time>
      </trkpt>
      <trkpt lat="47.47682" lon="6.76094">
        <ele>320.6</ele>
        <time>2014-11-02T11:22:11.919Z</time>
      </trkpt>
      <trkpt lat="47.47682" lon="6.761">
        <ele>318.3</ele>
        <time>2014-11-02T11:22:13.000Z</time>
      </trkpt>
      <trkpt lat="47.47684" lon="6.76103">
        <ele>318</ele>
        <time>2014-11-02T11:22:13.999Z</time>
      </trkpt>
      <trkpt lat="47.47687" lon="6.76106">
        <ele>318.1</ele>
        <time>2014-11-02T11:22:15.000Z</time>
      </trkpt>
      <trkpt lat="47.47689" lon="6.76108">
        <ele>318</ele>
        <time>2014-11-02T11:22:16.000Z</time>
      </trkpt>
      <trkpt lat="47.47692" lon="6.76113">
        <ele>318.2</ele>
        <time>2014-11-02T11:22:17.000Z</time>
      </trkpt>
      <trkpt lat="47.47695" lon="6.76117">
        <ele>318.4</ele>
        <time>2014-11-02T11:22:17.999Z</time>
      </trkpt>
      <trkpt lat="47.47699" lon="6.76121">
        <ele>317.9</ele>
        <time>2014-11-02T11:22:18.919Z</time>
      </trkpt>
      <trkpt lat="47.47701" lon="6.76125">
        <ele>317.7</ele>
        <time>2014-11-02T11:22:19.906Z</time>
      </trkpt>
      <trkpt lat="47.47705" lon="6.76132">
        <ele>316.2</ele>
        <time>2014-11-02T11:22:21.000Z</time>
      </trkpt>
      <trkpt lat="47.47708" lon="6.76137">
        <ele>315.7</ele>
        <time>2014-11-02T11:22:22.000Z</time>
      </trkpt>
      <trkpt lat="47.47712" lon="6.76141">
        <ele>315.8</ele>
        <time>2014-11-02T11:22:23.000Z</time>
      </trkpt>
      <trkpt lat="47.47716" lon="6.76146">
        <ele>316.1</ele>
        <time>2014-11-02T11:22:24.000Z</time>
      </trkpt>
      <trkpt lat="47.4772" lon="6.76152">
        <ele>316.2</ele>
        <time>2014-11-02T11:22:25.000Z</time>
      </trkpt>
      <trkpt lat="47.47724" lon="6.76157">
        <ele>316.2</ele>
        <time>2014-11-02T11:22:26.000Z</time>
      </trkpt>
      <trkpt lat="47.47728" lon="6.76163">
        <ele>316.5</ele>
        <time>2014-11-02T11:22:27.000Z</time>
      </trkpt>
      <trkpt lat="47.47732" lon="6.76168">
        <ele>316.9</ele>
        <time>2014-11-02T11:22:28.000Z</time>
      </trkpt>
      <trkpt lat="47.47735" lon="6.76174">
        <ele>317.6</ele>
        <time>2014-11-02T11:22:29.000Z</time>
      </trkpt>
      <trkpt lat="47.47739" lon="6.76179">
        <ele>318.1</ele>
        <time>2014-11-02T11:22:30.000Z</time>
      </trkpt>
      <trkpt lat="47.47742" lon="6.76185">
        <ele>319.1</ele>
        <time>2014-11-02T11:22:31.000Z</time>
      </trkpt>
      <trkpt lat="47.47746" lon="6.76189">
        <ele>319.2</ele>
        <time>2014-11-02T11:22:32.000Z</time>
      </trkpt>
      <trkpt lat="47.4775" lon="6.76195">
        <ele>319.1</ele>
        <time>2014-11-02T11:22:33.000Z</time>
      </trkpt>
      <trkpt lat="47.47753" lon="6.762">
        <ele>318.6</ele>
        <time>2014-11-02T11:22:34.000Z</time>
      </trkpt>
      <trkpt lat="47.47757" lon="6.76206">
        <ele>318.2</ele>
        <time>2014-11-02T11:22:35.000Z</time>
      </trkpt>
      <trkpt lat="47.4776" lon="6.76211">
        <ele>318.1</ele>
        <time>2014-11-02T11:22:36.000Z</time>
      </trkpt>
      <trkpt lat="47.47763" lon="6.76219">
        <ele>318.3</ele>
        <time>2014-11-02T11:22:37.000Z</time>
      </trkpt>
      <trkpt lat="47.47767" lon="6.76226">
        <ele>317.9</ele>
        <time>2014-11-02T11:22:38.000Z</time>
      </trkpt>
      <trkpt lat="47.47771" lon="6.76232">
        <ele>318.2</ele>
        <time>2014-11-02T11:22:39.000Z</time>
      </trkpt>
      <trkpt lat="47.47775" lon="6.76237">
        <ele>318.1</ele>
        <time>2014-11-02T11:22:40.000Z</time>
      </trkpt>
      <trkpt lat="47.47779" lon="6.76243">
        <ele>317.9</ele>
        <time>2014-11-02T11:22:41.000Z</time>
      </trkpt>
      <trkpt lat="47.47783" lon="6.76248">
        <ele>317.5</ele>
        <time>2014-11-02T11:22:42.000Z</time>
      </trkpt>
      <trkpt lat="47.47788" lon="6.76252">
        <ele>317.8</ele>
        <time>2014-11-02T11:22:43.000Z</time>
      </trkpt>
      <trkpt lat="47.47792" lon="6.76256">
        <ele>318.2</ele>
        <time>2014-11-02T11:22:44.000Z</time>
      </trkpt>
      <trkpt lat="47.47797" lon="6.76259">
        <ele>318.8</ele>
        <time>2014-11-02T11:22:45.000Z</time>
      </trkpt>
      <trkpt lat="47.47802" lon="6.76263">
        <ele>319.1</ele>
        <time>2014-11-02T11:22:46.000Z</time>
      </trkpt>
      <trkpt lat="47.47808" lon="6.76265">
        <ele>319.1</ele>
        <time>2014-11-02T11:22:47.000Z</time>
      </trkpt>
      <trkpt lat="47.47813" lon="6.76267">
        <ele>319.3</ele>
        <time>2014-11-02T11:22:48.000Z</time>
      </trkpt>
      <trkpt lat="47.47818" lon="6.76272">
        <ele>318.3</ele>
        <time>2014-11-02T11:22:49.000Z</time>
      </trkpt>
      <trkpt lat="47.47823" lon="6.76275">
        <ele>318.6</ele>
        <time>2014-11-02T11:22:50.000Z</time>
      </trkpt>
      <trkpt lat="47.47828" lon="6.76278">
        <ele>318.7</ele>
        <time>2014-11-02T11:22:51.000Z</time>
      </trkpt>
      <trkpt lat="47.47833" lon="6.76284">
        <ele>318.5</ele>
        <time>2014-11-02T11:22:52.000Z</time>
      </trkpt>
      <trkpt lat="47.47837" lon="6.76288">
        <ele>318.5</ele>
        <time>2014-11-02T11:22:53.000Z</time>
      </trkpt>
      <trkpt lat="47.47841" lon="6.76294">
        <ele>317.9</ele>
        <time>2014-11-02T11:22:54.000Z</time>
      </trkpt>
      <trkpt lat="47.47846" lon="6.763">
        <ele>317.3</ele>
        <time>2014-11-02T11:22:55.000Z</time>
      </trkpt>
      <trkpt lat="47.47849" lon="6.76306">
        <ele>316.7</ele>
        <time>2014-11-02T11:22:56.000Z</time>
      </trkpt>
      <trkpt lat="47.47853" lon="6.76312">
        <ele>317</ele>
        <time>2014-11-02T11:22:57.000Z</time>
      </trkpt>
      <trkpt lat="47.47856" lon="6.76318">
        <ele>317.2</ele>
        <time>2014-11-02T11:22:58.000Z</time>
      </trkpt>
      <trkpt lat="47.4786" lon="6.76325">
        <ele>317.5</ele>
        <time>2014-11-02T11:22:59.000Z</time>
      </trkpt>
      <trkpt lat="47.47863" lon="6.76333">
        <ele>317.2</ele>
        <time>2014-11-02T11:23:00.000Z</time>
      </trkpt>
      <trkpt lat="47.47867" lon="6.7634">
        <ele>317.5</ele>
        <time>2014-11-02T11:23:01.000Z</time>
      </trkpt>
      <trkpt lat="47.4787" lon="6.76347">
        <ele>317.5</ele>
        <time>2014-11-02T11:23:02.000Z</time>
      </trkpt>
      <trkpt lat="47.47881" lon="6.76364">
        <ele>317</ele>
        <time>2014-11-02T11:23:05.000Z</time>
      </trkpt>
      <trkpt lat="47.47884" lon="6.7637">
        <ele>317.3</ele>
        <time>2014-11-02T11:23:06.000Z</time>
      </trkpt>
      <trkpt lat="47.47886" lon="6.76376">
        <ele>317.5</ele>
        <time>2014-11-02T11:23:07.000Z</time>
      </trkpt>
      <trkpt lat="47.4789" lon="6.76382">
        <ele>317.9</ele>
        <time>2014-11-02T11:23:08.000Z</time>
      </trkpt>
      <trkpt lat="47.47893" lon="6.76389">
        <ele>318</ele>
        <time>2014-11-02T11:23:09.000Z</time>
      </trkpt>
      <trkpt lat="47.47896" lon="6.76396">
        <ele>319</ele>
        <time>2014-11-02T11:23:10.000Z</time>
      </trkpt>
      <trkpt lat="47.47899" lon="6.76403">
        <ele>318.9</ele>
        <time>2014-11-02T11:23:11.000Z</time>
      </trkpt>
      <trkpt lat="47.47902" lon="6.76409">
        <ele>319.3</ele>
        <time>2014-11-02T11:23:12.000Z</time>
      </trkpt>
      <trkpt lat="47.47905" lon="6.76416">
        <ele>319.8</ele>
        <time>2014-11-02T11:23:13.000Z</time>
      </trkpt>
      <trkpt lat="47.47907" lon="6.76422">
        <ele>320.3</ele>
        <time>2014-11-02T11:23:14.000Z</time>
      </trkpt>
      <trkpt lat="47.4791" lon="6.7643">
        <ele>321.2</ele>
        <time>2014-11-02T11:23:15.000Z</time>
      </trkpt>
      <trkpt lat="47.47912" lon="6.76438">
        <ele>319.4</ele>
        <time>2014-11-02T11:23:16.000Z</time>
      </trkpt>
      <trkpt lat="47.47914" lon="6.76445">
        <ele>319.6</ele>
        <time>2014-11-02T11:23:17.000Z</time>
      </trkpt>
      <trkpt lat="47.47916" lon="6.76453">
        <ele>319</ele>
        <time>2014-11-02T11:23:18.000Z</time>
      </trkpt>
      <trkpt lat="47.47918" lon="6.76461">
        <ele>317.5</ele>
        <time>2014-11-02T11:23:19.000Z</time>
      </trkpt>
      <trkpt lat="47.4792" lon="6.76469">
        <ele>315.9</ele>
        <time>2014-11-02T11:23:20.000Z</time>
      </trkpt>
      <trkpt lat="47.47922" lon="6.76476">
        <ele>314.9</ele>
        <time>2014-11-02T11:23:21.000Z</time>
      </trkpt>
      <trkpt lat="47.47925" lon="6.76483">
        <ele>314.7</ele>
        <time>2014-11-02T11:23:22.000Z</time>
      </trkpt>
      <trkpt lat="47.47927" lon="6.7649">
        <ele>315</ele>
        <time>2014-11-02T11:23:23.000Z</time>
      </trkpt>
      <trkpt lat="47.47929" lon="6.76498">
        <ele>315.1</ele>
        <time>2014-11-02T11:23:24.000Z</time>
      </trkpt>
      <trkpt lat="47.4793" lon="6.76506">
        <ele>314.8</ele>
        <time>2014-11-02T11:23:25.000Z</time>
      </trkpt>
      <trkpt lat="47.47932" lon="6.76513">
        <ele>314.9</ele>
        <time>2014-11-02T11:23:26.000Z</time>
      </trkpt>
      <trkpt lat="47.47933" lon="6.76521">
        <ele>315.4</ele>
        <time>2014-11-02T11:23:27.000Z</time>
      </trkpt>
      <trkpt lat="47.47936" lon="6.76528">
        <ele>314.8</ele>
        <time>2014-11-02T11:23:28.000Z</time>
      </trkpt>
      <trkpt lat="47.47937" lon="6.76537">
        <ele>314.9</ele>
        <time>2014-11-02T11:23:29.000Z</time>
      </trkpt>
      <trkpt lat="47.47939" lon="6.76545">
        <ele>314.3</ele>
        <time>2014-11-02T11:23:30.000Z</time>
      </trkpt>
      <trkpt lat="47.47942" lon="6.7655">
        <ele>314.6</ele>
        <time>2014-11-02T11:23:31.000Z</time>
      </trkpt>
      <trkpt lat="47.47944" lon="6.76558">
        <ele>314.7</ele>
        <time>2014-11-02T11:23:32.000Z</time>
      </trkpt>
      <trkpt lat="47.47944" lon="6.76566">
        <ele>314.8</ele>
        <time>2014-11-02T11:23:33.000Z</time>
      </trkpt>
      <trkpt lat="47.47945" lon="6.76575">
        <ele>314.5</ele>
        <time>2014-11-02T11:23:34.000Z</time>
      </trkpt>
      <trkpt lat="47.47947" lon="6.76582">
        <ele>314</ele>
        <time>2014-11-02T11:23:35.000Z</time>
      </trkpt>
      <trkpt lat="47.47947" lon="6.76589">
        <ele>314.9</ele>
        <time>2014-11-02T11:23:36.000Z</time>
      </trkpt>
      <trkpt lat="47.47948" lon="6.76596">
        <ele>315.1</ele>
        <time>2014-11-02T11:23:37.000Z</time>
      </trkpt>
      <trkpt lat="47.47949" lon="6.76602">
        <ele>315.3</ele>
        <time>2014-11-02T11:23:38.000Z</time>
      </trkpt>
      <trkpt lat="47.4795" lon="6.76606">
        <ele>315.7</ele>
        <time>2014-11-02T11:23:39.000Z</time>
      </trkpt>
      <trkpt lat="47.47952" lon="6.76612">
        <ele>315.7</ele>
        <time>2014-11-02T11:23:41.000Z</time>
      </trkpt>
      <trkpt lat="47.47952" lon="6.76614">
        <ele>316.5</ele>
        <time>2014-11-02T11:23:42.000Z</time>
      </trkpt>
      <trkpt lat="47.47953" lon="6.76618">
        <ele>315.5</ele>
        <time>2014-11-02T11:23:45.000Z</time>
      </trkpt>
      <trkpt lat="47.47955" lon="6.76621">
        <ele>316.8</ele>
        <time>2014-11-02T11:23:46.000Z</time>
      </trkpt>
      <trkpt lat="47.47958" lon="6.76624">
        <ele>317.5</ele>
        <time>2014-11-02T11:23:48.000Z</time>
      </trkpt>
      <trkpt lat="47.47961" lon="6.76624">
        <ele>318.9</ele>
        <time>2014-11-02T11:23:49.000Z</time>
      </trkpt>
      <trkpt lat="47.47963" lon="6.76624">
        <ele>320</ele>
        <time>2014-11-02T11:23:50.000Z</time>
      </trkpt>
      <trkpt lat="47.47966" lon="6.7662">
        <ele>319.1</ele>
        <time>2014-11-02T11:23:51.000Z</time>
      </trkpt>
      <trkpt lat="47.47969" lon="6.76618">
        <ele>318.9</ele>
        <time>2014-11-02T11:23:52.000Z</time>
      </trkpt>
      <trkpt lat="47.47973" lon="6.76616">
        <ele>318.9</ele>
        <time>2014-11-02T11:23:53.000Z</time>
      </trkpt>
      <trkpt lat="47.47976" lon="6.76613">
        <ele>319</ele>
        <time>2014-11-02T11:23:54.000Z</time>
      </trkpt>
      <trkpt lat="47.4798" lon="6.76611">
        <ele>318.4</ele>
        <time>2014-11-02T11:23:55.000Z</time>
      </trkpt>
      <trkpt lat="47.47984" lon="6.76605">
        <ele>318</ele>
        <time>2014-11-02T11:23:56.000Z</time>
      </trkpt>
      <trkpt lat="47.47988" lon="6.76602">
        <ele>317.8</ele>
        <time>2014-11-02T11:23:57.000Z</time>
      </trkpt>
      <trkpt lat="47.47991" lon="6.76602">
        <ele>319</ele>
        <time>2014-11-02T11:23:58.000Z</time>
      </trkpt>
      <trkpt lat="47.47995" lon="6.76599">
        <ele>319.4</ele>
        <time>2014-11-02T11:23:59.000Z</time>
      </trkpt>
      <trkpt lat="47.48" lon="6.76598">
        <ele>318.7</ele>
        <time>2014-11-02T11:24:00.000Z</time>
      </trkpt>
      <trkpt lat="47.48003" lon="6.76597">
        <ele>318.7</ele>
        <time>2014-11-02T11:24:01.000Z</time>
      </trkpt>
      <trkpt lat="47.48007" lon="6.76595">
        <ele>318.7</ele>
        <time>2014-11-02T11:24:02.000Z</time>
      </trkpt>
      <trkpt lat="47.48012" lon="6.76594">
        <ele>318.1</ele>
        <time>2014-11-02T11:24:03.000Z</time>
      </trkpt>
      <trkpt lat="47.48043" lon="6.7657">
        <ele>318.9</ele>
        <time>2014-11-02T11:24:11.000Z</time>
      </trkpt>
      <trkpt lat="47.48047" lon="6.76567">
        <ele>320.1</ele>
        <time>2014-11-02T11:24:12.000Z</time>
      </trkpt>
      <trkpt lat="47.4805" lon="6.76564">
        <ele>320.8</ele>
        <time>2014-11-02T11:24:13.001Z</time>
      </trkpt>
      <trkpt lat="47.48053" lon="6.76563">
        <ele>320.2</ele>
        <time>2014-11-02T11:24:14.000Z</time>
      </trkpt>
      <trkpt lat="47.4806" lon="6.76562">
        <ele>320.5</ele>
        <time>2014-11-02T11:24:15.000Z</time>
      </trkpt>
      <trkpt lat="47.48064" lon="6.76557">
        <ele>320.4</ele>
        <time>2014-11-02T11:24:16.000Z</time>
      </trkpt>
      <trkpt lat="47.48069" lon="6.7655">
        <ele>320.2</ele>
        <time>2014-11-02T11:24:17.000Z</time>
      </trkpt>
      <trkpt lat="47.48071" lon="6.76546">
        <ele>321.7</ele>
        <time>2014-11-02T11:24:18.000Z</time>
      </trkpt>
      <trkpt lat="47.48076" lon="6.76542">
        <ele>321.7</ele>
        <time>2014-11-02T11:24:19.001Z</time>
      </trkpt>
      <trkpt lat="47.4808" lon="6.76536">
        <ele>321</ele>
        <time>2014-11-02T11:24:20.000Z</time>
      </trkpt>
      <trkpt lat="47.48084" lon="6.76531">
        <ele>320.9</ele>
        <time>2014-11-02T11:24:21.000Z</time>
      </trkpt>
      <trkpt lat="47.48089" lon="6.76527">
        <ele>321</ele>
        <time>2014-11-02T11:24:22.000Z</time>
      </trkpt>
      <trkpt lat="47.48093" lon="6.76523">
        <ele>320.7</ele>
        <time>2014-11-02T11:24:23.000Z</time>
      </trkpt>
      <trkpt lat="47.48097" lon="6.76519">
        <ele>320.8</ele>
        <time>2014-11-02T11:24:24.000Z</time>
      </trkpt>
      <trkpt lat="47.481" lon="6.76515">
        <ele>321</ele>
        <time>2014-11-02T11:24:25.000Z</time>
      </trkpt>
      <trkpt lat="47.48103" lon="6.76516">
        <ele>321.1</ele>
        <time>2014-11-02T11:24:26.000Z</time>
      </trkpt>
      <trkpt lat="47.48104" lon="6.76526">
        <ele>321.6</ele>
        <time>2014-11-02T11:24:27.000Z</time>
      </trkpt>
      <trkpt lat="47.48108" lon="6.76528">
        <ele>321.8</ele>
        <time>2014-11-02T11:24:28.000Z</time>
      </trkpt>
      <trkpt lat="47.4811" lon="6.76533">
        <ele>321.7</ele>
        <time>2014-11-02T11:24:29.000Z</time>
      </trkpt>
      <trkpt lat="47.48113" lon="6.76538">
        <ele>322.4</ele>
        <time>2014-11-02T11:24:30.000Z</time>
      </trkpt>
      <trkpt lat="47.48116" lon="6.76543">
        <ele>321</ele>
        <time>2014-11-02T11:24:31.000Z</time>
      </trkpt>
      <trkpt lat="47.48116" lon="6.76551">
        <ele>321.5</ele>
        <time>2014-11-02T11:24:32.000Z</time>
      </trkpt>
      <trkpt lat="47.48116" lon="6.76554">
        <ele>321.1</ele>
        <time>2014-11-02T11:24:33.000Z</time>
      </trkpt>
      <trkpt lat="47.48115" lon="6.76559">
        <ele>321</ele>
        <time>2014-11-02T11:24:34.000Z</time>
      </trkpt>
      <trkpt lat="47.48108" lon="6.76565">
        <ele>322.7</ele>
        <time>2014-11-02T11:24:35.000Z</time>
      </trkpt>
      <trkpt lat="47.48104" lon="6.76571">
        <ele>322.3</ele>
        <time>2014-11-02T11:24:36.000Z</time>
      </trkpt>
      <trkpt lat="47.48101" lon="6.76578">
        <ele>321.9</ele>
        <time>2014-11-02T11:24:37.000Z</time>
      </trkpt>
      <trkpt lat="47.48098" lon="6.76582">
        <ele>322.2</ele>
        <time>2014-11-02T11:24:38.000Z</time>
      </trkpt>
      <trkpt lat="47.48096" lon="6.7659">
        <ele>321.5</ele>
        <time>2014-11-02T11:24:39.000Z</time>
      </trkpt>
      <trkpt lat="47.48095" lon="6.766">
        <ele>321</ele>
        <time>2014-11-02T11:24:40.000Z</time>
      </trkpt>
      <trkpt lat="47.48095" lon="6.76608">
        <ele>321</ele>
        <time>2014-11-02T11:24:41.000Z</time>
      </trkpt>
      <trkpt lat="47.48095" lon="6.76616">
        <ele>321.1</ele>
        <time>2014-11-02T11:24:42.000Z</time>
      </trkpt>
      <trkpt lat="47.48096" lon="6.76624">
        <ele>321</ele>
        <time>2014-11-02T11:24:43.000Z</time>
      </trkpt>
      <trkpt lat="47.481" lon="6.76633">
        <ele>321.8</ele>
        <time>2014-11-02T11:24:44.000Z</time>
      </trkpt>
      <trkpt lat="47.48103" lon="6.76639">
        <ele>320.8</ele>
        <time>2014-11-02T11:24:45.000Z</time>
      </trkpt>
      <trkpt lat="47.48106" lon="6.76644">
        <ele>322</ele>
        <time>2014-11-02T11:24:46.000Z</time>
      </trkpt>
      <trkpt lat="47.48109" lon="6.76651">
        <ele>321.8</ele>
        <time>2014-11-02T11:24:47.000Z</time>
      </trkpt>
      <trkpt lat="47.48112" lon="6.76658">
        <ele>321.6</ele>
        <time>2014-11-02T11:24:48.000Z</time>
      </trkpt>
      <trkpt lat="47.48116" lon="6.76664">
        <ele>320.8</ele>
        <time>2014-11-02T11:24:49.000Z</time>
      </trkpt>
      <trkpt lat="47.48121" lon="6.7667">
        <ele>320.7</ele>
        <time>2014-11-02T11:24:50.000Z</time>
      </trkpt>
      <trkpt lat="47.48126" lon="6.76678">
        <ele>319.3</ele>
        <time>2014-11-02T11:24:51.000Z</time>
      </trkpt>
      <trkpt lat="47.4813" lon="6.76684">
        <ele>318.8</ele>
        <time>2014-11-02T11:24:52.000Z</time>
      </trkpt>
      <trkpt lat="47.48135" lon="6.76691">
        <ele>318.4</ele>
        <time>2014-11-02T11:24:53.000Z</time>
      </trkpt>
      <trkpt lat="47.48139" lon="6.76699">
        <ele>318.5</ele>
        <time>2014-11-02T11:24:54.000Z</time>
      </trkpt>
      <trkpt lat="47.48143" lon="6.76708">
        <ele>318.8</ele>
        <time>2014-11-02T11:24:55.000Z</time>
      </trkpt>
      <trkpt lat="47.48145" lon="6.76718">
        <ele>319.9</ele>
        <time>2014-11-02T11:24:56.000Z</time>
      </trkpt>
      <trkpt lat="47.48148" lon="6.76727">
        <ele>319.7</ele>
        <time>2014-11-02T11:24:57.000Z</time>
      </trkpt>
      <trkpt lat="47.48153" lon="6.76735">
        <ele>318.7</ele>
        <time>2014-11-02T11:24:58.000Z</time>
      </trkpt>
      <trkpt lat="47.48157" lon="6.76744">
        <ele>318.9</ele>
        <time>2014-11-02T11:24:59.000Z</time>
      </trkpt>
      <trkpt lat="47.48162" lon="6.7675">
        <ele>318.7</ele>
        <time>2014-11-02T11:25:00.000Z</time>
      </trkpt>
      <trkpt lat="47.48166" lon="6.76755">
        <ele>319.4</ele>
        <time>2014-11-02T11:25:01.000Z</time>
      </trkpt>
      <trkpt lat="47.48171" lon="6.76763">
        <ele>319.1</ele>
        <time>2014-11-02T11:25:02.000Z</time>
      </trkpt>
      <trkpt lat="47.48176" lon="6.76769">
        <ele>319</ele>
        <time>2014-11-02T11:25:03.000Z</time>
      </trkpt>
      <trkpt lat="47.48191" lon="6.76785">
        <ele>317.1</ele>
        <time>2014-11-02T11:25:06.000Z</time>
      </trkpt>
      <trkpt lat="47.48197" lon="6.76787">
        <ele>316.9</ele>
        <time>2014-11-02T11:25:07.000Z</time>
      </trkpt>
      <trkpt lat="47.48201" lon="6.7679">
        <ele>317.5</ele>
        <time>2014-11-02T11:25:08.000Z</time>
      </trkpt>
      <trkpt lat="47.48206" lon="6.76792">
        <ele>318.3</ele>
        <time>2014-11-02T11:25:09.000Z</time>
      </trkpt>
      <trkpt lat="47.48212" lon="6.76794">
        <ele>317.8</ele>
        <time>2014-11-02T11:25:10.000Z</time>
      </trkpt>
      <trkpt lat="47.48218" lon="6.76798">
        <ele>316.3</ele>
        <time>2014-11-02T11:25:11.000Z</time>
      </trkpt>
      <trkpt lat="47.48224" lon="6.768">
        <ele>316.1</ele>
        <time>2014-11-02T11:25:12.000Z</time>
      </trkpt>
      <trkpt lat="47.48227" lon="6.76803">
        <ele>314.2</ele>
        <time>2014-11-02T11:25:13.000Z</time>
      </trkpt>
      <trkpt lat="47.48234" lon="6.76804">
        <ele>313.6</ele>
        <time>2014-11-02T11:25:14.000Z</time>
      </trkpt>
      <trkpt lat="47.48239" lon="6.76808">
        <ele>314.7</ele>
        <time>2014-11-02T11:25:15.000Z</time>
      </trkpt>
      <trkpt lat="47.48244" lon="6.76811">
        <ele>315.1</ele>
        <time>2014-11-02T11:25:16.000Z</time>
      </trkpt>
      <trkpt lat="47.48249" lon="6.76815">
        <ele>315.2</ele>
        <time>2014-11-02T11:25:17.000Z</time>
      </trkpt>
      <trkpt lat="47.48253" lon="6.7682">
        <ele>314.3</ele>
        <time>2014-11-02T11:25:18.000Z</time>
      </trkpt>
      <trkpt lat="47.48257" lon="6.76826">
        <ele>313.6</ele>
        <time>2014-11-02T11:25:19.000Z</time>
      </trkpt>
      <trkpt lat="47.48261" lon="6.76832">
        <ele>314.4</ele>
        <time>2014-11-02T11:25:20.000Z</time>
      </trkpt>
      <trkpt lat="47.48265" lon="6.76837">
        <ele>315</ele>
        <time>2014-11-02T11:25:20.999Z</time>
      </trkpt>
      <trkpt lat="47.48269" lon="6.76843">
        <ele>315</ele>
        <time>2014-11-02T11:25:22.000Z</time>
      </trkpt>
      <trkpt lat="47.48274" lon="6.76849">
        <ele>315</ele>
        <time>2014-11-02T11:25:23.000Z</time>
      </trkpt>
      <trkpt lat="47.48278" lon="6.76855">
        <ele>314.6</ele>
        <time>2014-11-02T11:25:24.000Z</time>
      </trkpt>
      <trkpt lat="47.48282" lon="6.7686">
        <ele>315.8</ele>
        <time>2014-11-02T11:25:25.000Z</time>
      </trkpt>
      <trkpt lat="47.48286" lon="6.76866">
        <ele>315.6</ele>
        <time>2014-11-02T11:25:26.000Z</time>
      </trkpt>
      <trkpt lat="47.48289" lon="6.76873">
        <ele>315.4</ele>
        <time>2014-11-02T11:25:27.000Z</time>
      </trkpt>
      <trkpt lat="47.48293" lon="6.76877">
        <ele>315.7</ele>
        <time>2014-11-02T11:25:28.000Z</time>
      </trkpt>
      <trkpt lat="47.48296" lon="6.7688">
        <ele>315.9</ele>
        <time>2014-11-02T11:25:29.000Z</time>
      </trkpt>
      <trkpt lat="47.48301" lon="6.76884">
        <ele>315.1</ele>
        <time>2014-11-02T11:25:30.000Z</time>
      </trkpt>
      <trkpt lat="47.48306" lon="6.76888">
        <ele>315</ele>
        <time>2014-11-02T11:25:30.999Z</time>
      </trkpt>
      <trkpt lat="47.4831" lon="6.76892">
        <ele>315.4</ele>
        <time>2014-11-02T11:25:32.000Z</time>
      </trkpt>
      <trkpt lat="47.48315" lon="6.76896">
        <ele>315.4</ele>
        <time>2014-11-02T11:25:32.999Z</time>
      </trkpt>
      <trkpt lat="47.48318" lon="6.76901">
        <ele>316.5</ele>
        <time>2014-11-02T11:25:34.000Z</time>
      </trkpt>
      <trkpt lat="47.48322" lon="6.76904">
        <ele>318.1</ele>
        <time>2014-11-02T11:25:35.000Z</time>
      </trkpt>
      <trkpt lat="47.48326" lon="6.76908">
        <ele>317.3</ele>
        <time>2014-11-02T11:25:36.000Z</time>
      </trkpt>
      <trkpt lat="47.48332" lon="6.76911">
        <ele>318.1</ele>
        <time>2014-11-02T11:25:37.000Z</time>
      </trkpt>
      <trkpt lat="47.48336" lon="6.76915">
        <ele>318</ele>
        <time>2014-11-02T11:25:37.999Z</time>
      </trkpt>
      <trkpt lat="47.48342" lon="6.76918">
        <ele>317.1</ele>
        <time>2014-11-02T11:25:39.000Z</time>
      </trkpt>
      <trkpt lat="47.48347" lon="6.76922">
        <ele>317.3</ele>
        <time>2014-11-02T11:25:40.000Z</time>
      </trkpt>
      <trkpt lat="47.48353" lon="6.76925">
        <ele>317.4</ele>
        <time>2014-11-02T11:25:41.000Z</time>
      </trkpt>
      <trkpt lat="47.48358" lon="6.76928">
        <ele>317.5</ele>
        <time>2014-11-02T11:25:42.000Z</time>
      </trkpt>
      <trkpt lat="47.48363" lon="6.76931">
        <ele>317.9</ele>
        <time>2014-11-02T11:25:43.000Z</time>
      </trkpt>
      <trkpt lat="47.48368" lon="6.76934">
        <ele>317.2</ele>
        <time>2014-11-02T11:25:44.000Z</time>
      </trkpt>
      <trkpt lat="47.48373" lon="6.76937">
        <ele>317.6</ele>
        <time>2014-11-02T11:25:45.000Z</time>
      </trkpt>
      <trkpt lat="47.48378" lon="6.76941">
        <ele>317.9</ele>
        <time>2014-11-02T11:25:46.000Z</time>
      </trkpt>
      <trkpt lat="47.48382" lon="6.76944">
        <ele>318.4</ele>
        <time>2014-11-02T11:25:47.000Z</time>
      </trkpt>
      <trkpt lat="47.48387" lon="6.76947">
        <ele>318.1</ele>
        <time>2014-11-02T11:25:48.000Z</time>
      </trkpt>
      <trkpt lat="47.48392" lon="6.7695">
        <ele>317.9</ele>
        <time>2014-11-02T11:25:49.000Z</time>
      </trkpt>
      <trkpt lat="47.48398" lon="6.76953">
        <ele>318.5</ele>
        <time>2014-11-02T11:25:50.000Z</time>
      </trkpt>
      <trkpt lat="47.48402" lon="6.76956">
        <ele>318</ele>
        <time>2014-11-02T11:25:51.000Z</time>
      </trkpt>
      <trkpt lat="47.48407" lon="6.76959">
        <ele>317.7</ele>
        <time>2014-11-02T11:25:52.000Z</time>
      </trkpt>
      <trkpt lat="47.48411" lon="6.76961">
        <ele>317.4</ele>
        <time>2014-11-02T11:25:53.000Z</time>
      </trkpt>
      <trkpt lat="47.48417" lon="6.76963">
        <ele>318.3</ele>
        <time>2014-11-02T11:25:54.000Z</time>
      </trkpt>
      <trkpt lat="47.48422" lon="6.76965">
        <ele>320.1</ele>
        <time>2014-11-02T11:25:55.000Z</time>
      </trkpt>
      <trkpt lat="47.48427" lon="6.76969">
        <ele>320.3</ele>
        <time>2014-11-02T11:25:56.000Z</time>
      </trkpt>
      <trkpt lat="47.48432" lon="6.7697">
        <ele>319.3</ele>
        <time>2014-11-02T11:25:57.000Z</time>
      </trkpt>
      <trkpt lat="47.48436" lon="6.76973">
        <ele>319.2</ele>
        <time>2014-11-02T11:25:58.000Z</time>
      </trkpt>
      <trkpt lat="47.4844" lon="6.76976">
        <ele>320</ele>
        <time>2014-11-02T11:25:59.000Z</time>
      </trkpt>
      <trkpt lat="47.48445" lon="6.7698">
        <ele>321</ele>
        <time>2014-11-02T11:26:00.000Z</time>
      </trkpt>
      <trkpt lat="47.48449" lon="6.76984">
        <ele>320.5</ele>
        <time>2014-11-02T11:26:01.000Z</time>
      </trkpt>
      <trkpt lat="47.48455" lon="6.76988">
        <ele>320.3</ele>
        <time>2014-11-02T11:26:02.000Z</time>
      </trkpt>
      <trkpt lat="47.4846" lon="6.76992">
        <ele>320.4</ele>
        <time>2014-11-02T11:26:03.000Z</time>
      </trkpt>
      <trkpt lat="47.485" lon="6.77019">
        <ele>319.6</ele>
        <time>2014-11-02T11:26:11.000Z</time>
      </trkpt>
      <trkpt lat="47.48505" lon="6.77021">
        <ele>319.2</ele>
        <time>2014-11-02T11:26:12.000Z</time>
      </trkpt>
      <trkpt lat="47.48508" lon="6.77023">
        <ele>320.4</ele>
        <time>2014-11-02T11:26:13.000Z</time>
      </trkpt>
      <trkpt lat="47.48511" lon="6.77026">
        <ele>321</ele>
        <time>2014-11-02T11:26:14.000Z</time>
      </trkpt>
      <trkpt lat="47.48515" lon="6.7703">
        <ele>320.4</ele>
        <time>2014-11-02T11:26:15.000Z</time>
      </trkpt>
      <trkpt lat="47.48519" lon="6.77035">
        <ele>320.8</ele>
        <time>2014-11-02T11:26:16.000Z</time>
      </trkpt>
      <trkpt lat="47.48524" lon="6.7704">
        <ele>318.9</ele>
        <time>2014-11-02T11:26:17.000Z</time>
      </trkpt>
      <trkpt lat="47.48527" lon="6.77044">
        <ele>318.1</ele>
        <time>2014-11-02T11:26:18.000Z</time>
      </trkpt>
      <trkpt lat="47.48533" lon="6.77047">
        <ele>318.4</ele>
        <time>2014-11-02T11:26:19.000Z</time>
      </trkpt>
      <trkpt lat="47.48538" lon="6.77047">
        <ele>318</ele>
        <time>2014-11-02T11:26:20.000Z</time>
      </trkpt>
      <trkpt lat="47.48543" lon="6.7705">
        <ele>318.3</ele>
        <time>2014-11-02T11:26:21.000Z</time>
      </trkpt>
      <trkpt lat="47.48548" lon="6.77052">
        <ele>318.5</ele>
        <time>2014-11-02T11:26:22.000Z</time>
      </trkpt>
      <trkpt lat="47.48552" lon="6.77054">
        <ele>318.6</ele>
        <time>2014-11-02T11:26:23.001Z</time>
      </trkpt>
      <trkpt lat="47.48558" lon="6.77055">
        <ele>319.1</ele>
        <time>2014-11-02T11:26:24.000Z</time>
      </trkpt>
      <trkpt lat="47.48563" lon="6.77059">
        <ele>319.9</ele>
        <time>2014-11-02T11:26:25.000Z</time>
      </trkpt>
      <trkpt lat="47.48567" lon="6.77061">
        <ele>319.9</ele>
        <time>2014-11-02T11:26:26.000Z</time>
      </trkpt>
      <trkpt lat="47.48572" lon="6.77063">
        <ele>320.2</ele>
        <time>2014-11-02T11:26:27.000Z</time>
      </trkpt>
      <trkpt lat="47.48577" lon="6.77066">
        <ele>318.5</ele>
        <time>2014-11-02T11:26:28.000Z</time>
      </trkpt>
      <trkpt lat="47.48582" lon="6.7707">
        <ele>317.9</ele>
        <time>2014-11-02T11:26:29.000Z</time>
      </trkpt>
      <trkpt lat="47.48587" lon="6.77072">
        <ele>317.6</ele>
        <time>2014-11-02T11:26:30.000Z</time>
      </trkpt>
      <trkpt lat="47.48593" lon="6.77075">
        <ele>318.1</ele>
        <time>2014-11-02T11:26:31.000Z</time>
      </trkpt>
      <trkpt lat="47.48598" lon="6.77077">
        <ele>317.9</ele>
        <time>2014-11-02T11:26:32.000Z</time>
      </trkpt>
      <trkpt lat="47.48602" lon="6.77082">
        <ele>318.4</ele>
        <time>2014-11-02T11:26:33.000Z</time>
      </trkpt>
      <trkpt lat="47.48607" lon="6.77085">
        <ele>318.1</ele>
        <time>2014-11-02T11:26:34.000Z</time>
      </trkpt>
      <trkpt lat="47.48611" lon="6.77086">
        <ele>318.7</ele>
        <time>2014-11-02T11:26:35.000Z</time>
      </trkpt>
      <trkpt lat="47.48616" lon="6.77088">
        <ele>319.9</ele>
        <time>2014-11-02T11:26:36.000Z</time>
      </trkpt>
      <trkpt lat="47.48621" lon="6.7709">
        <ele>319.7</ele>
        <time>2014-11-02T11:26:37.000Z</time>
      </trkpt>
      <trkpt lat="47.48626" lon="6.77093">
        <ele>319.4</ele>
        <time>2014-11-02T11:26:38.000Z</time>
      </trkpt>
      <trkpt lat="47.4863" lon="6.77098">
        <ele>318.6</ele>
        <time>2014-11-02T11:26:39.000Z</time>
      </trkpt>
      <trkpt lat="47.48635" lon="6.77102">
        <ele>318.1</ele>
        <time>2014-11-02T11:26:40.000Z</time>
      </trkpt>
      <trkpt lat="47.4864" lon="6.77107">
        <ele>317.8</ele>
        <time>2014-11-02T11:26:41.000Z</time>
      </trkpt>
      <trkpt lat="47.48644" lon="6.77111">
        <ele>317.7</ele>
        <time>2014-11-02T11:26:42.000Z</time>
      </trkpt>
      <trkpt lat="47.48649" lon="6.77117">
        <ele>317.6</ele>
        <time>2014-11-02T11:26:43.000Z</time>
      </trkpt>
      <trkpt lat="47.48654" lon="6.77121">
        <ele>316.8</ele>
        <time>2014-11-02T11:26:44.000Z</time>
      </trkpt>
      <trkpt lat="47.48659" lon="6.77125">
        <ele>316.6</ele>
        <time>2014-11-02T11:26:45.000Z</time>
      </trkpt>
      <trkpt lat="47.48662" lon="6.77131">
        <ele>316.6</ele>
        <time>2014-11-02T11:26:46.000Z</time>
      </trkpt>
      <trkpt lat="47.48667" lon="6.77135">
        <ele>316.6</ele>
        <time>2014-11-02T11:26:47.000Z</time>
      </trkpt>
      <trkpt lat="47.48671" lon="6.7714">
        <ele>316.7</ele>
        <time>2014-11-02T11:26:47.999Z</time>
      </trkpt>
      <trkpt lat="47.48675" lon="6.77146">
        <ele>318</ele>
        <time>2014-11-02T11:26:49.000Z</time>
      </trkpt>
      <trkpt lat="47.48681" lon="6.77152">
        <ele>315.8</ele>
        <time>2014-11-02T11:26:50.000Z</time>
      </trkpt>
      <trkpt lat="47.48686" lon="6.77158">
        <ele>313.2</ele>
        <time>2014-11-02T11:26:51.000Z</time>
      </trkpt>
      <trkpt lat="47.48691" lon="6.77163">
        <ele>314.8</ele>
        <time>2014-11-02T11:26:52.000Z</time>
      </trkpt>
      <trkpt lat="47.48696" lon="6.77166">
        <ele>314.5</ele>
        <time>2014-11-02T11:26:53.000Z</time>
      </trkpt>
      <trkpt lat="47.48701" lon="6.77171">
        <ele>314.4</ele>
        <time>2014-11-02T11:26:54.000Z</time>
      </trkpt>
      <trkpt lat="47.48706" lon="6.77176">
        <ele>315.5</ele>
        <time>2014-11-02T11:26:55.000Z</time>
      </trkpt>
      <trkpt lat="47.48712" lon="6.77179">
        <ele>315.3</ele>
        <time>2014-11-02T11:26:56.000Z</time>
      </trkpt>
      <trkpt lat="47.48717" lon="6.77184">
        <ele>314.6</ele>
        <time>2014-11-02T11:26:56.999Z</time>
      </trkpt>
      <trkpt lat="47.48721" lon="6.77186">
        <ele>315.6</ele>
        <time>2014-11-02T11:26:58.000Z</time>
      </trkpt>
      <trkpt lat="47.48725" lon="6.7719">
        <ele>315.7</ele>
        <time>2014-11-02T11:26:59.000Z</time>
      </trkpt>
      <trkpt lat="47.4873" lon="6.77195">
        <ele>315.9</ele>
        <time>2014-11-02T11:27:00.000Z</time>
      </trkpt>
      <trkpt lat="47.48734" lon="6.77199">
        <ele>316</ele>
        <time>2014-11-02T11:27:01.000Z</time>
      </trkpt>
      <trkpt lat="47.48738" lon="6.77203">
        <ele>316.2</ele>
        <time>2014-11-02T11:27:01.999Z</time>
      </trkpt>
      <trkpt lat="47.48743" lon="6.77206">
        <ele>315.9</ele>
        <time>2014-11-02T11:27:03.000Z</time>
      </trkpt>
      <trkpt lat="47.4878" lon="6.77234">
        <ele>316.9</ele>
        <time>2014-11-02T11:27:11.000Z</time>
      </trkpt>
      <trkpt lat="47.48784" lon="6.77239">
        <ele>317.6</ele>
        <time>2014-11-02T11:27:12.000Z</time>
      </trkpt>
      <trkpt lat="47.48789" lon="6.77243">
        <ele>316.9</ele>
        <time>2014-11-02T11:27:13.000Z</time>
      </trkpt>
      <trkpt lat="47.48794" lon="6.77247">
        <ele>316.6</ele>
        <time>2014-11-02T11:27:14.002Z</time>
      </trkpt>
      <trkpt lat="47.48799" lon="6.77249">
        <ele>318</ele>
        <time>2014-11-02T11:27:15.002Z</time>
      </trkpt>
      <trkpt lat="47.48803" lon="6.77253">
        <ele>317.5</ele>
        <time>2014-11-02T11:27:16.000Z</time>
      </trkpt>
      <trkpt lat="47.48808" lon="6.77256">
        <ele>317.6</ele>
        <time>2014-11-02T11:27:17.000Z</time>
      </trkpt>
      <trkpt lat="47.48812" lon="6.7726">
        <ele>317.9</ele>
        <time>2014-11-02T11:27:18.001Z</time>
      </trkpt>
      <trkpt lat="47.48817" lon="6.77263">
        <ele>318.5</ele>
        <time>2014-11-02T11:27:19.000Z</time>
      </trkpt>
      <trkpt lat="47.48821" lon="6.77265">
        <ele>320.3</ele>
        <time>2014-11-02T11:27:20.000Z</time>
      </trkpt>
      <trkpt lat="47.48825" lon="6.7727">
        <ele>320.5</ele>
        <time>2014-11-02T11:27:21.000Z</time>
      </trkpt>
      <trkpt lat="47.48831" lon="6.77275">
        <ele>320.1</ele>
        <time>2014-11-02T11:27:22.000Z</time>
      </trkpt>
      <trkpt lat="47.48835" lon="6.77279">
        <ele>320.3</ele>
        <time>2014-11-02T11:27:23.000Z</time>
      </trkpt>
      <trkpt lat="47.4884" lon="6.77281">
        <ele>319.6</ele>
        <time>2014-11-02T11:27:24.000Z</time>
      </trkpt>
      <trkpt lat="47.48845" lon="6.77283">
        <ele>319.5</ele>
        <time>2014-11-02T11:27:25.000Z</time>
      </trkpt>
      <trkpt lat="47.48851" lon="6.77286">
        <ele>319.5</ele>
        <time>2014-11-02T11:27:26.000Z</time>
      </trkpt>
      <trkpt lat="47.48857" lon="6.7729">
        <ele>319.5</ele>
        <time>2014-11-02T11:27:27.000Z</time>
      </trkpt>
      <trkpt lat="47.48862" lon="6.77292">
        <ele>319.5</ele>
        <time>2014-11-02T11:27:28.000Z</time>
      </trkpt>
      <trkpt lat="47.48867" lon="6.77294">
        <ele>319.3</ele>
        <time>2014-11-02T11:27:29.000Z</time>
      </trkpt>
      <trkpt lat="47.48873" lon="6.77295">
        <ele>319.3</ele>
        <time>2014-11-02T11:27:30.000Z</time>
      </trkpt>
      <trkpt lat="47.48878" lon="6.77297">
        <ele>319.2</ele>
        <time>2014-11-02T11:27:31.000Z</time>
      </trkpt>
      <trkpt lat="47.48883" lon="6.77298">
        <ele>318.9</ele>
        <time>2014-11-02T11:27:32.000Z</time>
      </trkpt>
      <trkpt lat="47.48889" lon="6.773">
        <ele>318.7</ele>
        <time>2014-11-02T11:27:33.000Z</time>
      </trkpt>
      <trkpt lat="47.48894" lon="6.77301">
        <ele>319</ele>
        <time>2014-11-02T11:27:34.000Z</time>
      </trkpt>
      <trkpt lat="47.48899" lon="6.77302">
        <ele>318.7</ele>
        <time>2014-11-02T11:27:35.000Z</time>
      </trkpt>
      <trkpt lat="47.48905" lon="6.77304">
        <ele>318.5</ele>
        <time>2014-11-02T11:27:36.000Z</time>
      </trkpt>
      <trkpt lat="47.48909" lon="6.77307">
        <ele>318.8</ele>
        <time>2014-11-02T11:27:37.000Z</time>
      </trkpt>
      <trkpt lat="47.48914" lon="6.77308">
        <ele>318.8</ele>
        <time>2014-11-02T11:27:38.000Z</time>
      </trkpt>
      <trkpt lat="47.48919" lon="6.7731">
        <ele>318.9</ele>
        <time>2014-11-02T11:27:39.000Z</time>
      </trkpt>
      <trkpt lat="47.48924" lon="6.77312">
        <ele>318.7</ele>
        <time>2014-11-02T11:27:40.000Z</time>
      </trkpt>
      <trkpt lat="47.48929" lon="6.77315">
        <ele>319.2</ele>
        <time>2014-11-02T11:27:41.000Z</time>
      </trkpt>
      <trkpt lat="47.48934" lon="6.77317">
        <ele>319.4</ele>
        <time>2014-11-02T11:27:42.000Z</time>
      </trkpt>
      <trkpt lat="47.48939" lon="6.77319">
        <ele>319.2</ele>
        <time>2014-11-02T11:27:43.000Z</time>
      </trkpt>
      <trkpt lat="47.48944" lon="6.77321">
        <ele>319</ele>
        <time>2014-11-02T11:27:44.000Z</time>
      </trkpt>
      <trkpt lat="47.48949" lon="6.77322">
        <ele>318.9</ele>
        <time>2014-11-02T11:27:45.000Z</time>
      </trkpt>
      <trkpt lat="47.48954" lon="6.77325">
        <ele>318.7</ele>
        <time>2014-11-02T11:27:46.000Z</time>
      </trkpt>
      <trkpt lat="47.48959" lon="6.77326">
        <ele>318.6</ele>
        <time>2014-11-02T11:27:47.000Z</time>
      </trkpt>
      <trkpt lat="47.48965" lon="6.77327">
        <ele>317.8</ele>
        <time>2014-11-02T11:27:48.000Z</time>
      </trkpt>
      <trkpt lat="47.48971" lon="6.77328">
        <ele>317.5</ele>
        <time>2014-11-02T11:27:49.000Z</time>
      </trkpt>
      <trkpt lat="47.48976" lon="6.77327">
        <ele>318.1</ele>
        <time>2014-11-02T11:27:50.000Z</time>
      </trkpt>
      <trkpt lat="47.48981" lon="6.77327">
        <ele>318.1</ele>
        <time>2014-11-02T11:27:51.000Z</time>
      </trkpt>
      <trkpt lat="47.48987" lon="6.77328">
        <ele>317.7</ele>
        <time>2014-11-02T11:27:52.000Z</time>
      </trkpt>
      <trkpt lat="47.48992" lon="6.77329">
        <ele>316.9</ele>
        <time>2014-11-02T11:27:53.000Z</time>
      </trkpt>
      <trkpt lat="47.48998" lon="6.7733">
        <ele>316.7</ele>
        <time>2014-11-02T11:27:54.000Z</time>
      </trkpt>
      <trkpt lat="47.49003" lon="6.7733">
        <ele>316.8</ele>
        <time>2014-11-02T11:27:55.000Z</time>
      </trkpt>
      <trkpt lat="47.49008" lon="6.77329">
        <ele>317.1</ele>
        <time>2014-11-02T11:27:56.000Z</time>
      </trkpt>
      <trkpt lat="47.49014" lon="6.7733">
        <ele>317.5</ele>
        <time>2014-11-02T11:27:57.000Z</time>
      </trkpt>
      <trkpt lat="47.49019" lon="6.7733">
        <ele>317.4</ele>
        <time>2014-11-02T11:27:58.000Z</time>
      </trkpt>
      <trkpt lat="47.49024" lon="6.77331">
        <ele>317.8</ele>
        <time>2014-11-02T11:27:59.000Z</time>
      </trkpt>
      <trkpt lat="47.49029" lon="6.77331">
        <ele>318.1</ele>
        <time>2014-11-02T11:28:00.000Z</time>
      </trkpt>
      <trkpt lat="47.49034" lon="6.77331">
        <ele>318.4</ele>
        <time>2014-11-02T11:28:01.000Z</time>
      </trkpt>
      <trkpt lat="47.49039" lon="6.77332">
        <ele>318.7</ele>
        <time>2014-11-02T11:28:02.000Z</time>
      </trkpt>
      <trkpt lat="47.49077" lon="6.77336">
        <ele>318.1</ele>
        <time>2014-11-02T11:28:09.870Z</time>
      </trkpt>
      <trkpt lat="47.49085" lon="6.77334">
        <ele>318.6</ele>
        <time>2014-11-02T11:28:11.000Z</time>
      </trkpt>
      <trkpt lat="47.4909" lon="6.77333">
        <ele>318.1</ele>
        <time>2014-11-02T11:28:12.000Z</time>
      </trkpt>
      <trkpt lat="47.49094" lon="6.77335">
        <ele>318.2</ele>
        <time>2014-11-02T11:28:13.000Z</time>
      </trkpt>
      <trkpt lat="47.49099" lon="6.77336">
        <ele>318.2</ele>
        <time>2014-11-02T11:28:14.000Z</time>
      </trkpt>
      <trkpt lat="47.49104" lon="6.77336">
        <ele>317.9</ele>
        <time>2014-11-02T11:28:15.000Z</time>
      </trkpt>
      <trkpt lat="47.49108" lon="6.77336">
        <ele>317</ele>
        <time>2014-11-02T11:28:16.000Z</time>
      </trkpt>
      <trkpt lat="47.49113" lon="6.77336">
        <ele>317.5</ele>
        <time>2014-11-02T11:28:17.000Z</time>
      </trkpt>
      <trkpt lat="47.49117" lon="6.77337">
        <ele>317.4</ele>
        <time>2014-11-02T11:28:18.000Z</time>
      </trkpt>
      <trkpt lat="47.49122" lon="6.77336">
        <ele>318</ele>
        <time>2014-11-02T11:28:19.000Z</time>
      </trkpt>
      <trkpt lat="47.49126" lon="6.77336">
        <ele>317.6</ele>
        <time>2014-11-02T11:28:20.000Z</time>
      </trkpt>
      <trkpt lat="47.4913" lon="6.77337">
        <ele>317.7</ele>
        <time>2014-11-02T11:28:21.000Z</time>
      </trkpt>
      <trkpt lat="47.49135" lon="6.77337">
        <ele>318</ele>
        <time>2014-11-02T11:28:22.000Z</time>
      </trkpt>
      <trkpt lat="47.49138" lon="6.77338">
        <ele>318.2</ele>
        <time>2014-11-02T11:28:23.000Z</time>
      </trkpt>
      <trkpt lat="47.49142" lon="6.77338">
        <ele>318.5</ele>
        <time>2014-11-02T11:28:24.000Z</time>
      </trkpt>
      <trkpt lat="47.49146" lon="6.77337">
        <ele>318.7</ele>
        <time>2014-11-02T11:28:25.000Z</time>
      </trkpt>
      <trkpt lat="47.49149" lon="6.77336">
        <ele>317.9</ele>
        <time>2014-11-02T11:28:26.000Z</time>
      </trkpt>
      <trkpt lat="47.49153" lon="6.77336">
        <ele>318.5</ele>
        <time>2014-11-02T11:28:27.000Z</time>
      </trkpt>
      <trkpt lat="47.49156" lon="6.77336">
        <ele>318.1</ele>
        <time>2014-11-02T11:28:28.000Z</time>
      </trkpt>
      <trkpt lat="47.49159" lon="6.77336">
        <ele>318.2</ele>
        <time>2014-11-02T11:28:29.000Z</time>
      </trkpt>
      <trkpt lat="47.49163" lon="6.77336">
        <ele>318.3</ele>
        <time>2014-11-02T11:28:30.000Z</time>
      </trkpt>
      <trkpt lat="47.49167" lon="6.77336">
        <ele>317.8</ele>
        <time>2014-11-02T11:28:31.000Z</time>
      </trkpt>
      <trkpt lat="47.4917" lon="6.77337">
        <ele>318.2</ele>
        <time>2014-11-02T11:28:32.000Z</time>
      </trkpt>
      <trkpt lat="47.49174" lon="6.77337">
        <ele>318.2</ele>
        <time>2014-11-02T11:28:33.000Z</time>
      </trkpt>
      <trkpt lat="47.49177" lon="6.77338">
        <ele>318.1</ele>
        <time>2014-11-02T11:28:34.000Z</time>
      </trkpt>
      <trkpt lat="47.49181" lon="6.77338">
        <ele>318.1</ele>
        <time>2014-11-02T11:28:35.000Z</time>
      </trkpt>
      <trkpt lat="47.49184" lon="6.77338">
        <ele>318</ele>
        <time>2014-11-02T11:28:36.000Z</time>
      </trkpt>
      <trkpt lat="47.49187" lon="6.77339">
        <ele>318.2</ele>
        <time>2014-11-02T11:28:37.000Z</time>
      </trkpt>
      <trkpt lat="47.49189" lon="6.77339">
        <ele>318.3</ele>
        <time>2014-11-02T11:28:38.000Z</time>
      </trkpt>
      <trkpt lat="47.49194" lon="6.77339">
        <ele>318.6</ele>
        <time>2014-11-02T11:28:40.000Z</time>
      </trkpt>
      <trkpt lat="47.49195" lon="6.77339">
        <ele>318.4</ele>
        <time>2014-11-02T11:28:41.000Z</time>
      </trkpt>
      <trkpt lat="47.49198" lon="6.77337">
        <ele>319.6</ele>
        <time>2014-11-02T11:30:18.000Z</time>
      </trkpt>
      <trkpt lat="47.49201" lon="6.77336">
        <ele>318.5</ele>
        <time>2014-11-02T11:30:19.000Z</time>
      </trkpt>
      <trkpt lat="47.49205" lon="6.77336">
        <ele>318.3</ele>
        <time>2014-11-02T11:30:20.000Z</time>
      </trkpt>
      <trkpt lat="47.49209" lon="6.77336">
        <ele>320</ele>
        <time>2014-11-02T11:30:21.000Z</time>
      </trkpt>
      <trkpt lat="47.49217" lon="6.77338">
        <ele>320.5</ele>
        <time>2014-11-02T11:30:22.000Z</time>
      </trkpt>
      <trkpt lat="47.49222" lon="6.77339">
        <ele>321.3</ele>
        <time>2014-11-02T11:30:23.000Z</time>
      </trkpt>
      <trkpt lat="47.49227" lon="6.77339">
        <ele>319.5</ele>
        <time>2014-11-02T11:30:24.000Z</time>
      </trkpt>
      <trkpt lat="47.49232" lon="6.77339">
        <ele>320</ele>
        <time>2014-11-02T11:30:25.000Z</time>
      </trkpt>
      <trkpt lat="47.49238" lon="6.77339">
        <ele>320</ele>
        <time>2014-11-02T11:30:25.999Z</time>
      </trkpt>
      <trkpt lat="47.49243" lon="6.77339">
        <ele>319.8</ele>
        <time>2014-11-02T11:30:27.000Z</time>
      </trkpt>
      <trkpt lat="47.49249" lon="6.77338">
        <ele>320</ele>
        <time>2014-11-02T11:30:28.000Z</time>
      </trkpt>
      <trkpt lat="47.49254" lon="6.77336">
        <ele>320.7</ele>
        <time>2014-11-02T11:30:29.001Z</time>
      </trkpt>
      <trkpt lat="47.49259" lon="6.77332">
        <ele>320.7</ele>
        <time>2014-11-02T11:30:30.000Z</time>
      </trkpt>
      <trkpt lat="47.49265" lon="6.7733">
        <ele>319.5</ele>
        <time>2014-11-02T11:30:31.000Z</time>
      </trkpt>
      <trkpt lat="47.49271" lon="6.77328">
        <ele>318.1</ele>
        <time>2014-11-02T11:30:32.000Z</time>
      </trkpt>
      <trkpt lat="47.49277" lon="6.77328">
        <ele>316.7</ele>
        <time>2014-11-02T11:30:33.000Z</time>
      </trkpt>
      <trkpt lat="47.49283" lon="6.77328">
        <ele>316.6</ele>
        <time>2014-11-02T11:30:34.000Z</time>
      </trkpt>
      <trkpt lat="47.4929" lon="6.77328">
        <ele>316.4</ele>
        <time>2014-11-02T11:30:35.000Z</time>
      </trkpt>
      <trkpt lat="47.49296" lon="6.77328">
        <ele>316.6</ele>
        <time>2014-11-02T11:30:36.000Z</time>
      </trkpt>
      <trkpt lat="47.49302" lon="6.7733">
        <ele>317.2</ele>
        <time>2014-11-02T11:30:37.000Z</time>
      </trkpt>
      <trkpt lat="47.49307" lon="6.7733">
        <ele>317.2</ele>
        <time>2014-11-02T11:30:38.000Z</time>
      </trkpt>
      <trkpt lat="47.49312" lon="6.77331">
        <ele>316.6</ele>
        <time>2014-11-02T11:30:39.000Z</time>
      </trkpt>
      <trkpt lat="47.49317" lon="6.77332">
        <ele>317.6</ele>
        <time>2014-11-02T11:30:40.000Z</time>
      </trkpt>
      <trkpt lat="47.49323" lon="6.77331">
        <ele>317.9</ele>
        <time>2014-11-02T11:30:41.000Z</time>
      </trkpt>
      <trkpt lat="47.49327" lon="6.77333">
        <ele>318.4</ele>
        <time>2014-11-02T11:30:42.000Z</time>
      </trkpt>
      <trkpt lat="47.49332" lon="6.77338">
        <ele>318.4</ele>
        <time>2014-11-02T11:30:43.000Z</time>
      </trkpt>
      <trkpt lat="47.49337" lon="6.77341">
        <ele>318.5</ele>
        <time>2014-11-02T11:30:44.000Z</time>
      </trkpt>
      <trkpt lat="47.49341" lon="6.77344">
        <ele>318.1</ele>
        <time>2014-11-02T11:30:45.000Z</time>
      </trkpt>
      <trkpt lat="47.49346" lon="6.77347">
        <ele>317.8</ele>
        <time>2014-11-02T11:30:46.000Z</time>
      </trkpt>
      <trkpt lat="47.49351" lon="6.77347">
        <ele>318.6</ele>
        <time>2014-11-02T11:30:47.001Z</time>
      </trkpt>
      <trkpt lat="47.49355" lon="6.77347">
        <ele>318.8</ele>
        <time>2014-11-02T11:30:48.000Z</time>
      </trkpt>
      <trkpt lat="47.4936" lon="6.77348">
        <ele>318.9</ele>
        <time>2014-11-02T11:30:49.000Z</time>
      </trkpt>
      <trkpt lat="47.49365" lon="6.77347">
        <ele>319.2</ele>
        <time>2014-11-02T11:30:50.000Z</time>
      </trkpt>
      <trkpt lat="47.49369" lon="6.77345">
        <ele>319.6</ele>
        <time>2014-11-02T11:30:51.000Z</time>
      </trkpt>
      <trkpt lat="47.49373" lon="6.77345">
        <ele>320.1</ele>
        <time>2014-11-02T11:30:52.000Z</time>
      </trkpt>
      <trkpt lat="47.49379" lon="6.77346">
        <ele>320.3</ele>
        <time>2014-11-02T11:30:53.000Z</time>
      </trkpt>
      <trkpt lat="47.49384" lon="6.77347">
        <ele>320.2</ele>
        <time>2014-11-02T11:30:54.000Z</time>
      </trkpt>
      <trkpt lat="47.49388" lon="6.77348">
        <ele>320.3</ele>
        <time>2014-11-02T11:30:55.000Z</time>
      </trkpt>
      <trkpt lat="47.49393" lon="6.77347">
        <ele>320.3</ele>
        <time>2014-11-02T11:30:56.000Z</time>
      </trkpt>
      <trkpt lat="47.49396" lon="6.77346">
        <ele>319.3</ele>
        <time>2014-11-02T11:30:57.000Z</time>
      </trkpt>
      <trkpt lat="47.49401" lon="6.77348">
        <ele>319.7</ele>
        <time>2014-11-02T11:30:58.000Z</time>
      </trkpt>
      <trkpt lat="47.49407" lon="6.7735">
        <ele>319.5</ele>
        <time>2014-11-02T11:30:59.000Z</time>
      </trkpt>
      <trkpt lat="47.49412" lon="6.77351">
        <ele>319.8</ele>
        <time>2014-11-02T11:31:00.000Z</time>
      </trkpt>
      <trkpt lat="47.49418" lon="6.77352">
        <ele>320</ele>
        <time>2014-11-02T11:31:01.000Z</time>
      </trkpt>
      <trkpt lat="47.49423" lon="6.77353">
        <ele>320.2</ele>
        <time>2014-11-02T11:31:02.000Z</time>
      </trkpt>
      <trkpt lat="47.49428" lon="6.77355">
        <ele>320</ele>
        <time>2014-11-02T11:31:03.000Z</time>
      </trkpt>
      <trkpt lat="47.49468" lon="6.77359">
        <ele>322</ele>
        <time>2014-11-02T11:31:11.000Z</time>
      </trkpt>
      <trkpt lat="47.49474" lon="6.77359">
        <ele>321.9</ele>
        <time>2014-11-02T11:31:12.000Z</time>
      </trkpt>
      <trkpt lat="47.4948" lon="6.77361">
        <ele>321.6</ele>
        <time>2014-11-02T11:31:13.000Z</time>
      </trkpt>
      <trkpt lat="47.49486" lon="6.77361">
        <ele>321.7</ele>
        <time>2014-11-02T11:31:14.000Z</time>
      </trkpt>
      <trkpt lat="47.49492" lon="6.7736">
        <ele>322.2</ele>
        <time>2014-11-02T11:31:15.000Z</time>
      </trkpt>
      <trkpt lat="47.49496" lon="6.7736">
        <ele>321.4</ele>
        <time>2014-11-02T11:31:16.000Z</time>
      </trkpt>
      <trkpt lat="47.49502" lon="6.77362">
        <ele>321.8</ele>
        <time>2014-11-02T11:31:17.000Z</time>
      </trkpt>
      <trkpt lat="47.49508" lon="6.77363">
        <ele>321.1</ele>
        <time>2014-11-02T11:31:18.000Z</time>
      </trkpt>
      <trkpt lat="47.49513" lon="6.77362">
        <ele>321.4</ele>
        <time>2014-11-02T11:31:19.000Z</time>
      </trkpt>
      <trkpt lat="47.49518" lon="6.77363">
        <ele>321.7</ele>
        <time>2014-11-02T11:31:20.000Z</time>
      </trkpt>
      <trkpt lat="47.49524" lon="6.77362">
        <ele>321.5</ele>
        <time>2014-11-02T11:31:21.000Z</time>
      </trkpt>
      <trkpt lat="47.49529" lon="6.77363">
        <ele>321</ele>
        <time>2014-11-02T11:31:22.000Z</time>
      </trkpt>
      <trkpt lat="47.49535" lon="6.77363">
        <ele>320.3</ele>
        <time>2014-11-02T11:31:23.000Z</time>
      </trkpt>
      <trkpt lat="47.4954" lon="6.77363">
        <ele>321</ele>
        <time>2014-11-02T11:31:24.000Z</time>
      </trkpt>
      <trkpt lat="47.49546" lon="6.77363">
        <ele>321</ele>
        <time>2014-11-02T11:31:25.000Z</time>
      </trkpt>
      <trkpt lat="47.49551" lon="6.77366">
        <ele>320.5</ele>
        <time>2014-11-02T11:31:26.000Z</time>
      </trkpt>
      <trkpt lat="47.49556" lon="6.77367">
        <ele>320.7</ele>
        <time>2014-11-02T11:31:27.000Z</time>
      </trkpt>
      <trkpt lat="47.49562" lon="6.77367">
        <ele>320.5</ele>
        <time>2014-11-02T11:31:28.000Z</time>
      </trkpt>
      <trkpt lat="47.49567" lon="6.77367">
        <ele>320.5</ele>
        <time>2014-11-02T11:31:29.000Z</time>
      </trkpt>
      <trkpt lat="47.49572" lon="6.77368">
        <ele>320.7</ele>
        <time>2014-11-02T11:31:30.000Z</time>
      </trkpt>
      <trkpt lat="47.49577" lon="6.77368">
        <ele>320.7</ele>
        <time>2014-11-02T11:31:31.000Z</time>
      </trkpt>
      <trkpt lat="47.49583" lon="6.77369">
        <ele>321</ele>
        <time>2014-11-02T11:31:32.000Z</time>
      </trkpt>
      <trkpt lat="47.49589" lon="6.77367">
        <ele>321</ele>
        <time>2014-11-02T11:31:33.000Z</time>
      </trkpt>
      <trkpt lat="47.49594" lon="6.77365">
        <ele>322</ele>
        <time>2014-11-02T11:31:34.000Z</time>
      </trkpt>
      <trkpt lat="47.49599" lon="6.77363">
        <ele>322.1</ele>
        <time>2014-11-02T11:31:35.000Z</time>
      </trkpt>
      <trkpt lat="47.49604" lon="6.77361">
        <ele>322.9</ele>
        <time>2014-11-02T11:31:36.000Z</time>
      </trkpt>
      <trkpt lat="47.49609" lon="6.77361">
        <ele>322</ele>
        <time>2014-11-02T11:31:37.000Z</time>
      </trkpt>
      <trkpt lat="47.49616" lon="6.77359">
        <ele>320</ele>
        <time>2014-11-02T11:31:38.000Z</time>
      </trkpt>
      <trkpt lat="47.49621" lon="6.77359">
        <ele>319.6</ele>
        <time>2014-11-02T11:31:39.000Z</time>
      </trkpt>
      <trkpt lat="47.49626" lon="6.77357">
        <ele>319.6</ele>
        <time>2014-11-02T11:31:40.000Z</time>
      </trkpt>
      <trkpt lat="47.49632" lon="6.77357">
        <ele>319</ele>
        <time>2014-11-02T11:31:41.000Z</time>
      </trkpt>
      <trkpt lat="47.49637" lon="6.77356">
        <ele>319.3</ele>
        <time>2014-11-02T11:31:42.000Z</time>
      </trkpt>
      <trkpt lat="47.49643" lon="6.77352">
        <ele>320.7</ele>
        <time>2014-11-02T11:31:43.000Z</time>
      </trkpt>
      <trkpt lat="47.49648" lon="6.77351">
        <ele>320.7</ele>
        <time>2014-11-02T11:31:44.000Z</time>
      </trkpt>
      <trkpt lat="47.49653" lon="6.77349">
        <ele>320.4</ele>
        <time>2014-11-02T11:31:45.000Z</time>
      </trkpt>
      <trkpt lat="47.49658" lon="6.77349">
        <ele>320.6</ele>
        <time>2014-11-02T11:31:46.000Z</time>
      </trkpt>
      <trkpt lat="47.49663" lon="6.77348">
        <ele>320.2</ele>
        <time>2014-11-02T11:31:47.000Z</time>
      </trkpt>
      <trkpt lat="47.49668" lon="6.77347">
        <ele>319.6</ele>
        <time>2014-11-02T11:31:48.000Z</time>
      </trkpt>
      <trkpt lat="47.49673" lon="6.77347">
        <ele>320.3</ele>
        <time>2014-11-02T11:31:49.000Z</time>
      </trkpt>
      <trkpt lat="47.49677" lon="6.77346">
        <ele>320.2</ele>
        <time>2014-11-02T11:31:50.000Z</time>
      </trkpt>
      <trkpt lat="47.49682" lon="6.77346">
        <ele>320.7</ele>
        <time>2014-11-02T11:31:51.000Z</time>
      </trkpt>
      <trkpt lat="47.49686" lon="6.77344">
        <ele>319.8</ele>
        <time>2014-11-02T11:31:52.000Z</time>
      </trkpt>
      <trkpt lat="47.4969" lon="6.77342">
        <ele>319.9</ele>
        <time>2014-11-02T11:31:53.000Z</time>
      </trkpt>
      <trkpt lat="47.49694" lon="6.77341">
        <ele>320.5</ele>
        <time>2014-11-02T11:31:54.000Z</time>
      </trkpt>
      <trkpt lat="47.49698" lon="6.77339">
        <ele>320.7</ele>
        <time>2014-11-02T11:31:55.000Z</time>
      </trkpt>
      <trkpt lat="47.49703" lon="6.77338">
        <ele>321.1</ele>
        <time>2014-11-02T11:31:56.000Z</time>
      </trkpt>
      <trkpt lat="47.49707" lon="6.77337">
        <ele>320.3</ele>
        <time>2014-11-02T11:31:57.000Z</time>
      </trkpt>
      <trkpt lat="47.49711" lon="6.77336">
        <ele>320.1</ele>
        <time>2014-11-02T11:31:58.000Z</time>
      </trkpt>
      <trkpt lat="47.49714" lon="6.77335">
        <ele>320.4</ele>
        <time>2014-11-02T11:31:59.000Z</time>
      </trkpt>
      <trkpt lat="47.49719" lon="6.77333">
        <ele>320.1</ele>
        <time>2014-11-02T11:32:00.000Z</time>
      </trkpt>
      <trkpt lat="47.49722" lon="6.77334">
        <ele>319.7</ele>
        <time>2014-11-02T11:32:01.000Z</time>
      </trkpt>
      <trkpt lat="47.49725" lon="6.77333">
        <ele>318.3</ele>
        <time>2014-11-02T11:32:02.000Z</time>
      </trkpt>
      <trkpt lat="47.49729" lon="6.77332">
        <ele>318.4</ele>
        <time>2014-11-02T11:32:03.000Z</time>
      </trkpt>
      <trkpt lat="47.49747" lon="6.77322">
        <ele>318.7</ele>
        <time>2014-11-02T11:32:11.000Z</time>
      </trkpt>
      <trkpt lat="47.49752" lon="6.7732">
        <ele>317.5</ele>
        <time>2014-11-02T11:32:15.000Z</time>
      </trkpt>
      <trkpt lat="47.49753" lon="6.77319">
        <ele>316.1</ele>
        <time>2014-11-02T11:32:15.999Z</time>
      </trkpt>
      <trkpt lat="47.49757" lon="6.77319">
        <ele>316.8</ele>
        <time>2014-11-02T11:32:18.000Z</time>
      </trkpt>
      <trkpt lat="47.49758" lon="6.77318">
        <ele>315.4</ele>
        <time>2014-11-02T11:32:19.000Z</time>
      </trkpt>
      <trkpt lat="47.49762" lon="6.77317">
        <ele>315.7</ele>
        <time>2014-11-02T11:32:21.000Z</time>
      </trkpt>
      <trkpt lat="47.49764" lon="6.77316">
        <ele>316</ele>
        <time>2014-11-02T11:32:21.999Z</time>
      </trkpt>
      <trkpt lat="47.49768" lon="6.77316">
        <ele>317.8</ele>
        <time>2014-11-02T11:32:24.000Z</time>
      </trkpt>
      <trkpt lat="47.49771" lon="6.77315">
        <ele>318.6</ele>
        <time>2014-11-02T11:32:25.000Z</time>
      </trkpt>
      <trkpt lat="47.4978" lon="6.77315">
        <ele>318.9</ele>
        <time>2014-11-02T11:32:26.000Z</time>
      </trkpt>
      <trkpt lat="47.49787" lon="6.77313">
        <ele>320.4</ele>
        <time>2014-11-02T11:32:27.000Z</time>
      </trkpt>
      <trkpt lat="47.49794" lon="6.77311">
        <ele>319.9</ele>
        <time>2014-11-02T11:32:28.000Z</time>
      </trkpt>
      <trkpt lat="47.49801" lon="6.77311">
        <ele>320.1</ele>
        <time>2014-11-02T11:32:29.000Z</time>
      </trkpt>
      <trkpt lat="47.49808" lon="6.77311">
        <ele>320.8</ele>
        <time>2014-11-02T11:32:30.000Z</time>
      </trkpt>
      <trkpt lat="47.49815" lon="6.7731">
        <ele>321</ele>
        <time>2014-11-02T11:32:31.000Z</time>
      </trkpt>
      <trkpt lat="47.49821" lon="6.7731">
        <ele>320.6</ele>
        <time>2014-11-02T11:32:32.000Z</time>
      </trkpt>
      <trkpt lat="47.49828" lon="6.77311">
        <ele>320.3</ele>
        <time>2014-11-02T11:32:33.000Z</time>
      </trkpt>
      <trkpt lat="47.49835" lon="6.77311">
        <ele>320.3</ele>
        <time>2014-11-02T11:32:33.999Z</time>
      </trkpt>
      <trkpt lat="47.49843" lon="6.7731">
        <ele>319.7</ele>
        <time>2014-11-02T11:32:35.000Z</time>
      </trkpt>
      <trkpt lat="47.49848" lon="6.7731">
        <ele>320.2</ele>
        <time>2014-11-02T11:32:36.000Z</time>
      </trkpt>
      <trkpt lat="47.49856" lon="6.7731">
        <ele>319.8</ele>
        <time>2014-11-02T11:32:37.000Z</time>
      </trkpt>
      <trkpt lat="47.49864" lon="6.77309">
        <ele>319.6</ele>
        <time>2014-11-02T11:32:37.999Z</time>
      </trkpt>
      <trkpt lat="47.49869" lon="6.7731">
        <ele>321.3</ele>
        <time>2014-11-02T11:32:39.000Z</time>
      </trkpt>
      <trkpt lat="47.49876" lon="6.77306">
        <ele>322.2</ele>
        <time>2014-11-02T11:32:40.000Z</time>
      </trkpt>
      <trkpt lat="47.49881" lon="6.77306">
        <ele>321.8</ele>
        <time>2014-11-02T11:32:41.000Z</time>
      </trkpt>
      <trkpt lat="47.49886" lon="6.77305">
        <ele>321.9</ele>
        <time>2014-11-02T11:32:41.999Z</time>
      </trkpt>
      <trkpt lat="47.49891" lon="6.77308">
        <ele>324.9</ele>
        <time>2014-11-02T11:32:43.000Z</time>
      </trkpt>
      <trkpt lat="47.49897" lon="6.77307">
        <ele>324.9</ele>
        <time>2014-11-02T11:32:44.000Z</time>
      </trkpt>
      <trkpt lat="47.49904" lon="6.77305">
        <ele>325.2</ele>
        <time>2014-11-02T11:32:45.000Z</time>
      </trkpt>
      <trkpt lat="47.49909" lon="6.77304">
        <ele>325.3</ele>
        <time>2014-11-02T11:32:46.000Z</time>
      </trkpt>
      <trkpt lat="47.49916" lon="6.77299">
        <ele>324.9</ele>
        <time>2014-11-02T11:32:46.999Z</time>
      </trkpt>
      <trkpt lat="47.49921" lon="6.77297">
        <ele>325.6</ele>
        <time>2014-11-02T11:32:48.000Z</time>
      </trkpt>
      <trkpt lat="47.49926" lon="6.77294">
        <ele>326.9</ele>
        <time>2014-11-02T11:32:49.000Z</time>
      </trkpt>
      <trkpt lat="47.49931" lon="6.77291">
        <ele>327.1</ele>
        <time>2014-11-02T11:32:50.000Z</time>
      </trkpt>
      <trkpt lat="47.49935" lon="6.77286">
        <ele>327.5</ele>
        <time>2014-11-02T11:32:51.000Z</time>
      </trkpt>
      <trkpt lat="47.4994" lon="6.77282">
        <ele>327.5</ele>
        <time>2014-11-02T11:32:52.000Z</time>
      </trkpt>
      <trkpt lat="47.49946" lon="6.77282">
        <ele>326.5</ele>
        <time>2014-11-02T11:32:53.000Z</time>
      </trkpt>
      <trkpt lat="47.49951" lon="6.77279">
        <ele>327.2</ele>
        <time>2014-11-02T11:32:54.000Z</time>
      </trkpt>
      <trkpt lat="47.49957" lon="6.77273">
        <ele>326.5</ele>
        <time>2014-11-02T11:32:55.000Z</time>
      </trkpt>
      <trkpt lat="47.49961" lon="6.77271">
        <ele>325.2</ele>
        <time>2014-11-02T11:32:56.000Z</time>
      </trkpt>
      <trkpt lat="47.49967" lon="6.77267">
        <ele>324.9</ele>
        <time>2014-11-02T11:32:57.000Z</time>
      </trkpt>
      <trkpt lat="47.49971" lon="6.77266">
        <ele>324.4</ele>
        <time>2014-11-02T11:32:57.999Z</time>
      </trkpt>
      <trkpt lat="47.49979" lon="6.77263">
        <ele>323.7</ele>
        <time>2014-11-02T11:32:59.000Z</time>
      </trkpt>
      <trkpt lat="47.49985" lon="6.7726">
        <ele>323.5</ele>
        <time>2014-11-02T11:33:00.000Z</time>
      </trkpt>
      <trkpt lat="47.4999" lon="6.77258">
        <ele>323.6</ele>
        <time>2014-11-02T11:33:01.000Z</time>
      </trkpt>
      <trkpt lat="47.49994" lon="6.77256">
        <ele>323.7</ele>
        <time>2014-11-02T11:33:02.000Z</time>
      </trkpt>
      <trkpt lat="47.49999" lon="6.77251">
        <ele>324.2</ele>
        <time>2014-11-02T11:33:03.000Z</time>
      </trkpt>
      <trkpt lat="47.50028" lon="6.77238">
        <ele>327.9</ele>
        <time>2014-11-02T11:33:11.000Z</time>
      </trkpt>
      <trkpt lat="47.50034" lon="6.77234">
        <ele>329</ele>
        <time>2014-11-02T11:33:12.000Z</time>
      </trkpt>
      <trkpt lat="47.50038" lon="6.7723">
        <ele>329.9</ele>
        <time>2014-11-02T11:33:13.000Z</time>
      </trkpt>
      <trkpt lat="47.50043" lon="6.77227">
        <ele>328.4</ele>
        <time>2014-11-02T11:33:14.000Z</time>
      </trkpt>
      <trkpt lat="47.50048" lon="6.77224">
        <ele>328</ele>
        <time>2014-11-02T11:33:14.999Z</time>
      </trkpt>
      <trkpt lat="47.50052" lon="6.77224">
        <ele>327.5</ele>
        <time>2014-11-02T11:33:16.000Z</time>
      </trkpt>
      <trkpt lat="47.50057" lon="6.77222">
        <ele>326.8</ele>
        <time>2014-11-02T11:33:17.000Z</time>
      </trkpt>
      <trkpt lat="47.50062" lon="6.77222">
        <ele>326.7</ele>
        <time>2014-11-02T11:33:18.001Z</time>
      </trkpt>
      <trkpt lat="47.50069" lon="6.77225">
        <ele>326.1</ele>
        <time>2014-11-02T11:33:19.000Z</time>
      </trkpt>
      <trkpt lat="47.50074" lon="6.7722">
        <ele>326.6</ele>
        <time>2014-11-02T11:33:20.000Z</time>
      </trkpt>
      <trkpt lat="47.50079" lon="6.77218">
        <ele>326.7</ele>
        <time>2014-11-02T11:33:20.999Z</time>
      </trkpt>
      <trkpt lat="47.50085" lon="6.77216">
        <ele>324.1</ele>
        <time>2014-11-02T11:33:22.000Z</time>
      </trkpt>
      <trkpt lat="47.50089" lon="6.77214">
        <ele>322.8</ele>
        <time>2014-11-02T11:33:23.000Z</time>
      </trkpt>
      <trkpt lat="47.50094" lon="6.77211">
        <ele>322.4</ele>
        <time>2014-11-02T11:33:24.000Z</time>
      </trkpt>
      <trkpt lat="47.50098" lon="6.77208">
        <ele>322.5</ele>
        <time>2014-11-02T11:33:25.000Z</time>
      </trkpt>
      <trkpt lat="47.50104" lon="6.77209">
        <ele>323</ele>
        <time>2014-11-02T11:33:26.000Z</time>
      </trkpt>
      <trkpt lat="47.50108" lon="6.77208">
        <ele>322.7</ele>
        <time>2014-11-02T11:33:27.000Z</time>
      </trkpt>
      <trkpt lat="47.50113" lon="6.7721">
        <ele>322.6</ele>
        <time>2014-11-02T11:33:28.000Z</time>
      </trkpt>
      <trkpt lat="47.50122" lon="6.77205">
        <ele>320</ele>
        <time>2014-11-02T11:33:29.000Z</time>
      </trkpt>
      <trkpt lat="47.50127" lon="6.77207">
        <ele>320</ele>
        <time>2014-11-02T11:33:30.000Z</time>
      </trkpt>
      <trkpt lat="47.50134" lon="6.77207">
        <ele>319</ele>
        <time>2014-11-02T11:33:31.000Z</time>
      </trkpt>
      <trkpt lat="47.50139" lon="6.77207">
        <ele>318.1</ele>
        <time>2014-11-02T11:33:32.000Z</time>
      </trkpt>
      <trkpt lat="47.50145" lon="6.77211">
        <ele>318.2</ele>
        <time>2014-11-02T11:33:33.000Z</time>
      </trkpt>
      <trkpt lat="47.50151" lon="6.77214">
        <ele>317.9</ele>
        <time>2014-11-02T11:33:34.000Z</time>
      </trkpt>
      <trkpt lat="47.50157" lon="6.77218">
        <ele>317.5</ele>
        <time>2014-11-02T11:33:35.000Z</time>
      </trkpt>
      <trkpt lat="47.50163" lon="6.77222">
        <ele>318.3</ele>
        <time>2014-11-02T11:33:36.000Z</time>
      </trkpt>
      <trkpt lat="47.50169" lon="6.77226">
        <ele>318.8</ele>
        <time>2014-11-02T11:33:37.000Z</time>
      </trkpt>
      <trkpt lat="47.50173" lon="6.77232">
        <ele>317.3</ele>
        <time>2014-11-02T11:33:38.000Z</time>
      </trkpt>
      <trkpt lat="47.50178" lon="6.77237">
        <ele>317.9</ele>
        <time>2014-11-02T11:33:39.000Z</time>
      </trkpt>
      <trkpt lat="47.50183" lon="6.77241">
        <ele>317.8</ele>
        <time>2014-11-02T11:33:40.000Z</time>
      </trkpt>
      <trkpt lat="47.50188" lon="6.77245">
        <ele>318.5</ele>
        <time>2014-11-02T11:33:41.000Z</time>
      </trkpt>
      <trkpt lat="47.50193" lon="6.77249">
        <ele>320.3</ele>
        <time>2014-11-02T11:33:42.000Z</time>
      </trkpt>
      <trkpt lat="47.50197" lon="6.77253">
        <ele>319.8</ele>
        <time>2014-11-02T11:33:43.000Z</time>
      </trkpt>
      <trkpt lat="47.50202" lon="6.77257">
        <ele>319.4</ele>
        <time>2014-11-02T11:33:44.000Z</time>
      </trkpt>
      <trkpt lat="47.50207" lon="6.77261">
        <ele>320.1</ele>
        <time>2014-11-02T11:33:45.000Z</time>
      </trkpt>
      <trkpt lat="47.50212" lon="6.77266">
        <ele>320.3</ele>
        <time>2014-11-02T11:33:46.000Z</time>
      </trkpt>
      <trkpt lat="47.50217" lon="6.77272">
        <ele>319</ele>
        <time>2014-11-02T11:33:47.000Z</time>
      </trkpt>
      <trkpt lat="47.50222" lon="6.77276">
        <ele>320</ele>
        <time>2014-11-02T11:33:48.000Z</time>
      </trkpt>
      <trkpt lat="47.50228" lon="6.7728">
        <ele>320.8</ele>
        <time>2014-11-02T11:33:49.000Z</time>
      </trkpt>
      <trkpt lat="47.50232" lon="6.77284">
        <ele>321.8</ele>
        <time>2014-11-02T11:33:50.000Z</time>
      </trkpt>
      <trkpt lat="47.50237" lon="6.77288">
        <ele>322.1</ele>
        <time>2014-11-02T11:33:51.000Z</time>
      </trkpt>
      <trkpt lat="47.50241" lon="6.77292">
        <ele>322.7</ele>
        <time>2014-11-02T11:33:52.000Z</time>
      </trkpt>
      <trkpt lat="47.50245" lon="6.77295">
        <ele>322.5</ele>
        <time>2014-11-02T11:33:53.000Z</time>
      </trkpt>
      <trkpt lat="47.50249" lon="6.77297">
        <ele>322.1</ele>
        <time>2014-11-02T11:33:54.000Z</time>
      </trkpt>
      <trkpt lat="47.50255" lon="6.77301">
        <ele>322</ele>
        <time>2014-11-02T11:33:55.000Z</time>
      </trkpt>
      <trkpt lat="47.5026" lon="6.77303">
        <ele>321.9</ele>
        <time>2014-11-02T11:33:56.000Z</time>
      </trkpt>
      <trkpt lat="47.50265" lon="6.77304">
        <ele>322.3</ele>
        <time>2014-11-02T11:33:57.000Z</time>
      </trkpt>
      <trkpt lat="47.5027" lon="6.77308">
        <ele>322.8</ele>
        <time>2014-11-02T11:33:58.000Z</time>
      </trkpt>
      <trkpt lat="47.50275" lon="6.77313">
        <ele>322.1</ele>
        <time>2014-11-02T11:33:59.000Z</time>
      </trkpt>
      <trkpt lat="47.50281" lon="6.77313">
        <ele>322.1</ele>
        <time>2014-11-02T11:34:00.000Z</time>
      </trkpt>
      <trkpt lat="47.50286" lon="6.77316">
        <ele>321.7</ele>
        <time>2014-11-02T11:34:01.000Z</time>
      </trkpt>
      <trkpt lat="47.50292" lon="6.7732">
        <ele>321.8</ele>
        <time>2014-11-02T11:34:02.000Z</time>
      </trkpt>
      <trkpt lat="47.50297" lon="6.77325">
        <ele>321.1</ele>
        <time>2014-11-02T11:34:03.000Z</time>
      </trkpt>
      <trkpt lat="47.5031" lon="6.77338">
        <ele>322.5</ele>
        <time>2014-11-02T11:34:06.000Z</time>
      </trkpt>
      <trkpt lat="47.50315" lon="6.77342">
        <ele>323.4</ele>
        <time>2014-11-02T11:34:07.000Z</time>
      </trkpt>
      <trkpt lat="47.50322" lon="6.77346">
        <ele>322.6</ele>
        <time>2014-11-02T11:34:08.000Z</time>
      </trkpt>
      <trkpt lat="47.50326" lon="6.77348">
        <ele>322.1</ele>
        <time>2014-11-02T11:34:09.000Z</time>
      </trkpt>
      <trkpt lat="47.50333" lon="6.77351">
        <ele>320.7</ele>
        <time>2014-11-02T11:34:10.000Z</time>
      </trkpt>
      <trkpt lat="47.50337" lon="6.77355">
        <ele>320.5</ele>
        <time>2014-11-02T11:34:11.000Z</time>
      </trkpt>
      <trkpt lat="47.50341" lon="6.77358">
        <ele>321.4</ele>
        <time>2014-11-02T11:34:12.000Z</time>
      </trkpt>
      <trkpt lat="47.50348" lon="6.77363">
        <ele>321.6</ele>
        <time>2014-11-02T11:34:13.000Z</time>
      </trkpt>
      <trkpt lat="47.50354" lon="6.77366">
        <ele>321.4</ele>
        <time>2014-11-02T11:34:14.000Z</time>
      </trkpt>
      <trkpt lat="47.50358" lon="6.77371">
        <ele>321.9</ele>
        <time>2014-11-02T11:34:15.000Z</time>
      </trkpt>
      <trkpt lat="47.50363" lon="6.77375">
        <ele>322.6</ele>
        <time>2014-11-02T11:34:16.001Z</time>
      </trkpt>
      <trkpt lat="47.50368" lon="6.77379">
        <ele>322.8</ele>
        <time>2014-11-02T11:34:17.000Z</time>
      </trkpt>
      <trkpt lat="47.50372" lon="6.77383">
        <ele>323.7</ele>
        <time>2014-11-02T11:34:18.000Z</time>
      </trkpt>
      <trkpt lat="47.50377" lon="6.77386">
        <ele>323.9</ele>
        <time>2014-11-02T11:34:19.000Z</time>
      </trkpt>
      <trkpt lat="47.50382" lon="6.7739">
        <ele>324.5</ele>
        <time>2014-11-02T11:34:20.000Z</time>
      </trkpt>
      <trkpt lat="47.50388" lon="6.77395">
        <ele>323.6</ele>
        <time>2014-11-02T11:34:21.000Z</time>
      </trkpt>
      <trkpt lat="47.50394" lon="6.77399">
        <ele>323.5</ele>
        <time>2014-11-02T11:34:22.000Z</time>
      </trkpt>
      <trkpt lat="47.504" lon="6.77404">
        <ele>322.5</ele>
        <time>2014-11-02T11:34:23.000Z</time>
      </trkpt>
      <trkpt lat="47.50404" lon="6.77408">
        <ele>322.2</ele>
        <time>2014-11-02T11:34:24.000Z</time>
      </trkpt>
      <trkpt lat="47.50408" lon="6.77412">
        <ele>322.5</ele>
        <time>2014-11-02T11:34:25.000Z</time>
      </trkpt>
      <trkpt lat="47.50413" lon="6.77416">
        <ele>322</ele>
        <time>2014-11-02T11:34:26.000Z</time>
      </trkpt>
      <trkpt lat="47.50418" lon="6.77421">
        <ele>322.4</ele>
        <time>2014-11-02T11:34:27.000Z</time>
      </trkpt>
      <trkpt lat="47.50423" lon="6.77426">
        <ele>324.4</ele>
        <time>2014-11-02T11:34:28.000Z</time>
      </trkpt>
      <trkpt lat="47.50428" lon="6.77431">
        <ele>325.3</ele>
        <time>2014-11-02T11:34:29.000Z</time>
      </trkpt>
      <trkpt lat="47.50433" lon="6.77437">
        <ele>325.3</ele>
        <time>2014-11-02T11:34:30.000Z</time>
      </trkpt>
      <trkpt lat="47.50438" lon="6.77441">
        <ele>324.4</ele>
        <time>2014-11-02T11:34:31.000Z</time>
      </trkpt>
      <trkpt lat="47.50442" lon="6.77446">
        <ele>324.2</ele>
        <time>2014-11-02T11:34:32.000Z</time>
      </trkpt>
      <trkpt lat="47.50447" lon="6.77451">
        <ele>324.7</ele>
        <time>2014-11-02T11:34:33.000Z</time>
      </trkpt>
      <trkpt lat="47.50452" lon="6.77457">
        <ele>323.8</ele>
        <time>2014-11-02T11:34:34.000Z</time>
      </trkpt>
      <trkpt lat="47.50457" lon="6.77462">
        <ele>324.4</ele>
        <time>2014-11-02T11:34:35.000Z</time>
      </trkpt>
      <trkpt lat="47.50463" lon="6.77467">
        <ele>324.7</ele>
        <time>2014-11-02T11:34:36.000Z</time>
      </trkpt>
      <trkpt lat="47.50467" lon="6.7747">
        <ele>325.2</ele>
        <time>2014-11-02T11:34:37.000Z</time>
      </trkpt>
      <trkpt lat="47.50471" lon="6.77474">
        <ele>325.2</ele>
        <time>2014-11-02T11:34:38.000Z</time>
      </trkpt>
      <trkpt lat="47.50477" lon="6.77478">
        <ele>324.2</ele>
        <time>2014-11-02T11:34:39.000Z</time>
      </trkpt>
      <trkpt lat="47.50483" lon="6.77481">
        <ele>323.8</ele>
        <time>2014-11-02T11:34:40.000Z</time>
      </trkpt>
      <trkpt lat="47.50489" lon="6.77486">
        <ele>322.7</ele>
        <time>2014-11-02T11:34:41.000Z</time>
      </trkpt>
      <trkpt lat="47.50495" lon="6.77491">
        <ele>322.6</ele>
        <time>2014-11-02T11:34:42.000Z</time>
      </trkpt>
      <trkpt lat="47.50499" lon="6.77496">
        <ele>321.9</ele>
        <time>2014-11-02T11:34:43.000Z</time>
      </trkpt>
      <trkpt lat="47.50504" lon="6.775">
        <ele>321.4</ele>
        <time>2014-11-02T11:34:44.000Z</time>
      </trkpt>
      <trkpt lat="47.50509" lon="6.77503">
        <ele>321.7</ele>
        <time>2014-11-02T11:34:45.000Z</time>
      </trkpt>
      <trkpt lat="47.50515" lon="6.77507">
        <ele>323.2</ele>
        <time>2014-11-02T11:34:46.000Z</time>
      </trkpt>
      <trkpt lat="47.50519" lon="6.7751">
        <ele>325.1</ele>
        <time>2014-11-02T11:34:47.000Z</time>
      </trkpt>
      <trkpt lat="47.50523" lon="6.77514">
        <ele>325.3</ele>
        <time>2014-11-02T11:34:48.000Z</time>
      </trkpt>
      <trkpt lat="47.50529" lon="6.77518">
        <ele>326.1</ele>
        <time>2014-11-02T11:34:49.000Z</time>
      </trkpt>
      <trkpt lat="47.50534" lon="6.77521">
        <ele>326.8</ele>
        <time>2014-11-02T11:34:50.000Z</time>
      </trkpt>
      <trkpt lat="47.50538" lon="6.77524">
        <ele>326.3</ele>
        <time>2014-11-02T11:34:51.000Z</time>
      </trkpt>
      <trkpt lat="47.50542" lon="6.77528">
        <ele>325.7</ele>
        <time>2014-11-02T11:34:52.000Z</time>
      </trkpt>
      <trkpt lat="47.50546" lon="6.77532">
        <ele>326.1</ele>
        <time>2014-11-02T11:34:53.000Z</time>
      </trkpt>
      <trkpt lat="47.50549" lon="6.77537">
        <ele>326</ele>
        <time>2014-11-02T11:34:54.000Z</time>
      </trkpt>
      <trkpt lat="47.50552" lon="6.77543">
        <ele>326.3</ele>
        <time>2014-11-02T11:34:55.000Z</time>
      </trkpt>
      <trkpt lat="47.50555" lon="6.77548">
        <ele>326.3</ele>
        <time>2014-11-02T11:34:56.000Z</time>
      </trkpt>
      <trkpt lat="47.50559" lon="6.77553">
        <ele>325.1</ele>
        <time>2014-11-02T11:34:57.000Z</time>
      </trkpt>
      <trkpt lat="47.50565" lon="6.77555">
        <ele>324.1</ele>
        <time>2014-11-02T11:34:58.000Z</time>
      </trkpt>
      <trkpt lat="47.5057" lon="6.77557">
        <ele>323.4</ele>
        <time>2014-11-02T11:34:59.000Z</time>
      </trkpt>
      <trkpt lat="47.50575" lon="6.77555">
        <ele>322.6</ele>
        <time>2014-11-02T11:35:00.000Z</time>
      </trkpt>
      <trkpt lat="47.5058" lon="6.77549">
        <ele>322.2</ele>
        <time>2014-11-02T11:35:01.000Z</time>
      </trkpt>
      <trkpt lat="47.50583" lon="6.77544">
        <ele>321.9</ele>
        <time>2014-11-02T11:35:02.000Z</time>
      </trkpt>
      <trkpt lat="47.5058" lon="6.77539">
        <ele>323.5</ele>
        <time>2014-11-02T11:35:03.000Z</time>
      </trkpt>
      <trkpt lat="47.50593" lon="6.77527">
        <ele>323.3</ele>
        <time>2014-11-02T11:35:11.000Z</time>
      </trkpt>
      <trkpt lat="47.50602" lon="6.77531">
        <ele>323.5</ele>
        <time>2014-11-02T11:35:12.000Z</time>
      </trkpt>
      <trkpt lat="47.50611" lon="6.77532">
        <ele>324</ele>
        <time>2014-11-02T11:35:13.000Z</time>
      </trkpt>
      <trkpt lat="47.50618" lon="6.77535">
        <ele>324.2</ele>
        <time>2014-11-02T11:35:14.001Z</time>
      </trkpt>
      <trkpt lat="47.50633" lon="6.77535">
        <ele>324.1</ele>
        <time>2014-11-02T11:35:15.000Z</time>
      </trkpt>
      <trkpt lat="47.5064" lon="6.77536">
        <ele>324.4</ele>
        <time>2014-11-02T11:35:16.000Z</time>
      </trkpt>
      <trkpt lat="47.50644" lon="6.77538">
        <ele>325.5</ele>
        <time>2014-11-02T11:35:17.000Z</time>
      </trkpt>
      <trkpt lat="47.50653" lon="6.77538">
        <ele>325.1</ele>
        <time>2014-11-02T11:35:18.000Z</time>
      </trkpt>
      <trkpt lat="47.50659" lon="6.77537">
        <ele>324.6</ele>
        <time>2014-11-02T11:35:19.000Z</time>
      </trkpt>
      <trkpt lat="47.50664" lon="6.77535">
        <ele>324.9</ele>
        <time>2014-11-02T11:35:20.000Z</time>
      </trkpt>
      <trkpt lat="47.50671" lon="6.77533">
        <ele>323.4</ele>
        <time>2014-11-02T11:35:21.000Z</time>
      </trkpt>
      <trkpt lat="47.50677" lon="6.77533">
        <ele>322.5</ele>
        <time>2014-11-02T11:35:22.000Z</time>
      </trkpt>
      <trkpt lat="47.50682" lon="6.77532">
        <ele>322.3</ele>
        <time>2014-11-02T11:35:23.000Z</time>
      </trkpt>
      <trkpt lat="47.50687" lon="6.77534">
        <ele>322.5</ele>
        <time>2014-11-02T11:35:24.000Z</time>
      </trkpt>
      <trkpt lat="47.50692" lon="6.77534">
        <ele>322.4</ele>
        <time>2014-11-02T11:35:25.000Z</time>
      </trkpt>
      <trkpt lat="47.50697" lon="6.77535">
        <ele>320.7</ele>
        <time>2014-11-02T11:35:26.000Z</time>
      </trkpt>
      <trkpt lat="47.50702" lon="6.77535">
        <ele>320.3</ele>
        <time>2014-11-02T11:35:27.000Z</time>
      </trkpt>
      <trkpt lat="47.50708" lon="6.77537">
        <ele>319.9</ele>
        <time>2014-11-02T11:35:28.000Z</time>
      </trkpt>
      <trkpt lat="47.50713" lon="6.77539">
        <ele>319.5</ele>
        <time>2014-11-02T11:35:29.000Z</time>
      </trkpt>
      <trkpt lat="47.50718" lon="6.77541">
        <ele>320.3</ele>
        <time>2014-11-02T11:35:30.000Z</time>
      </trkpt>
      <trkpt lat="47.50723" lon="6.77544">
        <ele>320.7</ele>
        <time>2014-11-02T11:35:31.000Z</time>
      </trkpt>
      <trkpt lat="47.50729" lon="6.77545">
        <ele>319.9</ele>
        <time>2014-11-02T11:35:32.000Z</time>
      </trkpt>
      <trkpt lat="47.50734" lon="6.77547">
        <ele>320.4</ele>
        <time>2014-11-02T11:35:33.001Z</time>
      </trkpt>
      <trkpt lat="47.50737" lon="6.77553">
        <ele>320.1</ele>
        <time>2014-11-02T11:35:34.000Z</time>
      </trkpt>
      <trkpt lat="47.50741" lon="6.77556">
        <ele>318.5</ele>
        <time>2014-11-02T11:35:35.000Z</time>
      </trkpt>
      <trkpt lat="47.50746" lon="6.77558">
        <ele>316.8</ele>
        <time>2014-11-02T11:35:36.000Z</time>
      </trkpt>
      <trkpt lat="47.50752" lon="6.77559">
        <ele>317.7</ele>
        <time>2014-11-02T11:35:37.000Z</time>
      </trkpt>
      <trkpt lat="47.50756" lon="6.7756">
        <ele>318.4</ele>
        <time>2014-11-02T11:35:38.001Z</time>
      </trkpt>
      <trkpt lat="47.5076" lon="6.77565">
        <ele>319.6</ele>
        <time>2014-11-02T11:35:39.000Z</time>
      </trkpt>
      <trkpt lat="47.50765" lon="6.77566">
        <ele>320.5</ele>
        <time>2014-11-02T11:35:40.000Z</time>
      </trkpt>
      <trkpt lat="47.50769" lon="6.77567">
        <ele>321.5</ele>
        <time>2014-11-02T11:35:41.000Z</time>
      </trkpt>
      <trkpt lat="47.50776" lon="6.77575">
        <ele>319.4</ele>
        <time>2014-11-02T11:35:42.000Z</time>
      </trkpt>
      <trkpt lat="47.50781" lon="6.77579">
        <ele>319.6</ele>
        <time>2014-11-02T11:35:42.999Z</time>
      </trkpt>
      <trkpt lat="47.50786" lon="6.77584">
        <ele>320.2</ele>
        <time>2014-11-02T11:35:44.000Z</time>
      </trkpt>
      <trkpt lat="47.50791" lon="6.77587">
        <ele>320.2</ele>
        <time>2014-11-02T11:35:45.000Z</time>
      </trkpt>
      <trkpt lat="47.50796" lon="6.77591">
        <ele>319.3</ele>
        <time>2014-11-02T11:35:46.000Z</time>
      </trkpt>
      <trkpt lat="47.50802" lon="6.77595">
        <ele>319.1</ele>
        <time>2014-11-02T11:35:47.000Z</time>
      </trkpt>
      <trkpt lat="47.50807" lon="6.776">
        <ele>320</ele>
        <time>2014-11-02T11:35:48.000Z</time>
      </trkpt>
      <trkpt lat="47.50812" lon="6.77606">
        <ele>320.4</ele>
        <time>2014-11-02T11:35:49.000Z</time>
      </trkpt>
      <trkpt lat="47.50818" lon="6.77611">
        <ele>320.5</ele>
        <time>2014-11-02T11:35:50.000Z</time>
      </trkpt>
      <trkpt lat="47.50822" lon="6.77617">
        <ele>320.4</ele>
        <time>2014-11-02T11:35:51.000Z</time>
      </trkpt>
      <trkpt lat="47.50827" lon="6.77625">
        <ele>319</ele>
        <time>2014-11-02T11:35:52.000Z</time>
      </trkpt>
      <trkpt lat="47.50831" lon="6.77632">
        <ele>317.7</ele>
        <time>2014-11-02T11:35:53.000Z</time>
      </trkpt>
      <trkpt lat="47.50838" lon="6.77637">
        <ele>318</ele>
        <time>2014-11-02T11:35:54.000Z</time>
      </trkpt>
      <trkpt lat="47.50842" lon="6.77641">
        <ele>319.8</ele>
        <time>2014-11-02T11:35:55.000Z</time>
      </trkpt>
      <trkpt lat="47.50847" lon="6.77647">
        <ele>319.9</ele>
        <time>2014-11-02T11:35:56.000Z</time>
      </trkpt>
      <trkpt lat="47.5085" lon="6.7765">
        <ele>323.8</ele>
        <time>2014-11-02T11:35:57.000Z</time>
      </trkpt>
      <trkpt lat="47.50855" lon="6.77653">
        <ele>322.8</ele>
        <time>2014-11-02T11:35:58.000Z</time>
      </trkpt>
      <trkpt lat="47.5086" lon="6.7766">
        <ele>320.7</ele>
        <time>2014-11-02T11:35:59.000Z</time>
      </trkpt>
      <trkpt lat="47.50866" lon="6.77669">
        <ele>319.1</ele>
        <time>2014-11-02T11:36:00.000Z</time>
      </trkpt>
      <trkpt lat="47.50869" lon="6.77677">
        <ele>318.4</ele>
        <time>2014-11-02T11:36:01.000Z</time>
      </trkpt>
      <trkpt lat="47.50872" lon="6.77683">
        <ele>318.1</ele>
        <time>2014-11-02T11:36:02.000Z</time>
      </trkpt>
      <trkpt lat="47.50876" lon="6.77689">
        <ele>317.5</ele>
        <time>2014-11-02T11:36:03.000Z</time>
      </trkpt>
      <trkpt lat="47.50902" lon="6.77699">
        <ele>319.7</ele>
        <time>2014-11-02T11:36:11.000Z</time>
      </trkpt>
      <trkpt lat="47.50907" lon="6.77702">
        <ele>322.3</ele>
        <time>2014-11-02T11:36:12.000Z</time>
      </trkpt>
      <trkpt lat="47.50913" lon="6.77701">
        <ele>321.5</ele>
        <time>2014-11-02T11:36:13.000Z</time>
      </trkpt>
      <trkpt lat="47.50916" lon="6.77703">
        <ele>322</ele>
        <time>2014-11-02T11:36:14.000Z</time>
      </trkpt>
      <trkpt lat="47.50922" lon="6.77706">
        <ele>324.2</ele>
        <time>2014-11-02T11:36:15.000Z</time>
      </trkpt>
      <trkpt lat="47.50926" lon="6.77707">
        <ele>324.7</ele>
        <time>2014-11-02T11:36:16.000Z</time>
      </trkpt>
      <trkpt lat="47.50931" lon="6.77705">
        <ele>323.4</ele>
        <time>2014-11-02T11:36:17.000Z</time>
      </trkpt>
      <trkpt lat="47.50935" lon="6.77705">
        <ele>321.6</ele>
        <time>2014-11-02T11:36:18.000Z</time>
      </trkpt>
      <trkpt lat="47.50939" lon="6.77706">
        <ele>320</ele>
        <time>2014-11-02T11:36:19.000Z</time>
      </trkpt>
      <trkpt lat="47.50943" lon="6.77705">
        <ele>321.1</ele>
        <time>2014-11-02T11:36:21.000Z</time>
      </trkpt>
      <trkpt lat="47.50944" lon="6.77705">
        <ele>321.2</ele>
        <time>2014-11-02T11:36:21.999Z</time>
      </trkpt>
      <trkpt lat="47.50947" lon="6.77705">
        <ele>318.1</ele>
        <time>2014-11-02T11:36:42.000Z</time>
      </trkpt>
      <trkpt lat="47.5095" lon="6.77702">
        <ele>315.6</ele>
        <time>2014-11-02T11:36:43.000Z</time>
      </trkpt>
      <trkpt lat="47.50954" lon="6.77699">
        <ele>315.1</ele>
        <time>2014-11-02T11:36:44.000Z</time>
      </trkpt>
      <trkpt lat="47.50957" lon="6.77696">
        <ele>314.8</ele>
        <time>2014-11-02T11:36:45.000Z</time>
      </trkpt>
      <trkpt lat="47.50961" lon="6.77694">
        <ele>314.3</ele>
        <time>2014-11-02T11:36:46.000Z</time>
      </trkpt>
      <trkpt lat="47.50964" lon="6.77693">
        <ele>314.4</ele>
        <time>2014-11-02T11:36:47.000Z</time>
      </trkpt>
      <trkpt lat="47.50967" lon="6.77693">
        <ele>315</ele>
        <time>2014-11-02T11:36:48.000Z</time>
      </trkpt>
      <trkpt lat="47.5097" lon="6.77695">
        <ele>315.1</ele>
        <time>2014-11-02T11:36:49.000Z</time>
      </trkpt>
      <trkpt lat="47.50973" lon="6.77698">
        <ele>316.1</ele>
        <time>2014-11-02T11:36:50.000Z</time>
      </trkpt>
      <trkpt lat="47.50977" lon="6.77702">
        <ele>315.8</ele>
        <time>2014-11-02T11:36:51.000Z</time>
      </trkpt>
      <trkpt lat="47.5098" lon="6.77705">
        <ele>315.7</ele>
        <time>2014-11-02T11:36:52.000Z</time>
      </trkpt>
      <trkpt lat="47.50986" lon="6.77713">
        <ele>313.4</ele>
        <time>2014-11-02T11:36:53.000Z</time>
      </trkpt>
      <trkpt lat="47.5099" lon="6.77715">
        <ele>313.3</ele>
        <time>2014-11-02T11:36:54.000Z</time>
      </trkpt>
      <trkpt lat="47.50993" lon="6.77718">
        <ele>313.5</ele>
        <time>2014-11-02T11:36:55.000Z</time>
      </trkpt>
      <trkpt lat="47.50997" lon="6.77722">
        <ele>314.5</ele>
        <time>2014-11-02T11:36:56.000Z</time>
      </trkpt>
      <trkpt lat="47.51002" lon="6.77725">
        <ele>314.7</ele>
        <time>2014-11-02T11:36:57.000Z</time>
      </trkpt>
      <trkpt lat="47.51006" lon="6.77728">
        <ele>315.6</ele>
        <time>2014-11-02T11:36:58.000Z</time>
      </trkpt>
      <trkpt lat="47.5101" lon="6.7773">
        <ele>317.7</ele>
        <time>2014-11-02T11:36:59.000Z</time>
      </trkpt>
      <trkpt lat="47.51014" lon="6.77734">
        <ele>315.6</ele>
        <time>2014-11-02T11:37:00.000Z</time>
      </trkpt>
      <trkpt lat="47.51018" lon="6.77737">
        <ele>315.6</ele>
        <time>2014-11-02T11:37:01.000Z</time>
      </trkpt>
      <trkpt lat="47.5102" lon="6.77739">
        <ele>316.1</ele>
        <time>2014-11-02T11:37:02.000Z</time>
      </trkpt>
      <trkpt lat="47.51023" lon="6.77741">
        <ele>316.7</ele>
        <time>2014-11-02T11:37:03.000Z</time>
      </trkpt>
      <trkpt lat="47.5105" lon="6.77764">
        <ele>317.5</ele>
        <time>2014-11-02T11:37:11.000Z</time>
      </trkpt>
      <trkpt lat="47.51052" lon="6.77768">
        <ele>317.2</ele>
        <time>2014-11-02T11:37:12.000Z</time>
      </trkpt>
      <trkpt lat="47.51057" lon="6.7777">
        <ele>317.2</ele>
        <time>2014-11-02T11:37:13.000Z</time>
      </trkpt>
      <trkpt lat="47.5106" lon="6.77773">
        <ele>319.2</ele>
        <time>2014-11-02T11:37:14.000Z</time>
      </trkpt>
      <trkpt lat="47.51064" lon="6.77776">
        <ele>318.3</ele>
        <time>2014-11-02T11:37:15.000Z</time>
      </trkpt>
      <trkpt lat="47.51069" lon="6.77778">
        <ele>317.6</ele>
        <time>2014-11-02T11:37:16.000Z</time>
      </trkpt>
      <trkpt lat="47.51073" lon="6.7778">
        <ele>316.7</ele>
        <time>2014-11-02T11:37:17.000Z</time>
      </trkpt>
      <trkpt lat="47.51077" lon="6.77783">
        <ele>317</ele>
        <time>2014-11-02T11:37:18.000Z</time>
      </trkpt>
      <trkpt lat="47.51081" lon="6.77785">
        <ele>317.3</ele>
        <time>2014-11-02T11:37:19.000Z</time>
      </trkpt>
      <trkpt lat="47.51084" lon="6.77787">
        <ele>317.6</ele>
        <time>2014-11-02T11:37:20.000Z</time>
      </trkpt>
      <trkpt lat="47.51088" lon="6.77789">
        <ele>317.7</ele>
        <time>2014-11-02T11:37:21.000Z</time>
      </trkpt>
      <trkpt lat="47.5109" lon="6.77787">
        <ele>319.2</ele>
        <time>2014-11-02T11:37:22.000Z</time>
      </trkpt>
      <trkpt lat="47.51093" lon="6.77787">
        <ele>321.6</ele>
        <time>2014-11-02T11:37:23.000Z</time>
      </trkpt>
      <trkpt lat="47.51096" lon="6.77787">
        <ele>323.2</ele>
        <time>2014-11-02T11:37:24.000Z</time>
      </trkpt>
      <trkpt lat="47.51099" lon="6.77786">
        <ele>325.4</ele>
        <time>2014-11-02T11:37:25.000Z</time>
      </trkpt>
      <trkpt lat="47.51102" lon="6.77786">
        <ele>327</ele>
        <time>2014-11-02T11:37:26.000Z</time>
      </trkpt>
      <trkpt lat="47.51104" lon="6.77786">
        <ele>328.6</ele>
        <time>2014-11-02T11:37:27.000Z</time>
      </trkpt>
      <trkpt lat="47.51107" lon="6.77787">
        <ele>328.1</ele>
        <time>2014-11-02T11:37:28.000Z</time>
      </trkpt>
      <trkpt lat="47.5111" lon="6.77787">
        <ele>328.8</ele>
        <time>2014-11-02T11:37:29.000Z</time>
      </trkpt>
      <trkpt lat="47.51114" lon="6.77788">
        <ele>329.1</ele>
        <time>2014-11-02T11:37:30.000Z</time>
      </trkpt>
      <trkpt lat="47.51118" lon="6.77788">
        <ele>329.2</ele>
        <time>2014-11-02T11:37:31.000Z</time>
      </trkpt>
      <trkpt lat="47.51121" lon="6.77789">
        <ele>329.7</ele>
        <time>2014-11-02T11:37:32.000Z</time>
      </trkpt>
      <trkpt lat="47.51125" lon="6.7779">
        <ele>329.8</ele>
        <time>2014-11-02T11:37:33.000Z</time>
      </trkpt>
      <trkpt lat="47.51128" lon="6.7779">
        <ele>329.6</ele>
        <time>2014-11-02T11:37:34.000Z</time>
      </trkpt>
      <trkpt lat="47.51131" lon="6.7779">
        <ele>329.6</ele>
        <time>2014-11-02T11:37:35.000Z</time>
      </trkpt>
      <trkpt lat="47.51134" lon="6.77789">
        <ele>330.4</ele>
        <time>2014-11-02T11:37:36.000Z</time>
      </trkpt>
      <trkpt lat="47.51137" lon="6.77789">
        <ele>331.7</ele>
        <time>2014-11-02T11:37:37.000Z</time>
      </trkpt>
      <trkpt lat="47.5114" lon="6.77789">
        <ele>332.2</ele>
        <time>2014-11-02T11:37:38.000Z</time>
      </trkpt>
      <trkpt lat="47.51143" lon="6.77789">
        <ele>333.6</ele>
        <time>2014-11-02T11:37:39.000Z</time>
      </trkpt>
      <trkpt lat="47.51145" lon="6.77789">
        <ele>334.6</ele>
        <time>2014-11-02T11:37:40.000Z</time>
      </trkpt>
      <trkpt lat="47.51148" lon="6.77789">
        <ele>335.3</ele>
        <time>2014-11-02T11:37:41.000Z</time>
      </trkpt>
      <trkpt lat="47.5115" lon="6.77788">
        <ele>337.6</ele>
        <time>2014-11-02T11:37:42.000Z</time>
      </trkpt>
      <trkpt lat="47.51152" lon="6.77787">
        <ele>338</ele>
        <time>2014-11-02T11:37:43.000Z</time>
      </trkpt>
      <trkpt lat="47.51155" lon="6.77787">
        <ele>337.2</ele>
        <time>2014-11-02T11:37:44.000Z</time>
      </trkpt>
      <trkpt lat="47.51157" lon="6.77787">
        <ele>337.5</ele>
        <time>2014-11-02T11:37:45.000Z</time>
      </trkpt>
      <trkpt lat="47.51161" lon="6.77788">
        <ele>337.8</ele>
        <time>2014-11-02T11:37:46.000Z</time>
      </trkpt>
      <trkpt lat="47.51163" lon="6.77789">
        <ele>337.7</ele>
        <time>2014-11-02T11:37:47.000Z</time>
      </trkpt>
      <trkpt lat="47.51166" lon="6.77789">
        <ele>337.9</ele>
        <time>2014-11-02T11:37:48.000Z</time>
      </trkpt>
      <trkpt lat="47.51169" lon="6.77789">
        <ele>337.5</ele>
        <time>2014-11-02T11:37:49.000Z</time>
      </trkpt>
      <trkpt lat="47.51171" lon="6.77789">
        <ele>336.6</ele>
        <time>2014-11-02T11:37:50.000Z</time>
      </trkpt>
      <trkpt lat="47.51174" lon="6.77788">
        <ele>335.9</ele>
        <time>2014-11-02T11:37:51.000Z</time>
      </trkpt>
      <trkpt lat="47.51176" lon="6.77788">
        <ele>335.1</ele>
        <time>2014-11-02T11:37:52.000Z</time>
      </trkpt>
      <trkpt lat="47.51179" lon="6.77787">
        <ele>334.3</ele>
        <time>2014-11-02T11:37:53.000Z</time>
      </trkpt>
      <trkpt lat="47.51181" lon="6.77787">
        <ele>334.1</ele>
        <time>2014-11-02T11:37:54.000Z</time>
      </trkpt>
      <trkpt lat="47.51183" lon="6.77786">
        <ele>334.2</ele>
        <time>2014-11-02T11:37:55.000Z</time>
      </trkpt>
      <trkpt lat="47.51186" lon="6.77784">
        <ele>333.1</ele>
        <time>2014-11-02T11:37:56.000Z</time>
      </trkpt>
      <trkpt lat="47.51189" lon="6.77783">
        <ele>333.3</ele>
        <time>2014-11-02T11:37:57.000Z</time>
      </trkpt>
      <trkpt lat="47.51191" lon="6.77781">
        <ele>333.8</ele>
        <time>2014-11-02T11:37:58.000Z</time>
      </trkpt>
      <trkpt lat="47.51194" lon="6.77783">
        <ele>333.2</ele>
        <time>2014-11-02T11:37:59.000Z</time>
      </trkpt>
      <trkpt lat="47.51197" lon="6.77784">
        <ele>335</ele>
        <time>2014-11-02T11:38:00.000Z</time>
      </trkpt>
      <trkpt lat="47.51199" lon="6.77787">
        <ele>337.2</ele>
        <time>2014-11-02T11:38:01.000Z</time>
      </trkpt>
      <trkpt lat="47.51202" lon="6.77789">
        <ele>338.7</ele>
        <time>2014-11-02T11:38:02.000Z</time>
      </trkpt>
      <trkpt lat="47.51204" lon="6.77793">
        <ele>338.7</ele>
        <time>2014-11-02T11:38:03.000Z</time>
      </trkpt>
      <trkpt lat="47.5122" lon="6.77799">
        <ele>336.3</ele>
        <time>2014-11-02T11:38:11.000Z</time>
      </trkpt>
      <trkpt lat="47.51223" lon="6.77797">
        <ele>335.3</ele>
        <time>2014-11-02T11:38:12.000Z</time>
      </trkpt>
      <trkpt lat="47.51226" lon="6.77795">
        <ele>335</ele>
        <time>2014-11-02T11:38:13.000Z</time>
      </trkpt>
      <trkpt lat="47.51229" lon="6.77794">
        <ele>334</ele>
        <time>2014-11-02T11:38:14.000Z</time>
      </trkpt>
      <trkpt lat="47.51232" lon="6.77794">
        <ele>335.8</ele>
        <time>2014-11-02T11:38:15.000Z</time>
      </trkpt>
      <trkpt lat="47.51234" lon="6.77794">
        <ele>337.4</ele>
        <time>2014-11-02T11:38:16.000Z</time>
      </trkpt>
      <trkpt lat="47.51236" lon="6.77794">
        <ele>338.9</ele>
        <time>2014-11-02T11:38:17.000Z</time>
      </trkpt>
      <trkpt lat="47.51241" lon="6.77795">
        <ele>338.1</ele>
        <time>2014-11-02T11:38:19.000Z</time>
      </trkpt>
      <trkpt lat="47.51242" lon="6.77795">
        <ele>338.7</ele>
        <time>2014-11-02T11:38:20.000Z</time>
      </trkpt>
      <trkpt lat="47.51245" lon="6.77794">
        <ele>338.6</ele>
        <time>2014-11-02T11:38:21.000Z</time>
      </trkpt>
      <trkpt lat="47.51248" lon="6.77793">
        <ele>339.1</ele>
        <time>2014-11-02T11:38:22.000Z</time>
      </trkpt>
      <trkpt lat="47.5125" lon="6.77793">
        <ele>339.1</ele>
        <time>2014-11-02T11:38:23.000Z</time>
      </trkpt>
      <trkpt lat="47.51253" lon="6.77792">
        <ele>338</ele>
        <time>2014-11-02T11:38:24.000Z</time>
      </trkpt>
      <trkpt lat="47.51255" lon="6.77792">
        <ele>338.1</ele>
        <time>2014-11-02T11:38:25.000Z</time>
      </trkpt>
      <trkpt lat="47.51258" lon="6.77791">
        <ele>338.1</ele>
        <time>2014-11-02T11:38:26.000Z</time>
      </trkpt>
      <trkpt lat="47.5126" lon="6.7779">
        <ele>338.2</ele>
        <time>2014-11-02T11:38:27.000Z</time>
      </trkpt>
      <trkpt lat="47.51263" lon="6.7779">
        <ele>338.8</ele>
        <time>2014-11-02T11:38:28.000Z</time>
      </trkpt>
      <trkpt lat="47.51265" lon="6.77789">
        <ele>338.6</ele>
        <time>2014-11-02T11:38:29.000Z</time>
      </trkpt>
      <trkpt lat="47.51267" lon="6.77789">
        <ele>339</ele>
        <time>2014-11-02T11:38:30.001Z</time>
      </trkpt>
      <trkpt lat="47.51271" lon="6.77788">
        <ele>339.4</ele>
        <time>2014-11-02T11:38:31.000Z</time>
      </trkpt>
      <trkpt lat="47.51273" lon="6.77788">
        <ele>339.4</ele>
        <time>2014-11-02T11:38:32.000Z</time>
      </trkpt>
      <trkpt lat="47.51276" lon="6.77787">
        <ele>339.6</ele>
        <time>2014-11-02T11:38:33.000Z</time>
      </trkpt>
      <trkpt lat="47.51278" lon="6.77787">
        <ele>340.3</ele>
        <time>2014-11-02T11:38:34.000Z</time>
      </trkpt>
      <trkpt lat="47.51281" lon="6.77786">
        <ele>341.2</ele>
        <time>2014-11-02T11:38:35.000Z</time>
      </trkpt>
      <trkpt lat="47.51283" lon="6.77786">
        <ele>340.7</ele>
        <time>2014-11-02T11:38:36.000Z</time>
      </trkpt>
      <trkpt lat="47.51286" lon="6.77785">
        <ele>340.9</ele>
        <time>2014-11-02T11:38:37.000Z</time>
      </trkpt>
      <trkpt lat="47.51288" lon="6.77785">
        <ele>342.1</ele>
        <time>2014-11-02T11:38:38.000Z</time>
      </trkpt>
      <trkpt lat="47.51292" lon="6.77784">
        <ele>342.5</ele>
        <time>2014-11-02T11:38:40.000Z</time>
      </trkpt>
      <trkpt lat="47.51294" lon="6.77784">
        <ele>342.5</ele>
        <time>2014-11-02T11:38:41.000Z</time>
      </trkpt>
      <trkpt lat="47.51298" lon="6.77782">
        <ele>343.9</ele>
        <time>2014-11-02T11:38:43.000Z</time>
      </trkpt>
      <trkpt lat="47.51301" lon="6.77781">
        <ele>344.1</ele>
        <time>2014-11-02T11:38:44.000Z</time>
      </trkpt>
      <trkpt lat="47.51305" lon="6.77779">
        <ele>347.9</ele>
        <time>2014-11-02T11:38:46.000Z</time>
      </trkpt>
      <trkpt lat="47.51307" lon="6.77778">
        <ele>349.1</ele>
        <time>2014-11-02T11:38:47.000Z</time>
      </trkpt>
      <trkpt lat="47.5131" lon="6.77777">
        <ele>348.8</ele>
        <time>2014-11-02T11:38:49.000Z</time>
      </trkpt>
      <trkpt lat="47.51311" lon="6.77776">
        <ele>352</ele>
        <time>2014-11-02T11:38:50.000Z</time>
      </trkpt>
      <trkpt lat="47.51314" lon="6.77776">
        <ele>356.7</ele>
        <time>2014-11-02T11:38:53.000Z</time>
      </trkpt>
      <trkpt lat="47.51316" lon="6.77776">
        <ele>356.3</ele>
        <time>2014-11-02T11:38:54.000Z</time>
      </trkpt>
      <trkpt lat="47.5132" lon="6.77775">
        <ele>356.1</ele>
        <time>2014-11-02T11:38:56.000Z</time>
      </trkpt>
      <trkpt lat="47.51321" lon="6.77775">
        <ele>355.3</ele>
        <time>2014-11-02T11:38:57.000Z</time>
      </trkpt>
      <trkpt lat="47.51324" lon="6.77774">
        <ele>353.4</ele>
        <time>2014-11-02T11:38:59.000Z</time>
      </trkpt>
      <trkpt lat="47.51326" lon="6.77775">
        <ele>353.6</ele>
        <time>2014-11-02T11:39:00.000Z</time>
      </trkpt>
      <trkpt lat="47.51329" lon="6.77777">
        <ele>353.4</ele>
        <time>2014-11-02T11:39:02.000Z</time>
      </trkpt>
      <trkpt lat="47.5133" lon="6.77779">
        <ele>353.9</ele>
        <time>2014-11-02T11:39:03.000Z</time>
      </trkpt>
      <trkpt lat="47.51332" lon="6.77783">
        <ele>354.2</ele>
        <time>2014-11-02T11:39:06.000Z</time>
      </trkpt>
      <trkpt lat="47.51334" lon="6.77784">
        <ele>354.6</ele>
        <time>2014-11-02T11:39:07.000Z</time>
      </trkpt>
      <trkpt lat="47.51338" lon="6.77784">
        <ele>353.9</ele>
        <time>2014-11-02T11:39:10.000Z</time>
      </trkpt>
      <trkpt lat="47.5134" lon="6.77782">
        <ele>355.1</ele>
        <time>2014-11-02T11:39:11.000Z</time>
      </trkpt>
      <trkpt lat="47.51343" lon="6.7778">
        <ele>356.1</ele>
        <time>2014-11-02T11:39:13.000Z</time>
      </trkpt>
      <trkpt lat="47.51345" lon="6.77778">
        <ele>356.1</ele>
        <time>2014-11-02T11:39:14.000Z</time>
      </trkpt>
      <trkpt lat="47.51348" lon="6.77776">
        <ele>354.9</ele>
        <time>2014-11-02T11:39:15.000Z</time>
      </trkpt>
      <trkpt lat="47.5135" lon="6.77775">
        <ele>355</ele>
        <time>2014-11-02T11:39:16.000Z</time>
      </trkpt>
      <trkpt lat="47.51353" lon="6.77773">
        <ele>356.7</ele>
        <time>2014-11-02T11:39:17.000Z</time>
      </trkpt>
      <trkpt lat="47.51355" lon="6.77772">
        <ele>356.2</ele>
        <time>2014-11-02T11:39:18.000Z</time>
      </trkpt>
      <trkpt lat="47.51358" lon="6.7777">
        <ele>356.3</ele>
        <time>2014-11-02T11:39:19.000Z</time>
      </trkpt>
      <trkpt lat="47.5136" lon="6.77769">
        <ele>356.3</ele>
        <time>2014-11-02T11:39:20.000Z</time>
      </trkpt>
      <trkpt lat="47.51364" lon="6.77768">
        <ele>357.4</ele>
        <time>2014-11-02T11:39:22.000Z</time>
      </trkpt>
      <trkpt lat="47.51366" lon="6.77767">
        <ele>357.5</ele>
        <time>2014-11-02T11:39:23.000Z</time>
      </trkpt>
      <trkpt lat="47.51369" lon="6.77766">
        <ele>358.2</ele>
        <time>2014-11-02T11:39:25.000Z</time>
      </trkpt>
      <trkpt lat="47.51371" lon="6.77765">
        <ele>357.6</ele>
        <time>2014-11-02T11:39:26.000Z</time>
      </trkpt>
      <trkpt lat="47.51375" lon="6.77762">
        <ele>355.9</ele>
        <time>2014-11-02T11:39:28.000Z</time>
      </trkpt>
      <trkpt lat="47.51377" lon="6.77761">
        <ele>356</ele>
        <time>2014-11-02T11:39:29.000Z</time>
      </trkpt>
      <trkpt lat="47.51379" lon="6.77759">
        <ele>355.9</ele>
        <time>2014-11-02T11:39:30.000Z</time>
      </trkpt>
      <trkpt lat="47.51381" lon="6.77758">
        <ele>355.1</ele>
        <time>2014-11-02T11:39:31.000Z</time>
      </trkpt>
      <trkpt lat="47.51385" lon="6.77756">
        <ele>355.2</ele>
        <time>2014-11-02T11:39:33.000Z</time>
      </trkpt>
      <trkpt lat="47.51387" lon="6.77756">
        <ele>355.4</ele>
        <time>2014-11-02T11:39:34.000Z</time>
      </trkpt>
      <trkpt lat="47.5139" lon="6.77756">
        <ele>357.3</ele>
        <time>2014-11-02T11:39:36.000Z</time>
      </trkpt>
      <trkpt lat="47.51392" lon="6.77755">
        <ele>357.8</ele>
        <time>2014-11-02T11:39:37.000Z</time>
      </trkpt>
      <trkpt lat="47.51396" lon="6.77753">
        <ele>357.5</ele>
        <time>2014-11-02T11:39:39.000Z</time>
      </trkpt>
      <trkpt lat="47.51398" lon="6.77752">
        <ele>357.8</ele>
        <time>2014-11-02T11:39:40.000Z</time>
      </trkpt>
      <trkpt lat="47.51401" lon="6.77749">
        <ele>357.7</ele>
        <time>2014-11-02T11:39:42.000Z</time>
      </trkpt>
      <trkpt lat="47.51403" lon="6.77749">
        <ele>359.3</ele>
        <time>2014-11-02T11:39:43.000Z</time>
      </trkpt>
      <trkpt lat="47.51407" lon="6.77748">
        <ele>358.3</ele>
        <time>2014-11-02T11:39:45.000Z</time>
      </trkpt>
      <trkpt lat="47.51409" lon="6.77747">
        <ele>358</ele>
        <time>2014-11-02T11:39:46.000Z</time>
      </trkpt>
      <trkpt lat="47.51412" lon="6.77744">
        <ele>356.3</ele>
        <time>2014-11-02T11:39:48.000Z</time>
      </trkpt>
      <trkpt lat="47.51414" lon="6.77743">
        <ele>356.5</ele>
        <time>2014-11-02T11:39:49.000Z</time>
      </trkpt>
      <trkpt lat="47.51417" lon="6.77741">
        <ele>357</ele>
        <time>2014-11-02T11:39:51.000Z</time>
      </trkpt>
      <trkpt lat="47.51418" lon="6.7774">
        <ele>357.1</ele>
        <time>2014-11-02T11:39:52.000Z</time>
      </trkpt>
      <trkpt lat="47.51422" lon="6.7774">
        <ele>358.4</ele>
        <time>2014-11-02T11:39:54.000Z</time>
      </trkpt>
      <trkpt lat="47.51424" lon="6.77739">
        <ele>358.4</ele>
        <time>2014-11-02T11:39:55.000Z</time>
      </trkpt>
      <trkpt lat="47.51427" lon="6.77738">
        <ele>358.5</ele>
        <time>2014-11-02T11:39:57.000Z</time>
      </trkpt>
      <trkpt lat="47.51429" lon="6.77738">
        <ele>358.7</ele>
        <time>2014-11-02T11:39:58.000Z</time>
      </trkpt>
      <trkpt lat="47.51433" lon="6.77736">
        <ele>358.7</ele>
        <time>2014-11-02T11:40:00.000Z</time>
      </trkpt>
      <trkpt lat="47.51434" lon="6.77736">
        <ele>359.4</ele>
        <time>2014-11-02T11:40:01.000Z</time>
      </trkpt>
      <trkpt lat="47.51438" lon="6.77734">
        <ele>358.2</ele>
        <time>2014-11-02T11:40:03.000Z</time>
      </trkpt>
      <trkpt lat="47.51444" lon="6.77734">
        <ele>358.4</ele>
        <time>2014-11-02T11:40:06.000Z</time>
      </trkpt>
      <trkpt lat="47.51447" lon="6.77734">
        <ele>359.8</ele>
        <time>2014-11-02T11:40:08.000Z</time>
      </trkpt>
      <trkpt lat="47.51449" lon="6.77733">
        <ele>359.9</ele>
        <time>2014-11-02T11:40:09.000Z</time>
      </trkpt>
      <trkpt lat="47.51452" lon="6.77733">
        <ele>359.3</ele>
        <time>2014-11-02T11:40:11.000Z</time>
      </trkpt>
      <trkpt lat="47.51454" lon="6.77733">
        <ele>359.5</ele>
        <time>2014-11-02T11:40:12.000Z</time>
      </trkpt>
      <trkpt lat="47.51457" lon="6.77733">
        <ele>359.3</ele>
        <time>2014-11-02T11:40:14.000Z</time>
      </trkpt>
      <trkpt lat="47.51459" lon="6.77733">
        <ele>359.6</ele>
        <time>2014-11-02T11:40:15.000Z</time>
      </trkpt>
      <trkpt lat="47.51462" lon="6.77732">
        <ele>358</ele>
        <time>2014-11-02T11:40:17.000Z</time>
      </trkpt>
      <trkpt lat="47.51464" lon="6.77732">
        <ele>358.1</ele>
        <time>2014-11-02T11:40:18.000Z</time>
      </trkpt>
      <trkpt lat="47.51467" lon="6.77731">
        <ele>358.5</ele>
        <time>2014-11-02T11:40:20.000Z</time>
      </trkpt>
      <trkpt lat="47.51469" lon="6.77732">
        <ele>358.5</ele>
        <time>2014-11-02T11:40:21.000Z</time>
      </trkpt>
      <trkpt lat="47.51472" lon="6.77732">
        <ele>358.9</ele>
        <time>2014-11-02T11:40:23.000Z</time>
      </trkpt>
      <trkpt lat="47.51474" lon="6.77732">
        <ele>359</ele>
        <time>2014-11-02T11:40:24.000Z</time>
      </trkpt>
      <trkpt lat="47.51477" lon="6.77733">
        <ele>361.4</ele>
        <time>2014-11-02T11:40:26.000Z</time>
      </trkpt>
      <trkpt lat="47.51479" lon="6.77733">
        <ele>361.5</ele>
        <time>2014-11-02T11:40:27.000Z</time>
      </trkpt>
      <trkpt lat="47.51483" lon="6.77732">
        <ele>361.3</ele>
        <time>2014-11-02T11:40:29.000Z</time>
      </trkpt>
      <trkpt lat="47.51485" lon="6.77731">
        <ele>361.1</ele>
        <time>2014-11-02T11:40:30.000Z</time>
      </trkpt>
      <trkpt lat="47.51488" lon="6.77731">
        <ele>361.4</ele>
        <time>2014-11-02T11:40:32.000Z</time>
      </trkpt>
      <trkpt lat="47.5149" lon="6.77731">
        <ele>361.8</ele>
        <time>2014-11-02T11:40:33.000Z</time>
      </trkpt>
      <trkpt lat="47.51494" lon="6.7773">
        <ele>362.8</ele>
        <time>2014-11-02T11:40:36.000Z</time>
      </trkpt>
      <trkpt lat="47.51496" lon="6.77729">
        <ele>364.1</ele>
        <time>2014-11-02T11:40:37.000Z</time>
      </trkpt>
      <trkpt lat="47.51499" lon="6.77727">
        <ele>364.8</ele>
        <time>2014-11-02T11:40:39.000Z</time>
      </trkpt>
      <trkpt lat="47.515" lon="6.77727">
        <ele>365</ele>
        <time>2014-11-02T11:40:40.000Z</time>
      </trkpt>
      <trkpt lat="47.51503" lon="6.77726">
        <ele>364.7</ele>
        <time>2014-11-02T11:40:42.000Z</time>
      </trkpt>
      <trkpt lat="47.51505" lon="6.77726">
        <ele>365.9</ele>
        <time>2014-11-02T11:40:43.000Z</time>
      </trkpt>
      <trkpt lat="47.51508" lon="6.77726">
        <ele>366.8</ele>
        <time>2014-11-02T11:40:45.000Z</time>
      </trkpt>
      <trkpt lat="47.5151" lon="6.77726">
        <ele>367.1</ele>
        <time>2014-11-02T11:40:46.000Z</time>
      </trkpt>
      <trkpt lat="47.51513" lon="6.77726">
        <ele>367.6</ele>
        <time>2014-11-02T11:40:48.000Z</time>
      </trkpt>
      <trkpt lat="47.51515" lon="6.77726">
        <ele>367.5</ele>
        <time>2014-11-02T11:40:49.000Z</time>
      </trkpt>
      <trkpt lat="47.51518" lon="6.77727">
        <ele>367.8</ele>
        <time>2014-11-02T11:40:51.000Z</time>
      </trkpt>
      <trkpt lat="47.51519" lon="6.77726">
        <ele>367</ele>
        <time>2014-11-02T11:40:52.000Z</time>
      </trkpt>
      <trkpt lat="47.51523" lon="6.77725">
        <ele>367.3</ele>
        <time>2014-11-02T11:40:54.000Z</time>
      </trkpt>
      <trkpt lat="47.51525" lon="6.77725">
        <ele>368.6</ele>
        <time>2014-11-02T11:40:55.000Z</time>
      </trkpt>
      <trkpt lat="47.51528" lon="6.77724">
        <ele>367.7</ele>
        <time>2014-11-02T11:40:57.000Z</time>
      </trkpt>
      <trkpt lat="47.5153" lon="6.77724">
        <ele>369.4</ele>
        <time>2014-11-02T11:40:58.000Z</time>
      </trkpt>
      <trkpt lat="47.51534" lon="6.77724">
        <ele>369.5</ele>
        <time>2014-11-02T11:41:00.000Z</time>
      </trkpt>
      <trkpt lat="47.51536" lon="6.77724">
        <ele>369.7</ele>
        <time>2014-11-02T11:41:01.000Z</time>
      </trkpt>
      <trkpt lat="47.51539" lon="6.77725">
        <ele>370.6</ele>
        <time>2014-11-02T11:41:03.000Z</time>
      </trkpt>
      <trkpt lat="47.51552" lon="6.77728">
        <ele>374.6</ele>
        <time>2014-11-02T11:41:11.000Z</time>
      </trkpt>
      <trkpt lat="47.51554" lon="6.77729">
        <ele>374.6</ele>
        <time>2014-11-02T11:41:13.000Z</time>
      </trkpt>
      <trkpt lat="47.51556" lon="6.77731">
        <ele>375</ele>
        <time>2014-11-02T11:41:14.000Z</time>
      </trkpt>
      <trkpt lat="47.51559" lon="6.77732">
        <ele>374.9</ele>
        <time>2014-11-02T11:41:16.000Z</time>
      </trkpt>
      <trkpt lat="47.5156" lon="6.77733">
        <ele>375.1</ele>
        <time>2014-11-02T11:41:16.999Z</time>
      </trkpt>
      <trkpt lat="47.51565" lon="6.77734">
        <ele>374.5</ele>
        <time>2014-11-02T11:41:19.000Z</time>
      </trkpt>
      <trkpt lat="47.51567" lon="6.77735">
        <ele>376.9</ele>
        <time>2014-11-02T11:41:20.000Z</time>
      </trkpt>
      <trkpt lat="47.51571" lon="6.77738">
        <ele>379</ele>
        <time>2014-11-02T11:41:23.000Z</time>
      </trkpt>
      <trkpt lat="47.51572" lon="6.77738">
        <ele>380.2</ele>
        <time>2014-11-02T11:41:24.002Z</time>
      </trkpt>
      <trkpt lat="47.51575" lon="6.77738">
        <ele>379.6</ele>
        <time>2014-11-02T11:41:27.000Z</time>
      </trkpt>
      <trkpt lat="47.51576" lon="6.77738">
        <ele>379.2</ele>
        <time>2014-11-02T11:41:28.000Z</time>
      </trkpt>
      <trkpt lat="47.51579" lon="6.77742">
        <ele>382.5</ele>
        <time>2014-11-02T11:41:32.000Z</time>
      </trkpt>
      <trkpt lat="47.51579" lon="6.77743">
        <ele>382.4</ele>
        <time>2014-11-02T11:41:33.000Z</time>
      </trkpt>
      <trkpt lat="47.51579" lon="6.77749">
        <ele>383.7</ele>
        <time>2014-11-02T11:41:36.000Z</time>
      </trkpt>
      <trkpt lat="47.5158" lon="6.77752">
        <ele>383</ele>
        <time>2014-11-02T11:41:37.000Z</time>
      </trkpt>
      <trkpt lat="47.51582" lon="6.77755">
        <ele>383.2</ele>
        <time>2014-11-02T11:41:38.000Z</time>
      </trkpt>
      <trkpt lat="47.51584" lon="6.77758">
        <ele>383.6</ele>
        <time>2014-11-02T11:41:39.000Z</time>
      </trkpt>
      <trkpt lat="47.51587" lon="6.77759">
        <ele>384.5</ele>
        <time>2014-11-02T11:41:40.000Z</time>
      </trkpt>
      <trkpt lat="47.5159" lon="6.7776">
        <ele>385.4</ele>
        <time>2014-11-02T11:41:41.000Z</time>
      </trkpt>
      <trkpt lat="47.51594" lon="6.77761">
        <ele>388.7</ele>
        <time>2014-11-02T11:41:43.000Z</time>
      </trkpt>
      <trkpt lat="47.51595" lon="6.77761">
        <ele>389.1</ele>
        <time>2014-11-02T11:41:44.000Z</time>
      </trkpt>
      <trkpt lat="47.51599" lon="6.77761">
        <ele>390.5</ele>
        <time>2014-11-02T11:41:46.000Z</time>
      </trkpt>
      <trkpt lat="47.51601" lon="6.77761">
        <ele>391.1</ele>
        <time>2014-11-02T11:41:47.000Z</time>
      </trkpt>
      <trkpt lat="47.51604" lon="6.77761">
        <ele>393.3</ele>
        <time>2014-11-02T11:41:49.000Z</time>
      </trkpt>
      <trkpt lat="47.51606" lon="6.77761">
        <ele>394.5</ele>
        <time>2014-11-02T11:41:50.000Z</time>
      </trkpt>
      <trkpt lat="47.5161" lon="6.77762">
        <ele>396.8</ele>
        <time>2014-11-02T11:41:53.000Z</time>
      </trkpt>
      <trkpt lat="47.51612" lon="6.77763">
        <ele>397.5</ele>
        <time>2014-11-02T11:41:54.000Z</time>
      </trkpt>
      <trkpt lat="47.51616" lon="6.77763">
        <ele>398.1</ele>
        <time>2014-11-02T11:41:56.000Z</time>
      </trkpt>
      <trkpt lat="47.51618" lon="6.77763">
        <ele>398.7</ele>
        <time>2014-11-02T11:41:57.000Z</time>
      </trkpt>
      <trkpt lat="47.51622" lon="6.77763">
        <ele>400.2</ele>
        <time>2014-11-02T11:41:59.000Z</time>
      </trkpt>
      <trkpt lat="47.51623" lon="6.77764">
        <ele>400.6</ele>
        <time>2014-11-02T11:42:00.000Z</time>
      </trkpt>
      <trkpt lat="47.51627" lon="6.77766">
        <ele>400.2</ele>
        <time>2014-11-02T11:42:02.000Z</time>
      </trkpt>
      <trkpt lat="47.51629" lon="6.77766">
        <ele>400.1</ele>
        <time>2014-11-02T11:42:03.000Z</time>
      </trkpt>
      <trkpt lat="47.51642" lon="6.77767">
        <ele>400.7</ele>
        <time>2014-11-02T11:42:11.000Z</time>
      </trkpt>
      <trkpt lat="47.51645" lon="6.77769">
        <ele>400.1</ele>
        <time>2014-11-02T11:42:13.000Z</time>
      </trkpt>
      <trkpt lat="47.51647" lon="6.7777">
        <ele>398</ele>
        <time>2014-11-02T11:42:14.000Z</time>
      </trkpt>
      <trkpt lat="47.5165" lon="6.77771">
        <ele>399.8</ele>
        <time>2014-11-02T11:42:15.000Z</time>
      </trkpt>
      <trkpt lat="47.51652" lon="6.7777">
        <ele>399.9</ele>
        <time>2014-11-02T11:42:16.000Z</time>
      </trkpt>
      <trkpt lat="47.51655" lon="6.77771">
        <ele>399.3</ele>
        <time>2014-11-02T11:42:17.000Z</time>
      </trkpt>
      <trkpt lat="47.51658" lon="6.77771">
        <ele>398.1</ele>
        <time>2014-11-02T11:42:18.000Z</time>
      </trkpt>
      <trkpt lat="47.5166" lon="6.77771">
        <ele>397.3</ele>
        <time>2014-11-02T11:42:19.000Z</time>
      </trkpt>
      <trkpt lat="47.51662" lon="6.77772">
        <ele>397.8</ele>
        <time>2014-11-02T11:42:20.000Z</time>
      </trkpt>
      <trkpt lat="47.51665" lon="6.77773">
        <ele>397.5</ele>
        <time>2014-11-02T11:42:21.000Z</time>
      </trkpt>
      <trkpt lat="47.51667" lon="6.77774">
        <ele>397.4</ele>
        <time>2014-11-02T11:42:22.000Z</time>
      </trkpt>
      <trkpt lat="47.5167" lon="6.77775">
        <ele>396.8</ele>
        <time>2014-11-02T11:42:23.000Z</time>
      </trkpt>
      <trkpt lat="47.51673" lon="6.77775">
        <ele>396.3</ele>
        <time>2014-11-02T11:42:24.000Z</time>
      </trkpt>
      <trkpt lat="47.51676" lon="6.77776">
        <ele>396.4</ele>
        <time>2014-11-02T11:42:25.000Z</time>
      </trkpt>
      <trkpt lat="47.51678" lon="6.77776">
        <ele>395.2</ele>
        <time>2014-11-02T11:42:26.000Z</time>
      </trkpt>
      <trkpt lat="47.51681" lon="6.77776">
        <ele>394.9</ele>
        <time>2014-11-02T11:42:27.000Z</time>
      </trkpt>
      <trkpt lat="47.51683" lon="6.77775">
        <ele>394.9</ele>
        <time>2014-11-02T11:42:28.000Z</time>
      </trkpt>
      <trkpt lat="47.51687" lon="6.77772">
        <ele>394.7</ele>
        <time>2014-11-02T11:42:30.000Z</time>
      </trkpt>
      <trkpt lat="47.51688" lon="6.7777">
        <ele>395.5</ele>
        <time>2014-11-02T11:42:31.000Z</time>
      </trkpt>
      <trkpt lat="47.51692" lon="6.77768">
        <ele>396.3</ele>
        <time>2014-11-02T11:42:33.000Z</time>
      </trkpt>
      <trkpt lat="47.51693" lon="6.77767">
        <ele>396.8</ele>
        <time>2014-11-02T11:42:34.000Z</time>
      </trkpt>
      <trkpt lat="47.51696" lon="6.77764">
        <ele>397</ele>
        <time>2014-11-02T11:42:36.000Z</time>
      </trkpt>
      <trkpt lat="47.51697" lon="6.77762">
        <ele>397.4</ele>
        <time>2014-11-02T11:42:37.000Z</time>
      </trkpt>
      <trkpt lat="47.51699" lon="6.77756">
        <ele>397.2</ele>
        <time>2014-11-02T11:42:39.000Z</time>
      </trkpt>
      <trkpt lat="47.517" lon="6.77753">
        <ele>397.3</ele>
        <time>2014-11-02T11:42:40.000Z</time>
      </trkpt>
      <trkpt lat="47.51701" lon="6.77747">
        <ele>397.1</ele>
        <time>2014-11-02T11:42:42.000Z</time>
      </trkpt>
      <trkpt lat="47.51701" lon="6.77744">
        <ele>397.4</ele>
        <time>2014-11-02T11:42:43.000Z</time>
      </trkpt>
      <trkpt lat="47.51701" lon="6.77737">
        <ele>398.3</ele>
        <time>2014-11-02T11:42:45.000Z</time>
      </trkpt>
      <trkpt lat="47.51702" lon="6.77734">
        <ele>398.5</ele>
        <time>2014-11-02T11:42:46.000Z</time>
      </trkpt>
      <trkpt lat="47.51702" lon="6.77729">
        <ele>400.3</ele>
        <time>2014-11-02T11:42:48.000Z</time>
      </trkpt>
      <trkpt lat="47.51702" lon="6.77726">
        <ele>400.1</ele>
        <time>2014-11-02T11:42:49.000Z</time>
      </trkpt>
      <trkpt lat="47.51704" lon="6.77719">
        <ele>401.9</ele>
        <time>2014-11-02T11:42:51.000Z</time>
      </trkpt>
      <trkpt lat="47.51704" lon="6.77717">
        <ele>403.4</ele>
        <time>2014-11-02T11:42:52.000Z</time>
      </trkpt>
      <trkpt lat="47.51705" lon="6.77712">
        <ele>398.7</ele>
        <time>2014-11-02T11:42:54.000Z</time>
      </trkpt>
      <trkpt lat="47.51705" lon="6.7771">
        <ele>398.7</ele>
        <time>2014-11-02T11:42:55.000Z</time>
      </trkpt>
      <trkpt lat="47.51707" lon="6.77705">
        <ele>401</ele>
        <time>2014-11-02T11:42:59.000Z</time>
      </trkpt>
      <trkpt lat="47.51708" lon="6.77702">
        <ele>400.3</ele>
        <time>2014-11-02T11:43:00.000Z</time>
      </trkpt>
      <trkpt lat="47.51707" lon="6.77697">
        <ele>399.2</ele>
        <time>2014-11-02T11:43:02.000Z</time>
      </trkpt>
      <trkpt lat="47.51707" lon="6.77693">
        <ele>398.6</ele>
        <time>2014-11-02T11:43:03.000Z</time>
      </trkpt>
      <trkpt lat="47.51708" lon="6.77658">
        <ele>399.3</ele>
        <time>2014-11-02T11:43:11.000Z</time>
      </trkpt>
      <trkpt lat="47.51708" lon="6.77654">
        <ele>399.5</ele>
        <time>2014-11-02T11:43:12.000Z</time>
      </trkpt>
      <trkpt lat="47.51708" lon="6.7765">
        <ele>400.2</ele>
        <time>2014-11-02T11:43:13.000Z</time>
      </trkpt>
      <trkpt lat="47.51709" lon="6.77646">
        <ele>399.8</ele>
        <time>2014-11-02T11:43:14.000Z</time>
      </trkpt>
      <trkpt lat="47.5171" lon="6.77641">
        <ele>400.4</ele>
        <time>2014-11-02T11:43:15.000Z</time>
      </trkpt>
      <trkpt lat="47.51711" lon="6.77636">
        <ele>399.6</ele>
        <time>2014-11-02T11:43:16.000Z</time>
      </trkpt>
      <trkpt lat="47.51711" lon="6.77632">
        <ele>399</ele>
        <time>2014-11-02T11:43:17.000Z</time>
      </trkpt>
      <trkpt lat="47.51712" lon="6.77628">
        <ele>398.4</ele>
        <time>2014-11-02T11:43:18.000Z</time>
      </trkpt>
      <trkpt lat="47.51713" lon="6.77624">
        <ele>398.1</ele>
        <time>2014-11-02T11:43:19.000Z</time>
      </trkpt>
      <trkpt lat="47.51713" lon="6.7762">
        <ele>397.3</ele>
        <time>2014-11-02T11:43:20.000Z</time>
      </trkpt>
      <trkpt lat="47.51713" lon="6.77617">
        <ele>396.8</ele>
        <time>2014-11-02T11:43:21.000Z</time>
      </trkpt>
      <trkpt lat="47.51713" lon="6.77611">
        <ele>397.5</ele>
        <time>2014-11-02T11:43:23.000Z</time>
      </trkpt>
      <trkpt lat="47.51713" lon="6.77608">
        <ele>398</ele>
        <time>2014-11-02T11:43:24.000Z</time>
      </trkpt>
      <trkpt lat="47.51712" lon="6.77602">
        <ele>397.1</ele>
        <time>2014-11-02T11:43:26.000Z</time>
      </trkpt>
      <trkpt lat="47.51712" lon="6.77599">
        <ele>395.9</ele>
        <time>2014-11-02T11:43:27.000Z</time>
      </trkpt>
      <trkpt lat="47.51712" lon="6.77593">
        <ele>394.9</ele>
        <time>2014-11-02T11:43:29.000Z</time>
      </trkpt>
      <trkpt lat="47.51713" lon="6.77591">
        <ele>395.1</ele>
        <time>2014-11-02T11:43:30.000Z</time>
      </trkpt>
      <trkpt lat="47.51716" lon="6.77589">
        <ele>395.5</ele>
        <time>2014-11-02T11:43:32.000Z</time>
      </trkpt>
      <trkpt lat="47.51718" lon="6.77588">
        <ele>396.6</ele>
        <time>2014-11-02T11:43:33.000Z</time>
      </trkpt>
      <trkpt lat="47.51721" lon="6.77584">
        <ele>396.5</ele>
        <time>2014-11-02T11:43:35.000Z</time>
      </trkpt>
      <trkpt lat="47.51721" lon="6.7758">
        <ele>396.5</ele>
        <time>2014-11-02T11:43:36.000Z</time>
      </trkpt>
      <trkpt lat="47.51721" lon="6.77575">
        <ele>396.4</ele>
        <time>2014-11-02T11:43:37.000Z</time>
      </trkpt>
      <trkpt lat="47.51721" lon="6.7757">
        <ele>395.7</ele>
        <time>2014-11-02T11:43:38.000Z</time>
      </trkpt>
      <trkpt lat="47.51721" lon="6.77564">
        <ele>397.2</ele>
        <time>2014-11-02T11:43:39.000Z</time>
      </trkpt>
      <trkpt lat="47.51722" lon="6.77558">
        <ele>397.4</ele>
        <time>2014-11-02T11:43:40.000Z</time>
      </trkpt>
      <trkpt lat="47.51723" lon="6.77552">
        <ele>398.3</ele>
        <time>2014-11-02T11:43:41.000Z</time>
      </trkpt>
      <trkpt lat="47.51726" lon="6.77542">
        <ele>397.2</ele>
        <time>2014-11-02T11:43:42.000Z</time>
      </trkpt>
      <trkpt lat="47.51728" lon="6.77536">
        <ele>396.1</ele>
        <time>2014-11-02T11:43:43.000Z</time>
      </trkpt>
      <trkpt lat="47.51728" lon="6.7753">
        <ele>396</ele>
        <time>2014-11-02T11:43:44.000Z</time>
      </trkpt>
      <trkpt lat="47.51728" lon="6.77524">
        <ele>396.4</ele>
        <time>2014-11-02T11:43:45.000Z</time>
      </trkpt>
      <trkpt lat="47.51729" lon="6.77519">
        <ele>397.5</ele>
        <time>2014-11-02T11:43:46.001Z</time>
      </trkpt>
      <trkpt lat="47.5173" lon="6.77513">
        <ele>397.5</ele>
        <time>2014-11-02T11:43:47.000Z</time>
      </trkpt>
      <trkpt lat="47.51731" lon="6.77508">
        <ele>397.2</ele>
        <time>2014-11-02T11:43:48.000Z</time>
      </trkpt>
      <trkpt lat="47.51732" lon="6.77503">
        <ele>396.7</ele>
        <time>2014-11-02T11:43:49.000Z</time>
      </trkpt>
      <trkpt lat="47.51733" lon="6.77496">
        <ele>397.3</ele>
        <time>2014-11-02T11:43:50.000Z</time>
      </trkpt>
      <trkpt lat="47.51734" lon="6.7749">
        <ele>396.8</ele>
        <time>2014-11-02T11:43:51.000Z</time>
      </trkpt>
      <trkpt lat="47.51736" lon="6.77485">
        <ele>397.9</ele>
        <time>2014-11-02T11:43:52.000Z</time>
      </trkpt>
      <trkpt lat="47.51739" lon="6.77481">
        <ele>398.6</ele>
        <time>2014-11-02T11:43:53.000Z</time>
      </trkpt>
      <trkpt lat="47.51742" lon="6.77478">
        <ele>398.9</ele>
        <time>2014-11-02T11:43:54.000Z</time>
      </trkpt>
      <trkpt lat="47.51748" lon="6.77483">
        <ele>398</ele>
        <time>2014-11-02T11:43:55.000Z</time>
      </trkpt>
      <trkpt lat="47.51753" lon="6.77482">
        <ele>397</ele>
        <time>2014-11-02T11:43:56.000Z</time>
      </trkpt>
      <trkpt lat="47.51758" lon="6.77483">
        <ele>396.4</ele>
        <time>2014-11-02T11:43:57.000Z</time>
      </trkpt>
      <trkpt lat="47.51763" lon="6.77484">
        <ele>394.7</ele>
        <time>2014-11-02T11:43:58.000Z</time>
      </trkpt>
      <trkpt lat="47.51767" lon="6.77485">
        <ele>393.9</ele>
        <time>2014-11-02T11:43:59.000Z</time>
      </trkpt>
      <trkpt lat="47.51771" lon="6.77487">
        <ele>393.5</ele>
        <time>2014-11-02T11:44:00.000Z</time>
      </trkpt>
      <trkpt lat="47.51775" lon="6.77488">
        <ele>393.4</ele>
        <time>2014-11-02T11:44:01.000Z</time>
      </trkpt>
      <trkpt lat="47.51779" lon="6.77489">
        <ele>394.5</ele>
        <time>2014-11-02T11:44:02.000Z</time>
      </trkpt>
      <trkpt lat="47.51783" lon="6.77491">
        <ele>394.7</ele>
        <time>2014-11-02T11:44:03.000Z</time>
      </trkpt>
      <trkpt lat="47.51812" lon="6.77488">
        <ele>393.1</ele>
        <time>2014-11-02T11:44:11.000Z</time>
      </trkpt>
      <trkpt lat="47.51804" lon="6.77486">
        <ele>393.5</ele>
        <time>2014-11-02T11:44:12.000Z</time>
      </trkpt>
      <trkpt lat="47.51801" lon="6.77483">
        <ele>393.7</ele>
        <time>2014-11-02T11:44:12.999Z</time>
      </trkpt>
      <trkpt lat="47.51801" lon="6.77475">
        <ele>395.8</ele>
        <time>2014-11-02T11:44:14.000Z</time>
      </trkpt>
      <trkpt lat="47.51801" lon="6.7747">
        <ele>396.8</ele>
        <time>2014-11-02T11:44:15.000Z</time>
      </trkpt>
      <trkpt lat="47.518" lon="6.77466">
        <ele>398.6</ele>
        <time>2014-11-02T11:44:16.000Z</time>
      </trkpt>
      <trkpt lat="47.51799" lon="6.7746">
        <ele>397.7</ele>
        <time>2014-11-02T11:44:23.000Z</time>
      </trkpt>
      <trkpt lat="47.51799" lon="6.77459">
        <ele>396.8</ele>
        <time>2014-11-02T11:44:24.000Z</time>
      </trkpt>
      <trkpt lat="47.51795" lon="6.77456">
        <ele>397.4</ele>
        <time>2014-11-02T11:44:51.000Z</time>
      </trkpt>
      <trkpt lat="47.51795" lon="6.77456">
        <ele>396</ele>
        <time>2014-11-02T11:44:52.000Z</time>
      </trkpt>
      <trkpt lat="47.51794" lon="6.77456">
        <ele>390.4</ele>
        <time>2014-11-02T11:45:13.000Z</time>
      </trkpt>
    </trkseg>
  </trk>
</gpx>